<?xml version="1.0" encoding="UTF-8" standalone="no" ?>
<gpx xmlns="http://www.topografix.com/GPX/1/1" xmlns:xsi="http://www.w3.org/2001/XMLSchema-instance" xsi:schemaLocation="http://www.topografix.com/GPX/1/1 http://www.topografix.com/GPX/1/1/gpx.xsd" version="1.1" creator="VisuGPX - https://www.visugpx.com">
  <metadata>
    <name>Tour des Sables d'Olonne</name>
  </metadata>
  <trk>
    <name><![CDATA[Tour des Sables d'Olonne_1]]></name>
    <trkseg>
      <trkpt lat="46.49367" lon="-1.77939">
        <ele>7.3</ele>
        <time>2021-09-25T12:01:49Z</time>
      </trkpt>
      <trkpt lat="46.49368" lon="-1.7794">
        <ele>7.3</ele>
        <time>2021-09-25T12:01:50Z</time>
      </trkpt>
      <trkpt lat="46.49368" lon="-1.77941">
        <ele>7.3</ele>
        <time>2021-09-25T12:01:51Z</time>
      </trkpt>
      <trkpt lat="46.49369" lon="-1.77942">
        <ele>7.3</ele>
        <time>2021-09-25T12:01:52Z</time>
      </trkpt>
      <trkpt lat="46.49369" lon="-1.77943">
        <ele>7.3</ele>
        <time>2021-09-25T12:01:53Z</time>
      </trkpt>
      <trkpt lat="46.4937" lon="-1.77945">
        <ele>7.3</ele>
        <time>2021-09-25T12:01:54Z</time>
      </trkpt>
      <trkpt lat="46.4937" lon="-1.77946">
        <ele>7.3</ele>
        <time>2021-09-25T12:01:55Z</time>
      </trkpt>
      <trkpt lat="46.49371" lon="-1.77947">
        <ele>7.3</ele>
        <time>2021-09-25T12:01:56Z</time>
      </trkpt>
      <trkpt lat="46.49371" lon="-1.77949">
        <ele>7.3</ele>
        <time>2021-09-25T12:01:57Z</time>
      </trkpt>
      <trkpt lat="46.49372" lon="-1.7795">
        <ele>7.3</ele>
        <time>2021-09-25T12:01:58Z</time>
      </trkpt>
      <trkpt lat="46.49372" lon="-1.77952">
        <ele>7.3</ele>
        <time>2021-09-25T12:01:59Z</time>
      </trkpt>
      <trkpt lat="46.49373" lon="-1.77953">
        <ele>7.3</ele>
        <time>2021-09-25T12:02:00Z</time>
      </trkpt>
      <trkpt lat="46.49373" lon="-1.77954">
        <ele>7.3</ele>
        <time>2021-09-25T12:02:01Z</time>
      </trkpt>
      <trkpt lat="46.49374" lon="-1.77956">
        <ele>7.3</ele>
        <time>2021-09-25T12:02:02Z</time>
      </trkpt>
      <trkpt lat="46.49374" lon="-1.77957">
        <ele>7.3</ele>
        <time>2021-09-25T12:02:03Z</time>
      </trkpt>
      <trkpt lat="46.49375" lon="-1.77958">
        <ele>7.3</ele>
        <time>2021-09-25T12:02:04Z</time>
      </trkpt>
      <trkpt lat="46.49375" lon="-1.77959">
        <ele>7.3</ele>
        <time>2021-09-25T12:02:05Z</time>
      </trkpt>
      <trkpt lat="46.49375" lon="-1.7796">
        <ele>7.3</ele>
        <time>2021-09-25T12:02:06Z</time>
      </trkpt>
      <trkpt lat="46.49376" lon="-1.77961">
        <ele>7.3</ele>
        <time>2021-09-25T12:02:07Z</time>
      </trkpt>
      <trkpt lat="46.49376" lon="-1.77962">
        <ele>7.3</ele>
        <time>2021-09-25T12:02:08Z</time>
      </trkpt>
      <trkpt lat="46.49376" lon="-1.77962">
        <ele>7.3</ele>
        <time>2021-09-25T12:02:09Z</time>
      </trkpt>
      <trkpt lat="46.49376" lon="-1.77963">
        <ele>7.3</ele>
        <time>2021-09-25T12:02:10Z</time>
      </trkpt>
      <trkpt lat="46.49376" lon="-1.77963">
        <ele>7.3</ele>
        <time>2021-09-25T12:02:11Z</time>
      </trkpt>
      <trkpt lat="46.49377" lon="-1.77964">
        <ele>7.3</ele>
        <time>2021-09-25T12:02:12Z</time>
      </trkpt>
      <trkpt lat="46.49377" lon="-1.77965">
        <ele>7.3</ele>
        <time>2021-09-25T12:02:13Z</time>
      </trkpt>
      <trkpt lat="46.49377" lon="-1.77966">
        <ele>7.3</ele>
        <time>2021-09-25T12:02:14Z</time>
      </trkpt>
      <trkpt lat="46.49377" lon="-1.77967">
        <ele>7.3</ele>
        <time>2021-09-25T12:02:15Z</time>
      </trkpt>
      <trkpt lat="46.49378" lon="-1.77968">
        <ele>7.3</ele>
        <time>2021-09-25T12:02:16Z</time>
      </trkpt>
      <trkpt lat="46.49378" lon="-1.77969">
        <ele>7.3</ele>
        <time>2021-09-25T12:02:17Z</time>
      </trkpt>
      <trkpt lat="46.49378" lon="-1.7797">
        <ele>7.3</ele>
        <time>2021-09-25T12:02:18Z</time>
      </trkpt>
      <trkpt lat="46.49379" lon="-1.77972">
        <ele>7.3</ele>
        <time>2021-09-25T12:02:19Z</time>
      </trkpt>
      <trkpt lat="46.49379" lon="-1.77973">
        <ele>7.3</ele>
        <time>2021-09-25T12:02:20Z</time>
      </trkpt>
      <trkpt lat="46.49379" lon="-1.77973">
        <ele>7.3</ele>
        <time>2021-09-25T12:02:21Z</time>
      </trkpt>
      <trkpt lat="46.49379" lon="-1.77974">
        <ele>7.3</ele>
        <time>2021-09-25T12:02:22Z</time>
      </trkpt>
      <trkpt lat="46.4938" lon="-1.77975">
        <ele>7.3</ele>
        <time>2021-09-25T12:02:23Z</time>
      </trkpt>
      <trkpt lat="46.4938" lon="-1.77976">
        <ele>7.3</ele>
        <time>2021-09-25T12:02:24Z</time>
      </trkpt>
      <trkpt lat="46.4938" lon="-1.77976">
        <ele>7.3</ele>
        <time>2021-09-25T12:02:25Z</time>
      </trkpt>
      <trkpt lat="46.4938" lon="-1.77977">
        <ele>7.2</ele>
        <time>2021-09-25T12:02:26Z</time>
      </trkpt>
      <trkpt lat="46.4938" lon="-1.77978">
        <ele>7.2</ele>
        <time>2021-09-25T12:02:27Z</time>
      </trkpt>
      <trkpt lat="46.4938" lon="-1.77978">
        <ele>7.2</ele>
        <time>2021-09-25T12:02:28Z</time>
      </trkpt>
      <trkpt lat="46.4938" lon="-1.77979">
        <ele>7.2</ele>
        <time>2021-09-25T12:02:29Z</time>
      </trkpt>
      <trkpt lat="46.49381" lon="-1.7798">
        <ele>7.2</ele>
        <time>2021-09-25T12:02:30Z</time>
      </trkpt>
      <trkpt lat="46.49381" lon="-1.77981">
        <ele>7.2</ele>
        <time>2021-09-25T12:02:31Z</time>
      </trkpt>
      <trkpt lat="46.49381" lon="-1.77982">
        <ele>7.2</ele>
        <time>2021-09-25T12:02:32Z</time>
      </trkpt>
      <trkpt lat="46.49382" lon="-1.77983">
        <ele>7.2</ele>
        <time>2021-09-25T12:02:33Z</time>
      </trkpt>
      <trkpt lat="46.49383" lon="-1.77985">
        <ele>7.2</ele>
        <time>2021-09-25T12:02:34Z</time>
      </trkpt>
      <trkpt lat="46.49383" lon="-1.77987">
        <ele>7.2</ele>
        <time>2021-09-25T12:02:35Z</time>
      </trkpt>
      <trkpt lat="46.49384" lon="-1.77988">
        <ele>7.2</ele>
        <time>2021-09-25T12:02:36Z</time>
      </trkpt>
      <trkpt lat="46.49385" lon="-1.7799">
        <ele>7.2</ele>
        <time>2021-09-25T12:02:37Z</time>
      </trkpt>
      <trkpt lat="46.49385" lon="-1.77991">
        <ele>7.2</ele>
        <time>2021-09-25T12:02:38Z</time>
      </trkpt>
      <trkpt lat="46.49385" lon="-1.77993">
        <ele>7.2</ele>
        <time>2021-09-25T12:02:39Z</time>
      </trkpt>
      <trkpt lat="46.49386" lon="-1.77994">
        <ele>7.2</ele>
        <time>2021-09-25T12:02:40Z</time>
      </trkpt>
      <trkpt lat="46.49386" lon="-1.77995">
        <ele>7.2</ele>
        <time>2021-09-25T12:02:41Z</time>
      </trkpt>
      <trkpt lat="46.49386" lon="-1.77997">
        <ele>7.2</ele>
        <time>2021-09-25T12:02:42Z</time>
      </trkpt>
      <trkpt lat="46.49386" lon="-1.77999">
        <ele>7.2</ele>
        <time>2021-09-25T12:02:43Z</time>
      </trkpt>
      <trkpt lat="46.49386" lon="-1.78">
        <ele>7.2</ele>
        <time>2021-09-25T12:02:44Z</time>
      </trkpt>
      <trkpt lat="46.49387" lon="-1.78002">
        <ele>7.2</ele>
        <time>2021-09-25T12:02:45Z</time>
      </trkpt>
      <trkpt lat="46.49387" lon="-1.78004">
        <ele>7.2</ele>
        <time>2021-09-25T12:02:46Z</time>
      </trkpt>
      <trkpt lat="46.49387" lon="-1.78005">
        <ele>7.2</ele>
        <time>2021-09-25T12:02:47Z</time>
      </trkpt>
      <trkpt lat="46.49387" lon="-1.78007">
        <ele>7.2</ele>
        <time>2021-09-25T12:02:48Z</time>
      </trkpt>
      <trkpt lat="46.49387" lon="-1.78008">
        <ele>7.2</ele>
        <time>2021-09-25T12:02:49Z</time>
      </trkpt>
      <trkpt lat="46.49388" lon="-1.7801">
        <ele>7.2</ele>
        <time>2021-09-25T12:02:50Z</time>
      </trkpt>
      <trkpt lat="46.49388" lon="-1.78011">
        <ele>7.2</ele>
        <time>2021-09-25T12:02:51Z</time>
      </trkpt>
      <trkpt lat="46.49389" lon="-1.78013">
        <ele>7.2</ele>
        <time>2021-09-25T12:02:52Z</time>
      </trkpt>
      <trkpt lat="46.49389" lon="-1.78014">
        <ele>7.2</ele>
        <time>2021-09-25T12:02:53Z</time>
      </trkpt>
      <trkpt lat="46.4939" lon="-1.78015">
        <ele>7.2</ele>
        <time>2021-09-25T12:02:54Z</time>
      </trkpt>
      <trkpt lat="46.4939" lon="-1.78017">
        <ele>7.2</ele>
        <time>2021-09-25T12:02:55Z</time>
      </trkpt>
      <trkpt lat="46.49391" lon="-1.78018">
        <ele>7.2</ele>
        <time>2021-09-25T12:02:56Z</time>
      </trkpt>
      <trkpt lat="46.49392" lon="-1.78019">
        <ele>7.2</ele>
        <time>2021-09-25T12:02:57Z</time>
      </trkpt>
      <trkpt lat="46.49392" lon="-1.78021">
        <ele>7.2</ele>
        <time>2021-09-25T12:02:58Z</time>
      </trkpt>
      <trkpt lat="46.49393" lon="-1.78022">
        <ele>7.2</ele>
        <time>2021-09-25T12:02:59Z</time>
      </trkpt>
      <trkpt lat="46.49394" lon="-1.78023">
        <ele>7.2</ele>
        <time>2021-09-25T12:03:00Z</time>
      </trkpt>
      <trkpt lat="46.49395" lon="-1.78024">
        <ele>7.2</ele>
        <time>2021-09-25T12:03:01Z</time>
      </trkpt>
      <trkpt lat="46.49395" lon="-1.78025">
        <ele>7.2</ele>
        <time>2021-09-25T12:03:02Z</time>
      </trkpt>
      <trkpt lat="46.49396" lon="-1.78027">
        <ele>7.2</ele>
        <time>2021-09-25T12:03:03Z</time>
      </trkpt>
      <trkpt lat="46.49397" lon="-1.78028">
        <ele>7.2</ele>
        <time>2021-09-25T12:03:04Z</time>
      </trkpt>
      <trkpt lat="46.49397" lon="-1.78029">
        <ele>7.2</ele>
        <time>2021-09-25T12:03:05Z</time>
      </trkpt>
      <trkpt lat="46.49398" lon="-1.7803">
        <ele>7.2</ele>
        <time>2021-09-25T12:03:06Z</time>
      </trkpt>
      <trkpt lat="46.49399" lon="-1.78031">
        <ele>7.2</ele>
        <time>2021-09-25T12:03:07Z</time>
      </trkpt>
      <trkpt lat="46.49399" lon="-1.78032">
        <ele>7.2</ele>
        <time>2021-09-25T12:03:08Z</time>
      </trkpt>
      <trkpt lat="46.494" lon="-1.78033">
        <ele>7.2</ele>
        <time>2021-09-25T12:03:09Z</time>
      </trkpt>
      <trkpt lat="46.494" lon="-1.78034">
        <ele>7.2</ele>
        <time>2021-09-25T12:03:10Z</time>
      </trkpt>
      <trkpt lat="46.494" lon="-1.78035">
        <ele>7.2</ele>
        <time>2021-09-25T12:03:11Z</time>
      </trkpt>
      <trkpt lat="46.49401" lon="-1.78035">
        <ele>7.3</ele>
        <time>2021-09-25T12:03:12Z</time>
      </trkpt>
      <trkpt lat="46.49401" lon="-1.78036">
        <ele>7.3</ele>
        <time>2021-09-25T12:03:13Z</time>
      </trkpt>
      <trkpt lat="46.49401" lon="-1.78036">
        <ele>7.3</ele>
        <time>2021-09-25T12:03:14Z</time>
      </trkpt>
      <trkpt lat="46.49401" lon="-1.78036">
        <ele>7.3</ele>
        <time>2021-09-25T12:03:15Z</time>
      </trkpt>
      <trkpt lat="46.49401" lon="-1.78036">
        <ele>7.3</ele>
        <time>2021-09-25T12:03:16Z</time>
      </trkpt>
      <trkpt lat="46.49401" lon="-1.78036">
        <ele>7.3</ele>
        <time>2021-09-25T12:03:17Z</time>
      </trkpt>
      <trkpt lat="46.49401" lon="-1.78036">
        <ele>7.3</ele>
        <time>2021-09-25T12:03:18Z</time>
      </trkpt>
      <trkpt lat="46.49402" lon="-1.78036">
        <ele>7.3</ele>
        <time>2021-09-25T12:03:19Z</time>
      </trkpt>
      <trkpt lat="46.49402" lon="-1.78037">
        <ele>7.3</ele>
        <time>2021-09-25T12:03:20Z</time>
      </trkpt>
      <trkpt lat="46.49403" lon="-1.78038">
        <ele>7.3</ele>
        <time>2021-09-25T12:03:21Z</time>
      </trkpt>
      <trkpt lat="46.49403" lon="-1.7804">
        <ele>7.3</ele>
        <time>2021-09-25T12:03:22Z</time>
      </trkpt>
      <trkpt lat="46.49404" lon="-1.78041">
        <ele>7.3</ele>
        <time>2021-09-25T12:03:23Z</time>
      </trkpt>
      <trkpt lat="46.49404" lon="-1.78042">
        <ele>7.3</ele>
        <time>2021-09-25T12:03:24Z</time>
      </trkpt>
      <trkpt lat="46.49405" lon="-1.78043">
        <ele>7.3</ele>
        <time>2021-09-25T12:03:25Z</time>
      </trkpt>
      <trkpt lat="46.49405" lon="-1.78044">
        <ele>7.3</ele>
        <time>2021-09-25T12:03:26Z</time>
      </trkpt>
      <trkpt lat="46.49406" lon="-1.78045">
        <ele>7.3</ele>
        <time>2021-09-25T12:03:27Z</time>
      </trkpt>
      <trkpt lat="46.49406" lon="-1.78046">
        <ele>7.3</ele>
        <time>2021-09-25T12:03:28Z</time>
      </trkpt>
      <trkpt lat="46.49407" lon="-1.78047">
        <ele>7.3</ele>
        <time>2021-09-25T12:03:29Z</time>
      </trkpt>
      <trkpt lat="46.49407" lon="-1.78048">
        <ele>7.3</ele>
        <time>2021-09-25T12:03:30Z</time>
      </trkpt>
      <trkpt lat="46.49408" lon="-1.78049">
        <ele>7.3</ele>
        <time>2021-09-25T12:03:31Z</time>
      </trkpt>
      <trkpt lat="46.49408" lon="-1.78051">
        <ele>7.3</ele>
        <time>2021-09-25T12:03:32Z</time>
      </trkpt>
      <trkpt lat="46.49409" lon="-1.78052">
        <ele>7.3</ele>
        <time>2021-09-25T12:03:33Z</time>
      </trkpt>
      <trkpt lat="46.49409" lon="-1.78053">
        <ele>7.3</ele>
        <time>2021-09-25T12:03:34Z</time>
      </trkpt>
      <trkpt lat="46.49409" lon="-1.78055">
        <ele>7.3</ele>
        <time>2021-09-25T12:03:35Z</time>
      </trkpt>
      <trkpt lat="46.4941" lon="-1.78056">
        <ele>7.3</ele>
        <time>2021-09-25T12:03:36Z</time>
      </trkpt>
      <trkpt lat="46.4941" lon="-1.78058">
        <ele>7.3</ele>
        <time>2021-09-25T12:03:37Z</time>
      </trkpt>
      <trkpt lat="46.4941" lon="-1.7806">
        <ele>7.3</ele>
        <time>2021-09-25T12:03:38Z</time>
      </trkpt>
      <trkpt lat="46.4941" lon="-1.78061">
        <ele>7.3</ele>
        <time>2021-09-25T12:03:39Z</time>
      </trkpt>
      <trkpt lat="46.49411" lon="-1.78063">
        <ele>7.3</ele>
        <time>2021-09-25T12:03:40Z</time>
      </trkpt>
      <trkpt lat="46.49411" lon="-1.78065">
        <ele>7.3</ele>
        <time>2021-09-25T12:03:41Z</time>
      </trkpt>
      <trkpt lat="46.49411" lon="-1.78066">
        <ele>7.3</ele>
        <time>2021-09-25T12:03:42Z</time>
      </trkpt>
      <trkpt lat="46.49412" lon="-1.78068">
        <ele>7.3</ele>
        <time>2021-09-25T12:03:43Z</time>
      </trkpt>
      <trkpt lat="46.49412" lon="-1.7807">
        <ele>7.3</ele>
        <time>2021-09-25T12:03:44Z</time>
      </trkpt>
      <trkpt lat="46.49412" lon="-1.78071">
        <ele>7.3</ele>
        <time>2021-09-25T12:03:45Z</time>
      </trkpt>
      <trkpt lat="46.49413" lon="-1.78073">
        <ele>7.3</ele>
        <time>2021-09-25T12:03:46Z</time>
      </trkpt>
      <trkpt lat="46.49413" lon="-1.78074">
        <ele>7.3</ele>
        <time>2021-09-25T12:03:47Z</time>
      </trkpt>
      <trkpt lat="46.49414" lon="-1.78076">
        <ele>7.3</ele>
        <time>2021-09-25T12:03:48Z</time>
      </trkpt>
      <trkpt lat="46.49414" lon="-1.78077">
        <ele>7.3</ele>
        <time>2021-09-25T12:03:49Z</time>
      </trkpt>
      <trkpt lat="46.49415" lon="-1.78079">
        <ele>7.3</ele>
        <time>2021-09-25T12:03:50Z</time>
      </trkpt>
      <trkpt lat="46.49415" lon="-1.7808">
        <ele>7.3</ele>
        <time>2021-09-25T12:03:51Z</time>
      </trkpt>
      <trkpt lat="46.49416" lon="-1.78082">
        <ele>7.3</ele>
        <time>2021-09-25T12:03:52Z</time>
      </trkpt>
      <trkpt lat="46.49417" lon="-1.78083">
        <ele>7.3</ele>
        <time>2021-09-25T12:03:53Z</time>
      </trkpt>
      <trkpt lat="46.49417" lon="-1.78084">
        <ele>7.3</ele>
        <time>2021-09-25T12:03:54Z</time>
      </trkpt>
      <trkpt lat="46.49418" lon="-1.78086">
        <ele>7.3</ele>
        <time>2021-09-25T12:03:55Z</time>
      </trkpt>
      <trkpt lat="46.49419" lon="-1.78087">
        <ele>7.3</ele>
        <time>2021-09-25T12:03:56Z</time>
      </trkpt>
      <trkpt lat="46.4942" lon="-1.78088">
        <ele>7.3</ele>
        <time>2021-09-25T12:03:57Z</time>
      </trkpt>
      <trkpt lat="46.4942" lon="-1.7809">
        <ele>7.3</ele>
        <time>2021-09-25T12:03:58Z</time>
      </trkpt>
      <trkpt lat="46.49421" lon="-1.78091">
        <ele>7.3</ele>
        <time>2021-09-25T12:03:59Z</time>
      </trkpt>
      <trkpt lat="46.49422" lon="-1.78092">
        <ele>7.3</ele>
        <time>2021-09-25T12:04:00Z</time>
      </trkpt>
      <trkpt lat="46.49422" lon="-1.78094">
        <ele>7.3</ele>
        <time>2021-09-25T12:04:01Z</time>
      </trkpt>
      <trkpt lat="46.49423" lon="-1.78095">
        <ele>7.3</ele>
        <time>2021-09-25T12:04:02Z</time>
      </trkpt>
      <trkpt lat="46.49423" lon="-1.78097">
        <ele>7.3</ele>
        <time>2021-09-25T12:04:03Z</time>
      </trkpt>
      <trkpt lat="46.49424" lon="-1.78098">
        <ele>7.3</ele>
        <time>2021-09-25T12:04:04Z</time>
      </trkpt>
      <trkpt lat="46.49424" lon="-1.781">
        <ele>7.3</ele>
        <time>2021-09-25T12:04:05Z</time>
      </trkpt>
      <trkpt lat="46.49424" lon="-1.78101">
        <ele>7.3</ele>
        <time>2021-09-25T12:04:06Z</time>
      </trkpt>
      <trkpt lat="46.49425" lon="-1.78103">
        <ele>7.3</ele>
        <time>2021-09-25T12:04:07Z</time>
      </trkpt>
      <trkpt lat="46.49425" lon="-1.78105">
        <ele>7.3</ele>
        <time>2021-09-25T12:04:08Z</time>
      </trkpt>
      <trkpt lat="46.49425" lon="-1.78106">
        <ele>7.3</ele>
        <time>2021-09-25T12:04:09Z</time>
      </trkpt>
      <trkpt lat="46.49426" lon="-1.78108">
        <ele>7.3</ele>
        <time>2021-09-25T12:04:10Z</time>
      </trkpt>
      <trkpt lat="46.49426" lon="-1.78109">
        <ele>7.3</ele>
        <time>2021-09-25T12:04:11Z</time>
      </trkpt>
      <trkpt lat="46.49427" lon="-1.7811">
        <ele>7.3</ele>
        <time>2021-09-25T12:04:12Z</time>
      </trkpt>
      <trkpt lat="46.49427" lon="-1.7811">
        <ele>7.3</ele>
        <time>2021-09-25T12:04:13Z</time>
      </trkpt>
      <trkpt lat="46.49427" lon="-1.7811">
        <ele>7.3</ele>
        <time>2021-09-25T12:04:14Z</time>
      </trkpt>
      <trkpt lat="46.49428" lon="-1.78111">
        <ele>7.3</ele>
        <time>2021-09-25T12:04:15Z</time>
      </trkpt>
      <trkpt lat="46.49428" lon="-1.78112">
        <ele>7.3</ele>
        <time>2021-09-25T12:04:16Z</time>
      </trkpt>
      <trkpt lat="46.49428" lon="-1.78113">
        <ele>7.3</ele>
        <time>2021-09-25T12:04:17Z</time>
      </trkpt>
      <trkpt lat="46.49428" lon="-1.78115">
        <ele>7.3</ele>
        <time>2021-09-25T12:04:18Z</time>
      </trkpt>
      <trkpt lat="46.49429" lon="-1.78116">
        <ele>7.3</ele>
        <time>2021-09-25T12:04:19Z</time>
      </trkpt>
      <trkpt lat="46.49429" lon="-1.78118">
        <ele>7.3</ele>
        <time>2021-09-25T12:04:20Z</time>
      </trkpt>
      <trkpt lat="46.49429" lon="-1.78119">
        <ele>7.3</ele>
        <time>2021-09-25T12:04:21Z</time>
      </trkpt>
      <trkpt lat="46.4943" lon="-1.78121">
        <ele>7.3</ele>
        <time>2021-09-25T12:04:22Z</time>
      </trkpt>
      <trkpt lat="46.4943" lon="-1.78122">
        <ele>7.3</ele>
        <time>2021-09-25T12:04:23Z</time>
      </trkpt>
      <trkpt lat="46.4943" lon="-1.78124">
        <ele>7.3</ele>
        <time>2021-09-25T12:04:24Z</time>
      </trkpt>
      <trkpt lat="46.4943" lon="-1.78126">
        <ele>7.3</ele>
        <time>2021-09-25T12:04:25Z</time>
      </trkpt>
      <trkpt lat="46.4943" lon="-1.78127">
        <ele>7.3</ele>
        <time>2021-09-25T12:04:26Z</time>
      </trkpt>
      <trkpt lat="46.4943" lon="-1.78129">
        <ele>7.3</ele>
        <time>2021-09-25T12:04:27Z</time>
      </trkpt>
      <trkpt lat="46.4943" lon="-1.7813">
        <ele>7.3</ele>
        <time>2021-09-25T12:04:28Z</time>
      </trkpt>
      <trkpt lat="46.4943" lon="-1.78132">
        <ele>7.3</ele>
        <time>2021-09-25T12:04:29Z</time>
      </trkpt>
      <trkpt lat="46.4943" lon="-1.78134">
        <ele>7.3</ele>
        <time>2021-09-25T12:04:30Z</time>
      </trkpt>
      <trkpt lat="46.4943" lon="-1.78135">
        <ele>7.3</ele>
        <time>2021-09-25T12:04:31Z</time>
      </trkpt>
      <trkpt lat="46.49429" lon="-1.78137">
        <ele>7.3</ele>
        <time>2021-09-25T12:04:32Z</time>
      </trkpt>
      <trkpt lat="46.49429" lon="-1.78138">
        <ele>7.3</ele>
        <time>2021-09-25T12:04:33Z</time>
      </trkpt>
      <trkpt lat="46.49429" lon="-1.7814">
        <ele>7.3</ele>
        <time>2021-09-25T12:04:34Z</time>
      </trkpt>
      <trkpt lat="46.49428" lon="-1.78141">
        <ele>7.3</ele>
        <time>2021-09-25T12:04:35Z</time>
      </trkpt>
      <trkpt lat="46.49428" lon="-1.78142">
        <ele>7.3</ele>
        <time>2021-09-25T12:04:36Z</time>
      </trkpt>
      <trkpt lat="46.49428" lon="-1.78144">
        <ele>7.3</ele>
        <time>2021-09-25T12:04:37Z</time>
      </trkpt>
      <trkpt lat="46.49429" lon="-1.78145">
        <ele>7.3</ele>
        <time>2021-09-25T12:04:38Z</time>
      </trkpt>
      <trkpt lat="46.49429" lon="-1.78147">
        <ele>7.3</ele>
        <time>2021-09-25T12:04:39Z</time>
      </trkpt>
      <trkpt lat="46.49429" lon="-1.78148">
        <ele>7.3</ele>
        <time>2021-09-25T12:04:40Z</time>
      </trkpt>
      <trkpt lat="46.4943" lon="-1.78149">
        <ele>7.3</ele>
        <time>2021-09-25T12:04:41Z</time>
      </trkpt>
      <trkpt lat="46.49431" lon="-1.78151">
        <ele>7.3</ele>
        <time>2021-09-25T12:04:42Z</time>
      </trkpt>
      <trkpt lat="46.49431" lon="-1.78152">
        <ele>7.3</ele>
        <time>2021-09-25T12:04:43Z</time>
      </trkpt>
      <trkpt lat="46.49432" lon="-1.78154">
        <ele>7.3</ele>
        <time>2021-09-25T12:04:44Z</time>
      </trkpt>
      <trkpt lat="46.49433" lon="-1.78155">
        <ele>7.3</ele>
        <time>2021-09-25T12:04:45Z</time>
      </trkpt>
      <trkpt lat="46.49433" lon="-1.78157">
        <ele>7.3</ele>
        <time>2021-09-25T12:04:46Z</time>
      </trkpt>
      <trkpt lat="46.49434" lon="-1.78158">
        <ele>7.3</ele>
        <time>2021-09-25T12:04:47Z</time>
      </trkpt>
      <trkpt lat="46.49434" lon="-1.7816">
        <ele>7.3</ele>
        <time>2021-09-25T12:04:48Z</time>
      </trkpt>
      <trkpt lat="46.49435" lon="-1.78162">
        <ele>7.3</ele>
        <time>2021-09-25T12:04:49Z</time>
      </trkpt>
      <trkpt lat="46.49435" lon="-1.78163">
        <ele>7.3</ele>
        <time>2021-09-25T12:04:50Z</time>
      </trkpt>
      <trkpt lat="46.49435" lon="-1.78165">
        <ele>7.3</ele>
        <time>2021-09-25T12:04:51Z</time>
      </trkpt>
      <trkpt lat="46.49436" lon="-1.78167">
        <ele>7.3</ele>
        <time>2021-09-25T12:04:52Z</time>
      </trkpt>
      <trkpt lat="46.49436" lon="-1.78169">
        <ele>7.3</ele>
        <time>2021-09-25T12:04:53Z</time>
      </trkpt>
      <trkpt lat="46.49436" lon="-1.7817">
        <ele>7.3</ele>
        <time>2021-09-25T12:04:54Z</time>
      </trkpt>
      <trkpt lat="46.49436" lon="-1.78172">
        <ele>7.3</ele>
        <time>2021-09-25T12:04:55Z</time>
      </trkpt>
      <trkpt lat="46.49436" lon="-1.78174">
        <ele>7.3</ele>
        <time>2021-09-25T12:04:56Z</time>
      </trkpt>
      <trkpt lat="46.49436" lon="-1.78175">
        <ele>7.3</ele>
        <time>2021-09-25T12:04:57Z</time>
      </trkpt>
      <trkpt lat="46.49436" lon="-1.78177">
        <ele>7.3</ele>
        <time>2021-09-25T12:04:58Z</time>
      </trkpt>
      <trkpt lat="46.49436" lon="-1.78178">
        <ele>7.3</ele>
        <time>2021-09-25T12:04:59Z</time>
      </trkpt>
      <trkpt lat="46.49436" lon="-1.7818">
        <ele>7.3</ele>
        <time>2021-09-25T12:05:00Z</time>
      </trkpt>
      <trkpt lat="46.49436" lon="-1.78181">
        <ele>7.3</ele>
        <time>2021-09-25T12:05:01Z</time>
      </trkpt>
      <trkpt lat="46.49437" lon="-1.78183">
        <ele>7.3</ele>
        <time>2021-09-25T12:05:02Z</time>
      </trkpt>
      <trkpt lat="46.49437" lon="-1.78184">
        <ele>7.3</ele>
        <time>2021-09-25T12:05:03Z</time>
      </trkpt>
      <trkpt lat="46.49437" lon="-1.78186">
        <ele>7.3</ele>
        <time>2021-09-25T12:05:04Z</time>
      </trkpt>
      <trkpt lat="46.49438" lon="-1.78187">
        <ele>7.3</ele>
        <time>2021-09-25T12:05:05Z</time>
      </trkpt>
      <trkpt lat="46.49438" lon="-1.78189">
        <ele>7.3</ele>
        <time>2021-09-25T12:05:06Z</time>
      </trkpt>
      <trkpt lat="46.49439" lon="-1.78191">
        <ele>7.3</ele>
        <time>2021-09-25T12:05:07Z</time>
      </trkpt>
      <trkpt lat="46.49439" lon="-1.78193">
        <ele>7.3</ele>
        <time>2021-09-25T12:05:08Z</time>
      </trkpt>
      <trkpt lat="46.4944" lon="-1.78195">
        <ele>7.3</ele>
        <time>2021-09-25T12:05:09Z</time>
      </trkpt>
      <trkpt lat="46.4944" lon="-1.78196">
        <ele>7.3</ele>
        <time>2021-09-25T12:05:10Z</time>
      </trkpt>
      <trkpt lat="46.4944" lon="-1.78198">
        <ele>7.3</ele>
        <time>2021-09-25T12:05:11Z</time>
      </trkpt>
      <trkpt lat="46.4944" lon="-1.782">
        <ele>7.3</ele>
        <time>2021-09-25T12:05:12Z</time>
      </trkpt>
      <trkpt lat="46.49441" lon="-1.78201">
        <ele>7.3</ele>
        <time>2021-09-25T12:05:13Z</time>
      </trkpt>
      <trkpt lat="46.49441" lon="-1.78203">
        <ele>7.3</ele>
        <time>2021-09-25T12:05:14Z</time>
      </trkpt>
      <trkpt lat="46.49441" lon="-1.78205">
        <ele>7.2</ele>
        <time>2021-09-25T12:05:15Z</time>
      </trkpt>
      <trkpt lat="46.49441" lon="-1.78206">
        <ele>7.2</ele>
        <time>2021-09-25T12:05:16Z</time>
      </trkpt>
      <trkpt lat="46.49442" lon="-1.78207">
        <ele>7.2</ele>
        <time>2021-09-25T12:05:17Z</time>
      </trkpt>
      <trkpt lat="46.49442" lon="-1.78208">
        <ele>7.2</ele>
        <time>2021-09-25T12:05:18Z</time>
      </trkpt>
      <trkpt lat="46.49442" lon="-1.78209">
        <ele>7.2</ele>
        <time>2021-09-25T12:05:19Z</time>
      </trkpt>
      <trkpt lat="46.49442" lon="-1.78209">
        <ele>7.2</ele>
        <time>2021-09-25T12:05:20Z</time>
      </trkpt>
      <trkpt lat="46.49443" lon="-1.7821">
        <ele>7.2</ele>
        <time>2021-09-25T12:05:21Z</time>
      </trkpt>
      <trkpt lat="46.49443" lon="-1.7821">
        <ele>7.2</ele>
        <time>2021-09-25T12:05:22Z</time>
      </trkpt>
      <trkpt lat="46.49443" lon="-1.7821">
        <ele>7.2</ele>
        <time>2021-09-25T12:05:23Z</time>
      </trkpt>
      <trkpt lat="46.49443" lon="-1.78209">
        <ele>7.2</ele>
        <time>2021-09-25T12:05:24Z</time>
      </trkpt>
      <trkpt lat="46.49443" lon="-1.78209">
        <ele>7.2</ele>
        <time>2021-09-25T12:05:25Z</time>
      </trkpt>
      <trkpt lat="46.49443" lon="-1.78209">
        <ele>7.2</ele>
        <time>2021-09-25T12:05:26Z</time>
      </trkpt>
      <trkpt lat="46.49443" lon="-1.78209">
        <ele>7.2</ele>
        <time>2021-09-25T12:05:27Z</time>
      </trkpt>
      <trkpt lat="46.49443" lon="-1.78209">
        <ele>7.2</ele>
        <time>2021-09-25T12:05:28Z</time>
      </trkpt>
      <trkpt lat="46.49443" lon="-1.78209">
        <ele>7.2</ele>
        <time>2021-09-25T12:05:29Z</time>
      </trkpt>
      <trkpt lat="46.49443" lon="-1.78209">
        <ele>7.2</ele>
        <time>2021-09-25T12:05:30Z</time>
      </trkpt>
      <trkpt lat="46.49443" lon="-1.7821">
        <ele>7.2</ele>
        <time>2021-09-25T12:05:31Z</time>
      </trkpt>
      <trkpt lat="46.49443" lon="-1.7821">
        <ele>7.2</ele>
        <time>2021-09-25T12:05:32Z</time>
      </trkpt>
      <trkpt lat="46.49443" lon="-1.78211">
        <ele>7.2</ele>
        <time>2021-09-25T12:05:33Z</time>
      </trkpt>
      <trkpt lat="46.49443" lon="-1.78211">
        <ele>7.2</ele>
        <time>2021-09-25T12:05:34Z</time>
      </trkpt>
      <trkpt lat="46.49443" lon="-1.78212">
        <ele>7.2</ele>
        <time>2021-09-25T12:05:35Z</time>
      </trkpt>
      <trkpt lat="46.49443" lon="-1.78213">
        <ele>7.2</ele>
        <time>2021-09-25T12:05:36Z</time>
      </trkpt>
      <trkpt lat="46.49443" lon="-1.78214">
        <ele>7.2</ele>
        <time>2021-09-25T12:05:37Z</time>
      </trkpt>
      <trkpt lat="46.49443" lon="-1.78216">
        <ele>7.2</ele>
        <time>2021-09-25T12:05:38Z</time>
      </trkpt>
      <trkpt lat="46.49443" lon="-1.78217">
        <ele>7.2</ele>
        <time>2021-09-25T12:05:39Z</time>
      </trkpt>
      <trkpt lat="46.49443" lon="-1.78218">
        <ele>7.2</ele>
        <time>2021-09-25T12:05:40Z</time>
      </trkpt>
      <trkpt lat="46.49443" lon="-1.7822">
        <ele>7.2</ele>
        <time>2021-09-25T12:05:41Z</time>
      </trkpt>
      <trkpt lat="46.49443" lon="-1.78221">
        <ele>7.2</ele>
        <time>2021-09-25T12:05:42Z</time>
      </trkpt>
      <trkpt lat="46.49443" lon="-1.78223">
        <ele>7.2</ele>
        <time>2021-09-25T12:05:43Z</time>
      </trkpt>
      <trkpt lat="46.49443" lon="-1.78224">
        <ele>7.2</ele>
        <time>2021-09-25T12:05:44Z</time>
      </trkpt>
      <trkpt lat="46.49443" lon="-1.78225">
        <ele>7.2</ele>
        <time>2021-09-25T12:05:45Z</time>
      </trkpt>
      <trkpt lat="46.49444" lon="-1.78227">
        <ele>7.2</ele>
        <time>2021-09-25T12:05:46Z</time>
      </trkpt>
      <trkpt lat="46.49444" lon="-1.78228">
        <ele>7.2</ele>
        <time>2021-09-25T12:05:47Z</time>
      </trkpt>
      <trkpt lat="46.49444" lon="-1.78229">
        <ele>7.2</ele>
        <time>2021-09-25T12:05:48Z</time>
      </trkpt>
      <trkpt lat="46.49444" lon="-1.7823">
        <ele>7.2</ele>
        <time>2021-09-25T12:05:49Z</time>
      </trkpt>
      <trkpt lat="46.49444" lon="-1.78231">
        <ele>7.2</ele>
        <time>2021-09-25T12:05:50Z</time>
      </trkpt>
      <trkpt lat="46.49444" lon="-1.78231">
        <ele>7.2</ele>
        <time>2021-09-25T12:05:51Z</time>
      </trkpt>
      <trkpt lat="46.49444" lon="-1.78232">
        <ele>7.2</ele>
        <time>2021-09-25T12:05:52Z</time>
      </trkpt>
      <trkpt lat="46.49444" lon="-1.78232">
        <ele>7.2</ele>
        <time>2021-09-25T12:05:53Z</time>
      </trkpt>
      <trkpt lat="46.49444" lon="-1.78232">
        <ele>7.2</ele>
        <time>2021-09-25T12:05:54Z</time>
      </trkpt>
      <trkpt lat="46.49444" lon="-1.78232">
        <ele>7.2</ele>
        <time>2021-09-25T12:05:55Z</time>
      </trkpt>
      <trkpt lat="46.49445" lon="-1.78232">
        <ele>7.2</ele>
        <time>2021-09-25T12:05:56Z</time>
      </trkpt>
      <trkpt lat="46.49445" lon="-1.78231">
        <ele>7.2</ele>
        <time>2021-09-25T12:05:57Z</time>
      </trkpt>
      <trkpt lat="46.49445" lon="-1.78232">
        <ele>7.2</ele>
        <time>2021-09-25T12:05:58Z</time>
      </trkpt>
      <trkpt lat="46.49445" lon="-1.78232">
        <ele>7.2</ele>
        <time>2021-09-25T12:05:59Z</time>
      </trkpt>
      <trkpt lat="46.49445" lon="-1.78232">
        <ele>7.2</ele>
        <time>2021-09-25T12:06:00Z</time>
      </trkpt>
      <trkpt lat="46.49445" lon="-1.78233">
        <ele>7.2</ele>
        <time>2021-09-25T12:06:01Z</time>
      </trkpt>
      <trkpt lat="46.49445" lon="-1.78234">
        <ele>7.2</ele>
        <time>2021-09-25T12:06:02Z</time>
      </trkpt>
      <trkpt lat="46.49445" lon="-1.78236">
        <ele>7.2</ele>
        <time>2021-09-25T12:06:03Z</time>
      </trkpt>
      <trkpt lat="46.49445" lon="-1.78238">
        <ele>7.2</ele>
        <time>2021-09-25T12:06:04Z</time>
      </trkpt>
      <trkpt lat="46.49445" lon="-1.7824">
        <ele>7.2</ele>
        <time>2021-09-25T12:06:05Z</time>
      </trkpt>
      <trkpt lat="46.49445" lon="-1.78242">
        <ele>7.2</ele>
        <time>2021-09-25T12:06:06Z</time>
      </trkpt>
      <trkpt lat="46.49445" lon="-1.78243">
        <ele>7.2</ele>
        <time>2021-09-25T12:06:07Z</time>
      </trkpt>
      <trkpt lat="46.49446" lon="-1.78245">
        <ele>7.2</ele>
        <time>2021-09-25T12:06:08Z</time>
      </trkpt>
      <trkpt lat="46.49446" lon="-1.78246">
        <ele>7.2</ele>
        <time>2021-09-25T12:06:09Z</time>
      </trkpt>
      <trkpt lat="46.49446" lon="-1.78248">
        <ele>7.2</ele>
        <time>2021-09-25T12:06:10Z</time>
      </trkpt>
      <trkpt lat="46.49446" lon="-1.78249">
        <ele>7.2</ele>
        <time>2021-09-25T12:06:11Z</time>
      </trkpt>
      <trkpt lat="46.49447" lon="-1.78251">
        <ele>7.2</ele>
        <time>2021-09-25T12:06:12Z</time>
      </trkpt>
      <trkpt lat="46.49447" lon="-1.78253">
        <ele>7.2</ele>
        <time>2021-09-25T12:06:13Z</time>
      </trkpt>
      <trkpt lat="46.49448" lon="-1.78254">
        <ele>7.2</ele>
        <time>2021-09-25T12:06:14Z</time>
      </trkpt>
      <trkpt lat="46.49448" lon="-1.78256">
        <ele>7.2</ele>
        <time>2021-09-25T12:06:15Z</time>
      </trkpt>
      <trkpt lat="46.49449" lon="-1.78257">
        <ele>7.2</ele>
        <time>2021-09-25T12:06:16Z</time>
      </trkpt>
      <trkpt lat="46.49449" lon="-1.78259">
        <ele>7.2</ele>
        <time>2021-09-25T12:06:17Z</time>
      </trkpt>
      <trkpt lat="46.49449" lon="-1.78261">
        <ele>7.2</ele>
        <time>2021-09-25T12:06:18Z</time>
      </trkpt>
      <trkpt lat="46.4945" lon="-1.78262">
        <ele>7.2</ele>
        <time>2021-09-25T12:06:19Z</time>
      </trkpt>
      <trkpt lat="46.4945" lon="-1.78264">
        <ele>7.2</ele>
        <time>2021-09-25T12:06:20Z</time>
      </trkpt>
      <trkpt lat="46.49451" lon="-1.78266">
        <ele>7.2</ele>
        <time>2021-09-25T12:06:21Z</time>
      </trkpt>
      <trkpt lat="46.49451" lon="-1.78267">
        <ele>7.2</ele>
        <time>2021-09-25T12:06:22Z</time>
      </trkpt>
      <trkpt lat="46.49451" lon="-1.78269">
        <ele>7.2</ele>
        <time>2021-09-25T12:06:23Z</time>
      </trkpt>
      <trkpt lat="46.49452" lon="-1.7827">
        <ele>7.2</ele>
        <time>2021-09-25T12:06:24Z</time>
      </trkpt>
      <trkpt lat="46.49452" lon="-1.78272">
        <ele>7.2</ele>
        <time>2021-09-25T12:06:25Z</time>
      </trkpt>
      <trkpt lat="46.49453" lon="-1.78273">
        <ele>7.2</ele>
        <time>2021-09-25T12:06:26Z</time>
      </trkpt>
      <trkpt lat="46.49453" lon="-1.78275">
        <ele>7.2</ele>
        <time>2021-09-25T12:06:27Z</time>
      </trkpt>
      <trkpt lat="46.49453" lon="-1.78276">
        <ele>7.2</ele>
        <time>2021-09-25T12:06:28Z</time>
      </trkpt>
      <trkpt lat="46.49453" lon="-1.78278">
        <ele>7.2</ele>
        <time>2021-09-25T12:06:29Z</time>
      </trkpt>
      <trkpt lat="46.49454" lon="-1.78279">
        <ele>7.2</ele>
        <time>2021-09-25T12:06:30Z</time>
      </trkpt>
      <trkpt lat="46.49454" lon="-1.78281">
        <ele>7.2</ele>
        <time>2021-09-25T12:06:31Z</time>
      </trkpt>
      <trkpt lat="46.49454" lon="-1.78282">
        <ele>7.2</ele>
        <time>2021-09-25T12:06:32Z</time>
      </trkpt>
      <trkpt lat="46.49455" lon="-1.78283">
        <ele>7.2</ele>
        <time>2021-09-25T12:06:33Z</time>
      </trkpt>
      <trkpt lat="46.49455" lon="-1.78285">
        <ele>7.2</ele>
        <time>2021-09-25T12:06:34Z</time>
      </trkpt>
      <trkpt lat="46.49455" lon="-1.78286">
        <ele>7.2</ele>
        <time>2021-09-25T12:06:35Z</time>
      </trkpt>
      <trkpt lat="46.49455" lon="-1.78287">
        <ele>7.2</ele>
        <time>2021-09-25T12:06:36Z</time>
      </trkpt>
      <trkpt lat="46.49455" lon="-1.78289">
        <ele>7.2</ele>
        <time>2021-09-25T12:06:37Z</time>
      </trkpt>
      <trkpt lat="46.49455" lon="-1.7829">
        <ele>7.2</ele>
        <time>2021-09-25T12:06:38Z</time>
      </trkpt>
      <trkpt lat="46.49456" lon="-1.78291">
        <ele>7.2</ele>
        <time>2021-09-25T12:06:39Z</time>
      </trkpt>
      <trkpt lat="46.49456" lon="-1.78292">
        <ele>7.2</ele>
        <time>2021-09-25T12:06:40Z</time>
      </trkpt>
      <trkpt lat="46.49456" lon="-1.78294">
        <ele>7.2</ele>
        <time>2021-09-25T12:06:41Z</time>
      </trkpt>
      <trkpt lat="46.49456" lon="-1.78295">
        <ele>7.2</ele>
        <time>2021-09-25T12:06:42Z</time>
      </trkpt>
      <trkpt lat="46.49456" lon="-1.78296">
        <ele>7.2</ele>
        <time>2021-09-25T12:06:43Z</time>
      </trkpt>
      <trkpt lat="46.49456" lon="-1.78297">
        <ele>7.2</ele>
        <time>2021-09-25T12:06:44Z</time>
      </trkpt>
      <trkpt lat="46.49456" lon="-1.78298">
        <ele>7.2</ele>
        <time>2021-09-25T12:06:45Z</time>
      </trkpt>
      <trkpt lat="46.49456" lon="-1.78298">
        <ele>7.2</ele>
        <time>2021-09-25T12:06:46Z</time>
      </trkpt>
      <trkpt lat="46.49456" lon="-1.78299">
        <ele>7.2</ele>
        <time>2021-09-25T12:06:47Z</time>
      </trkpt>
      <trkpt lat="46.49456" lon="-1.783">
        <ele>7.2</ele>
        <time>2021-09-25T12:06:48Z</time>
      </trkpt>
      <trkpt lat="46.49456" lon="-1.783">
        <ele>7.2</ele>
        <time>2021-09-25T12:06:49Z</time>
      </trkpt>
      <trkpt lat="46.49456" lon="-1.783">
        <ele>7.2</ele>
        <time>2021-09-25T12:06:50Z</time>
      </trkpt>
      <trkpt lat="46.49456" lon="-1.78301">
        <ele>7.2</ele>
        <time>2021-09-25T12:06:51Z</time>
      </trkpt>
      <trkpt lat="46.49456" lon="-1.78302">
        <ele>7.2</ele>
        <time>2021-09-25T12:06:52Z</time>
      </trkpt>
      <trkpt lat="46.49456" lon="-1.78304">
        <ele>7.2</ele>
        <time>2021-09-25T12:06:53Z</time>
      </trkpt>
      <trkpt lat="46.49456" lon="-1.78305">
        <ele>7.2</ele>
        <time>2021-09-25T12:06:54Z</time>
      </trkpt>
      <trkpt lat="46.49457" lon="-1.78307">
        <ele>7.2</ele>
        <time>2021-09-25T12:06:55Z</time>
      </trkpt>
      <trkpt lat="46.49457" lon="-1.78309">
        <ele>7.2</ele>
        <time>2021-09-25T12:06:56Z</time>
      </trkpt>
      <trkpt lat="46.49457" lon="-1.78311">
        <ele>7.2</ele>
        <time>2021-09-25T12:06:57Z</time>
      </trkpt>
      <trkpt lat="46.49457" lon="-1.78313">
        <ele>7.2</ele>
        <time>2021-09-25T12:06:58Z</time>
      </trkpt>
      <trkpt lat="46.49458" lon="-1.78314">
        <ele>7.2</ele>
        <time>2021-09-25T12:06:59Z</time>
      </trkpt>
      <trkpt lat="46.49458" lon="-1.78316">
        <ele>7.2</ele>
        <time>2021-09-25T12:07:00Z</time>
      </trkpt>
      <trkpt lat="46.49459" lon="-1.78317">
        <ele>7.2</ele>
        <time>2021-09-25T12:07:01Z</time>
      </trkpt>
      <trkpt lat="46.49459" lon="-1.78319">
        <ele>7.2</ele>
        <time>2021-09-25T12:07:02Z</time>
      </trkpt>
      <trkpt lat="46.49459" lon="-1.7832">
        <ele>7.2</ele>
        <time>2021-09-25T12:07:03Z</time>
      </trkpt>
      <trkpt lat="46.4946" lon="-1.78322">
        <ele>7.2</ele>
        <time>2021-09-25T12:07:04Z</time>
      </trkpt>
      <trkpt lat="46.4946" lon="-1.78323">
        <ele>7.2</ele>
        <time>2021-09-25T12:07:05Z</time>
      </trkpt>
      <trkpt lat="46.4946" lon="-1.78324">
        <ele>7.2</ele>
        <time>2021-09-25T12:07:06Z</time>
      </trkpt>
      <trkpt lat="46.49461" lon="-1.78326">
        <ele>7.2</ele>
        <time>2021-09-25T12:07:07Z</time>
      </trkpt>
      <trkpt lat="46.49461" lon="-1.78328">
        <ele>7.2</ele>
        <time>2021-09-25T12:07:08Z</time>
      </trkpt>
      <trkpt lat="46.49461" lon="-1.78329">
        <ele>7.2</ele>
        <time>2021-09-25T12:07:09Z</time>
      </trkpt>
      <trkpt lat="46.49461" lon="-1.78331">
        <ele>7.2</ele>
        <time>2021-09-25T12:07:10Z</time>
      </trkpt>
      <trkpt lat="46.49461" lon="-1.78333">
        <ele>7.2</ele>
        <time>2021-09-25T12:07:11Z</time>
      </trkpt>
      <trkpt lat="46.49461" lon="-1.78334">
        <ele>7.2</ele>
        <time>2021-09-25T12:07:12Z</time>
      </trkpt>
      <trkpt lat="46.49461" lon="-1.78336">
        <ele>7.2</ele>
        <time>2021-09-25T12:07:13Z</time>
      </trkpt>
      <trkpt lat="46.49461" lon="-1.78337">
        <ele>7.2</ele>
        <time>2021-09-25T12:07:14Z</time>
      </trkpt>
      <trkpt lat="46.49461" lon="-1.78339">
        <ele>7.2</ele>
        <time>2021-09-25T12:07:15Z</time>
      </trkpt>
      <trkpt lat="46.49462" lon="-1.7834">
        <ele>7.2</ele>
        <time>2021-09-25T12:07:16Z</time>
      </trkpt>
      <trkpt lat="46.49462" lon="-1.78342">
        <ele>7.2</ele>
        <time>2021-09-25T12:07:17Z</time>
      </trkpt>
      <trkpt lat="46.49462" lon="-1.78343">
        <ele>7.2</ele>
        <time>2021-09-25T12:07:18Z</time>
      </trkpt>
      <trkpt lat="46.49462" lon="-1.78344">
        <ele>7.2</ele>
        <time>2021-09-25T12:07:19Z</time>
      </trkpt>
      <trkpt lat="46.49463" lon="-1.78345">
        <ele>7.2</ele>
        <time>2021-09-25T12:07:20Z</time>
      </trkpt>
      <trkpt lat="46.49463" lon="-1.78346">
        <ele>7.2</ele>
        <time>2021-09-25T12:07:21Z</time>
      </trkpt>
      <trkpt lat="46.49464" lon="-1.78347">
        <ele>7.2</ele>
        <time>2021-09-25T12:07:22Z</time>
      </trkpt>
      <trkpt lat="46.49464" lon="-1.78349">
        <ele>7.2</ele>
        <time>2021-09-25T12:07:23Z</time>
      </trkpt>
      <trkpt lat="46.49464" lon="-1.7835">
        <ele>7.2</ele>
        <time>2021-09-25T12:07:24Z</time>
      </trkpt>
      <trkpt lat="46.49465" lon="-1.78351">
        <ele>7.2</ele>
        <time>2021-09-25T12:07:25Z</time>
      </trkpt>
      <trkpt lat="46.49465" lon="-1.78352">
        <ele>7.2</ele>
        <time>2021-09-25T12:07:26Z</time>
      </trkpt>
      <trkpt lat="46.49465" lon="-1.78353">
        <ele>7.2</ele>
        <time>2021-09-25T12:07:27Z</time>
      </trkpt>
      <trkpt lat="46.49466" lon="-1.78355">
        <ele>7.2</ele>
        <time>2021-09-25T12:07:28Z</time>
      </trkpt>
      <trkpt lat="46.49466" lon="-1.78356">
        <ele>7.2</ele>
        <time>2021-09-25T12:07:29Z</time>
      </trkpt>
      <trkpt lat="46.49466" lon="-1.78358">
        <ele>7.2</ele>
        <time>2021-09-25T12:07:30Z</time>
      </trkpt>
      <trkpt lat="46.49466" lon="-1.78359">
        <ele>7.2</ele>
        <time>2021-09-25T12:07:31Z</time>
      </trkpt>
      <trkpt lat="46.49466" lon="-1.78361">
        <ele>7.2</ele>
        <time>2021-09-25T12:07:32Z</time>
      </trkpt>
      <trkpt lat="46.49467" lon="-1.78363">
        <ele>7.2</ele>
        <time>2021-09-25T12:07:33Z</time>
      </trkpt>
      <trkpt lat="46.49467" lon="-1.78364">
        <ele>7.2</ele>
        <time>2021-09-25T12:07:34Z</time>
      </trkpt>
      <trkpt lat="46.49467" lon="-1.78366">
        <ele>7.2</ele>
        <time>2021-09-25T12:07:35Z</time>
      </trkpt>
      <trkpt lat="46.49467" lon="-1.78368">
        <ele>7.2</ele>
        <time>2021-09-25T12:07:36Z</time>
      </trkpt>
      <trkpt lat="46.49467" lon="-1.7837">
        <ele>7.2</ele>
        <time>2021-09-25T12:07:37Z</time>
      </trkpt>
      <trkpt lat="46.49467" lon="-1.78371">
        <ele>7.2</ele>
        <time>2021-09-25T12:07:38Z</time>
      </trkpt>
      <trkpt lat="46.49467" lon="-1.78373">
        <ele>7.2</ele>
        <time>2021-09-25T12:07:39Z</time>
      </trkpt>
      <trkpt lat="46.49467" lon="-1.78375">
        <ele>7.2</ele>
        <time>2021-09-25T12:07:40Z</time>
      </trkpt>
      <trkpt lat="46.49468" lon="-1.78377">
        <ele>7.2</ele>
        <time>2021-09-25T12:07:41Z</time>
      </trkpt>
      <trkpt lat="46.49468" lon="-1.78379">
        <ele>7.2</ele>
        <time>2021-09-25T12:07:42Z</time>
      </trkpt>
      <trkpt lat="46.49468" lon="-1.7838">
        <ele>7.2</ele>
        <time>2021-09-25T12:07:43Z</time>
      </trkpt>
      <trkpt lat="46.49468" lon="-1.78382">
        <ele>7.2</ele>
        <time>2021-09-25T12:07:44Z</time>
      </trkpt>
      <trkpt lat="46.49468" lon="-1.78384">
        <ele>7.2</ele>
        <time>2021-09-25T12:07:45Z</time>
      </trkpt>
      <trkpt lat="46.49469" lon="-1.78386">
        <ele>7.2</ele>
        <time>2021-09-25T12:07:46Z</time>
      </trkpt>
      <trkpt lat="46.49469" lon="-1.78387">
        <ele>7.2</ele>
        <time>2021-09-25T12:07:47Z</time>
      </trkpt>
      <trkpt lat="46.49469" lon="-1.78389">
        <ele>7.3</ele>
        <time>2021-09-25T12:07:48Z</time>
      </trkpt>
      <trkpt lat="46.49469" lon="-1.78391">
        <ele>7.3</ele>
        <time>2021-09-25T12:07:49Z</time>
      </trkpt>
      <trkpt lat="46.49469" lon="-1.78392">
        <ele>7.3</ele>
        <time>2021-09-25T12:07:50Z</time>
      </trkpt>
      <trkpt lat="46.4947" lon="-1.78394">
        <ele>7.3</ele>
        <time>2021-09-25T12:07:51Z</time>
      </trkpt>
      <trkpt lat="46.4947" lon="-1.78396">
        <ele>7.3</ele>
        <time>2021-09-25T12:07:52Z</time>
      </trkpt>
      <trkpt lat="46.4947" lon="-1.78397">
        <ele>7.3</ele>
        <time>2021-09-25T12:07:53Z</time>
      </trkpt>
      <trkpt lat="46.4947" lon="-1.78399">
        <ele>7.3</ele>
        <time>2021-09-25T12:07:54Z</time>
      </trkpt>
      <trkpt lat="46.49471" lon="-1.784">
        <ele>7.3</ele>
        <time>2021-09-25T12:07:55Z</time>
      </trkpt>
      <trkpt lat="46.49471" lon="-1.78402">
        <ele>7.3</ele>
        <time>2021-09-25T12:07:56Z</time>
      </trkpt>
      <trkpt lat="46.49471" lon="-1.78404">
        <ele>7.3</ele>
        <time>2021-09-25T12:07:57Z</time>
      </trkpt>
      <trkpt lat="46.49471" lon="-1.78405">
        <ele>7.3</ele>
        <time>2021-09-25T12:07:58Z</time>
      </trkpt>
      <trkpt lat="46.49471" lon="-1.78407">
        <ele>7.3</ele>
        <time>2021-09-25T12:07:59Z</time>
      </trkpt>
      <trkpt lat="46.49471" lon="-1.78409">
        <ele>7.3</ele>
        <time>2021-09-25T12:08:00Z</time>
      </trkpt>
      <trkpt lat="46.49471" lon="-1.7841">
        <ele>7.3</ele>
        <time>2021-09-25T12:08:01Z</time>
      </trkpt>
      <trkpt lat="46.49471" lon="-1.78412">
        <ele>7.3</ele>
        <time>2021-09-25T12:08:02Z</time>
      </trkpt>
      <trkpt lat="46.49471" lon="-1.78413">
        <ele>7.3</ele>
        <time>2021-09-25T12:08:03Z</time>
      </trkpt>
      <trkpt lat="46.49471" lon="-1.78415">
        <ele>7.3</ele>
        <time>2021-09-25T12:08:04Z</time>
      </trkpt>
      <trkpt lat="46.49471" lon="-1.78417">
        <ele>7.3</ele>
        <time>2021-09-25T12:08:05Z</time>
      </trkpt>
      <trkpt lat="46.49471" lon="-1.78418">
        <ele>7.3</ele>
        <time>2021-09-25T12:08:06Z</time>
      </trkpt>
      <trkpt lat="46.49471" lon="-1.7842">
        <ele>7.3</ele>
        <time>2021-09-25T12:08:07Z</time>
      </trkpt>
      <trkpt lat="46.49471" lon="-1.78422">
        <ele>7.3</ele>
        <time>2021-09-25T12:08:08Z</time>
      </trkpt>
      <trkpt lat="46.4947" lon="-1.78423">
        <ele>7.3</ele>
        <time>2021-09-25T12:08:09Z</time>
      </trkpt>
      <trkpt lat="46.4947" lon="-1.78425">
        <ele>7.3</ele>
        <time>2021-09-25T12:08:10Z</time>
      </trkpt>
      <trkpt lat="46.4947" lon="-1.78427">
        <ele>7.2</ele>
        <time>2021-09-25T12:08:11Z</time>
      </trkpt>
      <trkpt lat="46.4947" lon="-1.78428">
        <ele>7.2</ele>
        <time>2021-09-25T12:08:12Z</time>
      </trkpt>
      <trkpt lat="46.4947" lon="-1.7843">
        <ele>7.2</ele>
        <time>2021-09-25T12:08:13Z</time>
      </trkpt>
      <trkpt lat="46.49469" lon="-1.78432">
        <ele>7.2</ele>
        <time>2021-09-25T12:08:14Z</time>
      </trkpt>
      <trkpt lat="46.49469" lon="-1.78433">
        <ele>7.2</ele>
        <time>2021-09-25T12:08:15Z</time>
      </trkpt>
      <trkpt lat="46.49469" lon="-1.78435">
        <ele>7.2</ele>
        <time>2021-09-25T12:08:16Z</time>
      </trkpt>
      <trkpt lat="46.49469" lon="-1.78437">
        <ele>7.2</ele>
        <time>2021-09-25T12:08:17Z</time>
      </trkpt>
      <trkpt lat="46.49469" lon="-1.78438">
        <ele>7.2</ele>
        <time>2021-09-25T12:08:18Z</time>
      </trkpt>
      <trkpt lat="46.49469" lon="-1.7844">
        <ele>7.2</ele>
        <time>2021-09-25T12:08:19Z</time>
      </trkpt>
      <trkpt lat="46.49469" lon="-1.78441">
        <ele>7.2</ele>
        <time>2021-09-25T12:08:20Z</time>
      </trkpt>
      <trkpt lat="46.49469" lon="-1.78443">
        <ele>7.2</ele>
        <time>2021-09-25T12:08:21Z</time>
      </trkpt>
      <trkpt lat="46.49469" lon="-1.78444">
        <ele>7.2</ele>
        <time>2021-09-25T12:08:22Z</time>
      </trkpt>
      <trkpt lat="46.49469" lon="-1.78446">
        <ele>7.2</ele>
        <time>2021-09-25T12:08:23Z</time>
      </trkpt>
      <trkpt lat="46.49469" lon="-1.78447">
        <ele>7.2</ele>
        <time>2021-09-25T12:08:24Z</time>
      </trkpt>
      <trkpt lat="46.49469" lon="-1.78449">
        <ele>7.2</ele>
        <time>2021-09-25T12:08:25Z</time>
      </trkpt>
      <trkpt lat="46.4947" lon="-1.7845">
        <ele>7.2</ele>
        <time>2021-09-25T12:08:26Z</time>
      </trkpt>
      <trkpt lat="46.4947" lon="-1.78452">
        <ele>7.2</ele>
        <time>2021-09-25T12:08:27Z</time>
      </trkpt>
      <trkpt lat="46.4947" lon="-1.78453">
        <ele>7.2</ele>
        <time>2021-09-25T12:08:28Z</time>
      </trkpt>
      <trkpt lat="46.49471" lon="-1.78454">
        <ele>7.2</ele>
        <time>2021-09-25T12:08:29Z</time>
      </trkpt>
      <trkpt lat="46.49471" lon="-1.78456">
        <ele>7.1</ele>
        <time>2021-09-25T12:08:30Z</time>
      </trkpt>
      <trkpt lat="46.49472" lon="-1.78457">
        <ele>7.1</ele>
        <time>2021-09-25T12:08:31Z</time>
      </trkpt>
      <trkpt lat="46.49472" lon="-1.78458">
        <ele>7.1</ele>
        <time>2021-09-25T12:08:32Z</time>
      </trkpt>
      <trkpt lat="46.49473" lon="-1.78459">
        <ele>7.1</ele>
        <time>2021-09-25T12:08:33Z</time>
      </trkpt>
      <trkpt lat="46.49473" lon="-1.78461">
        <ele>7.1</ele>
        <time>2021-09-25T12:08:34Z</time>
      </trkpt>
      <trkpt lat="46.49474" lon="-1.78462">
        <ele>7.1</ele>
        <time>2021-09-25T12:08:35Z</time>
      </trkpt>
      <trkpt lat="46.49475" lon="-1.78463">
        <ele>7.1</ele>
        <time>2021-09-25T12:08:36Z</time>
      </trkpt>
      <trkpt lat="46.49475" lon="-1.78464">
        <ele>7.1</ele>
        <time>2021-09-25T12:08:37Z</time>
      </trkpt>
      <trkpt lat="46.49476" lon="-1.78465">
        <ele>7.1</ele>
        <time>2021-09-25T12:08:38Z</time>
      </trkpt>
      <trkpt lat="46.49477" lon="-1.78466">
        <ele>7.1</ele>
        <time>2021-09-25T12:08:39Z</time>
      </trkpt>
      <trkpt lat="46.49477" lon="-1.78468">
        <ele>7.1</ele>
        <time>2021-09-25T12:08:40Z</time>
      </trkpt>
      <trkpt lat="46.49478" lon="-1.78469">
        <ele>7.1</ele>
        <time>2021-09-25T12:08:41Z</time>
      </trkpt>
      <trkpt lat="46.49478" lon="-1.78469">
        <ele>7.1</ele>
        <time>2021-09-25T12:08:42Z</time>
      </trkpt>
      <trkpt lat="46.49478" lon="-1.78469">
        <ele>7.1</ele>
        <time>2021-09-25T12:08:43Z</time>
      </trkpt>
      <trkpt lat="46.49478" lon="-1.78469">
        <ele>7.1</ele>
        <time>2021-09-25T12:08:44Z</time>
      </trkpt>
      <trkpt lat="46.49479" lon="-1.78469">
        <ele>7.1</ele>
        <time>2021-09-25T12:08:45Z</time>
      </trkpt>
      <trkpt lat="46.49479" lon="-1.78469">
        <ele>7.1</ele>
        <time>2021-09-25T12:08:46Z</time>
      </trkpt>
      <trkpt lat="46.49479" lon="-1.78469">
        <ele>7.1</ele>
        <time>2021-09-25T12:08:47Z</time>
      </trkpt>
      <trkpt lat="46.49479" lon="-1.78469">
        <ele>7.1</ele>
        <time>2021-09-25T12:08:48Z</time>
      </trkpt>
      <trkpt lat="46.49479" lon="-1.78469">
        <ele>7.1</ele>
        <time>2021-09-25T12:08:49Z</time>
      </trkpt>
      <trkpt lat="46.49479" lon="-1.78469">
        <ele>7.1</ele>
        <time>2021-09-25T12:08:50Z</time>
      </trkpt>
      <trkpt lat="46.49479" lon="-1.78469">
        <ele>7.1</ele>
        <time>2021-09-25T12:08:51Z</time>
      </trkpt>
      <trkpt lat="46.49479" lon="-1.7847">
        <ele>7.1</ele>
        <time>2021-09-25T12:08:52Z</time>
      </trkpt>
      <trkpt lat="46.49479" lon="-1.7847">
        <ele>7.1</ele>
        <time>2021-09-25T12:08:53Z</time>
      </trkpt>
      <trkpt lat="46.49479" lon="-1.7847">
        <ele>7.1</ele>
        <time>2021-09-25T12:08:54Z</time>
      </trkpt>
      <trkpt lat="46.49479" lon="-1.7847">
        <ele>7.1</ele>
        <time>2021-09-25T12:08:55Z</time>
      </trkpt>
      <trkpt lat="46.49479" lon="-1.7847">
        <ele>7.1</ele>
        <time>2021-09-25T12:08:56Z</time>
      </trkpt>
      <trkpt lat="46.49479" lon="-1.7847">
        <ele>7.1</ele>
        <time>2021-09-25T12:08:57Z</time>
      </trkpt>
      <trkpt lat="46.4948" lon="-1.7847">
        <ele>7.1</ele>
        <time>2021-09-25T12:08:58Z</time>
      </trkpt>
      <trkpt lat="46.4948" lon="-1.7847">
        <ele>7.1</ele>
        <time>2021-09-25T12:08:59Z</time>
      </trkpt>
      <trkpt lat="46.4948" lon="-1.7847">
        <ele>7.1</ele>
        <time>2021-09-25T12:09:00Z</time>
      </trkpt>
      <trkpt lat="46.4948" lon="-1.7847">
        <ele>7.1</ele>
        <time>2021-09-25T12:09:01Z</time>
      </trkpt>
      <trkpt lat="46.4948" lon="-1.7847">
        <ele>7.1</ele>
        <time>2021-09-25T12:09:02Z</time>
      </trkpt>
      <trkpt lat="46.4948" lon="-1.7847">
        <ele>7.1</ele>
        <time>2021-09-25T12:09:03Z</time>
      </trkpt>
      <trkpt lat="46.4948" lon="-1.7847">
        <ele>7.1</ele>
        <time>2021-09-25T12:09:04Z</time>
      </trkpt>
      <trkpt lat="46.4948" lon="-1.78471">
        <ele>7.1</ele>
        <time>2021-09-25T12:09:05Z</time>
      </trkpt>
      <trkpt lat="46.4948" lon="-1.78471">
        <ele>7.1</ele>
        <time>2021-09-25T12:09:06Z</time>
      </trkpt>
      <trkpt lat="46.4948" lon="-1.78471">
        <ele>7.1</ele>
        <time>2021-09-25T12:09:07Z</time>
      </trkpt>
      <trkpt lat="46.4948" lon="-1.78471">
        <ele>7.1</ele>
        <time>2021-09-25T12:09:08Z</time>
      </trkpt>
      <trkpt lat="46.4948" lon="-1.78471">
        <ele>7.1</ele>
        <time>2021-09-25T12:09:09Z</time>
      </trkpt>
      <trkpt lat="46.4948" lon="-1.78471">
        <ele>7.1</ele>
        <time>2021-09-25T12:09:10Z</time>
      </trkpt>
      <trkpt lat="46.49481" lon="-1.78471">
        <ele>7.1</ele>
        <time>2021-09-25T12:09:11Z</time>
      </trkpt>
      <trkpt lat="46.49481" lon="-1.78471">
        <ele>7.1</ele>
        <time>2021-09-25T12:09:12Z</time>
      </trkpt>
      <trkpt lat="46.49481" lon="-1.78471">
        <ele>7.1</ele>
        <time>2021-09-25T12:09:13Z</time>
      </trkpt>
      <trkpt lat="46.49481" lon="-1.78471">
        <ele>7.1</ele>
        <time>2021-09-25T12:09:14Z</time>
      </trkpt>
      <trkpt lat="46.49481" lon="-1.78471">
        <ele>7.1</ele>
        <time>2021-09-25T12:09:15Z</time>
      </trkpt>
      <trkpt lat="46.49481" lon="-1.78471">
        <ele>7.1</ele>
        <time>2021-09-25T12:09:16Z</time>
      </trkpt>
      <trkpt lat="46.49481" lon="-1.78471">
        <ele>7.1</ele>
        <time>2021-09-25T12:09:17Z</time>
      </trkpt>
      <trkpt lat="46.49481" lon="-1.78472">
        <ele>7.1</ele>
        <time>2021-09-25T12:09:18Z</time>
      </trkpt>
      <trkpt lat="46.49481" lon="-1.78472">
        <ele>7.1</ele>
        <time>2021-09-25T12:09:19Z</time>
      </trkpt>
      <trkpt lat="46.49481" lon="-1.78472">
        <ele>7.1</ele>
        <time>2021-09-25T12:09:20Z</time>
      </trkpt>
      <trkpt lat="46.49481" lon="-1.78472">
        <ele>7.1</ele>
        <time>2021-09-25T12:09:21Z</time>
      </trkpt>
      <trkpt lat="46.49481" lon="-1.78472">
        <ele>7.1</ele>
        <time>2021-09-25T12:09:22Z</time>
      </trkpt>
      <trkpt lat="46.49482" lon="-1.78472">
        <ele>7.1</ele>
        <time>2021-09-25T12:09:23Z</time>
      </trkpt>
      <trkpt lat="46.49482" lon="-1.78472">
        <ele>7.1</ele>
        <time>2021-09-25T12:09:24Z</time>
      </trkpt>
      <trkpt lat="46.49482" lon="-1.78472">
        <ele>7.1</ele>
        <time>2021-09-25T12:09:25Z</time>
      </trkpt>
      <trkpt lat="46.49482" lon="-1.78472">
        <ele>7.1</ele>
        <time>2021-09-25T12:09:26Z</time>
      </trkpt>
      <trkpt lat="46.49482" lon="-1.78472">
        <ele>7.1</ele>
        <time>2021-09-25T12:09:27Z</time>
      </trkpt>
      <trkpt lat="46.49482" lon="-1.78472">
        <ele>7.1</ele>
        <time>2021-09-25T12:09:28Z</time>
      </trkpt>
      <trkpt lat="46.49482" lon="-1.78472">
        <ele>7.1</ele>
        <time>2021-09-25T12:09:29Z</time>
      </trkpt>
      <trkpt lat="46.49482" lon="-1.78473">
        <ele>7.1</ele>
        <time>2021-09-25T12:09:30Z</time>
      </trkpt>
      <trkpt lat="46.49482" lon="-1.78473">
        <ele>7.1</ele>
        <time>2021-09-25T12:09:31Z</time>
      </trkpt>
      <trkpt lat="46.49482" lon="-1.78473">
        <ele>7.1</ele>
        <time>2021-09-25T12:09:32Z</time>
      </trkpt>
      <trkpt lat="46.49482" lon="-1.78473">
        <ele>7.1</ele>
        <time>2021-09-25T12:09:33Z</time>
      </trkpt>
      <trkpt lat="46.49482" lon="-1.78473">
        <ele>7.1</ele>
        <time>2021-09-25T12:09:34Z</time>
      </trkpt>
      <trkpt lat="46.49482" lon="-1.78473">
        <ele>7.1</ele>
        <time>2021-09-25T12:09:35Z</time>
      </trkpt>
      <trkpt lat="46.49483" lon="-1.78473">
        <ele>7.1</ele>
        <time>2021-09-25T12:09:36Z</time>
      </trkpt>
      <trkpt lat="46.49483" lon="-1.78473">
        <ele>7.1</ele>
        <time>2021-09-25T12:09:37Z</time>
      </trkpt>
      <trkpt lat="46.49483" lon="-1.78473">
        <ele>7.1</ele>
        <time>2021-09-25T12:09:38Z</time>
      </trkpt>
      <trkpt lat="46.49483" lon="-1.78473">
        <ele>7.1</ele>
        <time>2021-09-25T12:09:39Z</time>
      </trkpt>
      <trkpt lat="46.49483" lon="-1.78473">
        <ele>7.1</ele>
        <time>2021-09-25T12:09:40Z</time>
      </trkpt>
      <trkpt lat="46.49483" lon="-1.78473">
        <ele>7.1</ele>
        <time>2021-09-25T12:09:41Z</time>
      </trkpt>
      <trkpt lat="46.49483" lon="-1.78473">
        <ele>7.1</ele>
        <time>2021-09-25T12:09:42Z</time>
      </trkpt>
      <trkpt lat="46.49483" lon="-1.78474">
        <ele>7.1</ele>
        <time>2021-09-25T12:09:43Z</time>
      </trkpt>
      <trkpt lat="46.49483" lon="-1.78474">
        <ele>7.1</ele>
        <time>2021-09-25T12:09:44Z</time>
      </trkpt>
      <trkpt lat="46.49483" lon="-1.78474">
        <ele>7.1</ele>
        <time>2021-09-25T12:09:45Z</time>
      </trkpt>
      <trkpt lat="46.49483" lon="-1.78474">
        <ele>7.1</ele>
        <time>2021-09-25T12:09:46Z</time>
      </trkpt>
      <trkpt lat="46.49483" lon="-1.78474">
        <ele>7.1</ele>
        <time>2021-09-25T12:09:47Z</time>
      </trkpt>
      <trkpt lat="46.49483" lon="-1.78474">
        <ele>7.1</ele>
        <time>2021-09-25T12:09:48Z</time>
      </trkpt>
      <trkpt lat="46.49482" lon="-1.78475">
        <ele>7.1</ele>
        <time>2021-09-25T12:09:49Z</time>
      </trkpt>
      <trkpt lat="46.49481" lon="-1.78476">
        <ele>7.1</ele>
        <time>2021-09-25T12:09:50Z</time>
      </trkpt>
      <trkpt lat="46.49481" lon="-1.78476">
        <ele>7.1</ele>
        <time>2021-09-25T12:09:51Z</time>
      </trkpt>
      <trkpt lat="46.4948" lon="-1.78477">
        <ele>7.1</ele>
        <time>2021-09-25T12:09:52Z</time>
      </trkpt>
      <trkpt lat="46.49479" lon="-1.78478">
        <ele>7.1</ele>
        <time>2021-09-25T12:09:53Z</time>
      </trkpt>
      <trkpt lat="46.49478" lon="-1.78478">
        <ele>7.1</ele>
        <time>2021-09-25T12:09:54Z</time>
      </trkpt>
      <trkpt lat="46.49478" lon="-1.78479">
        <ele>7.1</ele>
        <time>2021-09-25T12:09:55Z</time>
      </trkpt>
      <trkpt lat="46.49477" lon="-1.7848">
        <ele>7.1</ele>
        <time>2021-09-25T12:09:56Z</time>
      </trkpt>
      <trkpt lat="46.49476" lon="-1.78481">
        <ele>7.1</ele>
        <time>2021-09-25T12:09:57Z</time>
      </trkpt>
      <trkpt lat="46.49476" lon="-1.78481">
        <ele>7.1</ele>
        <time>2021-09-25T12:09:58Z</time>
      </trkpt>
      <trkpt lat="46.49475" lon="-1.78482">
        <ele>7.1</ele>
        <time>2021-09-25T12:09:59Z</time>
      </trkpt>
      <trkpt lat="46.49474" lon="-1.78483">
        <ele>7.1</ele>
        <time>2021-09-25T12:10:00Z</time>
      </trkpt>
      <trkpt lat="46.49473" lon="-1.78484">
        <ele>7.1</ele>
        <time>2021-09-25T12:10:01Z</time>
      </trkpt>
      <trkpt lat="46.49473" lon="-1.78485">
        <ele>7.1</ele>
        <time>2021-09-25T12:10:02Z</time>
      </trkpt>
      <trkpt lat="46.49472" lon="-1.78486">
        <ele>7.1</ele>
        <time>2021-09-25T12:10:03Z</time>
      </trkpt>
      <trkpt lat="46.49472" lon="-1.78487">
        <ele>7.1</ele>
        <time>2021-09-25T12:10:04Z</time>
      </trkpt>
      <trkpt lat="46.49471" lon="-1.78488">
        <ele>7.1</ele>
        <time>2021-09-25T12:10:05Z</time>
      </trkpt>
      <trkpt lat="46.49471" lon="-1.7849">
        <ele>7.1</ele>
        <time>2021-09-25T12:10:06Z</time>
      </trkpt>
      <trkpt lat="46.4947" lon="-1.78491">
        <ele>7.1</ele>
        <time>2021-09-25T12:10:07Z</time>
      </trkpt>
      <trkpt lat="46.4947" lon="-1.78492">
        <ele>7.1</ele>
        <time>2021-09-25T12:10:08Z</time>
      </trkpt>
      <trkpt lat="46.49469" lon="-1.78494">
        <ele>7.1</ele>
        <time>2021-09-25T12:10:09Z</time>
      </trkpt>
      <trkpt lat="46.49469" lon="-1.78495">
        <ele>7.1</ele>
        <time>2021-09-25T12:10:10Z</time>
      </trkpt>
      <trkpt lat="46.49469" lon="-1.78497">
        <ele>7.1</ele>
        <time>2021-09-25T12:10:11Z</time>
      </trkpt>
      <trkpt lat="46.49469" lon="-1.78498">
        <ele>7.1</ele>
        <time>2021-09-25T12:10:12Z</time>
      </trkpt>
      <trkpt lat="46.49469" lon="-1.785">
        <ele>7.1</ele>
        <time>2021-09-25T12:10:13Z</time>
      </trkpt>
      <trkpt lat="46.49469" lon="-1.78501">
        <ele>7.1</ele>
        <time>2021-09-25T12:10:14Z</time>
      </trkpt>
      <trkpt lat="46.4947" lon="-1.78503">
        <ele>7.1</ele>
        <time>2021-09-25T12:10:15Z</time>
      </trkpt>
      <trkpt lat="46.4947" lon="-1.78505">
        <ele>7.1</ele>
        <time>2021-09-25T12:10:16Z</time>
      </trkpt>
      <trkpt lat="46.4947" lon="-1.78506">
        <ele>7.1</ele>
        <time>2021-09-25T12:10:17Z</time>
      </trkpt>
      <trkpt lat="46.4947" lon="-1.78508">
        <ele>7.1</ele>
        <time>2021-09-25T12:10:18Z</time>
      </trkpt>
      <trkpt lat="46.4947" lon="-1.7851">
        <ele>7.1</ele>
        <time>2021-09-25T12:10:19Z</time>
      </trkpt>
      <trkpt lat="46.4947" lon="-1.78511">
        <ele>7.1</ele>
        <time>2021-09-25T12:10:20Z</time>
      </trkpt>
      <trkpt lat="46.4947" lon="-1.78513">
        <ele>7.1</ele>
        <time>2021-09-25T12:10:21Z</time>
      </trkpt>
      <trkpt lat="46.49471" lon="-1.78515">
        <ele>7.1</ele>
        <time>2021-09-25T12:10:22Z</time>
      </trkpt>
      <trkpt lat="46.49471" lon="-1.78516">
        <ele>7.1</ele>
        <time>2021-09-25T12:10:23Z</time>
      </trkpt>
      <trkpt lat="46.49471" lon="-1.78518">
        <ele>7.1</ele>
        <time>2021-09-25T12:10:24Z</time>
      </trkpt>
      <trkpt lat="46.49471" lon="-1.78519">
        <ele>7.1</ele>
        <time>2021-09-25T12:10:25Z</time>
      </trkpt>
      <trkpt lat="46.49471" lon="-1.78521">
        <ele>7.1</ele>
        <time>2021-09-25T12:10:26Z</time>
      </trkpt>
      <trkpt lat="46.4947" lon="-1.78523">
        <ele>7.1</ele>
        <time>2021-09-25T12:10:27Z</time>
      </trkpt>
      <trkpt lat="46.4947" lon="-1.78524">
        <ele>7.1</ele>
        <time>2021-09-25T12:10:28Z</time>
      </trkpt>
      <trkpt lat="46.4947" lon="-1.78526">
        <ele>7.1</ele>
        <time>2021-09-25T12:10:29Z</time>
      </trkpt>
      <trkpt lat="46.4947" lon="-1.78527">
        <ele>7.1</ele>
        <time>2021-09-25T12:10:30Z</time>
      </trkpt>
      <trkpt lat="46.4947" lon="-1.78529">
        <ele>7.1</ele>
        <time>2021-09-25T12:10:31Z</time>
      </trkpt>
      <trkpt lat="46.4947" lon="-1.78531">
        <ele>7.1</ele>
        <time>2021-09-25T12:10:32Z</time>
      </trkpt>
      <trkpt lat="46.4947" lon="-1.78532">
        <ele>7.1</ele>
        <time>2021-09-25T12:10:33Z</time>
      </trkpt>
      <trkpt lat="46.4947" lon="-1.78534">
        <ele>7.1</ele>
        <time>2021-09-25T12:10:34Z</time>
      </trkpt>
      <trkpt lat="46.49469" lon="-1.78535">
        <ele>7.1</ele>
        <time>2021-09-25T12:10:35Z</time>
      </trkpt>
      <trkpt lat="46.49469" lon="-1.78537">
        <ele>7.1</ele>
        <time>2021-09-25T12:10:36Z</time>
      </trkpt>
      <trkpt lat="46.49469" lon="-1.78539">
        <ele>7.1</ele>
        <time>2021-09-25T12:10:37Z</time>
      </trkpt>
      <trkpt lat="46.49469" lon="-1.78541">
        <ele>7.1</ele>
        <time>2021-09-25T12:10:38Z</time>
      </trkpt>
      <trkpt lat="46.49469" lon="-1.78542">
        <ele>7.1</ele>
        <time>2021-09-25T12:10:39Z</time>
      </trkpt>
      <trkpt lat="46.49469" lon="-1.78544">
        <ele>7.1</ele>
        <time>2021-09-25T12:10:40Z</time>
      </trkpt>
      <trkpt lat="46.49469" lon="-1.78546">
        <ele>7.1</ele>
        <time>2021-09-25T12:10:41Z</time>
      </trkpt>
      <trkpt lat="46.49468" lon="-1.78547">
        <ele>7.1</ele>
        <time>2021-09-25T12:10:42Z</time>
      </trkpt>
      <trkpt lat="46.49468" lon="-1.78549">
        <ele>7.1</ele>
        <time>2021-09-25T12:10:43Z</time>
      </trkpt>
      <trkpt lat="46.49468" lon="-1.78551">
        <ele>7.1</ele>
        <time>2021-09-25T12:10:44Z</time>
      </trkpt>
      <trkpt lat="46.49468" lon="-1.78552">
        <ele>7.1</ele>
        <time>2021-09-25T12:10:45Z</time>
      </trkpt>
      <trkpt lat="46.49468" lon="-1.78554">
        <ele>7.1</ele>
        <time>2021-09-25T12:10:46Z</time>
      </trkpt>
      <trkpt lat="46.49468" lon="-1.78556">
        <ele>7.1</ele>
        <time>2021-09-25T12:10:47Z</time>
      </trkpt>
      <trkpt lat="46.49468" lon="-1.78557">
        <ele>7.1</ele>
        <time>2021-09-25T12:10:48Z</time>
      </trkpt>
      <trkpt lat="46.49468" lon="-1.78559">
        <ele>7.1</ele>
        <time>2021-09-25T12:10:49Z</time>
      </trkpt>
      <trkpt lat="46.49468" lon="-1.7856">
        <ele>7.1</ele>
        <time>2021-09-25T12:10:50Z</time>
      </trkpt>
      <trkpt lat="46.49468" lon="-1.78562">
        <ele>7.1</ele>
        <time>2021-09-25T12:10:51Z</time>
      </trkpt>
      <trkpt lat="46.49468" lon="-1.78563">
        <ele>7.1</ele>
        <time>2021-09-25T12:10:52Z</time>
      </trkpt>
      <trkpt lat="46.49468" lon="-1.78564">
        <ele>7.1</ele>
        <time>2021-09-25T12:10:53Z</time>
      </trkpt>
      <trkpt lat="46.49468" lon="-1.78566">
        <ele>7.1</ele>
        <time>2021-09-25T12:10:54Z</time>
      </trkpt>
      <trkpt lat="46.49468" lon="-1.78567">
        <ele>7.1</ele>
        <time>2021-09-25T12:10:55Z</time>
      </trkpt>
      <trkpt lat="46.49468" lon="-1.78569">
        <ele>7.1</ele>
        <time>2021-09-25T12:10:56Z</time>
      </trkpt>
      <trkpt lat="46.49468" lon="-1.7857">
        <ele>7.1</ele>
        <time>2021-09-25T12:10:57Z</time>
      </trkpt>
      <trkpt lat="46.49468" lon="-1.78572">
        <ele>7.1</ele>
        <time>2021-09-25T12:10:58Z</time>
      </trkpt>
      <trkpt lat="46.49468" lon="-1.78573">
        <ele>7.1</ele>
        <time>2021-09-25T12:10:59Z</time>
      </trkpt>
      <trkpt lat="46.49468" lon="-1.78575">
        <ele>7.1</ele>
        <time>2021-09-25T12:11:00Z</time>
      </trkpt>
      <trkpt lat="46.49468" lon="-1.78576">
        <ele>7.1</ele>
        <time>2021-09-25T12:11:01Z</time>
      </trkpt>
      <trkpt lat="46.49468" lon="-1.78578">
        <ele>7.1</ele>
        <time>2021-09-25T12:11:02Z</time>
      </trkpt>
      <trkpt lat="46.49468" lon="-1.78579">
        <ele>7.1</ele>
        <time>2021-09-25T12:11:03Z</time>
      </trkpt>
      <trkpt lat="46.49468" lon="-1.7858">
        <ele>7.1</ele>
        <time>2021-09-25T12:11:04Z</time>
      </trkpt>
      <trkpt lat="46.49468" lon="-1.78581">
        <ele>7.1</ele>
        <time>2021-09-25T12:11:05Z</time>
      </trkpt>
      <trkpt lat="46.49468" lon="-1.78583">
        <ele>7.1</ele>
        <time>2021-09-25T12:11:06Z</time>
      </trkpt>
      <trkpt lat="46.49468" lon="-1.78584">
        <ele>7.1</ele>
        <time>2021-09-25T12:11:07Z</time>
      </trkpt>
      <trkpt lat="46.49468" lon="-1.78585">
        <ele>7.1</ele>
        <time>2021-09-25T12:11:08Z</time>
      </trkpt>
      <trkpt lat="46.49468" lon="-1.78587">
        <ele>7.1</ele>
        <time>2021-09-25T12:11:09Z</time>
      </trkpt>
      <trkpt lat="46.49468" lon="-1.78589">
        <ele>7.1</ele>
        <time>2021-09-25T12:11:10Z</time>
      </trkpt>
      <trkpt lat="46.49468" lon="-1.7859">
        <ele>7.1</ele>
        <time>2021-09-25T12:11:11Z</time>
      </trkpt>
      <trkpt lat="46.49468" lon="-1.78592">
        <ele>7.1</ele>
        <time>2021-09-25T12:11:12Z</time>
      </trkpt>
      <trkpt lat="46.49468" lon="-1.78594">
        <ele>7.1</ele>
        <time>2021-09-25T12:11:13Z</time>
      </trkpt>
      <trkpt lat="46.49468" lon="-1.78596">
        <ele>7.1</ele>
        <time>2021-09-25T12:11:14Z</time>
      </trkpt>
      <trkpt lat="46.49468" lon="-1.78597">
        <ele>7.1</ele>
        <time>2021-09-25T12:11:15Z</time>
      </trkpt>
      <trkpt lat="46.49468" lon="-1.78599">
        <ele>7.1</ele>
        <time>2021-09-25T12:11:16Z</time>
      </trkpt>
      <trkpt lat="46.49468" lon="-1.78601">
        <ele>7.1</ele>
        <time>2021-09-25T12:11:17Z</time>
      </trkpt>
      <trkpt lat="46.49467" lon="-1.78602">
        <ele>7.1</ele>
        <time>2021-09-25T12:11:18Z</time>
      </trkpt>
      <trkpt lat="46.49467" lon="-1.78604">
        <ele>7.1</ele>
        <time>2021-09-25T12:11:19Z</time>
      </trkpt>
      <trkpt lat="46.49467" lon="-1.78605">
        <ele>7.1</ele>
        <time>2021-09-25T12:11:20Z</time>
      </trkpt>
      <trkpt lat="46.49467" lon="-1.78607">
        <ele>7.1</ele>
        <time>2021-09-25T12:11:21Z</time>
      </trkpt>
      <trkpt lat="46.49467" lon="-1.78608">
        <ele>7.1</ele>
        <time>2021-09-25T12:11:22Z</time>
      </trkpt>
      <trkpt lat="46.49467" lon="-1.78609">
        <ele>7.1</ele>
        <time>2021-09-25T12:11:23Z</time>
      </trkpt>
      <trkpt lat="46.49467" lon="-1.78611">
        <ele>7.1</ele>
        <time>2021-09-25T12:11:24Z</time>
      </trkpt>
      <trkpt lat="46.49467" lon="-1.78612">
        <ele>7.1</ele>
        <time>2021-09-25T12:11:25Z</time>
      </trkpt>
      <trkpt lat="46.49467" lon="-1.78614">
        <ele>7.1</ele>
        <time>2021-09-25T12:11:26Z</time>
      </trkpt>
      <trkpt lat="46.49467" lon="-1.78615">
        <ele>7.1</ele>
        <time>2021-09-25T12:11:27Z</time>
      </trkpt>
      <trkpt lat="46.49467" lon="-1.78617">
        <ele>7.1</ele>
        <time>2021-09-25T12:11:28Z</time>
      </trkpt>
      <trkpt lat="46.49467" lon="-1.78618">
        <ele>7.1</ele>
        <time>2021-09-25T12:11:29Z</time>
      </trkpt>
      <trkpt lat="46.49467" lon="-1.78619">
        <ele>7.1</ele>
        <time>2021-09-25T12:11:30Z</time>
      </trkpt>
      <trkpt lat="46.49467" lon="-1.78621">
        <ele>7.1</ele>
        <time>2021-09-25T12:11:31Z</time>
      </trkpt>
      <trkpt lat="46.49468" lon="-1.78622">
        <ele>7.1</ele>
        <time>2021-09-25T12:11:32Z</time>
      </trkpt>
      <trkpt lat="46.49468" lon="-1.78624">
        <ele>7.1</ele>
        <time>2021-09-25T12:11:33Z</time>
      </trkpt>
      <trkpt lat="46.49468" lon="-1.78625">
        <ele>7.1</ele>
        <time>2021-09-25T12:11:34Z</time>
      </trkpt>
      <trkpt lat="46.49468" lon="-1.78627">
        <ele>7.1</ele>
        <time>2021-09-25T12:11:35Z</time>
      </trkpt>
      <trkpt lat="46.49468" lon="-1.78628">
        <ele>7.1</ele>
        <time>2021-09-25T12:11:36Z</time>
      </trkpt>
      <trkpt lat="46.49468" lon="-1.7863">
        <ele>7.1</ele>
        <time>2021-09-25T12:11:37Z</time>
      </trkpt>
      <trkpt lat="46.49468" lon="-1.78631">
        <ele>7.1</ele>
        <time>2021-09-25T12:11:38Z</time>
      </trkpt>
      <trkpt lat="46.49468" lon="-1.78633">
        <ele>7.1</ele>
        <time>2021-09-25T12:11:39Z</time>
      </trkpt>
      <trkpt lat="46.49468" lon="-1.78634">
        <ele>7.1</ele>
        <time>2021-09-25T12:11:40Z</time>
      </trkpt>
      <trkpt lat="46.49468" lon="-1.78636">
        <ele>7.1</ele>
        <time>2021-09-25T12:11:41Z</time>
      </trkpt>
      <trkpt lat="46.49468" lon="-1.78637">
        <ele>7.1</ele>
        <time>2021-09-25T12:11:42Z</time>
      </trkpt>
      <trkpt lat="46.49468" lon="-1.78639">
        <ele>7.1</ele>
        <time>2021-09-25T12:11:43Z</time>
      </trkpt>
      <trkpt lat="46.49468" lon="-1.7864">
        <ele>7.2</ele>
        <time>2021-09-25T12:11:44Z</time>
      </trkpt>
      <trkpt lat="46.49468" lon="-1.78641">
        <ele>7.2</ele>
        <time>2021-09-25T12:11:45Z</time>
      </trkpt>
      <trkpt lat="46.49468" lon="-1.78643">
        <ele>7.2</ele>
        <time>2021-09-25T12:11:46Z</time>
      </trkpt>
      <trkpt lat="46.49469" lon="-1.78644">
        <ele>7.2</ele>
        <time>2021-09-25T12:11:47Z</time>
      </trkpt>
      <trkpt lat="46.49469" lon="-1.78645">
        <ele>7.2</ele>
        <time>2021-09-25T12:11:48Z</time>
      </trkpt>
      <trkpt lat="46.49469" lon="-1.78646">
        <ele>7.2</ele>
        <time>2021-09-25T12:11:49Z</time>
      </trkpt>
      <trkpt lat="46.49469" lon="-1.78647">
        <ele>7.2</ele>
        <time>2021-09-25T12:11:50Z</time>
      </trkpt>
      <trkpt lat="46.49469" lon="-1.78648">
        <ele>7.2</ele>
        <time>2021-09-25T12:11:51Z</time>
      </trkpt>
      <trkpt lat="46.49469" lon="-1.78649">
        <ele>7.2</ele>
        <time>2021-09-25T12:11:52Z</time>
      </trkpt>
      <trkpt lat="46.49469" lon="-1.7865">
        <ele>7.2</ele>
        <time>2021-09-25T12:11:53Z</time>
      </trkpt>
      <trkpt lat="46.49469" lon="-1.78651">
        <ele>7.2</ele>
        <time>2021-09-25T12:11:54Z</time>
      </trkpt>
      <trkpt lat="46.49469" lon="-1.78652">
        <ele>7.2</ele>
        <time>2021-09-25T12:11:55Z</time>
      </trkpt>
      <trkpt lat="46.49469" lon="-1.78653">
        <ele>7.2</ele>
        <time>2021-09-25T12:11:56Z</time>
      </trkpt>
      <trkpt lat="46.49469" lon="-1.78654">
        <ele>7.2</ele>
        <time>2021-09-25T12:11:57Z</time>
      </trkpt>
      <trkpt lat="46.49469" lon="-1.78656">
        <ele>7.2</ele>
        <time>2021-09-25T12:11:58Z</time>
      </trkpt>
      <trkpt lat="46.49469" lon="-1.78657">
        <ele>7.2</ele>
        <time>2021-09-25T12:11:59Z</time>
      </trkpt>
      <trkpt lat="46.49468" lon="-1.78659">
        <ele>7.2</ele>
        <time>2021-09-25T12:12:00Z</time>
      </trkpt>
      <trkpt lat="46.49468" lon="-1.78661">
        <ele>7.2</ele>
        <time>2021-09-25T12:12:01Z</time>
      </trkpt>
      <trkpt lat="46.49468" lon="-1.78662">
        <ele>7.3</ele>
        <time>2021-09-25T12:12:02Z</time>
      </trkpt>
      <trkpt lat="46.49468" lon="-1.78663">
        <ele>7.3</ele>
        <time>2021-09-25T12:12:03Z</time>
      </trkpt>
      <trkpt lat="46.49468" lon="-1.78664">
        <ele>7.4</ele>
        <time>2021-09-25T12:12:04Z</time>
      </trkpt>
      <trkpt lat="46.49468" lon="-1.78665">
        <ele>7.4</ele>
        <time>2021-09-25T12:12:05Z</time>
      </trkpt>
      <trkpt lat="46.49468" lon="-1.78666">
        <ele>7.4</ele>
        <time>2021-09-25T12:12:06Z</time>
      </trkpt>
      <trkpt lat="46.49468" lon="-1.78666">
        <ele>7.4</ele>
        <time>2021-09-25T12:12:07Z</time>
      </trkpt>
      <trkpt lat="46.49468" lon="-1.78666">
        <ele>7.4</ele>
        <time>2021-09-25T12:12:08Z</time>
      </trkpt>
      <trkpt lat="46.49468" lon="-1.78667">
        <ele>7.4</ele>
        <time>2021-09-25T12:12:09Z</time>
      </trkpt>
      <trkpt lat="46.49468" lon="-1.78667">
        <ele>7.4</ele>
        <time>2021-09-25T12:12:10Z</time>
      </trkpt>
      <trkpt lat="46.49468" lon="-1.78666">
        <ele>7.4</ele>
        <time>2021-09-25T12:12:11Z</time>
      </trkpt>
      <trkpt lat="46.49468" lon="-1.78666">
        <ele>7.4</ele>
        <time>2021-09-25T12:12:12Z</time>
      </trkpt>
      <trkpt lat="46.49468" lon="-1.78666">
        <ele>7.4</ele>
        <time>2021-09-25T12:12:13Z</time>
      </trkpt>
      <trkpt lat="46.49468" lon="-1.78666">
        <ele>7.4</ele>
        <time>2021-09-25T12:12:14Z</time>
      </trkpt>
      <trkpt lat="46.49468" lon="-1.78666">
        <ele>7.4</ele>
        <time>2021-09-25T12:12:15Z</time>
      </trkpt>
      <trkpt lat="46.49468" lon="-1.78666">
        <ele>7.4</ele>
        <time>2021-09-25T12:12:16Z</time>
      </trkpt>
      <trkpt lat="46.49468" lon="-1.78667">
        <ele>7.4</ele>
        <time>2021-09-25T12:12:17Z</time>
      </trkpt>
      <trkpt lat="46.49468" lon="-1.78667">
        <ele>7.4</ele>
        <time>2021-09-25T12:12:18Z</time>
      </trkpt>
      <trkpt lat="46.49468" lon="-1.78668">
        <ele>7.4</ele>
        <time>2021-09-25T12:12:19Z</time>
      </trkpt>
      <trkpt lat="46.49467" lon="-1.78668">
        <ele>7.4</ele>
        <time>2021-09-25T12:12:20Z</time>
      </trkpt>
      <trkpt lat="46.49467" lon="-1.7867">
        <ele>7.3</ele>
        <time>2021-09-25T12:12:21Z</time>
      </trkpt>
      <trkpt lat="46.49467" lon="-1.78671">
        <ele>7.3</ele>
        <time>2021-09-25T12:12:22Z</time>
      </trkpt>
      <trkpt lat="46.49466" lon="-1.78672">
        <ele>7.3</ele>
        <time>2021-09-25T12:12:23Z</time>
      </trkpt>
      <trkpt lat="46.49466" lon="-1.78673">
        <ele>7.3</ele>
        <time>2021-09-25T12:12:24Z</time>
      </trkpt>
      <trkpt lat="46.49466" lon="-1.78675">
        <ele>7.3</ele>
        <time>2021-09-25T12:12:25Z</time>
      </trkpt>
      <trkpt lat="46.49466" lon="-1.78676">
        <ele>7.3</ele>
        <time>2021-09-25T12:12:26Z</time>
      </trkpt>
      <trkpt lat="46.49466" lon="-1.78677">
        <ele>7.3</ele>
        <time>2021-09-25T12:12:27Z</time>
      </trkpt>
      <trkpt lat="46.49466" lon="-1.78678">
        <ele>7.3</ele>
        <time>2021-09-25T12:12:28Z</time>
      </trkpt>
      <trkpt lat="46.49467" lon="-1.78679">
        <ele>7.3</ele>
        <time>2021-09-25T12:12:29Z</time>
      </trkpt>
      <trkpt lat="46.49467" lon="-1.78681">
        <ele>7.3</ele>
        <time>2021-09-25T12:12:30Z</time>
      </trkpt>
      <trkpt lat="46.49467" lon="-1.78682">
        <ele>7.3</ele>
        <time>2021-09-25T12:12:31Z</time>
      </trkpt>
      <trkpt lat="46.49468" lon="-1.78683">
        <ele>7.3</ele>
        <time>2021-09-25T12:12:32Z</time>
      </trkpt>
      <trkpt lat="46.49468" lon="-1.78685">
        <ele>7.3</ele>
        <time>2021-09-25T12:12:33Z</time>
      </trkpt>
      <trkpt lat="46.49468" lon="-1.78686">
        <ele>7.3</ele>
        <time>2021-09-25T12:12:34Z</time>
      </trkpt>
      <trkpt lat="46.49468" lon="-1.78688">
        <ele>7.3</ele>
        <time>2021-09-25T12:12:35Z</time>
      </trkpt>
      <trkpt lat="46.49468" lon="-1.7869">
        <ele>7.3</ele>
        <time>2021-09-25T12:12:36Z</time>
      </trkpt>
      <trkpt lat="46.49467" lon="-1.78691">
        <ele>7.3</ele>
        <time>2021-09-25T12:12:37Z</time>
      </trkpt>
      <trkpt lat="46.49467" lon="-1.78693">
        <ele>7.3</ele>
        <time>2021-09-25T12:12:38Z</time>
      </trkpt>
      <trkpt lat="46.49467" lon="-1.78694">
        <ele>7.3</ele>
        <time>2021-09-25T12:12:39Z</time>
      </trkpt>
      <trkpt lat="46.49466" lon="-1.78696">
        <ele>7.3</ele>
        <time>2021-09-25T12:12:40Z</time>
      </trkpt>
      <trkpt lat="46.49466" lon="-1.78697">
        <ele>7.3</ele>
        <time>2021-09-25T12:12:41Z</time>
      </trkpt>
      <trkpt lat="46.49465" lon="-1.78698">
        <ele>7.3</ele>
        <time>2021-09-25T12:12:42Z</time>
      </trkpt>
      <trkpt lat="46.49465" lon="-1.78699">
        <ele>7.3</ele>
        <time>2021-09-25T12:12:43Z</time>
      </trkpt>
      <trkpt lat="46.49465" lon="-1.787">
        <ele>7.3</ele>
        <time>2021-09-25T12:12:44Z</time>
      </trkpt>
      <trkpt lat="46.49465" lon="-1.78701">
        <ele>7.3</ele>
        <time>2021-09-25T12:12:45Z</time>
      </trkpt>
      <trkpt lat="46.49464" lon="-1.78702">
        <ele>7.3</ele>
        <time>2021-09-25T12:12:46Z</time>
      </trkpt>
      <trkpt lat="46.49464" lon="-1.78703">
        <ele>7.3</ele>
        <time>2021-09-25T12:12:47Z</time>
      </trkpt>
      <trkpt lat="46.49464" lon="-1.78704">
        <ele>7.3</ele>
        <time>2021-09-25T12:12:48Z</time>
      </trkpt>
      <trkpt lat="46.49464" lon="-1.78706">
        <ele>7.3</ele>
        <time>2021-09-25T12:12:49Z</time>
      </trkpt>
      <trkpt lat="46.49464" lon="-1.78707">
        <ele>7.3</ele>
        <time>2021-09-25T12:12:50Z</time>
      </trkpt>
      <trkpt lat="46.49464" lon="-1.78709">
        <ele>7.3</ele>
        <time>2021-09-25T12:12:51Z</time>
      </trkpt>
      <trkpt lat="46.49464" lon="-1.7871">
        <ele>7.3</ele>
        <time>2021-09-25T12:12:52Z</time>
      </trkpt>
      <trkpt lat="46.49464" lon="-1.78711">
        <ele>7.3</ele>
        <time>2021-09-25T12:12:53Z</time>
      </trkpt>
      <trkpt lat="46.49464" lon="-1.78712">
        <ele>7.3</ele>
        <time>2021-09-25T12:12:54Z</time>
      </trkpt>
      <trkpt lat="46.49463" lon="-1.78712">
        <ele>7.3</ele>
        <time>2021-09-25T12:12:55Z</time>
      </trkpt>
      <trkpt lat="46.49463" lon="-1.78713">
        <ele>7.3</ele>
        <time>2021-09-25T12:12:56Z</time>
      </trkpt>
      <trkpt lat="46.49463" lon="-1.78713">
        <ele>7.3</ele>
        <time>2021-09-25T12:12:57Z</time>
      </trkpt>
      <trkpt lat="46.49463" lon="-1.78714">
        <ele>7.3</ele>
        <time>2021-09-25T12:12:58Z</time>
      </trkpt>
      <trkpt lat="46.49463" lon="-1.78715">
        <ele>7.3</ele>
        <time>2021-09-25T12:12:59Z</time>
      </trkpt>
      <trkpt lat="46.49462" lon="-1.78716">
        <ele>7.3</ele>
        <time>2021-09-25T12:13:00Z</time>
      </trkpt>
      <trkpt lat="46.49462" lon="-1.78717">
        <ele>7.3</ele>
        <time>2021-09-25T12:13:01Z</time>
      </trkpt>
      <trkpt lat="46.49462" lon="-1.78719">
        <ele>7.3</ele>
        <time>2021-09-25T12:13:02Z</time>
      </trkpt>
      <trkpt lat="46.49462" lon="-1.7872">
        <ele>7.3</ele>
        <time>2021-09-25T12:13:03Z</time>
      </trkpt>
      <trkpt lat="46.49462" lon="-1.78722">
        <ele>7.3</ele>
        <time>2021-09-25T12:13:04Z</time>
      </trkpt>
      <trkpt lat="46.49462" lon="-1.78723">
        <ele>7.3</ele>
        <time>2021-09-25T12:13:05Z</time>
      </trkpt>
      <trkpt lat="46.49462" lon="-1.78724">
        <ele>7.3</ele>
        <time>2021-09-25T12:13:06Z</time>
      </trkpt>
      <trkpt lat="46.49462" lon="-1.78725">
        <ele>7.3</ele>
        <time>2021-09-25T12:13:07Z</time>
      </trkpt>
      <trkpt lat="46.49462" lon="-1.78726">
        <ele>7.3</ele>
        <time>2021-09-25T12:13:08Z</time>
      </trkpt>
      <trkpt lat="46.49462" lon="-1.78726">
        <ele>7.3</ele>
        <time>2021-09-25T12:13:09Z</time>
      </trkpt>
      <trkpt lat="46.49462" lon="-1.78726">
        <ele>7.3</ele>
        <time>2021-09-25T12:13:10Z</time>
      </trkpt>
      <trkpt lat="46.49462" lon="-1.78726">
        <ele>7.3</ele>
        <time>2021-09-25T12:13:11Z</time>
      </trkpt>
      <trkpt lat="46.49462" lon="-1.78726">
        <ele>7.3</ele>
        <time>2021-09-25T12:13:12Z</time>
      </trkpt>
      <trkpt lat="46.49462" lon="-1.78726">
        <ele>7.3</ele>
        <time>2021-09-25T12:13:13Z</time>
      </trkpt>
      <trkpt lat="46.49462" lon="-1.78726">
        <ele>7.3</ele>
        <time>2021-09-25T12:13:14Z</time>
      </trkpt>
      <trkpt lat="46.49462" lon="-1.78726">
        <ele>7.3</ele>
        <time>2021-09-25T12:13:15Z</time>
      </trkpt>
      <trkpt lat="46.49462" lon="-1.78726">
        <ele>7.3</ele>
        <time>2021-09-25T12:13:16Z</time>
      </trkpt>
      <trkpt lat="46.49462" lon="-1.78726">
        <ele>7.3</ele>
        <time>2021-09-25T12:13:17Z</time>
      </trkpt>
      <trkpt lat="46.49462" lon="-1.78726">
        <ele>7.3</ele>
        <time>2021-09-25T12:13:18Z</time>
      </trkpt>
      <trkpt lat="46.49462" lon="-1.78726">
        <ele>7.3</ele>
        <time>2021-09-25T12:13:19Z</time>
      </trkpt>
      <trkpt lat="46.49462" lon="-1.78727">
        <ele>7.3</ele>
        <time>2021-09-25T12:13:20Z</time>
      </trkpt>
      <trkpt lat="46.49462" lon="-1.78727">
        <ele>7.3</ele>
        <time>2021-09-25T12:13:21Z</time>
      </trkpt>
      <trkpt lat="46.49462" lon="-1.78728">
        <ele>7.3</ele>
        <time>2021-09-25T12:13:22Z</time>
      </trkpt>
      <trkpt lat="46.49462" lon="-1.78729">
        <ele>7.3</ele>
        <time>2021-09-25T12:13:23Z</time>
      </trkpt>
      <trkpt lat="46.49462" lon="-1.7873">
        <ele>7.3</ele>
        <time>2021-09-25T12:13:24Z</time>
      </trkpt>
      <trkpt lat="46.49462" lon="-1.78732">
        <ele>7.3</ele>
        <time>2021-09-25T12:13:25Z</time>
      </trkpt>
      <trkpt lat="46.49462" lon="-1.78733">
        <ele>7.3</ele>
        <time>2021-09-25T12:13:26Z</time>
      </trkpt>
      <trkpt lat="46.49462" lon="-1.78734">
        <ele>7.3</ele>
        <time>2021-09-25T12:13:27Z</time>
      </trkpt>
      <trkpt lat="46.49462" lon="-1.78736">
        <ele>7.3</ele>
        <time>2021-09-25T12:13:28Z</time>
      </trkpt>
      <trkpt lat="46.49462" lon="-1.78738">
        <ele>7.3</ele>
        <time>2021-09-25T12:13:29Z</time>
      </trkpt>
      <trkpt lat="46.49462" lon="-1.78739">
        <ele>7.3</ele>
        <time>2021-09-25T12:13:30Z</time>
      </trkpt>
      <trkpt lat="46.49462" lon="-1.78741">
        <ele>7.3</ele>
        <time>2021-09-25T12:13:31Z</time>
      </trkpt>
      <trkpt lat="46.49462" lon="-1.78743">
        <ele>7.3</ele>
        <time>2021-09-25T12:13:32Z</time>
      </trkpt>
      <trkpt lat="46.49462" lon="-1.78744">
        <ele>7.3</ele>
        <time>2021-09-25T12:13:33Z</time>
      </trkpt>
      <trkpt lat="46.49462" lon="-1.78746">
        <ele>7.3</ele>
        <time>2021-09-25T12:13:34Z</time>
      </trkpt>
      <trkpt lat="46.49462" lon="-1.78747">
        <ele>7.3</ele>
        <time>2021-09-25T12:13:35Z</time>
      </trkpt>
      <trkpt lat="46.49463" lon="-1.78748">
        <ele>7.3</ele>
        <time>2021-09-25T12:13:36Z</time>
      </trkpt>
      <trkpt lat="46.49463" lon="-1.78749">
        <ele>7.3</ele>
        <time>2021-09-25T12:13:37Z</time>
      </trkpt>
      <trkpt lat="46.49463" lon="-1.7875">
        <ele>7.3</ele>
        <time>2021-09-25T12:13:38Z</time>
      </trkpt>
      <trkpt lat="46.49463" lon="-1.78751">
        <ele>7.3</ele>
        <time>2021-09-25T12:13:39Z</time>
      </trkpt>
      <trkpt lat="46.49463" lon="-1.78751">
        <ele>7.3</ele>
        <time>2021-09-25T12:13:40Z</time>
      </trkpt>
      <trkpt lat="46.49463" lon="-1.78752">
        <ele>7.3</ele>
        <time>2021-09-25T12:13:41Z</time>
      </trkpt>
      <trkpt lat="46.49463" lon="-1.78752">
        <ele>7.3</ele>
        <time>2021-09-25T12:13:42Z</time>
      </trkpt>
      <trkpt lat="46.49462" lon="-1.78752">
        <ele>7.3</ele>
        <time>2021-09-25T12:13:43Z</time>
      </trkpt>
      <trkpt lat="46.49462" lon="-1.78753">
        <ele>7.3</ele>
        <time>2021-09-25T12:13:44Z</time>
      </trkpt>
      <trkpt lat="46.49462" lon="-1.78753">
        <ele>7.3</ele>
        <time>2021-09-25T12:13:45Z</time>
      </trkpt>
      <trkpt lat="46.49462" lon="-1.78753">
        <ele>7.3</ele>
        <time>2021-09-25T12:13:46Z</time>
      </trkpt>
      <trkpt lat="46.49462" lon="-1.78753">
        <ele>7.3</ele>
        <time>2021-09-25T12:13:47Z</time>
      </trkpt>
      <trkpt lat="46.49462" lon="-1.78753">
        <ele>7.3</ele>
        <time>2021-09-25T12:13:48Z</time>
      </trkpt>
      <trkpt lat="46.49462" lon="-1.78753">
        <ele>7.3</ele>
        <time>2021-09-25T12:13:49Z</time>
      </trkpt>
      <trkpt lat="46.49462" lon="-1.78753">
        <ele>7.3</ele>
        <time>2021-09-25T12:13:50Z</time>
      </trkpt>
      <trkpt lat="46.49462" lon="-1.78753">
        <ele>7.3</ele>
        <time>2021-09-25T12:13:51Z</time>
      </trkpt>
      <trkpt lat="46.49462" lon="-1.78753">
        <ele>7.3</ele>
        <time>2021-09-25T12:13:52Z</time>
      </trkpt>
      <trkpt lat="46.49462" lon="-1.78753">
        <ele>7.3</ele>
        <time>2021-09-25T12:13:53Z</time>
      </trkpt>
      <trkpt lat="46.49462" lon="-1.78753">
        <ele>7.3</ele>
        <time>2021-09-25T12:13:54Z</time>
      </trkpt>
      <trkpt lat="46.49462" lon="-1.78753">
        <ele>7.3</ele>
        <time>2021-09-25T12:13:55Z</time>
      </trkpt>
      <trkpt lat="46.49462" lon="-1.78753">
        <ele>7.3</ele>
        <time>2021-09-25T12:13:56Z</time>
      </trkpt>
      <trkpt lat="46.49462" lon="-1.78753">
        <ele>7.3</ele>
        <time>2021-09-25T12:13:57Z</time>
      </trkpt>
      <trkpt lat="46.49462" lon="-1.78753">
        <ele>7.3</ele>
        <time>2021-09-25T12:13:58Z</time>
      </trkpt>
      <trkpt lat="46.49462" lon="-1.78753">
        <ele>7.3</ele>
        <time>2021-09-25T12:13:59Z</time>
      </trkpt>
      <trkpt lat="46.49462" lon="-1.78753">
        <ele>7.3</ele>
        <time>2021-09-25T12:14:00Z</time>
      </trkpt>
      <trkpt lat="46.49462" lon="-1.78754">
        <ele>7.3</ele>
        <time>2021-09-25T12:14:01Z</time>
      </trkpt>
      <trkpt lat="46.49462" lon="-1.78754">
        <ele>7.3</ele>
        <time>2021-09-25T12:14:02Z</time>
      </trkpt>
      <trkpt lat="46.49462" lon="-1.78755">
        <ele>7.3</ele>
        <time>2021-09-25T12:14:03Z</time>
      </trkpt>
      <trkpt lat="46.49462" lon="-1.78755">
        <ele>7.3</ele>
        <time>2021-09-25T12:14:04Z</time>
      </trkpt>
      <trkpt lat="46.49462" lon="-1.78756">
        <ele>7.4</ele>
        <time>2021-09-25T12:14:05Z</time>
      </trkpt>
      <trkpt lat="46.49462" lon="-1.78758">
        <ele>7.4</ele>
        <time>2021-09-25T12:14:06Z</time>
      </trkpt>
      <trkpt lat="46.49462" lon="-1.78759">
        <ele>7.4</ele>
        <time>2021-09-25T12:14:07Z</time>
      </trkpt>
      <trkpt lat="46.49462" lon="-1.78761">
        <ele>7.4</ele>
        <time>2021-09-25T12:14:08Z</time>
      </trkpt>
      <trkpt lat="46.49462" lon="-1.78763">
        <ele>7.4</ele>
        <time>2021-09-25T12:14:09Z</time>
      </trkpt>
      <trkpt lat="46.49461" lon="-1.78765">
        <ele>7.4</ele>
        <time>2021-09-25T12:14:10Z</time>
      </trkpt>
      <trkpt lat="46.49461" lon="-1.78767">
        <ele>7.4</ele>
        <time>2021-09-25T12:14:11Z</time>
      </trkpt>
      <trkpt lat="46.49461" lon="-1.78769">
        <ele>7.4</ele>
        <time>2021-09-25T12:14:12Z</time>
      </trkpt>
      <trkpt lat="46.49461" lon="-1.78771">
        <ele>7.4</ele>
        <time>2021-09-25T12:14:13Z</time>
      </trkpt>
      <trkpt lat="46.49461" lon="-1.78772">
        <ele>7.4</ele>
        <time>2021-09-25T12:14:14Z</time>
      </trkpt>
      <trkpt lat="46.49461" lon="-1.78774">
        <ele>7.4</ele>
        <time>2021-09-25T12:14:15Z</time>
      </trkpt>
      <trkpt lat="46.49461" lon="-1.78776">
        <ele>7.4</ele>
        <time>2021-09-25T12:14:16Z</time>
      </trkpt>
      <trkpt lat="46.49461" lon="-1.78777">
        <ele>7.4</ele>
        <time>2021-09-25T12:14:17Z</time>
      </trkpt>
      <trkpt lat="46.49461" lon="-1.78779">
        <ele>7.4</ele>
        <time>2021-09-25T12:14:18Z</time>
      </trkpt>
      <trkpt lat="46.49461" lon="-1.7878">
        <ele>7.4</ele>
        <time>2021-09-25T12:14:19Z</time>
      </trkpt>
      <trkpt lat="46.49461" lon="-1.78781">
        <ele>7.4</ele>
        <time>2021-09-25T12:14:20Z</time>
      </trkpt>
      <trkpt lat="46.49461" lon="-1.78783">
        <ele>7.4</ele>
        <time>2021-09-25T12:14:21Z</time>
      </trkpt>
      <trkpt lat="46.49461" lon="-1.78784">
        <ele>7.4</ele>
        <time>2021-09-25T12:14:22Z</time>
      </trkpt>
      <trkpt lat="46.49461" lon="-1.78786">
        <ele>7.4</ele>
        <time>2021-09-25T12:14:23Z</time>
      </trkpt>
      <trkpt lat="46.49461" lon="-1.78787">
        <ele>7.4</ele>
        <time>2021-09-25T12:14:24Z</time>
      </trkpt>
      <trkpt lat="46.49461" lon="-1.78789">
        <ele>7.4</ele>
        <time>2021-09-25T12:14:25Z</time>
      </trkpt>
      <trkpt lat="46.49461" lon="-1.7879">
        <ele>7.4</ele>
        <time>2021-09-25T12:14:26Z</time>
      </trkpt>
      <trkpt lat="46.49461" lon="-1.78792">
        <ele>7.4</ele>
        <time>2021-09-25T12:14:27Z</time>
      </trkpt>
      <trkpt lat="46.49461" lon="-1.78793">
        <ele>7.4</ele>
        <time>2021-09-25T12:14:28Z</time>
      </trkpt>
      <trkpt lat="46.49461" lon="-1.78795">
        <ele>7.4</ele>
        <time>2021-09-25T12:14:29Z</time>
      </trkpt>
      <trkpt lat="46.49461" lon="-1.78796">
        <ele>7.4</ele>
        <time>2021-09-25T12:14:30Z</time>
      </trkpt>
      <trkpt lat="46.49461" lon="-1.78798">
        <ele>7.4</ele>
        <time>2021-09-25T12:14:31Z</time>
      </trkpt>
      <trkpt lat="46.49461" lon="-1.788">
        <ele>7.4</ele>
        <time>2021-09-25T12:14:32Z</time>
      </trkpt>
      <trkpt lat="46.49461" lon="-1.78801">
        <ele>7.5</ele>
        <time>2021-09-25T12:14:33Z</time>
      </trkpt>
      <trkpt lat="46.49461" lon="-1.78803">
        <ele>7.5</ele>
        <time>2021-09-25T12:14:34Z</time>
      </trkpt>
      <trkpt lat="46.49461" lon="-1.78804">
        <ele>7.5</ele>
        <time>2021-09-25T12:14:35Z</time>
      </trkpt>
      <trkpt lat="46.49461" lon="-1.78806">
        <ele>7.5</ele>
        <time>2021-09-25T12:14:36Z</time>
      </trkpt>
      <trkpt lat="46.49461" lon="-1.78808">
        <ele>7.5</ele>
        <time>2021-09-25T12:14:37Z</time>
      </trkpt>
      <trkpt lat="46.49461" lon="-1.78809">
        <ele>7.5</ele>
        <time>2021-09-25T12:14:38Z</time>
      </trkpt>
      <trkpt lat="46.49461" lon="-1.78811">
        <ele>7.5</ele>
        <time>2021-09-25T12:14:39Z</time>
      </trkpt>
      <trkpt lat="46.49461" lon="-1.78812">
        <ele>7.5</ele>
        <time>2021-09-25T12:14:40Z</time>
      </trkpt>
      <trkpt lat="46.49461" lon="-1.78814">
        <ele>7.5</ele>
        <time>2021-09-25T12:14:41Z</time>
      </trkpt>
      <trkpt lat="46.49461" lon="-1.78815">
        <ele>7.5</ele>
        <time>2021-09-25T12:14:42Z</time>
      </trkpt>
      <trkpt lat="46.49461" lon="-1.78817">
        <ele>7.5</ele>
        <time>2021-09-25T12:14:43Z</time>
      </trkpt>
      <trkpt lat="46.49461" lon="-1.78818">
        <ele>7.5</ele>
        <time>2021-09-25T12:14:44Z</time>
      </trkpt>
      <trkpt lat="46.49461" lon="-1.7882">
        <ele>7.5</ele>
        <time>2021-09-25T12:14:45Z</time>
      </trkpt>
      <trkpt lat="46.49461" lon="-1.78821">
        <ele>7.5</ele>
        <time>2021-09-25T12:14:46Z</time>
      </trkpt>
      <trkpt lat="46.49461" lon="-1.78823">
        <ele>7.5</ele>
        <time>2021-09-25T12:14:47Z</time>
      </trkpt>
      <trkpt lat="46.49462" lon="-1.78824">
        <ele>7.6</ele>
        <time>2021-09-25T12:14:48Z</time>
      </trkpt>
      <trkpt lat="46.49462" lon="-1.78826">
        <ele>7.6</ele>
        <time>2021-09-25T12:14:49Z</time>
      </trkpt>
      <trkpt lat="46.49462" lon="-1.78828">
        <ele>7.6</ele>
        <time>2021-09-25T12:14:50Z</time>
      </trkpt>
      <trkpt lat="46.49462" lon="-1.78829">
        <ele>7.6</ele>
        <time>2021-09-25T12:14:51Z</time>
      </trkpt>
      <trkpt lat="46.49463" lon="-1.78831">
        <ele>7.6</ele>
        <time>2021-09-25T12:14:52Z</time>
      </trkpt>
      <trkpt lat="46.49463" lon="-1.78832">
        <ele>7.6</ele>
        <time>2021-09-25T12:14:53Z</time>
      </trkpt>
      <trkpt lat="46.49463" lon="-1.78834">
        <ele>7.6</ele>
        <time>2021-09-25T12:14:54Z</time>
      </trkpt>
      <trkpt lat="46.49464" lon="-1.78835">
        <ele>7.6</ele>
        <time>2021-09-25T12:14:55Z</time>
      </trkpt>
      <trkpt lat="46.49464" lon="-1.78837">
        <ele>7.6</ele>
        <time>2021-09-25T12:14:56Z</time>
      </trkpt>
      <trkpt lat="46.49464" lon="-1.78839">
        <ele>7.6</ele>
        <time>2021-09-25T12:14:57Z</time>
      </trkpt>
      <trkpt lat="46.49465" lon="-1.78841">
        <ele>7.6</ele>
        <time>2021-09-25T12:14:58Z</time>
      </trkpt>
      <trkpt lat="46.49465" lon="-1.78842">
        <ele>7.6</ele>
        <time>2021-09-25T12:14:59Z</time>
      </trkpt>
      <trkpt lat="46.49465" lon="-1.78844">
        <ele>7.6</ele>
        <time>2021-09-25T12:15:00Z</time>
      </trkpt>
      <trkpt lat="46.49465" lon="-1.78846">
        <ele>7.6</ele>
        <time>2021-09-25T12:15:01Z</time>
      </trkpt>
      <trkpt lat="46.49465" lon="-1.78848">
        <ele>7.6</ele>
        <time>2021-09-25T12:15:02Z</time>
      </trkpt>
      <trkpt lat="46.49465" lon="-1.78849">
        <ele>7.6</ele>
        <time>2021-09-25T12:15:03Z</time>
      </trkpt>
      <trkpt lat="46.49465" lon="-1.78851">
        <ele>7.6</ele>
        <time>2021-09-25T12:15:04Z</time>
      </trkpt>
      <trkpt lat="46.49465" lon="-1.78853">
        <ele>7.6</ele>
        <time>2021-09-25T12:15:05Z</time>
      </trkpt>
      <trkpt lat="46.49465" lon="-1.78855">
        <ele>7.6</ele>
        <time>2021-09-25T12:15:06Z</time>
      </trkpt>
      <trkpt lat="46.49465" lon="-1.78856">
        <ele>7.6</ele>
        <time>2021-09-25T12:15:07Z</time>
      </trkpt>
      <trkpt lat="46.49465" lon="-1.78858">
        <ele>7.6</ele>
        <time>2021-09-25T12:15:08Z</time>
      </trkpt>
      <trkpt lat="46.49465" lon="-1.78859">
        <ele>7.6</ele>
        <time>2021-09-25T12:15:09Z</time>
      </trkpt>
      <trkpt lat="46.49465" lon="-1.78861">
        <ele>7.6</ele>
        <time>2021-09-25T12:15:10Z</time>
      </trkpt>
      <trkpt lat="46.49465" lon="-1.78862">
        <ele>7.6</ele>
        <time>2021-09-25T12:15:11Z</time>
      </trkpt>
      <trkpt lat="46.49465" lon="-1.78864">
        <ele>7.6</ele>
        <time>2021-09-25T12:15:12Z</time>
      </trkpt>
      <trkpt lat="46.49465" lon="-1.78865">
        <ele>7.6</ele>
        <time>2021-09-25T12:15:13Z</time>
      </trkpt>
      <trkpt lat="46.49465" lon="-1.78866">
        <ele>7.6</ele>
        <time>2021-09-25T12:15:14Z</time>
      </trkpt>
      <trkpt lat="46.49464" lon="-1.78868">
        <ele>7.6</ele>
        <time>2021-09-25T12:15:15Z</time>
      </trkpt>
      <trkpt lat="46.49464" lon="-1.78869">
        <ele>7.6</ele>
        <time>2021-09-25T12:15:16Z</time>
      </trkpt>
      <trkpt lat="46.49464" lon="-1.78871">
        <ele>7.6</ele>
        <time>2021-09-25T12:15:17Z</time>
      </trkpt>
      <trkpt lat="46.49464" lon="-1.78873">
        <ele>7.6</ele>
        <time>2021-09-25T12:15:18Z</time>
      </trkpt>
      <trkpt lat="46.49464" lon="-1.78874">
        <ele>7.6</ele>
        <time>2021-09-25T12:15:19Z</time>
      </trkpt>
      <trkpt lat="46.49463" lon="-1.78876">
        <ele>7.6</ele>
        <time>2021-09-25T12:15:20Z</time>
      </trkpt>
      <trkpt lat="46.49463" lon="-1.78877">
        <ele>7.6</ele>
        <time>2021-09-25T12:15:21Z</time>
      </trkpt>
      <trkpt lat="46.49463" lon="-1.78878">
        <ele>7.6</ele>
        <time>2021-09-25T12:15:22Z</time>
      </trkpt>
      <trkpt lat="46.49463" lon="-1.78878">
        <ele>7.6</ele>
        <time>2021-09-25T12:15:23Z</time>
      </trkpt>
      <trkpt lat="46.49463" lon="-1.78879">
        <ele>7.6</ele>
        <time>2021-09-25T12:15:24Z</time>
      </trkpt>
      <trkpt lat="46.49463" lon="-1.78879">
        <ele>7.6</ele>
        <time>2021-09-25T12:15:25Z</time>
      </trkpt>
      <trkpt lat="46.49463" lon="-1.78879">
        <ele>7.6</ele>
        <time>2021-09-25T12:15:26Z</time>
      </trkpt>
      <trkpt lat="46.49463" lon="-1.78879">
        <ele>7.6</ele>
        <time>2021-09-25T12:15:27Z</time>
      </trkpt>
      <trkpt lat="46.49463" lon="-1.78879">
        <ele>7.6</ele>
        <time>2021-09-25T12:15:28Z</time>
      </trkpt>
      <trkpt lat="46.49463" lon="-1.7888">
        <ele>7.6</ele>
        <time>2021-09-25T12:15:29Z</time>
      </trkpt>
      <trkpt lat="46.49463" lon="-1.78881">
        <ele>7.6</ele>
        <time>2021-09-25T12:15:30Z</time>
      </trkpt>
      <trkpt lat="46.49463" lon="-1.78882">
        <ele>7.6</ele>
        <time>2021-09-25T12:15:31Z</time>
      </trkpt>
      <trkpt lat="46.49463" lon="-1.78883">
        <ele>7.6</ele>
        <time>2021-09-25T12:15:32Z</time>
      </trkpt>
      <trkpt lat="46.49463" lon="-1.78885">
        <ele>7.6</ele>
        <time>2021-09-25T12:15:33Z</time>
      </trkpt>
      <trkpt lat="46.49462" lon="-1.78887">
        <ele>7.6</ele>
        <time>2021-09-25T12:15:34Z</time>
      </trkpt>
      <trkpt lat="46.49462" lon="-1.78888">
        <ele>7.6</ele>
        <time>2021-09-25T12:15:35Z</time>
      </trkpt>
      <trkpt lat="46.49462" lon="-1.7889">
        <ele>7.6</ele>
        <time>2021-09-25T12:15:36Z</time>
      </trkpt>
      <trkpt lat="46.49462" lon="-1.78892">
        <ele>7.6</ele>
        <time>2021-09-25T12:15:37Z</time>
      </trkpt>
      <trkpt lat="46.49462" lon="-1.78893">
        <ele>7.6</ele>
        <time>2021-09-25T12:15:38Z</time>
      </trkpt>
      <trkpt lat="46.49461" lon="-1.78895">
        <ele>7.6</ele>
        <time>2021-09-25T12:15:39Z</time>
      </trkpt>
      <trkpt lat="46.49461" lon="-1.78896">
        <ele>7.6</ele>
        <time>2021-09-25T12:15:40Z</time>
      </trkpt>
      <trkpt lat="46.49461" lon="-1.78898">
        <ele>7.6</ele>
        <time>2021-09-25T12:15:41Z</time>
      </trkpt>
      <trkpt lat="46.4946" lon="-1.789">
        <ele>7.6</ele>
        <time>2021-09-25T12:15:42Z</time>
      </trkpt>
      <trkpt lat="46.4946" lon="-1.78901">
        <ele>7.6</ele>
        <time>2021-09-25T12:15:43Z</time>
      </trkpt>
      <trkpt lat="46.4946" lon="-1.78903">
        <ele>7.6</ele>
        <time>2021-09-25T12:15:44Z</time>
      </trkpt>
      <trkpt lat="46.49459" lon="-1.78904">
        <ele>7.6</ele>
        <time>2021-09-25T12:15:45Z</time>
      </trkpt>
      <trkpt lat="46.49459" lon="-1.78906">
        <ele>7.6</ele>
        <time>2021-09-25T12:15:46Z</time>
      </trkpt>
      <trkpt lat="46.49459" lon="-1.78907">
        <ele>7.6</ele>
        <time>2021-09-25T12:15:47Z</time>
      </trkpt>
      <trkpt lat="46.49459" lon="-1.78909">
        <ele>7.6</ele>
        <time>2021-09-25T12:15:48Z</time>
      </trkpt>
      <trkpt lat="46.49459" lon="-1.7891">
        <ele>7.6</ele>
        <time>2021-09-25T12:15:49Z</time>
      </trkpt>
      <trkpt lat="46.49459" lon="-1.78912">
        <ele>7.6</ele>
        <time>2021-09-25T12:15:50Z</time>
      </trkpt>
      <trkpt lat="46.49459" lon="-1.78913">
        <ele>7.6</ele>
        <time>2021-09-25T12:15:51Z</time>
      </trkpt>
      <trkpt lat="46.49458" lon="-1.78914">
        <ele>7.6</ele>
        <time>2021-09-25T12:15:52Z</time>
      </trkpt>
      <trkpt lat="46.49458" lon="-1.78916">
        <ele>7.6</ele>
        <time>2021-09-25T12:15:53Z</time>
      </trkpt>
      <trkpt lat="46.49458" lon="-1.78918">
        <ele>7.6</ele>
        <time>2021-09-25T12:15:54Z</time>
      </trkpt>
      <trkpt lat="46.49459" lon="-1.78919">
        <ele>7.6</ele>
        <time>2021-09-25T12:15:55Z</time>
      </trkpt>
      <trkpt lat="46.49459" lon="-1.78921">
        <ele>7.6</ele>
        <time>2021-09-25T12:15:56Z</time>
      </trkpt>
      <trkpt lat="46.49459" lon="-1.78923">
        <ele>7.6</ele>
        <time>2021-09-25T12:15:57Z</time>
      </trkpt>
      <trkpt lat="46.49459" lon="-1.78925">
        <ele>7.6</ele>
        <time>2021-09-25T12:15:58Z</time>
      </trkpt>
      <trkpt lat="46.49459" lon="-1.78926">
        <ele>7.6</ele>
        <time>2021-09-25T12:15:59Z</time>
      </trkpt>
      <trkpt lat="46.49459" lon="-1.78928">
        <ele>7.6</ele>
        <time>2021-09-25T12:16:00Z</time>
      </trkpt>
      <trkpt lat="46.49459" lon="-1.7893">
        <ele>7.6</ele>
        <time>2021-09-25T12:16:01Z</time>
      </trkpt>
      <trkpt lat="46.49459" lon="-1.78932">
        <ele>7.6</ele>
        <time>2021-09-25T12:16:02Z</time>
      </trkpt>
      <trkpt lat="46.49459" lon="-1.78934">
        <ele>7.6</ele>
        <time>2021-09-25T12:16:03Z</time>
      </trkpt>
      <trkpt lat="46.49459" lon="-1.78936">
        <ele>7.6</ele>
        <time>2021-09-25T12:16:04Z</time>
      </trkpt>
      <trkpt lat="46.49459" lon="-1.78937">
        <ele>7.6</ele>
        <time>2021-09-25T12:16:05Z</time>
      </trkpt>
      <trkpt lat="46.4946" lon="-1.78939">
        <ele>7.6</ele>
        <time>2021-09-25T12:16:06Z</time>
      </trkpt>
      <trkpt lat="46.4946" lon="-1.78941">
        <ele>7.6</ele>
        <time>2021-09-25T12:16:07Z</time>
      </trkpt>
      <trkpt lat="46.4946" lon="-1.78942">
        <ele>7.6</ele>
        <time>2021-09-25T12:16:08Z</time>
      </trkpt>
      <trkpt lat="46.4946" lon="-1.78944">
        <ele>7.6</ele>
        <time>2021-09-25T12:16:09Z</time>
      </trkpt>
      <trkpt lat="46.4946" lon="-1.78945">
        <ele>7.6</ele>
        <time>2021-09-25T12:16:10Z</time>
      </trkpt>
      <trkpt lat="46.4946" lon="-1.78946">
        <ele>7.6</ele>
        <time>2021-09-25T12:16:11Z</time>
      </trkpt>
      <trkpt lat="46.4946" lon="-1.78947">
        <ele>7.6</ele>
        <time>2021-09-25T12:16:12Z</time>
      </trkpt>
      <trkpt lat="46.4946" lon="-1.78948">
        <ele>7.6</ele>
        <time>2021-09-25T12:16:13Z</time>
      </trkpt>
      <trkpt lat="46.4946" lon="-1.78949">
        <ele>7.6</ele>
        <time>2021-09-25T12:16:14Z</time>
      </trkpt>
      <trkpt lat="46.4946" lon="-1.78949">
        <ele>7.6</ele>
        <time>2021-09-25T12:16:15Z</time>
      </trkpt>
      <trkpt lat="46.4946" lon="-1.7895">
        <ele>7.6</ele>
        <time>2021-09-25T12:16:16Z</time>
      </trkpt>
      <trkpt lat="46.4946" lon="-1.7895">
        <ele>7.6</ele>
        <time>2021-09-25T12:16:17Z</time>
      </trkpt>
      <trkpt lat="46.4946" lon="-1.7895">
        <ele>7.6</ele>
        <time>2021-09-25T12:16:18Z</time>
      </trkpt>
      <trkpt lat="46.4946" lon="-1.7895">
        <ele>7.6</ele>
        <time>2021-09-25T12:16:19Z</time>
      </trkpt>
      <trkpt lat="46.4946" lon="-1.7895">
        <ele>7.6</ele>
        <time>2021-09-25T12:16:20Z</time>
      </trkpt>
      <trkpt lat="46.4946" lon="-1.7895">
        <ele>7.6</ele>
        <time>2021-09-25T12:16:21Z</time>
      </trkpt>
      <trkpt lat="46.4946" lon="-1.7895">
        <ele>7.6</ele>
        <time>2021-09-25T12:16:22Z</time>
      </trkpt>
      <trkpt lat="46.4946" lon="-1.7895">
        <ele>7.6</ele>
        <time>2021-09-25T12:16:23Z</time>
      </trkpt>
      <trkpt lat="46.4946" lon="-1.7895">
        <ele>7.6</ele>
        <time>2021-09-25T12:16:24Z</time>
      </trkpt>
      <trkpt lat="46.4946" lon="-1.7895">
        <ele>7.6</ele>
        <time>2021-09-25T12:16:25Z</time>
      </trkpt>
      <trkpt lat="46.4946" lon="-1.7895">
        <ele>7.6</ele>
        <time>2021-09-25T12:16:26Z</time>
      </trkpt>
      <trkpt lat="46.4946" lon="-1.7895">
        <ele>7.6</ele>
        <time>2021-09-25T12:16:27Z</time>
      </trkpt>
      <trkpt lat="46.4946" lon="-1.7895">
        <ele>7.6</ele>
        <time>2021-09-25T12:16:28Z</time>
      </trkpt>
      <trkpt lat="46.4946" lon="-1.7895">
        <ele>7.6</ele>
        <time>2021-09-25T12:16:29Z</time>
      </trkpt>
      <trkpt lat="46.4946" lon="-1.7895">
        <ele>7.6</ele>
        <time>2021-09-25T12:16:30Z</time>
      </trkpt>
      <trkpt lat="46.4946" lon="-1.7895">
        <ele>7.6</ele>
        <time>2021-09-25T12:16:31Z</time>
      </trkpt>
      <trkpt lat="46.4946" lon="-1.7895">
        <ele>7.6</ele>
        <time>2021-09-25T12:16:32Z</time>
      </trkpt>
      <trkpt lat="46.4946" lon="-1.7895">
        <ele>7.6</ele>
        <time>2021-09-25T12:16:33Z</time>
      </trkpt>
      <trkpt lat="46.4946" lon="-1.7895">
        <ele>7.6</ele>
        <time>2021-09-25T12:16:34Z</time>
      </trkpt>
      <trkpt lat="46.4946" lon="-1.7895">
        <ele>7.6</ele>
        <time>2021-09-25T12:16:35Z</time>
      </trkpt>
      <trkpt lat="46.4946" lon="-1.7895">
        <ele>7.6</ele>
        <time>2021-09-25T12:16:36Z</time>
      </trkpt>
      <trkpt lat="46.4946" lon="-1.7895">
        <ele>7.6</ele>
        <time>2021-09-25T12:16:37Z</time>
      </trkpt>
      <trkpt lat="46.4946" lon="-1.7895">
        <ele>7.6</ele>
        <time>2021-09-25T12:16:38Z</time>
      </trkpt>
      <trkpt lat="46.4946" lon="-1.7895">
        <ele>7.6</ele>
        <time>2021-09-25T12:16:39Z</time>
      </trkpt>
      <trkpt lat="46.4946" lon="-1.7895">
        <ele>7.6</ele>
        <time>2021-09-25T12:16:40Z</time>
      </trkpt>
      <trkpt lat="46.4946" lon="-1.7895">
        <ele>7.6</ele>
        <time>2021-09-25T12:16:41Z</time>
      </trkpt>
      <trkpt lat="46.4946" lon="-1.7895">
        <ele>7.6</ele>
        <time>2021-09-25T12:16:42Z</time>
      </trkpt>
      <trkpt lat="46.4946" lon="-1.7895">
        <ele>7.6</ele>
        <time>2021-09-25T12:16:43Z</time>
      </trkpt>
      <trkpt lat="46.4946" lon="-1.7895">
        <ele>7.6</ele>
        <time>2021-09-25T12:16:44Z</time>
      </trkpt>
      <trkpt lat="46.4946" lon="-1.7895">
        <ele>7.6</ele>
        <time>2021-09-25T12:16:45Z</time>
      </trkpt>
      <trkpt lat="46.4946" lon="-1.7895">
        <ele>7.6</ele>
        <time>2021-09-25T12:16:46Z</time>
      </trkpt>
      <trkpt lat="46.4946" lon="-1.7895">
        <ele>7.6</ele>
        <time>2021-09-25T12:16:47Z</time>
      </trkpt>
      <trkpt lat="46.4946" lon="-1.7895">
        <ele>7.6</ele>
        <time>2021-09-25T12:16:48Z</time>
      </trkpt>
      <trkpt lat="46.4946" lon="-1.7895">
        <ele>7.6</ele>
        <time>2021-09-25T12:16:49Z</time>
      </trkpt>
      <trkpt lat="46.4946" lon="-1.7895">
        <ele>7.6</ele>
        <time>2021-09-25T12:16:50Z</time>
      </trkpt>
      <trkpt lat="46.4946" lon="-1.7895">
        <ele>7.6</ele>
        <time>2021-09-25T12:16:51Z</time>
      </trkpt>
      <trkpt lat="46.4946" lon="-1.7895">
        <ele>7.6</ele>
        <time>2021-09-25T12:16:52Z</time>
      </trkpt>
      <trkpt lat="46.4946" lon="-1.78951">
        <ele>7.6</ele>
        <time>2021-09-25T12:16:53Z</time>
      </trkpt>
      <trkpt lat="46.4946" lon="-1.78951">
        <ele>7.6</ele>
        <time>2021-09-25T12:16:54Z</time>
      </trkpt>
      <trkpt lat="46.4946" lon="-1.78951">
        <ele>7.6</ele>
        <time>2021-09-25T12:16:55Z</time>
      </trkpt>
      <trkpt lat="46.4946" lon="-1.78951">
        <ele>7.6</ele>
        <time>2021-09-25T12:16:56Z</time>
      </trkpt>
      <trkpt lat="46.4946" lon="-1.78951">
        <ele>7.6</ele>
        <time>2021-09-25T12:16:57Z</time>
      </trkpt>
      <trkpt lat="46.49461" lon="-1.78952">
        <ele>7.6</ele>
        <time>2021-09-25T12:16:58Z</time>
      </trkpt>
      <trkpt lat="46.49461" lon="-1.78952">
        <ele>7.6</ele>
        <time>2021-09-25T12:16:59Z</time>
      </trkpt>
      <trkpt lat="46.49461" lon="-1.78953">
        <ele>7.6</ele>
        <time>2021-09-25T12:17:00Z</time>
      </trkpt>
      <trkpt lat="46.49461" lon="-1.78954">
        <ele>7.6</ele>
        <time>2021-09-25T12:17:01Z</time>
      </trkpt>
      <trkpt lat="46.49461" lon="-1.78955">
        <ele>7.6</ele>
        <time>2021-09-25T12:17:02Z</time>
      </trkpt>
      <trkpt lat="46.49461" lon="-1.78956">
        <ele>7.6</ele>
        <time>2021-09-25T12:17:03Z</time>
      </trkpt>
      <trkpt lat="46.49461" lon="-1.78958">
        <ele>7.6</ele>
        <time>2021-09-25T12:17:04Z</time>
      </trkpt>
      <trkpt lat="46.49461" lon="-1.78959">
        <ele>7.6</ele>
        <time>2021-09-25T12:17:05Z</time>
      </trkpt>
      <trkpt lat="46.49461" lon="-1.78961">
        <ele>7.6</ele>
        <time>2021-09-25T12:17:06Z</time>
      </trkpt>
      <trkpt lat="46.49461" lon="-1.78962">
        <ele>7.6</ele>
        <time>2021-09-25T12:17:07Z</time>
      </trkpt>
      <trkpt lat="46.49462" lon="-1.78964">
        <ele>7.5</ele>
        <time>2021-09-25T12:17:08Z</time>
      </trkpt>
      <trkpt lat="46.49462" lon="-1.78965">
        <ele>7.5</ele>
        <time>2021-09-25T12:17:09Z</time>
      </trkpt>
      <trkpt lat="46.49462" lon="-1.78967">
        <ele>7.5</ele>
        <time>2021-09-25T12:17:10Z</time>
      </trkpt>
      <trkpt lat="46.49462" lon="-1.78969">
        <ele>7.5</ele>
        <time>2021-09-25T12:17:11Z</time>
      </trkpt>
      <trkpt lat="46.49462" lon="-1.78971">
        <ele>7.5</ele>
        <time>2021-09-25T12:17:12Z</time>
      </trkpt>
      <trkpt lat="46.49462" lon="-1.78972">
        <ele>7.5</ele>
        <time>2021-09-25T12:17:13Z</time>
      </trkpt>
      <trkpt lat="46.49462" lon="-1.78974">
        <ele>7.5</ele>
        <time>2021-09-25T12:17:14Z</time>
      </trkpt>
      <trkpt lat="46.49462" lon="-1.78976">
        <ele>7.5</ele>
        <time>2021-09-25T12:17:15Z</time>
      </trkpt>
      <trkpt lat="46.49462" lon="-1.78977">
        <ele>7.5</ele>
        <time>2021-09-25T12:17:16Z</time>
      </trkpt>
      <trkpt lat="46.49462" lon="-1.78979">
        <ele>7.5</ele>
        <time>2021-09-25T12:17:17Z</time>
      </trkpt>
      <trkpt lat="46.49462" lon="-1.78981">
        <ele>7.5</ele>
        <time>2021-09-25T12:17:18Z</time>
      </trkpt>
      <trkpt lat="46.49461" lon="-1.78982">
        <ele>7.5</ele>
        <time>2021-09-25T12:17:19Z</time>
      </trkpt>
      <trkpt lat="46.49461" lon="-1.78984">
        <ele>7.4</ele>
        <time>2021-09-25T12:17:20Z</time>
      </trkpt>
      <trkpt lat="46.49461" lon="-1.78985">
        <ele>7.4</ele>
        <time>2021-09-25T12:17:21Z</time>
      </trkpt>
      <trkpt lat="46.4946" lon="-1.78987">
        <ele>7.4</ele>
        <time>2021-09-25T12:17:22Z</time>
      </trkpt>
      <trkpt lat="46.4946" lon="-1.78988">
        <ele>7.4</ele>
        <time>2021-09-25T12:17:23Z</time>
      </trkpt>
      <trkpt lat="46.49459" lon="-1.7899">
        <ele>7.4</ele>
        <time>2021-09-25T12:17:24Z</time>
      </trkpt>
      <trkpt lat="46.49459" lon="-1.78991">
        <ele>7.4</ele>
        <time>2021-09-25T12:17:25Z</time>
      </trkpt>
      <trkpt lat="46.49459" lon="-1.78993">
        <ele>7.4</ele>
        <time>2021-09-25T12:17:26Z</time>
      </trkpt>
      <trkpt lat="46.49458" lon="-1.78994">
        <ele>7.4</ele>
        <time>2021-09-25T12:17:27Z</time>
      </trkpt>
      <trkpt lat="46.49458" lon="-1.78996">
        <ele>7.4</ele>
        <time>2021-09-25T12:17:28Z</time>
      </trkpt>
      <trkpt lat="46.49458" lon="-1.78997">
        <ele>7.4</ele>
        <time>2021-09-25T12:17:29Z</time>
      </trkpt>
      <trkpt lat="46.49458" lon="-1.78998">
        <ele>7.4</ele>
        <time>2021-09-25T12:17:30Z</time>
      </trkpt>
      <trkpt lat="46.49458" lon="-1.79">
        <ele>7.4</ele>
        <time>2021-09-25T12:17:31Z</time>
      </trkpt>
      <trkpt lat="46.49458" lon="-1.79001">
        <ele>7.4</ele>
        <time>2021-09-25T12:17:32Z</time>
      </trkpt>
      <trkpt lat="46.49458" lon="-1.79003">
        <ele>7.4</ele>
        <time>2021-09-25T12:17:33Z</time>
      </trkpt>
      <trkpt lat="46.49458" lon="-1.79004">
        <ele>7.4</ele>
        <time>2021-09-25T12:17:34Z</time>
      </trkpt>
      <trkpt lat="46.49458" lon="-1.79006">
        <ele>7.4</ele>
        <time>2021-09-25T12:17:35Z</time>
      </trkpt>
      <trkpt lat="46.49458" lon="-1.79007">
        <ele>7.4</ele>
        <time>2021-09-25T12:17:36Z</time>
      </trkpt>
      <trkpt lat="46.49457" lon="-1.79009">
        <ele>7.4</ele>
        <time>2021-09-25T12:17:37Z</time>
      </trkpt>
      <trkpt lat="46.49457" lon="-1.79011">
        <ele>7.4</ele>
        <time>2021-09-25T12:17:38Z</time>
      </trkpt>
      <trkpt lat="46.49457" lon="-1.79012">
        <ele>7.4</ele>
        <time>2021-09-25T12:17:39Z</time>
      </trkpt>
      <trkpt lat="46.49456" lon="-1.79014">
        <ele>7.4</ele>
        <time>2021-09-25T12:17:40Z</time>
      </trkpt>
      <trkpt lat="46.49456" lon="-1.79015">
        <ele>7.4</ele>
        <time>2021-09-25T12:17:41Z</time>
      </trkpt>
      <trkpt lat="46.49456" lon="-1.79017">
        <ele>7.4</ele>
        <time>2021-09-25T12:17:42Z</time>
      </trkpt>
      <trkpt lat="46.49456" lon="-1.79019">
        <ele>7.4</ele>
        <time>2021-09-25T12:17:43Z</time>
      </trkpt>
      <trkpt lat="46.49456" lon="-1.7902">
        <ele>7.4</ele>
        <time>2021-09-25T12:17:44Z</time>
      </trkpt>
      <trkpt lat="46.49456" lon="-1.79022">
        <ele>7.4</ele>
        <time>2021-09-25T12:17:45Z</time>
      </trkpt>
      <trkpt lat="46.49456" lon="-1.79023">
        <ele>7.4</ele>
        <time>2021-09-25T12:17:46Z</time>
      </trkpt>
      <trkpt lat="46.49456" lon="-1.79025">
        <ele>7.4</ele>
        <time>2021-09-25T12:17:47Z</time>
      </trkpt>
      <trkpt lat="46.49456" lon="-1.79026">
        <ele>7.4</ele>
        <time>2021-09-25T12:17:48Z</time>
      </trkpt>
      <trkpt lat="46.49456" lon="-1.79028">
        <ele>7.4</ele>
        <time>2021-09-25T12:17:49Z</time>
      </trkpt>
      <trkpt lat="46.49456" lon="-1.79029">
        <ele>7.4</ele>
        <time>2021-09-25T12:17:50Z</time>
      </trkpt>
      <trkpt lat="46.49456" lon="-1.79031">
        <ele>7.4</ele>
        <time>2021-09-25T12:17:51Z</time>
      </trkpt>
      <trkpt lat="46.49456" lon="-1.79033">
        <ele>7.4</ele>
        <time>2021-09-25T12:17:52Z</time>
      </trkpt>
      <trkpt lat="46.49456" lon="-1.79035">
        <ele>7.5</ele>
        <time>2021-09-25T12:17:53Z</time>
      </trkpt>
      <trkpt lat="46.49456" lon="-1.79037">
        <ele>7.5</ele>
        <time>2021-09-25T12:17:54Z</time>
      </trkpt>
      <trkpt lat="46.49456" lon="-1.79039">
        <ele>7.5</ele>
        <time>2021-09-25T12:17:55Z</time>
      </trkpt>
      <trkpt lat="46.49456" lon="-1.79041">
        <ele>7.5</ele>
        <time>2021-09-25T12:17:56Z</time>
      </trkpt>
      <trkpt lat="46.49456" lon="-1.79043">
        <ele>7.5</ele>
        <time>2021-09-25T12:17:57Z</time>
      </trkpt>
      <trkpt lat="46.49456" lon="-1.79044">
        <ele>7.5</ele>
        <time>2021-09-25T12:17:58Z</time>
      </trkpt>
      <trkpt lat="46.49455" lon="-1.79045">
        <ele>7.5</ele>
        <time>2021-09-25T12:17:59Z</time>
      </trkpt>
      <trkpt lat="46.49455" lon="-1.79046">
        <ele>7.5</ele>
        <time>2021-09-25T12:18:00Z</time>
      </trkpt>
      <trkpt lat="46.49455" lon="-1.79046">
        <ele>7.5</ele>
        <time>2021-09-25T12:18:01Z</time>
      </trkpt>
      <trkpt lat="46.49455" lon="-1.79047">
        <ele>7.5</ele>
        <time>2021-09-25T12:18:02Z</time>
      </trkpt>
      <trkpt lat="46.49455" lon="-1.79047">
        <ele>7.5</ele>
        <time>2021-09-25T12:18:03Z</time>
      </trkpt>
      <trkpt lat="46.49455" lon="-1.79047">
        <ele>7.5</ele>
        <time>2021-09-25T12:18:04Z</time>
      </trkpt>
      <trkpt lat="46.49455" lon="-1.79048">
        <ele>7.5</ele>
        <time>2021-09-25T12:18:05Z</time>
      </trkpt>
      <trkpt lat="46.49455" lon="-1.79048">
        <ele>7.5</ele>
        <time>2021-09-25T12:18:06Z</time>
      </trkpt>
      <trkpt lat="46.49455" lon="-1.79048">
        <ele>7.5</ele>
        <time>2021-09-25T12:18:07Z</time>
      </trkpt>
      <trkpt lat="46.49455" lon="-1.79048">
        <ele>7.5</ele>
        <time>2021-09-25T12:18:08Z</time>
      </trkpt>
      <trkpt lat="46.49455" lon="-1.79048">
        <ele>7.5</ele>
        <time>2021-09-25T12:18:09Z</time>
      </trkpt>
      <trkpt lat="46.49455" lon="-1.79048">
        <ele>7.5</ele>
        <time>2021-09-25T12:18:10Z</time>
      </trkpt>
      <trkpt lat="46.49455" lon="-1.79048">
        <ele>7.5</ele>
        <time>2021-09-25T12:18:11Z</time>
      </trkpt>
      <trkpt lat="46.49455" lon="-1.79048">
        <ele>7.5</ele>
        <time>2021-09-25T12:18:12Z</time>
      </trkpt>
      <trkpt lat="46.49455" lon="-1.79048">
        <ele>7.5</ele>
        <time>2021-09-25T12:18:13Z</time>
      </trkpt>
      <trkpt lat="46.49455" lon="-1.79048">
        <ele>7.5</ele>
        <time>2021-09-25T12:18:14Z</time>
      </trkpt>
      <trkpt lat="46.49455" lon="-1.79048">
        <ele>7.5</ele>
        <time>2021-09-25T12:18:15Z</time>
      </trkpt>
      <trkpt lat="46.49455" lon="-1.79048">
        <ele>7.5</ele>
        <time>2021-09-25T12:18:16Z</time>
      </trkpt>
      <trkpt lat="46.49455" lon="-1.79048">
        <ele>7.5</ele>
        <time>2021-09-25T12:18:17Z</time>
      </trkpt>
      <trkpt lat="46.49455" lon="-1.79048">
        <ele>7.5</ele>
        <time>2021-09-25T12:18:18Z</time>
      </trkpt>
      <trkpt lat="46.49455" lon="-1.79048">
        <ele>7.5</ele>
        <time>2021-09-25T12:18:19Z</time>
      </trkpt>
      <trkpt lat="46.49455" lon="-1.79048">
        <ele>7.5</ele>
        <time>2021-09-25T12:18:20Z</time>
      </trkpt>
      <trkpt lat="46.49455" lon="-1.79048">
        <ele>7.5</ele>
        <time>2021-09-25T12:18:21Z</time>
      </trkpt>
      <trkpt lat="46.49455" lon="-1.79048">
        <ele>7.5</ele>
        <time>2021-09-25T12:18:22Z</time>
      </trkpt>
      <trkpt lat="46.49455" lon="-1.79048">
        <ele>7.5</ele>
        <time>2021-09-25T12:18:23Z</time>
      </trkpt>
      <trkpt lat="46.49455" lon="-1.79048">
        <ele>7.5</ele>
        <time>2021-09-25T12:18:24Z</time>
      </trkpt>
      <trkpt lat="46.49455" lon="-1.79048">
        <ele>7.5</ele>
        <time>2021-09-25T12:18:25Z</time>
      </trkpt>
      <trkpt lat="46.49455" lon="-1.79048">
        <ele>7.5</ele>
        <time>2021-09-25T12:18:26Z</time>
      </trkpt>
      <trkpt lat="46.49455" lon="-1.79048">
        <ele>7.5</ele>
        <time>2021-09-25T12:18:27Z</time>
      </trkpt>
      <trkpt lat="46.49455" lon="-1.79048">
        <ele>7.5</ele>
        <time>2021-09-25T12:18:28Z</time>
      </trkpt>
      <trkpt lat="46.49455" lon="-1.79048">
        <ele>7.5</ele>
        <time>2021-09-25T12:18:29Z</time>
      </trkpt>
      <trkpt lat="46.49455" lon="-1.79048">
        <ele>7.5</ele>
        <time>2021-09-25T12:18:30Z</time>
      </trkpt>
      <trkpt lat="46.49455" lon="-1.79048">
        <ele>7.5</ele>
        <time>2021-09-25T12:18:31Z</time>
      </trkpt>
      <trkpt lat="46.49456" lon="-1.79048">
        <ele>7.5</ele>
        <time>2021-09-25T12:18:32Z</time>
      </trkpt>
      <trkpt lat="46.49456" lon="-1.79048">
        <ele>7.5</ele>
        <time>2021-09-25T12:18:33Z</time>
      </trkpt>
      <trkpt lat="46.49457" lon="-1.79047">
        <ele>7.5</ele>
        <time>2021-09-25T12:18:34Z</time>
      </trkpt>
      <trkpt lat="46.49457" lon="-1.79047">
        <ele>7.5</ele>
        <time>2021-09-25T12:18:35Z</time>
      </trkpt>
      <trkpt lat="46.49458" lon="-1.79047">
        <ele>7.5</ele>
        <time>2021-09-25T12:18:36Z</time>
      </trkpt>
      <trkpt lat="46.49459" lon="-1.79047">
        <ele>7.5</ele>
        <time>2021-09-25T12:18:37Z</time>
      </trkpt>
      <trkpt lat="46.49459" lon="-1.79047">
        <ele>7.5</ele>
        <time>2021-09-25T12:18:38Z</time>
      </trkpt>
      <trkpt lat="46.4946" lon="-1.79047">
        <ele>7.5</ele>
        <time>2021-09-25T12:18:39Z</time>
      </trkpt>
      <trkpt lat="46.4946" lon="-1.79047">
        <ele>7.5</ele>
        <time>2021-09-25T12:18:40Z</time>
      </trkpt>
      <trkpt lat="46.4946" lon="-1.79047">
        <ele>7.5</ele>
        <time>2021-09-25T12:18:41Z</time>
      </trkpt>
      <trkpt lat="46.4946" lon="-1.79047">
        <ele>7.5</ele>
        <time>2021-09-25T12:18:42Z</time>
      </trkpt>
      <trkpt lat="46.4946" lon="-1.79047">
        <ele>7.5</ele>
        <time>2021-09-25T12:18:43Z</time>
      </trkpt>
      <trkpt lat="46.4946" lon="-1.79047">
        <ele>7.5</ele>
        <time>2021-09-25T12:18:44Z</time>
      </trkpt>
      <trkpt lat="46.4946" lon="-1.79047">
        <ele>7.5</ele>
        <time>2021-09-25T12:18:45Z</time>
      </trkpt>
      <trkpt lat="46.4946" lon="-1.79047">
        <ele>7.5</ele>
        <time>2021-09-25T12:18:46Z</time>
      </trkpt>
      <trkpt lat="46.4946" lon="-1.79047">
        <ele>7.5</ele>
        <time>2021-09-25T12:18:47Z</time>
      </trkpt>
      <trkpt lat="46.4946" lon="-1.79047">
        <ele>7.5</ele>
        <time>2021-09-25T12:18:48Z</time>
      </trkpt>
      <trkpt lat="46.4946" lon="-1.79047">
        <ele>7.5</ele>
        <time>2021-09-25T12:18:49Z</time>
      </trkpt>
      <trkpt lat="46.4946" lon="-1.79047">
        <ele>7.5</ele>
        <time>2021-09-25T12:18:50Z</time>
      </trkpt>
      <trkpt lat="46.4946" lon="-1.79047">
        <ele>7.5</ele>
        <time>2021-09-25T12:18:51Z</time>
      </trkpt>
      <trkpt lat="46.4946" lon="-1.79047">
        <ele>7.5</ele>
        <time>2021-09-25T12:18:52Z</time>
      </trkpt>
      <trkpt lat="46.4946" lon="-1.79047">
        <ele>7.5</ele>
        <time>2021-09-25T12:18:53Z</time>
      </trkpt>
      <trkpt lat="46.4946" lon="-1.79047">
        <ele>7.5</ele>
        <time>2021-09-25T12:18:54Z</time>
      </trkpt>
      <trkpt lat="46.4946" lon="-1.79047">
        <ele>7.5</ele>
        <time>2021-09-25T12:18:55Z</time>
      </trkpt>
      <trkpt lat="46.4946" lon="-1.79047">
        <ele>7.5</ele>
        <time>2021-09-25T12:18:56Z</time>
      </trkpt>
      <trkpt lat="46.4946" lon="-1.79047">
        <ele>7.5</ele>
        <time>2021-09-25T12:18:57Z</time>
      </trkpt>
      <trkpt lat="46.4946" lon="-1.79047">
        <ele>7.5</ele>
        <time>2021-09-25T12:18:58Z</time>
      </trkpt>
      <trkpt lat="46.4946" lon="-1.79047">
        <ele>7.5</ele>
        <time>2021-09-25T12:18:59Z</time>
      </trkpt>
      <trkpt lat="46.4946" lon="-1.79047">
        <ele>7.5</ele>
        <time>2021-09-25T12:19:00Z</time>
      </trkpt>
      <trkpt lat="46.4946" lon="-1.79047">
        <ele>7.5</ele>
        <time>2021-09-25T12:19:01Z</time>
      </trkpt>
      <trkpt lat="46.4946" lon="-1.79047">
        <ele>7.5</ele>
        <time>2021-09-25T12:19:02Z</time>
      </trkpt>
      <trkpt lat="46.4946" lon="-1.79047">
        <ele>7.5</ele>
        <time>2021-09-25T12:19:03Z</time>
      </trkpt>
      <trkpt lat="46.4946" lon="-1.79047">
        <ele>7.5</ele>
        <time>2021-09-25T12:19:04Z</time>
      </trkpt>
      <trkpt lat="46.4946" lon="-1.79047">
        <ele>7.5</ele>
        <time>2021-09-25T12:19:05Z</time>
      </trkpt>
      <trkpt lat="46.4946" lon="-1.79047">
        <ele>7.5</ele>
        <time>2021-09-25T12:19:06Z</time>
      </trkpt>
      <trkpt lat="46.4946" lon="-1.79047">
        <ele>7.5</ele>
        <time>2021-09-25T12:19:07Z</time>
      </trkpt>
      <trkpt lat="46.4946" lon="-1.79047">
        <ele>7.5</ele>
        <time>2021-09-25T12:19:08Z</time>
      </trkpt>
      <trkpt lat="46.4946" lon="-1.79047">
        <ele>7.5</ele>
        <time>2021-09-25T12:19:09Z</time>
      </trkpt>
      <trkpt lat="46.4946" lon="-1.79047">
        <ele>7.5</ele>
        <time>2021-09-25T12:19:10Z</time>
      </trkpt>
      <trkpt lat="46.4946" lon="-1.79047">
        <ele>7.5</ele>
        <time>2021-09-25T12:19:11Z</time>
      </trkpt>
      <trkpt lat="46.4946" lon="-1.79047">
        <ele>7.5</ele>
        <time>2021-09-25T12:19:12Z</time>
      </trkpt>
      <trkpt lat="46.4946" lon="-1.79047">
        <ele>7.5</ele>
        <time>2021-09-25T12:19:13Z</time>
      </trkpt>
      <trkpt lat="46.4946" lon="-1.79047">
        <ele>7.5</ele>
        <time>2021-09-25T12:19:14Z</time>
      </trkpt>
      <trkpt lat="46.4946" lon="-1.79047">
        <ele>7.5</ele>
        <time>2021-09-25T12:19:15Z</time>
      </trkpt>
      <trkpt lat="46.4946" lon="-1.79047">
        <ele>7.5</ele>
        <time>2021-09-25T12:19:16Z</time>
      </trkpt>
      <trkpt lat="46.4946" lon="-1.79047">
        <ele>7.5</ele>
        <time>2021-09-25T12:19:17Z</time>
      </trkpt>
      <trkpt lat="46.4946" lon="-1.79047">
        <ele>7.5</ele>
        <time>2021-09-25T12:19:18Z</time>
      </trkpt>
      <trkpt lat="46.4946" lon="-1.79047">
        <ele>7.5</ele>
        <time>2021-09-25T12:19:19Z</time>
      </trkpt>
      <trkpt lat="46.4946" lon="-1.79047">
        <ele>7.5</ele>
        <time>2021-09-25T12:19:20Z</time>
      </trkpt>
      <trkpt lat="46.4946" lon="-1.79047">
        <ele>7.5</ele>
        <time>2021-09-25T12:19:21Z</time>
      </trkpt>
      <trkpt lat="46.4946" lon="-1.79047">
        <ele>7.5</ele>
        <time>2021-09-25T12:19:22Z</time>
      </trkpt>
      <trkpt lat="46.4946" lon="-1.79047">
        <ele>7.5</ele>
        <time>2021-09-25T12:19:23Z</time>
      </trkpt>
      <trkpt lat="46.4946" lon="-1.79047">
        <ele>7.5</ele>
        <time>2021-09-25T12:19:24Z</time>
      </trkpt>
      <trkpt lat="46.4946" lon="-1.79047">
        <ele>7.5</ele>
        <time>2021-09-25T12:19:25Z</time>
      </trkpt>
      <trkpt lat="46.4946" lon="-1.79047">
        <ele>7.5</ele>
        <time>2021-09-25T12:19:26Z</time>
      </trkpt>
      <trkpt lat="46.4946" lon="-1.79047">
        <ele>7.5</ele>
        <time>2021-09-25T12:19:27Z</time>
      </trkpt>
      <trkpt lat="46.4946" lon="-1.79047">
        <ele>7.5</ele>
        <time>2021-09-25T12:19:28Z</time>
      </trkpt>
      <trkpt lat="46.4946" lon="-1.79047">
        <ele>7.5</ele>
        <time>2021-09-25T12:19:29Z</time>
      </trkpt>
      <trkpt lat="46.4946" lon="-1.79047">
        <ele>7.5</ele>
        <time>2021-09-25T12:19:30Z</time>
      </trkpt>
      <trkpt lat="46.4946" lon="-1.79047">
        <ele>7.5</ele>
        <time>2021-09-25T12:19:31Z</time>
      </trkpt>
      <trkpt lat="46.4946" lon="-1.79047">
        <ele>7.5</ele>
        <time>2021-09-25T12:19:32Z</time>
      </trkpt>
      <trkpt lat="46.4946" lon="-1.79047">
        <ele>7.5</ele>
        <time>2021-09-25T12:19:33Z</time>
      </trkpt>
      <trkpt lat="46.4946" lon="-1.79047">
        <ele>7.5</ele>
        <time>2021-09-25T12:19:34Z</time>
      </trkpt>
      <trkpt lat="46.4946" lon="-1.79047">
        <ele>7.5</ele>
        <time>2021-09-25T12:19:35Z</time>
      </trkpt>
      <trkpt lat="46.4946" lon="-1.79047">
        <ele>7.5</ele>
        <time>2021-09-25T12:19:36Z</time>
      </trkpt>
      <trkpt lat="46.4946" lon="-1.79047">
        <ele>7.5</ele>
        <time>2021-09-25T12:19:37Z</time>
      </trkpt>
      <trkpt lat="46.4946" lon="-1.79047">
        <ele>7.5</ele>
        <time>2021-09-25T12:19:38Z</time>
      </trkpt>
      <trkpt lat="46.4946" lon="-1.79047">
        <ele>7.5</ele>
        <time>2021-09-25T12:19:39Z</time>
      </trkpt>
      <trkpt lat="46.4946" lon="-1.79047">
        <ele>7.5</ele>
        <time>2021-09-25T12:19:40Z</time>
      </trkpt>
      <trkpt lat="46.4946" lon="-1.79047">
        <ele>7.5</ele>
        <time>2021-09-25T12:19:41Z</time>
      </trkpt>
      <trkpt lat="46.4946" lon="-1.79047">
        <ele>7.5</ele>
        <time>2021-09-25T12:19:42Z</time>
      </trkpt>
      <trkpt lat="46.4946" lon="-1.79047">
        <ele>7.5</ele>
        <time>2021-09-25T12:19:43Z</time>
      </trkpt>
      <trkpt lat="46.4946" lon="-1.79047">
        <ele>7.5</ele>
        <time>2021-09-25T12:19:44Z</time>
      </trkpt>
      <trkpt lat="46.4946" lon="-1.79047">
        <ele>7.5</ele>
        <time>2021-09-25T12:19:45Z</time>
      </trkpt>
      <trkpt lat="46.4946" lon="-1.79047">
        <ele>7.5</ele>
        <time>2021-09-25T12:19:46Z</time>
      </trkpt>
      <trkpt lat="46.4946" lon="-1.79047">
        <ele>7.5</ele>
        <time>2021-09-25T12:19:47Z</time>
      </trkpt>
      <trkpt lat="46.4946" lon="-1.79047">
        <ele>7.5</ele>
        <time>2021-09-25T12:19:48Z</time>
      </trkpt>
      <trkpt lat="46.4946" lon="-1.79047">
        <ele>7.5</ele>
        <time>2021-09-25T12:19:49Z</time>
      </trkpt>
      <trkpt lat="46.4946" lon="-1.79047">
        <ele>7.5</ele>
        <time>2021-09-25T12:19:50Z</time>
      </trkpt>
      <trkpt lat="46.4946" lon="-1.79047">
        <ele>7.5</ele>
        <time>2021-09-25T12:19:51Z</time>
      </trkpt>
      <trkpt lat="46.4946" lon="-1.79047">
        <ele>7.5</ele>
        <time>2021-09-25T12:19:52Z</time>
      </trkpt>
      <trkpt lat="46.4946" lon="-1.79047">
        <ele>7.5</ele>
        <time>2021-09-25T12:19:53Z</time>
      </trkpt>
      <trkpt lat="46.4946" lon="-1.79047">
        <ele>7.5</ele>
        <time>2021-09-25T12:19:54Z</time>
      </trkpt>
      <trkpt lat="46.4946" lon="-1.79047">
        <ele>7.5</ele>
        <time>2021-09-25T12:19:55Z</time>
      </trkpt>
      <trkpt lat="46.4946" lon="-1.79047">
        <ele>7.5</ele>
        <time>2021-09-25T12:19:56Z</time>
      </trkpt>
      <trkpt lat="46.4946" lon="-1.79047">
        <ele>7.5</ele>
        <time>2021-09-25T12:19:57Z</time>
      </trkpt>
      <trkpt lat="46.4946" lon="-1.79047">
        <ele>7.5</ele>
        <time>2021-09-25T12:19:58Z</time>
      </trkpt>
      <trkpt lat="46.4946" lon="-1.79047">
        <ele>7.5</ele>
        <time>2021-09-25T12:19:59Z</time>
      </trkpt>
      <trkpt lat="46.4946" lon="-1.79047">
        <ele>7.5</ele>
        <time>2021-09-25T12:20:00Z</time>
      </trkpt>
      <trkpt lat="46.4946" lon="-1.79047">
        <ele>7.5</ele>
        <time>2021-09-25T12:20:01Z</time>
      </trkpt>
      <trkpt lat="46.4946" lon="-1.79047">
        <ele>7.5</ele>
        <time>2021-09-25T12:20:02Z</time>
      </trkpt>
      <trkpt lat="46.4946" lon="-1.79047">
        <ele>7.5</ele>
        <time>2021-09-25T12:20:03Z</time>
      </trkpt>
      <trkpt lat="46.4946" lon="-1.79047">
        <ele>7.5</ele>
        <time>2021-09-25T12:20:04Z</time>
      </trkpt>
      <trkpt lat="46.4946" lon="-1.79047">
        <ele>7.5</ele>
        <time>2021-09-25T12:20:05Z</time>
      </trkpt>
      <trkpt lat="46.4946" lon="-1.79047">
        <ele>7.5</ele>
        <time>2021-09-25T12:20:06Z</time>
      </trkpt>
      <trkpt lat="46.4946" lon="-1.79047">
        <ele>7.5</ele>
        <time>2021-09-25T12:20:07Z</time>
      </trkpt>
      <trkpt lat="46.4946" lon="-1.79047">
        <ele>7.5</ele>
        <time>2021-09-25T12:20:08Z</time>
      </trkpt>
      <trkpt lat="46.4946" lon="-1.79047">
        <ele>7.5</ele>
        <time>2021-09-25T12:20:09Z</time>
      </trkpt>
      <trkpt lat="46.4946" lon="-1.79047">
        <ele>7.5</ele>
        <time>2021-09-25T12:20:10Z</time>
      </trkpt>
      <trkpt lat="46.4946" lon="-1.79047">
        <ele>7.5</ele>
        <time>2021-09-25T12:20:11Z</time>
      </trkpt>
      <trkpt lat="46.4946" lon="-1.79047">
        <ele>7.5</ele>
        <time>2021-09-25T12:20:12Z</time>
      </trkpt>
      <trkpt lat="46.4946" lon="-1.79047">
        <ele>7.5</ele>
        <time>2021-09-25T12:20:13Z</time>
      </trkpt>
      <trkpt lat="46.4946" lon="-1.79047">
        <ele>7.5</ele>
        <time>2021-09-25T12:20:14Z</time>
      </trkpt>
      <trkpt lat="46.4946" lon="-1.79047">
        <ele>7.5</ele>
        <time>2021-09-25T12:20:15Z</time>
      </trkpt>
      <trkpt lat="46.4946" lon="-1.79047">
        <ele>7.5</ele>
        <time>2021-09-25T12:20:16Z</time>
      </trkpt>
      <trkpt lat="46.4946" lon="-1.79047">
        <ele>7.5</ele>
        <time>2021-09-25T12:20:17Z</time>
      </trkpt>
      <trkpt lat="46.4946" lon="-1.79047">
        <ele>7.5</ele>
        <time>2021-09-25T12:20:18Z</time>
      </trkpt>
      <trkpt lat="46.4946" lon="-1.79047">
        <ele>7.5</ele>
        <time>2021-09-25T12:20:19Z</time>
      </trkpt>
      <trkpt lat="46.4946" lon="-1.79047">
        <ele>7.5</ele>
        <time>2021-09-25T12:20:20Z</time>
      </trkpt>
      <trkpt lat="46.4946" lon="-1.79047">
        <ele>7.5</ele>
        <time>2021-09-25T12:20:21Z</time>
      </trkpt>
      <trkpt lat="46.4946" lon="-1.79047">
        <ele>7.5</ele>
        <time>2021-09-25T12:20:22Z</time>
      </trkpt>
      <trkpt lat="46.4946" lon="-1.79047">
        <ele>7.5</ele>
        <time>2021-09-25T12:20:23Z</time>
      </trkpt>
      <trkpt lat="46.4946" lon="-1.79047">
        <ele>7.5</ele>
        <time>2021-09-25T12:20:24Z</time>
      </trkpt>
      <trkpt lat="46.4946" lon="-1.79047">
        <ele>7.5</ele>
        <time>2021-09-25T12:20:25Z</time>
      </trkpt>
      <trkpt lat="46.4946" lon="-1.79047">
        <ele>7.5</ele>
        <time>2021-09-25T12:20:26Z</time>
      </trkpt>
      <trkpt lat="46.4946" lon="-1.79047">
        <ele>7.5</ele>
        <time>2021-09-25T12:20:27Z</time>
      </trkpt>
      <trkpt lat="46.4946" lon="-1.79047">
        <ele>7.5</ele>
        <time>2021-09-25T12:20:28Z</time>
      </trkpt>
      <trkpt lat="46.4946" lon="-1.79047">
        <ele>7.5</ele>
        <time>2021-09-25T12:20:29Z</time>
      </trkpt>
      <trkpt lat="46.4946" lon="-1.79047">
        <ele>7.5</ele>
        <time>2021-09-25T12:20:30Z</time>
      </trkpt>
      <trkpt lat="46.4946" lon="-1.79047">
        <ele>7.5</ele>
        <time>2021-09-25T12:20:31Z</time>
      </trkpt>
      <trkpt lat="46.4946" lon="-1.79047">
        <ele>7.5</ele>
        <time>2021-09-25T12:20:32Z</time>
      </trkpt>
      <trkpt lat="46.4946" lon="-1.79047">
        <ele>7.5</ele>
        <time>2021-09-25T12:20:33Z</time>
      </trkpt>
      <trkpt lat="46.4946" lon="-1.79047">
        <ele>7.5</ele>
        <time>2021-09-25T12:20:34Z</time>
      </trkpt>
      <trkpt lat="46.4946" lon="-1.79047">
        <ele>7.5</ele>
        <time>2021-09-25T12:20:35Z</time>
      </trkpt>
      <trkpt lat="46.4946" lon="-1.79047">
        <ele>7.5</ele>
        <time>2021-09-25T12:20:36Z</time>
      </trkpt>
      <trkpt lat="46.4946" lon="-1.79047">
        <ele>7.5</ele>
        <time>2021-09-25T12:20:37Z</time>
      </trkpt>
      <trkpt lat="46.4946" lon="-1.79047">
        <ele>7.5</ele>
        <time>2021-09-25T12:20:38Z</time>
      </trkpt>
      <trkpt lat="46.4946" lon="-1.79047">
        <ele>7.5</ele>
        <time>2021-09-25T12:20:39Z</time>
      </trkpt>
      <trkpt lat="46.4946" lon="-1.79047">
        <ele>7.5</ele>
        <time>2021-09-25T12:20:40Z</time>
      </trkpt>
      <trkpt lat="46.4946" lon="-1.79047">
        <ele>7.5</ele>
        <time>2021-09-25T12:20:41Z</time>
      </trkpt>
      <trkpt lat="46.4946" lon="-1.79047">
        <ele>7.5</ele>
        <time>2021-09-25T12:20:42Z</time>
      </trkpt>
      <trkpt lat="46.4946" lon="-1.79047">
        <ele>7.5</ele>
        <time>2021-09-25T12:20:43Z</time>
      </trkpt>
      <trkpt lat="46.4946" lon="-1.79047">
        <ele>7.5</ele>
        <time>2021-09-25T12:20:44Z</time>
      </trkpt>
      <trkpt lat="46.4946" lon="-1.79047">
        <ele>7.5</ele>
        <time>2021-09-25T12:20:45Z</time>
      </trkpt>
      <trkpt lat="46.4946" lon="-1.79047">
        <ele>7.5</ele>
        <time>2021-09-25T12:20:46Z</time>
      </trkpt>
      <trkpt lat="46.4946" lon="-1.79047">
        <ele>7.5</ele>
        <time>2021-09-25T12:20:47Z</time>
      </trkpt>
      <trkpt lat="46.4946" lon="-1.79047">
        <ele>7.5</ele>
        <time>2021-09-25T12:20:48Z</time>
      </trkpt>
      <trkpt lat="46.4946" lon="-1.79047">
        <ele>7.5</ele>
        <time>2021-09-25T12:20:49Z</time>
      </trkpt>
      <trkpt lat="46.4946" lon="-1.79047">
        <ele>7.5</ele>
        <time>2021-09-25T12:20:50Z</time>
      </trkpt>
      <trkpt lat="46.4946" lon="-1.79047">
        <ele>7.5</ele>
        <time>2021-09-25T12:20:51Z</time>
      </trkpt>
      <trkpt lat="46.4946" lon="-1.79047">
        <ele>7.5</ele>
        <time>2021-09-25T12:20:52Z</time>
      </trkpt>
      <trkpt lat="46.4946" lon="-1.79047">
        <ele>7.5</ele>
        <time>2021-09-25T12:20:53Z</time>
      </trkpt>
      <trkpt lat="46.4946" lon="-1.79047">
        <ele>7.5</ele>
        <time>2021-09-25T12:20:54Z</time>
      </trkpt>
      <trkpt lat="46.4946" lon="-1.79047">
        <ele>7.5</ele>
        <time>2021-09-25T12:20:55Z</time>
      </trkpt>
      <trkpt lat="46.4946" lon="-1.79047">
        <ele>7.5</ele>
        <time>2021-09-25T12:20:56Z</time>
      </trkpt>
      <trkpt lat="46.4946" lon="-1.79047">
        <ele>7.5</ele>
        <time>2021-09-25T12:20:57Z</time>
      </trkpt>
      <trkpt lat="46.4946" lon="-1.79047">
        <ele>7.5</ele>
        <time>2021-09-25T12:20:58Z</time>
      </trkpt>
      <trkpt lat="46.4946" lon="-1.79047">
        <ele>7.5</ele>
        <time>2021-09-25T12:20:59Z</time>
      </trkpt>
      <trkpt lat="46.4946" lon="-1.79047">
        <ele>7.5</ele>
        <time>2021-09-25T12:21:00Z</time>
      </trkpt>
      <trkpt lat="46.4946" lon="-1.79047">
        <ele>7.5</ele>
        <time>2021-09-25T12:21:01Z</time>
      </trkpt>
      <trkpt lat="46.4946" lon="-1.79047">
        <ele>7.5</ele>
        <time>2021-09-25T12:21:02Z</time>
      </trkpt>
      <trkpt lat="46.4946" lon="-1.79047">
        <ele>7.5</ele>
        <time>2021-09-25T12:21:03Z</time>
      </trkpt>
      <trkpt lat="46.4946" lon="-1.79047">
        <ele>7.5</ele>
        <time>2021-09-25T12:21:04Z</time>
      </trkpt>
      <trkpt lat="46.4946" lon="-1.79047">
        <ele>7.5</ele>
        <time>2021-09-25T12:21:05Z</time>
      </trkpt>
      <trkpt lat="46.4946" lon="-1.79047">
        <ele>7.5</ele>
        <time>2021-09-25T12:21:06Z</time>
      </trkpt>
      <trkpt lat="46.4946" lon="-1.79047">
        <ele>7.5</ele>
        <time>2021-09-25T12:21:07Z</time>
      </trkpt>
      <trkpt lat="46.4946" lon="-1.79047">
        <ele>7.5</ele>
        <time>2021-09-25T12:21:08Z</time>
      </trkpt>
      <trkpt lat="46.4946" lon="-1.79047">
        <ele>7.5</ele>
        <time>2021-09-25T12:21:09Z</time>
      </trkpt>
      <trkpt lat="46.4946" lon="-1.79047">
        <ele>7.5</ele>
        <time>2021-09-25T12:21:10Z</time>
      </trkpt>
      <trkpt lat="46.4946" lon="-1.79047">
        <ele>7.5</ele>
        <time>2021-09-25T12:21:11Z</time>
      </trkpt>
      <trkpt lat="46.4946" lon="-1.79047">
        <ele>7.5</ele>
        <time>2021-09-25T12:21:12Z</time>
      </trkpt>
      <trkpt lat="46.4946" lon="-1.79047">
        <ele>7.5</ele>
        <time>2021-09-25T12:21:13Z</time>
      </trkpt>
      <trkpt lat="46.4946" lon="-1.79047">
        <ele>7.5</ele>
        <time>2021-09-25T12:21:14Z</time>
      </trkpt>
      <trkpt lat="46.4946" lon="-1.79047">
        <ele>7.5</ele>
        <time>2021-09-25T12:21:15Z</time>
      </trkpt>
      <trkpt lat="46.4946" lon="-1.79047">
        <ele>7.5</ele>
        <time>2021-09-25T12:21:16Z</time>
      </trkpt>
      <trkpt lat="46.4946" lon="-1.79047">
        <ele>7.5</ele>
        <time>2021-09-25T12:21:17Z</time>
      </trkpt>
      <trkpt lat="46.4946" lon="-1.79047">
        <ele>7.5</ele>
        <time>2021-09-25T12:21:18Z</time>
      </trkpt>
      <trkpt lat="46.4946" lon="-1.79047">
        <ele>7.5</ele>
        <time>2021-09-25T12:21:19Z</time>
      </trkpt>
      <trkpt lat="46.4946" lon="-1.79047">
        <ele>7.5</ele>
        <time>2021-09-25T12:21:20Z</time>
      </trkpt>
      <trkpt lat="46.4946" lon="-1.79047">
        <ele>7.5</ele>
        <time>2021-09-25T12:21:21Z</time>
      </trkpt>
      <trkpt lat="46.4946" lon="-1.79047">
        <ele>7.5</ele>
        <time>2021-09-25T12:21:22Z</time>
      </trkpt>
      <trkpt lat="46.4946" lon="-1.79047">
        <ele>7.5</ele>
        <time>2021-09-25T12:21:23Z</time>
      </trkpt>
      <trkpt lat="46.4946" lon="-1.79047">
        <ele>7.5</ele>
        <time>2021-09-25T12:21:24Z</time>
      </trkpt>
      <trkpt lat="46.4946" lon="-1.79047">
        <ele>7.5</ele>
        <time>2021-09-25T12:21:25Z</time>
      </trkpt>
      <trkpt lat="46.4946" lon="-1.79047">
        <ele>7.5</ele>
        <time>2021-09-25T12:21:26Z</time>
      </trkpt>
      <trkpt lat="46.4946" lon="-1.79047">
        <ele>7.5</ele>
        <time>2021-09-25T12:21:27Z</time>
      </trkpt>
      <trkpt lat="46.4946" lon="-1.79047">
        <ele>7.5</ele>
        <time>2021-09-25T12:21:28Z</time>
      </trkpt>
      <trkpt lat="46.4946" lon="-1.79047">
        <ele>7.5</ele>
        <time>2021-09-25T12:21:29Z</time>
      </trkpt>
      <trkpt lat="46.4946" lon="-1.79047">
        <ele>7.5</ele>
        <time>2021-09-25T12:21:30Z</time>
      </trkpt>
      <trkpt lat="46.4946" lon="-1.79047">
        <ele>7.5</ele>
        <time>2021-09-25T12:21:31Z</time>
      </trkpt>
      <trkpt lat="46.4946" lon="-1.79047">
        <ele>7.5</ele>
        <time>2021-09-25T12:21:32Z</time>
      </trkpt>
      <trkpt lat="46.4946" lon="-1.79047">
        <ele>7.5</ele>
        <time>2021-09-25T12:21:33Z</time>
      </trkpt>
      <trkpt lat="46.4946" lon="-1.79047">
        <ele>7.5</ele>
        <time>2021-09-25T12:21:34Z</time>
      </trkpt>
      <trkpt lat="46.4946" lon="-1.79047">
        <ele>7.5</ele>
        <time>2021-09-25T12:21:35Z</time>
      </trkpt>
      <trkpt lat="46.4946" lon="-1.79047">
        <ele>7.5</ele>
        <time>2021-09-25T12:21:36Z</time>
      </trkpt>
      <trkpt lat="46.4946" lon="-1.79047">
        <ele>7.5</ele>
        <time>2021-09-25T12:21:37Z</time>
      </trkpt>
      <trkpt lat="46.4946" lon="-1.79047">
        <ele>7.5</ele>
        <time>2021-09-25T12:21:38Z</time>
      </trkpt>
      <trkpt lat="46.4946" lon="-1.79047">
        <ele>7.5</ele>
        <time>2021-09-25T12:21:39Z</time>
      </trkpt>
      <trkpt lat="46.4946" lon="-1.79047">
        <ele>7.5</ele>
        <time>2021-09-25T12:21:40Z</time>
      </trkpt>
      <trkpt lat="46.4946" lon="-1.79047">
        <ele>7.5</ele>
        <time>2021-09-25T12:21:41Z</time>
      </trkpt>
      <trkpt lat="46.4946" lon="-1.79047">
        <ele>7.5</ele>
        <time>2021-09-25T12:21:42Z</time>
      </trkpt>
      <trkpt lat="46.4946" lon="-1.79047">
        <ele>7.5</ele>
        <time>2021-09-25T12:21:43Z</time>
      </trkpt>
      <trkpt lat="46.4946" lon="-1.79047">
        <ele>7.5</ele>
        <time>2021-09-25T12:21:44Z</time>
      </trkpt>
      <trkpt lat="46.4946" lon="-1.79047">
        <ele>7.5</ele>
        <time>2021-09-25T12:21:45Z</time>
      </trkpt>
      <trkpt lat="46.4946" lon="-1.79047">
        <ele>7.5</ele>
        <time>2021-09-25T12:21:46Z</time>
      </trkpt>
      <trkpt lat="46.4946" lon="-1.79047">
        <ele>7.5</ele>
        <time>2021-09-25T12:21:47Z</time>
      </trkpt>
      <trkpt lat="46.4946" lon="-1.79047">
        <ele>7.5</ele>
        <time>2021-09-25T12:21:48Z</time>
      </trkpt>
      <trkpt lat="46.4946" lon="-1.79047">
        <ele>7.5</ele>
        <time>2021-09-25T12:21:49Z</time>
      </trkpt>
      <trkpt lat="46.4946" lon="-1.79047">
        <ele>7.5</ele>
        <time>2021-09-25T12:21:50Z</time>
      </trkpt>
      <trkpt lat="46.4946" lon="-1.79047">
        <ele>7.5</ele>
        <time>2021-09-25T12:21:51Z</time>
      </trkpt>
      <trkpt lat="46.4946" lon="-1.79047">
        <ele>7.5</ele>
        <time>2021-09-25T12:21:52Z</time>
      </trkpt>
      <trkpt lat="46.4946" lon="-1.79047">
        <ele>7.5</ele>
        <time>2021-09-25T12:21:53Z</time>
      </trkpt>
      <trkpt lat="46.4946" lon="-1.79047">
        <ele>7.5</ele>
        <time>2021-09-25T12:21:54Z</time>
      </trkpt>
      <trkpt lat="46.4946" lon="-1.79047">
        <ele>7.5</ele>
        <time>2021-09-25T12:21:55Z</time>
      </trkpt>
      <trkpt lat="46.4946" lon="-1.79047">
        <ele>7.5</ele>
        <time>2021-09-25T12:21:56Z</time>
      </trkpt>
      <trkpt lat="46.49459" lon="-1.79047">
        <ele>7.5</ele>
        <time>2021-09-25T12:21:57Z</time>
      </trkpt>
      <trkpt lat="46.4946" lon="-1.79048">
        <ele>7.5</ele>
        <time>2021-09-25T12:21:58Z</time>
      </trkpt>
      <trkpt lat="46.4946" lon="-1.79049">
        <ele>7.5</ele>
        <time>2021-09-25T12:21:59Z</time>
      </trkpt>
      <trkpt lat="46.4946" lon="-1.79049">
        <ele>7.5</ele>
        <time>2021-09-25T12:22:00Z</time>
      </trkpt>
      <trkpt lat="46.4946" lon="-1.7905">
        <ele>7.5</ele>
        <time>2021-09-25T12:22:01Z</time>
      </trkpt>
      <trkpt lat="46.4946" lon="-1.79051">
        <ele>7.5</ele>
        <time>2021-09-25T12:22:02Z</time>
      </trkpt>
      <trkpt lat="46.49461" lon="-1.79052">
        <ele>7.5</ele>
        <time>2021-09-25T12:22:03Z</time>
      </trkpt>
      <trkpt lat="46.49461" lon="-1.79052">
        <ele>7.5</ele>
        <time>2021-09-25T12:22:04Z</time>
      </trkpt>
      <trkpt lat="46.49461" lon="-1.79054">
        <ele>7.5</ele>
        <time>2021-09-25T12:22:05Z</time>
      </trkpt>
      <trkpt lat="46.49461" lon="-1.79055">
        <ele>7.5</ele>
        <time>2021-09-25T12:22:06Z</time>
      </trkpt>
      <trkpt lat="46.49461" lon="-1.79056">
        <ele>7.4</ele>
        <time>2021-09-25T12:22:07Z</time>
      </trkpt>
      <trkpt lat="46.49461" lon="-1.79057">
        <ele>7.4</ele>
        <time>2021-09-25T12:22:08Z</time>
      </trkpt>
      <trkpt lat="46.49461" lon="-1.79059">
        <ele>7.4</ele>
        <time>2021-09-25T12:22:09Z</time>
      </trkpt>
      <trkpt lat="46.49461" lon="-1.7906">
        <ele>7.4</ele>
        <time>2021-09-25T12:22:10Z</time>
      </trkpt>
      <trkpt lat="46.49461" lon="-1.79061">
        <ele>7.4</ele>
        <time>2021-09-25T12:22:11Z</time>
      </trkpt>
      <trkpt lat="46.49461" lon="-1.79063">
        <ele>7.4</ele>
        <time>2021-09-25T12:22:12Z</time>
      </trkpt>
      <trkpt lat="46.49462" lon="-1.79064">
        <ele>7.4</ele>
        <time>2021-09-25T12:22:13Z</time>
      </trkpt>
      <trkpt lat="46.49462" lon="-1.79066">
        <ele>7.4</ele>
        <time>2021-09-25T12:22:14Z</time>
      </trkpt>
      <trkpt lat="46.49462" lon="-1.79067">
        <ele>7.4</ele>
        <time>2021-09-25T12:22:15Z</time>
      </trkpt>
      <trkpt lat="46.49462" lon="-1.79069">
        <ele>7.4</ele>
        <time>2021-09-25T12:22:16Z</time>
      </trkpt>
      <trkpt lat="46.49462" lon="-1.79071">
        <ele>7.4</ele>
        <time>2021-09-25T12:22:17Z</time>
      </trkpt>
      <trkpt lat="46.49462" lon="-1.79072">
        <ele>7.4</ele>
        <time>2021-09-25T12:22:18Z</time>
      </trkpt>
      <trkpt lat="46.49462" lon="-1.79073">
        <ele>7.4</ele>
        <time>2021-09-25T12:22:19Z</time>
      </trkpt>
      <trkpt lat="46.49462" lon="-1.79075">
        <ele>7.4</ele>
        <time>2021-09-25T12:22:20Z</time>
      </trkpt>
      <trkpt lat="46.49462" lon="-1.79076">
        <ele>7.4</ele>
        <time>2021-09-25T12:22:21Z</time>
      </trkpt>
      <trkpt lat="46.49462" lon="-1.79078">
        <ele>7.4</ele>
        <time>2021-09-25T12:22:22Z</time>
      </trkpt>
      <trkpt lat="46.49462" lon="-1.79079">
        <ele>7.4</ele>
        <time>2021-09-25T12:22:23Z</time>
      </trkpt>
      <trkpt lat="46.49462" lon="-1.79081">
        <ele>7.4</ele>
        <time>2021-09-25T12:22:24Z</time>
      </trkpt>
      <trkpt lat="46.49462" lon="-1.79082">
        <ele>7.4</ele>
        <time>2021-09-25T12:22:25Z</time>
      </trkpt>
      <trkpt lat="46.49462" lon="-1.79084">
        <ele>7.4</ele>
        <time>2021-09-25T12:22:26Z</time>
      </trkpt>
      <trkpt lat="46.49462" lon="-1.79086">
        <ele>7.4</ele>
        <time>2021-09-25T12:22:27Z</time>
      </trkpt>
      <trkpt lat="46.49462" lon="-1.79087">
        <ele>7.3</ele>
        <time>2021-09-25T12:22:28Z</time>
      </trkpt>
      <trkpt lat="46.49462" lon="-1.79089">
        <ele>7.3</ele>
        <time>2021-09-25T12:22:29Z</time>
      </trkpt>
      <trkpt lat="46.49461" lon="-1.7909">
        <ele>7.3</ele>
        <time>2021-09-25T12:22:30Z</time>
      </trkpt>
      <trkpt lat="46.49461" lon="-1.79092">
        <ele>7.3</ele>
        <time>2021-09-25T12:22:31Z</time>
      </trkpt>
      <trkpt lat="46.49461" lon="-1.79093">
        <ele>7.3</ele>
        <time>2021-09-25T12:22:32Z</time>
      </trkpt>
      <trkpt lat="46.49461" lon="-1.79095">
        <ele>7.3</ele>
        <time>2021-09-25T12:22:33Z</time>
      </trkpt>
      <trkpt lat="46.49461" lon="-1.79096">
        <ele>7.3</ele>
        <time>2021-09-25T12:22:34Z</time>
      </trkpt>
      <trkpt lat="46.49461" lon="-1.79098">
        <ele>7.3</ele>
        <time>2021-09-25T12:22:35Z</time>
      </trkpt>
      <trkpt lat="46.49461" lon="-1.79099">
        <ele>7.3</ele>
        <time>2021-09-25T12:22:36Z</time>
      </trkpt>
      <trkpt lat="46.49461" lon="-1.79101">
        <ele>7.3</ele>
        <time>2021-09-25T12:22:37Z</time>
      </trkpt>
      <trkpt lat="46.4946" lon="-1.79102">
        <ele>7.3</ele>
        <time>2021-09-25T12:22:38Z</time>
      </trkpt>
      <trkpt lat="46.4946" lon="-1.79104">
        <ele>7.3</ele>
        <time>2021-09-25T12:22:39Z</time>
      </trkpt>
      <trkpt lat="46.4946" lon="-1.79105">
        <ele>7.3</ele>
        <time>2021-09-25T12:22:40Z</time>
      </trkpt>
      <trkpt lat="46.4946" lon="-1.79107">
        <ele>7.3</ele>
        <time>2021-09-25T12:22:41Z</time>
      </trkpt>
      <trkpt lat="46.4946" lon="-1.79108">
        <ele>7.3</ele>
        <time>2021-09-25T12:22:42Z</time>
      </trkpt>
      <trkpt lat="46.49459" lon="-1.7911">
        <ele>7.3</ele>
        <time>2021-09-25T12:22:43Z</time>
      </trkpt>
      <trkpt lat="46.49459" lon="-1.79111">
        <ele>7.3</ele>
        <time>2021-09-25T12:22:44Z</time>
      </trkpt>
      <trkpt lat="46.49459" lon="-1.79113">
        <ele>7.3</ele>
        <time>2021-09-25T12:22:45Z</time>
      </trkpt>
      <trkpt lat="46.49458" lon="-1.79114">
        <ele>7.3</ele>
        <time>2021-09-25T12:22:46Z</time>
      </trkpt>
      <trkpt lat="46.49458" lon="-1.79115">
        <ele>7.3</ele>
        <time>2021-09-25T12:22:47Z</time>
      </trkpt>
      <trkpt lat="46.49457" lon="-1.79117">
        <ele>7.3</ele>
        <time>2021-09-25T12:22:48Z</time>
      </trkpt>
      <trkpt lat="46.49457" lon="-1.79118">
        <ele>7.3</ele>
        <time>2021-09-25T12:22:49Z</time>
      </trkpt>
      <trkpt lat="46.49457" lon="-1.79119">
        <ele>7.3</ele>
        <time>2021-09-25T12:22:50Z</time>
      </trkpt>
      <trkpt lat="46.49456" lon="-1.79121">
        <ele>7.3</ele>
        <time>2021-09-25T12:22:51Z</time>
      </trkpt>
      <trkpt lat="46.49456" lon="-1.79122">
        <ele>7.3</ele>
        <time>2021-09-25T12:22:52Z</time>
      </trkpt>
      <trkpt lat="46.49455" lon="-1.79123">
        <ele>7.3</ele>
        <time>2021-09-25T12:22:53Z</time>
      </trkpt>
      <trkpt lat="46.49455" lon="-1.79125">
        <ele>7.3</ele>
        <time>2021-09-25T12:22:54Z</time>
      </trkpt>
      <trkpt lat="46.49455" lon="-1.79126">
        <ele>7.3</ele>
        <time>2021-09-25T12:22:55Z</time>
      </trkpt>
      <trkpt lat="46.49454" lon="-1.79128">
        <ele>7.3</ele>
        <time>2021-09-25T12:22:56Z</time>
      </trkpt>
      <trkpt lat="46.49454" lon="-1.7913">
        <ele>7</ele>
        <time>2021-09-25T12:22:57Z</time>
      </trkpt>
      <trkpt lat="46.49453" lon="-1.79131">
        <ele>7</ele>
        <time>2021-09-25T12:22:58Z</time>
      </trkpt>
      <trkpt lat="46.49453" lon="-1.79133">
        <ele>7</ele>
        <time>2021-09-25T12:22:59Z</time>
      </trkpt>
      <trkpt lat="46.49453" lon="-1.79134">
        <ele>7</ele>
        <time>2021-09-25T12:23:00Z</time>
      </trkpt>
      <trkpt lat="46.49452" lon="-1.79136">
        <ele>7</ele>
        <time>2021-09-25T12:23:01Z</time>
      </trkpt>
      <trkpt lat="46.49452" lon="-1.79137">
        <ele>7</ele>
        <time>2021-09-25T12:23:02Z</time>
      </trkpt>
      <trkpt lat="46.49451" lon="-1.79138">
        <ele>7</ele>
        <time>2021-09-25T12:23:03Z</time>
      </trkpt>
      <trkpt lat="46.4945" lon="-1.79139">
        <ele>7</ele>
        <time>2021-09-25T12:23:04Z</time>
      </trkpt>
      <trkpt lat="46.49449" lon="-1.7914">
        <ele>7</ele>
        <time>2021-09-25T12:23:05Z</time>
      </trkpt>
      <trkpt lat="46.49449" lon="-1.79141">
        <ele>7</ele>
        <time>2021-09-25T12:23:06Z</time>
      </trkpt>
      <trkpt lat="46.49448" lon="-1.79142">
        <ele>7</ele>
        <time>2021-09-25T12:23:07Z</time>
      </trkpt>
      <trkpt lat="46.49447" lon="-1.79143">
        <ele>7</ele>
        <time>2021-09-25T12:23:08Z</time>
      </trkpt>
      <trkpt lat="46.49446" lon="-1.79144">
        <ele>7</ele>
        <time>2021-09-25T12:23:09Z</time>
      </trkpt>
      <trkpt lat="46.49445" lon="-1.79145">
        <ele>6.9</ele>
        <time>2021-09-25T12:23:10Z</time>
      </trkpt>
      <trkpt lat="46.49444" lon="-1.79146">
        <ele>6.9</ele>
        <time>2021-09-25T12:23:11Z</time>
      </trkpt>
      <trkpt lat="46.49443" lon="-1.79146">
        <ele>6.9</ele>
        <time>2021-09-25T12:23:12Z</time>
      </trkpt>
      <trkpt lat="46.49442" lon="-1.79147">
        <ele>6.9</ele>
        <time>2021-09-25T12:23:13Z</time>
      </trkpt>
      <trkpt lat="46.49441" lon="-1.79148">
        <ele>6.9</ele>
        <time>2021-09-25T12:23:14Z</time>
      </trkpt>
      <trkpt lat="46.4944" lon="-1.79149">
        <ele>6.9</ele>
        <time>2021-09-25T12:23:15Z</time>
      </trkpt>
      <trkpt lat="46.4944" lon="-1.7915">
        <ele>6.9</ele>
        <time>2021-09-25T12:23:16Z</time>
      </trkpt>
      <trkpt lat="46.49439" lon="-1.79151">
        <ele>6.9</ele>
        <time>2021-09-25T12:23:17Z</time>
      </trkpt>
      <trkpt lat="46.49438" lon="-1.79152">
        <ele>6.9</ele>
        <time>2021-09-25T12:23:18Z</time>
      </trkpt>
      <trkpt lat="46.49437" lon="-1.79153">
        <ele>6.9</ele>
        <time>2021-09-25T12:23:19Z</time>
      </trkpt>
      <trkpt lat="46.49437" lon="-1.79155">
        <ele>6.9</ele>
        <time>2021-09-25T12:23:20Z</time>
      </trkpt>
      <trkpt lat="46.49436" lon="-1.79156">
        <ele>6.9</ele>
        <time>2021-09-25T12:23:21Z</time>
      </trkpt>
      <trkpt lat="46.49435" lon="-1.79157">
        <ele>6.9</ele>
        <time>2021-09-25T12:23:22Z</time>
      </trkpt>
      <trkpt lat="46.49435" lon="-1.79158">
        <ele>6.9</ele>
        <time>2021-09-25T12:23:23Z</time>
      </trkpt>
      <trkpt lat="46.49434" lon="-1.79159">
        <ele>6.9</ele>
        <time>2021-09-25T12:23:24Z</time>
      </trkpt>
      <trkpt lat="46.49434" lon="-1.79161">
        <ele>6.9</ele>
        <time>2021-09-25T12:23:25Z</time>
      </trkpt>
      <trkpt lat="46.49433" lon="-1.79162">
        <ele>6.9</ele>
        <time>2021-09-25T12:23:26Z</time>
      </trkpt>
      <trkpt lat="46.49432" lon="-1.79163">
        <ele>6.9</ele>
        <time>2021-09-25T12:23:27Z</time>
      </trkpt>
      <trkpt lat="46.49432" lon="-1.79164">
        <ele>6.9</ele>
        <time>2021-09-25T12:23:28Z</time>
      </trkpt>
      <trkpt lat="46.49431" lon="-1.79166">
        <ele>6.9</ele>
        <time>2021-09-25T12:23:29Z</time>
      </trkpt>
      <trkpt lat="46.4943" lon="-1.79167">
        <ele>6.9</ele>
        <time>2021-09-25T12:23:30Z</time>
      </trkpt>
      <trkpt lat="46.4943" lon="-1.79168">
        <ele>6.9</ele>
        <time>2021-09-25T12:23:31Z</time>
      </trkpt>
      <trkpt lat="46.49429" lon="-1.79169">
        <ele>6.9</ele>
        <time>2021-09-25T12:23:32Z</time>
      </trkpt>
      <trkpt lat="46.49428" lon="-1.7917">
        <ele>6.9</ele>
        <time>2021-09-25T12:23:33Z</time>
      </trkpt>
      <trkpt lat="46.49427" lon="-1.79171">
        <ele>6.9</ele>
        <time>2021-09-25T12:23:34Z</time>
      </trkpt>
      <trkpt lat="46.49427" lon="-1.79173">
        <ele>6.9</ele>
        <time>2021-09-25T12:23:35Z</time>
      </trkpt>
      <trkpt lat="46.49426" lon="-1.79174">
        <ele>6.9</ele>
        <time>2021-09-25T12:23:36Z</time>
      </trkpt>
      <trkpt lat="46.49425" lon="-1.79175">
        <ele>6.9</ele>
        <time>2021-09-25T12:23:37Z</time>
      </trkpt>
      <trkpt lat="46.49424" lon="-1.79176">
        <ele>6.8</ele>
        <time>2021-09-25T12:23:38Z</time>
      </trkpt>
      <trkpt lat="46.49423" lon="-1.79177">
        <ele>6.8</ele>
        <time>2021-09-25T12:23:39Z</time>
      </trkpt>
      <trkpt lat="46.49422" lon="-1.79178">
        <ele>6.8</ele>
        <time>2021-09-25T12:23:40Z</time>
      </trkpt>
      <trkpt lat="46.49421" lon="-1.79178">
        <ele>6.8</ele>
        <time>2021-09-25T12:23:41Z</time>
      </trkpt>
      <trkpt lat="46.4942" lon="-1.79179">
        <ele>6.8</ele>
        <time>2021-09-25T12:23:42Z</time>
      </trkpt>
      <trkpt lat="46.49419" lon="-1.7918">
        <ele>6.8</ele>
        <time>2021-09-25T12:23:43Z</time>
      </trkpt>
      <trkpt lat="46.49418" lon="-1.79181">
        <ele>6.8</ele>
        <time>2021-09-25T12:23:44Z</time>
      </trkpt>
      <trkpt lat="46.49417" lon="-1.79181">
        <ele>6.8</ele>
        <time>2021-09-25T12:23:45Z</time>
      </trkpt>
      <trkpt lat="46.49416" lon="-1.79182">
        <ele>6.8</ele>
        <time>2021-09-25T12:23:46Z</time>
      </trkpt>
      <trkpt lat="46.49415" lon="-1.79183">
        <ele>6.8</ele>
        <time>2021-09-25T12:23:47Z</time>
      </trkpt>
      <trkpt lat="46.49413" lon="-1.79184">
        <ele>7.3</ele>
        <time>2021-09-25T12:23:48Z</time>
      </trkpt>
      <trkpt lat="46.49412" lon="-1.79185">
        <ele>7.3</ele>
        <time>2021-09-25T12:23:49Z</time>
      </trkpt>
      <trkpt lat="46.49411" lon="-1.79186">
        <ele>7.3</ele>
        <time>2021-09-25T12:23:50Z</time>
      </trkpt>
      <trkpt lat="46.4941" lon="-1.79187">
        <ele>7.3</ele>
        <time>2021-09-25T12:23:51Z</time>
      </trkpt>
      <trkpt lat="46.49409" lon="-1.79188">
        <ele>7.3</ele>
        <time>2021-09-25T12:23:52Z</time>
      </trkpt>
      <trkpt lat="46.49408" lon="-1.79189">
        <ele>7.3</ele>
        <time>2021-09-25T12:23:53Z</time>
      </trkpt>
      <trkpt lat="46.49407" lon="-1.7919">
        <ele>7.3</ele>
        <time>2021-09-25T12:23:54Z</time>
      </trkpt>
      <trkpt lat="46.49406" lon="-1.79191">
        <ele>7.3</ele>
        <time>2021-09-25T12:23:55Z</time>
      </trkpt>
      <trkpt lat="46.49405" lon="-1.79193">
        <ele>7.3</ele>
        <time>2021-09-25T12:23:56Z</time>
      </trkpt>
      <trkpt lat="46.49405" lon="-1.79194">
        <ele>7.3</ele>
        <time>2021-09-25T12:23:57Z</time>
      </trkpt>
      <trkpt lat="46.49404" lon="-1.79195">
        <ele>7.3</ele>
        <time>2021-09-25T12:23:58Z</time>
      </trkpt>
      <trkpt lat="46.49403" lon="-1.79196">
        <ele>7.3</ele>
        <time>2021-09-25T12:23:59Z</time>
      </trkpt>
      <trkpt lat="46.49402" lon="-1.79197">
        <ele>7.3</ele>
        <time>2021-09-25T12:24:00Z</time>
      </trkpt>
      <trkpt lat="46.49401" lon="-1.79198">
        <ele>7.3</ele>
        <time>2021-09-25T12:24:01Z</time>
      </trkpt>
      <trkpt lat="46.494" lon="-1.79199">
        <ele>7.3</ele>
        <time>2021-09-25T12:24:02Z</time>
      </trkpt>
      <trkpt lat="46.49399" lon="-1.792">
        <ele>7.2</ele>
        <time>2021-09-25T12:24:03Z</time>
      </trkpt>
      <trkpt lat="46.49398" lon="-1.792">
        <ele>7.2</ele>
        <time>2021-09-25T12:24:04Z</time>
      </trkpt>
      <trkpt lat="46.49398" lon="-1.79201">
        <ele>7.2</ele>
        <time>2021-09-25T12:24:05Z</time>
      </trkpt>
      <trkpt lat="46.49397" lon="-1.79202">
        <ele>7.2</ele>
        <time>2021-09-25T12:24:06Z</time>
      </trkpt>
      <trkpt lat="46.49396" lon="-1.79203">
        <ele>7.2</ele>
        <time>2021-09-25T12:24:07Z</time>
      </trkpt>
      <trkpt lat="46.49395" lon="-1.79204">
        <ele>7.2</ele>
        <time>2021-09-25T12:24:08Z</time>
      </trkpt>
      <trkpt lat="46.49394" lon="-1.79205">
        <ele>7.2</ele>
        <time>2021-09-25T12:24:09Z</time>
      </trkpt>
      <trkpt lat="46.49393" lon="-1.79206">
        <ele>7.2</ele>
        <time>2021-09-25T12:24:10Z</time>
      </trkpt>
      <trkpt lat="46.49392" lon="-1.79206">
        <ele>7.2</ele>
        <time>2021-09-25T12:24:11Z</time>
      </trkpt>
      <trkpt lat="46.49391" lon="-1.79207">
        <ele>7.2</ele>
        <time>2021-09-25T12:24:12Z</time>
      </trkpt>
      <trkpt lat="46.4939" lon="-1.79208">
        <ele>7.2</ele>
        <time>2021-09-25T12:24:13Z</time>
      </trkpt>
      <trkpt lat="46.49389" lon="-1.7921">
        <ele>7.2</ele>
        <time>2021-09-25T12:24:14Z</time>
      </trkpt>
      <trkpt lat="46.49388" lon="-1.79211">
        <ele>7.2</ele>
        <time>2021-09-25T12:24:15Z</time>
      </trkpt>
      <trkpt lat="46.49387" lon="-1.79212">
        <ele>7.2</ele>
        <time>2021-09-25T12:24:16Z</time>
      </trkpt>
      <trkpt lat="46.49386" lon="-1.79213">
        <ele>7.2</ele>
        <time>2021-09-25T12:24:17Z</time>
      </trkpt>
      <trkpt lat="46.49385" lon="-1.79214">
        <ele>7.2</ele>
        <time>2021-09-25T12:24:18Z</time>
      </trkpt>
      <trkpt lat="46.49384" lon="-1.79215">
        <ele>7.1</ele>
        <time>2021-09-25T12:24:19Z</time>
      </trkpt>
      <trkpt lat="46.49383" lon="-1.79216">
        <ele>7.1</ele>
        <time>2021-09-25T12:24:20Z</time>
      </trkpt>
      <trkpt lat="46.49383" lon="-1.79217">
        <ele>7.1</ele>
        <time>2021-09-25T12:24:21Z</time>
      </trkpt>
      <trkpt lat="46.49382" lon="-1.79218">
        <ele>7.1</ele>
        <time>2021-09-25T12:24:22Z</time>
      </trkpt>
      <trkpt lat="46.49381" lon="-1.79219">
        <ele>7.1</ele>
        <time>2021-09-25T12:24:23Z</time>
      </trkpt>
      <trkpt lat="46.4938" lon="-1.79221">
        <ele>7.1</ele>
        <time>2021-09-25T12:24:24Z</time>
      </trkpt>
      <trkpt lat="46.49379" lon="-1.79222">
        <ele>7.1</ele>
        <time>2021-09-25T12:24:25Z</time>
      </trkpt>
      <trkpt lat="46.49378" lon="-1.79223">
        <ele>7.1</ele>
        <time>2021-09-25T12:24:26Z</time>
      </trkpt>
      <trkpt lat="46.49378" lon="-1.79224">
        <ele>7.1</ele>
        <time>2021-09-25T12:24:27Z</time>
      </trkpt>
      <trkpt lat="46.49377" lon="-1.79225">
        <ele>7.1</ele>
        <time>2021-09-25T12:24:28Z</time>
      </trkpt>
      <trkpt lat="46.49376" lon="-1.79226">
        <ele>7.1</ele>
        <time>2021-09-25T12:24:29Z</time>
      </trkpt>
      <trkpt lat="46.49375" lon="-1.79227">
        <ele>7.1</ele>
        <time>2021-09-25T12:24:30Z</time>
      </trkpt>
      <trkpt lat="46.49375" lon="-1.79229">
        <ele>7.1</ele>
        <time>2021-09-25T12:24:31Z</time>
      </trkpt>
      <trkpt lat="46.49374" lon="-1.7923">
        <ele>7.1</ele>
        <time>2021-09-25T12:24:32Z</time>
      </trkpt>
      <trkpt lat="46.49373" lon="-1.79231">
        <ele>7.1</ele>
        <time>2021-09-25T12:24:33Z</time>
      </trkpt>
      <trkpt lat="46.49372" lon="-1.79232">
        <ele>7.1</ele>
        <time>2021-09-25T12:24:34Z</time>
      </trkpt>
      <trkpt lat="46.49371" lon="-1.79233">
        <ele>7.1</ele>
        <time>2021-09-25T12:24:35Z</time>
      </trkpt>
      <trkpt lat="46.49371" lon="-1.79234">
        <ele>7.1</ele>
        <time>2021-09-25T12:24:36Z</time>
      </trkpt>
      <trkpt lat="46.4937" lon="-1.79236">
        <ele>7.1</ele>
        <time>2021-09-25T12:24:37Z</time>
      </trkpt>
      <trkpt lat="46.49369" lon="-1.79237">
        <ele>7.1</ele>
        <time>2021-09-25T12:24:38Z</time>
      </trkpt>
      <trkpt lat="46.49368" lon="-1.79238">
        <ele>7.1</ele>
        <time>2021-09-25T12:24:39Z</time>
      </trkpt>
      <trkpt lat="46.49367" lon="-1.79239">
        <ele>7.1</ele>
        <time>2021-09-25T12:24:40Z</time>
      </trkpt>
      <trkpt lat="46.49366" lon="-1.7924">
        <ele>7.1</ele>
        <time>2021-09-25T12:24:41Z</time>
      </trkpt>
      <trkpt lat="46.49365" lon="-1.79241">
        <ele>7.1</ele>
        <time>2021-09-25T12:24:42Z</time>
      </trkpt>
      <trkpt lat="46.49364" lon="-1.79242">
        <ele>7.1</ele>
        <time>2021-09-25T12:24:43Z</time>
      </trkpt>
      <trkpt lat="46.49363" lon="-1.79243">
        <ele>7.1</ele>
        <time>2021-09-25T12:24:44Z</time>
      </trkpt>
      <trkpt lat="46.49362" lon="-1.79244">
        <ele>7.1</ele>
        <time>2021-09-25T12:24:45Z</time>
      </trkpt>
      <trkpt lat="46.49362" lon="-1.79245">
        <ele>7.1</ele>
        <time>2021-09-25T12:24:46Z</time>
      </trkpt>
      <trkpt lat="46.49361" lon="-1.79246">
        <ele>7.1</ele>
        <time>2021-09-25T12:24:47Z</time>
      </trkpt>
      <trkpt lat="46.4936" lon="-1.79247">
        <ele>7.1</ele>
        <time>2021-09-25T12:24:48Z</time>
      </trkpt>
      <trkpt lat="46.49359" lon="-1.79248">
        <ele>7.1</ele>
        <time>2021-09-25T12:24:49Z</time>
      </trkpt>
      <trkpt lat="46.49358" lon="-1.79248">
        <ele>7</ele>
        <time>2021-09-25T12:24:50Z</time>
      </trkpt>
      <trkpt lat="46.49357" lon="-1.79249">
        <ele>7</ele>
        <time>2021-09-25T12:24:51Z</time>
      </trkpt>
      <trkpt lat="46.49356" lon="-1.7925">
        <ele>7</ele>
        <time>2021-09-25T12:24:52Z</time>
      </trkpt>
      <trkpt lat="46.49355" lon="-1.7925">
        <ele>7</ele>
        <time>2021-09-25T12:24:53Z</time>
      </trkpt>
      <trkpt lat="46.49354" lon="-1.79251">
        <ele>7</ele>
        <time>2021-09-25T12:24:54Z</time>
      </trkpt>
      <trkpt lat="46.49353" lon="-1.79251">
        <ele>7</ele>
        <time>2021-09-25T12:24:55Z</time>
      </trkpt>
      <trkpt lat="46.49352" lon="-1.79251">
        <ele>7</ele>
        <time>2021-09-25T12:24:56Z</time>
      </trkpt>
      <trkpt lat="46.49351" lon="-1.79252">
        <ele>7</ele>
        <time>2021-09-25T12:24:57Z</time>
      </trkpt>
      <trkpt lat="46.4935" lon="-1.79252">
        <ele>7</ele>
        <time>2021-09-25T12:24:58Z</time>
      </trkpt>
      <trkpt lat="46.49349" lon="-1.79253">
        <ele>7</ele>
        <time>2021-09-25T12:24:59Z</time>
      </trkpt>
      <trkpt lat="46.49349" lon="-1.79254">
        <ele>7</ele>
        <time>2021-09-25T12:25:00Z</time>
      </trkpt>
      <trkpt lat="46.49348" lon="-1.79255">
        <ele>7</ele>
        <time>2021-09-25T12:25:01Z</time>
      </trkpt>
      <trkpt lat="46.49347" lon="-1.79256">
        <ele>7</ele>
        <time>2021-09-25T12:25:02Z</time>
      </trkpt>
      <trkpt lat="46.49347" lon="-1.79258">
        <ele>6.9</ele>
        <time>2021-09-25T12:25:03Z</time>
      </trkpt>
      <trkpt lat="46.49346" lon="-1.79259">
        <ele>6.9</ele>
        <time>2021-09-25T12:25:04Z</time>
      </trkpt>
      <trkpt lat="46.49346" lon="-1.7926">
        <ele>6.9</ele>
        <time>2021-09-25T12:25:05Z</time>
      </trkpt>
      <trkpt lat="46.49346" lon="-1.79262">
        <ele>6.9</ele>
        <time>2021-09-25T12:25:06Z</time>
      </trkpt>
      <trkpt lat="46.49345" lon="-1.79263">
        <ele>6.9</ele>
        <time>2021-09-25T12:25:07Z</time>
      </trkpt>
      <trkpt lat="46.49345" lon="-1.79265">
        <ele>6.9</ele>
        <time>2021-09-25T12:25:08Z</time>
      </trkpt>
      <trkpt lat="46.49345" lon="-1.79267">
        <ele>6.9</ele>
        <time>2021-09-25T12:25:09Z</time>
      </trkpt>
      <trkpt lat="46.49345" lon="-1.79268">
        <ele>6.9</ele>
        <time>2021-09-25T12:25:10Z</time>
      </trkpt>
      <trkpt lat="46.49344" lon="-1.7927">
        <ele>6.9</ele>
        <time>2021-09-25T12:25:11Z</time>
      </trkpt>
      <trkpt lat="46.49344" lon="-1.79272">
        <ele>6.9</ele>
        <time>2021-09-25T12:25:12Z</time>
      </trkpt>
      <trkpt lat="46.49344" lon="-1.79273">
        <ele>6.9</ele>
        <time>2021-09-25T12:25:13Z</time>
      </trkpt>
      <trkpt lat="46.49344" lon="-1.79274">
        <ele>6.9</ele>
        <time>2021-09-25T12:25:14Z</time>
      </trkpt>
      <trkpt lat="46.49344" lon="-1.79276">
        <ele>6.9</ele>
        <time>2021-09-25T12:25:15Z</time>
      </trkpt>
      <trkpt lat="46.49344" lon="-1.79277">
        <ele>6.8</ele>
        <time>2021-09-25T12:25:16Z</time>
      </trkpt>
      <trkpt lat="46.49344" lon="-1.79279">
        <ele>6.8</ele>
        <time>2021-09-25T12:25:17Z</time>
      </trkpt>
      <trkpt lat="46.49344" lon="-1.7928">
        <ele>6.8</ele>
        <time>2021-09-25T12:25:18Z</time>
      </trkpt>
      <trkpt lat="46.49344" lon="-1.79281">
        <ele>6.8</ele>
        <time>2021-09-25T12:25:19Z</time>
      </trkpt>
      <trkpt lat="46.49344" lon="-1.79282">
        <ele>6.8</ele>
        <time>2021-09-25T12:25:20Z</time>
      </trkpt>
      <trkpt lat="46.49344" lon="-1.79283">
        <ele>6.8</ele>
        <time>2021-09-25T12:25:21Z</time>
      </trkpt>
      <trkpt lat="46.49344" lon="-1.79285">
        <ele>6.8</ele>
        <time>2021-09-25T12:25:22Z</time>
      </trkpt>
      <trkpt lat="46.49344" lon="-1.79286">
        <ele>6.8</ele>
        <time>2021-09-25T12:25:23Z</time>
      </trkpt>
      <trkpt lat="46.49344" lon="-1.79287">
        <ele>6.8</ele>
        <time>2021-09-25T12:25:24Z</time>
      </trkpt>
      <trkpt lat="46.49344" lon="-1.79288">
        <ele>6.8</ele>
        <time>2021-09-25T12:25:25Z</time>
      </trkpt>
      <trkpt lat="46.49345" lon="-1.79289">
        <ele>6.8</ele>
        <time>2021-09-25T12:25:26Z</time>
      </trkpt>
      <trkpt lat="46.49345" lon="-1.79291">
        <ele>6.8</ele>
        <time>2021-09-25T12:25:27Z</time>
      </trkpt>
      <trkpt lat="46.49345" lon="-1.79292">
        <ele>6.8</ele>
        <time>2021-09-25T12:25:28Z</time>
      </trkpt>
      <trkpt lat="46.49345" lon="-1.79293">
        <ele>6.8</ele>
        <time>2021-09-25T12:25:29Z</time>
      </trkpt>
      <trkpt lat="46.49345" lon="-1.79294">
        <ele>6.7</ele>
        <time>2021-09-25T12:25:30Z</time>
      </trkpt>
      <trkpt lat="46.49345" lon="-1.79295">
        <ele>6.7</ele>
        <time>2021-09-25T12:25:31Z</time>
      </trkpt>
      <trkpt lat="46.49345" lon="-1.79297">
        <ele>6.7</ele>
        <time>2021-09-25T12:25:32Z</time>
      </trkpt>
      <trkpt lat="46.49345" lon="-1.79298">
        <ele>6.7</ele>
        <time>2021-09-25T12:25:33Z</time>
      </trkpt>
      <trkpt lat="46.49345" lon="-1.79299">
        <ele>6.7</ele>
        <time>2021-09-25T12:25:34Z</time>
      </trkpt>
      <trkpt lat="46.49345" lon="-1.793">
        <ele>6.7</ele>
        <time>2021-09-25T12:25:35Z</time>
      </trkpt>
      <trkpt lat="46.49345" lon="-1.79301">
        <ele>6.7</ele>
        <time>2021-09-25T12:25:36Z</time>
      </trkpt>
      <trkpt lat="46.49345" lon="-1.79303">
        <ele>6.7</ele>
        <time>2021-09-25T12:25:37Z</time>
      </trkpt>
      <trkpt lat="46.49346" lon="-1.79304">
        <ele>6.7</ele>
        <time>2021-09-25T12:25:38Z</time>
      </trkpt>
      <trkpt lat="46.49347" lon="-1.79305">
        <ele>6.6</ele>
        <time>2021-09-25T12:25:39Z</time>
      </trkpt>
      <trkpt lat="46.49348" lon="-1.79306">
        <ele>6.6</ele>
        <time>2021-09-25T12:25:40Z</time>
      </trkpt>
      <trkpt lat="46.49348" lon="-1.79307">
        <ele>6.6</ele>
        <time>2021-09-25T12:25:41Z</time>
      </trkpt>
      <trkpt lat="46.49349" lon="-1.79309">
        <ele>6.6</ele>
        <time>2021-09-25T12:25:42Z</time>
      </trkpt>
      <trkpt lat="46.4935" lon="-1.7931">
        <ele>6.6</ele>
        <time>2021-09-25T12:25:43Z</time>
      </trkpt>
      <trkpt lat="46.4935" lon="-1.79311">
        <ele>6.6</ele>
        <time>2021-09-25T12:25:44Z</time>
      </trkpt>
      <trkpt lat="46.49351" lon="-1.79313">
        <ele>6.6</ele>
        <time>2021-09-25T12:25:45Z</time>
      </trkpt>
      <trkpt lat="46.49351" lon="-1.79314">
        <ele>6.5</ele>
        <time>2021-09-25T12:25:46Z</time>
      </trkpt>
      <trkpt lat="46.49351" lon="-1.79316">
        <ele>6.5</ele>
        <time>2021-09-25T12:25:47Z</time>
      </trkpt>
      <trkpt lat="46.49351" lon="-1.79317">
        <ele>6.5</ele>
        <time>2021-09-25T12:25:48Z</time>
      </trkpt>
      <trkpt lat="46.4935" lon="-1.79319">
        <ele>6.4</ele>
        <time>2021-09-25T12:25:49Z</time>
      </trkpt>
      <trkpt lat="46.4935" lon="-1.7932">
        <ele>6.4</ele>
        <time>2021-09-25T12:25:50Z</time>
      </trkpt>
      <trkpt lat="46.4935" lon="-1.79322">
        <ele>6.4</ele>
        <time>2021-09-25T12:25:51Z</time>
      </trkpt>
      <trkpt lat="46.49349" lon="-1.79323">
        <ele>6.3</ele>
        <time>2021-09-25T12:25:52Z</time>
      </trkpt>
      <trkpt lat="46.49348" lon="-1.79324">
        <ele>6.2</ele>
        <time>2021-09-25T12:25:53Z</time>
      </trkpt>
      <trkpt lat="46.49348" lon="-1.79326">
        <ele>6.3</ele>
        <time>2021-09-25T12:25:54Z</time>
      </trkpt>
      <trkpt lat="46.49347" lon="-1.79327">
        <ele>6.1</ele>
        <time>2021-09-25T12:25:55Z</time>
      </trkpt>
      <trkpt lat="46.49346" lon="-1.79328">
        <ele>6.1</ele>
        <time>2021-09-25T12:25:56Z</time>
      </trkpt>
      <trkpt lat="46.49345" lon="-1.79329">
        <ele>6.1</ele>
        <time>2021-09-25T12:25:57Z</time>
      </trkpt>
      <trkpt lat="46.49345" lon="-1.79331">
        <ele>6</ele>
        <time>2021-09-25T12:25:58Z</time>
      </trkpt>
      <trkpt lat="46.49344" lon="-1.79332">
        <ele>6</ele>
        <time>2021-09-25T12:25:59Z</time>
      </trkpt>
      <trkpt lat="46.49344" lon="-1.79333">
        <ele>6</ele>
        <time>2021-09-25T12:26:00Z</time>
      </trkpt>
      <trkpt lat="46.49343" lon="-1.79335">
        <ele>5.9</ele>
        <time>2021-09-25T12:26:01Z</time>
      </trkpt>
      <trkpt lat="46.49343" lon="-1.79336">
        <ele>5.9</ele>
        <time>2021-09-25T12:26:02Z</time>
      </trkpt>
      <trkpt lat="46.49343" lon="-1.79338">
        <ele>5.9</ele>
        <time>2021-09-25T12:26:03Z</time>
      </trkpt>
      <trkpt lat="46.49343" lon="-1.79339">
        <ele>5.9</ele>
        <time>2021-09-25T12:26:04Z</time>
      </trkpt>
      <trkpt lat="46.49343" lon="-1.79341">
        <ele>5.9</ele>
        <time>2021-09-25T12:26:05Z</time>
      </trkpt>
      <trkpt lat="46.49343" lon="-1.79343">
        <ele>5.9</ele>
        <time>2021-09-25T12:26:06Z</time>
      </trkpt>
      <trkpt lat="46.49343" lon="-1.79344">
        <ele>6</ele>
        <time>2021-09-25T12:26:07Z</time>
      </trkpt>
      <trkpt lat="46.49343" lon="-1.79346">
        <ele>5.9</ele>
        <time>2021-09-25T12:26:08Z</time>
      </trkpt>
      <trkpt lat="46.49343" lon="-1.79347">
        <ele>5.9</ele>
        <time>2021-09-25T12:26:09Z</time>
      </trkpt>
      <trkpt lat="46.49342" lon="-1.79349">
        <ele>6</ele>
        <time>2021-09-25T12:26:10Z</time>
      </trkpt>
      <trkpt lat="46.49342" lon="-1.7935">
        <ele>6</ele>
        <time>2021-09-25T12:26:11Z</time>
      </trkpt>
      <trkpt lat="46.49341" lon="-1.79352">
        <ele>6</ele>
        <time>2021-09-25T12:26:12Z</time>
      </trkpt>
      <trkpt lat="46.49341" lon="-1.79353">
        <ele>6</ele>
        <time>2021-09-25T12:26:13Z</time>
      </trkpt>
      <trkpt lat="46.49341" lon="-1.79354">
        <ele>6</ele>
        <time>2021-09-25T12:26:14Z</time>
      </trkpt>
      <trkpt lat="46.49341" lon="-1.79355">
        <ele>6</ele>
        <time>2021-09-25T12:26:15Z</time>
      </trkpt>
      <trkpt lat="46.49341" lon="-1.79356">
        <ele>6</ele>
        <time>2021-09-25T12:26:16Z</time>
      </trkpt>
      <trkpt lat="46.49341" lon="-1.79356">
        <ele>6</ele>
        <time>2021-09-25T12:26:17Z</time>
      </trkpt>
      <trkpt lat="46.49342" lon="-1.79357">
        <ele>6</ele>
        <time>2021-09-25T12:26:18Z</time>
      </trkpt>
      <trkpt lat="46.49342" lon="-1.79357">
        <ele>6</ele>
        <time>2021-09-25T12:26:19Z</time>
      </trkpt>
      <trkpt lat="46.49342" lon="-1.79357">
        <ele>6</ele>
        <time>2021-09-25T12:26:20Z</time>
      </trkpt>
      <trkpt lat="46.49342" lon="-1.79357">
        <ele>6</ele>
        <time>2021-09-25T12:26:21Z</time>
      </trkpt>
      <trkpt lat="46.49342" lon="-1.79357">
        <ele>6</ele>
        <time>2021-09-25T12:26:22Z</time>
      </trkpt>
      <trkpt lat="46.49342" lon="-1.79357">
        <ele>6</ele>
        <time>2021-09-25T12:26:23Z</time>
      </trkpt>
      <trkpt lat="46.49343" lon="-1.79357">
        <ele>6</ele>
        <time>2021-09-25T12:26:24Z</time>
      </trkpt>
      <trkpt lat="46.49343" lon="-1.79358">
        <ele>6</ele>
        <time>2021-09-25T12:26:25Z</time>
      </trkpt>
      <trkpt lat="46.49343" lon="-1.79359">
        <ele>6</ele>
        <time>2021-09-25T12:26:26Z</time>
      </trkpt>
      <trkpt lat="46.49343" lon="-1.7936">
        <ele>6</ele>
        <time>2021-09-25T12:26:27Z</time>
      </trkpt>
      <trkpt lat="46.49343" lon="-1.79361">
        <ele>6</ele>
        <time>2021-09-25T12:26:28Z</time>
      </trkpt>
      <trkpt lat="46.49343" lon="-1.79362">
        <ele>6</ele>
        <time>2021-09-25T12:26:29Z</time>
      </trkpt>
      <trkpt lat="46.49343" lon="-1.79363">
        <ele>6</ele>
        <time>2021-09-25T12:26:30Z</time>
      </trkpt>
      <trkpt lat="46.49343" lon="-1.79363">
        <ele>6</ele>
        <time>2021-09-25T12:26:31Z</time>
      </trkpt>
      <trkpt lat="46.49343" lon="-1.79363">
        <ele>6</ele>
        <time>2021-09-25T12:26:32Z</time>
      </trkpt>
      <trkpt lat="46.49344" lon="-1.79363">
        <ele>6</ele>
        <time>2021-09-25T12:26:33Z</time>
      </trkpt>
      <trkpt lat="46.49344" lon="-1.79363">
        <ele>6</ele>
        <time>2021-09-25T12:26:34Z</time>
      </trkpt>
      <trkpt lat="46.49345" lon="-1.79363">
        <ele>6</ele>
        <time>2021-09-25T12:26:35Z</time>
      </trkpt>
      <trkpt lat="46.49346" lon="-1.79363">
        <ele>6</ele>
        <time>2021-09-25T12:26:36Z</time>
      </trkpt>
      <trkpt lat="46.49347" lon="-1.79363">
        <ele>6</ele>
        <time>2021-09-25T12:26:37Z</time>
      </trkpt>
      <trkpt lat="46.49347" lon="-1.79363">
        <ele>6</ele>
        <time>2021-09-25T12:26:38Z</time>
      </trkpt>
      <trkpt lat="46.49348" lon="-1.79363">
        <ele>6</ele>
        <time>2021-09-25T12:26:39Z</time>
      </trkpt>
      <trkpt lat="46.49348" lon="-1.79362">
        <ele>6</ele>
        <time>2021-09-25T12:26:40Z</time>
      </trkpt>
      <trkpt lat="46.49348" lon="-1.79362">
        <ele>6</ele>
        <time>2021-09-25T12:26:41Z</time>
      </trkpt>
      <trkpt lat="46.49349" lon="-1.79362">
        <ele>6</ele>
        <time>2021-09-25T12:26:42Z</time>
      </trkpt>
      <trkpt lat="46.4935" lon="-1.79362">
        <ele>6</ele>
        <time>2021-09-25T12:26:43Z</time>
      </trkpt>
      <trkpt lat="46.4935" lon="-1.79362">
        <ele>6</ele>
        <time>2021-09-25T12:26:44Z</time>
      </trkpt>
      <trkpt lat="46.49352" lon="-1.79362">
        <ele>6</ele>
        <time>2021-09-25T12:26:45Z</time>
      </trkpt>
      <trkpt lat="46.49353" lon="-1.79363">
        <ele>6</ele>
        <time>2021-09-25T12:26:46Z</time>
      </trkpt>
      <trkpt lat="46.49354" lon="-1.79363">
        <ele>6</ele>
        <time>2021-09-25T12:26:47Z</time>
      </trkpt>
      <trkpt lat="46.49355" lon="-1.79363">
        <ele>6</ele>
        <time>2021-09-25T12:26:48Z</time>
      </trkpt>
      <trkpt lat="46.49356" lon="-1.79364">
        <ele>6</ele>
        <time>2021-09-25T12:26:49Z</time>
      </trkpt>
      <trkpt lat="46.49357" lon="-1.79364">
        <ele>6</ele>
        <time>2021-09-25T12:26:50Z</time>
      </trkpt>
      <trkpt lat="46.49358" lon="-1.79365">
        <ele>6</ele>
        <time>2021-09-25T12:26:51Z</time>
      </trkpt>
      <trkpt lat="46.49359" lon="-1.79365">
        <ele>6</ele>
        <time>2021-09-25T12:26:52Z</time>
      </trkpt>
      <trkpt lat="46.4936" lon="-1.79366">
        <ele>6</ele>
        <time>2021-09-25T12:26:53Z</time>
      </trkpt>
      <trkpt lat="46.49361" lon="-1.79366">
        <ele>6</ele>
        <time>2021-09-25T12:26:54Z</time>
      </trkpt>
      <trkpt lat="46.49362" lon="-1.79367">
        <ele>6</ele>
        <time>2021-09-25T12:26:55Z</time>
      </trkpt>
      <trkpt lat="46.49363" lon="-1.79367">
        <ele>6</ele>
        <time>2021-09-25T12:26:56Z</time>
      </trkpt>
      <trkpt lat="46.49364" lon="-1.79368">
        <ele>6</ele>
        <time>2021-09-25T12:26:57Z</time>
      </trkpt>
      <trkpt lat="46.49365" lon="-1.79368">
        <ele>6.1</ele>
        <time>2021-09-25T12:26:58Z</time>
      </trkpt>
      <trkpt lat="46.49366" lon="-1.79369">
        <ele>6.1</ele>
        <time>2021-09-25T12:26:59Z</time>
      </trkpt>
      <trkpt lat="46.49367" lon="-1.79369">
        <ele>6.1</ele>
        <time>2021-09-25T12:27:00Z</time>
      </trkpt>
      <trkpt lat="46.49368" lon="-1.79369">
        <ele>6.1</ele>
        <time>2021-09-25T12:27:01Z</time>
      </trkpt>
      <trkpt lat="46.49369" lon="-1.7937">
        <ele>6.1</ele>
        <time>2021-09-25T12:27:02Z</time>
      </trkpt>
      <trkpt lat="46.4937" lon="-1.7937">
        <ele>6.1</ele>
        <time>2021-09-25T12:27:03Z</time>
      </trkpt>
      <trkpt lat="46.49371" lon="-1.7937">
        <ele>6.1</ele>
        <time>2021-09-25T12:27:04Z</time>
      </trkpt>
      <trkpt lat="46.49372" lon="-1.79371">
        <ele>6.1</ele>
        <time>2021-09-25T12:27:05Z</time>
      </trkpt>
      <trkpt lat="46.49373" lon="-1.79371">
        <ele>6.1</ele>
        <time>2021-09-25T12:27:06Z</time>
      </trkpt>
      <trkpt lat="46.49374" lon="-1.79371">
        <ele>6.1</ele>
        <time>2021-09-25T12:27:07Z</time>
      </trkpt>
      <trkpt lat="46.49375" lon="-1.79372">
        <ele>6.1</ele>
        <time>2021-09-25T12:27:08Z</time>
      </trkpt>
      <trkpt lat="46.49376" lon="-1.79372">
        <ele>6.1</ele>
        <time>2021-09-25T12:27:09Z</time>
      </trkpt>
      <trkpt lat="46.49377" lon="-1.79372">
        <ele>6.1</ele>
        <time>2021-09-25T12:27:10Z</time>
      </trkpt>
      <trkpt lat="46.49378" lon="-1.79372">
        <ele>6.1</ele>
        <time>2021-09-25T12:27:11Z</time>
      </trkpt>
      <trkpt lat="46.49379" lon="-1.79373">
        <ele>6.1</ele>
        <time>2021-09-25T12:27:12Z</time>
      </trkpt>
      <trkpt lat="46.49381" lon="-1.79373">
        <ele>6.1</ele>
        <time>2021-09-25T12:27:13Z</time>
      </trkpt>
      <trkpt lat="46.49382" lon="-1.79374">
        <ele>6.1</ele>
        <time>2021-09-25T12:27:14Z</time>
      </trkpt>
      <trkpt lat="46.49383" lon="-1.79374">
        <ele>6.1</ele>
        <time>2021-09-25T12:27:15Z</time>
      </trkpt>
      <trkpt lat="46.49384" lon="-1.79375">
        <ele>6.1</ele>
        <time>2021-09-25T12:27:16Z</time>
      </trkpt>
      <trkpt lat="46.49385" lon="-1.79375">
        <ele>6.1</ele>
        <time>2021-09-25T12:27:17Z</time>
      </trkpt>
      <trkpt lat="46.49386" lon="-1.79376">
        <ele>6.1</ele>
        <time>2021-09-25T12:27:18Z</time>
      </trkpt>
      <trkpt lat="46.49387" lon="-1.79376">
        <ele>6.1</ele>
        <time>2021-09-25T12:27:19Z</time>
      </trkpt>
      <trkpt lat="46.49388" lon="-1.79377">
        <ele>6.1</ele>
        <time>2021-09-25T12:27:20Z</time>
      </trkpt>
      <trkpt lat="46.49389" lon="-1.79378">
        <ele>6.1</ele>
        <time>2021-09-25T12:27:21Z</time>
      </trkpt>
      <trkpt lat="46.4939" lon="-1.79378">
        <ele>6.1</ele>
        <time>2021-09-25T12:27:22Z</time>
      </trkpt>
      <trkpt lat="46.49392" lon="-1.79379">
        <ele>6.1</ele>
        <time>2021-09-25T12:27:23Z</time>
      </trkpt>
      <trkpt lat="46.49393" lon="-1.79379">
        <ele>6.1</ele>
        <time>2021-09-25T12:27:24Z</time>
      </trkpt>
      <trkpt lat="46.49394" lon="-1.7938">
        <ele>6.1</ele>
        <time>2021-09-25T12:27:25Z</time>
      </trkpt>
      <trkpt lat="46.49395" lon="-1.7938">
        <ele>6.2</ele>
        <time>2021-09-25T12:27:26Z</time>
      </trkpt>
      <trkpt lat="46.49396" lon="-1.7938">
        <ele>6.2</ele>
        <time>2021-09-25T12:27:27Z</time>
      </trkpt>
      <trkpt lat="46.49397" lon="-1.79381">
        <ele>6.2</ele>
        <time>2021-09-25T12:27:28Z</time>
      </trkpt>
      <trkpt lat="46.49398" lon="-1.79381">
        <ele>6.2</ele>
        <time>2021-09-25T12:27:29Z</time>
      </trkpt>
      <trkpt lat="46.49399" lon="-1.79381">
        <ele>6.2</ele>
        <time>2021-09-25T12:27:30Z</time>
      </trkpt>
      <trkpt lat="46.494" lon="-1.79382">
        <ele>6.2</ele>
        <time>2021-09-25T12:27:31Z</time>
      </trkpt>
      <trkpt lat="46.49401" lon="-1.79382">
        <ele>6.2</ele>
        <time>2021-09-25T12:27:32Z</time>
      </trkpt>
      <trkpt lat="46.49402" lon="-1.79382">
        <ele>6.2</ele>
        <time>2021-09-25T12:27:33Z</time>
      </trkpt>
      <trkpt lat="46.49402" lon="-1.79382">
        <ele>6.2</ele>
        <time>2021-09-25T12:27:34Z</time>
      </trkpt>
      <trkpt lat="46.49403" lon="-1.79382">
        <ele>6.1</ele>
        <time>2021-09-25T12:27:35Z</time>
      </trkpt>
      <trkpt lat="46.49403" lon="-1.79382">
        <ele>6.1</ele>
        <time>2021-09-25T12:27:36Z</time>
      </trkpt>
      <trkpt lat="46.49403" lon="-1.79383">
        <ele>6.1</ele>
        <time>2021-09-25T12:27:37Z</time>
      </trkpt>
      <trkpt lat="46.49403" lon="-1.79383">
        <ele>6.1</ele>
        <time>2021-09-25T12:27:38Z</time>
      </trkpt>
      <trkpt lat="46.49403" lon="-1.79383">
        <ele>6.1</ele>
        <time>2021-09-25T12:27:39Z</time>
      </trkpt>
      <trkpt lat="46.49403" lon="-1.79383">
        <ele>6.1</ele>
        <time>2021-09-25T12:27:40Z</time>
      </trkpt>
      <trkpt lat="46.49403" lon="-1.79383">
        <ele>6.1</ele>
        <time>2021-09-25T12:27:41Z</time>
      </trkpt>
      <trkpt lat="46.49403" lon="-1.79383">
        <ele>6.1</ele>
        <time>2021-09-25T12:27:42Z</time>
      </trkpt>
      <trkpt lat="46.49403" lon="-1.79383">
        <ele>6.1</ele>
        <time>2021-09-25T12:27:43Z</time>
      </trkpt>
      <trkpt lat="46.49403" lon="-1.79383">
        <ele>6.1</ele>
        <time>2021-09-25T12:27:44Z</time>
      </trkpt>
      <trkpt lat="46.49403" lon="-1.79383">
        <ele>6.1</ele>
        <time>2021-09-25T12:27:45Z</time>
      </trkpt>
      <trkpt lat="46.49403" lon="-1.79383">
        <ele>6.1</ele>
        <time>2021-09-25T12:27:46Z</time>
      </trkpt>
      <trkpt lat="46.49403" lon="-1.79383">
        <ele>6.1</ele>
        <time>2021-09-25T12:27:47Z</time>
      </trkpt>
      <trkpt lat="46.49403" lon="-1.79383">
        <ele>6.1</ele>
        <time>2021-09-25T12:27:48Z</time>
      </trkpt>
      <trkpt lat="46.49403" lon="-1.79383">
        <ele>6.1</ele>
        <time>2021-09-25T12:27:49Z</time>
      </trkpt>
      <trkpt lat="46.49403" lon="-1.79383">
        <ele>6.1</ele>
        <time>2021-09-25T12:27:50Z</time>
      </trkpt>
      <trkpt lat="46.49403" lon="-1.79383">
        <ele>6.1</ele>
        <time>2021-09-25T12:27:51Z</time>
      </trkpt>
      <trkpt lat="46.49403" lon="-1.79383">
        <ele>6.1</ele>
        <time>2021-09-25T12:27:52Z</time>
      </trkpt>
      <trkpt lat="46.49403" lon="-1.79383">
        <ele>6.1</ele>
        <time>2021-09-25T12:27:53Z</time>
      </trkpt>
      <trkpt lat="46.49403" lon="-1.79383">
        <ele>6.1</ele>
        <time>2021-09-25T12:27:54Z</time>
      </trkpt>
      <trkpt lat="46.49403" lon="-1.79383">
        <ele>6.1</ele>
        <time>2021-09-25T12:27:55Z</time>
      </trkpt>
      <trkpt lat="46.49403" lon="-1.79383">
        <ele>6.1</ele>
        <time>2021-09-25T12:27:56Z</time>
      </trkpt>
      <trkpt lat="46.49403" lon="-1.79383">
        <ele>6.1</ele>
        <time>2021-09-25T12:27:57Z</time>
      </trkpt>
      <trkpt lat="46.49403" lon="-1.79383">
        <ele>6.1</ele>
        <time>2021-09-25T12:27:58Z</time>
      </trkpt>
      <trkpt lat="46.49403" lon="-1.79383">
        <ele>6.1</ele>
        <time>2021-09-25T12:27:59Z</time>
      </trkpt>
      <trkpt lat="46.49403" lon="-1.79383">
        <ele>6.1</ele>
        <time>2021-09-25T12:28:00Z</time>
      </trkpt>
      <trkpt lat="46.49403" lon="-1.79383">
        <ele>6.1</ele>
        <time>2021-09-25T12:28:01Z</time>
      </trkpt>
      <trkpt lat="46.49403" lon="-1.79383">
        <ele>6.1</ele>
        <time>2021-09-25T12:28:02Z</time>
      </trkpt>
      <trkpt lat="46.49403" lon="-1.79383">
        <ele>6.1</ele>
        <time>2021-09-25T12:28:03Z</time>
      </trkpt>
      <trkpt lat="46.49403" lon="-1.79383">
        <ele>6.1</ele>
        <time>2021-09-25T12:28:04Z</time>
      </trkpt>
      <trkpt lat="46.49403" lon="-1.79383">
        <ele>6.1</ele>
        <time>2021-09-25T12:28:05Z</time>
      </trkpt>
      <trkpt lat="46.49403" lon="-1.79383">
        <ele>6.1</ele>
        <time>2021-09-25T12:28:06Z</time>
      </trkpt>
      <trkpt lat="46.49403" lon="-1.79383">
        <ele>6.1</ele>
        <time>2021-09-25T12:28:07Z</time>
      </trkpt>
      <trkpt lat="46.49403" lon="-1.79383">
        <ele>6.1</ele>
        <time>2021-09-25T12:28:08Z</time>
      </trkpt>
      <trkpt lat="46.49403" lon="-1.79383">
        <ele>6.1</ele>
        <time>2021-09-25T12:28:09Z</time>
      </trkpt>
      <trkpt lat="46.49403" lon="-1.79383">
        <ele>6.1</ele>
        <time>2021-09-25T12:28:10Z</time>
      </trkpt>
      <trkpt lat="46.49403" lon="-1.79383">
        <ele>6.1</ele>
        <time>2021-09-25T12:28:11Z</time>
      </trkpt>
      <trkpt lat="46.49403" lon="-1.79383">
        <ele>6.1</ele>
        <time>2021-09-25T12:28:12Z</time>
      </trkpt>
      <trkpt lat="46.49403" lon="-1.79383">
        <ele>6.1</ele>
        <time>2021-09-25T12:28:13Z</time>
      </trkpt>
      <trkpt lat="46.49403" lon="-1.79383">
        <ele>6.1</ele>
        <time>2021-09-25T12:28:14Z</time>
      </trkpt>
      <trkpt lat="46.49403" lon="-1.79383">
        <ele>6.1</ele>
        <time>2021-09-25T12:28:15Z</time>
      </trkpt>
      <trkpt lat="46.49403" lon="-1.79383">
        <ele>6.1</ele>
        <time>2021-09-25T12:28:16Z</time>
      </trkpt>
      <trkpt lat="46.49403" lon="-1.79383">
        <ele>6.1</ele>
        <time>2021-09-25T12:28:17Z</time>
      </trkpt>
      <trkpt lat="46.49403" lon="-1.79383">
        <ele>6.1</ele>
        <time>2021-09-25T12:28:18Z</time>
      </trkpt>
      <trkpt lat="46.49403" lon="-1.79383">
        <ele>6.1</ele>
        <time>2021-09-25T12:28:19Z</time>
      </trkpt>
      <trkpt lat="46.49403" lon="-1.79383">
        <ele>6.1</ele>
        <time>2021-09-25T12:28:20Z</time>
      </trkpt>
      <trkpt lat="46.49403" lon="-1.79383">
        <ele>6.1</ele>
        <time>2021-09-25T12:28:21Z</time>
      </trkpt>
      <trkpt lat="46.49403" lon="-1.79383">
        <ele>6.1</ele>
        <time>2021-09-25T12:28:22Z</time>
      </trkpt>
      <trkpt lat="46.49403" lon="-1.79383">
        <ele>6.1</ele>
        <time>2021-09-25T12:28:23Z</time>
      </trkpt>
      <trkpt lat="46.49403" lon="-1.79383">
        <ele>6.1</ele>
        <time>2021-09-25T12:28:24Z</time>
      </trkpt>
      <trkpt lat="46.49403" lon="-1.79383">
        <ele>6.1</ele>
        <time>2021-09-25T12:28:25Z</time>
      </trkpt>
      <trkpt lat="46.49404" lon="-1.79383">
        <ele>6.1</ele>
        <time>2021-09-25T12:28:26Z</time>
      </trkpt>
      <trkpt lat="46.49404" lon="-1.79383">
        <ele>6.1</ele>
        <time>2021-09-25T12:28:27Z</time>
      </trkpt>
      <trkpt lat="46.49404" lon="-1.79383">
        <ele>6.1</ele>
        <time>2021-09-25T12:28:28Z</time>
      </trkpt>
      <trkpt lat="46.49404" lon="-1.79383">
        <ele>6.1</ele>
        <time>2021-09-25T12:28:29Z</time>
      </trkpt>
      <trkpt lat="46.49404" lon="-1.79383">
        <ele>6.1</ele>
        <time>2021-09-25T12:28:30Z</time>
      </trkpt>
      <trkpt lat="46.49405" lon="-1.79383">
        <ele>6.1</ele>
        <time>2021-09-25T12:28:31Z</time>
      </trkpt>
      <trkpt lat="46.49405" lon="-1.79384">
        <ele>6.1</ele>
        <time>2021-09-25T12:28:32Z</time>
      </trkpt>
      <trkpt lat="46.49405" lon="-1.79384">
        <ele>6.1</ele>
        <time>2021-09-25T12:28:33Z</time>
      </trkpt>
      <trkpt lat="46.49406" lon="-1.79384">
        <ele>6.1</ele>
        <time>2021-09-25T12:28:34Z</time>
      </trkpt>
      <trkpt lat="46.49406" lon="-1.79384">
        <ele>6</ele>
        <time>2021-09-25T12:28:35Z</time>
      </trkpt>
      <trkpt lat="46.49406" lon="-1.79384">
        <ele>6</ele>
        <time>2021-09-25T12:28:36Z</time>
      </trkpt>
      <trkpt lat="46.49407" lon="-1.79384">
        <ele>6</ele>
        <time>2021-09-25T12:28:37Z</time>
      </trkpt>
      <trkpt lat="46.49407" lon="-1.79384">
        <ele>6</ele>
        <time>2021-09-25T12:28:38Z</time>
      </trkpt>
      <trkpt lat="46.49407" lon="-1.79384">
        <ele>6</ele>
        <time>2021-09-25T12:28:39Z</time>
      </trkpt>
      <trkpt lat="46.49408" lon="-1.79385">
        <ele>5.9</ele>
        <time>2021-09-25T12:28:40Z</time>
      </trkpt>
      <trkpt lat="46.49408" lon="-1.79385">
        <ele>5.9</ele>
        <time>2021-09-25T12:28:41Z</time>
      </trkpt>
      <trkpt lat="46.49408" lon="-1.79386">
        <ele>5.9</ele>
        <time>2021-09-25T12:28:42Z</time>
      </trkpt>
      <trkpt lat="46.49409" lon="-1.79387">
        <ele>5.8</ele>
        <time>2021-09-25T12:28:43Z</time>
      </trkpt>
      <trkpt lat="46.49409" lon="-1.79388">
        <ele>5.8</ele>
        <time>2021-09-25T12:28:44Z</time>
      </trkpt>
      <trkpt lat="46.4941" lon="-1.79389">
        <ele>5.8</ele>
        <time>2021-09-25T12:28:45Z</time>
      </trkpt>
      <trkpt lat="46.4941" lon="-1.7939">
        <ele>5.8</ele>
        <time>2021-09-25T12:28:46Z</time>
      </trkpt>
      <trkpt lat="46.49411" lon="-1.79392">
        <ele>5.8</ele>
        <time>2021-09-25T12:28:47Z</time>
      </trkpt>
      <trkpt lat="46.49411" lon="-1.79393">
        <ele>5.8</ele>
        <time>2021-09-25T12:28:48Z</time>
      </trkpt>
      <trkpt lat="46.49412" lon="-1.79394">
        <ele>5.8</ele>
        <time>2021-09-25T12:28:49Z</time>
      </trkpt>
      <trkpt lat="46.49412" lon="-1.79396">
        <ele>5.8</ele>
        <time>2021-09-25T12:28:50Z</time>
      </trkpt>
      <trkpt lat="46.49413" lon="-1.79397">
        <ele>5.8</ele>
        <time>2021-09-25T12:28:51Z</time>
      </trkpt>
      <trkpt lat="46.49414" lon="-1.79399">
        <ele>5.7</ele>
        <time>2021-09-25T12:28:52Z</time>
      </trkpt>
      <trkpt lat="46.49414" lon="-1.794">
        <ele>5.7</ele>
        <time>2021-09-25T12:28:53Z</time>
      </trkpt>
      <trkpt lat="46.49415" lon="-1.79402">
        <ele>5.7</ele>
        <time>2021-09-25T12:28:54Z</time>
      </trkpt>
      <trkpt lat="46.49416" lon="-1.79403">
        <ele>5.7</ele>
        <time>2021-09-25T12:28:55Z</time>
      </trkpt>
      <trkpt lat="46.49417" lon="-1.79404">
        <ele>5.7</ele>
        <time>2021-09-25T12:28:56Z</time>
      </trkpt>
      <trkpt lat="46.49417" lon="-1.79406">
        <ele>5.7</ele>
        <time>2021-09-25T12:28:57Z</time>
      </trkpt>
      <trkpt lat="46.49418" lon="-1.79407">
        <ele>5.7</ele>
        <time>2021-09-25T12:28:58Z</time>
      </trkpt>
      <trkpt lat="46.4942" lon="-1.79409">
        <ele>5.7</ele>
        <time>2021-09-25T12:28:59Z</time>
      </trkpt>
      <trkpt lat="46.4942" lon="-1.7941">
        <ele>5.7</ele>
        <time>2021-09-25T12:29:00Z</time>
      </trkpt>
      <trkpt lat="46.49421" lon="-1.7941">
        <ele>5.7</ele>
        <time>2021-09-25T12:29:01Z</time>
      </trkpt>
      <trkpt lat="46.49421" lon="-1.79411">
        <ele>5.7</ele>
        <time>2021-09-25T12:29:02Z</time>
      </trkpt>
      <trkpt lat="46.49422" lon="-1.79412">
        <ele>5.7</ele>
        <time>2021-09-25T12:29:03Z</time>
      </trkpt>
      <trkpt lat="46.49422" lon="-1.79412">
        <ele>5.7</ele>
        <time>2021-09-25T12:29:04Z</time>
      </trkpt>
      <trkpt lat="46.49423" lon="-1.79413">
        <ele>5.7</ele>
        <time>2021-09-25T12:29:05Z</time>
      </trkpt>
      <trkpt lat="46.49423" lon="-1.79414">
        <ele>5.7</ele>
        <time>2021-09-25T12:29:06Z</time>
      </trkpt>
      <trkpt lat="46.49424" lon="-1.79415">
        <ele>5.7</ele>
        <time>2021-09-25T12:29:07Z</time>
      </trkpt>
      <trkpt lat="46.49425" lon="-1.79415">
        <ele>5.6</ele>
        <time>2021-09-25T12:29:08Z</time>
      </trkpt>
      <trkpt lat="46.49425" lon="-1.79416">
        <ele>5.6</ele>
        <time>2021-09-25T12:29:09Z</time>
      </trkpt>
      <trkpt lat="46.49426" lon="-1.79417">
        <ele>5.6</ele>
        <time>2021-09-25T12:29:10Z</time>
      </trkpt>
      <trkpt lat="46.49426" lon="-1.79417">
        <ele>5.6</ele>
        <time>2021-09-25T12:29:11Z</time>
      </trkpt>
      <trkpt lat="46.49427" lon="-1.79418">
        <ele>5.6</ele>
        <time>2021-09-25T12:29:12Z</time>
      </trkpt>
      <trkpt lat="46.49427" lon="-1.79419">
        <ele>5.6</ele>
        <time>2021-09-25T12:29:13Z</time>
      </trkpt>
      <trkpt lat="46.49428" lon="-1.79419">
        <ele>5.6</ele>
        <time>2021-09-25T12:29:14Z</time>
      </trkpt>
      <trkpt lat="46.49428" lon="-1.7942">
        <ele>5.6</ele>
        <time>2021-09-25T12:29:15Z</time>
      </trkpt>
      <trkpt lat="46.49429" lon="-1.79421">
        <ele>5.6</ele>
        <time>2021-09-25T12:29:16Z</time>
      </trkpt>
      <trkpt lat="46.4943" lon="-1.79421">
        <ele>5.6</ele>
        <time>2021-09-25T12:29:17Z</time>
      </trkpt>
      <trkpt lat="46.4943" lon="-1.79422">
        <ele>5.6</ele>
        <time>2021-09-25T12:29:18Z</time>
      </trkpt>
      <trkpt lat="46.49431" lon="-1.79423">
        <ele>5.6</ele>
        <time>2021-09-25T12:29:19Z</time>
      </trkpt>
      <trkpt lat="46.49431" lon="-1.79424">
        <ele>5.6</ele>
        <time>2021-09-25T12:29:20Z</time>
      </trkpt>
      <trkpt lat="46.49432" lon="-1.79424">
        <ele>5.6</ele>
        <time>2021-09-25T12:29:21Z</time>
      </trkpt>
      <trkpt lat="46.49432" lon="-1.79425">
        <ele>5.6</ele>
        <time>2021-09-25T12:29:22Z</time>
      </trkpt>
      <trkpt lat="46.49433" lon="-1.79426">
        <ele>5.6</ele>
        <time>2021-09-25T12:29:23Z</time>
      </trkpt>
      <trkpt lat="46.49433" lon="-1.79426">
        <ele>5.6</ele>
        <time>2021-09-25T12:29:24Z</time>
      </trkpt>
      <trkpt lat="46.49434" lon="-1.79427">
        <ele>5.6</ele>
        <time>2021-09-25T12:29:25Z</time>
      </trkpt>
      <trkpt lat="46.49435" lon="-1.79428">
        <ele>5.6</ele>
        <time>2021-09-25T12:29:26Z</time>
      </trkpt>
      <trkpt lat="46.49435" lon="-1.79428">
        <ele>5.6</ele>
        <time>2021-09-25T12:29:27Z</time>
      </trkpt>
      <trkpt lat="46.49436" lon="-1.79429">
        <ele>5.6</ele>
        <time>2021-09-25T12:29:28Z</time>
      </trkpt>
      <trkpt lat="46.49436" lon="-1.7943">
        <ele>5.5</ele>
        <time>2021-09-25T12:29:29Z</time>
      </trkpt>
      <trkpt lat="46.49437" lon="-1.7943">
        <ele>5.5</ele>
        <time>2021-09-25T12:29:30Z</time>
      </trkpt>
      <trkpt lat="46.49437" lon="-1.79431">
        <ele>5.5</ele>
        <time>2021-09-25T12:29:31Z</time>
      </trkpt>
      <trkpt lat="46.49438" lon="-1.79432">
        <ele>5.5</ele>
        <time>2021-09-25T12:29:32Z</time>
      </trkpt>
      <trkpt lat="46.49439" lon="-1.79433">
        <ele>5.5</ele>
        <time>2021-09-25T12:29:33Z</time>
      </trkpt>
      <trkpt lat="46.49439" lon="-1.79433">
        <ele>5.5</ele>
        <time>2021-09-25T12:29:34Z</time>
      </trkpt>
      <trkpt lat="46.4944" lon="-1.79434">
        <ele>5.5</ele>
        <time>2021-09-25T12:29:35Z</time>
      </trkpt>
      <trkpt lat="46.4944" lon="-1.79435">
        <ele>5.5</ele>
        <time>2021-09-25T12:29:36Z</time>
      </trkpt>
      <trkpt lat="46.49441" lon="-1.79435">
        <ele>5.5</ele>
        <time>2021-09-25T12:29:37Z</time>
      </trkpt>
      <trkpt lat="46.49441" lon="-1.79436">
        <ele>5.5</ele>
        <time>2021-09-25T12:29:38Z</time>
      </trkpt>
      <trkpt lat="46.49442" lon="-1.79437">
        <ele>5.5</ele>
        <time>2021-09-25T12:29:39Z</time>
      </trkpt>
      <trkpt lat="46.49442" lon="-1.79437">
        <ele>5.5</ele>
        <time>2021-09-25T12:29:40Z</time>
      </trkpt>
      <trkpt lat="46.49443" lon="-1.79438">
        <ele>5.5</ele>
        <time>2021-09-25T12:29:41Z</time>
      </trkpt>
      <trkpt lat="46.49444" lon="-1.79439">
        <ele>5.5</ele>
        <time>2021-09-25T12:29:42Z</time>
      </trkpt>
      <trkpt lat="46.49445" lon="-1.79439">
        <ele>5.5</ele>
        <time>2021-09-25T12:29:43Z</time>
      </trkpt>
      <trkpt lat="46.49446" lon="-1.7944">
        <ele>5.5</ele>
        <time>2021-09-25T12:29:44Z</time>
      </trkpt>
      <trkpt lat="46.49447" lon="-1.7944">
        <ele>5.5</ele>
        <time>2021-09-25T12:29:45Z</time>
      </trkpt>
      <trkpt lat="46.49448" lon="-1.79441">
        <ele>5.5</ele>
        <time>2021-09-25T12:29:46Z</time>
      </trkpt>
      <trkpt lat="46.4945" lon="-1.79441">
        <ele>5.4</ele>
        <time>2021-09-25T12:29:47Z</time>
      </trkpt>
      <trkpt lat="46.49451" lon="-1.79441">
        <ele>5.4</ele>
        <time>2021-09-25T12:29:48Z</time>
      </trkpt>
      <trkpt lat="46.49452" lon="-1.79442">
        <ele>5.4</ele>
        <time>2021-09-25T12:29:49Z</time>
      </trkpt>
      <trkpt lat="46.49453" lon="-1.79442">
        <ele>5.4</ele>
        <time>2021-09-25T12:29:50Z</time>
      </trkpt>
      <trkpt lat="46.49454" lon="-1.79443">
        <ele>5.4</ele>
        <time>2021-09-25T12:29:51Z</time>
      </trkpt>
      <trkpt lat="46.49455" lon="-1.79443">
        <ele>5.4</ele>
        <time>2021-09-25T12:29:52Z</time>
      </trkpt>
      <trkpt lat="46.49457" lon="-1.79443">
        <ele>5.4</ele>
        <time>2021-09-25T12:29:53Z</time>
      </trkpt>
      <trkpt lat="46.49458" lon="-1.79444">
        <ele>5.4</ele>
        <time>2021-09-25T12:29:54Z</time>
      </trkpt>
      <trkpt lat="46.49459" lon="-1.79444">
        <ele>5.4</ele>
        <time>2021-09-25T12:29:55Z</time>
      </trkpt>
      <trkpt lat="46.4946" lon="-1.79445">
        <ele>5.4</ele>
        <time>2021-09-25T12:29:56Z</time>
      </trkpt>
      <trkpt lat="46.49461" lon="-1.79445">
        <ele>5.4</ele>
        <time>2021-09-25T12:29:57Z</time>
      </trkpt>
      <trkpt lat="46.49462" lon="-1.79445">
        <ele>5.4</ele>
        <time>2021-09-25T12:29:58Z</time>
      </trkpt>
      <trkpt lat="46.49463" lon="-1.79446">
        <ele>5.4</ele>
        <time>2021-09-25T12:29:59Z</time>
      </trkpt>
      <trkpt lat="46.49465" lon="-1.79446">
        <ele>5.3</ele>
        <time>2021-09-25T12:30:00Z</time>
      </trkpt>
      <trkpt lat="46.49466" lon="-1.79447">
        <ele>5.3</ele>
        <time>2021-09-25T12:30:01Z</time>
      </trkpt>
      <trkpt lat="46.49467" lon="-1.79447">
        <ele>5.3</ele>
        <time>2021-09-25T12:30:02Z</time>
      </trkpt>
      <trkpt lat="46.49468" lon="-1.79447">
        <ele>5.3</ele>
        <time>2021-09-25T12:30:03Z</time>
      </trkpt>
      <trkpt lat="46.49469" lon="-1.79448">
        <ele>5.3</ele>
        <time>2021-09-25T12:30:04Z</time>
      </trkpt>
      <trkpt lat="46.4947" lon="-1.79448">
        <ele>5.3</ele>
        <time>2021-09-25T12:30:05Z</time>
      </trkpt>
      <trkpt lat="46.49471" lon="-1.79449">
        <ele>5.3</ele>
        <time>2021-09-25T12:30:06Z</time>
      </trkpt>
      <trkpt lat="46.49472" lon="-1.79449">
        <ele>5.3</ele>
        <time>2021-09-25T12:30:07Z</time>
      </trkpt>
      <trkpt lat="46.49474" lon="-1.79449">
        <ele>5.3</ele>
        <time>2021-09-25T12:30:08Z</time>
      </trkpt>
      <trkpt lat="46.49475" lon="-1.7945">
        <ele>5.3</ele>
        <time>2021-09-25T12:30:09Z</time>
      </trkpt>
      <trkpt lat="46.49476" lon="-1.7945">
        <ele>5.3</ele>
        <time>2021-09-25T12:30:10Z</time>
      </trkpt>
      <trkpt lat="46.49477" lon="-1.79451">
        <ele>5.3</ele>
        <time>2021-09-25T12:30:11Z</time>
      </trkpt>
      <trkpt lat="46.49478" lon="-1.79451">
        <ele>5.3</ele>
        <time>2021-09-25T12:30:12Z</time>
      </trkpt>
      <trkpt lat="46.49479" lon="-1.79452">
        <ele>5.3</ele>
        <time>2021-09-25T12:30:13Z</time>
      </trkpt>
      <trkpt lat="46.4948" lon="-1.79452">
        <ele>5.3</ele>
        <time>2021-09-25T12:30:14Z</time>
      </trkpt>
      <trkpt lat="46.49481" lon="-1.79453">
        <ele>5.3</ele>
        <time>2021-09-25T12:30:15Z</time>
      </trkpt>
      <trkpt lat="46.49482" lon="-1.79453">
        <ele>5.3</ele>
        <time>2021-09-25T12:30:16Z</time>
      </trkpt>
      <trkpt lat="46.49483" lon="-1.79454">
        <ele>5.3</ele>
        <time>2021-09-25T12:30:17Z</time>
      </trkpt>
      <trkpt lat="46.49484" lon="-1.79454">
        <ele>5.3</ele>
        <time>2021-09-25T12:30:18Z</time>
      </trkpt>
      <trkpt lat="46.49485" lon="-1.79455">
        <ele>5.3</ele>
        <time>2021-09-25T12:30:19Z</time>
      </trkpt>
      <trkpt lat="46.49486" lon="-1.79456">
        <ele>5.3</ele>
        <time>2021-09-25T12:30:20Z</time>
      </trkpt>
      <trkpt lat="46.49486" lon="-1.79458">
        <ele>5.3</ele>
        <time>2021-09-25T12:30:21Z</time>
      </trkpt>
      <trkpt lat="46.49487" lon="-1.79459">
        <ele>5.3</ele>
        <time>2021-09-25T12:30:22Z</time>
      </trkpt>
      <trkpt lat="46.49488" lon="-1.79461">
        <ele>5.3</ele>
        <time>2021-09-25T12:30:23Z</time>
      </trkpt>
      <trkpt lat="46.49488" lon="-1.79462">
        <ele>5.3</ele>
        <time>2021-09-25T12:30:24Z</time>
      </trkpt>
      <trkpt lat="46.49489" lon="-1.79463">
        <ele>5.3</ele>
        <time>2021-09-25T12:30:25Z</time>
      </trkpt>
      <trkpt lat="46.4949" lon="-1.79465">
        <ele>5.3</ele>
        <time>2021-09-25T12:30:26Z</time>
      </trkpt>
      <trkpt lat="46.49491" lon="-1.79465">
        <ele>5.3</ele>
        <time>2021-09-25T12:30:27Z</time>
      </trkpt>
      <trkpt lat="46.49492" lon="-1.79466">
        <ele>5.3</ele>
        <time>2021-09-25T12:30:28Z</time>
      </trkpt>
      <trkpt lat="46.49493" lon="-1.79466">
        <ele>5.3</ele>
        <time>2021-09-25T12:30:29Z</time>
      </trkpt>
      <trkpt lat="46.49494" lon="-1.79466">
        <ele>5.3</ele>
        <time>2021-09-25T12:30:30Z</time>
      </trkpt>
      <trkpt lat="46.49495" lon="-1.79466">
        <ele>5.3</ele>
        <time>2021-09-25T12:30:31Z</time>
      </trkpt>
      <trkpt lat="46.49497" lon="-1.79466">
        <ele>5.3</ele>
        <time>2021-09-25T12:30:32Z</time>
      </trkpt>
      <trkpt lat="46.49498" lon="-1.79466">
        <ele>5.3</ele>
        <time>2021-09-25T12:30:33Z</time>
      </trkpt>
      <trkpt lat="46.49499" lon="-1.79465">
        <ele>5.3</ele>
        <time>2021-09-25T12:30:34Z</time>
      </trkpt>
      <trkpt lat="46.495" lon="-1.79465">
        <ele>5.2</ele>
        <time>2021-09-25T12:30:35Z</time>
      </trkpt>
      <trkpt lat="46.49501" lon="-1.79465">
        <ele>5.2</ele>
        <time>2021-09-25T12:30:36Z</time>
      </trkpt>
      <trkpt lat="46.49502" lon="-1.79465">
        <ele>5.2</ele>
        <time>2021-09-25T12:30:37Z</time>
      </trkpt>
      <trkpt lat="46.49503" lon="-1.79466">
        <ele>5.2</ele>
        <time>2021-09-25T12:30:38Z</time>
      </trkpt>
      <trkpt lat="46.49504" lon="-1.79466">
        <ele>5.2</ele>
        <time>2021-09-25T12:30:39Z</time>
      </trkpt>
      <trkpt lat="46.49505" lon="-1.79467">
        <ele>5.2</ele>
        <time>2021-09-25T12:30:40Z</time>
      </trkpt>
      <trkpt lat="46.49506" lon="-1.79467">
        <ele>5.2</ele>
        <time>2021-09-25T12:30:41Z</time>
      </trkpt>
      <trkpt lat="46.49507" lon="-1.79468">
        <ele>5.2</ele>
        <time>2021-09-25T12:30:42Z</time>
      </trkpt>
      <trkpt lat="46.49508" lon="-1.79469">
        <ele>5.2</ele>
        <time>2021-09-25T12:30:43Z</time>
      </trkpt>
      <trkpt lat="46.49509" lon="-1.7947">
        <ele>5.2</ele>
        <time>2021-09-25T12:30:44Z</time>
      </trkpt>
      <trkpt lat="46.4951" lon="-1.7947">
        <ele>5.2</ele>
        <time>2021-09-25T12:30:45Z</time>
      </trkpt>
      <trkpt lat="46.49511" lon="-1.79471">
        <ele>5.2</ele>
        <time>2021-09-25T12:30:46Z</time>
      </trkpt>
      <trkpt lat="46.49512" lon="-1.79472">
        <ele>5.2</ele>
        <time>2021-09-25T12:30:47Z</time>
      </trkpt>
      <trkpt lat="46.49513" lon="-1.79473">
        <ele>5.2</ele>
        <time>2021-09-25T12:30:48Z</time>
      </trkpt>
      <trkpt lat="46.49514" lon="-1.79473">
        <ele>5.1</ele>
        <time>2021-09-25T12:30:49Z</time>
      </trkpt>
      <trkpt lat="46.49515" lon="-1.79474">
        <ele>5.1</ele>
        <time>2021-09-25T12:30:50Z</time>
      </trkpt>
      <trkpt lat="46.49516" lon="-1.79474">
        <ele>5.1</ele>
        <time>2021-09-25T12:30:51Z</time>
      </trkpt>
      <trkpt lat="46.49517" lon="-1.79475">
        <ele>5.1</ele>
        <time>2021-09-25T12:30:52Z</time>
      </trkpt>
      <trkpt lat="46.49518" lon="-1.79476">
        <ele>5.1</ele>
        <time>2021-09-25T12:30:53Z</time>
      </trkpt>
      <trkpt lat="46.49519" lon="-1.79478">
        <ele>5.1</ele>
        <time>2021-09-25T12:30:54Z</time>
      </trkpt>
      <trkpt lat="46.4952" lon="-1.79479">
        <ele>5.1</ele>
        <time>2021-09-25T12:30:55Z</time>
      </trkpt>
      <trkpt lat="46.4952" lon="-1.7948">
        <ele>5.1</ele>
        <time>2021-09-25T12:30:56Z</time>
      </trkpt>
      <trkpt lat="46.49521" lon="-1.7948">
        <ele>5.1</ele>
        <time>2021-09-25T12:30:57Z</time>
      </trkpt>
      <trkpt lat="46.49522" lon="-1.79481">
        <ele>5.1</ele>
        <time>2021-09-25T12:30:58Z</time>
      </trkpt>
      <trkpt lat="46.49522" lon="-1.79482">
        <ele>5.1</ele>
        <time>2021-09-25T12:30:59Z</time>
      </trkpt>
      <trkpt lat="46.49523" lon="-1.79482">
        <ele>5.1</ele>
        <time>2021-09-25T12:31:00Z</time>
      </trkpt>
      <trkpt lat="46.49523" lon="-1.79483">
        <ele>5.1</ele>
        <time>2021-09-25T12:31:01Z</time>
      </trkpt>
      <trkpt lat="46.49524" lon="-1.79484">
        <ele>5.1</ele>
        <time>2021-09-25T12:31:02Z</time>
      </trkpt>
      <trkpt lat="46.49525" lon="-1.79484">
        <ele>5.1</ele>
        <time>2021-09-25T12:31:03Z</time>
      </trkpt>
      <trkpt lat="46.49525" lon="-1.79485">
        <ele>5.1</ele>
        <time>2021-09-25T12:31:04Z</time>
      </trkpt>
      <trkpt lat="46.49526" lon="-1.79486">
        <ele>5.1</ele>
        <time>2021-09-25T12:31:05Z</time>
      </trkpt>
      <trkpt lat="46.49527" lon="-1.79486">
        <ele>5.1</ele>
        <time>2021-09-25T12:31:06Z</time>
      </trkpt>
      <trkpt lat="46.49527" lon="-1.79487">
        <ele>5.1</ele>
        <time>2021-09-25T12:31:07Z</time>
      </trkpt>
      <trkpt lat="46.49528" lon="-1.79488">
        <ele>5.1</ele>
        <time>2021-09-25T12:31:08Z</time>
      </trkpt>
      <trkpt lat="46.49528" lon="-1.79488">
        <ele>5.1</ele>
        <time>2021-09-25T12:31:09Z</time>
      </trkpt>
      <trkpt lat="46.49529" lon="-1.79489">
        <ele>5.1</ele>
        <time>2021-09-25T12:31:10Z</time>
      </trkpt>
      <trkpt lat="46.4953" lon="-1.7949">
        <ele>5.1</ele>
        <time>2021-09-25T12:31:11Z</time>
      </trkpt>
      <trkpt lat="46.4953" lon="-1.7949">
        <ele>5.1</ele>
        <time>2021-09-25T12:31:12Z</time>
      </trkpt>
      <trkpt lat="46.49531" lon="-1.79491">
        <ele>5.1</ele>
        <time>2021-09-25T12:31:13Z</time>
      </trkpt>
      <trkpt lat="46.49531" lon="-1.79492">
        <ele>5.1</ele>
        <time>2021-09-25T12:31:14Z</time>
      </trkpt>
      <trkpt lat="46.49532" lon="-1.79492">
        <ele>5.1</ele>
        <time>2021-09-25T12:31:15Z</time>
      </trkpt>
      <trkpt lat="46.49533" lon="-1.79493">
        <ele>5.1</ele>
        <time>2021-09-25T12:31:16Z</time>
      </trkpt>
      <trkpt lat="46.49533" lon="-1.79494">
        <ele>5.1</ele>
        <time>2021-09-25T12:31:17Z</time>
      </trkpt>
      <trkpt lat="46.49534" lon="-1.79494">
        <ele>5.1</ele>
        <time>2021-09-25T12:31:18Z</time>
      </trkpt>
      <trkpt lat="46.49535" lon="-1.79495">
        <ele>5.1</ele>
        <time>2021-09-25T12:31:19Z</time>
      </trkpt>
      <trkpt lat="46.49536" lon="-1.79495">
        <ele>5.1</ele>
        <time>2021-09-25T12:31:20Z</time>
      </trkpt>
      <trkpt lat="46.49537" lon="-1.79496">
        <ele>5.1</ele>
        <time>2021-09-25T12:31:21Z</time>
      </trkpt>
      <trkpt lat="46.49538" lon="-1.79496">
        <ele>5.1</ele>
        <time>2021-09-25T12:31:22Z</time>
      </trkpt>
      <trkpt lat="46.49539" lon="-1.79497">
        <ele>5.1</ele>
        <time>2021-09-25T12:31:23Z</time>
      </trkpt>
      <trkpt lat="46.4954" lon="-1.79497">
        <ele>5.1</ele>
        <time>2021-09-25T12:31:24Z</time>
      </trkpt>
      <trkpt lat="46.49541" lon="-1.79497">
        <ele>5.1</ele>
        <time>2021-09-25T12:31:25Z</time>
      </trkpt>
      <trkpt lat="46.49542" lon="-1.79498">
        <ele>5.1</ele>
        <time>2021-09-25T12:31:26Z</time>
      </trkpt>
      <trkpt lat="46.49543" lon="-1.79498">
        <ele>5.1</ele>
        <time>2021-09-25T12:31:27Z</time>
      </trkpt>
      <trkpt lat="46.49544" lon="-1.79499">
        <ele>5.1</ele>
        <time>2021-09-25T12:31:28Z</time>
      </trkpt>
      <trkpt lat="46.49545" lon="-1.79499">
        <ele>5.1</ele>
        <time>2021-09-25T12:31:29Z</time>
      </trkpt>
      <trkpt lat="46.49547" lon="-1.795">
        <ele>5.1</ele>
        <time>2021-09-25T12:31:30Z</time>
      </trkpt>
      <trkpt lat="46.49548" lon="-1.795">
        <ele>5.1</ele>
        <time>2021-09-25T12:31:31Z</time>
      </trkpt>
      <trkpt lat="46.49549" lon="-1.79501">
        <ele>5.1</ele>
        <time>2021-09-25T12:31:32Z</time>
      </trkpt>
      <trkpt lat="46.4955" lon="-1.79501">
        <ele>5.1</ele>
        <time>2021-09-25T12:31:33Z</time>
      </trkpt>
      <trkpt lat="46.49551" lon="-1.79502">
        <ele>5.1</ele>
        <time>2021-09-25T12:31:34Z</time>
      </trkpt>
      <trkpt lat="46.49552" lon="-1.79502">
        <ele>5.1</ele>
        <time>2021-09-25T12:31:35Z</time>
      </trkpt>
      <trkpt lat="46.49553" lon="-1.79503">
        <ele>5.1</ele>
        <time>2021-09-25T12:31:36Z</time>
      </trkpt>
      <trkpt lat="46.49554" lon="-1.79503">
        <ele>5.1</ele>
        <time>2021-09-25T12:31:37Z</time>
      </trkpt>
      <trkpt lat="46.49555" lon="-1.79503">
        <ele>5.1</ele>
        <time>2021-09-25T12:31:38Z</time>
      </trkpt>
      <trkpt lat="46.49557" lon="-1.79504">
        <ele>5.1</ele>
        <time>2021-09-25T12:31:39Z</time>
      </trkpt>
      <trkpt lat="46.49558" lon="-1.79504">
        <ele>5.1</ele>
        <time>2021-09-25T12:31:40Z</time>
      </trkpt>
      <trkpt lat="46.49559" lon="-1.79504">
        <ele>5.1</ele>
        <time>2021-09-25T12:31:41Z</time>
      </trkpt>
      <trkpt lat="46.4956" lon="-1.79505">
        <ele>5.1</ele>
        <time>2021-09-25T12:31:42Z</time>
      </trkpt>
      <trkpt lat="46.49561" lon="-1.79505">
        <ele>5.1</ele>
        <time>2021-09-25T12:31:43Z</time>
      </trkpt>
      <trkpt lat="46.49562" lon="-1.79505">
        <ele>5.1</ele>
        <time>2021-09-25T12:31:44Z</time>
      </trkpt>
      <trkpt lat="46.49563" lon="-1.79505">
        <ele>5.1</ele>
        <time>2021-09-25T12:31:45Z</time>
      </trkpt>
      <trkpt lat="46.49564" lon="-1.79505">
        <ele>5.1</ele>
        <time>2021-09-25T12:31:46Z</time>
      </trkpt>
      <trkpt lat="46.49566" lon="-1.79505">
        <ele>5.1</ele>
        <time>2021-09-25T12:31:47Z</time>
      </trkpt>
      <trkpt lat="46.49567" lon="-1.79505">
        <ele>5.1</ele>
        <time>2021-09-25T12:31:48Z</time>
      </trkpt>
      <trkpt lat="46.49568" lon="-1.79505">
        <ele>5.1</ele>
        <time>2021-09-25T12:31:49Z</time>
      </trkpt>
      <trkpt lat="46.49569" lon="-1.79505">
        <ele>5.1</ele>
        <time>2021-09-25T12:31:50Z</time>
      </trkpt>
      <trkpt lat="46.4957" lon="-1.79505">
        <ele>5.1</ele>
        <time>2021-09-25T12:31:51Z</time>
      </trkpt>
      <trkpt lat="46.49571" lon="-1.79505">
        <ele>5.1</ele>
        <time>2021-09-25T12:31:52Z</time>
      </trkpt>
      <trkpt lat="46.49572" lon="-1.79505">
        <ele>5.1</ele>
        <time>2021-09-25T12:31:53Z</time>
      </trkpt>
      <trkpt lat="46.49573" lon="-1.79505">
        <ele>5.1</ele>
        <time>2021-09-25T12:31:54Z</time>
      </trkpt>
      <trkpt lat="46.49575" lon="-1.79505">
        <ele>5.1</ele>
        <time>2021-09-25T12:31:55Z</time>
      </trkpt>
      <trkpt lat="46.49576" lon="-1.79505">
        <ele>5.1</ele>
        <time>2021-09-25T12:31:56Z</time>
      </trkpt>
      <trkpt lat="46.49577" lon="-1.79505">
        <ele>5.1</ele>
        <time>2021-09-25T12:31:57Z</time>
      </trkpt>
      <trkpt lat="46.49578" lon="-1.79506">
        <ele>5.1</ele>
        <time>2021-09-25T12:31:58Z</time>
      </trkpt>
      <trkpt lat="46.49579" lon="-1.79506">
        <ele>5.1</ele>
        <time>2021-09-25T12:31:59Z</time>
      </trkpt>
      <trkpt lat="46.4958" lon="-1.79506">
        <ele>5.1</ele>
        <time>2021-09-25T12:32:00Z</time>
      </trkpt>
      <trkpt lat="46.49581" lon="-1.79506">
        <ele>5.1</ele>
        <time>2021-09-25T12:32:01Z</time>
      </trkpt>
      <trkpt lat="46.49582" lon="-1.79506">
        <ele>5.1</ele>
        <time>2021-09-25T12:32:02Z</time>
      </trkpt>
      <trkpt lat="46.49584" lon="-1.79506">
        <ele>5.1</ele>
        <time>2021-09-25T12:32:03Z</time>
      </trkpt>
      <trkpt lat="46.49585" lon="-1.79507">
        <ele>5.1</ele>
        <time>2021-09-25T12:32:04Z</time>
      </trkpt>
      <trkpt lat="46.49586" lon="-1.79507">
        <ele>5.1</ele>
        <time>2021-09-25T12:32:05Z</time>
      </trkpt>
      <trkpt lat="46.49587" lon="-1.79507">
        <ele>5.1</ele>
        <time>2021-09-25T12:32:06Z</time>
      </trkpt>
      <trkpt lat="46.49588" lon="-1.79508">
        <ele>5.1</ele>
        <time>2021-09-25T12:32:07Z</time>
      </trkpt>
      <trkpt lat="46.49589" lon="-1.79508">
        <ele>5.1</ele>
        <time>2021-09-25T12:32:08Z</time>
      </trkpt>
      <trkpt lat="46.4959" lon="-1.79508">
        <ele>5.1</ele>
        <time>2021-09-25T12:32:09Z</time>
      </trkpt>
      <trkpt lat="46.49591" lon="-1.79508">
        <ele>5.1</ele>
        <time>2021-09-25T12:32:10Z</time>
      </trkpt>
      <trkpt lat="46.49592" lon="-1.79508">
        <ele>5.1</ele>
        <time>2021-09-25T12:32:11Z</time>
      </trkpt>
      <trkpt lat="46.49593" lon="-1.79508">
        <ele>5.1</ele>
        <time>2021-09-25T12:32:12Z</time>
      </trkpt>
      <trkpt lat="46.49594" lon="-1.79508">
        <ele>5</ele>
        <time>2021-09-25T12:32:13Z</time>
      </trkpt>
      <trkpt lat="46.49595" lon="-1.79508">
        <ele>5</ele>
        <time>2021-09-25T12:32:14Z</time>
      </trkpt>
      <trkpt lat="46.49596" lon="-1.79507">
        <ele>5</ele>
        <time>2021-09-25T12:32:15Z</time>
      </trkpt>
      <trkpt lat="46.49597" lon="-1.79506">
        <ele>5</ele>
        <time>2021-09-25T12:32:16Z</time>
      </trkpt>
      <trkpt lat="46.49598" lon="-1.79506">
        <ele>5</ele>
        <time>2021-09-25T12:32:17Z</time>
      </trkpt>
      <trkpt lat="46.49598" lon="-1.79505">
        <ele>5</ele>
        <time>2021-09-25T12:32:18Z</time>
      </trkpt>
      <trkpt lat="46.49599" lon="-1.79504">
        <ele>5</ele>
        <time>2021-09-25T12:32:19Z</time>
      </trkpt>
      <trkpt lat="46.496" lon="-1.79503">
        <ele>5</ele>
        <time>2021-09-25T12:32:20Z</time>
      </trkpt>
      <trkpt lat="46.49601" lon="-1.79502">
        <ele>5</ele>
        <time>2021-09-25T12:32:21Z</time>
      </trkpt>
      <trkpt lat="46.49601" lon="-1.79501">
        <ele>5</ele>
        <time>2021-09-25T12:32:22Z</time>
      </trkpt>
      <trkpt lat="46.49602" lon="-1.795">
        <ele>5</ele>
        <time>2021-09-25T12:32:23Z</time>
      </trkpt>
      <trkpt lat="46.49603" lon="-1.795">
        <ele>5</ele>
        <time>2021-09-25T12:32:24Z</time>
      </trkpt>
      <trkpt lat="46.49604" lon="-1.79499">
        <ele>5</ele>
        <time>2021-09-25T12:32:25Z</time>
      </trkpt>
      <trkpt lat="46.49605" lon="-1.79498">
        <ele>5</ele>
        <time>2021-09-25T12:32:26Z</time>
      </trkpt>
      <trkpt lat="46.49606" lon="-1.79497">
        <ele>5</ele>
        <time>2021-09-25T12:32:27Z</time>
      </trkpt>
      <trkpt lat="46.49606" lon="-1.79496">
        <ele>5</ele>
        <time>2021-09-25T12:32:28Z</time>
      </trkpt>
      <trkpt lat="46.49607" lon="-1.79495">
        <ele>5</ele>
        <time>2021-09-25T12:32:29Z</time>
      </trkpt>
      <trkpt lat="46.49608" lon="-1.79494">
        <ele>5</ele>
        <time>2021-09-25T12:32:30Z</time>
      </trkpt>
      <trkpt lat="46.49609" lon="-1.79493">
        <ele>5</ele>
        <time>2021-09-25T12:32:31Z</time>
      </trkpt>
      <trkpt lat="46.4961" lon="-1.79493">
        <ele>5</ele>
        <time>2021-09-25T12:32:32Z</time>
      </trkpt>
      <trkpt lat="46.4961" lon="-1.79492">
        <ele>5</ele>
        <time>2021-09-25T12:32:33Z</time>
      </trkpt>
      <trkpt lat="46.49611" lon="-1.79491">
        <ele>5</ele>
        <time>2021-09-25T12:32:34Z</time>
      </trkpt>
      <trkpt lat="46.49612" lon="-1.7949">
        <ele>5</ele>
        <time>2021-09-25T12:32:35Z</time>
      </trkpt>
      <trkpt lat="46.49612" lon="-1.79489">
        <ele>5</ele>
        <time>2021-09-25T12:32:36Z</time>
      </trkpt>
      <trkpt lat="46.49613" lon="-1.79489">
        <ele>5</ele>
        <time>2021-09-25T12:32:37Z</time>
      </trkpt>
      <trkpt lat="46.49614" lon="-1.79488">
        <ele>5</ele>
        <time>2021-09-25T12:32:38Z</time>
      </trkpt>
      <trkpt lat="46.49614" lon="-1.79487">
        <ele>5</ele>
        <time>2021-09-25T12:32:39Z</time>
      </trkpt>
      <trkpt lat="46.49614" lon="-1.79486">
        <ele>5</ele>
        <time>2021-09-25T12:32:40Z</time>
      </trkpt>
      <trkpt lat="46.49615" lon="-1.79485">
        <ele>5</ele>
        <time>2021-09-25T12:32:41Z</time>
      </trkpt>
      <trkpt lat="46.49615" lon="-1.79485">
        <ele>5</ele>
        <time>2021-09-25T12:32:42Z</time>
      </trkpt>
      <trkpt lat="46.49615" lon="-1.79484">
        <ele>5</ele>
        <time>2021-09-25T12:32:43Z</time>
      </trkpt>
      <trkpt lat="46.49616" lon="-1.79483">
        <ele>5</ele>
        <time>2021-09-25T12:32:44Z</time>
      </trkpt>
      <trkpt lat="46.49616" lon="-1.79483">
        <ele>5</ele>
        <time>2021-09-25T12:32:45Z</time>
      </trkpt>
      <trkpt lat="46.49616" lon="-1.79482">
        <ele>5</ele>
        <time>2021-09-25T12:32:46Z</time>
      </trkpt>
      <trkpt lat="46.49616" lon="-1.79482">
        <ele>5</ele>
        <time>2021-09-25T12:32:47Z</time>
      </trkpt>
      <trkpt lat="46.49616" lon="-1.79481">
        <ele>5</ele>
        <time>2021-09-25T12:32:48Z</time>
      </trkpt>
      <trkpt lat="46.49616" lon="-1.79481">
        <ele>5</ele>
        <time>2021-09-25T12:32:49Z</time>
      </trkpt>
      <trkpt lat="46.49616" lon="-1.79481">
        <ele>5</ele>
        <time>2021-09-25T12:32:50Z</time>
      </trkpt>
      <trkpt lat="46.49616" lon="-1.79481">
        <ele>5</ele>
        <time>2021-09-25T12:32:51Z</time>
      </trkpt>
      <trkpt lat="46.49616" lon="-1.79481">
        <ele>5</ele>
        <time>2021-09-25T12:32:52Z</time>
      </trkpt>
      <trkpt lat="46.49616" lon="-1.79481">
        <ele>5</ele>
        <time>2021-09-25T12:32:53Z</time>
      </trkpt>
      <trkpt lat="46.49616" lon="-1.79481">
        <ele>5</ele>
        <time>2021-09-25T12:32:54Z</time>
      </trkpt>
      <trkpt lat="46.49616" lon="-1.79481">
        <ele>5</ele>
        <time>2021-09-25T12:32:55Z</time>
      </trkpt>
      <trkpt lat="46.49616" lon="-1.79481">
        <ele>5</ele>
        <time>2021-09-25T12:32:56Z</time>
      </trkpt>
      <trkpt lat="46.49616" lon="-1.79481">
        <ele>5</ele>
        <time>2021-09-25T12:32:57Z</time>
      </trkpt>
      <trkpt lat="46.49616" lon="-1.7948">
        <ele>5</ele>
        <time>2021-09-25T12:32:58Z</time>
      </trkpt>
      <trkpt lat="46.49616" lon="-1.7948">
        <ele>5</ele>
        <time>2021-09-25T12:32:59Z</time>
      </trkpt>
      <trkpt lat="46.49616" lon="-1.7948">
        <ele>5</ele>
        <time>2021-09-25T12:33:00Z</time>
      </trkpt>
      <trkpt lat="46.49617" lon="-1.79479">
        <ele>5</ele>
        <time>2021-09-25T12:33:01Z</time>
      </trkpt>
      <trkpt lat="46.49617" lon="-1.79479">
        <ele>5</ele>
        <time>2021-09-25T12:33:02Z</time>
      </trkpt>
      <trkpt lat="46.49617" lon="-1.79478">
        <ele>5</ele>
        <time>2021-09-25T12:33:03Z</time>
      </trkpt>
      <trkpt lat="46.49617" lon="-1.79477">
        <ele>5</ele>
        <time>2021-09-25T12:33:04Z</time>
      </trkpt>
      <trkpt lat="46.49617" lon="-1.79477">
        <ele>5</ele>
        <time>2021-09-25T12:33:05Z</time>
      </trkpt>
      <trkpt lat="46.49617" lon="-1.79476">
        <ele>5</ele>
        <time>2021-09-25T12:33:06Z</time>
      </trkpt>
      <trkpt lat="46.49617" lon="-1.79475">
        <ele>5</ele>
        <time>2021-09-25T12:33:07Z</time>
      </trkpt>
      <trkpt lat="46.49617" lon="-1.79475">
        <ele>5</ele>
        <time>2021-09-25T12:33:08Z</time>
      </trkpt>
      <trkpt lat="46.49618" lon="-1.79474">
        <ele>5</ele>
        <time>2021-09-25T12:33:09Z</time>
      </trkpt>
      <trkpt lat="46.49618" lon="-1.79474">
        <ele>5</ele>
        <time>2021-09-25T12:33:10Z</time>
      </trkpt>
      <trkpt lat="46.49618" lon="-1.79473">
        <ele>5</ele>
        <time>2021-09-25T12:33:11Z</time>
      </trkpt>
      <trkpt lat="46.49618" lon="-1.79473">
        <ele>5</ele>
        <time>2021-09-25T12:33:12Z</time>
      </trkpt>
      <trkpt lat="46.49618" lon="-1.79473">
        <ele>5</ele>
        <time>2021-09-25T12:33:13Z</time>
      </trkpt>
      <trkpt lat="46.49618" lon="-1.79473">
        <ele>5</ele>
        <time>2021-09-25T12:33:14Z</time>
      </trkpt>
      <trkpt lat="46.49618" lon="-1.79473">
        <ele>5</ele>
        <time>2021-09-25T12:33:15Z</time>
      </trkpt>
      <trkpt lat="46.49618" lon="-1.79473">
        <ele>5</ele>
        <time>2021-09-25T12:33:16Z</time>
      </trkpt>
      <trkpt lat="46.49618" lon="-1.79473">
        <ele>5</ele>
        <time>2021-09-25T12:33:17Z</time>
      </trkpt>
      <trkpt lat="46.49618" lon="-1.79473">
        <ele>5</ele>
        <time>2021-09-25T12:33:18Z</time>
      </trkpt>
      <trkpt lat="46.49618" lon="-1.79473">
        <ele>5</ele>
        <time>2021-09-25T12:33:19Z</time>
      </trkpt>
      <trkpt lat="46.49618" lon="-1.79473">
        <ele>5</ele>
        <time>2021-09-25T12:33:20Z</time>
      </trkpt>
      <trkpt lat="46.49618" lon="-1.79473">
        <ele>5</ele>
        <time>2021-09-25T12:33:21Z</time>
      </trkpt>
      <trkpt lat="46.49618" lon="-1.79473">
        <ele>5</ele>
        <time>2021-09-25T12:33:22Z</time>
      </trkpt>
      <trkpt lat="46.49618" lon="-1.79473">
        <ele>5</ele>
        <time>2021-09-25T12:33:23Z</time>
      </trkpt>
      <trkpt lat="46.49618" lon="-1.79473">
        <ele>5</ele>
        <time>2021-09-25T12:33:24Z</time>
      </trkpt>
      <trkpt lat="46.49618" lon="-1.79473">
        <ele>5</ele>
        <time>2021-09-25T12:33:25Z</time>
      </trkpt>
      <trkpt lat="46.49618" lon="-1.79473">
        <ele>5</ele>
        <time>2021-09-25T12:33:26Z</time>
      </trkpt>
      <trkpt lat="46.49618" lon="-1.79473">
        <ele>5</ele>
        <time>2021-09-25T12:33:27Z</time>
      </trkpt>
      <trkpt lat="46.49618" lon="-1.79473">
        <ele>5</ele>
        <time>2021-09-25T12:33:28Z</time>
      </trkpt>
      <trkpt lat="46.49618" lon="-1.79473">
        <ele>5</ele>
        <time>2021-09-25T12:33:29Z</time>
      </trkpt>
      <trkpt lat="46.49618" lon="-1.79473">
        <ele>5</ele>
        <time>2021-09-25T12:33:30Z</time>
      </trkpt>
      <trkpt lat="46.49617" lon="-1.79473">
        <ele>5</ele>
        <time>2021-09-25T12:33:31Z</time>
      </trkpt>
      <trkpt lat="46.49617" lon="-1.79473">
        <ele>5</ele>
        <time>2021-09-25T12:33:32Z</time>
      </trkpt>
      <trkpt lat="46.49617" lon="-1.79473">
        <ele>5</ele>
        <time>2021-09-25T12:33:33Z</time>
      </trkpt>
      <trkpt lat="46.49617" lon="-1.79473">
        <ele>5</ele>
        <time>2021-09-25T12:33:34Z</time>
      </trkpt>
      <trkpt lat="46.49617" lon="-1.79473">
        <ele>5</ele>
        <time>2021-09-25T12:33:35Z</time>
      </trkpt>
      <trkpt lat="46.49617" lon="-1.79473">
        <ele>5</ele>
        <time>2021-09-25T12:33:36Z</time>
      </trkpt>
      <trkpt lat="46.49617" lon="-1.79474">
        <ele>5</ele>
        <time>2021-09-25T12:33:37Z</time>
      </trkpt>
      <trkpt lat="46.49616" lon="-1.79474">
        <ele>5</ele>
        <time>2021-09-25T12:33:38Z</time>
      </trkpt>
      <trkpt lat="46.49616" lon="-1.79475">
        <ele>5</ele>
        <time>2021-09-25T12:33:39Z</time>
      </trkpt>
      <trkpt lat="46.49616" lon="-1.79476">
        <ele>5</ele>
        <time>2021-09-25T12:33:40Z</time>
      </trkpt>
      <trkpt lat="46.49616" lon="-1.79477">
        <ele>5</ele>
        <time>2021-09-25T12:33:41Z</time>
      </trkpt>
      <trkpt lat="46.49615" lon="-1.79478">
        <ele>5</ele>
        <time>2021-09-25T12:33:42Z</time>
      </trkpt>
      <trkpt lat="46.49615" lon="-1.79479">
        <ele>5</ele>
        <time>2021-09-25T12:33:43Z</time>
      </trkpt>
      <trkpt lat="46.49615" lon="-1.7948">
        <ele>5</ele>
        <time>2021-09-25T12:33:44Z</time>
      </trkpt>
      <trkpt lat="46.49614" lon="-1.79481">
        <ele>5</ele>
        <time>2021-09-25T12:33:45Z</time>
      </trkpt>
      <trkpt lat="46.49614" lon="-1.79482">
        <ele>5</ele>
        <time>2021-09-25T12:33:46Z</time>
      </trkpt>
      <trkpt lat="46.49614" lon="-1.79483">
        <ele>5</ele>
        <time>2021-09-25T12:33:47Z</time>
      </trkpt>
      <trkpt lat="46.49613" lon="-1.79484">
        <ele>5</ele>
        <time>2021-09-25T12:33:48Z</time>
      </trkpt>
      <trkpt lat="46.49613" lon="-1.79485">
        <ele>5</ele>
        <time>2021-09-25T12:33:49Z</time>
      </trkpt>
      <trkpt lat="46.49613" lon="-1.79486">
        <ele>5</ele>
        <time>2021-09-25T12:33:50Z</time>
      </trkpt>
      <trkpt lat="46.49613" lon="-1.79487">
        <ele>5</ele>
        <time>2021-09-25T12:33:51Z</time>
      </trkpt>
      <trkpt lat="46.49613" lon="-1.79488">
        <ele>4.9</ele>
        <time>2021-09-25T12:33:52Z</time>
      </trkpt>
      <trkpt lat="46.49612" lon="-1.79489">
        <ele>4.9</ele>
        <time>2021-09-25T12:33:53Z</time>
      </trkpt>
      <trkpt lat="46.49612" lon="-1.7949">
        <ele>4.9</ele>
        <time>2021-09-25T12:33:54Z</time>
      </trkpt>
      <trkpt lat="46.49612" lon="-1.7949">
        <ele>4.9</ele>
        <time>2021-09-25T12:33:55Z</time>
      </trkpt>
      <trkpt lat="46.49612" lon="-1.79491">
        <ele>4.9</ele>
        <time>2021-09-25T12:33:56Z</time>
      </trkpt>
      <trkpt lat="46.49612" lon="-1.79491">
        <ele>4.9</ele>
        <time>2021-09-25T12:33:57Z</time>
      </trkpt>
      <trkpt lat="46.49612" lon="-1.79492">
        <ele>4.9</ele>
        <time>2021-09-25T12:33:58Z</time>
      </trkpt>
      <trkpt lat="46.49612" lon="-1.79492">
        <ele>4.9</ele>
        <time>2021-09-25T12:33:59Z</time>
      </trkpt>
      <trkpt lat="46.49612" lon="-1.79492">
        <ele>4.9</ele>
        <time>2021-09-25T12:34:00Z</time>
      </trkpt>
      <trkpt lat="46.49612" lon="-1.79492">
        <ele>4.9</ele>
        <time>2021-09-25T12:34:01Z</time>
      </trkpt>
      <trkpt lat="46.49612" lon="-1.79493">
        <ele>4.9</ele>
        <time>2021-09-25T12:34:02Z</time>
      </trkpt>
      <trkpt lat="46.49612" lon="-1.79493">
        <ele>4.9</ele>
        <time>2021-09-25T12:34:03Z</time>
      </trkpt>
      <trkpt lat="46.49612" lon="-1.79493">
        <ele>4.9</ele>
        <time>2021-09-25T12:34:04Z</time>
      </trkpt>
      <trkpt lat="46.49612" lon="-1.79493">
        <ele>4.9</ele>
        <time>2021-09-25T12:34:05Z</time>
      </trkpt>
      <trkpt lat="46.49612" lon="-1.79493">
        <ele>4.9</ele>
        <time>2021-09-25T12:34:06Z</time>
      </trkpt>
      <trkpt lat="46.49612" lon="-1.79493">
        <ele>4.9</ele>
        <time>2021-09-25T12:34:07Z</time>
      </trkpt>
      <trkpt lat="46.49612" lon="-1.79493">
        <ele>4.9</ele>
        <time>2021-09-25T12:34:08Z</time>
      </trkpt>
      <trkpt lat="46.49612" lon="-1.79493">
        <ele>4.9</ele>
        <time>2021-09-25T12:34:09Z</time>
      </trkpt>
      <trkpt lat="46.49612" lon="-1.79492">
        <ele>4.9</ele>
        <time>2021-09-25T12:34:10Z</time>
      </trkpt>
      <trkpt lat="46.49612" lon="-1.79492">
        <ele>4.9</ele>
        <time>2021-09-25T12:34:11Z</time>
      </trkpt>
      <trkpt lat="46.49612" lon="-1.79492">
        <ele>4.9</ele>
        <time>2021-09-25T12:34:12Z</time>
      </trkpt>
      <trkpt lat="46.49612" lon="-1.79492">
        <ele>4.9</ele>
        <time>2021-09-25T12:34:13Z</time>
      </trkpt>
      <trkpt lat="46.49612" lon="-1.79492">
        <ele>4.9</ele>
        <time>2021-09-25T12:34:14Z</time>
      </trkpt>
      <trkpt lat="46.49612" lon="-1.79492">
        <ele>4.9</ele>
        <time>2021-09-25T12:34:15Z</time>
      </trkpt>
      <trkpt lat="46.49612" lon="-1.79492">
        <ele>4.9</ele>
        <time>2021-09-25T12:34:16Z</time>
      </trkpt>
      <trkpt lat="46.49612" lon="-1.79492">
        <ele>4.9</ele>
        <time>2021-09-25T12:34:17Z</time>
      </trkpt>
      <trkpt lat="46.49612" lon="-1.79492">
        <ele>4.9</ele>
        <time>2021-09-25T12:34:18Z</time>
      </trkpt>
      <trkpt lat="46.49612" lon="-1.79492">
        <ele>4.9</ele>
        <time>2021-09-25T12:34:19Z</time>
      </trkpt>
      <trkpt lat="46.49612" lon="-1.79492">
        <ele>4.9</ele>
        <time>2021-09-25T12:34:20Z</time>
      </trkpt>
      <trkpt lat="46.49612" lon="-1.79492">
        <ele>4.9</ele>
        <time>2021-09-25T12:34:21Z</time>
      </trkpt>
      <trkpt lat="46.49612" lon="-1.79492">
        <ele>4.9</ele>
        <time>2021-09-25T12:34:22Z</time>
      </trkpt>
      <trkpt lat="46.49612" lon="-1.79492">
        <ele>4.9</ele>
        <time>2021-09-25T12:34:23Z</time>
      </trkpt>
      <trkpt lat="46.49613" lon="-1.79492">
        <ele>4.9</ele>
        <time>2021-09-25T12:34:24Z</time>
      </trkpt>
      <trkpt lat="46.49613" lon="-1.79491">
        <ele>4.9</ele>
        <time>2021-09-25T12:34:25Z</time>
      </trkpt>
      <trkpt lat="46.49613" lon="-1.79491">
        <ele>4.9</ele>
        <time>2021-09-25T12:34:26Z</time>
      </trkpt>
      <trkpt lat="46.49614" lon="-1.7949">
        <ele>4.9</ele>
        <time>2021-09-25T12:34:27Z</time>
      </trkpt>
      <trkpt lat="46.49614" lon="-1.79489">
        <ele>4.9</ele>
        <time>2021-09-25T12:34:28Z</time>
      </trkpt>
      <trkpt lat="46.49614" lon="-1.79488">
        <ele>4.9</ele>
        <time>2021-09-25T12:34:29Z</time>
      </trkpt>
      <trkpt lat="46.49614" lon="-1.79487">
        <ele>4.9</ele>
        <time>2021-09-25T12:34:30Z</time>
      </trkpt>
      <trkpt lat="46.49614" lon="-1.79486">
        <ele>4.9</ele>
        <time>2021-09-25T12:34:31Z</time>
      </trkpt>
      <trkpt lat="46.49615" lon="-1.79485">
        <ele>4.9</ele>
        <time>2021-09-25T12:34:32Z</time>
      </trkpt>
      <trkpt lat="46.49615" lon="-1.79484">
        <ele>4.9</ele>
        <time>2021-09-25T12:34:33Z</time>
      </trkpt>
      <trkpt lat="46.49615" lon="-1.79484">
        <ele>4.9</ele>
        <time>2021-09-25T12:34:34Z</time>
      </trkpt>
      <trkpt lat="46.49615" lon="-1.79484">
        <ele>4.9</ele>
        <time>2021-09-25T12:34:35Z</time>
      </trkpt>
      <trkpt lat="46.49615" lon="-1.79484">
        <ele>4.9</ele>
        <time>2021-09-25T12:34:36Z</time>
      </trkpt>
      <trkpt lat="46.49615" lon="-1.79484">
        <ele>4.9</ele>
        <time>2021-09-25T12:34:37Z</time>
      </trkpt>
      <trkpt lat="46.49615" lon="-1.79483">
        <ele>4.9</ele>
        <time>2021-09-25T12:34:38Z</time>
      </trkpt>
      <trkpt lat="46.49615" lon="-1.79483">
        <ele>4.9</ele>
        <time>2021-09-25T12:34:39Z</time>
      </trkpt>
      <trkpt lat="46.49615" lon="-1.79483">
        <ele>4.9</ele>
        <time>2021-09-25T12:34:40Z</time>
      </trkpt>
      <trkpt lat="46.49615" lon="-1.79482">
        <ele>4.9</ele>
        <time>2021-09-25T12:34:41Z</time>
      </trkpt>
      <trkpt lat="46.49615" lon="-1.79481">
        <ele>4.9</ele>
        <time>2021-09-25T12:34:42Z</time>
      </trkpt>
      <trkpt lat="46.49615" lon="-1.7948">
        <ele>4.9</ele>
        <time>2021-09-25T12:34:43Z</time>
      </trkpt>
      <trkpt lat="46.49615" lon="-1.79479">
        <ele>4.9</ele>
        <time>2021-09-25T12:34:44Z</time>
      </trkpt>
      <trkpt lat="46.49616" lon="-1.79478">
        <ele>4.9</ele>
        <time>2021-09-25T12:34:45Z</time>
      </trkpt>
      <trkpt lat="46.49616" lon="-1.79476">
        <ele>4.9</ele>
        <time>2021-09-25T12:34:46Z</time>
      </trkpt>
      <trkpt lat="46.49616" lon="-1.79475">
        <ele>4.9</ele>
        <time>2021-09-25T12:34:47Z</time>
      </trkpt>
      <trkpt lat="46.49617" lon="-1.79473">
        <ele>4.9</ele>
        <time>2021-09-25T12:34:48Z</time>
      </trkpt>
      <trkpt lat="46.49617" lon="-1.79472">
        <ele>4.9</ele>
        <time>2021-09-25T12:34:49Z</time>
      </trkpt>
      <trkpt lat="46.49617" lon="-1.79471">
        <ele>4.9</ele>
        <time>2021-09-25T12:34:50Z</time>
      </trkpt>
      <trkpt lat="46.49618" lon="-1.79469">
        <ele>5</ele>
        <time>2021-09-25T12:34:51Z</time>
      </trkpt>
      <trkpt lat="46.49618" lon="-1.79468">
        <ele>5</ele>
        <time>2021-09-25T12:34:52Z</time>
      </trkpt>
      <trkpt lat="46.49619" lon="-1.79467">
        <ele>5</ele>
        <time>2021-09-25T12:34:53Z</time>
      </trkpt>
      <trkpt lat="46.49619" lon="-1.79466">
        <ele>5</ele>
        <time>2021-09-25T12:34:54Z</time>
      </trkpt>
      <trkpt lat="46.49619" lon="-1.79465">
        <ele>5</ele>
        <time>2021-09-25T12:34:55Z</time>
      </trkpt>
      <trkpt lat="46.49619" lon="-1.79464">
        <ele>5</ele>
        <time>2021-09-25T12:34:56Z</time>
      </trkpt>
      <trkpt lat="46.4962" lon="-1.79464">
        <ele>5</ele>
        <time>2021-09-25T12:34:57Z</time>
      </trkpt>
      <trkpt lat="46.4962" lon="-1.79463">
        <ele>5</ele>
        <time>2021-09-25T12:34:58Z</time>
      </trkpt>
      <trkpt lat="46.4962" lon="-1.79463">
        <ele>5</ele>
        <time>2021-09-25T12:34:59Z</time>
      </trkpt>
      <trkpt lat="46.4962" lon="-1.79462">
        <ele>5</ele>
        <time>2021-09-25T12:35:00Z</time>
      </trkpt>
      <trkpt lat="46.4962" lon="-1.79462">
        <ele>5</ele>
        <time>2021-09-25T12:35:01Z</time>
      </trkpt>
      <trkpt lat="46.4962" lon="-1.79462">
        <ele>5</ele>
        <time>2021-09-25T12:35:02Z</time>
      </trkpt>
      <trkpt lat="46.4962" lon="-1.79463">
        <ele>5</ele>
        <time>2021-09-25T12:35:03Z</time>
      </trkpt>
      <trkpt lat="46.4962" lon="-1.79463">
        <ele>5</ele>
        <time>2021-09-25T12:35:04Z</time>
      </trkpt>
      <trkpt lat="46.4962" lon="-1.79463">
        <ele>5</ele>
        <time>2021-09-25T12:35:05Z</time>
      </trkpt>
      <trkpt lat="46.49619" lon="-1.79464">
        <ele>5</ele>
        <time>2021-09-25T12:35:06Z</time>
      </trkpt>
      <trkpt lat="46.49619" lon="-1.79464">
        <ele>5</ele>
        <time>2021-09-25T12:35:07Z</time>
      </trkpt>
      <trkpt lat="46.49619" lon="-1.79465">
        <ele>5</ele>
        <time>2021-09-25T12:35:08Z</time>
      </trkpt>
      <trkpt lat="46.49619" lon="-1.79466">
        <ele>5</ele>
        <time>2021-09-25T12:35:09Z</time>
      </trkpt>
      <trkpt lat="46.49619" lon="-1.79466">
        <ele>5</ele>
        <time>2021-09-25T12:35:10Z</time>
      </trkpt>
      <trkpt lat="46.49619" lon="-1.79467">
        <ele>5</ele>
        <time>2021-09-25T12:35:11Z</time>
      </trkpt>
      <trkpt lat="46.49619" lon="-1.79468">
        <ele>5</ele>
        <time>2021-09-25T12:35:12Z</time>
      </trkpt>
      <trkpt lat="46.4962" lon="-1.79468">
        <ele>5</ele>
        <time>2021-09-25T12:35:13Z</time>
      </trkpt>
      <trkpt lat="46.4962" lon="-1.79469">
        <ele>5</ele>
        <time>2021-09-25T12:35:14Z</time>
      </trkpt>
      <trkpt lat="46.4962" lon="-1.79469">
        <ele>4.9</ele>
        <time>2021-09-25T12:35:15Z</time>
      </trkpt>
      <trkpt lat="46.4962" lon="-1.7947">
        <ele>4.9</ele>
        <time>2021-09-25T12:35:16Z</time>
      </trkpt>
      <trkpt lat="46.4962" lon="-1.7947">
        <ele>4.9</ele>
        <time>2021-09-25T12:35:17Z</time>
      </trkpt>
      <trkpt lat="46.4962" lon="-1.79471">
        <ele>4.9</ele>
        <time>2021-09-25T12:35:18Z</time>
      </trkpt>
      <trkpt lat="46.4962" lon="-1.79471">
        <ele>4.9</ele>
        <time>2021-09-25T12:35:19Z</time>
      </trkpt>
      <trkpt lat="46.49621" lon="-1.79471">
        <ele>4.9</ele>
        <time>2021-09-25T12:35:20Z</time>
      </trkpt>
      <trkpt lat="46.49621" lon="-1.79471">
        <ele>4.9</ele>
        <time>2021-09-25T12:35:21Z</time>
      </trkpt>
      <trkpt lat="46.49621" lon="-1.79471">
        <ele>4.9</ele>
        <time>2021-09-25T12:35:22Z</time>
      </trkpt>
      <trkpt lat="46.49621" lon="-1.79471">
        <ele>4.9</ele>
        <time>2021-09-25T12:35:23Z</time>
      </trkpt>
      <trkpt lat="46.49621" lon="-1.79471">
        <ele>4.9</ele>
        <time>2021-09-25T12:35:24Z</time>
      </trkpt>
      <trkpt lat="46.49621" lon="-1.79471">
        <ele>4.9</ele>
        <time>2021-09-25T12:35:25Z</time>
      </trkpt>
      <trkpt lat="46.49621" lon="-1.79471">
        <ele>4.9</ele>
        <time>2021-09-25T12:35:26Z</time>
      </trkpt>
      <trkpt lat="46.49621" lon="-1.79471">
        <ele>4.9</ele>
        <time>2021-09-25T12:35:27Z</time>
      </trkpt>
      <trkpt lat="46.49621" lon="-1.79471">
        <ele>4.9</ele>
        <time>2021-09-25T12:35:28Z</time>
      </trkpt>
      <trkpt lat="46.49621" lon="-1.79471">
        <ele>4.8</ele>
        <time>2021-09-25T12:35:29Z</time>
      </trkpt>
      <trkpt lat="46.49621" lon="-1.79471">
        <ele>4.8</ele>
        <time>2021-09-25T12:35:30Z</time>
      </trkpt>
      <trkpt lat="46.49621" lon="-1.79472">
        <ele>4.8</ele>
        <time>2021-09-25T12:35:31Z</time>
      </trkpt>
      <trkpt lat="46.49621" lon="-1.79472">
        <ele>4.8</ele>
        <time>2021-09-25T12:35:32Z</time>
      </trkpt>
      <trkpt lat="46.49621" lon="-1.79472">
        <ele>4.8</ele>
        <time>2021-09-25T12:35:33Z</time>
      </trkpt>
      <trkpt lat="46.49621" lon="-1.79472">
        <ele>4.8</ele>
        <time>2021-09-25T12:35:34Z</time>
      </trkpt>
      <trkpt lat="46.49621" lon="-1.79472">
        <ele>4.8</ele>
        <time>2021-09-25T12:35:35Z</time>
      </trkpt>
      <trkpt lat="46.49621" lon="-1.79472">
        <ele>4.8</ele>
        <time>2021-09-25T12:35:36Z</time>
      </trkpt>
      <trkpt lat="46.49621" lon="-1.79472">
        <ele>4.8</ele>
        <time>2021-09-25T12:35:37Z</time>
      </trkpt>
      <trkpt lat="46.49621" lon="-1.79472">
        <ele>4.8</ele>
        <time>2021-09-25T12:35:38Z</time>
      </trkpt>
      <trkpt lat="46.49621" lon="-1.79472">
        <ele>4.8</ele>
        <time>2021-09-25T12:35:39Z</time>
      </trkpt>
      <trkpt lat="46.49621" lon="-1.79473">
        <ele>4.7</ele>
        <time>2021-09-25T12:35:40Z</time>
      </trkpt>
      <trkpt lat="46.49622" lon="-1.79475">
        <ele>4.5</ele>
        <time>2021-09-25T12:35:41Z</time>
      </trkpt>
      <trkpt lat="46.49623" lon="-1.79477">
        <ele>4.1</ele>
        <time>2021-09-25T12:35:42Z</time>
      </trkpt>
      <trkpt lat="46.49624" lon="-1.79479">
        <ele>3.9</ele>
        <time>2021-09-25T12:35:43Z</time>
      </trkpt>
      <trkpt lat="46.49625" lon="-1.79481">
        <ele>3.7</ele>
        <time>2021-09-25T12:35:44Z</time>
      </trkpt>
      <trkpt lat="46.49625" lon="-1.79482">
        <ele>3.5</ele>
        <time>2021-09-25T12:35:45Z</time>
      </trkpt>
      <trkpt lat="46.49625" lon="-1.79483">
        <ele>3.4</ele>
        <time>2021-09-25T12:35:46Z</time>
      </trkpt>
      <trkpt lat="46.49626" lon="-1.79483">
        <ele>3.4</ele>
        <time>2021-09-25T12:35:47Z</time>
      </trkpt>
      <trkpt lat="46.49626" lon="-1.79483">
        <ele>3.3</ele>
        <time>2021-09-25T12:35:48Z</time>
      </trkpt>
      <trkpt lat="46.49626" lon="-1.79484">
        <ele>3.2</ele>
        <time>2021-09-25T12:35:49Z</time>
      </trkpt>
      <trkpt lat="46.49626" lon="-1.79485">
        <ele>3.2</ele>
        <time>2021-09-25T12:35:50Z</time>
      </trkpt>
      <trkpt lat="46.49627" lon="-1.79486">
        <ele>3.1</ele>
        <time>2021-09-25T12:35:51Z</time>
      </trkpt>
      <trkpt lat="46.49627" lon="-1.79487">
        <ele>2.9</ele>
        <time>2021-09-25T12:35:52Z</time>
      </trkpt>
      <trkpt lat="46.49627" lon="-1.79487">
        <ele>2.8</ele>
        <time>2021-09-25T12:35:53Z</time>
      </trkpt>
      <trkpt lat="46.49628" lon="-1.79488">
        <ele>2.7</ele>
        <time>2021-09-25T12:35:54Z</time>
      </trkpt>
      <trkpt lat="46.49628" lon="-1.79489">
        <ele>2.6</ele>
        <time>2021-09-25T12:35:55Z</time>
      </trkpt>
      <trkpt lat="46.49628" lon="-1.7949">
        <ele>2.5</ele>
        <time>2021-09-25T12:35:56Z</time>
      </trkpt>
      <trkpt lat="46.49629" lon="-1.79491">
        <ele>2.4</ele>
        <time>2021-09-25T12:35:57Z</time>
      </trkpt>
      <trkpt lat="46.49629" lon="-1.79492">
        <ele>2.3</ele>
        <time>2021-09-25T12:35:58Z</time>
      </trkpt>
      <trkpt lat="46.49629" lon="-1.79492">
        <ele>2.2</ele>
        <time>2021-09-25T12:35:59Z</time>
      </trkpt>
      <trkpt lat="46.49629" lon="-1.79493">
        <ele>2.2</ele>
        <time>2021-09-25T12:36:00Z</time>
      </trkpt>
      <trkpt lat="46.49629" lon="-1.79493">
        <ele>2.1</ele>
        <time>2021-09-25T12:36:01Z</time>
      </trkpt>
      <trkpt lat="46.4963" lon="-1.79494">
        <ele>2.1</ele>
        <time>2021-09-25T12:36:02Z</time>
      </trkpt>
      <trkpt lat="46.4963" lon="-1.79494">
        <ele>2</ele>
        <time>2021-09-25T12:36:03Z</time>
      </trkpt>
      <trkpt lat="46.4963" lon="-1.79494">
        <ele>2</ele>
        <time>2021-09-25T12:36:04Z</time>
      </trkpt>
      <trkpt lat="46.4963" lon="-1.79494">
        <ele>2</ele>
        <time>2021-09-25T12:36:05Z</time>
      </trkpt>
      <trkpt lat="46.4963" lon="-1.79494">
        <ele>2</ele>
        <time>2021-09-25T12:36:06Z</time>
      </trkpt>
      <trkpt lat="46.4963" lon="-1.79494">
        <ele>2</ele>
        <time>2021-09-25T12:36:07Z</time>
      </trkpt>
      <trkpt lat="46.4963" lon="-1.79494">
        <ele>2</ele>
        <time>2021-09-25T12:36:08Z</time>
      </trkpt>
      <trkpt lat="46.4963" lon="-1.79495">
        <ele>1.9</ele>
        <time>2021-09-25T12:36:09Z</time>
      </trkpt>
      <trkpt lat="46.4963" lon="-1.79495">
        <ele>1.9</ele>
        <time>2021-09-25T12:36:10Z</time>
      </trkpt>
      <trkpt lat="46.4963" lon="-1.79496">
        <ele>1.8</ele>
        <time>2021-09-25T12:36:11Z</time>
      </trkpt>
      <trkpt lat="46.49631" lon="-1.79497">
        <ele>1.7</ele>
        <time>2021-09-25T12:36:12Z</time>
      </trkpt>
      <trkpt lat="46.49631" lon="-1.79498">
        <ele>1.5</ele>
        <time>2021-09-25T12:36:13Z</time>
      </trkpt>
      <trkpt lat="46.49632" lon="-1.79499">
        <ele>1.4</ele>
        <time>2021-09-25T12:36:14Z</time>
      </trkpt>
      <trkpt lat="46.49632" lon="-1.795">
        <ele>1.3</ele>
        <time>2021-09-25T12:36:15Z</time>
      </trkpt>
      <trkpt lat="46.49633" lon="-1.79501">
        <ele>1.2</ele>
        <time>2021-09-25T12:36:16Z</time>
      </trkpt>
      <trkpt lat="46.49634" lon="-1.79501">
        <ele>1.1</ele>
        <time>2021-09-25T12:36:17Z</time>
      </trkpt>
      <trkpt lat="46.49634" lon="-1.79501">
        <ele>1</ele>
        <time>2021-09-25T12:36:18Z</time>
      </trkpt>
      <trkpt lat="46.49634" lon="-1.79502">
        <ele>1</ele>
        <time>2021-09-25T12:36:19Z</time>
      </trkpt>
      <trkpt lat="46.49634" lon="-1.79502">
        <ele>0.9</ele>
        <time>2021-09-25T12:36:20Z</time>
      </trkpt>
      <trkpt lat="46.49635" lon="-1.79502">
        <ele>0.9</ele>
        <time>2021-09-25T12:36:21Z</time>
      </trkpt>
      <trkpt lat="46.49635" lon="-1.79502">
        <ele>0.9</ele>
        <time>2021-09-25T12:36:22Z</time>
      </trkpt>
      <trkpt lat="46.49635" lon="-1.79502">
        <ele>0.9</ele>
        <time>2021-09-25T12:36:23Z</time>
      </trkpt>
      <trkpt lat="46.49635" lon="-1.79502">
        <ele>0.9</ele>
        <time>2021-09-25T12:36:24Z</time>
      </trkpt>
      <trkpt lat="46.49635" lon="-1.79502">
        <ele>0.9</ele>
        <time>2021-09-25T12:36:25Z</time>
      </trkpt>
      <trkpt lat="46.49635" lon="-1.79502">
        <ele>0.9</ele>
        <time>2021-09-25T12:36:26Z</time>
      </trkpt>
      <trkpt lat="46.49635" lon="-1.79502">
        <ele>0.9</ele>
        <time>2021-09-25T12:36:27Z</time>
      </trkpt>
      <trkpt lat="46.49635" lon="-1.79502">
        <ele>0.9</ele>
        <time>2021-09-25T12:36:28Z</time>
      </trkpt>
      <trkpt lat="46.49635" lon="-1.79502">
        <ele>0.9</ele>
        <time>2021-09-25T12:36:29Z</time>
      </trkpt>
      <trkpt lat="46.49635" lon="-1.79502">
        <ele>0.9</ele>
        <time>2021-09-25T12:36:30Z</time>
      </trkpt>
      <trkpt lat="46.49635" lon="-1.79502">
        <ele>0.9</ele>
        <time>2021-09-25T12:36:31Z</time>
      </trkpt>
      <trkpt lat="46.49635" lon="-1.79502">
        <ele>0.9</ele>
        <time>2021-09-25T12:36:32Z</time>
      </trkpt>
      <trkpt lat="46.49635" lon="-1.79502">
        <ele>0.9</ele>
        <time>2021-09-25T12:36:33Z</time>
      </trkpt>
      <trkpt lat="46.49635" lon="-1.79502">
        <ele>0.9</ele>
        <time>2021-09-25T12:36:34Z</time>
      </trkpt>
      <trkpt lat="46.49635" lon="-1.79502">
        <ele>0.9</ele>
        <time>2021-09-25T12:36:35Z</time>
      </trkpt>
      <trkpt lat="46.49635" lon="-1.79502">
        <ele>0.9</ele>
        <time>2021-09-25T12:36:36Z</time>
      </trkpt>
      <trkpt lat="46.49635" lon="-1.79502">
        <ele>0.9</ele>
        <time>2021-09-25T12:36:37Z</time>
      </trkpt>
      <trkpt lat="46.49635" lon="-1.79502">
        <ele>0.9</ele>
        <time>2021-09-25T12:36:38Z</time>
      </trkpt>
      <trkpt lat="46.49635" lon="-1.79502">
        <ele>0.9</ele>
        <time>2021-09-25T12:36:39Z</time>
      </trkpt>
      <trkpt lat="46.49635" lon="-1.79502">
        <ele>0.9</ele>
        <time>2021-09-25T12:36:40Z</time>
      </trkpt>
      <trkpt lat="46.49635" lon="-1.79502">
        <ele>0.9</ele>
        <time>2021-09-25T12:36:41Z</time>
      </trkpt>
      <trkpt lat="46.49635" lon="-1.79502">
        <ele>0.9</ele>
        <time>2021-09-25T12:36:42Z</time>
      </trkpt>
      <trkpt lat="46.49635" lon="-1.79502">
        <ele>0.9</ele>
        <time>2021-09-25T12:36:43Z</time>
      </trkpt>
      <trkpt lat="46.49635" lon="-1.79502">
        <ele>0.9</ele>
        <time>2021-09-25T12:36:44Z</time>
      </trkpt>
      <trkpt lat="46.49635" lon="-1.79502">
        <ele>0.9</ele>
        <time>2021-09-25T12:36:45Z</time>
      </trkpt>
      <trkpt lat="46.49635" lon="-1.79502">
        <ele>0.9</ele>
        <time>2021-09-25T12:36:46Z</time>
      </trkpt>
      <trkpt lat="46.49635" lon="-1.79502">
        <ele>0.9</ele>
        <time>2021-09-25T12:36:47Z</time>
      </trkpt>
      <trkpt lat="46.49635" lon="-1.79502">
        <ele>0.9</ele>
        <time>2021-09-25T12:36:48Z</time>
      </trkpt>
      <trkpt lat="46.49635" lon="-1.79502">
        <ele>0.9</ele>
        <time>2021-09-25T12:36:49Z</time>
      </trkpt>
      <trkpt lat="46.49635" lon="-1.79502">
        <ele>0.9</ele>
        <time>2021-09-25T12:36:50Z</time>
      </trkpt>
      <trkpt lat="46.49635" lon="-1.79502">
        <ele>0.9</ele>
        <time>2021-09-25T12:36:51Z</time>
      </trkpt>
      <trkpt lat="46.49635" lon="-1.79502">
        <ele>0.9</ele>
        <time>2021-09-25T12:36:52Z</time>
      </trkpt>
      <trkpt lat="46.49635" lon="-1.79502">
        <ele>0.9</ele>
        <time>2021-09-25T12:36:53Z</time>
      </trkpt>
      <trkpt lat="46.49635" lon="-1.79502">
        <ele>0.9</ele>
        <time>2021-09-25T12:36:54Z</time>
      </trkpt>
      <trkpt lat="46.49635" lon="-1.79502">
        <ele>0.9</ele>
        <time>2021-09-25T12:36:55Z</time>
      </trkpt>
      <trkpt lat="46.49635" lon="-1.79502">
        <ele>0.9</ele>
        <time>2021-09-25T12:36:56Z</time>
      </trkpt>
      <trkpt lat="46.49635" lon="-1.79502">
        <ele>0.9</ele>
        <time>2021-09-25T12:36:57Z</time>
      </trkpt>
      <trkpt lat="46.49635" lon="-1.79502">
        <ele>0.9</ele>
        <time>2021-09-25T12:36:58Z</time>
      </trkpt>
      <trkpt lat="46.49635" lon="-1.79502">
        <ele>0.9</ele>
        <time>2021-09-25T12:36:59Z</time>
      </trkpt>
      <trkpt lat="46.49635" lon="-1.79502">
        <ele>0.9</ele>
        <time>2021-09-25T12:37:00Z</time>
      </trkpt>
      <trkpt lat="46.49635" lon="-1.79502">
        <ele>0.9</ele>
        <time>2021-09-25T12:37:01Z</time>
      </trkpt>
      <trkpt lat="46.49635" lon="-1.79502">
        <ele>0.9</ele>
        <time>2021-09-25T12:37:02Z</time>
      </trkpt>
      <trkpt lat="46.49635" lon="-1.79502">
        <ele>0.9</ele>
        <time>2021-09-25T12:37:03Z</time>
      </trkpt>
      <trkpt lat="46.49635" lon="-1.79502">
        <ele>0.9</ele>
        <time>2021-09-25T12:37:04Z</time>
      </trkpt>
      <trkpt lat="46.49635" lon="-1.79502">
        <ele>0.8</ele>
        <time>2021-09-25T12:37:05Z</time>
      </trkpt>
      <trkpt lat="46.49635" lon="-1.79502">
        <ele>0.8</ele>
        <time>2021-09-25T12:37:06Z</time>
      </trkpt>
      <trkpt lat="46.49635" lon="-1.79502">
        <ele>0.8</ele>
        <time>2021-09-25T12:37:07Z</time>
      </trkpt>
      <trkpt lat="46.49635" lon="-1.79502">
        <ele>0.8</ele>
        <time>2021-09-25T12:37:08Z</time>
      </trkpt>
      <trkpt lat="46.49635" lon="-1.79502">
        <ele>0.8</ele>
        <time>2021-09-25T12:37:09Z</time>
      </trkpt>
      <trkpt lat="46.49635" lon="-1.79502">
        <ele>0.8</ele>
        <time>2021-09-25T12:37:10Z</time>
      </trkpt>
      <trkpt lat="46.49635" lon="-1.79502">
        <ele>0.8</ele>
        <time>2021-09-25T12:37:11Z</time>
      </trkpt>
      <trkpt lat="46.49635" lon="-1.79502">
        <ele>0.8</ele>
        <time>2021-09-25T12:37:12Z</time>
      </trkpt>
      <trkpt lat="46.49635" lon="-1.79502">
        <ele>0.8</ele>
        <time>2021-09-25T12:37:13Z</time>
      </trkpt>
      <trkpt lat="46.49635" lon="-1.79502">
        <ele>0.8</ele>
        <time>2021-09-25T12:37:14Z</time>
      </trkpt>
      <trkpt lat="46.49635" lon="-1.79502">
        <ele>0.8</ele>
        <time>2021-09-25T12:37:15Z</time>
      </trkpt>
      <trkpt lat="46.49635" lon="-1.79502">
        <ele>0.8</ele>
        <time>2021-09-25T12:37:16Z</time>
      </trkpt>
      <trkpt lat="46.49635" lon="-1.79502">
        <ele>0.8</ele>
        <time>2021-09-25T12:37:17Z</time>
      </trkpt>
      <trkpt lat="46.49635" lon="-1.79502">
        <ele>0.8</ele>
        <time>2021-09-25T12:37:18Z</time>
      </trkpt>
      <trkpt lat="46.49635" lon="-1.79502">
        <ele>0.8</ele>
        <time>2021-09-25T12:37:19Z</time>
      </trkpt>
      <trkpt lat="46.49635" lon="-1.79502">
        <ele>0.8</ele>
        <time>2021-09-25T12:37:20Z</time>
      </trkpt>
      <trkpt lat="46.49635" lon="-1.79502">
        <ele>0.8</ele>
        <time>2021-09-25T12:37:21Z</time>
      </trkpt>
      <trkpt lat="46.49635" lon="-1.79502">
        <ele>0.8</ele>
        <time>2021-09-25T12:37:22Z</time>
      </trkpt>
      <trkpt lat="46.49635" lon="-1.79502">
        <ele>0.8</ele>
        <time>2021-09-25T12:37:23Z</time>
      </trkpt>
      <trkpt lat="46.49635" lon="-1.79502">
        <ele>0.8</ele>
        <time>2021-09-25T12:37:24Z</time>
      </trkpt>
      <trkpt lat="46.49635" lon="-1.79502">
        <ele>0.8</ele>
        <time>2021-09-25T12:37:25Z</time>
      </trkpt>
      <trkpt lat="46.49635" lon="-1.79502">
        <ele>0.8</ele>
        <time>2021-09-25T12:37:26Z</time>
      </trkpt>
      <trkpt lat="46.49635" lon="-1.79502">
        <ele>0.8</ele>
        <time>2021-09-25T12:37:27Z</time>
      </trkpt>
      <trkpt lat="46.49635" lon="-1.79502">
        <ele>0.8</ele>
        <time>2021-09-25T12:37:28Z</time>
      </trkpt>
      <trkpt lat="46.49635" lon="-1.79502">
        <ele>0.8</ele>
        <time>2021-09-25T12:37:29Z</time>
      </trkpt>
      <trkpt lat="46.49635" lon="-1.79502">
        <ele>0.8</ele>
        <time>2021-09-25T12:37:30Z</time>
      </trkpt>
      <trkpt lat="46.49635" lon="-1.79502">
        <ele>0.8</ele>
        <time>2021-09-25T12:37:31Z</time>
      </trkpt>
      <trkpt lat="46.49635" lon="-1.79502">
        <ele>0.8</ele>
        <time>2021-09-25T12:37:32Z</time>
      </trkpt>
      <trkpt lat="46.49635" lon="-1.79502">
        <ele>0.8</ele>
        <time>2021-09-25T12:37:33Z</time>
      </trkpt>
      <trkpt lat="46.49635" lon="-1.79502">
        <ele>0.8</ele>
        <time>2021-09-25T12:37:34Z</time>
      </trkpt>
      <trkpt lat="46.49635" lon="-1.79502">
        <ele>0.8</ele>
        <time>2021-09-25T12:37:35Z</time>
      </trkpt>
      <trkpt lat="46.49635" lon="-1.79502">
        <ele>0.8</ele>
        <time>2021-09-25T12:37:36Z</time>
      </trkpt>
      <trkpt lat="46.49635" lon="-1.79502">
        <ele>0.8</ele>
        <time>2021-09-25T12:37:37Z</time>
      </trkpt>
      <trkpt lat="46.49635" lon="-1.79502">
        <ele>0.8</ele>
        <time>2021-09-25T12:37:38Z</time>
      </trkpt>
      <trkpt lat="46.49635" lon="-1.79502">
        <ele>0.8</ele>
        <time>2021-09-25T12:37:39Z</time>
      </trkpt>
      <trkpt lat="46.49635" lon="-1.79502">
        <ele>0.8</ele>
        <time>2021-09-25T12:37:40Z</time>
      </trkpt>
      <trkpt lat="46.49635" lon="-1.79502">
        <ele>0.8</ele>
        <time>2021-09-25T12:37:41Z</time>
      </trkpt>
      <trkpt lat="46.49635" lon="-1.79502">
        <ele>0.8</ele>
        <time>2021-09-25T12:37:42Z</time>
      </trkpt>
      <trkpt lat="46.49635" lon="-1.79501">
        <ele>0.8</ele>
        <time>2021-09-25T12:37:43Z</time>
      </trkpt>
      <trkpt lat="46.49635" lon="-1.79501">
        <ele>0.8</ele>
        <time>2021-09-25T12:37:44Z</time>
      </trkpt>
      <trkpt lat="46.49635" lon="-1.79501">
        <ele>0.8</ele>
        <time>2021-09-25T12:37:45Z</time>
      </trkpt>
      <trkpt lat="46.49635" lon="-1.795">
        <ele>0.7</ele>
        <time>2021-09-25T12:37:46Z</time>
      </trkpt>
      <trkpt lat="46.49634" lon="-1.795">
        <ele>0.7</ele>
        <time>2021-09-25T12:37:47Z</time>
      </trkpt>
      <trkpt lat="46.49634" lon="-1.795">
        <ele>0.7</ele>
        <time>2021-09-25T12:37:48Z</time>
      </trkpt>
      <trkpt lat="46.49634" lon="-1.795">
        <ele>0.6</ele>
        <time>2021-09-25T12:37:49Z</time>
      </trkpt>
      <trkpt lat="46.49634" lon="-1.79499">
        <ele>0.6</ele>
        <time>2021-09-25T12:37:50Z</time>
      </trkpt>
      <trkpt lat="46.49634" lon="-1.79499">
        <ele>0.6</ele>
        <time>2021-09-25T12:37:51Z</time>
      </trkpt>
      <trkpt lat="46.49634" lon="-1.79499">
        <ele>0.6</ele>
        <time>2021-09-25T12:37:52Z</time>
      </trkpt>
      <trkpt lat="46.49634" lon="-1.79499">
        <ele>0.6</ele>
        <time>2021-09-25T12:37:53Z</time>
      </trkpt>
      <trkpt lat="46.49634" lon="-1.79499">
        <ele>0.6</ele>
        <time>2021-09-25T12:37:54Z</time>
      </trkpt>
      <trkpt lat="46.49634" lon="-1.79499">
        <ele>0.6</ele>
        <time>2021-09-25T12:37:55Z</time>
      </trkpt>
      <trkpt lat="46.49634" lon="-1.79499">
        <ele>0.6</ele>
        <time>2021-09-25T12:37:56Z</time>
      </trkpt>
      <trkpt lat="46.49634" lon="-1.79499">
        <ele>0.6</ele>
        <time>2021-09-25T12:37:57Z</time>
      </trkpt>
      <trkpt lat="46.49634" lon="-1.79499">
        <ele>0.6</ele>
        <time>2021-09-25T12:37:58Z</time>
      </trkpt>
      <trkpt lat="46.49634" lon="-1.79499">
        <ele>0.6</ele>
        <time>2021-09-25T12:37:59Z</time>
      </trkpt>
      <trkpt lat="46.49634" lon="-1.79499">
        <ele>0.5</ele>
        <time>2021-09-25T12:38:00Z</time>
      </trkpt>
      <trkpt lat="46.49634" lon="-1.79499">
        <ele>0.5</ele>
        <time>2021-09-25T12:38:01Z</time>
      </trkpt>
      <trkpt lat="46.49634" lon="-1.79499">
        <ele>0.5</ele>
        <time>2021-09-25T12:38:02Z</time>
      </trkpt>
      <trkpt lat="46.49634" lon="-1.79499">
        <ele>0.5</ele>
        <time>2021-09-25T12:38:03Z</time>
      </trkpt>
      <trkpt lat="46.49634" lon="-1.79499">
        <ele>0.5</ele>
        <time>2021-09-25T12:38:04Z</time>
      </trkpt>
      <trkpt lat="46.49634" lon="-1.79499">
        <ele>0.5</ele>
        <time>2021-09-25T12:38:05Z</time>
      </trkpt>
      <trkpt lat="46.49634" lon="-1.79499">
        <ele>0.5</ele>
        <time>2021-09-25T12:38:06Z</time>
      </trkpt>
      <trkpt lat="46.49634" lon="-1.79499">
        <ele>0.5</ele>
        <time>2021-09-25T12:38:07Z</time>
      </trkpt>
      <trkpt lat="46.49634" lon="-1.79499">
        <ele>0.5</ele>
        <time>2021-09-25T12:38:08Z</time>
      </trkpt>
      <trkpt lat="46.49634" lon="-1.79499">
        <ele>0.5</ele>
        <time>2021-09-25T12:38:09Z</time>
      </trkpt>
      <trkpt lat="46.49634" lon="-1.79499">
        <ele>0.5</ele>
        <time>2021-09-25T12:38:10Z</time>
      </trkpt>
      <trkpt lat="46.49634" lon="-1.79499">
        <ele>0.5</ele>
        <time>2021-09-25T12:38:11Z</time>
      </trkpt>
      <trkpt lat="46.49634" lon="-1.79499">
        <ele>0.5</ele>
        <time>2021-09-25T12:38:12Z</time>
      </trkpt>
      <trkpt lat="46.49634" lon="-1.79499">
        <ele>0.5</ele>
        <time>2021-09-25T12:38:13Z</time>
      </trkpt>
      <trkpt lat="46.49634" lon="-1.79499">
        <ele>0.5</ele>
        <time>2021-09-25T12:38:14Z</time>
      </trkpt>
      <trkpt lat="46.49634" lon="-1.79499">
        <ele>0.5</ele>
        <time>2021-09-25T12:38:15Z</time>
      </trkpt>
      <trkpt lat="46.49634" lon="-1.79499">
        <ele>0.5</ele>
        <time>2021-09-25T12:38:16Z</time>
      </trkpt>
      <trkpt lat="46.49634" lon="-1.79499">
        <ele>0.5</ele>
        <time>2021-09-25T12:38:17Z</time>
      </trkpt>
      <trkpt lat="46.49634" lon="-1.79499">
        <ele>0.5</ele>
        <time>2021-09-25T12:38:18Z</time>
      </trkpt>
      <trkpt lat="46.49634" lon="-1.79499">
        <ele>0.5</ele>
        <time>2021-09-25T12:38:19Z</time>
      </trkpt>
      <trkpt lat="46.49634" lon="-1.79499">
        <ele>0.5</ele>
        <time>2021-09-25T12:38:20Z</time>
      </trkpt>
      <trkpt lat="46.49634" lon="-1.79499">
        <ele>0.5</ele>
        <time>2021-09-25T12:38:21Z</time>
      </trkpt>
      <trkpt lat="46.49634" lon="-1.79499">
        <ele>0.5</ele>
        <time>2021-09-25T12:38:22Z</time>
      </trkpt>
      <trkpt lat="46.49634" lon="-1.79499">
        <ele>0.5</ele>
        <time>2021-09-25T12:38:23Z</time>
      </trkpt>
      <trkpt lat="46.49634" lon="-1.79499">
        <ele>0.5</ele>
        <time>2021-09-25T12:38:24Z</time>
      </trkpt>
      <trkpt lat="46.49634" lon="-1.79499">
        <ele>0.5</ele>
        <time>2021-09-25T12:38:25Z</time>
      </trkpt>
      <trkpt lat="46.49634" lon="-1.79499">
        <ele>0.5</ele>
        <time>2021-09-25T12:38:26Z</time>
      </trkpt>
      <trkpt lat="46.49634" lon="-1.79499">
        <ele>0.5</ele>
        <time>2021-09-25T12:38:27Z</time>
      </trkpt>
      <trkpt lat="46.49634" lon="-1.79499">
        <ele>0.5</ele>
        <time>2021-09-25T12:38:28Z</time>
      </trkpt>
      <trkpt lat="46.49634" lon="-1.79499">
        <ele>0.5</ele>
        <time>2021-09-25T12:38:29Z</time>
      </trkpt>
      <trkpt lat="46.49634" lon="-1.79499">
        <ele>0.5</ele>
        <time>2021-09-25T12:38:30Z</time>
      </trkpt>
      <trkpt lat="46.49634" lon="-1.79499">
        <ele>0.5</ele>
        <time>2021-09-25T12:38:31Z</time>
      </trkpt>
      <trkpt lat="46.49634" lon="-1.79499">
        <ele>0.5</ele>
        <time>2021-09-25T12:38:32Z</time>
      </trkpt>
      <trkpt lat="46.49634" lon="-1.79499">
        <ele>0.5</ele>
        <time>2021-09-25T12:38:33Z</time>
      </trkpt>
      <trkpt lat="46.49634" lon="-1.79499">
        <ele>0.5</ele>
        <time>2021-09-25T12:38:34Z</time>
      </trkpt>
      <trkpt lat="46.49634" lon="-1.79499">
        <ele>0.5</ele>
        <time>2021-09-25T12:38:35Z</time>
      </trkpt>
      <trkpt lat="46.49634" lon="-1.79499">
        <ele>0.5</ele>
        <time>2021-09-25T12:38:36Z</time>
      </trkpt>
      <trkpt lat="46.49634" lon="-1.79499">
        <ele>0.5</ele>
        <time>2021-09-25T12:38:37Z</time>
      </trkpt>
      <trkpt lat="46.49634" lon="-1.79499">
        <ele>0.5</ele>
        <time>2021-09-25T12:38:38Z</time>
      </trkpt>
      <trkpt lat="46.49634" lon="-1.79499">
        <ele>0.5</ele>
        <time>2021-09-25T12:38:39Z</time>
      </trkpt>
      <trkpt lat="46.49634" lon="-1.79499">
        <ele>0.5</ele>
        <time>2021-09-25T12:38:40Z</time>
      </trkpt>
      <trkpt lat="46.49634" lon="-1.79499">
        <ele>0.5</ele>
        <time>2021-09-25T12:38:41Z</time>
      </trkpt>
      <trkpt lat="46.49634" lon="-1.79499">
        <ele>0.5</ele>
        <time>2021-09-25T12:38:42Z</time>
      </trkpt>
      <trkpt lat="46.49634" lon="-1.79499">
        <ele>0.5</ele>
        <time>2021-09-25T12:38:43Z</time>
      </trkpt>
      <trkpt lat="46.49634" lon="-1.79499">
        <ele>0.5</ele>
        <time>2021-09-25T12:38:44Z</time>
      </trkpt>
      <trkpt lat="46.49634" lon="-1.79499">
        <ele>0.5</ele>
        <time>2021-09-25T12:38:45Z</time>
      </trkpt>
      <trkpt lat="46.49634" lon="-1.79499">
        <ele>0.5</ele>
        <time>2021-09-25T12:38:46Z</time>
      </trkpt>
      <trkpt lat="46.49634" lon="-1.79499">
        <ele>0.5</ele>
        <time>2021-09-25T12:38:47Z</time>
      </trkpt>
      <trkpt lat="46.49634" lon="-1.79499">
        <ele>0.5</ele>
        <time>2021-09-25T12:38:48Z</time>
      </trkpt>
      <trkpt lat="46.49634" lon="-1.79499">
        <ele>0.5</ele>
        <time>2021-09-25T12:38:49Z</time>
      </trkpt>
      <trkpt lat="46.49634" lon="-1.79499">
        <ele>0.5</ele>
        <time>2021-09-25T12:38:50Z</time>
      </trkpt>
      <trkpt lat="46.49634" lon="-1.79499">
        <ele>0.5</ele>
        <time>2021-09-25T12:38:51Z</time>
      </trkpt>
      <trkpt lat="46.49634" lon="-1.79499">
        <ele>0.5</ele>
        <time>2021-09-25T12:38:52Z</time>
      </trkpt>
      <trkpt lat="46.49634" lon="-1.79499">
        <ele>0.5</ele>
        <time>2021-09-25T12:38:53Z</time>
      </trkpt>
      <trkpt lat="46.49634" lon="-1.79499">
        <ele>0.5</ele>
        <time>2021-09-25T12:38:54Z</time>
      </trkpt>
      <trkpt lat="46.49634" lon="-1.79499">
        <ele>0.5</ele>
        <time>2021-09-25T12:38:55Z</time>
      </trkpt>
      <trkpt lat="46.49634" lon="-1.79499">
        <ele>0.5</ele>
        <time>2021-09-25T12:38:56Z</time>
      </trkpt>
      <trkpt lat="46.49634" lon="-1.79499">
        <ele>0.5</ele>
        <time>2021-09-25T12:38:57Z</time>
      </trkpt>
      <trkpt lat="46.49634" lon="-1.79499">
        <ele>0.5</ele>
        <time>2021-09-25T12:38:58Z</time>
      </trkpt>
      <trkpt lat="46.49634" lon="-1.79499">
        <ele>0.5</ele>
        <time>2021-09-25T12:38:59Z</time>
      </trkpt>
      <trkpt lat="46.49634" lon="-1.79499">
        <ele>0.5</ele>
        <time>2021-09-25T12:39:00Z</time>
      </trkpt>
      <trkpt lat="46.49634" lon="-1.79499">
        <ele>0.5</ele>
        <time>2021-09-25T12:39:01Z</time>
      </trkpt>
      <trkpt lat="46.49634" lon="-1.79499">
        <ele>0.5</ele>
        <time>2021-09-25T12:39:02Z</time>
      </trkpt>
      <trkpt lat="46.49634" lon="-1.79499">
        <ele>0.5</ele>
        <time>2021-09-25T12:39:03Z</time>
      </trkpt>
      <trkpt lat="46.49634" lon="-1.79499">
        <ele>0.5</ele>
        <time>2021-09-25T12:39:04Z</time>
      </trkpt>
      <trkpt lat="46.49634" lon="-1.79499">
        <ele>0.5</ele>
        <time>2021-09-25T12:39:05Z</time>
      </trkpt>
      <trkpt lat="46.49634" lon="-1.79499">
        <ele>0.5</ele>
        <time>2021-09-25T12:39:06Z</time>
      </trkpt>
      <trkpt lat="46.49634" lon="-1.79499">
        <ele>0.5</ele>
        <time>2021-09-25T12:39:07Z</time>
      </trkpt>
      <trkpt lat="46.49634" lon="-1.79499">
        <ele>0.5</ele>
        <time>2021-09-25T12:39:08Z</time>
      </trkpt>
      <trkpt lat="46.49634" lon="-1.79499">
        <ele>0.5</ele>
        <time>2021-09-25T12:39:09Z</time>
      </trkpt>
      <trkpt lat="46.49634" lon="-1.79499">
        <ele>0.5</ele>
        <time>2021-09-25T12:39:10Z</time>
      </trkpt>
      <trkpt lat="46.49634" lon="-1.79499">
        <ele>0.5</ele>
        <time>2021-09-25T12:39:11Z</time>
      </trkpt>
      <trkpt lat="46.49634" lon="-1.79499">
        <ele>0.5</ele>
        <time>2021-09-25T12:39:12Z</time>
      </trkpt>
      <trkpt lat="46.49634" lon="-1.79499">
        <ele>0.5</ele>
        <time>2021-09-25T12:39:13Z</time>
      </trkpt>
      <trkpt lat="46.49634" lon="-1.79499">
        <ele>0.5</ele>
        <time>2021-09-25T12:39:14Z</time>
      </trkpt>
      <trkpt lat="46.49635" lon="-1.79499">
        <ele>0.4</ele>
        <time>2021-09-25T12:39:15Z</time>
      </trkpt>
      <trkpt lat="46.49635" lon="-1.795">
        <ele>0.4</ele>
        <time>2021-09-25T12:39:16Z</time>
      </trkpt>
      <trkpt lat="46.49636" lon="-1.79501">
        <ele>0.3</ele>
        <time>2021-09-25T12:39:17Z</time>
      </trkpt>
      <trkpt lat="46.49636" lon="-1.79501">
        <ele>0.2</ele>
        <time>2021-09-25T12:39:18Z</time>
      </trkpt>
      <trkpt lat="46.49636" lon="-1.79502">
        <ele>0.2</ele>
        <time>2021-09-25T12:39:19Z</time>
      </trkpt>
      <trkpt lat="46.49637" lon="-1.79502">
        <ele>0.2</ele>
        <time>2021-09-25T12:39:20Z</time>
      </trkpt>
      <trkpt lat="46.49637" lon="-1.79502">
        <ele>0.2</ele>
        <time>2021-09-25T12:39:21Z</time>
      </trkpt>
      <trkpt lat="46.49637" lon="-1.79502">
        <ele>0.2</ele>
        <time>2021-09-25T12:39:22Z</time>
      </trkpt>
      <trkpt lat="46.49637" lon="-1.79502">
        <ele>0.2</ele>
        <time>2021-09-25T12:39:23Z</time>
      </trkpt>
      <trkpt lat="46.49637" lon="-1.79502">
        <ele>0.2</ele>
        <time>2021-09-25T12:39:24Z</time>
      </trkpt>
      <trkpt lat="46.49637" lon="-1.79502">
        <ele>0.2</ele>
        <time>2021-09-25T12:39:25Z</time>
      </trkpt>
      <trkpt lat="46.49637" lon="-1.79502">
        <ele>0.2</ele>
        <time>2021-09-25T12:39:26Z</time>
      </trkpt>
      <trkpt lat="46.49637" lon="-1.79502">
        <ele>0.2</ele>
        <time>2021-09-25T12:39:27Z</time>
      </trkpt>
      <trkpt lat="46.49637" lon="-1.79502">
        <ele>0.2</ele>
        <time>2021-09-25T12:39:28Z</time>
      </trkpt>
      <trkpt lat="46.49637" lon="-1.79502">
        <ele>0.2</ele>
        <time>2021-09-25T12:39:29Z</time>
      </trkpt>
      <trkpt lat="46.49637" lon="-1.79502">
        <ele>0.2</ele>
        <time>2021-09-25T12:39:30Z</time>
      </trkpt>
      <trkpt lat="46.49637" lon="-1.79502">
        <ele>0.2</ele>
        <time>2021-09-25T12:39:31Z</time>
      </trkpt>
      <trkpt lat="46.49637" lon="-1.79502">
        <ele>0.2</ele>
        <time>2021-09-25T12:39:32Z</time>
      </trkpt>
      <trkpt lat="46.49637" lon="-1.79502">
        <ele>0.2</ele>
        <time>2021-09-25T12:39:33Z</time>
      </trkpt>
      <trkpt lat="46.49637" lon="-1.79502">
        <ele>0.2</ele>
        <time>2021-09-25T12:39:34Z</time>
      </trkpt>
      <trkpt lat="46.49637" lon="-1.79502">
        <ele>0.2</ele>
        <time>2021-09-25T12:39:35Z</time>
      </trkpt>
      <trkpt lat="46.49637" lon="-1.79502">
        <ele>0.2</ele>
        <time>2021-09-25T12:39:36Z</time>
      </trkpt>
      <trkpt lat="46.49637" lon="-1.79502">
        <ele>0.2</ele>
        <time>2021-09-25T12:39:37Z</time>
      </trkpt>
      <trkpt lat="46.49637" lon="-1.79502">
        <ele>0.2</ele>
        <time>2021-09-25T12:39:38Z</time>
      </trkpt>
      <trkpt lat="46.49637" lon="-1.79502">
        <ele>0.2</ele>
        <time>2021-09-25T12:39:39Z</time>
      </trkpt>
      <trkpt lat="46.49637" lon="-1.79502">
        <ele>0.2</ele>
        <time>2021-09-25T12:39:40Z</time>
      </trkpt>
      <trkpt lat="46.49637" lon="-1.79502">
        <ele>0.2</ele>
        <time>2021-09-25T12:39:41Z</time>
      </trkpt>
      <trkpt lat="46.49637" lon="-1.79502">
        <ele>0.2</ele>
        <time>2021-09-25T12:39:42Z</time>
      </trkpt>
      <trkpt lat="46.49637" lon="-1.79502">
        <ele>0.2</ele>
        <time>2021-09-25T12:39:43Z</time>
      </trkpt>
      <trkpt lat="46.49637" lon="-1.79502">
        <ele>0.2</ele>
        <time>2021-09-25T12:39:44Z</time>
      </trkpt>
      <trkpt lat="46.49637" lon="-1.79502">
        <ele>0.2</ele>
        <time>2021-09-25T12:39:45Z</time>
      </trkpt>
      <trkpt lat="46.49637" lon="-1.79502">
        <ele>0.2</ele>
        <time>2021-09-25T12:39:46Z</time>
      </trkpt>
      <trkpt lat="46.49637" lon="-1.79502">
        <ele>0.2</ele>
        <time>2021-09-25T12:39:47Z</time>
      </trkpt>
      <trkpt lat="46.49637" lon="-1.79502">
        <ele>0.2</ele>
        <time>2021-09-25T12:39:48Z</time>
      </trkpt>
      <trkpt lat="46.49637" lon="-1.79502">
        <ele>0.2</ele>
        <time>2021-09-25T12:39:49Z</time>
      </trkpt>
      <trkpt lat="46.49637" lon="-1.79502">
        <ele>0.2</ele>
        <time>2021-09-25T12:39:50Z</time>
      </trkpt>
      <trkpt lat="46.49637" lon="-1.79502">
        <ele>0.2</ele>
        <time>2021-09-25T12:39:51Z</time>
      </trkpt>
      <trkpt lat="46.49637" lon="-1.79502">
        <ele>0.2</ele>
        <time>2021-09-25T12:39:52Z</time>
      </trkpt>
      <trkpt lat="46.49637" lon="-1.79502">
        <ele>0.2</ele>
        <time>2021-09-25T12:39:53Z</time>
      </trkpt>
      <trkpt lat="46.49637" lon="-1.79502">
        <ele>0.2</ele>
        <time>2021-09-25T12:39:54Z</time>
      </trkpt>
      <trkpt lat="46.49637" lon="-1.79502">
        <ele>0.2</ele>
        <time>2021-09-25T12:39:55Z</time>
      </trkpt>
      <trkpt lat="46.49637" lon="-1.79502">
        <ele>0.2</ele>
        <time>2021-09-25T12:39:56Z</time>
      </trkpt>
      <trkpt lat="46.49637" lon="-1.79502">
        <ele>0.2</ele>
        <time>2021-09-25T12:39:57Z</time>
      </trkpt>
      <trkpt lat="46.49637" lon="-1.79502">
        <ele>0.2</ele>
        <time>2021-09-25T12:39:58Z</time>
      </trkpt>
      <trkpt lat="46.49637" lon="-1.79502">
        <ele>0.2</ele>
        <time>2021-09-25T12:39:59Z</time>
      </trkpt>
      <trkpt lat="46.49637" lon="-1.79502">
        <ele>0.2</ele>
        <time>2021-09-25T12:40:00Z</time>
      </trkpt>
      <trkpt lat="46.49637" lon="-1.79502">
        <ele>0.2</ele>
        <time>2021-09-25T12:40:01Z</time>
      </trkpt>
      <trkpt lat="46.49637" lon="-1.79502">
        <ele>0.2</ele>
        <time>2021-09-25T12:40:02Z</time>
      </trkpt>
      <trkpt lat="46.49637" lon="-1.79502">
        <ele>0.2</ele>
        <time>2021-09-25T12:40:03Z</time>
      </trkpt>
      <trkpt lat="46.49637" lon="-1.79502">
        <ele>0.2</ele>
        <time>2021-09-25T12:40:04Z</time>
      </trkpt>
      <trkpt lat="46.49637" lon="-1.79502">
        <ele>0.2</ele>
        <time>2021-09-25T12:40:05Z</time>
      </trkpt>
      <trkpt lat="46.49637" lon="-1.79502">
        <ele>0.2</ele>
        <time>2021-09-25T12:40:06Z</time>
      </trkpt>
      <trkpt lat="46.49637" lon="-1.79502">
        <ele>0.2</ele>
        <time>2021-09-25T12:40:07Z</time>
      </trkpt>
      <trkpt lat="46.49637" lon="-1.79502">
        <ele>0.2</ele>
        <time>2021-09-25T12:40:08Z</time>
      </trkpt>
      <trkpt lat="46.49637" lon="-1.79502">
        <ele>0.2</ele>
        <time>2021-09-25T12:40:09Z</time>
      </trkpt>
      <trkpt lat="46.49637" lon="-1.79502">
        <ele>0.2</ele>
        <time>2021-09-25T12:40:10Z</time>
      </trkpt>
      <trkpt lat="46.49637" lon="-1.79502">
        <ele>0.2</ele>
        <time>2021-09-25T12:40:11Z</time>
      </trkpt>
      <trkpt lat="46.49637" lon="-1.79502">
        <ele>0.2</ele>
        <time>2021-09-25T12:40:12Z</time>
      </trkpt>
      <trkpt lat="46.49637" lon="-1.79502">
        <ele>0.2</ele>
        <time>2021-09-25T12:40:13Z</time>
      </trkpt>
      <trkpt lat="46.49637" lon="-1.79502">
        <ele>0.2</ele>
        <time>2021-09-25T12:40:14Z</time>
      </trkpt>
      <trkpt lat="46.49637" lon="-1.79502">
        <ele>0.2</ele>
        <time>2021-09-25T12:40:15Z</time>
      </trkpt>
      <trkpt lat="46.49637" lon="-1.79502">
        <ele>0.2</ele>
        <time>2021-09-25T12:40:16Z</time>
      </trkpt>
      <trkpt lat="46.49637" lon="-1.79502">
        <ele>0.2</ele>
        <time>2021-09-25T12:40:17Z</time>
      </trkpt>
      <trkpt lat="46.49637" lon="-1.79502">
        <ele>0.2</ele>
        <time>2021-09-25T12:40:18Z</time>
      </trkpt>
      <trkpt lat="46.49637" lon="-1.79502">
        <ele>0.2</ele>
        <time>2021-09-25T12:40:19Z</time>
      </trkpt>
      <trkpt lat="46.49637" lon="-1.79502">
        <ele>0.2</ele>
        <time>2021-09-25T12:40:20Z</time>
      </trkpt>
      <trkpt lat="46.49637" lon="-1.79502">
        <ele>0.2</ele>
        <time>2021-09-25T12:40:21Z</time>
      </trkpt>
      <trkpt lat="46.49637" lon="-1.79502">
        <ele>0.2</ele>
        <time>2021-09-25T12:40:22Z</time>
      </trkpt>
      <trkpt lat="46.49637" lon="-1.79502">
        <ele>0.2</ele>
        <time>2021-09-25T12:40:23Z</time>
      </trkpt>
      <trkpt lat="46.49637" lon="-1.79502">
        <ele>0.2</ele>
        <time>2021-09-25T12:40:24Z</time>
      </trkpt>
      <trkpt lat="46.49637" lon="-1.79502">
        <ele>0.2</ele>
        <time>2021-09-25T12:40:25Z</time>
      </trkpt>
      <trkpt lat="46.49637" lon="-1.79502">
        <ele>0.2</ele>
        <time>2021-09-25T12:40:26Z</time>
      </trkpt>
      <trkpt lat="46.49637" lon="-1.79502">
        <ele>0.2</ele>
        <time>2021-09-25T12:40:27Z</time>
      </trkpt>
      <trkpt lat="46.49637" lon="-1.79502">
        <ele>0.2</ele>
        <time>2021-09-25T12:40:28Z</time>
      </trkpt>
      <trkpt lat="46.49637" lon="-1.79502">
        <ele>0.2</ele>
        <time>2021-09-25T12:40:29Z</time>
      </trkpt>
      <trkpt lat="46.49637" lon="-1.79502">
        <ele>0.2</ele>
        <time>2021-09-25T12:40:30Z</time>
      </trkpt>
      <trkpt lat="46.49637" lon="-1.79501">
        <ele>0.2</ele>
        <time>2021-09-25T12:40:31Z</time>
      </trkpt>
      <trkpt lat="46.49637" lon="-1.795">
        <ele>0.2</ele>
        <time>2021-09-25T12:40:32Z</time>
      </trkpt>
      <trkpt lat="46.49637" lon="-1.79499">
        <ele>0.2</ele>
        <time>2021-09-25T12:40:33Z</time>
      </trkpt>
      <trkpt lat="46.49637" lon="-1.79499">
        <ele>0.2</ele>
        <time>2021-09-25T12:40:34Z</time>
      </trkpt>
      <trkpt lat="46.49637" lon="-1.79499">
        <ele>0.2</ele>
        <time>2021-09-25T12:40:35Z</time>
      </trkpt>
      <trkpt lat="46.49636" lon="-1.79499">
        <ele>0.2</ele>
        <time>2021-09-25T12:40:36Z</time>
      </trkpt>
      <trkpt lat="46.49636" lon="-1.79499">
        <ele>0.2</ele>
        <time>2021-09-25T12:40:37Z</time>
      </trkpt>
      <trkpt lat="46.49637" lon="-1.79499">
        <ele>0.2</ele>
        <time>2021-09-25T12:40:38Z</time>
      </trkpt>
      <trkpt lat="46.49637" lon="-1.79499">
        <ele>0.2</ele>
        <time>2021-09-25T12:40:39Z</time>
      </trkpt>
      <trkpt lat="46.49637" lon="-1.79499">
        <ele>0.2</ele>
        <time>2021-09-25T12:40:40Z</time>
      </trkpt>
      <trkpt lat="46.49637" lon="-1.79499">
        <ele>0.2</ele>
        <time>2021-09-25T12:40:41Z</time>
      </trkpt>
      <trkpt lat="46.49637" lon="-1.79499">
        <ele>0.2</ele>
        <time>2021-09-25T12:40:42Z</time>
      </trkpt>
      <trkpt lat="46.49637" lon="-1.795">
        <ele>0.2</ele>
        <time>2021-09-25T12:40:43Z</time>
      </trkpt>
      <trkpt lat="46.49638" lon="-1.795">
        <ele>0.2</ele>
        <time>2021-09-25T12:40:44Z</time>
      </trkpt>
      <trkpt lat="46.49638" lon="-1.795">
        <ele>0.2</ele>
        <time>2021-09-25T12:40:45Z</time>
      </trkpt>
      <trkpt lat="46.49638" lon="-1.795">
        <ele>0.2</ele>
        <time>2021-09-25T12:40:46Z</time>
      </trkpt>
      <trkpt lat="46.49638" lon="-1.795">
        <ele>0.2</ele>
        <time>2021-09-25T12:40:47Z</time>
      </trkpt>
      <trkpt lat="46.49638" lon="-1.795">
        <ele>0.2</ele>
        <time>2021-09-25T12:40:48Z</time>
      </trkpt>
      <trkpt lat="46.49638" lon="-1.795">
        <ele>0.2</ele>
        <time>2021-09-25T12:40:49Z</time>
      </trkpt>
      <trkpt lat="46.49638" lon="-1.795">
        <ele>0.2</ele>
        <time>2021-09-25T12:40:50Z</time>
      </trkpt>
      <trkpt lat="46.49638" lon="-1.795">
        <ele>0.2</ele>
        <time>2021-09-25T12:40:51Z</time>
      </trkpt>
      <trkpt lat="46.49638" lon="-1.795">
        <ele>0.2</ele>
        <time>2021-09-25T12:40:52Z</time>
      </trkpt>
      <trkpt lat="46.49638" lon="-1.795">
        <ele>0.2</ele>
        <time>2021-09-25T12:40:53Z</time>
      </trkpt>
      <trkpt lat="46.49638" lon="-1.795">
        <ele>0.2</ele>
        <time>2021-09-25T12:40:54Z</time>
      </trkpt>
      <trkpt lat="46.49638" lon="-1.795">
        <ele>0.2</ele>
        <time>2021-09-25T12:40:55Z</time>
      </trkpt>
      <trkpt lat="46.49638" lon="-1.795">
        <ele>0.2</ele>
        <time>2021-09-25T12:40:56Z</time>
      </trkpt>
      <trkpt lat="46.49638" lon="-1.795">
        <ele>0.2</ele>
        <time>2021-09-25T12:40:57Z</time>
      </trkpt>
      <trkpt lat="46.49638" lon="-1.795">
        <ele>0.2</ele>
        <time>2021-09-25T12:40:58Z</time>
      </trkpt>
      <trkpt lat="46.49638" lon="-1.795">
        <ele>0.2</ele>
        <time>2021-09-25T12:40:59Z</time>
      </trkpt>
      <trkpt lat="46.49638" lon="-1.795">
        <ele>0.2</ele>
        <time>2021-09-25T12:41:00Z</time>
      </trkpt>
      <trkpt lat="46.49638" lon="-1.795">
        <ele>0.2</ele>
        <time>2021-09-25T12:41:01Z</time>
      </trkpt>
      <trkpt lat="46.49638" lon="-1.795">
        <ele>0.2</ele>
        <time>2021-09-25T12:41:02Z</time>
      </trkpt>
      <trkpt lat="46.49638" lon="-1.795">
        <ele>0.2</ele>
        <time>2021-09-25T12:41:03Z</time>
      </trkpt>
      <trkpt lat="46.49638" lon="-1.795">
        <ele>0.2</ele>
        <time>2021-09-25T12:41:04Z</time>
      </trkpt>
      <trkpt lat="46.49638" lon="-1.795">
        <ele>0.2</ele>
        <time>2021-09-25T12:41:05Z</time>
      </trkpt>
      <trkpt lat="46.49638" lon="-1.795">
        <ele>0.2</ele>
        <time>2021-09-25T12:41:06Z</time>
      </trkpt>
      <trkpt lat="46.49638" lon="-1.795">
        <ele>0.2</ele>
        <time>2021-09-25T12:41:07Z</time>
      </trkpt>
      <trkpt lat="46.49638" lon="-1.795">
        <ele>0.2</ele>
        <time>2021-09-25T12:41:08Z</time>
      </trkpt>
      <trkpt lat="46.49638" lon="-1.795">
        <ele>0.2</ele>
        <time>2021-09-25T12:41:09Z</time>
      </trkpt>
      <trkpt lat="46.49638" lon="-1.795">
        <ele>0.2</ele>
        <time>2021-09-25T12:41:10Z</time>
      </trkpt>
      <trkpt lat="46.49638" lon="-1.795">
        <ele>0.2</ele>
        <time>2021-09-25T12:41:11Z</time>
      </trkpt>
      <trkpt lat="46.49638" lon="-1.795">
        <ele>0.2</ele>
        <time>2021-09-25T12:41:12Z</time>
      </trkpt>
      <trkpt lat="46.49638" lon="-1.795">
        <ele>0.2</ele>
        <time>2021-09-25T12:41:13Z</time>
      </trkpt>
      <trkpt lat="46.49638" lon="-1.795">
        <ele>0.2</ele>
        <time>2021-09-25T12:41:14Z</time>
      </trkpt>
      <trkpt lat="46.49638" lon="-1.795">
        <ele>0.2</ele>
        <time>2021-09-25T12:41:15Z</time>
      </trkpt>
      <trkpt lat="46.49638" lon="-1.795">
        <ele>0.2</ele>
        <time>2021-09-25T12:41:16Z</time>
      </trkpt>
      <trkpt lat="46.49638" lon="-1.795">
        <ele>0.2</ele>
        <time>2021-09-25T12:41:17Z</time>
      </trkpt>
      <trkpt lat="46.49638" lon="-1.795">
        <ele>0.2</ele>
        <time>2021-09-25T12:41:18Z</time>
      </trkpt>
      <trkpt lat="46.49638" lon="-1.795">
        <ele>0.2</ele>
        <time>2021-09-25T12:41:19Z</time>
      </trkpt>
      <trkpt lat="46.49638" lon="-1.795">
        <ele>0.2</ele>
        <time>2021-09-25T12:41:20Z</time>
      </trkpt>
      <trkpt lat="46.49638" lon="-1.795">
        <ele>0.2</ele>
        <time>2021-09-25T12:41:21Z</time>
      </trkpt>
      <trkpt lat="46.49638" lon="-1.795">
        <ele>0.2</ele>
        <time>2021-09-25T12:41:22Z</time>
      </trkpt>
      <trkpt lat="46.49638" lon="-1.795">
        <ele>0.2</ele>
        <time>2021-09-25T12:41:23Z</time>
      </trkpt>
      <trkpt lat="46.49638" lon="-1.795">
        <ele>0.2</ele>
        <time>2021-09-25T12:41:24Z</time>
      </trkpt>
      <trkpt lat="46.49638" lon="-1.795">
        <ele>0.2</ele>
        <time>2021-09-25T12:41:25Z</time>
      </trkpt>
      <trkpt lat="46.49638" lon="-1.795">
        <ele>0.2</ele>
        <time>2021-09-25T12:41:26Z</time>
      </trkpt>
      <trkpt lat="46.49638" lon="-1.795">
        <ele>0.2</ele>
        <time>2021-09-25T12:41:27Z</time>
      </trkpt>
      <trkpt lat="46.49638" lon="-1.79501">
        <ele>0.2</ele>
        <time>2021-09-25T12:41:28Z</time>
      </trkpt>
      <trkpt lat="46.49639" lon="-1.79501">
        <ele>0.2</ele>
        <time>2021-09-25T12:41:29Z</time>
      </trkpt>
      <trkpt lat="46.49639" lon="-1.79501">
        <ele>0.2</ele>
        <time>2021-09-25T12:41:30Z</time>
      </trkpt>
      <trkpt lat="46.4964" lon="-1.79502">
        <ele>0.2</ele>
        <time>2021-09-25T12:41:31Z</time>
      </trkpt>
      <trkpt lat="46.4964" lon="-1.79502">
        <ele>0.2</ele>
        <time>2021-09-25T12:41:32Z</time>
      </trkpt>
      <trkpt lat="46.49641" lon="-1.79502">
        <ele>0.2</ele>
        <time>2021-09-25T12:41:33Z</time>
      </trkpt>
      <trkpt lat="46.49642" lon="-1.79503">
        <ele>0.3</ele>
        <time>2021-09-25T12:41:34Z</time>
      </trkpt>
      <trkpt lat="46.49642" lon="-1.79503">
        <ele>0.3</ele>
        <time>2021-09-25T12:41:35Z</time>
      </trkpt>
      <trkpt lat="46.49643" lon="-1.79504">
        <ele>0.3</ele>
        <time>2021-09-25T12:41:36Z</time>
      </trkpt>
      <trkpt lat="46.49644" lon="-1.79505">
        <ele>0.3</ele>
        <time>2021-09-25T12:41:37Z</time>
      </trkpt>
      <trkpt lat="46.49645" lon="-1.79506">
        <ele>0.3</ele>
        <time>2021-09-25T12:41:38Z</time>
      </trkpt>
      <trkpt lat="46.49646" lon="-1.79507">
        <ele>0.3</ele>
        <time>2021-09-25T12:41:39Z</time>
      </trkpt>
      <trkpt lat="46.49646" lon="-1.79508">
        <ele>0.3</ele>
        <time>2021-09-25T12:41:40Z</time>
      </trkpt>
      <trkpt lat="46.49647" lon="-1.79508">
        <ele>0.3</ele>
        <time>2021-09-25T12:41:41Z</time>
      </trkpt>
      <trkpt lat="46.49648" lon="-1.79509">
        <ele>0.3</ele>
        <time>2021-09-25T12:41:42Z</time>
      </trkpt>
      <trkpt lat="46.49649" lon="-1.7951">
        <ele>0.3</ele>
        <time>2021-09-25T12:41:43Z</time>
      </trkpt>
      <trkpt lat="46.4965" lon="-1.79511">
        <ele>0.3</ele>
        <time>2021-09-25T12:41:44Z</time>
      </trkpt>
      <trkpt lat="46.4965" lon="-1.79512">
        <ele>0.3</ele>
        <time>2021-09-25T12:41:45Z</time>
      </trkpt>
      <trkpt lat="46.49651" lon="-1.79512">
        <ele>0.3</ele>
        <time>2021-09-25T12:41:46Z</time>
      </trkpt>
      <trkpt lat="46.49652" lon="-1.79513">
        <ele>0.3</ele>
        <time>2021-09-25T12:41:47Z</time>
      </trkpt>
      <trkpt lat="46.49652" lon="-1.79514">
        <ele>0.3</ele>
        <time>2021-09-25T12:41:48Z</time>
      </trkpt>
      <trkpt lat="46.49652" lon="-1.79514">
        <ele>0.3</ele>
        <time>2021-09-25T12:41:49Z</time>
      </trkpt>
      <trkpt lat="46.49653" lon="-1.79515">
        <ele>0.3</ele>
        <time>2021-09-25T12:41:50Z</time>
      </trkpt>
      <trkpt lat="46.49653" lon="-1.79515">
        <ele>0.3</ele>
        <time>2021-09-25T12:41:51Z</time>
      </trkpt>
      <trkpt lat="46.49653" lon="-1.79515">
        <ele>0.3</ele>
        <time>2021-09-25T12:41:52Z</time>
      </trkpt>
      <trkpt lat="46.49653" lon="-1.79515">
        <ele>0.3</ele>
        <time>2021-09-25T12:41:53Z</time>
      </trkpt>
      <trkpt lat="46.49653" lon="-1.79515">
        <ele>0.3</ele>
        <time>2021-09-25T12:41:54Z</time>
      </trkpt>
      <trkpt lat="46.49653" lon="-1.79515">
        <ele>0.3</ele>
        <time>2021-09-25T12:41:55Z</time>
      </trkpt>
      <trkpt lat="46.49653" lon="-1.79515">
        <ele>0.3</ele>
        <time>2021-09-25T12:41:56Z</time>
      </trkpt>
      <trkpt lat="46.49653" lon="-1.79514">
        <ele>0.3</ele>
        <time>2021-09-25T12:41:57Z</time>
      </trkpt>
      <trkpt lat="46.49653" lon="-1.79513">
        <ele>0.3</ele>
        <time>2021-09-25T12:41:58Z</time>
      </trkpt>
      <trkpt lat="46.49653" lon="-1.79512">
        <ele>0.3</ele>
        <time>2021-09-25T12:41:59Z</time>
      </trkpt>
      <trkpt lat="46.49653" lon="-1.79511">
        <ele>0.3</ele>
        <time>2021-09-25T12:42:00Z</time>
      </trkpt>
      <trkpt lat="46.49653" lon="-1.7951">
        <ele>0.2</ele>
        <time>2021-09-25T12:42:01Z</time>
      </trkpt>
      <trkpt lat="46.49653" lon="-1.79508">
        <ele>0.2</ele>
        <time>2021-09-25T12:42:02Z</time>
      </trkpt>
      <trkpt lat="46.49653" lon="-1.79506">
        <ele>0.2</ele>
        <time>2021-09-25T12:42:03Z</time>
      </trkpt>
      <trkpt lat="46.49653" lon="-1.79504">
        <ele>0.2</ele>
        <time>2021-09-25T12:42:04Z</time>
      </trkpt>
      <trkpt lat="46.49653" lon="-1.79502">
        <ele>0.2</ele>
        <time>2021-09-25T12:42:05Z</time>
      </trkpt>
      <trkpt lat="46.49653" lon="-1.795">
        <ele>0.2</ele>
        <time>2021-09-25T12:42:06Z</time>
      </trkpt>
      <trkpt lat="46.49653" lon="-1.79498">
        <ele>0.2</ele>
        <time>2021-09-25T12:42:07Z</time>
      </trkpt>
      <trkpt lat="46.49653" lon="-1.79496">
        <ele>0.2</ele>
        <time>2021-09-25T12:42:08Z</time>
      </trkpt>
      <trkpt lat="46.49654" lon="-1.79494">
        <ele>0.2</ele>
        <time>2021-09-25T12:42:09Z</time>
      </trkpt>
      <trkpt lat="46.49654" lon="-1.79492">
        <ele>0.2</ele>
        <time>2021-09-25T12:42:10Z</time>
      </trkpt>
      <trkpt lat="46.49654" lon="-1.7949">
        <ele>0.2</ele>
        <time>2021-09-25T12:42:11Z</time>
      </trkpt>
      <trkpt lat="46.49655" lon="-1.79488">
        <ele>0.1</ele>
        <time>2021-09-25T12:42:12Z</time>
      </trkpt>
      <trkpt lat="46.49655" lon="-1.79485">
        <ele>0.1</ele>
        <time>2021-09-25T12:42:13Z</time>
      </trkpt>
      <trkpt lat="46.49656" lon="-1.79483">
        <ele>0.1</ele>
        <time>2021-09-25T12:42:14Z</time>
      </trkpt>
      <trkpt lat="46.49656" lon="-1.79481">
        <ele>0.1</ele>
        <time>2021-09-25T12:42:15Z</time>
      </trkpt>
      <trkpt lat="46.49657" lon="-1.79479">
        <ele>0.1</ele>
        <time>2021-09-25T12:42:16Z</time>
      </trkpt>
      <trkpt lat="46.49657" lon="-1.79477">
        <ele>0.1</ele>
        <time>2021-09-25T12:42:17Z</time>
      </trkpt>
      <trkpt lat="46.49658" lon="-1.79475">
        <ele>0.1</ele>
        <time>2021-09-25T12:42:18Z</time>
      </trkpt>
      <trkpt lat="46.49659" lon="-1.79473">
        <ele>0.1</ele>
        <time>2021-09-25T12:42:19Z</time>
      </trkpt>
      <trkpt lat="46.49659" lon="-1.79472">
        <ele>1</ele>
        <time>2021-09-25T12:42:20Z</time>
      </trkpt>
      <trkpt lat="46.4966" lon="-1.7947">
        <ele>-0.1</ele>
        <time>2021-09-25T12:42:21Z</time>
      </trkpt>
      <trkpt lat="46.49661" lon="-1.79468">
        <ele>-0.1</ele>
        <time>2021-09-25T12:42:22Z</time>
      </trkpt>
      <trkpt lat="46.49662" lon="-1.79467">
        <ele>-0.1</ele>
        <time>2021-09-25T12:42:23Z</time>
      </trkpt>
      <trkpt lat="46.49663" lon="-1.79465">
        <ele>-0.1</ele>
        <time>2021-09-25T12:42:24Z</time>
      </trkpt>
      <trkpt lat="46.49664" lon="-1.79464">
        <ele>-0.1</ele>
        <time>2021-09-25T12:42:25Z</time>
      </trkpt>
      <trkpt lat="46.49666" lon="-1.79463">
        <ele>-0.2</ele>
        <time>2021-09-25T12:42:26Z</time>
      </trkpt>
      <trkpt lat="46.49667" lon="-1.79461">
        <ele>-0.2</ele>
        <time>2021-09-25T12:42:27Z</time>
      </trkpt>
      <trkpt lat="46.49668" lon="-1.7946">
        <ele>-0.2</ele>
        <time>2021-09-25T12:42:28Z</time>
      </trkpt>
      <trkpt lat="46.49669" lon="-1.79459">
        <ele>-0.2</ele>
        <time>2021-09-25T12:42:29Z</time>
      </trkpt>
      <trkpt lat="46.49671" lon="-1.79458">
        <ele>-0.3</ele>
        <time>2021-09-25T12:42:30Z</time>
      </trkpt>
      <trkpt lat="46.49672" lon="-1.79457">
        <ele>-0.2</ele>
        <time>2021-09-25T12:42:31Z</time>
      </trkpt>
      <trkpt lat="46.49674" lon="-1.79457">
        <ele>-0.2</ele>
        <time>2021-09-25T12:42:32Z</time>
      </trkpt>
      <trkpt lat="46.49675" lon="-1.79456">
        <ele>-0.2</ele>
        <time>2021-09-25T12:42:33Z</time>
      </trkpt>
      <trkpt lat="46.49677" lon="-1.79456">
        <ele>-0.2</ele>
        <time>2021-09-25T12:42:34Z</time>
      </trkpt>
      <trkpt lat="46.49678" lon="-1.79455">
        <ele>-0.1</ele>
        <time>2021-09-25T12:42:35Z</time>
      </trkpt>
      <trkpt lat="46.4968" lon="-1.79455">
        <ele>-0.1</ele>
        <time>2021-09-25T12:42:36Z</time>
      </trkpt>
      <trkpt lat="46.49681" lon="-1.79455">
        <ele>-0.1</ele>
        <time>2021-09-25T12:42:37Z</time>
      </trkpt>
      <trkpt lat="46.49683" lon="-1.79455">
        <ele>-0.1</ele>
        <time>2021-09-25T12:42:38Z</time>
      </trkpt>
      <trkpt lat="46.49684" lon="-1.79455">
        <ele>1</ele>
        <time>2021-09-25T12:42:39Z</time>
      </trkpt>
      <trkpt lat="46.49686" lon="-1.79455">
        <ele>1</ele>
        <time>2021-09-25T12:42:40Z</time>
      </trkpt>
      <trkpt lat="46.49687" lon="-1.79456">
        <ele>-0.1</ele>
        <time>2021-09-25T12:42:41Z</time>
      </trkpt>
      <trkpt lat="46.49689" lon="-1.79456">
        <ele>1</ele>
        <time>2021-09-25T12:42:42Z</time>
      </trkpt>
      <trkpt lat="46.4969" lon="-1.79457">
        <ele>1</ele>
        <time>2021-09-25T12:42:43Z</time>
      </trkpt>
      <trkpt lat="46.49692" lon="-1.79458">
        <ele>1</ele>
        <time>2021-09-25T12:42:44Z</time>
      </trkpt>
      <trkpt lat="46.49693" lon="-1.79459">
        <ele>1</ele>
        <time>2021-09-25T12:42:45Z</time>
      </trkpt>
      <trkpt lat="46.49694" lon="-1.7946">
        <ele>-0.1</ele>
        <time>2021-09-25T12:42:46Z</time>
      </trkpt>
      <trkpt lat="46.49696" lon="-1.79461">
        <ele>-0.1</ele>
        <time>2021-09-25T12:42:47Z</time>
      </trkpt>
      <trkpt lat="46.49697" lon="-1.79462">
        <ele>-0.1</ele>
        <time>2021-09-25T12:42:48Z</time>
      </trkpt>
      <trkpt lat="46.49698" lon="-1.79464">
        <ele>-0.1</ele>
        <time>2021-09-25T12:42:49Z</time>
      </trkpt>
      <trkpt lat="46.49699" lon="-1.79465">
        <ele>-0.2</ele>
        <time>2021-09-25T12:42:50Z</time>
      </trkpt>
      <trkpt lat="46.49701" lon="-1.79467">
        <ele>-0.2</ele>
        <time>2021-09-25T12:42:51Z</time>
      </trkpt>
      <trkpt lat="46.49702" lon="-1.79469">
        <ele>-0.2</ele>
        <time>2021-09-25T12:42:52Z</time>
      </trkpt>
      <trkpt lat="46.49703" lon="-1.79471">
        <ele>-0.2</ele>
        <time>2021-09-25T12:42:53Z</time>
      </trkpt>
      <trkpt lat="46.49704" lon="-1.79473">
        <ele>-0.2</ele>
        <time>2021-09-25T12:42:54Z</time>
      </trkpt>
      <trkpt lat="46.49704" lon="-1.79475">
        <ele>-0.2</ele>
        <time>2021-09-25T12:42:55Z</time>
      </trkpt>
      <trkpt lat="46.49705" lon="-1.79477">
        <ele>-0.2</ele>
        <time>2021-09-25T12:42:56Z</time>
      </trkpt>
      <trkpt lat="46.49706" lon="-1.79479">
        <ele>-0.3</ele>
        <time>2021-09-25T12:42:57Z</time>
      </trkpt>
      <trkpt lat="46.49706" lon="-1.79481">
        <ele>-0.3</ele>
        <time>2021-09-25T12:42:58Z</time>
      </trkpt>
      <trkpt lat="46.49707" lon="-1.79483">
        <ele>-0.3</ele>
        <time>2021-09-25T12:42:59Z</time>
      </trkpt>
      <trkpt lat="46.49708" lon="-1.79485">
        <ele>-0.3</ele>
        <time>2021-09-25T12:43:00Z</time>
      </trkpt>
      <trkpt lat="46.49708" lon="-1.79487">
        <ele>-0.3</ele>
        <time>2021-09-25T12:43:01Z</time>
      </trkpt>
      <trkpt lat="46.49708" lon="-1.7949">
        <ele>-0.3</ele>
        <time>2021-09-25T12:43:02Z</time>
      </trkpt>
      <trkpt lat="46.49709" lon="-1.79492">
        <ele>-0.3</ele>
        <time>2021-09-25T12:43:03Z</time>
      </trkpt>
      <trkpt lat="46.49709" lon="-1.79494">
        <ele>-0.3</ele>
        <time>2021-09-25T12:43:04Z</time>
      </trkpt>
      <trkpt lat="46.4971" lon="-1.79497">
        <ele>-0.3</ele>
        <time>2021-09-25T12:43:05Z</time>
      </trkpt>
      <trkpt lat="46.4971" lon="-1.79499">
        <ele>-0.3</ele>
        <time>2021-09-25T12:43:06Z</time>
      </trkpt>
      <trkpt lat="46.4971" lon="-1.79501">
        <ele>-0.3</ele>
        <time>2021-09-25T12:43:07Z</time>
      </trkpt>
      <trkpt lat="46.4971" lon="-1.79504">
        <ele>-0.4</ele>
        <time>2021-09-25T12:43:08Z</time>
      </trkpt>
      <trkpt lat="46.4971" lon="-1.79506">
        <ele>-0.4</ele>
        <time>2021-09-25T12:43:09Z</time>
      </trkpt>
      <trkpt lat="46.49711" lon="-1.79509">
        <ele>-0.4</ele>
        <time>2021-09-25T12:43:10Z</time>
      </trkpt>
      <trkpt lat="46.49711" lon="-1.79511">
        <ele>-0.4</ele>
        <time>2021-09-25T12:43:11Z</time>
      </trkpt>
      <trkpt lat="46.49711" lon="-1.79513">
        <ele>-0.4</ele>
        <time>2021-09-25T12:43:12Z</time>
      </trkpt>
      <trkpt lat="46.49711" lon="-1.79516">
        <ele>-0.4</ele>
        <time>2021-09-25T12:43:13Z</time>
      </trkpt>
      <trkpt lat="46.49711" lon="-1.79518">
        <ele>-0.4</ele>
        <time>2021-09-25T12:43:14Z</time>
      </trkpt>
      <trkpt lat="46.49711" lon="-1.79521">
        <ele>-0.4</ele>
        <time>2021-09-25T12:43:15Z</time>
      </trkpt>
      <trkpt lat="46.49712" lon="-1.79523">
        <ele>-0.4</ele>
        <time>2021-09-25T12:43:16Z</time>
      </trkpt>
      <trkpt lat="46.49712" lon="-1.79526">
        <ele>-0.4</ele>
        <time>2021-09-25T12:43:17Z</time>
      </trkpt>
      <trkpt lat="46.49712" lon="-1.79528">
        <ele>-0.4</ele>
        <time>2021-09-25T12:43:18Z</time>
      </trkpt>
      <trkpt lat="46.49712" lon="-1.79531">
        <ele>-0.5</ele>
        <time>2021-09-25T12:43:19Z</time>
      </trkpt>
      <trkpt lat="46.49712" lon="-1.79533">
        <ele>-0.5</ele>
        <time>2021-09-25T12:43:20Z</time>
      </trkpt>
      <trkpt lat="46.49712" lon="-1.79536">
        <ele>-0.5</ele>
        <time>2021-09-25T12:43:21Z</time>
      </trkpt>
      <trkpt lat="46.49713" lon="-1.79538">
        <ele>-0.5</ele>
        <time>2021-09-25T12:43:22Z</time>
      </trkpt>
      <trkpt lat="46.49713" lon="-1.79541">
        <ele>-0.5</ele>
        <time>2021-09-25T12:43:23Z</time>
      </trkpt>
      <trkpt lat="46.49713" lon="-1.79543">
        <ele>-0.5</ele>
        <time>2021-09-25T12:43:24Z</time>
      </trkpt>
      <trkpt lat="46.49713" lon="-1.79546">
        <ele>-0.5</ele>
        <time>2021-09-25T12:43:25Z</time>
      </trkpt>
      <trkpt lat="46.49713" lon="-1.79548">
        <ele>-0.5</ele>
        <time>2021-09-25T12:43:26Z</time>
      </trkpt>
      <trkpt lat="46.49714" lon="-1.79551">
        <ele>-0.5</ele>
        <time>2021-09-25T12:43:27Z</time>
      </trkpt>
      <trkpt lat="46.49714" lon="-1.79554">
        <ele>-0.6</ele>
        <time>2021-09-25T12:43:28Z</time>
      </trkpt>
      <trkpt lat="46.49714" lon="-1.79556">
        <ele>-0.6</ele>
        <time>2021-09-25T12:43:29Z</time>
      </trkpt>
      <trkpt lat="46.49714" lon="-1.79559">
        <ele>-0.6</ele>
        <time>2021-09-25T12:43:30Z</time>
      </trkpt>
      <trkpt lat="46.49714" lon="-1.79562">
        <ele>-0.7</ele>
        <time>2021-09-25T12:43:31Z</time>
      </trkpt>
      <trkpt lat="46.49714" lon="-1.79564">
        <ele>-0.7</ele>
        <time>2021-09-25T12:43:32Z</time>
      </trkpt>
      <trkpt lat="46.49715" lon="-1.79567">
        <ele>-0.6</ele>
        <time>2021-09-25T12:43:33Z</time>
      </trkpt>
      <trkpt lat="46.49715" lon="-1.7957">
        <ele>-0.6</ele>
        <time>2021-09-25T12:43:34Z</time>
      </trkpt>
      <trkpt lat="46.49715" lon="-1.79572">
        <ele>-0.6</ele>
        <time>2021-09-25T12:43:35Z</time>
      </trkpt>
      <trkpt lat="46.49715" lon="-1.79575">
        <ele>-0.6</ele>
        <time>2021-09-25T12:43:36Z</time>
      </trkpt>
      <trkpt lat="46.49715" lon="-1.79578">
        <ele>-0.5</ele>
        <time>2021-09-25T12:43:37Z</time>
      </trkpt>
      <trkpt lat="46.49715" lon="-1.7958">
        <ele>-0.4</ele>
        <time>2021-09-25T12:43:38Z</time>
      </trkpt>
      <trkpt lat="46.49715" lon="-1.79583">
        <ele>-0.4</ele>
        <time>2021-09-25T12:43:39Z</time>
      </trkpt>
      <trkpt lat="46.49715" lon="-1.79586">
        <ele>-0.4</ele>
        <time>2021-09-25T12:43:40Z</time>
      </trkpt>
      <trkpt lat="46.49715" lon="-1.79588">
        <ele>-0.5</ele>
        <time>2021-09-25T12:43:41Z</time>
      </trkpt>
      <trkpt lat="46.49715" lon="-1.79591">
        <ele>-0.5</ele>
        <time>2021-09-25T12:43:42Z</time>
      </trkpt>
      <trkpt lat="46.49715" lon="-1.79593">
        <ele>-0.6</ele>
        <time>2021-09-25T12:43:43Z</time>
      </trkpt>
      <trkpt lat="46.49715" lon="-1.79596">
        <ele>-0.6</ele>
        <time>2021-09-25T12:43:44Z</time>
      </trkpt>
      <trkpt lat="46.49715" lon="-1.79598">
        <ele>-0.8</ele>
        <time>2021-09-25T12:43:45Z</time>
      </trkpt>
      <trkpt lat="46.49715" lon="-1.796">
        <ele>-0.8</ele>
        <time>2021-09-25T12:43:46Z</time>
      </trkpt>
      <trkpt lat="46.49714" lon="-1.79603">
        <ele>-1</ele>
        <time>2021-09-25T12:43:47Z</time>
      </trkpt>
      <trkpt lat="46.49714" lon="-1.79605">
        <ele>-1</ele>
        <time>2021-09-25T12:43:48Z</time>
      </trkpt>
      <trkpt lat="46.49713" lon="-1.79607">
        <ele>-1.3</ele>
        <time>2021-09-25T12:43:49Z</time>
      </trkpt>
      <trkpt lat="46.49713" lon="-1.79609">
        <ele>-1.3</ele>
        <time>2021-09-25T12:43:50Z</time>
      </trkpt>
      <trkpt lat="46.49712" lon="-1.79611">
        <ele>-1.4</ele>
        <time>2021-09-25T12:43:51Z</time>
      </trkpt>
      <trkpt lat="46.49711" lon="-1.79612">
        <ele>-1.4</ele>
        <time>2021-09-25T12:43:52Z</time>
      </trkpt>
      <trkpt lat="46.4971" lon="-1.79614">
        <ele>-1.5</ele>
        <time>2021-09-25T12:43:53Z</time>
      </trkpt>
      <trkpt lat="46.49709" lon="-1.79616">
        <ele>-1.5</ele>
        <time>2021-09-25T12:43:54Z</time>
      </trkpt>
      <trkpt lat="46.49708" lon="-1.79617">
        <ele>-1.2</ele>
        <time>2021-09-25T12:43:55Z</time>
      </trkpt>
      <trkpt lat="46.49707" lon="-1.79618">
        <ele>-1</ele>
        <time>2021-09-25T12:43:56Z</time>
      </trkpt>
      <trkpt lat="46.49706" lon="-1.79619">
        <ele>-0.6</ele>
        <time>2021-09-25T12:43:57Z</time>
      </trkpt>
      <trkpt lat="46.49705" lon="-1.7962">
        <ele>-0.6</ele>
        <time>2021-09-25T12:43:58Z</time>
      </trkpt>
      <trkpt lat="46.49704" lon="-1.79621">
        <ele>-0.6</ele>
        <time>2021-09-25T12:43:59Z</time>
      </trkpt>
      <trkpt lat="46.49703" lon="-1.79622">
        <ele>-0.2</ele>
        <time>2021-09-25T12:44:00Z</time>
      </trkpt>
      <trkpt lat="46.49702" lon="-1.79622">
        <ele>0.3</ele>
        <time>2021-09-25T12:44:01Z</time>
      </trkpt>
      <trkpt lat="46.49701" lon="-1.79623">
        <ele>0.3</ele>
        <time>2021-09-25T12:44:02Z</time>
      </trkpt>
      <trkpt lat="46.497" lon="-1.79623">
        <ele>0.9</ele>
        <time>2021-09-25T12:44:03Z</time>
      </trkpt>
      <trkpt lat="46.49699" lon="-1.79623">
        <ele>0.9</ele>
        <time>2021-09-25T12:44:04Z</time>
      </trkpt>
      <trkpt lat="46.49699" lon="-1.79624">
        <ele>0.9</ele>
        <time>2021-09-25T12:44:05Z</time>
      </trkpt>
      <trkpt lat="46.49698" lon="-1.79624">
        <ele>0.9</ele>
        <time>2021-09-25T12:44:06Z</time>
      </trkpt>
      <trkpt lat="46.49698" lon="-1.79624">
        <ele>0.9</ele>
        <time>2021-09-25T12:44:07Z</time>
      </trkpt>
      <trkpt lat="46.49698" lon="-1.79624">
        <ele>0.9</ele>
        <time>2021-09-25T12:44:08Z</time>
      </trkpt>
      <trkpt lat="46.49697" lon="-1.79624">
        <ele>1.5</ele>
        <time>2021-09-25T12:44:09Z</time>
      </trkpt>
      <trkpt lat="46.49697" lon="-1.79624">
        <ele>1.5</ele>
        <time>2021-09-25T12:44:10Z</time>
      </trkpt>
      <trkpt lat="46.49697" lon="-1.79624">
        <ele>1.5</ele>
        <time>2021-09-25T12:44:11Z</time>
      </trkpt>
      <trkpt lat="46.49697" lon="-1.79624">
        <ele>1.5</ele>
        <time>2021-09-25T12:44:12Z</time>
      </trkpt>
      <trkpt lat="46.49697" lon="-1.79624">
        <ele>1.5</ele>
        <time>2021-09-25T12:44:13Z</time>
      </trkpt>
      <trkpt lat="46.49697" lon="-1.79625">
        <ele>1.5</ele>
        <time>2021-09-25T12:44:14Z</time>
      </trkpt>
      <trkpt lat="46.49696" lon="-1.79625">
        <ele>1.5</ele>
        <time>2021-09-25T12:44:15Z</time>
      </trkpt>
      <trkpt lat="46.49696" lon="-1.79625">
        <ele>1.5</ele>
        <time>2021-09-25T12:44:16Z</time>
      </trkpt>
      <trkpt lat="46.49695" lon="-1.79625">
        <ele>1.5</ele>
        <time>2021-09-25T12:44:17Z</time>
      </trkpt>
      <trkpt lat="46.49695" lon="-1.79625">
        <ele>1.5</ele>
        <time>2021-09-25T12:44:18Z</time>
      </trkpt>
      <trkpt lat="46.49695" lon="-1.79625">
        <ele>1.5</ele>
        <time>2021-09-25T12:44:19Z</time>
      </trkpt>
      <trkpt lat="46.49695" lon="-1.79626">
        <ele>1.5</ele>
        <time>2021-09-25T12:44:20Z</time>
      </trkpt>
      <trkpt lat="46.49695" lon="-1.79626">
        <ele>1.5</ele>
        <time>2021-09-25T12:44:21Z</time>
      </trkpt>
      <trkpt lat="46.49695" lon="-1.79626">
        <ele>1.5</ele>
        <time>2021-09-25T12:44:22Z</time>
      </trkpt>
      <trkpt lat="46.49695" lon="-1.79626">
        <ele>1.5</ele>
        <time>2021-09-25T12:44:23Z</time>
      </trkpt>
      <trkpt lat="46.49695" lon="-1.79626">
        <ele>1.5</ele>
        <time>2021-09-25T12:44:24Z</time>
      </trkpt>
      <trkpt lat="46.49695" lon="-1.79626">
        <ele>1.5</ele>
        <time>2021-09-25T12:44:25Z</time>
      </trkpt>
      <trkpt lat="46.49695" lon="-1.79626">
        <ele>1.5</ele>
        <time>2021-09-25T12:44:26Z</time>
      </trkpt>
      <trkpt lat="46.49695" lon="-1.79626">
        <ele>1.5</ele>
        <time>2021-09-25T12:44:27Z</time>
      </trkpt>
      <trkpt lat="46.49695" lon="-1.79626">
        <ele>1.5</ele>
        <time>2021-09-25T12:44:28Z</time>
      </trkpt>
      <trkpt lat="46.49695" lon="-1.79626">
        <ele>1.5</ele>
        <time>2021-09-25T12:44:29Z</time>
      </trkpt>
      <trkpt lat="46.49695" lon="-1.79626">
        <ele>1.5</ele>
        <time>2021-09-25T12:44:30Z</time>
      </trkpt>
      <trkpt lat="46.49695" lon="-1.79626">
        <ele>1.5</ele>
        <time>2021-09-25T12:44:31Z</time>
      </trkpt>
      <trkpt lat="46.49695" lon="-1.79626">
        <ele>1.5</ele>
        <time>2021-09-25T12:44:32Z</time>
      </trkpt>
      <trkpt lat="46.49695" lon="-1.79626">
        <ele>1.5</ele>
        <time>2021-09-25T12:44:33Z</time>
      </trkpt>
      <trkpt lat="46.49695" lon="-1.79626">
        <ele>1.5</ele>
        <time>2021-09-25T12:44:34Z</time>
      </trkpt>
      <trkpt lat="46.49694" lon="-1.79626">
        <ele>2.1</ele>
        <time>2021-09-25T12:44:35Z</time>
      </trkpt>
      <trkpt lat="46.49694" lon="-1.79627">
        <ele>2.7</ele>
        <time>2021-09-25T12:44:36Z</time>
      </trkpt>
      <trkpt lat="46.49694" lon="-1.79627">
        <ele>2.7</ele>
        <time>2021-09-25T12:44:37Z</time>
      </trkpt>
      <trkpt lat="46.49693" lon="-1.79628">
        <ele>2.7</ele>
        <time>2021-09-25T12:44:38Z</time>
      </trkpt>
      <trkpt lat="46.49693" lon="-1.79628">
        <ele>2.7</ele>
        <time>2021-09-25T12:44:39Z</time>
      </trkpt>
      <trkpt lat="46.49693" lon="-1.79629">
        <ele>2.7</ele>
        <time>2021-09-25T12:44:40Z</time>
      </trkpt>
      <trkpt lat="46.49692" lon="-1.79629">
        <ele>2.7</ele>
        <time>2021-09-25T12:44:41Z</time>
      </trkpt>
      <trkpt lat="46.49692" lon="-1.79629">
        <ele>2.7</ele>
        <time>2021-09-25T12:44:42Z</time>
      </trkpt>
      <trkpt lat="46.49691" lon="-1.79629">
        <ele>2.7</ele>
        <time>2021-09-25T12:44:43Z</time>
      </trkpt>
      <trkpt lat="46.49691" lon="-1.79629">
        <ele>2.8</ele>
        <time>2021-09-25T12:44:44Z</time>
      </trkpt>
      <trkpt lat="46.4969" lon="-1.79629">
        <ele>2.8</ele>
        <time>2021-09-25T12:44:45Z</time>
      </trkpt>
      <trkpt lat="46.4969" lon="-1.79628">
        <ele>2.8</ele>
        <time>2021-09-25T12:44:46Z</time>
      </trkpt>
      <trkpt lat="46.4969" lon="-1.79628">
        <ele>2.9</ele>
        <time>2021-09-25T12:44:47Z</time>
      </trkpt>
      <trkpt lat="46.4969" lon="-1.79628">
        <ele>2.9</ele>
        <time>2021-09-25T12:44:48Z</time>
      </trkpt>
      <trkpt lat="46.4969" lon="-1.79628">
        <ele>2.9</ele>
        <time>2021-09-25T12:44:49Z</time>
      </trkpt>
      <trkpt lat="46.4969" lon="-1.79628">
        <ele>2.9</ele>
        <time>2021-09-25T12:44:50Z</time>
      </trkpt>
      <trkpt lat="46.4969" lon="-1.79629">
        <ele>2.9</ele>
        <time>2021-09-25T12:44:51Z</time>
      </trkpt>
      <trkpt lat="46.4969" lon="-1.79629">
        <ele>2.9</ele>
        <time>2021-09-25T12:44:52Z</time>
      </trkpt>
      <trkpt lat="46.49689" lon="-1.79629">
        <ele>2.9</ele>
        <time>2021-09-25T12:44:53Z</time>
      </trkpt>
      <trkpt lat="46.49689" lon="-1.79629">
        <ele>2.9</ele>
        <time>2021-09-25T12:44:54Z</time>
      </trkpt>
      <trkpt lat="46.49689" lon="-1.79629">
        <ele>3</ele>
        <time>2021-09-25T12:44:55Z</time>
      </trkpt>
      <trkpt lat="46.49689" lon="-1.79629">
        <ele>3</ele>
        <time>2021-09-25T12:44:56Z</time>
      </trkpt>
      <trkpt lat="46.49688" lon="-1.79628">
        <ele>3</ele>
        <time>2021-09-25T12:44:57Z</time>
      </trkpt>
      <trkpt lat="46.49688" lon="-1.79628">
        <ele>3.1</ele>
        <time>2021-09-25T12:44:58Z</time>
      </trkpt>
      <trkpt lat="46.49687" lon="-1.79628">
        <ele>3.1</ele>
        <time>2021-09-25T12:44:59Z</time>
      </trkpt>
      <trkpt lat="46.49687" lon="-1.79628">
        <ele>3.1</ele>
        <time>2021-09-25T12:45:00Z</time>
      </trkpt>
      <trkpt lat="46.49687" lon="-1.79628">
        <ele>3.2</ele>
        <time>2021-09-25T12:45:01Z</time>
      </trkpt>
      <trkpt lat="46.49687" lon="-1.79628">
        <ele>3.2</ele>
        <time>2021-09-25T12:45:02Z</time>
      </trkpt>
      <trkpt lat="46.49687" lon="-1.79628">
        <ele>3.2</ele>
        <time>2021-09-25T12:45:03Z</time>
      </trkpt>
      <trkpt lat="46.49687" lon="-1.79628">
        <ele>3.2</ele>
        <time>2021-09-25T12:45:04Z</time>
      </trkpt>
      <trkpt lat="46.49687" lon="-1.79628">
        <ele>3.2</ele>
        <time>2021-09-25T12:45:05Z</time>
      </trkpt>
      <trkpt lat="46.49687" lon="-1.79628">
        <ele>3.2</ele>
        <time>2021-09-25T12:45:06Z</time>
      </trkpt>
      <trkpt lat="46.49687" lon="-1.79628">
        <ele>3.2</ele>
        <time>2021-09-25T12:45:07Z</time>
      </trkpt>
      <trkpt lat="46.49687" lon="-1.79628">
        <ele>3.2</ele>
        <time>2021-09-25T12:45:08Z</time>
      </trkpt>
      <trkpt lat="46.49687" lon="-1.79628">
        <ele>3.2</ele>
        <time>2021-09-25T12:45:09Z</time>
      </trkpt>
      <trkpt lat="46.49687" lon="-1.79628">
        <ele>3.2</ele>
        <time>2021-09-25T12:45:10Z</time>
      </trkpt>
      <trkpt lat="46.49687" lon="-1.79628">
        <ele>3.2</ele>
        <time>2021-09-25T12:45:11Z</time>
      </trkpt>
      <trkpt lat="46.49687" lon="-1.79628">
        <ele>3.2</ele>
        <time>2021-09-25T12:45:12Z</time>
      </trkpt>
      <trkpt lat="46.49687" lon="-1.79628">
        <ele>3.2</ele>
        <time>2021-09-25T12:45:13Z</time>
      </trkpt>
      <trkpt lat="46.49687" lon="-1.79628">
        <ele>3.2</ele>
        <time>2021-09-25T12:45:14Z</time>
      </trkpt>
      <trkpt lat="46.49687" lon="-1.79628">
        <ele>3.2</ele>
        <time>2021-09-25T12:45:15Z</time>
      </trkpt>
      <trkpt lat="46.49687" lon="-1.79628">
        <ele>3.2</ele>
        <time>2021-09-25T12:45:16Z</time>
      </trkpt>
      <trkpt lat="46.49685" lon="-1.79628">
        <ele>3.3</ele>
        <time>2021-09-25T12:45:17Z</time>
      </trkpt>
      <trkpt lat="46.4968" lon="-1.79626">
        <ele>3.8</ele>
        <time>2021-09-25T12:45:18Z</time>
      </trkpt>
      <trkpt lat="46.49678" lon="-1.79626">
        <ele>4</ele>
        <time>2021-09-25T12:45:19Z</time>
      </trkpt>
      <trkpt lat="46.49677" lon="-1.79625">
        <ele>4.1</ele>
        <time>2021-09-25T12:45:20Z</time>
      </trkpt>
      <trkpt lat="46.49676" lon="-1.79625">
        <ele>4.1</ele>
        <time>2021-09-25T12:45:21Z</time>
      </trkpt>
      <trkpt lat="46.49676" lon="-1.79625">
        <ele>4.2</ele>
        <time>2021-09-25T12:45:22Z</time>
      </trkpt>
      <trkpt lat="46.49675" lon="-1.79625">
        <ele>4.2</ele>
        <time>2021-09-25T12:45:23Z</time>
      </trkpt>
      <trkpt lat="46.49674" lon="-1.79625">
        <ele>4.3</ele>
        <time>2021-09-25T12:45:24Z</time>
      </trkpt>
      <trkpt lat="46.49673" lon="-1.79625">
        <ele>4.4</ele>
        <time>2021-09-25T12:45:25Z</time>
      </trkpt>
      <trkpt lat="46.49672" lon="-1.79625">
        <ele>4.5</ele>
        <time>2021-09-25T12:45:26Z</time>
      </trkpt>
      <trkpt lat="46.49671" lon="-1.79626">
        <ele>4.6</ele>
        <time>2021-09-25T12:45:27Z</time>
      </trkpt>
      <trkpt lat="46.49671" lon="-1.79626">
        <ele>4.7</ele>
        <time>2021-09-25T12:45:28Z</time>
      </trkpt>
      <trkpt lat="46.4967" lon="-1.79627">
        <ele>4.7</ele>
        <time>2021-09-25T12:45:29Z</time>
      </trkpt>
      <trkpt lat="46.4967" lon="-1.79627">
        <ele>4.7</ele>
        <time>2021-09-25T12:45:30Z</time>
      </trkpt>
      <trkpt lat="46.4967" lon="-1.79627">
        <ele>4.7</ele>
        <time>2021-09-25T12:45:31Z</time>
      </trkpt>
      <trkpt lat="46.4967" lon="-1.79628">
        <ele>4.7</ele>
        <time>2021-09-25T12:45:32Z</time>
      </trkpt>
      <trkpt lat="46.4967" lon="-1.79628">
        <ele>4.7</ele>
        <time>2021-09-25T12:45:33Z</time>
      </trkpt>
      <trkpt lat="46.49669" lon="-1.79628">
        <ele>4.7</ele>
        <time>2021-09-25T12:45:34Z</time>
      </trkpt>
      <trkpt lat="46.49669" lon="-1.79628">
        <ele>4.7</ele>
        <time>2021-09-25T12:45:35Z</time>
      </trkpt>
      <trkpt lat="46.49669" lon="-1.79629">
        <ele>4.7</ele>
        <time>2021-09-25T12:45:36Z</time>
      </trkpt>
      <trkpt lat="46.49668" lon="-1.7963">
        <ele>4.7</ele>
        <time>2021-09-25T12:45:37Z</time>
      </trkpt>
      <trkpt lat="46.49668" lon="-1.7963">
        <ele>4.7</ele>
        <time>2021-09-25T12:45:38Z</time>
      </trkpt>
      <trkpt lat="46.49667" lon="-1.7963">
        <ele>4.7</ele>
        <time>2021-09-25T12:45:39Z</time>
      </trkpt>
      <trkpt lat="46.49667" lon="-1.7963">
        <ele>4.7</ele>
        <time>2021-09-25T12:45:40Z</time>
      </trkpt>
      <trkpt lat="46.49667" lon="-1.7963">
        <ele>4.8</ele>
        <time>2021-09-25T12:45:41Z</time>
      </trkpt>
      <trkpt lat="46.49666" lon="-1.7963">
        <ele>4.8</ele>
        <time>2021-09-25T12:45:42Z</time>
      </trkpt>
      <trkpt lat="46.49666" lon="-1.7963">
        <ele>4.8</ele>
        <time>2021-09-25T12:45:43Z</time>
      </trkpt>
      <trkpt lat="46.49666" lon="-1.7963">
        <ele>4.8</ele>
        <time>2021-09-25T12:45:44Z</time>
      </trkpt>
      <trkpt lat="46.49665" lon="-1.7963">
        <ele>4.8</ele>
        <time>2021-09-25T12:45:45Z</time>
      </trkpt>
      <trkpt lat="46.49665" lon="-1.7963">
        <ele>4.8</ele>
        <time>2021-09-25T12:45:46Z</time>
      </trkpt>
      <trkpt lat="46.49665" lon="-1.79631">
        <ele>4.8</ele>
        <time>2021-09-25T12:45:47Z</time>
      </trkpt>
      <trkpt lat="46.49664" lon="-1.79631">
        <ele>4.8</ele>
        <time>2021-09-25T12:45:48Z</time>
      </trkpt>
      <trkpt lat="46.49664" lon="-1.79631">
        <ele>4.8</ele>
        <time>2021-09-25T12:45:49Z</time>
      </trkpt>
      <trkpt lat="46.49664" lon="-1.79631">
        <ele>4.8</ele>
        <time>2021-09-25T12:45:50Z</time>
      </trkpt>
      <trkpt lat="46.49663" lon="-1.79631">
        <ele>4.8</ele>
        <time>2021-09-25T12:45:51Z</time>
      </trkpt>
      <trkpt lat="46.49663" lon="-1.79631">
        <ele>4.8</ele>
        <time>2021-09-25T12:45:52Z</time>
      </trkpt>
      <trkpt lat="46.49663" lon="-1.79631">
        <ele>4.8</ele>
        <time>2021-09-25T12:45:53Z</time>
      </trkpt>
      <trkpt lat="46.49662" lon="-1.79631">
        <ele>4.8</ele>
        <time>2021-09-25T12:45:54Z</time>
      </trkpt>
      <trkpt lat="46.49662" lon="-1.79631">
        <ele>4.8</ele>
        <time>2021-09-25T12:45:55Z</time>
      </trkpt>
      <trkpt lat="46.49662" lon="-1.79631">
        <ele>4.8</ele>
        <time>2021-09-25T12:45:56Z</time>
      </trkpt>
      <trkpt lat="46.49661" lon="-1.79631">
        <ele>4.8</ele>
        <time>2021-09-25T12:45:57Z</time>
      </trkpt>
      <trkpt lat="46.49661" lon="-1.79631">
        <ele>4.8</ele>
        <time>2021-09-25T12:45:58Z</time>
      </trkpt>
      <trkpt lat="46.49661" lon="-1.79631">
        <ele>4.8</ele>
        <time>2021-09-25T12:45:59Z</time>
      </trkpt>
      <trkpt lat="46.4966" lon="-1.79631">
        <ele>4.8</ele>
        <time>2021-09-25T12:46:00Z</time>
      </trkpt>
      <trkpt lat="46.4966" lon="-1.79631">
        <ele>4.8</ele>
        <time>2021-09-25T12:46:01Z</time>
      </trkpt>
      <trkpt lat="46.49659" lon="-1.79631">
        <ele>4.8</ele>
        <time>2021-09-25T12:46:02Z</time>
      </trkpt>
      <trkpt lat="46.49659" lon="-1.79631">
        <ele>4.9</ele>
        <time>2021-09-25T12:46:03Z</time>
      </trkpt>
      <trkpt lat="46.49659" lon="-1.79631">
        <ele>4.9</ele>
        <time>2021-09-25T12:46:04Z</time>
      </trkpt>
      <trkpt lat="46.49658" lon="-1.79631">
        <ele>4.9</ele>
        <time>2021-09-25T12:46:05Z</time>
      </trkpt>
      <trkpt lat="46.49658" lon="-1.79631">
        <ele>4.9</ele>
        <time>2021-09-25T12:46:06Z</time>
      </trkpt>
      <trkpt lat="46.49657" lon="-1.79631">
        <ele>4.9</ele>
        <time>2021-09-25T12:46:07Z</time>
      </trkpt>
      <trkpt lat="46.49656" lon="-1.79631">
        <ele>4.9</ele>
        <time>2021-09-25T12:46:08Z</time>
      </trkpt>
      <trkpt lat="46.49656" lon="-1.7963">
        <ele>4.9</ele>
        <time>2021-09-25T12:46:09Z</time>
      </trkpt>
      <trkpt lat="46.49655" lon="-1.7963">
        <ele>4.9</ele>
        <time>2021-09-25T12:46:10Z</time>
      </trkpt>
      <trkpt lat="46.49654" lon="-1.7963">
        <ele>4.9</ele>
        <time>2021-09-25T12:46:11Z</time>
      </trkpt>
      <trkpt lat="46.49653" lon="-1.79629">
        <ele>4.9</ele>
        <time>2021-09-25T12:46:12Z</time>
      </trkpt>
      <trkpt lat="46.49652" lon="-1.79629">
        <ele>4.9</ele>
        <time>2021-09-25T12:46:13Z</time>
      </trkpt>
      <trkpt lat="46.49651" lon="-1.79629">
        <ele>4.9</ele>
        <time>2021-09-25T12:46:14Z</time>
      </trkpt>
      <trkpt lat="46.4965" lon="-1.79629">
        <ele>4.9</ele>
        <time>2021-09-25T12:46:15Z</time>
      </trkpt>
      <trkpt lat="46.49649" lon="-1.79628">
        <ele>4.9</ele>
        <time>2021-09-25T12:46:16Z</time>
      </trkpt>
      <trkpt lat="46.49648" lon="-1.79628">
        <ele>4.9</ele>
        <time>2021-09-25T12:46:17Z</time>
      </trkpt>
      <trkpt lat="46.49647" lon="-1.79628">
        <ele>4.9</ele>
        <time>2021-09-25T12:46:18Z</time>
      </trkpt>
      <trkpt lat="46.49646" lon="-1.79628">
        <ele>4.9</ele>
        <time>2021-09-25T12:46:19Z</time>
      </trkpt>
      <trkpt lat="46.49645" lon="-1.79627">
        <ele>4.9</ele>
        <time>2021-09-25T12:46:20Z</time>
      </trkpt>
      <trkpt lat="46.49644" lon="-1.79627">
        <ele>4.9</ele>
        <time>2021-09-25T12:46:21Z</time>
      </trkpt>
      <trkpt lat="46.49643" lon="-1.79626">
        <ele>4.9</ele>
        <time>2021-09-25T12:46:22Z</time>
      </trkpt>
      <trkpt lat="46.49642" lon="-1.79626">
        <ele>4.9</ele>
        <time>2021-09-25T12:46:23Z</time>
      </trkpt>
      <trkpt lat="46.49641" lon="-1.79625">
        <ele>4.9</ele>
        <time>2021-09-25T12:46:24Z</time>
      </trkpt>
      <trkpt lat="46.4964" lon="-1.79625">
        <ele>4.9</ele>
        <time>2021-09-25T12:46:25Z</time>
      </trkpt>
      <trkpt lat="46.49639" lon="-1.79624">
        <ele>4.9</ele>
        <time>2021-09-25T12:46:26Z</time>
      </trkpt>
      <trkpt lat="46.49638" lon="-1.79624">
        <ele>4.9</ele>
        <time>2021-09-25T12:46:27Z</time>
      </trkpt>
      <trkpt lat="46.49637" lon="-1.79623">
        <ele>4.9</ele>
        <time>2021-09-25T12:46:28Z</time>
      </trkpt>
      <trkpt lat="46.49636" lon="-1.79623">
        <ele>4.9</ele>
        <time>2021-09-25T12:46:29Z</time>
      </trkpt>
      <trkpt lat="46.49635" lon="-1.79623">
        <ele>4.9</ele>
        <time>2021-09-25T12:46:30Z</time>
      </trkpt>
      <trkpt lat="46.49634" lon="-1.79622">
        <ele>4.9</ele>
        <time>2021-09-25T12:46:31Z</time>
      </trkpt>
      <trkpt lat="46.49633" lon="-1.79622">
        <ele>4.9</ele>
        <time>2021-09-25T12:46:32Z</time>
      </trkpt>
      <trkpt lat="46.49632" lon="-1.79621">
        <ele>4.9</ele>
        <time>2021-09-25T12:46:33Z</time>
      </trkpt>
      <trkpt lat="46.4963" lon="-1.79621">
        <ele>4.9</ele>
        <time>2021-09-25T12:46:34Z</time>
      </trkpt>
      <trkpt lat="46.49629" lon="-1.79621">
        <ele>4.9</ele>
        <time>2021-09-25T12:46:35Z</time>
      </trkpt>
      <trkpt lat="46.49628" lon="-1.79621">
        <ele>5</ele>
        <time>2021-09-25T12:46:36Z</time>
      </trkpt>
      <trkpt lat="46.49627" lon="-1.7962">
        <ele>5</ele>
        <time>2021-09-25T12:46:37Z</time>
      </trkpt>
      <trkpt lat="46.49626" lon="-1.7962">
        <ele>5</ele>
        <time>2021-09-25T12:46:38Z</time>
      </trkpt>
      <trkpt lat="46.49625" lon="-1.7962">
        <ele>5</ele>
        <time>2021-09-25T12:46:39Z</time>
      </trkpt>
      <trkpt lat="46.49624" lon="-1.7962">
        <ele>5</ele>
        <time>2021-09-25T12:46:40Z</time>
      </trkpt>
      <trkpt lat="46.49623" lon="-1.7962">
        <ele>5</ele>
        <time>2021-09-25T12:46:41Z</time>
      </trkpt>
      <trkpt lat="46.49622" lon="-1.7962">
        <ele>5</ele>
        <time>2021-09-25T12:46:42Z</time>
      </trkpt>
      <trkpt lat="46.49621" lon="-1.7962">
        <ele>5</ele>
        <time>2021-09-25T12:46:43Z</time>
      </trkpt>
      <trkpt lat="46.4962" lon="-1.79619">
        <ele>5</ele>
        <time>2021-09-25T12:46:44Z</time>
      </trkpt>
      <trkpt lat="46.49619" lon="-1.79619">
        <ele>5</ele>
        <time>2021-09-25T12:46:45Z</time>
      </trkpt>
      <trkpt lat="46.49618" lon="-1.79619">
        <ele>5</ele>
        <time>2021-09-25T12:46:46Z</time>
      </trkpt>
      <trkpt lat="46.49617" lon="-1.79619">
        <ele>5</ele>
        <time>2021-09-25T12:46:47Z</time>
      </trkpt>
      <trkpt lat="46.49616" lon="-1.79619">
        <ele>5</ele>
        <time>2021-09-25T12:46:48Z</time>
      </trkpt>
      <trkpt lat="46.49615" lon="-1.79619">
        <ele>5</ele>
        <time>2021-09-25T12:46:49Z</time>
      </trkpt>
      <trkpt lat="46.49614" lon="-1.79619">
        <ele>5</ele>
        <time>2021-09-25T12:46:50Z</time>
      </trkpt>
      <trkpt lat="46.49613" lon="-1.79619">
        <ele>5</ele>
        <time>2021-09-25T12:46:51Z</time>
      </trkpt>
      <trkpt lat="46.49612" lon="-1.79619">
        <ele>5</ele>
        <time>2021-09-25T12:46:52Z</time>
      </trkpt>
      <trkpt lat="46.49611" lon="-1.79619">
        <ele>5</ele>
        <time>2021-09-25T12:46:53Z</time>
      </trkpt>
      <trkpt lat="46.49611" lon="-1.79619">
        <ele>5</ele>
        <time>2021-09-25T12:46:54Z</time>
      </trkpt>
      <trkpt lat="46.4961" lon="-1.79618">
        <ele>5</ele>
        <time>2021-09-25T12:46:55Z</time>
      </trkpt>
      <trkpt lat="46.49609" lon="-1.79618">
        <ele>5</ele>
        <time>2021-09-25T12:46:56Z</time>
      </trkpt>
      <trkpt lat="46.49608" lon="-1.79618">
        <ele>5</ele>
        <time>2021-09-25T12:46:57Z</time>
      </trkpt>
      <trkpt lat="46.49607" lon="-1.79618">
        <ele>5</ele>
        <time>2021-09-25T12:46:58Z</time>
      </trkpt>
      <trkpt lat="46.49606" lon="-1.79618">
        <ele>5</ele>
        <time>2021-09-25T12:46:59Z</time>
      </trkpt>
      <trkpt lat="46.49604" lon="-1.79618">
        <ele>5</ele>
        <time>2021-09-25T12:47:00Z</time>
      </trkpt>
      <trkpt lat="46.49603" lon="-1.79617">
        <ele>5</ele>
        <time>2021-09-25T12:47:01Z</time>
      </trkpt>
      <trkpt lat="46.49602" lon="-1.79617">
        <ele>5</ele>
        <time>2021-09-25T12:47:02Z</time>
      </trkpt>
      <trkpt lat="46.49601" lon="-1.79617">
        <ele>5</ele>
        <time>2021-09-25T12:47:03Z</time>
      </trkpt>
      <trkpt lat="46.496" lon="-1.79617">
        <ele>5</ele>
        <time>2021-09-25T12:47:04Z</time>
      </trkpt>
      <trkpt lat="46.49599" lon="-1.79616">
        <ele>5</ele>
        <time>2021-09-25T12:47:05Z</time>
      </trkpt>
      <trkpt lat="46.49598" lon="-1.79616">
        <ele>5</ele>
        <time>2021-09-25T12:47:06Z</time>
      </trkpt>
      <trkpt lat="46.49597" lon="-1.79616">
        <ele>5</ele>
        <time>2021-09-25T12:47:07Z</time>
      </trkpt>
      <trkpt lat="46.49596" lon="-1.79616">
        <ele>5</ele>
        <time>2021-09-25T12:47:08Z</time>
      </trkpt>
      <trkpt lat="46.49595" lon="-1.79616">
        <ele>5</ele>
        <time>2021-09-25T12:47:09Z</time>
      </trkpt>
      <trkpt lat="46.49595" lon="-1.79615">
        <ele>5</ele>
        <time>2021-09-25T12:47:10Z</time>
      </trkpt>
      <trkpt lat="46.49594" lon="-1.79615">
        <ele>5</ele>
        <time>2021-09-25T12:47:11Z</time>
      </trkpt>
      <trkpt lat="46.49593" lon="-1.79615">
        <ele>5</ele>
        <time>2021-09-25T12:47:12Z</time>
      </trkpt>
      <trkpt lat="46.49592" lon="-1.79615">
        <ele>5</ele>
        <time>2021-09-25T12:47:13Z</time>
      </trkpt>
      <trkpt lat="46.49591" lon="-1.79614">
        <ele>5</ele>
        <time>2021-09-25T12:47:14Z</time>
      </trkpt>
      <trkpt lat="46.4959" lon="-1.79614">
        <ele>5</ele>
        <time>2021-09-25T12:47:15Z</time>
      </trkpt>
      <trkpt lat="46.4959" lon="-1.79614">
        <ele>5</ele>
        <time>2021-09-25T12:47:16Z</time>
      </trkpt>
      <trkpt lat="46.49589" lon="-1.79614">
        <ele>5</ele>
        <time>2021-09-25T12:47:17Z</time>
      </trkpt>
      <trkpt lat="46.49588" lon="-1.79613">
        <ele>5</ele>
        <time>2021-09-25T12:47:18Z</time>
      </trkpt>
      <trkpt lat="46.49587" lon="-1.79613">
        <ele>5</ele>
        <time>2021-09-25T12:47:19Z</time>
      </trkpt>
      <trkpt lat="46.49586" lon="-1.79613">
        <ele>5</ele>
        <time>2021-09-25T12:47:20Z</time>
      </trkpt>
      <trkpt lat="46.49585" lon="-1.79613">
        <ele>5</ele>
        <time>2021-09-25T12:47:21Z</time>
      </trkpt>
      <trkpt lat="46.49584" lon="-1.79612">
        <ele>5</ele>
        <time>2021-09-25T12:47:22Z</time>
      </trkpt>
      <trkpt lat="46.49583" lon="-1.79612">
        <ele>5</ele>
        <time>2021-09-25T12:47:23Z</time>
      </trkpt>
      <trkpt lat="46.49582" lon="-1.79612">
        <ele>5</ele>
        <time>2021-09-25T12:47:24Z</time>
      </trkpt>
      <trkpt lat="46.49581" lon="-1.79612">
        <ele>5</ele>
        <time>2021-09-25T12:47:25Z</time>
      </trkpt>
      <trkpt lat="46.4958" lon="-1.79611">
        <ele>5</ele>
        <time>2021-09-25T12:47:26Z</time>
      </trkpt>
      <trkpt lat="46.49579" lon="-1.79611">
        <ele>5</ele>
        <time>2021-09-25T12:47:27Z</time>
      </trkpt>
      <trkpt lat="46.49578" lon="-1.79611">
        <ele>5</ele>
        <time>2021-09-25T12:47:28Z</time>
      </trkpt>
      <trkpt lat="46.49577" lon="-1.79611">
        <ele>5</ele>
        <time>2021-09-25T12:47:29Z</time>
      </trkpt>
      <trkpt lat="46.49575" lon="-1.7961">
        <ele>5</ele>
        <time>2021-09-25T12:47:30Z</time>
      </trkpt>
      <trkpt lat="46.49574" lon="-1.7961">
        <ele>5</ele>
        <time>2021-09-25T12:47:31Z</time>
      </trkpt>
      <trkpt lat="46.49573" lon="-1.7961">
        <ele>5</ele>
        <time>2021-09-25T12:47:32Z</time>
      </trkpt>
      <trkpt lat="46.49572" lon="-1.79609">
        <ele>5</ele>
        <time>2021-09-25T12:47:33Z</time>
      </trkpt>
      <trkpt lat="46.49571" lon="-1.79609">
        <ele>5</ele>
        <time>2021-09-25T12:47:34Z</time>
      </trkpt>
      <trkpt lat="46.4957" lon="-1.79609">
        <ele>5</ele>
        <time>2021-09-25T12:47:35Z</time>
      </trkpt>
      <trkpt lat="46.49569" lon="-1.79608">
        <ele>5</ele>
        <time>2021-09-25T12:47:36Z</time>
      </trkpt>
      <trkpt lat="46.49568" lon="-1.79608">
        <ele>5</ele>
        <time>2021-09-25T12:47:37Z</time>
      </trkpt>
      <trkpt lat="46.49566" lon="-1.79608">
        <ele>5</ele>
        <time>2021-09-25T12:47:38Z</time>
      </trkpt>
      <trkpt lat="46.49565" lon="-1.79608">
        <ele>5</ele>
        <time>2021-09-25T12:47:39Z</time>
      </trkpt>
      <trkpt lat="46.49564" lon="-1.79607">
        <ele>5</ele>
        <time>2021-09-25T12:47:40Z</time>
      </trkpt>
      <trkpt lat="46.49563" lon="-1.79607">
        <ele>5</ele>
        <time>2021-09-25T12:47:41Z</time>
      </trkpt>
      <trkpt lat="46.49562" lon="-1.79607">
        <ele>5</ele>
        <time>2021-09-25T12:47:42Z</time>
      </trkpt>
      <trkpt lat="46.49561" lon="-1.79606">
        <ele>5</ele>
        <time>2021-09-25T12:47:43Z</time>
      </trkpt>
      <trkpt lat="46.49559" lon="-1.79606">
        <ele>5</ele>
        <time>2021-09-25T12:47:44Z</time>
      </trkpt>
      <trkpt lat="46.49558" lon="-1.79606">
        <ele>5</ele>
        <time>2021-09-25T12:47:45Z</time>
      </trkpt>
      <trkpt lat="46.49557" lon="-1.79605">
        <ele>5</ele>
        <time>2021-09-25T12:47:46Z</time>
      </trkpt>
      <trkpt lat="46.49556" lon="-1.79605">
        <ele>5</ele>
        <time>2021-09-25T12:47:47Z</time>
      </trkpt>
      <trkpt lat="46.49555" lon="-1.79605">
        <ele>5</ele>
        <time>2021-09-25T12:47:48Z</time>
      </trkpt>
      <trkpt lat="46.49554" lon="-1.79605">
        <ele>5</ele>
        <time>2021-09-25T12:47:49Z</time>
      </trkpt>
      <trkpt lat="46.49553" lon="-1.79604">
        <ele>5</ele>
        <time>2021-09-25T12:47:50Z</time>
      </trkpt>
      <trkpt lat="46.49552" lon="-1.79604">
        <ele>5</ele>
        <time>2021-09-25T12:47:51Z</time>
      </trkpt>
      <trkpt lat="46.4955" lon="-1.79604">
        <ele>5</ele>
        <time>2021-09-25T12:47:52Z</time>
      </trkpt>
      <trkpt lat="46.49549" lon="-1.79603">
        <ele>5</ele>
        <time>2021-09-25T12:47:53Z</time>
      </trkpt>
      <trkpt lat="46.49548" lon="-1.79603">
        <ele>5</ele>
        <time>2021-09-25T12:47:54Z</time>
      </trkpt>
      <trkpt lat="46.49547" lon="-1.79603">
        <ele>5</ele>
        <time>2021-09-25T12:47:55Z</time>
      </trkpt>
      <trkpt lat="46.49546" lon="-1.79603">
        <ele>5</ele>
        <time>2021-09-25T12:47:56Z</time>
      </trkpt>
      <trkpt lat="46.49545" lon="-1.79602">
        <ele>5</ele>
        <time>2021-09-25T12:47:57Z</time>
      </trkpt>
      <trkpt lat="46.49544" lon="-1.79602">
        <ele>5</ele>
        <time>2021-09-25T12:47:58Z</time>
      </trkpt>
      <trkpt lat="46.49543" lon="-1.79602">
        <ele>5</ele>
        <time>2021-09-25T12:47:59Z</time>
      </trkpt>
      <trkpt lat="46.49542" lon="-1.79602">
        <ele>5</ele>
        <time>2021-09-25T12:48:00Z</time>
      </trkpt>
      <trkpt lat="46.49541" lon="-1.79602">
        <ele>5</ele>
        <time>2021-09-25T12:48:01Z</time>
      </trkpt>
      <trkpt lat="46.4954" lon="-1.79601">
        <ele>5</ele>
        <time>2021-09-25T12:48:02Z</time>
      </trkpt>
      <trkpt lat="46.49539" lon="-1.79601">
        <ele>5</ele>
        <time>2021-09-25T12:48:03Z</time>
      </trkpt>
      <trkpt lat="46.49538" lon="-1.79601">
        <ele>5</ele>
        <time>2021-09-25T12:48:04Z</time>
      </trkpt>
      <trkpt lat="46.49537" lon="-1.79601">
        <ele>5</ele>
        <time>2021-09-25T12:48:05Z</time>
      </trkpt>
      <trkpt lat="46.49536" lon="-1.796">
        <ele>5</ele>
        <time>2021-09-25T12:48:06Z</time>
      </trkpt>
      <trkpt lat="46.49535" lon="-1.796">
        <ele>5</ele>
        <time>2021-09-25T12:48:07Z</time>
      </trkpt>
      <trkpt lat="46.49533" lon="-1.796">
        <ele>5</ele>
        <time>2021-09-25T12:48:08Z</time>
      </trkpt>
      <trkpt lat="46.49532" lon="-1.796">
        <ele>5</ele>
        <time>2021-09-25T12:48:09Z</time>
      </trkpt>
      <trkpt lat="46.49531" lon="-1.796">
        <ele>5</ele>
        <time>2021-09-25T12:48:10Z</time>
      </trkpt>
      <trkpt lat="46.4953" lon="-1.79599">
        <ele>5</ele>
        <time>2021-09-25T12:48:11Z</time>
      </trkpt>
      <trkpt lat="46.49529" lon="-1.79599">
        <ele>5.1</ele>
        <time>2021-09-25T12:48:12Z</time>
      </trkpt>
      <trkpt lat="46.49528" lon="-1.79599">
        <ele>5.1</ele>
        <time>2021-09-25T12:48:13Z</time>
      </trkpt>
      <trkpt lat="46.49527" lon="-1.79599">
        <ele>5.1</ele>
        <time>2021-09-25T12:48:14Z</time>
      </trkpt>
      <trkpt lat="46.49526" lon="-1.79599">
        <ele>5.1</ele>
        <time>2021-09-25T12:48:15Z</time>
      </trkpt>
      <trkpt lat="46.49525" lon="-1.79598">
        <ele>5.1</ele>
        <time>2021-09-25T12:48:16Z</time>
      </trkpt>
      <trkpt lat="46.49524" lon="-1.79598">
        <ele>5.1</ele>
        <time>2021-09-25T12:48:17Z</time>
      </trkpt>
      <trkpt lat="46.49523" lon="-1.79598">
        <ele>5.1</ele>
        <time>2021-09-25T12:48:18Z</time>
      </trkpt>
      <trkpt lat="46.49522" lon="-1.79598">
        <ele>5.1</ele>
        <time>2021-09-25T12:48:19Z</time>
      </trkpt>
      <trkpt lat="46.49521" lon="-1.79598">
        <ele>5.1</ele>
        <time>2021-09-25T12:48:20Z</time>
      </trkpt>
      <trkpt lat="46.4952" lon="-1.79597">
        <ele>5.1</ele>
        <time>2021-09-25T12:48:21Z</time>
      </trkpt>
      <trkpt lat="46.49519" lon="-1.79597">
        <ele>5.1</ele>
        <time>2021-09-25T12:48:22Z</time>
      </trkpt>
      <trkpt lat="46.49518" lon="-1.79597">
        <ele>5.1</ele>
        <time>2021-09-25T12:48:23Z</time>
      </trkpt>
      <trkpt lat="46.49517" lon="-1.79597">
        <ele>5.1</ele>
        <time>2021-09-25T12:48:24Z</time>
      </trkpt>
      <trkpt lat="46.49515" lon="-1.79597">
        <ele>5.1</ele>
        <time>2021-09-25T12:48:25Z</time>
      </trkpt>
      <trkpt lat="46.49514" lon="-1.79596">
        <ele>5.1</ele>
        <time>2021-09-25T12:48:26Z</time>
      </trkpt>
      <trkpt lat="46.49513" lon="-1.79596">
        <ele>5.1</ele>
        <time>2021-09-25T12:48:27Z</time>
      </trkpt>
      <trkpt lat="46.49512" lon="-1.79596">
        <ele>5.1</ele>
        <time>2021-09-25T12:48:28Z</time>
      </trkpt>
      <trkpt lat="46.49511" lon="-1.79596">
        <ele>5.1</ele>
        <time>2021-09-25T12:48:29Z</time>
      </trkpt>
      <trkpt lat="46.4951" lon="-1.79595">
        <ele>5.1</ele>
        <time>2021-09-25T12:48:30Z</time>
      </trkpt>
      <trkpt lat="46.49509" lon="-1.79595">
        <ele>5.1</ele>
        <time>2021-09-25T12:48:31Z</time>
      </trkpt>
      <trkpt lat="46.49507" lon="-1.79595">
        <ele>5.1</ele>
        <time>2021-09-25T12:48:32Z</time>
      </trkpt>
      <trkpt lat="46.49506" lon="-1.79595">
        <ele>5.1</ele>
        <time>2021-09-25T12:48:33Z</time>
      </trkpt>
      <trkpt lat="46.49505" lon="-1.79594">
        <ele>5.1</ele>
        <time>2021-09-25T12:48:34Z</time>
      </trkpt>
      <trkpt lat="46.49504" lon="-1.79594">
        <ele>5.1</ele>
        <time>2021-09-25T12:48:35Z</time>
      </trkpt>
      <trkpt lat="46.49503" lon="-1.79594">
        <ele>5.1</ele>
        <time>2021-09-25T12:48:36Z</time>
      </trkpt>
      <trkpt lat="46.49502" lon="-1.79594">
        <ele>5.1</ele>
        <time>2021-09-25T12:48:37Z</time>
      </trkpt>
      <trkpt lat="46.49501" lon="-1.79593">
        <ele>5.1</ele>
        <time>2021-09-25T12:48:38Z</time>
      </trkpt>
      <trkpt lat="46.495" lon="-1.79593">
        <ele>5.1</ele>
        <time>2021-09-25T12:48:39Z</time>
      </trkpt>
      <trkpt lat="46.49499" lon="-1.79593">
        <ele>5.1</ele>
        <time>2021-09-25T12:48:40Z</time>
      </trkpt>
      <trkpt lat="46.49498" lon="-1.79592">
        <ele>5.1</ele>
        <time>2021-09-25T12:48:41Z</time>
      </trkpt>
      <trkpt lat="46.49497" lon="-1.79592">
        <ele>5.1</ele>
        <time>2021-09-25T12:48:42Z</time>
      </trkpt>
      <trkpt lat="46.49496" lon="-1.79592">
        <ele>5.1</ele>
        <time>2021-09-25T12:48:43Z</time>
      </trkpt>
      <trkpt lat="46.49495" lon="-1.79591">
        <ele>5.1</ele>
        <time>2021-09-25T12:48:44Z</time>
      </trkpt>
      <trkpt lat="46.49494" lon="-1.79591">
        <ele>5.1</ele>
        <time>2021-09-25T12:48:45Z</time>
      </trkpt>
      <trkpt lat="46.49493" lon="-1.7959">
        <ele>5.1</ele>
        <time>2021-09-25T12:48:46Z</time>
      </trkpt>
      <trkpt lat="46.49493" lon="-1.7959">
        <ele>5.1</ele>
        <time>2021-09-25T12:48:47Z</time>
      </trkpt>
      <trkpt lat="46.49492" lon="-1.79589">
        <ele>5.1</ele>
        <time>2021-09-25T12:48:48Z</time>
      </trkpt>
      <trkpt lat="46.49491" lon="-1.79589">
        <ele>5.1</ele>
        <time>2021-09-25T12:48:49Z</time>
      </trkpt>
      <trkpt lat="46.4949" lon="-1.79588">
        <ele>5.1</ele>
        <time>2021-09-25T12:48:50Z</time>
      </trkpt>
      <trkpt lat="46.49489" lon="-1.79588">
        <ele>5.1</ele>
        <time>2021-09-25T12:48:51Z</time>
      </trkpt>
      <trkpt lat="46.49488" lon="-1.79587">
        <ele>5.1</ele>
        <time>2021-09-25T12:48:52Z</time>
      </trkpt>
      <trkpt lat="46.49487" lon="-1.79587">
        <ele>5.1</ele>
        <time>2021-09-25T12:48:53Z</time>
      </trkpt>
      <trkpt lat="46.49486" lon="-1.79586">
        <ele>5.1</ele>
        <time>2021-09-25T12:48:54Z</time>
      </trkpt>
      <trkpt lat="46.49485" lon="-1.79586">
        <ele>5.1</ele>
        <time>2021-09-25T12:48:55Z</time>
      </trkpt>
      <trkpt lat="46.49484" lon="-1.79585">
        <ele>5.1</ele>
        <time>2021-09-25T12:48:56Z</time>
      </trkpt>
      <trkpt lat="46.49483" lon="-1.79585">
        <ele>5.1</ele>
        <time>2021-09-25T12:48:57Z</time>
      </trkpt>
      <trkpt lat="46.49482" lon="-1.79584">
        <ele>5.1</ele>
        <time>2021-09-25T12:48:58Z</time>
      </trkpt>
      <trkpt lat="46.49481" lon="-1.79584">
        <ele>5.1</ele>
        <time>2021-09-25T12:48:59Z</time>
      </trkpt>
      <trkpt lat="46.49479" lon="-1.79583">
        <ele>5.1</ele>
        <time>2021-09-25T12:49:00Z</time>
      </trkpt>
      <trkpt lat="46.49478" lon="-1.79583">
        <ele>5.1</ele>
        <time>2021-09-25T12:49:01Z</time>
      </trkpt>
      <trkpt lat="46.49477" lon="-1.79583">
        <ele>5.1</ele>
        <time>2021-09-25T12:49:02Z</time>
      </trkpt>
      <trkpt lat="46.49476" lon="-1.79582">
        <ele>5.1</ele>
        <time>2021-09-25T12:49:03Z</time>
      </trkpt>
      <trkpt lat="46.49475" lon="-1.79582">
        <ele>5.1</ele>
        <time>2021-09-25T12:49:04Z</time>
      </trkpt>
      <trkpt lat="46.49474" lon="-1.79581">
        <ele>5.1</ele>
        <time>2021-09-25T12:49:05Z</time>
      </trkpt>
      <trkpt lat="46.49473" lon="-1.7958">
        <ele>5.1</ele>
        <time>2021-09-25T12:49:06Z</time>
      </trkpt>
      <trkpt lat="46.49472" lon="-1.7958">
        <ele>5.1</ele>
        <time>2021-09-25T12:49:07Z</time>
      </trkpt>
      <trkpt lat="46.49471" lon="-1.79579">
        <ele>5.1</ele>
        <time>2021-09-25T12:49:08Z</time>
      </trkpt>
      <trkpt lat="46.49471" lon="-1.79579">
        <ele>5.1</ele>
        <time>2021-09-25T12:49:09Z</time>
      </trkpt>
      <trkpt lat="46.4947" lon="-1.79578">
        <ele>5.1</ele>
        <time>2021-09-25T12:49:10Z</time>
      </trkpt>
      <trkpt lat="46.49469" lon="-1.79578">
        <ele>5.1</ele>
        <time>2021-09-25T12:49:11Z</time>
      </trkpt>
      <trkpt lat="46.49468" lon="-1.79577">
        <ele>5.1</ele>
        <time>2021-09-25T12:49:12Z</time>
      </trkpt>
      <trkpt lat="46.49467" lon="-1.79577">
        <ele>5.1</ele>
        <time>2021-09-25T12:49:13Z</time>
      </trkpt>
      <trkpt lat="46.49465" lon="-1.79577">
        <ele>5.1</ele>
        <time>2021-09-25T12:49:14Z</time>
      </trkpt>
      <trkpt lat="46.49464" lon="-1.79576">
        <ele>5.1</ele>
        <time>2021-09-25T12:49:15Z</time>
      </trkpt>
      <trkpt lat="46.49463" lon="-1.79576">
        <ele>5.1</ele>
        <time>2021-09-25T12:49:16Z</time>
      </trkpt>
      <trkpt lat="46.49462" lon="-1.79576">
        <ele>5.1</ele>
        <time>2021-09-25T12:49:17Z</time>
      </trkpt>
      <trkpt lat="46.49461" lon="-1.79575">
        <ele>5.1</ele>
        <time>2021-09-25T12:49:18Z</time>
      </trkpt>
      <trkpt lat="46.4946" lon="-1.79575">
        <ele>5.1</ele>
        <time>2021-09-25T12:49:19Z</time>
      </trkpt>
      <trkpt lat="46.49458" lon="-1.79574">
        <ele>5.1</ele>
        <time>2021-09-25T12:49:20Z</time>
      </trkpt>
      <trkpt lat="46.49457" lon="-1.79573">
        <ele>5.1</ele>
        <time>2021-09-25T12:49:21Z</time>
      </trkpt>
      <trkpt lat="46.49456" lon="-1.79573">
        <ele>5.1</ele>
        <time>2021-09-25T12:49:22Z</time>
      </trkpt>
      <trkpt lat="46.49455" lon="-1.79572">
        <ele>5.1</ele>
        <time>2021-09-25T12:49:23Z</time>
      </trkpt>
      <trkpt lat="46.49454" lon="-1.79572">
        <ele>5.1</ele>
        <time>2021-09-25T12:49:24Z</time>
      </trkpt>
      <trkpt lat="46.49453" lon="-1.79571">
        <ele>5.1</ele>
        <time>2021-09-25T12:49:25Z</time>
      </trkpt>
      <trkpt lat="46.49452" lon="-1.7957">
        <ele>5.1</ele>
        <time>2021-09-25T12:49:26Z</time>
      </trkpt>
      <trkpt lat="46.49451" lon="-1.7957">
        <ele>5.1</ele>
        <time>2021-09-25T12:49:27Z</time>
      </trkpt>
      <trkpt lat="46.4945" lon="-1.79569">
        <ele>5.1</ele>
        <time>2021-09-25T12:49:28Z</time>
      </trkpt>
      <trkpt lat="46.49449" lon="-1.79569">
        <ele>5.1</ele>
        <time>2021-09-25T12:49:29Z</time>
      </trkpt>
      <trkpt lat="46.49448" lon="-1.79569">
        <ele>5.1</ele>
        <time>2021-09-25T12:49:30Z</time>
      </trkpt>
      <trkpt lat="46.49447" lon="-1.79568">
        <ele>5.1</ele>
        <time>2021-09-25T12:49:31Z</time>
      </trkpt>
      <trkpt lat="46.49446" lon="-1.79568">
        <ele>5.1</ele>
        <time>2021-09-25T12:49:32Z</time>
      </trkpt>
      <trkpt lat="46.49445" lon="-1.79567">
        <ele>5.1</ele>
        <time>2021-09-25T12:49:33Z</time>
      </trkpt>
      <trkpt lat="46.49444" lon="-1.79567">
        <ele>5.1</ele>
        <time>2021-09-25T12:49:34Z</time>
      </trkpt>
      <trkpt lat="46.49443" lon="-1.79567">
        <ele>5.1</ele>
        <time>2021-09-25T12:49:35Z</time>
      </trkpt>
      <trkpt lat="46.49442" lon="-1.79567">
        <ele>5.1</ele>
        <time>2021-09-25T12:49:36Z</time>
      </trkpt>
      <trkpt lat="46.49441" lon="-1.79566">
        <ele>5.1</ele>
        <time>2021-09-25T12:49:37Z</time>
      </trkpt>
      <trkpt lat="46.4944" lon="-1.79566">
        <ele>5.1</ele>
        <time>2021-09-25T12:49:38Z</time>
      </trkpt>
      <trkpt lat="46.49439" lon="-1.79566">
        <ele>5.1</ele>
        <time>2021-09-25T12:49:39Z</time>
      </trkpt>
      <trkpt lat="46.49438" lon="-1.79565">
        <ele>5.1</ele>
        <time>2021-09-25T12:49:40Z</time>
      </trkpt>
      <trkpt lat="46.49437" lon="-1.79565">
        <ele>5.1</ele>
        <time>2021-09-25T12:49:41Z</time>
      </trkpt>
      <trkpt lat="46.49436" lon="-1.79565">
        <ele>5.1</ele>
        <time>2021-09-25T12:49:42Z</time>
      </trkpt>
      <trkpt lat="46.49435" lon="-1.79564">
        <ele>5.1</ele>
        <time>2021-09-25T12:49:43Z</time>
      </trkpt>
      <trkpt lat="46.49434" lon="-1.79564">
        <ele>5.1</ele>
        <time>2021-09-25T12:49:44Z</time>
      </trkpt>
      <trkpt lat="46.49433" lon="-1.79563">
        <ele>5.1</ele>
        <time>2021-09-25T12:49:45Z</time>
      </trkpt>
      <trkpt lat="46.49432" lon="-1.79563">
        <ele>5.1</ele>
        <time>2021-09-25T12:49:46Z</time>
      </trkpt>
      <trkpt lat="46.49431" lon="-1.79562">
        <ele>5.1</ele>
        <time>2021-09-25T12:49:47Z</time>
      </trkpt>
      <trkpt lat="46.4943" lon="-1.79562">
        <ele>5.1</ele>
        <time>2021-09-25T12:49:48Z</time>
      </trkpt>
      <trkpt lat="46.49429" lon="-1.79561">
        <ele>5.1</ele>
        <time>2021-09-25T12:49:49Z</time>
      </trkpt>
      <trkpt lat="46.49428" lon="-1.79561">
        <ele>5.1</ele>
        <time>2021-09-25T12:49:50Z</time>
      </trkpt>
      <trkpt lat="46.49427" lon="-1.7956">
        <ele>5.1</ele>
        <time>2021-09-25T12:49:51Z</time>
      </trkpt>
      <trkpt lat="46.49425" lon="-1.7956">
        <ele>5.1</ele>
        <time>2021-09-25T12:49:52Z</time>
      </trkpt>
      <trkpt lat="46.49424" lon="-1.79559">
        <ele>5.1</ele>
        <time>2021-09-25T12:49:53Z</time>
      </trkpt>
      <trkpt lat="46.49423" lon="-1.79559">
        <ele>5.1</ele>
        <time>2021-09-25T12:49:54Z</time>
      </trkpt>
      <trkpt lat="46.49422" lon="-1.79558">
        <ele>5.1</ele>
        <time>2021-09-25T12:49:55Z</time>
      </trkpt>
      <trkpt lat="46.49421" lon="-1.79558">
        <ele>5.1</ele>
        <time>2021-09-25T12:49:56Z</time>
      </trkpt>
      <trkpt lat="46.4942" lon="-1.79557">
        <ele>5.1</ele>
        <time>2021-09-25T12:49:57Z</time>
      </trkpt>
      <trkpt lat="46.49418" lon="-1.79557">
        <ele>5.1</ele>
        <time>2021-09-25T12:49:58Z</time>
      </trkpt>
      <trkpt lat="46.49417" lon="-1.79556">
        <ele>5.1</ele>
        <time>2021-09-25T12:49:59Z</time>
      </trkpt>
      <trkpt lat="46.49416" lon="-1.79556">
        <ele>5.1</ele>
        <time>2021-09-25T12:50:00Z</time>
      </trkpt>
      <trkpt lat="46.49415" lon="-1.79555">
        <ele>5.1</ele>
        <time>2021-09-25T12:50:01Z</time>
      </trkpt>
      <trkpt lat="46.49414" lon="-1.79555">
        <ele>5.1</ele>
        <time>2021-09-25T12:50:02Z</time>
      </trkpt>
      <trkpt lat="46.49413" lon="-1.79554">
        <ele>5.1</ele>
        <time>2021-09-25T12:50:03Z</time>
      </trkpt>
      <trkpt lat="46.49412" lon="-1.79554">
        <ele>5.1</ele>
        <time>2021-09-25T12:50:04Z</time>
      </trkpt>
      <trkpt lat="46.49411" lon="-1.79553">
        <ele>5.1</ele>
        <time>2021-09-25T12:50:05Z</time>
      </trkpt>
      <trkpt lat="46.4941" lon="-1.79553">
        <ele>5.1</ele>
        <time>2021-09-25T12:50:06Z</time>
      </trkpt>
      <trkpt lat="46.49409" lon="-1.79552">
        <ele>5.1</ele>
        <time>2021-09-25T12:50:07Z</time>
      </trkpt>
      <trkpt lat="46.49409" lon="-1.79551">
        <ele>5.1</ele>
        <time>2021-09-25T12:50:08Z</time>
      </trkpt>
      <trkpt lat="46.49408" lon="-1.79551">
        <ele>5.1</ele>
        <time>2021-09-25T12:50:09Z</time>
      </trkpt>
      <trkpt lat="46.49407" lon="-1.7955">
        <ele>5.1</ele>
        <time>2021-09-25T12:50:10Z</time>
      </trkpt>
      <trkpt lat="46.49406" lon="-1.79549">
        <ele>5.1</ele>
        <time>2021-09-25T12:50:11Z</time>
      </trkpt>
      <trkpt lat="46.49405" lon="-1.79549">
        <ele>5.1</ele>
        <time>2021-09-25T12:50:12Z</time>
      </trkpt>
      <trkpt lat="46.49404" lon="-1.79548">
        <ele>5.1</ele>
        <time>2021-09-25T12:50:13Z</time>
      </trkpt>
      <trkpt lat="46.49403" lon="-1.79547">
        <ele>5.1</ele>
        <time>2021-09-25T12:50:14Z</time>
      </trkpt>
      <trkpt lat="46.49401" lon="-1.79546">
        <ele>5.1</ele>
        <time>2021-09-25T12:50:15Z</time>
      </trkpt>
      <trkpt lat="46.494" lon="-1.79545">
        <ele>5.1</ele>
        <time>2021-09-25T12:50:16Z</time>
      </trkpt>
      <trkpt lat="46.49399" lon="-1.79544">
        <ele>5.1</ele>
        <time>2021-09-25T12:50:17Z</time>
      </trkpt>
      <trkpt lat="46.49398" lon="-1.79543">
        <ele>5.1</ele>
        <time>2021-09-25T12:50:18Z</time>
      </trkpt>
      <trkpt lat="46.49397" lon="-1.79543">
        <ele>5.1</ele>
        <time>2021-09-25T12:50:19Z</time>
      </trkpt>
      <trkpt lat="46.49396" lon="-1.79542">
        <ele>5.1</ele>
        <time>2021-09-25T12:50:20Z</time>
      </trkpt>
      <trkpt lat="46.49395" lon="-1.79542">
        <ele>5.1</ele>
        <time>2021-09-25T12:50:21Z</time>
      </trkpt>
      <trkpt lat="46.49394" lon="-1.79542">
        <ele>5.1</ele>
        <time>2021-09-25T12:50:22Z</time>
      </trkpt>
      <trkpt lat="46.49393" lon="-1.79541">
        <ele>5.1</ele>
        <time>2021-09-25T12:50:23Z</time>
      </trkpt>
      <trkpt lat="46.49392" lon="-1.79541">
        <ele>5.1</ele>
        <time>2021-09-25T12:50:24Z</time>
      </trkpt>
      <trkpt lat="46.49391" lon="-1.7954">
        <ele>5.1</ele>
        <time>2021-09-25T12:50:25Z</time>
      </trkpt>
      <trkpt lat="46.4939" lon="-1.7954">
        <ele>5.1</ele>
        <time>2021-09-25T12:50:26Z</time>
      </trkpt>
      <trkpt lat="46.49389" lon="-1.7954">
        <ele>5.1</ele>
        <time>2021-09-25T12:50:27Z</time>
      </trkpt>
      <trkpt lat="46.49387" lon="-1.79539">
        <ele>5.1</ele>
        <time>2021-09-25T12:50:28Z</time>
      </trkpt>
      <trkpt lat="46.49386" lon="-1.79539">
        <ele>5.1</ele>
        <time>2021-09-25T12:50:29Z</time>
      </trkpt>
      <trkpt lat="46.49385" lon="-1.79539">
        <ele>5.1</ele>
        <time>2021-09-25T12:50:30Z</time>
      </trkpt>
      <trkpt lat="46.49384" lon="-1.79538">
        <ele>5.1</ele>
        <time>2021-09-25T12:50:31Z</time>
      </trkpt>
      <trkpt lat="46.49383" lon="-1.79538">
        <ele>5.1</ele>
        <time>2021-09-25T12:50:32Z</time>
      </trkpt>
      <trkpt lat="46.49382" lon="-1.79538">
        <ele>5.1</ele>
        <time>2021-09-25T12:50:33Z</time>
      </trkpt>
      <trkpt lat="46.49381" lon="-1.79537">
        <ele>5.1</ele>
        <time>2021-09-25T12:50:34Z</time>
      </trkpt>
      <trkpt lat="46.4938" lon="-1.79537">
        <ele>5.1</ele>
        <time>2021-09-25T12:50:35Z</time>
      </trkpt>
      <trkpt lat="46.49379" lon="-1.79536">
        <ele>5.1</ele>
        <time>2021-09-25T12:50:36Z</time>
      </trkpt>
      <trkpt lat="46.49378" lon="-1.79536">
        <ele>5.1</ele>
        <time>2021-09-25T12:50:37Z</time>
      </trkpt>
      <trkpt lat="46.49377" lon="-1.79536">
        <ele>5.1</ele>
        <time>2021-09-25T12:50:38Z</time>
      </trkpt>
      <trkpt lat="46.49376" lon="-1.79535">
        <ele>5.1</ele>
        <time>2021-09-25T12:50:39Z</time>
      </trkpt>
      <trkpt lat="46.49375" lon="-1.79535">
        <ele>5.1</ele>
        <time>2021-09-25T12:50:40Z</time>
      </trkpt>
      <trkpt lat="46.49373" lon="-1.79534">
        <ele>5.1</ele>
        <time>2021-09-25T12:50:41Z</time>
      </trkpt>
      <trkpt lat="46.49372" lon="-1.79534">
        <ele>5.1</ele>
        <time>2021-09-25T12:50:42Z</time>
      </trkpt>
      <trkpt lat="46.49371" lon="-1.79533">
        <ele>5.1</ele>
        <time>2021-09-25T12:50:43Z</time>
      </trkpt>
      <trkpt lat="46.4937" lon="-1.79532">
        <ele>5.1</ele>
        <time>2021-09-25T12:50:44Z</time>
      </trkpt>
      <trkpt lat="46.49369" lon="-1.79532">
        <ele>5.1</ele>
        <time>2021-09-25T12:50:45Z</time>
      </trkpt>
      <trkpt lat="46.49368" lon="-1.79531">
        <ele>5.1</ele>
        <time>2021-09-25T12:50:46Z</time>
      </trkpt>
      <trkpt lat="46.49367" lon="-1.79531">
        <ele>5.1</ele>
        <time>2021-09-25T12:50:47Z</time>
      </trkpt>
      <trkpt lat="46.49366" lon="-1.7953">
        <ele>5.2</ele>
        <time>2021-09-25T12:50:48Z</time>
      </trkpt>
      <trkpt lat="46.49364" lon="-1.79529">
        <ele>5.2</ele>
        <time>2021-09-25T12:50:49Z</time>
      </trkpt>
      <trkpt lat="46.49363" lon="-1.79529">
        <ele>5.2</ele>
        <time>2021-09-25T12:50:50Z</time>
      </trkpt>
      <trkpt lat="46.49362" lon="-1.79528">
        <ele>5.2</ele>
        <time>2021-09-25T12:50:51Z</time>
      </trkpt>
      <trkpt lat="46.49361" lon="-1.79527">
        <ele>5.2</ele>
        <time>2021-09-25T12:50:52Z</time>
      </trkpt>
      <trkpt lat="46.4936" lon="-1.79527">
        <ele>5.2</ele>
        <time>2021-09-25T12:50:53Z</time>
      </trkpt>
      <trkpt lat="46.49359" lon="-1.79526">
        <ele>5.2</ele>
        <time>2021-09-25T12:50:54Z</time>
      </trkpt>
      <trkpt lat="46.49358" lon="-1.79525">
        <ele>5.2</ele>
        <time>2021-09-25T12:50:55Z</time>
      </trkpt>
      <trkpt lat="46.49356" lon="-1.79524">
        <ele>5.2</ele>
        <time>2021-09-25T12:50:56Z</time>
      </trkpt>
      <trkpt lat="46.49355" lon="-1.79524">
        <ele>5.2</ele>
        <time>2021-09-25T12:50:57Z</time>
      </trkpt>
      <trkpt lat="46.49354" lon="-1.79523">
        <ele>5.2</ele>
        <time>2021-09-25T12:50:58Z</time>
      </trkpt>
      <trkpt lat="46.49353" lon="-1.79522">
        <ele>5.2</ele>
        <time>2021-09-25T12:50:59Z</time>
      </trkpt>
      <trkpt lat="46.49352" lon="-1.79522">
        <ele>5.2</ele>
        <time>2021-09-25T12:51:00Z</time>
      </trkpt>
      <trkpt lat="46.49351" lon="-1.79521">
        <ele>5.2</ele>
        <time>2021-09-25T12:51:01Z</time>
      </trkpt>
      <trkpt lat="46.4935" lon="-1.79521">
        <ele>5.2</ele>
        <time>2021-09-25T12:51:02Z</time>
      </trkpt>
      <trkpt lat="46.49349" lon="-1.7952">
        <ele>5.2</ele>
        <time>2021-09-25T12:51:03Z</time>
      </trkpt>
      <trkpt lat="46.49347" lon="-1.79519">
        <ele>5.2</ele>
        <time>2021-09-25T12:51:04Z</time>
      </trkpt>
      <trkpt lat="46.49346" lon="-1.79519">
        <ele>5.2</ele>
        <time>2021-09-25T12:51:05Z</time>
      </trkpt>
      <trkpt lat="46.49345" lon="-1.79518">
        <ele>5.2</ele>
        <time>2021-09-25T12:51:06Z</time>
      </trkpt>
      <trkpt lat="46.49344" lon="-1.79518">
        <ele>5.2</ele>
        <time>2021-09-25T12:51:07Z</time>
      </trkpt>
      <trkpt lat="46.49343" lon="-1.79517">
        <ele>5.2</ele>
        <time>2021-09-25T12:51:08Z</time>
      </trkpt>
      <trkpt lat="46.49342" lon="-1.79517">
        <ele>5.2</ele>
        <time>2021-09-25T12:51:09Z</time>
      </trkpt>
      <trkpt lat="46.49341" lon="-1.79516">
        <ele>5.2</ele>
        <time>2021-09-25T12:51:10Z</time>
      </trkpt>
      <trkpt lat="46.4934" lon="-1.79515">
        <ele>5.2</ele>
        <time>2021-09-25T12:51:11Z</time>
      </trkpt>
      <trkpt lat="46.49339" lon="-1.79515">
        <ele>5.2</ele>
        <time>2021-09-25T12:51:12Z</time>
      </trkpt>
      <trkpt lat="46.49337" lon="-1.79514">
        <ele>5.2</ele>
        <time>2021-09-25T12:51:13Z</time>
      </trkpt>
      <trkpt lat="46.49336" lon="-1.79514">
        <ele>5.2</ele>
        <time>2021-09-25T12:51:14Z</time>
      </trkpt>
      <trkpt lat="46.49335" lon="-1.79513">
        <ele>5.2</ele>
        <time>2021-09-25T12:51:15Z</time>
      </trkpt>
      <trkpt lat="46.49334" lon="-1.79513">
        <ele>5.2</ele>
        <time>2021-09-25T12:51:16Z</time>
      </trkpt>
      <trkpt lat="46.49333" lon="-1.79512">
        <ele>5.2</ele>
        <time>2021-09-25T12:51:17Z</time>
      </trkpt>
      <trkpt lat="46.49332" lon="-1.79512">
        <ele>5.2</ele>
        <time>2021-09-25T12:51:18Z</time>
      </trkpt>
      <trkpt lat="46.49331" lon="-1.79512">
        <ele>5.2</ele>
        <time>2021-09-25T12:51:19Z</time>
      </trkpt>
      <trkpt lat="46.4933" lon="-1.79511">
        <ele>5.2</ele>
        <time>2021-09-25T12:51:20Z</time>
      </trkpt>
      <trkpt lat="46.49329" lon="-1.79511">
        <ele>5.2</ele>
        <time>2021-09-25T12:51:21Z</time>
      </trkpt>
      <trkpt lat="46.49328" lon="-1.7951">
        <ele>5.2</ele>
        <time>2021-09-25T12:51:22Z</time>
      </trkpt>
      <trkpt lat="46.49327" lon="-1.7951">
        <ele>5.2</ele>
        <time>2021-09-25T12:51:23Z</time>
      </trkpt>
      <trkpt lat="46.49326" lon="-1.79509">
        <ele>5.2</ele>
        <time>2021-09-25T12:51:24Z</time>
      </trkpt>
      <trkpt lat="46.49324" lon="-1.79509">
        <ele>5.3</ele>
        <time>2021-09-25T12:51:25Z</time>
      </trkpt>
      <trkpt lat="46.49323" lon="-1.79508">
        <ele>5.3</ele>
        <time>2021-09-25T12:51:26Z</time>
      </trkpt>
      <trkpt lat="46.49322" lon="-1.79507">
        <ele>5.3</ele>
        <time>2021-09-25T12:51:27Z</time>
      </trkpt>
      <trkpt lat="46.49321" lon="-1.79507">
        <ele>5.3</ele>
        <time>2021-09-25T12:51:28Z</time>
      </trkpt>
      <trkpt lat="46.4932" lon="-1.79506">
        <ele>5.3</ele>
        <time>2021-09-25T12:51:29Z</time>
      </trkpt>
      <trkpt lat="46.49319" lon="-1.79506">
        <ele>5.3</ele>
        <time>2021-09-25T12:51:30Z</time>
      </trkpt>
      <trkpt lat="46.49319" lon="-1.79506">
        <ele>5.3</ele>
        <time>2021-09-25T12:51:31Z</time>
      </trkpt>
      <trkpt lat="46.49318" lon="-1.79505">
        <ele>5.3</ele>
        <time>2021-09-25T12:51:32Z</time>
      </trkpt>
      <trkpt lat="46.49318" lon="-1.79505">
        <ele>5.3</ele>
        <time>2021-09-25T12:51:33Z</time>
      </trkpt>
      <trkpt lat="46.49318" lon="-1.79505">
        <ele>5.3</ele>
        <time>2021-09-25T12:51:34Z</time>
      </trkpt>
      <trkpt lat="46.49318" lon="-1.79505">
        <ele>5.3</ele>
        <time>2021-09-25T12:51:35Z</time>
      </trkpt>
      <trkpt lat="46.49318" lon="-1.79505">
        <ele>5.3</ele>
        <time>2021-09-25T12:51:36Z</time>
      </trkpt>
      <trkpt lat="46.49317" lon="-1.79505">
        <ele>5.3</ele>
        <time>2021-09-25T12:51:37Z</time>
      </trkpt>
      <trkpt lat="46.49316" lon="-1.79504">
        <ele>5.3</ele>
        <time>2021-09-25T12:51:38Z</time>
      </trkpt>
      <trkpt lat="46.49315" lon="-1.79504">
        <ele>5.3</ele>
        <time>2021-09-25T12:51:39Z</time>
      </trkpt>
      <trkpt lat="46.49313" lon="-1.79503">
        <ele>5.3</ele>
        <time>2021-09-25T12:51:40Z</time>
      </trkpt>
      <trkpt lat="46.49312" lon="-1.79502">
        <ele>5.3</ele>
        <time>2021-09-25T12:51:41Z</time>
      </trkpt>
      <trkpt lat="46.4931" lon="-1.79502">
        <ele>5.3</ele>
        <time>2021-09-25T12:51:42Z</time>
      </trkpt>
      <trkpt lat="46.49308" lon="-1.79501">
        <ele>5.3</ele>
        <time>2021-09-25T12:51:43Z</time>
      </trkpt>
      <trkpt lat="46.49307" lon="-1.795">
        <ele>5.3</ele>
        <time>2021-09-25T12:51:44Z</time>
      </trkpt>
      <trkpt lat="46.49305" lon="-1.795">
        <ele>5.4</ele>
        <time>2021-09-25T12:51:45Z</time>
      </trkpt>
      <trkpt lat="46.49303" lon="-1.79499">
        <ele>5.4</ele>
        <time>2021-09-25T12:51:46Z</time>
      </trkpt>
      <trkpt lat="46.49302" lon="-1.79498">
        <ele>5.4</ele>
        <time>2021-09-25T12:51:47Z</time>
      </trkpt>
      <trkpt lat="46.49301" lon="-1.79498">
        <ele>5.4</ele>
        <time>2021-09-25T12:51:48Z</time>
      </trkpt>
      <trkpt lat="46.49299" lon="-1.79497">
        <ele>5.4</ele>
        <time>2021-09-25T12:51:49Z</time>
      </trkpt>
      <trkpt lat="46.49298" lon="-1.79497">
        <ele>5.4</ele>
        <time>2021-09-25T12:51:50Z</time>
      </trkpt>
      <trkpt lat="46.49297" lon="-1.79496">
        <ele>5.4</ele>
        <time>2021-09-25T12:51:51Z</time>
      </trkpt>
      <trkpt lat="46.49296" lon="-1.79496">
        <ele>5.4</ele>
        <time>2021-09-25T12:51:52Z</time>
      </trkpt>
      <trkpt lat="46.49295" lon="-1.79496">
        <ele>5.4</ele>
        <time>2021-09-25T12:51:53Z</time>
      </trkpt>
      <trkpt lat="46.49294" lon="-1.79495">
        <ele>5.4</ele>
        <time>2021-09-25T12:51:54Z</time>
      </trkpt>
      <trkpt lat="46.49293" lon="-1.79495">
        <ele>5.5</ele>
        <time>2021-09-25T12:51:55Z</time>
      </trkpt>
      <trkpt lat="46.49292" lon="-1.79494">
        <ele>5.5</ele>
        <time>2021-09-25T12:51:56Z</time>
      </trkpt>
      <trkpt lat="46.49291" lon="-1.79493">
        <ele>5.5</ele>
        <time>2021-09-25T12:51:57Z</time>
      </trkpt>
      <trkpt lat="46.4929" lon="-1.79493">
        <ele>5.5</ele>
        <time>2021-09-25T12:51:58Z</time>
      </trkpt>
      <trkpt lat="46.49289" lon="-1.79492">
        <ele>5.5</ele>
        <time>2021-09-25T12:51:59Z</time>
      </trkpt>
      <trkpt lat="46.49288" lon="-1.79492">
        <ele>5.5</ele>
        <time>2021-09-25T12:52:00Z</time>
      </trkpt>
      <trkpt lat="46.49288" lon="-1.79491">
        <ele>5.5</ele>
        <time>2021-09-25T12:52:01Z</time>
      </trkpt>
      <trkpt lat="46.49287" lon="-1.79491">
        <ele>5.5</ele>
        <time>2021-09-25T12:52:02Z</time>
      </trkpt>
      <trkpt lat="46.49286" lon="-1.7949">
        <ele>5.5</ele>
        <time>2021-09-25T12:52:03Z</time>
      </trkpt>
      <trkpt lat="46.49285" lon="-1.79489">
        <ele>5.5</ele>
        <time>2021-09-25T12:52:04Z</time>
      </trkpt>
      <trkpt lat="46.49284" lon="-1.79489">
        <ele>5.5</ele>
        <time>2021-09-25T12:52:05Z</time>
      </trkpt>
      <trkpt lat="46.49283" lon="-1.79488">
        <ele>5.5</ele>
        <time>2021-09-25T12:52:06Z</time>
      </trkpt>
      <trkpt lat="46.49282" lon="-1.79488">
        <ele>5.5</ele>
        <time>2021-09-25T12:52:07Z</time>
      </trkpt>
      <trkpt lat="46.49281" lon="-1.79487">
        <ele>5.6</ele>
        <time>2021-09-25T12:52:08Z</time>
      </trkpt>
      <trkpt lat="46.4928" lon="-1.79487">
        <ele>5.6</ele>
        <time>2021-09-25T12:52:09Z</time>
      </trkpt>
      <trkpt lat="46.49278" lon="-1.79486">
        <ele>5.6</ele>
        <time>2021-09-25T12:52:10Z</time>
      </trkpt>
      <trkpt lat="46.49277" lon="-1.79486">
        <ele>5.6</ele>
        <time>2021-09-25T12:52:11Z</time>
      </trkpt>
      <trkpt lat="46.49276" lon="-1.79485">
        <ele>5.6</ele>
        <time>2021-09-25T12:52:12Z</time>
      </trkpt>
      <trkpt lat="46.49275" lon="-1.79485">
        <ele>5.6</ele>
        <time>2021-09-25T12:52:13Z</time>
      </trkpt>
      <trkpt lat="46.49274" lon="-1.79485">
        <ele>5.6</ele>
        <time>2021-09-25T12:52:14Z</time>
      </trkpt>
      <trkpt lat="46.49273" lon="-1.79484">
        <ele>5.6</ele>
        <time>2021-09-25T12:52:15Z</time>
      </trkpt>
      <trkpt lat="46.49272" lon="-1.79484">
        <ele>5.6</ele>
        <time>2021-09-25T12:52:16Z</time>
      </trkpt>
      <trkpt lat="46.49271" lon="-1.79484">
        <ele>5.6</ele>
        <time>2021-09-25T12:52:17Z</time>
      </trkpt>
      <trkpt lat="46.4927" lon="-1.79484">
        <ele>5.6</ele>
        <time>2021-09-25T12:52:18Z</time>
      </trkpt>
      <trkpt lat="46.49269" lon="-1.79483">
        <ele>5.6</ele>
        <time>2021-09-25T12:52:19Z</time>
      </trkpt>
      <trkpt lat="46.49268" lon="-1.79483">
        <ele>5.6</ele>
        <time>2021-09-25T12:52:20Z</time>
      </trkpt>
      <trkpt lat="46.49267" lon="-1.79483">
        <ele>5.6</ele>
        <time>2021-09-25T12:52:21Z</time>
      </trkpt>
      <trkpt lat="46.49266" lon="-1.79483">
        <ele>5.6</ele>
        <time>2021-09-25T12:52:22Z</time>
      </trkpt>
      <trkpt lat="46.49264" lon="-1.79483">
        <ele>5.6</ele>
        <time>2021-09-25T12:52:23Z</time>
      </trkpt>
      <trkpt lat="46.49263" lon="-1.79483">
        <ele>5.6</ele>
        <time>2021-09-25T12:52:24Z</time>
      </trkpt>
      <trkpt lat="46.49262" lon="-1.79483">
        <ele>5.6</ele>
        <time>2021-09-25T12:52:25Z</time>
      </trkpt>
      <trkpt lat="46.49261" lon="-1.79484">
        <ele>5.6</ele>
        <time>2021-09-25T12:52:26Z</time>
      </trkpt>
      <trkpt lat="46.49259" lon="-1.79484">
        <ele>5.6</ele>
        <time>2021-09-25T12:52:27Z</time>
      </trkpt>
      <trkpt lat="46.49258" lon="-1.79484">
        <ele>5.6</ele>
        <time>2021-09-25T12:52:28Z</time>
      </trkpt>
      <trkpt lat="46.49257" lon="-1.79484">
        <ele>5.6</ele>
        <time>2021-09-25T12:52:29Z</time>
      </trkpt>
      <trkpt lat="46.49256" lon="-1.79484">
        <ele>5.6</ele>
        <time>2021-09-25T12:52:30Z</time>
      </trkpt>
      <trkpt lat="46.49255" lon="-1.79484">
        <ele>5.6</ele>
        <time>2021-09-25T12:52:31Z</time>
      </trkpt>
      <trkpt lat="46.49254" lon="-1.79484">
        <ele>5.6</ele>
        <time>2021-09-25T12:52:32Z</time>
      </trkpt>
      <trkpt lat="46.49253" lon="-1.79484">
        <ele>5.6</ele>
        <time>2021-09-25T12:52:33Z</time>
      </trkpt>
      <trkpt lat="46.49252" lon="-1.79484">
        <ele>5.6</ele>
        <time>2021-09-25T12:52:34Z</time>
      </trkpt>
      <trkpt lat="46.49251" lon="-1.79483">
        <ele>5.6</ele>
        <time>2021-09-25T12:52:35Z</time>
      </trkpt>
      <trkpt lat="46.4925" lon="-1.79483">
        <ele>5.6</ele>
        <time>2021-09-25T12:52:36Z</time>
      </trkpt>
      <trkpt lat="46.49249" lon="-1.79483">
        <ele>5.6</ele>
        <time>2021-09-25T12:52:37Z</time>
      </trkpt>
      <trkpt lat="46.49248" lon="-1.79483">
        <ele>5.6</ele>
        <time>2021-09-25T12:52:38Z</time>
      </trkpt>
      <trkpt lat="46.49247" lon="-1.79482">
        <ele>5.6</ele>
        <time>2021-09-25T12:52:39Z</time>
      </trkpt>
      <trkpt lat="46.49246" lon="-1.79482">
        <ele>5.6</ele>
        <time>2021-09-25T12:52:40Z</time>
      </trkpt>
      <trkpt lat="46.49245" lon="-1.79482">
        <ele>5.6</ele>
        <time>2021-09-25T12:52:41Z</time>
      </trkpt>
      <trkpt lat="46.49244" lon="-1.79481">
        <ele>5.6</ele>
        <time>2021-09-25T12:52:42Z</time>
      </trkpt>
      <trkpt lat="46.49243" lon="-1.79481">
        <ele>5.6</ele>
        <time>2021-09-25T12:52:43Z</time>
      </trkpt>
      <trkpt lat="46.49242" lon="-1.7948">
        <ele>5.6</ele>
        <time>2021-09-25T12:52:44Z</time>
      </trkpt>
      <trkpt lat="46.49241" lon="-1.7948">
        <ele>5.7</ele>
        <time>2021-09-25T12:52:45Z</time>
      </trkpt>
      <trkpt lat="46.4924" lon="-1.7948">
        <ele>5.7</ele>
        <time>2021-09-25T12:52:46Z</time>
      </trkpt>
      <trkpt lat="46.49239" lon="-1.79479">
        <ele>5.7</ele>
        <time>2021-09-25T12:52:47Z</time>
      </trkpt>
      <trkpt lat="46.49238" lon="-1.79478">
        <ele>5.7</ele>
        <time>2021-09-25T12:52:48Z</time>
      </trkpt>
      <trkpt lat="46.49237" lon="-1.79478">
        <ele>5.7</ele>
        <time>2021-09-25T12:52:49Z</time>
      </trkpt>
      <trkpt lat="46.49236" lon="-1.79477">
        <ele>5.7</ele>
        <time>2021-09-25T12:52:50Z</time>
      </trkpt>
      <trkpt lat="46.49236" lon="-1.79476">
        <ele>5.7</ele>
        <time>2021-09-25T12:52:51Z</time>
      </trkpt>
      <trkpt lat="46.49235" lon="-1.79476">
        <ele>5.7</ele>
        <time>2021-09-25T12:52:52Z</time>
      </trkpt>
      <trkpt lat="46.49234" lon="-1.79475">
        <ele>5.7</ele>
        <time>2021-09-25T12:52:53Z</time>
      </trkpt>
      <trkpt lat="46.49234" lon="-1.79474">
        <ele>5.7</ele>
        <time>2021-09-25T12:52:54Z</time>
      </trkpt>
      <trkpt lat="46.49233" lon="-1.79473">
        <ele>5.7</ele>
        <time>2021-09-25T12:52:55Z</time>
      </trkpt>
      <trkpt lat="46.49233" lon="-1.79472">
        <ele>5.8</ele>
        <time>2021-09-25T12:52:56Z</time>
      </trkpt>
      <trkpt lat="46.49232" lon="-1.79471">
        <ele>5.8</ele>
        <time>2021-09-25T12:52:57Z</time>
      </trkpt>
      <trkpt lat="46.49231" lon="-1.7947">
        <ele>5.8</ele>
        <time>2021-09-25T12:52:58Z</time>
      </trkpt>
      <trkpt lat="46.49231" lon="-1.79469">
        <ele>5.8</ele>
        <time>2021-09-25T12:52:59Z</time>
      </trkpt>
      <trkpt lat="46.4923" lon="-1.79468">
        <ele>5.8</ele>
        <time>2021-09-25T12:53:00Z</time>
      </trkpt>
      <trkpt lat="46.49229" lon="-1.79468">
        <ele>5.8</ele>
        <time>2021-09-25T12:53:01Z</time>
      </trkpt>
      <trkpt lat="46.49228" lon="-1.79467">
        <ele>5.8</ele>
        <time>2021-09-25T12:53:02Z</time>
      </trkpt>
      <trkpt lat="46.49227" lon="-1.79466">
        <ele>5.8</ele>
        <time>2021-09-25T12:53:03Z</time>
      </trkpt>
      <trkpt lat="46.49226" lon="-1.79465">
        <ele>5.8</ele>
        <time>2021-09-25T12:53:04Z</time>
      </trkpt>
      <trkpt lat="46.49225" lon="-1.79465">
        <ele>5.8</ele>
        <time>2021-09-25T12:53:05Z</time>
      </trkpt>
      <trkpt lat="46.49224" lon="-1.79464">
        <ele>5.9</ele>
        <time>2021-09-25T12:53:06Z</time>
      </trkpt>
      <trkpt lat="46.49223" lon="-1.79463">
        <ele>5.9</ele>
        <time>2021-09-25T12:53:07Z</time>
      </trkpt>
      <trkpt lat="46.49222" lon="-1.79463">
        <ele>5.9</ele>
        <time>2021-09-25T12:53:08Z</time>
      </trkpt>
      <trkpt lat="46.49221" lon="-1.79462">
        <ele>5.9</ele>
        <time>2021-09-25T12:53:09Z</time>
      </trkpt>
      <trkpt lat="46.4922" lon="-1.79462">
        <ele>5.9</ele>
        <time>2021-09-25T12:53:10Z</time>
      </trkpt>
      <trkpt lat="46.49219" lon="-1.79461">
        <ele>5.9</ele>
        <time>2021-09-25T12:53:11Z</time>
      </trkpt>
      <trkpt lat="46.49218" lon="-1.79461">
        <ele>5.9</ele>
        <time>2021-09-25T12:53:12Z</time>
      </trkpt>
      <trkpt lat="46.49218" lon="-1.7946">
        <ele>5.9</ele>
        <time>2021-09-25T12:53:13Z</time>
      </trkpt>
      <trkpt lat="46.49217" lon="-1.7946">
        <ele>5.9</ele>
        <time>2021-09-25T12:53:14Z</time>
      </trkpt>
      <trkpt lat="46.49216" lon="-1.79459">
        <ele>5.9</ele>
        <time>2021-09-25T12:53:15Z</time>
      </trkpt>
      <trkpt lat="46.49215" lon="-1.79459">
        <ele>5.9</ele>
        <time>2021-09-25T12:53:16Z</time>
      </trkpt>
      <trkpt lat="46.49214" lon="-1.79458">
        <ele>5.9</ele>
        <time>2021-09-25T12:53:17Z</time>
      </trkpt>
      <trkpt lat="46.49213" lon="-1.79458">
        <ele>5.9</ele>
        <time>2021-09-25T12:53:18Z</time>
      </trkpt>
      <trkpt lat="46.49212" lon="-1.79457">
        <ele>5.9</ele>
        <time>2021-09-25T12:53:19Z</time>
      </trkpt>
      <trkpt lat="46.49211" lon="-1.79456">
        <ele>5.9</ele>
        <time>2021-09-25T12:53:20Z</time>
      </trkpt>
      <trkpt lat="46.4921" lon="-1.79455">
        <ele>5.9</ele>
        <time>2021-09-25T12:53:21Z</time>
      </trkpt>
      <trkpt lat="46.49208" lon="-1.79454">
        <ele>5.9</ele>
        <time>2021-09-25T12:53:22Z</time>
      </trkpt>
      <trkpt lat="46.49207" lon="-1.79454">
        <ele>5.9</ele>
        <time>2021-09-25T12:53:23Z</time>
      </trkpt>
      <trkpt lat="46.49206" lon="-1.79453">
        <ele>6</ele>
        <time>2021-09-25T12:53:24Z</time>
      </trkpt>
      <trkpt lat="46.49205" lon="-1.79452">
        <ele>6</ele>
        <time>2021-09-25T12:53:25Z</time>
      </trkpt>
      <trkpt lat="46.49204" lon="-1.79451">
        <ele>6</ele>
        <time>2021-09-25T12:53:26Z</time>
      </trkpt>
      <trkpt lat="46.49203" lon="-1.79451">
        <ele>6</ele>
        <time>2021-09-25T12:53:27Z</time>
      </trkpt>
      <trkpt lat="46.49202" lon="-1.7945">
        <ele>6</ele>
        <time>2021-09-25T12:53:28Z</time>
      </trkpt>
      <trkpt lat="46.49202" lon="-1.7945">
        <ele>5.9</ele>
        <time>2021-09-25T12:53:29Z</time>
      </trkpt>
      <trkpt lat="46.49202" lon="-1.79449">
        <ele>5.9</ele>
        <time>2021-09-25T12:53:30Z</time>
      </trkpt>
      <trkpt lat="46.49201" lon="-1.79449">
        <ele>5.9</ele>
        <time>2021-09-25T12:53:31Z</time>
      </trkpt>
      <trkpt lat="46.49201" lon="-1.79449">
        <ele>5.9</ele>
        <time>2021-09-25T12:53:32Z</time>
      </trkpt>
      <trkpt lat="46.49201" lon="-1.79448">
        <ele>5.9</ele>
        <time>2021-09-25T12:53:33Z</time>
      </trkpt>
      <trkpt lat="46.492" lon="-1.79448">
        <ele>5.9</ele>
        <time>2021-09-25T12:53:34Z</time>
      </trkpt>
      <trkpt lat="46.492" lon="-1.79448">
        <ele>5.9</ele>
        <time>2021-09-25T12:53:35Z</time>
      </trkpt>
      <trkpt lat="46.492" lon="-1.79447">
        <ele>5.9</ele>
        <time>2021-09-25T12:53:36Z</time>
      </trkpt>
      <trkpt lat="46.49199" lon="-1.79447">
        <ele>5.9</ele>
        <time>2021-09-25T12:53:37Z</time>
      </trkpt>
      <trkpt lat="46.49198" lon="-1.79446">
        <ele>5.9</ele>
        <time>2021-09-25T12:53:38Z</time>
      </trkpt>
      <trkpt lat="46.49197" lon="-1.79446">
        <ele>5.9</ele>
        <time>2021-09-25T12:53:39Z</time>
      </trkpt>
      <trkpt lat="46.49196" lon="-1.79445">
        <ele>5.9</ele>
        <time>2021-09-25T12:53:40Z</time>
      </trkpt>
      <trkpt lat="46.49195" lon="-1.79444">
        <ele>5.9</ele>
        <time>2021-09-25T12:53:41Z</time>
      </trkpt>
      <trkpt lat="46.49194" lon="-1.79444">
        <ele>5.9</ele>
        <time>2021-09-25T12:53:42Z</time>
      </trkpt>
      <trkpt lat="46.49193" lon="-1.79443">
        <ele>5.9</ele>
        <time>2021-09-25T12:53:43Z</time>
      </trkpt>
      <trkpt lat="46.49192" lon="-1.79443">
        <ele>5.9</ele>
        <time>2021-09-25T12:53:44Z</time>
      </trkpt>
      <trkpt lat="46.49191" lon="-1.79442">
        <ele>5.9</ele>
        <time>2021-09-25T12:53:45Z</time>
      </trkpt>
      <trkpt lat="46.49189" lon="-1.79441">
        <ele>5.9</ele>
        <time>2021-09-25T12:53:46Z</time>
      </trkpt>
      <trkpt lat="46.49188" lon="-1.79441">
        <ele>5.9</ele>
        <time>2021-09-25T12:53:47Z</time>
      </trkpt>
      <trkpt lat="46.49187" lon="-1.7944">
        <ele>5.9</ele>
        <time>2021-09-25T12:53:48Z</time>
      </trkpt>
      <trkpt lat="46.49186" lon="-1.79439">
        <ele>5.9</ele>
        <time>2021-09-25T12:53:49Z</time>
      </trkpt>
      <trkpt lat="46.49185" lon="-1.79439">
        <ele>5.9</ele>
        <time>2021-09-25T12:53:50Z</time>
      </trkpt>
      <trkpt lat="46.49184" lon="-1.79438">
        <ele>5.9</ele>
        <time>2021-09-25T12:53:51Z</time>
      </trkpt>
      <trkpt lat="46.49183" lon="-1.79438">
        <ele>5.8</ele>
        <time>2021-09-25T12:53:52Z</time>
      </trkpt>
      <trkpt lat="46.49182" lon="-1.79437">
        <ele>5.8</ele>
        <time>2021-09-25T12:53:53Z</time>
      </trkpt>
      <trkpt lat="46.49182" lon="-1.79437">
        <ele>5.8</ele>
        <time>2021-09-25T12:53:54Z</time>
      </trkpt>
      <trkpt lat="46.49181" lon="-1.79436">
        <ele>5.8</ele>
        <time>2021-09-25T12:53:55Z</time>
      </trkpt>
      <trkpt lat="46.4918" lon="-1.79436">
        <ele>5.8</ele>
        <time>2021-09-25T12:53:56Z</time>
      </trkpt>
      <trkpt lat="46.49179" lon="-1.79435">
        <ele>5.8</ele>
        <time>2021-09-25T12:53:57Z</time>
      </trkpt>
      <trkpt lat="46.49178" lon="-1.79435">
        <ele>5.8</ele>
        <time>2021-09-25T12:53:58Z</time>
      </trkpt>
      <trkpt lat="46.49177" lon="-1.79434">
        <ele>5.8</ele>
        <time>2021-09-25T12:53:59Z</time>
      </trkpt>
      <trkpt lat="46.49176" lon="-1.79434">
        <ele>5.8</ele>
        <time>2021-09-25T12:54:00Z</time>
      </trkpt>
      <trkpt lat="46.49175" lon="-1.79433">
        <ele>5.8</ele>
        <time>2021-09-25T12:54:01Z</time>
      </trkpt>
      <trkpt lat="46.49174" lon="-1.79433">
        <ele>5.8</ele>
        <time>2021-09-25T12:54:02Z</time>
      </trkpt>
      <trkpt lat="46.49173" lon="-1.79432">
        <ele>5.8</ele>
        <time>2021-09-25T12:54:03Z</time>
      </trkpt>
      <trkpt lat="46.49172" lon="-1.79431">
        <ele>5.8</ele>
        <time>2021-09-25T12:54:04Z</time>
      </trkpt>
      <trkpt lat="46.49171" lon="-1.79431">
        <ele>5.8</ele>
        <time>2021-09-25T12:54:05Z</time>
      </trkpt>
      <trkpt lat="46.4917" lon="-1.7943">
        <ele>5.8</ele>
        <time>2021-09-25T12:54:06Z</time>
      </trkpt>
      <trkpt lat="46.49168" lon="-1.7943">
        <ele>5.8</ele>
        <time>2021-09-25T12:54:07Z</time>
      </trkpt>
      <trkpt lat="46.49167" lon="-1.79429">
        <ele>5.8</ele>
        <time>2021-09-25T12:54:08Z</time>
      </trkpt>
      <trkpt lat="46.49166" lon="-1.79428">
        <ele>5.8</ele>
        <time>2021-09-25T12:54:09Z</time>
      </trkpt>
      <trkpt lat="46.49165" lon="-1.79428">
        <ele>5.8</ele>
        <time>2021-09-25T12:54:10Z</time>
      </trkpt>
      <trkpt lat="46.49164" lon="-1.79427">
        <ele>5.8</ele>
        <time>2021-09-25T12:54:11Z</time>
      </trkpt>
      <trkpt lat="46.49163" lon="-1.79427">
        <ele>5.8</ele>
        <time>2021-09-25T12:54:12Z</time>
      </trkpt>
      <trkpt lat="46.49163" lon="-1.79426">
        <ele>5.8</ele>
        <time>2021-09-25T12:54:13Z</time>
      </trkpt>
      <trkpt lat="46.49162" lon="-1.79426">
        <ele>5.9</ele>
        <time>2021-09-25T12:54:14Z</time>
      </trkpt>
      <trkpt lat="46.49162" lon="-1.79426">
        <ele>5.9</ele>
        <time>2021-09-25T12:54:15Z</time>
      </trkpt>
      <trkpt lat="46.49162" lon="-1.79425">
        <ele>5.9</ele>
        <time>2021-09-25T12:54:16Z</time>
      </trkpt>
      <trkpt lat="46.49162" lon="-1.79425">
        <ele>5.9</ele>
        <time>2021-09-25T12:54:17Z</time>
      </trkpt>
      <trkpt lat="46.49161" lon="-1.79424">
        <ele>5.9</ele>
        <time>2021-09-25T12:54:18Z</time>
      </trkpt>
      <trkpt lat="46.49161" lon="-1.79424">
        <ele>5.9</ele>
        <time>2021-09-25T12:54:19Z</time>
      </trkpt>
      <trkpt lat="46.4916" lon="-1.79424">
        <ele>5.9</ele>
        <time>2021-09-25T12:54:20Z</time>
      </trkpt>
      <trkpt lat="46.4916" lon="-1.79423">
        <ele>5.9</ele>
        <time>2021-09-25T12:54:21Z</time>
      </trkpt>
      <trkpt lat="46.49159" lon="-1.79422">
        <ele>5.9</ele>
        <time>2021-09-25T12:54:22Z</time>
      </trkpt>
      <trkpt lat="46.49158" lon="-1.79422">
        <ele>5.9</ele>
        <time>2021-09-25T12:54:23Z</time>
      </trkpt>
      <trkpt lat="46.49157" lon="-1.79421">
        <ele>5.9</ele>
        <time>2021-09-25T12:54:24Z</time>
      </trkpt>
      <trkpt lat="46.49156" lon="-1.7942">
        <ele>5.9</ele>
        <time>2021-09-25T12:54:25Z</time>
      </trkpt>
      <trkpt lat="46.49155" lon="-1.79419">
        <ele>5.9</ele>
        <time>2021-09-25T12:54:26Z</time>
      </trkpt>
      <trkpt lat="46.49154" lon="-1.79418">
        <ele>5.9</ele>
        <time>2021-09-25T12:54:27Z</time>
      </trkpt>
      <trkpt lat="46.49152" lon="-1.79417">
        <ele>5.9</ele>
        <time>2021-09-25T12:54:28Z</time>
      </trkpt>
      <trkpt lat="46.49151" lon="-1.79416">
        <ele>5.9</ele>
        <time>2021-09-25T12:54:29Z</time>
      </trkpt>
      <trkpt lat="46.4915" lon="-1.79416">
        <ele>5.9</ele>
        <time>2021-09-25T12:54:30Z</time>
      </trkpt>
      <trkpt lat="46.49149" lon="-1.79415">
        <ele>5.9</ele>
        <time>2021-09-25T12:54:31Z</time>
      </trkpt>
      <trkpt lat="46.49148" lon="-1.79414">
        <ele>5.9</ele>
        <time>2021-09-25T12:54:32Z</time>
      </trkpt>
      <trkpt lat="46.49147" lon="-1.79413">
        <ele>5.9</ele>
        <time>2021-09-25T12:54:33Z</time>
      </trkpt>
      <trkpt lat="46.49145" lon="-1.79413">
        <ele>5.9</ele>
        <time>2021-09-25T12:54:34Z</time>
      </trkpt>
      <trkpt lat="46.49144" lon="-1.79412">
        <ele>5.9</ele>
        <time>2021-09-25T12:54:35Z</time>
      </trkpt>
      <trkpt lat="46.49143" lon="-1.79411">
        <ele>5.9</ele>
        <time>2021-09-25T12:54:36Z</time>
      </trkpt>
      <trkpt lat="46.49142" lon="-1.79411">
        <ele>5.9</ele>
        <time>2021-09-25T12:54:37Z</time>
      </trkpt>
      <trkpt lat="46.49141" lon="-1.7941">
        <ele>5.9</ele>
        <time>2021-09-25T12:54:38Z</time>
      </trkpt>
      <trkpt lat="46.4914" lon="-1.7941">
        <ele>5.9</ele>
        <time>2021-09-25T12:54:39Z</time>
      </trkpt>
      <trkpt lat="46.49139" lon="-1.79409">
        <ele>5.9</ele>
        <time>2021-09-25T12:54:40Z</time>
      </trkpt>
      <trkpt lat="46.49138" lon="-1.79409">
        <ele>5.9</ele>
        <time>2021-09-25T12:54:41Z</time>
      </trkpt>
      <trkpt lat="46.49137" lon="-1.79408">
        <ele>5.9</ele>
        <time>2021-09-25T12:54:42Z</time>
      </trkpt>
      <trkpt lat="46.49136" lon="-1.79408">
        <ele>5.9</ele>
        <time>2021-09-25T12:54:43Z</time>
      </trkpt>
      <trkpt lat="46.49135" lon="-1.79407">
        <ele>5.9</ele>
        <time>2021-09-25T12:54:44Z</time>
      </trkpt>
      <trkpt lat="46.49134" lon="-1.79406">
        <ele>5.9</ele>
        <time>2021-09-25T12:54:45Z</time>
      </trkpt>
      <trkpt lat="46.49133" lon="-1.79406">
        <ele>5.9</ele>
        <time>2021-09-25T12:54:46Z</time>
      </trkpt>
      <trkpt lat="46.49132" lon="-1.79405">
        <ele>5.9</ele>
        <time>2021-09-25T12:54:47Z</time>
      </trkpt>
      <trkpt lat="46.4913" lon="-1.79404">
        <ele>5.9</ele>
        <time>2021-09-25T12:54:48Z</time>
      </trkpt>
      <trkpt lat="46.49129" lon="-1.79403">
        <ele>5.9</ele>
        <time>2021-09-25T12:54:49Z</time>
      </trkpt>
      <trkpt lat="46.49128" lon="-1.79403">
        <ele>5.9</ele>
        <time>2021-09-25T12:54:50Z</time>
      </trkpt>
      <trkpt lat="46.49127" lon="-1.79402">
        <ele>5.9</ele>
        <time>2021-09-25T12:54:51Z</time>
      </trkpt>
      <trkpt lat="46.49126" lon="-1.79401">
        <ele>5.9</ele>
        <time>2021-09-25T12:54:52Z</time>
      </trkpt>
      <trkpt lat="46.49124" lon="-1.794">
        <ele>5.9</ele>
        <time>2021-09-25T12:54:53Z</time>
      </trkpt>
      <trkpt lat="46.49123" lon="-1.79399">
        <ele>5.9</ele>
        <time>2021-09-25T12:54:54Z</time>
      </trkpt>
      <trkpt lat="46.49122" lon="-1.79399">
        <ele>5.9</ele>
        <time>2021-09-25T12:54:55Z</time>
      </trkpt>
      <trkpt lat="46.49121" lon="-1.79398">
        <ele>5.9</ele>
        <time>2021-09-25T12:54:56Z</time>
      </trkpt>
      <trkpt lat="46.4912" lon="-1.79397">
        <ele>5.9</ele>
        <time>2021-09-25T12:54:57Z</time>
      </trkpt>
      <trkpt lat="46.49119" lon="-1.79396">
        <ele>5.9</ele>
        <time>2021-09-25T12:54:58Z</time>
      </trkpt>
      <trkpt lat="46.49117" lon="-1.79395">
        <ele>5.9</ele>
        <time>2021-09-25T12:54:59Z</time>
      </trkpt>
      <trkpt lat="46.49116" lon="-1.79394">
        <ele>5.9</ele>
        <time>2021-09-25T12:55:00Z</time>
      </trkpt>
      <trkpt lat="46.49115" lon="-1.79393">
        <ele>5.9</ele>
        <time>2021-09-25T12:55:01Z</time>
      </trkpt>
      <trkpt lat="46.49114" lon="-1.79393">
        <ele>5.9</ele>
        <time>2021-09-25T12:55:02Z</time>
      </trkpt>
      <trkpt lat="46.49113" lon="-1.79392">
        <ele>5.9</ele>
        <time>2021-09-25T12:55:03Z</time>
      </trkpt>
      <trkpt lat="46.49112" lon="-1.79391">
        <ele>5.9</ele>
        <time>2021-09-25T12:55:04Z</time>
      </trkpt>
      <trkpt lat="46.49111" lon="-1.7939">
        <ele>5.9</ele>
        <time>2021-09-25T12:55:05Z</time>
      </trkpt>
      <trkpt lat="46.4911" lon="-1.79389">
        <ele>5.9</ele>
        <time>2021-09-25T12:55:06Z</time>
      </trkpt>
      <trkpt lat="46.49108" lon="-1.79388">
        <ele>5.9</ele>
        <time>2021-09-25T12:55:07Z</time>
      </trkpt>
      <trkpt lat="46.49107" lon="-1.79388">
        <ele>5.9</ele>
        <time>2021-09-25T12:55:08Z</time>
      </trkpt>
      <trkpt lat="46.49106" lon="-1.79387">
        <ele>5.9</ele>
        <time>2021-09-25T12:55:09Z</time>
      </trkpt>
      <trkpt lat="46.49105" lon="-1.79386">
        <ele>5.9</ele>
        <time>2021-09-25T12:55:10Z</time>
      </trkpt>
      <trkpt lat="46.49104" lon="-1.79385">
        <ele>5.9</ele>
        <time>2021-09-25T12:55:11Z</time>
      </trkpt>
      <trkpt lat="46.49103" lon="-1.79385">
        <ele>5.9</ele>
        <time>2021-09-25T12:55:12Z</time>
      </trkpt>
      <trkpt lat="46.49102" lon="-1.79384">
        <ele>5.9</ele>
        <time>2021-09-25T12:55:13Z</time>
      </trkpt>
      <trkpt lat="46.49101" lon="-1.79383">
        <ele>5.9</ele>
        <time>2021-09-25T12:55:14Z</time>
      </trkpt>
      <trkpt lat="46.491" lon="-1.79383">
        <ele>5.9</ele>
        <time>2021-09-25T12:55:15Z</time>
      </trkpt>
      <trkpt lat="46.49099" lon="-1.79382">
        <ele>5.9</ele>
        <time>2021-09-25T12:55:16Z</time>
      </trkpt>
      <trkpt lat="46.49098" lon="-1.79381">
        <ele>5.9</ele>
        <time>2021-09-25T12:55:17Z</time>
      </trkpt>
      <trkpt lat="46.49097" lon="-1.79381">
        <ele>5.9</ele>
        <time>2021-09-25T12:55:18Z</time>
      </trkpt>
      <trkpt lat="46.49096" lon="-1.7938">
        <ele>5.9</ele>
        <time>2021-09-25T12:55:19Z</time>
      </trkpt>
      <trkpt lat="46.49095" lon="-1.79379">
        <ele>5.9</ele>
        <time>2021-09-25T12:55:20Z</time>
      </trkpt>
      <trkpt lat="46.49094" lon="-1.79379">
        <ele>5.9</ele>
        <time>2021-09-25T12:55:21Z</time>
      </trkpt>
      <trkpt lat="46.49093" lon="-1.79378">
        <ele>5.9</ele>
        <time>2021-09-25T12:55:22Z</time>
      </trkpt>
      <trkpt lat="46.49092" lon="-1.79377">
        <ele>5.9</ele>
        <time>2021-09-25T12:55:23Z</time>
      </trkpt>
      <trkpt lat="46.49091" lon="-1.79377">
        <ele>5.9</ele>
        <time>2021-09-25T12:55:24Z</time>
      </trkpt>
      <trkpt lat="46.4909" lon="-1.79376">
        <ele>5.9</ele>
        <time>2021-09-25T12:55:25Z</time>
      </trkpt>
      <trkpt lat="46.49089" lon="-1.79375">
        <ele>5.9</ele>
        <time>2021-09-25T12:55:26Z</time>
      </trkpt>
      <trkpt lat="46.49088" lon="-1.79374">
        <ele>5.9</ele>
        <time>2021-09-25T12:55:27Z</time>
      </trkpt>
      <trkpt lat="46.49086" lon="-1.79374">
        <ele>5.9</ele>
        <time>2021-09-25T12:55:28Z</time>
      </trkpt>
      <trkpt lat="46.49085" lon="-1.79373">
        <ele>5.9</ele>
        <time>2021-09-25T12:55:29Z</time>
      </trkpt>
      <trkpt lat="46.49084" lon="-1.79372">
        <ele>5.9</ele>
        <time>2021-09-25T12:55:30Z</time>
      </trkpt>
      <trkpt lat="46.49082" lon="-1.79371">
        <ele>5.9</ele>
        <time>2021-09-25T12:55:31Z</time>
      </trkpt>
      <trkpt lat="46.49081" lon="-1.7937">
        <ele>5.9</ele>
        <time>2021-09-25T12:55:32Z</time>
      </trkpt>
      <trkpt lat="46.49079" lon="-1.7937">
        <ele>5.9</ele>
        <time>2021-09-25T12:55:33Z</time>
      </trkpt>
      <trkpt lat="46.49078" lon="-1.79369">
        <ele>5.9</ele>
        <time>2021-09-25T12:55:34Z</time>
      </trkpt>
      <trkpt lat="46.49077" lon="-1.79368">
        <ele>6</ele>
        <time>2021-09-25T12:55:35Z</time>
      </trkpt>
      <trkpt lat="46.49076" lon="-1.79367">
        <ele>6</ele>
        <time>2021-09-25T12:55:36Z</time>
      </trkpt>
      <trkpt lat="46.49075" lon="-1.79367">
        <ele>6</ele>
        <time>2021-09-25T12:55:37Z</time>
      </trkpt>
      <trkpt lat="46.49074" lon="-1.79366">
        <ele>6</ele>
        <time>2021-09-25T12:55:38Z</time>
      </trkpt>
      <trkpt lat="46.49073" lon="-1.79366">
        <ele>6</ele>
        <time>2021-09-25T12:55:39Z</time>
      </trkpt>
      <trkpt lat="46.49072" lon="-1.79365">
        <ele>6</ele>
        <time>2021-09-25T12:55:40Z</time>
      </trkpt>
      <trkpt lat="46.49071" lon="-1.79365">
        <ele>6</ele>
        <time>2021-09-25T12:55:41Z</time>
      </trkpt>
      <trkpt lat="46.4907" lon="-1.79364">
        <ele>6</ele>
        <time>2021-09-25T12:55:42Z</time>
      </trkpt>
      <trkpt lat="46.49069" lon="-1.79364">
        <ele>6</ele>
        <time>2021-09-25T12:55:43Z</time>
      </trkpt>
      <trkpt lat="46.49068" lon="-1.79363">
        <ele>6</ele>
        <time>2021-09-25T12:55:44Z</time>
      </trkpt>
      <trkpt lat="46.49067" lon="-1.79363">
        <ele>6</ele>
        <time>2021-09-25T12:55:45Z</time>
      </trkpt>
      <trkpt lat="46.49066" lon="-1.79363">
        <ele>6</ele>
        <time>2021-09-25T12:55:46Z</time>
      </trkpt>
      <trkpt lat="46.49065" lon="-1.79362">
        <ele>6</ele>
        <time>2021-09-25T12:55:47Z</time>
      </trkpt>
      <trkpt lat="46.49064" lon="-1.79362">
        <ele>6</ele>
        <time>2021-09-25T12:55:48Z</time>
      </trkpt>
      <trkpt lat="46.49063" lon="-1.79361">
        <ele>6</ele>
        <time>2021-09-25T12:55:49Z</time>
      </trkpt>
      <trkpt lat="46.49061" lon="-1.79361">
        <ele>6</ele>
        <time>2021-09-25T12:55:50Z</time>
      </trkpt>
      <trkpt lat="46.4906" lon="-1.7936">
        <ele>6</ele>
        <time>2021-09-25T12:55:51Z</time>
      </trkpt>
      <trkpt lat="46.49059" lon="-1.7936">
        <ele>6</ele>
        <time>2021-09-25T12:55:52Z</time>
      </trkpt>
      <trkpt lat="46.49058" lon="-1.7936">
        <ele>6</ele>
        <time>2021-09-25T12:55:53Z</time>
      </trkpt>
      <trkpt lat="46.49057" lon="-1.79359">
        <ele>6</ele>
        <time>2021-09-25T12:55:54Z</time>
      </trkpt>
      <trkpt lat="46.49055" lon="-1.79359">
        <ele>6</ele>
        <time>2021-09-25T12:55:55Z</time>
      </trkpt>
      <trkpt lat="46.49054" lon="-1.79358">
        <ele>6</ele>
        <time>2021-09-25T12:55:56Z</time>
      </trkpt>
      <trkpt lat="46.49053" lon="-1.79358">
        <ele>6</ele>
        <time>2021-09-25T12:55:57Z</time>
      </trkpt>
      <trkpt lat="46.49052" lon="-1.79358">
        <ele>6</ele>
        <time>2021-09-25T12:55:58Z</time>
      </trkpt>
      <trkpt lat="46.49051" lon="-1.79357">
        <ele>6</ele>
        <time>2021-09-25T12:55:59Z</time>
      </trkpt>
      <trkpt lat="46.4905" lon="-1.79357">
        <ele>6</ele>
        <time>2021-09-25T12:56:00Z</time>
      </trkpt>
      <trkpt lat="46.49048" lon="-1.79356">
        <ele>6</ele>
        <time>2021-09-25T12:56:01Z</time>
      </trkpt>
      <trkpt lat="46.49047" lon="-1.79356">
        <ele>6</ele>
        <time>2021-09-25T12:56:02Z</time>
      </trkpt>
      <trkpt lat="46.49046" lon="-1.79355">
        <ele>6</ele>
        <time>2021-09-25T12:56:03Z</time>
      </trkpt>
      <trkpt lat="46.49045" lon="-1.79355">
        <ele>6</ele>
        <time>2021-09-25T12:56:04Z</time>
      </trkpt>
      <trkpt lat="46.49044" lon="-1.79355">
        <ele>6</ele>
        <time>2021-09-25T12:56:05Z</time>
      </trkpt>
      <trkpt lat="46.49043" lon="-1.79354">
        <ele>6</ele>
        <time>2021-09-25T12:56:06Z</time>
      </trkpt>
      <trkpt lat="46.49042" lon="-1.79354">
        <ele>6</ele>
        <time>2021-09-25T12:56:07Z</time>
      </trkpt>
      <trkpt lat="46.4904" lon="-1.79353">
        <ele>6</ele>
        <time>2021-09-25T12:56:08Z</time>
      </trkpt>
      <trkpt lat="46.49039" lon="-1.79353">
        <ele>6</ele>
        <time>2021-09-25T12:56:09Z</time>
      </trkpt>
      <trkpt lat="46.49038" lon="-1.79352">
        <ele>6</ele>
        <time>2021-09-25T12:56:10Z</time>
      </trkpt>
      <trkpt lat="46.49037" lon="-1.79352">
        <ele>6</ele>
        <time>2021-09-25T12:56:11Z</time>
      </trkpt>
      <trkpt lat="46.49036" lon="-1.79352">
        <ele>6</ele>
        <time>2021-09-25T12:56:12Z</time>
      </trkpt>
      <trkpt lat="46.49035" lon="-1.79351">
        <ele>6</ele>
        <time>2021-09-25T12:56:13Z</time>
      </trkpt>
      <trkpt lat="46.49034" lon="-1.79351">
        <ele>6</ele>
        <time>2021-09-25T12:56:14Z</time>
      </trkpt>
      <trkpt lat="46.49033" lon="-1.7935">
        <ele>5.9</ele>
        <time>2021-09-25T12:56:15Z</time>
      </trkpt>
      <trkpt lat="46.49032" lon="-1.7935">
        <ele>5.9</ele>
        <time>2021-09-25T12:56:16Z</time>
      </trkpt>
      <trkpt lat="46.49031" lon="-1.7935">
        <ele>5.9</ele>
        <time>2021-09-25T12:56:17Z</time>
      </trkpt>
      <trkpt lat="46.4903" lon="-1.79349">
        <ele>5.9</ele>
        <time>2021-09-25T12:56:18Z</time>
      </trkpt>
      <trkpt lat="46.49029" lon="-1.79349">
        <ele>5.9</ele>
        <time>2021-09-25T12:56:19Z</time>
      </trkpt>
      <trkpt lat="46.49028" lon="-1.79349">
        <ele>5.9</ele>
        <time>2021-09-25T12:56:20Z</time>
      </trkpt>
      <trkpt lat="46.49027" lon="-1.79348">
        <ele>5.9</ele>
        <time>2021-09-25T12:56:21Z</time>
      </trkpt>
      <trkpt lat="46.49026" lon="-1.79348">
        <ele>5.9</ele>
        <time>2021-09-25T12:56:22Z</time>
      </trkpt>
      <trkpt lat="46.49024" lon="-1.79348">
        <ele>5.9</ele>
        <time>2021-09-25T12:56:23Z</time>
      </trkpt>
      <trkpt lat="46.49023" lon="-1.79347">
        <ele>5.9</ele>
        <time>2021-09-25T12:56:24Z</time>
      </trkpt>
      <trkpt lat="46.49022" lon="-1.79347">
        <ele>5.9</ele>
        <time>2021-09-25T12:56:25Z</time>
      </trkpt>
      <trkpt lat="46.49021" lon="-1.79347">
        <ele>5.9</ele>
        <time>2021-09-25T12:56:26Z</time>
      </trkpt>
      <trkpt lat="46.4902" lon="-1.79346">
        <ele>5.9</ele>
        <time>2021-09-25T12:56:27Z</time>
      </trkpt>
      <trkpt lat="46.49019" lon="-1.79346">
        <ele>5.9</ele>
        <time>2021-09-25T12:56:28Z</time>
      </trkpt>
      <trkpt lat="46.49018" lon="-1.79346">
        <ele>5.9</ele>
        <time>2021-09-25T12:56:29Z</time>
      </trkpt>
      <trkpt lat="46.49017" lon="-1.79345">
        <ele>5.9</ele>
        <time>2021-09-25T12:56:30Z</time>
      </trkpt>
      <trkpt lat="46.49016" lon="-1.79345">
        <ele>5.9</ele>
        <time>2021-09-25T12:56:31Z</time>
      </trkpt>
      <trkpt lat="46.49015" lon="-1.79345">
        <ele>5.9</ele>
        <time>2021-09-25T12:56:32Z</time>
      </trkpt>
      <trkpt lat="46.49014" lon="-1.79344">
        <ele>5.9</ele>
        <time>2021-09-25T12:56:33Z</time>
      </trkpt>
      <trkpt lat="46.49012" lon="-1.79344">
        <ele>5.9</ele>
        <time>2021-09-25T12:56:34Z</time>
      </trkpt>
      <trkpt lat="46.49011" lon="-1.79344">
        <ele>5.9</ele>
        <time>2021-09-25T12:56:35Z</time>
      </trkpt>
      <trkpt lat="46.4901" lon="-1.79343">
        <ele>5.9</ele>
        <time>2021-09-25T12:56:36Z</time>
      </trkpt>
      <trkpt lat="46.49009" lon="-1.79343">
        <ele>5.9</ele>
        <time>2021-09-25T12:56:37Z</time>
      </trkpt>
      <trkpt lat="46.49008" lon="-1.79342">
        <ele>5.9</ele>
        <time>2021-09-25T12:56:38Z</time>
      </trkpt>
      <trkpt lat="46.49006" lon="-1.79342">
        <ele>5.9</ele>
        <time>2021-09-25T12:56:39Z</time>
      </trkpt>
      <trkpt lat="46.49005" lon="-1.79342">
        <ele>5.9</ele>
        <time>2021-09-25T12:56:40Z</time>
      </trkpt>
      <trkpt lat="46.49004" lon="-1.79341">
        <ele>5.9</ele>
        <time>2021-09-25T12:56:41Z</time>
      </trkpt>
      <trkpt lat="46.49003" lon="-1.79341">
        <ele>5.9</ele>
        <time>2021-09-25T12:56:42Z</time>
      </trkpt>
      <trkpt lat="46.49001" lon="-1.7934">
        <ele>5.9</ele>
        <time>2021-09-25T12:56:43Z</time>
      </trkpt>
      <trkpt lat="46.49" lon="-1.7934">
        <ele>5.9</ele>
        <time>2021-09-25T12:56:44Z</time>
      </trkpt>
      <trkpt lat="46.48999" lon="-1.7934">
        <ele>5.9</ele>
        <time>2021-09-25T12:56:45Z</time>
      </trkpt>
      <trkpt lat="46.48998" lon="-1.79339">
        <ele>5.9</ele>
        <time>2021-09-25T12:56:46Z</time>
      </trkpt>
      <trkpt lat="46.48996" lon="-1.79339">
        <ele>5.9</ele>
        <time>2021-09-25T12:56:47Z</time>
      </trkpt>
      <trkpt lat="46.48995" lon="-1.79338">
        <ele>6</ele>
        <time>2021-09-25T12:56:48Z</time>
      </trkpt>
      <trkpt lat="46.48994" lon="-1.79338">
        <ele>6</ele>
        <time>2021-09-25T12:56:49Z</time>
      </trkpt>
      <trkpt lat="46.48993" lon="-1.79338">
        <ele>6</ele>
        <time>2021-09-25T12:56:50Z</time>
      </trkpt>
      <trkpt lat="46.48992" lon="-1.79337">
        <ele>6</ele>
        <time>2021-09-25T12:56:51Z</time>
      </trkpt>
      <trkpt lat="46.4899" lon="-1.79337">
        <ele>6</ele>
        <time>2021-09-25T12:56:52Z</time>
      </trkpt>
      <trkpt lat="46.48989" lon="-1.79336">
        <ele>6</ele>
        <time>2021-09-25T12:56:53Z</time>
      </trkpt>
      <trkpt lat="46.48988" lon="-1.79336">
        <ele>6</ele>
        <time>2021-09-25T12:56:54Z</time>
      </trkpt>
      <trkpt lat="46.48987" lon="-1.79336">
        <ele>6</ele>
        <time>2021-09-25T12:56:55Z</time>
      </trkpt>
      <trkpt lat="46.48986" lon="-1.79335">
        <ele>6</ele>
        <time>2021-09-25T12:56:56Z</time>
      </trkpt>
      <trkpt lat="46.48985" lon="-1.79335">
        <ele>6</ele>
        <time>2021-09-25T12:56:57Z</time>
      </trkpt>
      <trkpt lat="46.48984" lon="-1.79335">
        <ele>6</ele>
        <time>2021-09-25T12:56:58Z</time>
      </trkpt>
      <trkpt lat="46.48983" lon="-1.79334">
        <ele>6</ele>
        <time>2021-09-25T12:56:59Z</time>
      </trkpt>
      <trkpt lat="46.48982" lon="-1.79334">
        <ele>6</ele>
        <time>2021-09-25T12:57:00Z</time>
      </trkpt>
      <trkpt lat="46.48981" lon="-1.79334">
        <ele>6</ele>
        <time>2021-09-25T12:57:01Z</time>
      </trkpt>
      <trkpt lat="46.4898" lon="-1.79333">
        <ele>6</ele>
        <time>2021-09-25T12:57:02Z</time>
      </trkpt>
      <trkpt lat="46.48978" lon="-1.79333">
        <ele>6</ele>
        <time>2021-09-25T12:57:03Z</time>
      </trkpt>
      <trkpt lat="46.48977" lon="-1.79333">
        <ele>6</ele>
        <time>2021-09-25T12:57:04Z</time>
      </trkpt>
      <trkpt lat="46.48976" lon="-1.79333">
        <ele>6</ele>
        <time>2021-09-25T12:57:05Z</time>
      </trkpt>
      <trkpt lat="46.48975" lon="-1.79332">
        <ele>6</ele>
        <time>2021-09-25T12:57:06Z</time>
      </trkpt>
      <trkpt lat="46.48974" lon="-1.79332">
        <ele>6</ele>
        <time>2021-09-25T12:57:07Z</time>
      </trkpt>
      <trkpt lat="46.48973" lon="-1.79332">
        <ele>6</ele>
        <time>2021-09-25T12:57:08Z</time>
      </trkpt>
      <trkpt lat="46.48972" lon="-1.79331">
        <ele>6</ele>
        <time>2021-09-25T12:57:09Z</time>
      </trkpt>
      <trkpt lat="46.48971" lon="-1.79331">
        <ele>6</ele>
        <time>2021-09-25T12:57:10Z</time>
      </trkpt>
      <trkpt lat="46.4897" lon="-1.79331">
        <ele>6</ele>
        <time>2021-09-25T12:57:11Z</time>
      </trkpt>
      <trkpt lat="46.48969" lon="-1.79331">
        <ele>6</ele>
        <time>2021-09-25T12:57:12Z</time>
      </trkpt>
      <trkpt lat="46.48968" lon="-1.7933">
        <ele>6</ele>
        <time>2021-09-25T12:57:13Z</time>
      </trkpt>
      <trkpt lat="46.48967" lon="-1.7933">
        <ele>6</ele>
        <time>2021-09-25T12:57:14Z</time>
      </trkpt>
      <trkpt lat="46.48965" lon="-1.7933">
        <ele>6</ele>
        <time>2021-09-25T12:57:15Z</time>
      </trkpt>
      <trkpt lat="46.48964" lon="-1.79329">
        <ele>6</ele>
        <time>2021-09-25T12:57:16Z</time>
      </trkpt>
      <trkpt lat="46.48963" lon="-1.79329">
        <ele>6</ele>
        <time>2021-09-25T12:57:17Z</time>
      </trkpt>
      <trkpt lat="46.48962" lon="-1.79329">
        <ele>6</ele>
        <time>2021-09-25T12:57:18Z</time>
      </trkpt>
      <trkpt lat="46.48961" lon="-1.79328">
        <ele>6</ele>
        <time>2021-09-25T12:57:19Z</time>
      </trkpt>
      <trkpt lat="46.48959" lon="-1.79328">
        <ele>6</ele>
        <time>2021-09-25T12:57:20Z</time>
      </trkpt>
      <trkpt lat="46.48958" lon="-1.79328">
        <ele>6</ele>
        <time>2021-09-25T12:57:21Z</time>
      </trkpt>
      <trkpt lat="46.48957" lon="-1.79327">
        <ele>6</ele>
        <time>2021-09-25T12:57:22Z</time>
      </trkpt>
      <trkpt lat="46.48956" lon="-1.79327">
        <ele>6</ele>
        <time>2021-09-25T12:57:23Z</time>
      </trkpt>
      <trkpt lat="46.48955" lon="-1.79327">
        <ele>6</ele>
        <time>2021-09-25T12:57:24Z</time>
      </trkpt>
      <trkpt lat="46.48953" lon="-1.79326">
        <ele>6</ele>
        <time>2021-09-25T12:57:25Z</time>
      </trkpt>
      <trkpt lat="46.48952" lon="-1.79326">
        <ele>6</ele>
        <time>2021-09-25T12:57:26Z</time>
      </trkpt>
      <trkpt lat="46.48951" lon="-1.79326">
        <ele>6</ele>
        <time>2021-09-25T12:57:27Z</time>
      </trkpt>
      <trkpt lat="46.4895" lon="-1.79325">
        <ele>6</ele>
        <time>2021-09-25T12:57:28Z</time>
      </trkpt>
      <trkpt lat="46.48949" lon="-1.79325">
        <ele>6</ele>
        <time>2021-09-25T12:57:29Z</time>
      </trkpt>
      <trkpt lat="46.48947" lon="-1.79324">
        <ele>6</ele>
        <time>2021-09-25T12:57:30Z</time>
      </trkpt>
      <trkpt lat="46.48946" lon="-1.79324">
        <ele>6</ele>
        <time>2021-09-25T12:57:31Z</time>
      </trkpt>
      <trkpt lat="46.48945" lon="-1.79323">
        <ele>6</ele>
        <time>2021-09-25T12:57:32Z</time>
      </trkpt>
      <trkpt lat="46.48944" lon="-1.79323">
        <ele>6</ele>
        <time>2021-09-25T12:57:33Z</time>
      </trkpt>
      <trkpt lat="46.48943" lon="-1.79322">
        <ele>5.9</ele>
        <time>2021-09-25T12:57:34Z</time>
      </trkpt>
      <trkpt lat="46.48941" lon="-1.79322">
        <ele>5.9</ele>
        <time>2021-09-25T12:57:35Z</time>
      </trkpt>
      <trkpt lat="46.4894" lon="-1.79321">
        <ele>5.9</ele>
        <time>2021-09-25T12:57:36Z</time>
      </trkpt>
      <trkpt lat="46.48939" lon="-1.79321">
        <ele>5.9</ele>
        <time>2021-09-25T12:57:37Z</time>
      </trkpt>
      <trkpt lat="46.48938" lon="-1.7932">
        <ele>5.9</ele>
        <time>2021-09-25T12:57:38Z</time>
      </trkpt>
      <trkpt lat="46.48937" lon="-1.7932">
        <ele>5.9</ele>
        <time>2021-09-25T12:57:39Z</time>
      </trkpt>
      <trkpt lat="46.48936" lon="-1.79319">
        <ele>5.9</ele>
        <time>2021-09-25T12:57:40Z</time>
      </trkpt>
      <trkpt lat="46.48935" lon="-1.79319">
        <ele>5.9</ele>
        <time>2021-09-25T12:57:41Z</time>
      </trkpt>
      <trkpt lat="46.48933" lon="-1.79319">
        <ele>5.9</ele>
        <time>2021-09-25T12:57:42Z</time>
      </trkpt>
      <trkpt lat="46.48932" lon="-1.79318">
        <ele>5.9</ele>
        <time>2021-09-25T12:57:43Z</time>
      </trkpt>
      <trkpt lat="46.48931" lon="-1.79318">
        <ele>5.9</ele>
        <time>2021-09-25T12:57:44Z</time>
      </trkpt>
      <trkpt lat="46.4893" lon="-1.79317">
        <ele>5.9</ele>
        <time>2021-09-25T12:57:45Z</time>
      </trkpt>
      <trkpt lat="46.48929" lon="-1.79317">
        <ele>5.9</ele>
        <time>2021-09-25T12:57:46Z</time>
      </trkpt>
      <trkpt lat="46.48928" lon="-1.79316">
        <ele>5.9</ele>
        <time>2021-09-25T12:57:47Z</time>
      </trkpt>
      <trkpt lat="46.48927" lon="-1.79316">
        <ele>5.9</ele>
        <time>2021-09-25T12:57:48Z</time>
      </trkpt>
      <trkpt lat="46.48926" lon="-1.79316">
        <ele>5.9</ele>
        <time>2021-09-25T12:57:49Z</time>
      </trkpt>
      <trkpt lat="46.48924" lon="-1.79315">
        <ele>5.9</ele>
        <time>2021-09-25T12:57:50Z</time>
      </trkpt>
      <trkpt lat="46.48923" lon="-1.79315">
        <ele>5.9</ele>
        <time>2021-09-25T12:57:51Z</time>
      </trkpt>
      <trkpt lat="46.48922" lon="-1.79314">
        <ele>5.9</ele>
        <time>2021-09-25T12:57:52Z</time>
      </trkpt>
      <trkpt lat="46.48921" lon="-1.79314">
        <ele>5.9</ele>
        <time>2021-09-25T12:57:53Z</time>
      </trkpt>
      <trkpt lat="46.4892" lon="-1.79314">
        <ele>5.9</ele>
        <time>2021-09-25T12:57:54Z</time>
      </trkpt>
      <trkpt lat="46.48919" lon="-1.79313">
        <ele>5.9</ele>
        <time>2021-09-25T12:57:55Z</time>
      </trkpt>
      <trkpt lat="46.48918" lon="-1.79313">
        <ele>5.9</ele>
        <time>2021-09-25T12:57:56Z</time>
      </trkpt>
      <trkpt lat="46.48916" lon="-1.79312">
        <ele>5.9</ele>
        <time>2021-09-25T12:57:57Z</time>
      </trkpt>
      <trkpt lat="46.48915" lon="-1.79312">
        <ele>5.9</ele>
        <time>2021-09-25T12:57:58Z</time>
      </trkpt>
      <trkpt lat="46.48914" lon="-1.79312">
        <ele>5.9</ele>
        <time>2021-09-25T12:57:59Z</time>
      </trkpt>
      <trkpt lat="46.48913" lon="-1.79311">
        <ele>5.9</ele>
        <time>2021-09-25T12:58:00Z</time>
      </trkpt>
      <trkpt lat="46.48912" lon="-1.79311">
        <ele>5.9</ele>
        <time>2021-09-25T12:58:01Z</time>
      </trkpt>
      <trkpt lat="46.4891" lon="-1.7931">
        <ele>5.9</ele>
        <time>2021-09-25T12:58:02Z</time>
      </trkpt>
      <trkpt lat="46.48909" lon="-1.7931">
        <ele>5.9</ele>
        <time>2021-09-25T12:58:03Z</time>
      </trkpt>
      <trkpt lat="46.48908" lon="-1.7931">
        <ele>5.9</ele>
        <time>2021-09-25T12:58:04Z</time>
      </trkpt>
      <trkpt lat="46.48907" lon="-1.79309">
        <ele>5.9</ele>
        <time>2021-09-25T12:58:05Z</time>
      </trkpt>
      <trkpt lat="46.48906" lon="-1.79309">
        <ele>5.9</ele>
        <time>2021-09-25T12:58:06Z</time>
      </trkpt>
      <trkpt lat="46.48904" lon="-1.79308">
        <ele>5.9</ele>
        <time>2021-09-25T12:58:07Z</time>
      </trkpt>
      <trkpt lat="46.48903" lon="-1.79308">
        <ele>5.9</ele>
        <time>2021-09-25T12:58:08Z</time>
      </trkpt>
      <trkpt lat="46.48902" lon="-1.79307">
        <ele>5.9</ele>
        <time>2021-09-25T12:58:09Z</time>
      </trkpt>
      <trkpt lat="46.489" lon="-1.79307">
        <ele>5.9</ele>
        <time>2021-09-25T12:58:10Z</time>
      </trkpt>
      <trkpt lat="46.48899" lon="-1.79307">
        <ele>5.9</ele>
        <time>2021-09-25T12:58:11Z</time>
      </trkpt>
      <trkpt lat="46.48898" lon="-1.79306">
        <ele>5.9</ele>
        <time>2021-09-25T12:58:12Z</time>
      </trkpt>
      <trkpt lat="46.48897" lon="-1.79306">
        <ele>5.9</ele>
        <time>2021-09-25T12:58:13Z</time>
      </trkpt>
      <trkpt lat="46.48895" lon="-1.79305">
        <ele>5.9</ele>
        <time>2021-09-25T12:58:14Z</time>
      </trkpt>
      <trkpt lat="46.48894" lon="-1.79305">
        <ele>5.9</ele>
        <time>2021-09-25T12:58:15Z</time>
      </trkpt>
      <trkpt lat="46.48893" lon="-1.79304">
        <ele>5.9</ele>
        <time>2021-09-25T12:58:16Z</time>
      </trkpt>
      <trkpt lat="46.48891" lon="-1.79304">
        <ele>5.9</ele>
        <time>2021-09-25T12:58:17Z</time>
      </trkpt>
      <trkpt lat="46.4889" lon="-1.79303">
        <ele>5.9</ele>
        <time>2021-09-25T12:58:18Z</time>
      </trkpt>
      <trkpt lat="46.48889" lon="-1.79303">
        <ele>5.9</ele>
        <time>2021-09-25T12:58:19Z</time>
      </trkpt>
      <trkpt lat="46.48888" lon="-1.79303">
        <ele>5.8</ele>
        <time>2021-09-25T12:58:20Z</time>
      </trkpt>
      <trkpt lat="46.48887" lon="-1.79302">
        <ele>5.8</ele>
        <time>2021-09-25T12:58:21Z</time>
      </trkpt>
      <trkpt lat="46.48885" lon="-1.79302">
        <ele>5.8</ele>
        <time>2021-09-25T12:58:22Z</time>
      </trkpt>
      <trkpt lat="46.48884" lon="-1.79301">
        <ele>5.8</ele>
        <time>2021-09-25T12:58:23Z</time>
      </trkpt>
      <trkpt lat="46.48883" lon="-1.79301">
        <ele>5.8</ele>
        <time>2021-09-25T12:58:24Z</time>
      </trkpt>
      <trkpt lat="46.48882" lon="-1.793">
        <ele>5.8</ele>
        <time>2021-09-25T12:58:25Z</time>
      </trkpt>
      <trkpt lat="46.48881" lon="-1.793">
        <ele>5.8</ele>
        <time>2021-09-25T12:58:26Z</time>
      </trkpt>
      <trkpt lat="46.4888" lon="-1.79299">
        <ele>5.8</ele>
        <time>2021-09-25T12:58:27Z</time>
      </trkpt>
      <trkpt lat="46.48879" lon="-1.79299">
        <ele>5.8</ele>
        <time>2021-09-25T12:58:28Z</time>
      </trkpt>
      <trkpt lat="46.48878" lon="-1.79299">
        <ele>5.8</ele>
        <time>2021-09-25T12:58:29Z</time>
      </trkpt>
      <trkpt lat="46.48877" lon="-1.79298">
        <ele>5.8</ele>
        <time>2021-09-25T12:58:30Z</time>
      </trkpt>
      <trkpt lat="46.48876" lon="-1.79298">
        <ele>5.8</ele>
        <time>2021-09-25T12:58:31Z</time>
      </trkpt>
      <trkpt lat="46.48875" lon="-1.79297">
        <ele>5.8</ele>
        <time>2021-09-25T12:58:32Z</time>
      </trkpt>
      <trkpt lat="46.48874" lon="-1.79297">
        <ele>5.8</ele>
        <time>2021-09-25T12:58:33Z</time>
      </trkpt>
      <trkpt lat="46.48873" lon="-1.79296">
        <ele>5.8</ele>
        <time>2021-09-25T12:58:34Z</time>
      </trkpt>
      <trkpt lat="46.48872" lon="-1.79296">
        <ele>5.8</ele>
        <time>2021-09-25T12:58:35Z</time>
      </trkpt>
      <trkpt lat="46.48871" lon="-1.79296">
        <ele>5.8</ele>
        <time>2021-09-25T12:58:36Z</time>
      </trkpt>
      <trkpt lat="46.4887" lon="-1.79295">
        <ele>5.8</ele>
        <time>2021-09-25T12:58:37Z</time>
      </trkpt>
      <trkpt lat="46.48869" lon="-1.79295">
        <ele>5.9</ele>
        <time>2021-09-25T12:58:38Z</time>
      </trkpt>
      <trkpt lat="46.48867" lon="-1.79295">
        <ele>5.9</ele>
        <time>2021-09-25T12:58:39Z</time>
      </trkpt>
      <trkpt lat="46.48866" lon="-1.79294">
        <ele>5.9</ele>
        <time>2021-09-25T12:58:40Z</time>
      </trkpt>
      <trkpt lat="46.48865" lon="-1.79294">
        <ele>5.9</ele>
        <time>2021-09-25T12:58:41Z</time>
      </trkpt>
      <trkpt lat="46.48864" lon="-1.79293">
        <ele>5.9</ele>
        <time>2021-09-25T12:58:42Z</time>
      </trkpt>
      <trkpt lat="46.48863" lon="-1.79293">
        <ele>5.9</ele>
        <time>2021-09-25T12:58:43Z</time>
      </trkpt>
      <trkpt lat="46.48862" lon="-1.79293">
        <ele>5.9</ele>
        <time>2021-09-25T12:58:44Z</time>
      </trkpt>
      <trkpt lat="46.48861" lon="-1.79292">
        <ele>5.9</ele>
        <time>2021-09-25T12:58:45Z</time>
      </trkpt>
      <trkpt lat="46.4886" lon="-1.79292">
        <ele>5.9</ele>
        <time>2021-09-25T12:58:46Z</time>
      </trkpt>
      <trkpt lat="46.48859" lon="-1.79292">
        <ele>5.9</ele>
        <time>2021-09-25T12:58:47Z</time>
      </trkpt>
      <trkpt lat="46.48859" lon="-1.79291">
        <ele>5.9</ele>
        <time>2021-09-25T12:58:48Z</time>
      </trkpt>
      <trkpt lat="46.48858" lon="-1.79291">
        <ele>5.9</ele>
        <time>2021-09-25T12:58:49Z</time>
      </trkpt>
      <trkpt lat="46.48857" lon="-1.79291">
        <ele>5.9</ele>
        <time>2021-09-25T12:58:50Z</time>
      </trkpt>
      <trkpt lat="46.48856" lon="-1.7929">
        <ele>5.9</ele>
        <time>2021-09-25T12:58:51Z</time>
      </trkpt>
      <trkpt lat="46.48855" lon="-1.7929">
        <ele>5.9</ele>
        <time>2021-09-25T12:58:52Z</time>
      </trkpt>
      <trkpt lat="46.48854" lon="-1.79289">
        <ele>5.9</ele>
        <time>2021-09-25T12:58:53Z</time>
      </trkpt>
      <trkpt lat="46.48853" lon="-1.79289">
        <ele>5.9</ele>
        <time>2021-09-25T12:58:54Z</time>
      </trkpt>
      <trkpt lat="46.48852" lon="-1.79289">
        <ele>5.9</ele>
        <time>2021-09-25T12:58:55Z</time>
      </trkpt>
      <trkpt lat="46.48851" lon="-1.79288">
        <ele>5.9</ele>
        <time>2021-09-25T12:58:56Z</time>
      </trkpt>
      <trkpt lat="46.4885" lon="-1.79288">
        <ele>5.9</ele>
        <time>2021-09-25T12:58:57Z</time>
      </trkpt>
      <trkpt lat="46.48849" lon="-1.79288">
        <ele>5.9</ele>
        <time>2021-09-25T12:58:58Z</time>
      </trkpt>
      <trkpt lat="46.48848" lon="-1.79287">
        <ele>5.9</ele>
        <time>2021-09-25T12:58:59Z</time>
      </trkpt>
      <trkpt lat="46.48846" lon="-1.79287">
        <ele>5.9</ele>
        <time>2021-09-25T12:59:00Z</time>
      </trkpt>
      <trkpt lat="46.48845" lon="-1.79286">
        <ele>5.9</ele>
        <time>2021-09-25T12:59:01Z</time>
      </trkpt>
      <trkpt lat="46.48844" lon="-1.79286">
        <ele>5.9</ele>
        <time>2021-09-25T12:59:02Z</time>
      </trkpt>
      <trkpt lat="46.48843" lon="-1.79286">
        <ele>5.9</ele>
        <time>2021-09-25T12:59:03Z</time>
      </trkpt>
      <trkpt lat="46.48842" lon="-1.79285">
        <ele>5.9</ele>
        <time>2021-09-25T12:59:04Z</time>
      </trkpt>
      <trkpt lat="46.4884" lon="-1.79285">
        <ele>5.9</ele>
        <time>2021-09-25T12:59:05Z</time>
      </trkpt>
      <trkpt lat="46.48839" lon="-1.79284">
        <ele>5.9</ele>
        <time>2021-09-25T12:59:06Z</time>
      </trkpt>
      <trkpt lat="46.48838" lon="-1.79284">
        <ele>5.9</ele>
        <time>2021-09-25T12:59:07Z</time>
      </trkpt>
      <trkpt lat="46.48837" lon="-1.79283">
        <ele>5.9</ele>
        <time>2021-09-25T12:59:08Z</time>
      </trkpt>
      <trkpt lat="46.48836" lon="-1.79283">
        <ele>5.9</ele>
        <time>2021-09-25T12:59:09Z</time>
      </trkpt>
      <trkpt lat="46.48834" lon="-1.79282">
        <ele>5.9</ele>
        <time>2021-09-25T12:59:10Z</time>
      </trkpt>
      <trkpt lat="46.48833" lon="-1.79282">
        <ele>6</ele>
        <time>2021-09-25T12:59:11Z</time>
      </trkpt>
      <trkpt lat="46.48832" lon="-1.79281">
        <ele>6</ele>
        <time>2021-09-25T12:59:12Z</time>
      </trkpt>
      <trkpt lat="46.48831" lon="-1.79281">
        <ele>6</ele>
        <time>2021-09-25T12:59:13Z</time>
      </trkpt>
      <trkpt lat="46.4883" lon="-1.79281">
        <ele>6</ele>
        <time>2021-09-25T12:59:14Z</time>
      </trkpt>
      <trkpt lat="46.48828" lon="-1.7928">
        <ele>6</ele>
        <time>2021-09-25T12:59:15Z</time>
      </trkpt>
      <trkpt lat="46.48827" lon="-1.7928">
        <ele>6</ele>
        <time>2021-09-25T12:59:16Z</time>
      </trkpt>
      <trkpt lat="46.48826" lon="-1.7928">
        <ele>6</ele>
        <time>2021-09-25T12:59:17Z</time>
      </trkpt>
      <trkpt lat="46.48825" lon="-1.7928">
        <ele>6</ele>
        <time>2021-09-25T12:59:18Z</time>
      </trkpt>
      <trkpt lat="46.48824" lon="-1.79279">
        <ele>6</ele>
        <time>2021-09-25T12:59:19Z</time>
      </trkpt>
      <trkpt lat="46.48823" lon="-1.79279">
        <ele>6.1</ele>
        <time>2021-09-25T12:59:20Z</time>
      </trkpt>
      <trkpt lat="46.48821" lon="-1.79279">
        <ele>6.1</ele>
        <time>2021-09-25T12:59:21Z</time>
      </trkpt>
      <trkpt lat="46.4882" lon="-1.79279">
        <ele>6.1</ele>
        <time>2021-09-25T12:59:22Z</time>
      </trkpt>
      <trkpt lat="46.48819" lon="-1.79278">
        <ele>6.2</ele>
        <time>2021-09-25T12:59:23Z</time>
      </trkpt>
      <trkpt lat="46.48818" lon="-1.79278">
        <ele>6.2</ele>
        <time>2021-09-25T12:59:24Z</time>
      </trkpt>
      <trkpt lat="46.48817" lon="-1.79277">
        <ele>6.2</ele>
        <time>2021-09-25T12:59:25Z</time>
      </trkpt>
      <trkpt lat="46.48817" lon="-1.79277">
        <ele>6.3</ele>
        <time>2021-09-25T12:59:26Z</time>
      </trkpt>
      <trkpt lat="46.48816" lon="-1.79277">
        <ele>6.3</ele>
        <time>2021-09-25T12:59:27Z</time>
      </trkpt>
      <trkpt lat="46.48815" lon="-1.79276">
        <ele>6.3</ele>
        <time>2021-09-25T12:59:28Z</time>
      </trkpt>
      <trkpt lat="46.48814" lon="-1.79276">
        <ele>6.4</ele>
        <time>2021-09-25T12:59:29Z</time>
      </trkpt>
      <trkpt lat="46.48813" lon="-1.79275">
        <ele>6.4</ele>
        <time>2021-09-25T12:59:30Z</time>
      </trkpt>
      <trkpt lat="46.48812" lon="-1.79275">
        <ele>6.5</ele>
        <time>2021-09-25T12:59:31Z</time>
      </trkpt>
      <trkpt lat="46.48812" lon="-1.79275">
        <ele>6.5</ele>
        <time>2021-09-25T12:59:32Z</time>
      </trkpt>
      <trkpt lat="46.48811" lon="-1.79274">
        <ele>6.5</ele>
        <time>2021-09-25T12:59:33Z</time>
      </trkpt>
      <trkpt lat="46.4881" lon="-1.79274">
        <ele>6.6</ele>
        <time>2021-09-25T12:59:34Z</time>
      </trkpt>
      <trkpt lat="46.4881" lon="-1.79274">
        <ele>6.6</ele>
        <time>2021-09-25T12:59:35Z</time>
      </trkpt>
      <trkpt lat="46.48809" lon="-1.79273">
        <ele>6.6</ele>
        <time>2021-09-25T12:59:36Z</time>
      </trkpt>
      <trkpt lat="46.48808" lon="-1.79273">
        <ele>6.7</ele>
        <time>2021-09-25T12:59:37Z</time>
      </trkpt>
      <trkpt lat="46.48808" lon="-1.79272">
        <ele>6.7</ele>
        <time>2021-09-25T12:59:38Z</time>
      </trkpt>
      <trkpt lat="46.48807" lon="-1.79271">
        <ele>6.7</ele>
        <time>2021-09-25T12:59:39Z</time>
      </trkpt>
      <trkpt lat="46.48806" lon="-1.79271">
        <ele>6.7</ele>
        <time>2021-09-25T12:59:40Z</time>
      </trkpt>
      <trkpt lat="46.48806" lon="-1.7927">
        <ele>6.7</ele>
        <time>2021-09-25T12:59:41Z</time>
      </trkpt>
      <trkpt lat="46.48805" lon="-1.79269">
        <ele>6.7</ele>
        <time>2021-09-25T12:59:42Z</time>
      </trkpt>
      <trkpt lat="46.48804" lon="-1.79268">
        <ele>6.7</ele>
        <time>2021-09-25T12:59:43Z</time>
      </trkpt>
      <trkpt lat="46.48803" lon="-1.79267">
        <ele>6.6</ele>
        <time>2021-09-25T12:59:44Z</time>
      </trkpt>
      <trkpt lat="46.48803" lon="-1.79266">
        <ele>6.6</ele>
        <time>2021-09-25T12:59:45Z</time>
      </trkpt>
      <trkpt lat="46.48802" lon="-1.79265">
        <ele>6.6</ele>
        <time>2021-09-25T12:59:46Z</time>
      </trkpt>
      <trkpt lat="46.48801" lon="-1.79265">
        <ele>6.5</ele>
        <time>2021-09-25T12:59:47Z</time>
      </trkpt>
      <trkpt lat="46.488" lon="-1.79264">
        <ele>6.5</ele>
        <time>2021-09-25T12:59:48Z</time>
      </trkpt>
      <trkpt lat="46.488" lon="-1.79263">
        <ele>6.5</ele>
        <time>2021-09-25T12:59:49Z</time>
      </trkpt>
      <trkpt lat="46.48799" lon="-1.79262">
        <ele>6.4</ele>
        <time>2021-09-25T12:59:50Z</time>
      </trkpt>
      <trkpt lat="46.48798" lon="-1.79262">
        <ele>6.3</ele>
        <time>2021-09-25T12:59:51Z</time>
      </trkpt>
      <trkpt lat="46.48798" lon="-1.79261">
        <ele>6.3</ele>
        <time>2021-09-25T12:59:52Z</time>
      </trkpt>
      <trkpt lat="46.48797" lon="-1.79261">
        <ele>6.2</ele>
        <time>2021-09-25T12:59:53Z</time>
      </trkpt>
      <trkpt lat="46.48796" lon="-1.7926">
        <ele>6.1</ele>
        <time>2021-09-25T12:59:54Z</time>
      </trkpt>
      <trkpt lat="46.48795" lon="-1.7926">
        <ele>6.1</ele>
        <time>2021-09-25T12:59:55Z</time>
      </trkpt>
      <trkpt lat="46.48795" lon="-1.79259">
        <ele>6</ele>
        <time>2021-09-25T12:59:56Z</time>
      </trkpt>
      <trkpt lat="46.48794" lon="-1.79259">
        <ele>5.9</ele>
        <time>2021-09-25T12:59:57Z</time>
      </trkpt>
      <trkpt lat="46.48793" lon="-1.79258">
        <ele>5.8</ele>
        <time>2021-09-25T12:59:58Z</time>
      </trkpt>
      <trkpt lat="46.48793" lon="-1.79258">
        <ele>5.8</ele>
        <time>2021-09-25T12:59:59Z</time>
      </trkpt>
      <trkpt lat="46.48792" lon="-1.79257">
        <ele>5.7</ele>
        <time>2021-09-25T13:00:00Z</time>
      </trkpt>
      <trkpt lat="46.48791" lon="-1.79257">
        <ele>5.6</ele>
        <time>2021-09-25T13:00:01Z</time>
      </trkpt>
      <trkpt lat="46.48791" lon="-1.79256">
        <ele>5.5</ele>
        <time>2021-09-25T13:00:02Z</time>
      </trkpt>
      <trkpt lat="46.4879" lon="-1.79255">
        <ele>5.5</ele>
        <time>2021-09-25T13:00:03Z</time>
      </trkpt>
      <trkpt lat="46.48789" lon="-1.79255">
        <ele>5.4</ele>
        <time>2021-09-25T13:00:04Z</time>
      </trkpt>
      <trkpt lat="46.48789" lon="-1.79254">
        <ele>5.3</ele>
        <time>2021-09-25T13:00:05Z</time>
      </trkpt>
      <trkpt lat="46.48788" lon="-1.79253">
        <ele>5.2</ele>
        <time>2021-09-25T13:00:06Z</time>
      </trkpt>
      <trkpt lat="46.48787" lon="-1.79253">
        <ele>5.1</ele>
        <time>2021-09-25T13:00:07Z</time>
      </trkpt>
      <trkpt lat="46.48786" lon="-1.79252">
        <ele>5.1</ele>
        <time>2021-09-25T13:00:08Z</time>
      </trkpt>
      <trkpt lat="46.48786" lon="-1.79251">
        <ele>5</ele>
        <time>2021-09-25T13:00:09Z</time>
      </trkpt>
      <trkpt lat="46.48785" lon="-1.79251">
        <ele>4.9</ele>
        <time>2021-09-25T13:00:10Z</time>
      </trkpt>
      <trkpt lat="46.48784" lon="-1.7925">
        <ele>4.9</ele>
        <time>2021-09-25T13:00:11Z</time>
      </trkpt>
      <trkpt lat="46.48784" lon="-1.79249">
        <ele>4.8</ele>
        <time>2021-09-25T13:00:12Z</time>
      </trkpt>
      <trkpt lat="46.48783" lon="-1.79248">
        <ele>4.7</ele>
        <time>2021-09-25T13:00:13Z</time>
      </trkpt>
      <trkpt lat="46.48782" lon="-1.79247">
        <ele>4.7</ele>
        <time>2021-09-25T13:00:14Z</time>
      </trkpt>
      <trkpt lat="46.48781" lon="-1.79247">
        <ele>4.6</ele>
        <time>2021-09-25T13:00:15Z</time>
      </trkpt>
      <trkpt lat="46.48781" lon="-1.79246">
        <ele>4.6</ele>
        <time>2021-09-25T13:00:16Z</time>
      </trkpt>
      <trkpt lat="46.4878" lon="-1.79245">
        <ele>4.5</ele>
        <time>2021-09-25T13:00:17Z</time>
      </trkpt>
      <trkpt lat="46.48779" lon="-1.79244">
        <ele>4.5</ele>
        <time>2021-09-25T13:00:18Z</time>
      </trkpt>
      <trkpt lat="46.48779" lon="-1.79244">
        <ele>4.4</ele>
        <time>2021-09-25T13:00:19Z</time>
      </trkpt>
      <trkpt lat="46.48778" lon="-1.79243">
        <ele>4.4</ele>
        <time>2021-09-25T13:00:20Z</time>
      </trkpt>
      <trkpt lat="46.48777" lon="-1.79242">
        <ele>4.3</ele>
        <time>2021-09-25T13:00:21Z</time>
      </trkpt>
      <trkpt lat="46.48777" lon="-1.79242">
        <ele>4.3</ele>
        <time>2021-09-25T13:00:22Z</time>
      </trkpt>
      <trkpt lat="46.48776" lon="-1.79241">
        <ele>4.3</ele>
        <time>2021-09-25T13:00:23Z</time>
      </trkpt>
      <trkpt lat="46.48776" lon="-1.7924">
        <ele>4.2</ele>
        <time>2021-09-25T13:00:24Z</time>
      </trkpt>
      <trkpt lat="46.48775" lon="-1.7924">
        <ele>4.2</ele>
        <time>2021-09-25T13:00:25Z</time>
      </trkpt>
      <trkpt lat="46.48774" lon="-1.79239">
        <ele>4.1</ele>
        <time>2021-09-25T13:00:26Z</time>
      </trkpt>
      <trkpt lat="46.48774" lon="-1.79238">
        <ele>4.1</ele>
        <time>2021-09-25T13:00:27Z</time>
      </trkpt>
      <trkpt lat="46.48773" lon="-1.79238">
        <ele>4.1</ele>
        <time>2021-09-25T13:00:28Z</time>
      </trkpt>
      <trkpt lat="46.48772" lon="-1.79237">
        <ele>4</ele>
        <time>2021-09-25T13:00:29Z</time>
      </trkpt>
      <trkpt lat="46.48772" lon="-1.79237">
        <ele>4</ele>
        <time>2021-09-25T13:00:30Z</time>
      </trkpt>
      <trkpt lat="46.48771" lon="-1.79236">
        <ele>3.9</ele>
        <time>2021-09-25T13:00:31Z</time>
      </trkpt>
      <trkpt lat="46.48771" lon="-1.79236">
        <ele>3.9</ele>
        <time>2021-09-25T13:00:32Z</time>
      </trkpt>
      <trkpt lat="46.4877" lon="-1.79235">
        <ele>3.9</ele>
        <time>2021-09-25T13:00:33Z</time>
      </trkpt>
      <trkpt lat="46.48769" lon="-1.79234">
        <ele>3.8</ele>
        <time>2021-09-25T13:00:34Z</time>
      </trkpt>
      <trkpt lat="46.48769" lon="-1.79234">
        <ele>3.8</ele>
        <time>2021-09-25T13:00:35Z</time>
      </trkpt>
      <trkpt lat="46.48768" lon="-1.79233">
        <ele>3.8</ele>
        <time>2021-09-25T13:00:36Z</time>
      </trkpt>
      <trkpt lat="46.48767" lon="-1.79233">
        <ele>3.7</ele>
        <time>2021-09-25T13:00:37Z</time>
      </trkpt>
      <trkpt lat="46.48766" lon="-1.79232">
        <ele>3.7</ele>
        <time>2021-09-25T13:00:38Z</time>
      </trkpt>
      <trkpt lat="46.48766" lon="-1.79232">
        <ele>3.7</ele>
        <time>2021-09-25T13:00:39Z</time>
      </trkpt>
      <trkpt lat="46.48765" lon="-1.79231">
        <ele>3.6</ele>
        <time>2021-09-25T13:00:40Z</time>
      </trkpt>
      <trkpt lat="46.48764" lon="-1.79231">
        <ele>3.6</ele>
        <time>2021-09-25T13:00:41Z</time>
      </trkpt>
      <trkpt lat="46.48764" lon="-1.7923">
        <ele>3.6</ele>
        <time>2021-09-25T13:00:42Z</time>
      </trkpt>
      <trkpt lat="46.48763" lon="-1.79229">
        <ele>3.6</ele>
        <time>2021-09-25T13:00:43Z</time>
      </trkpt>
      <trkpt lat="46.48762" lon="-1.79229">
        <ele>3.5</ele>
        <time>2021-09-25T13:00:44Z</time>
      </trkpt>
      <trkpt lat="46.48762" lon="-1.79228">
        <ele>3.5</ele>
        <time>2021-09-25T13:00:45Z</time>
      </trkpt>
      <trkpt lat="46.48761" lon="-1.79228">
        <ele>3.5</ele>
        <time>2021-09-25T13:00:46Z</time>
      </trkpt>
      <trkpt lat="46.48761" lon="-1.79227">
        <ele>3.5</ele>
        <time>2021-09-25T13:00:47Z</time>
      </trkpt>
      <trkpt lat="46.4876" lon="-1.79227">
        <ele>3.5</ele>
        <time>2021-09-25T13:00:48Z</time>
      </trkpt>
      <trkpt lat="46.4876" lon="-1.79226">
        <ele>3.5</ele>
        <time>2021-09-25T13:00:49Z</time>
      </trkpt>
      <trkpt lat="46.48759" lon="-1.79226">
        <ele>3.5</ele>
        <time>2021-09-25T13:00:50Z</time>
      </trkpt>
      <trkpt lat="46.48759" lon="-1.79225">
        <ele>3.4</ele>
        <time>2021-09-25T13:00:51Z</time>
      </trkpt>
      <trkpt lat="46.48758" lon="-1.79225">
        <ele>3.4</ele>
        <time>2021-09-25T13:00:52Z</time>
      </trkpt>
      <trkpt lat="46.48758" lon="-1.79224">
        <ele>3.4</ele>
        <time>2021-09-25T13:00:53Z</time>
      </trkpt>
      <trkpt lat="46.48757" lon="-1.79223">
        <ele>3.4</ele>
        <time>2021-09-25T13:00:54Z</time>
      </trkpt>
      <trkpt lat="46.48757" lon="-1.79222">
        <ele>3.4</ele>
        <time>2021-09-25T13:00:55Z</time>
      </trkpt>
      <trkpt lat="46.48756" lon="-1.79222">
        <ele>3.4</ele>
        <time>2021-09-25T13:00:56Z</time>
      </trkpt>
      <trkpt lat="46.48755" lon="-1.79221">
        <ele>3.4</ele>
        <time>2021-09-25T13:00:57Z</time>
      </trkpt>
      <trkpt lat="46.48754" lon="-1.7922">
        <ele>3.4</ele>
        <time>2021-09-25T13:00:58Z</time>
      </trkpt>
      <trkpt lat="46.48753" lon="-1.79219">
        <ele>3.4</ele>
        <time>2021-09-25T13:00:59Z</time>
      </trkpt>
      <trkpt lat="46.48753" lon="-1.79218">
        <ele>3.3</ele>
        <time>2021-09-25T13:01:00Z</time>
      </trkpt>
      <trkpt lat="46.48752" lon="-1.79217">
        <ele>3.3</ele>
        <time>2021-09-25T13:01:01Z</time>
      </trkpt>
      <trkpt lat="46.48751" lon="-1.79216">
        <ele>3.3</ele>
        <time>2021-09-25T13:01:02Z</time>
      </trkpt>
      <trkpt lat="46.4875" lon="-1.79215">
        <ele>3.3</ele>
        <time>2021-09-25T13:01:03Z</time>
      </trkpt>
      <trkpt lat="46.48749" lon="-1.79214">
        <ele>3.3</ele>
        <time>2021-09-25T13:01:04Z</time>
      </trkpt>
      <trkpt lat="46.48748" lon="-1.79214">
        <ele>3.3</ele>
        <time>2021-09-25T13:01:05Z</time>
      </trkpt>
      <trkpt lat="46.48748" lon="-1.79213">
        <ele>3.3</ele>
        <time>2021-09-25T13:01:06Z</time>
      </trkpt>
      <trkpt lat="46.48747" lon="-1.79212">
        <ele>3.3</ele>
        <time>2021-09-25T13:01:07Z</time>
      </trkpt>
      <trkpt lat="46.48746" lon="-1.79211">
        <ele>3.3</ele>
        <time>2021-09-25T13:01:08Z</time>
      </trkpt>
      <trkpt lat="46.48745" lon="-1.79211">
        <ele>3.3</ele>
        <time>2021-09-25T13:01:09Z</time>
      </trkpt>
      <trkpt lat="46.48744" lon="-1.7921">
        <ele>3.3</ele>
        <time>2021-09-25T13:01:10Z</time>
      </trkpt>
      <trkpt lat="46.48744" lon="-1.79209">
        <ele>3.3</ele>
        <time>2021-09-25T13:01:11Z</time>
      </trkpt>
      <trkpt lat="46.48743" lon="-1.79209">
        <ele>3.3</ele>
        <time>2021-09-25T13:01:12Z</time>
      </trkpt>
      <trkpt lat="46.48742" lon="-1.79208">
        <ele>3.3</ele>
        <time>2021-09-25T13:01:13Z</time>
      </trkpt>
      <trkpt lat="46.48741" lon="-1.79207">
        <ele>3.3</ele>
        <time>2021-09-25T13:01:14Z</time>
      </trkpt>
      <trkpt lat="46.4874" lon="-1.79206">
        <ele>3.3</ele>
        <time>2021-09-25T13:01:15Z</time>
      </trkpt>
      <trkpt lat="46.48739" lon="-1.79205">
        <ele>3.3</ele>
        <time>2021-09-25T13:01:16Z</time>
      </trkpt>
      <trkpt lat="46.48739" lon="-1.79205">
        <ele>3.2</ele>
        <time>2021-09-25T13:01:17Z</time>
      </trkpt>
      <trkpt lat="46.48738" lon="-1.79204">
        <ele>3.2</ele>
        <time>2021-09-25T13:01:18Z</time>
      </trkpt>
      <trkpt lat="46.48737" lon="-1.79203">
        <ele>3.2</ele>
        <time>2021-09-25T13:01:19Z</time>
      </trkpt>
      <trkpt lat="46.48736" lon="-1.79203">
        <ele>3.2</ele>
        <time>2021-09-25T13:01:20Z</time>
      </trkpt>
      <trkpt lat="46.48736" lon="-1.79202">
        <ele>3.2</ele>
        <time>2021-09-25T13:01:21Z</time>
      </trkpt>
      <trkpt lat="46.48735" lon="-1.79202">
        <ele>3.2</ele>
        <time>2021-09-25T13:01:22Z</time>
      </trkpt>
      <trkpt lat="46.48734" lon="-1.79201">
        <ele>3.2</ele>
        <time>2021-09-25T13:01:23Z</time>
      </trkpt>
      <trkpt lat="46.48734" lon="-1.79201">
        <ele>3.2</ele>
        <time>2021-09-25T13:01:24Z</time>
      </trkpt>
      <trkpt lat="46.48734" lon="-1.79201">
        <ele>3.2</ele>
        <time>2021-09-25T13:01:25Z</time>
      </trkpt>
      <trkpt lat="46.48733" lon="-1.79201">
        <ele>3.2</ele>
        <time>2021-09-25T13:01:26Z</time>
      </trkpt>
      <trkpt lat="46.48733" lon="-1.79201">
        <ele>3.2</ele>
        <time>2021-09-25T13:01:27Z</time>
      </trkpt>
      <trkpt lat="46.48733" lon="-1.79201">
        <ele>3.2</ele>
        <time>2021-09-25T13:01:28Z</time>
      </trkpt>
      <trkpt lat="46.48733" lon="-1.792">
        <ele>3.2</ele>
        <time>2021-09-25T13:01:29Z</time>
      </trkpt>
      <trkpt lat="46.48732" lon="-1.792">
        <ele>3.2</ele>
        <time>2021-09-25T13:01:30Z</time>
      </trkpt>
      <trkpt lat="46.48732" lon="-1.792">
        <ele>3.2</ele>
        <time>2021-09-25T13:01:31Z</time>
      </trkpt>
      <trkpt lat="46.48732" lon="-1.792">
        <ele>3.2</ele>
        <time>2021-09-25T13:01:32Z</time>
      </trkpt>
      <trkpt lat="46.48732" lon="-1.79199">
        <ele>3.2</ele>
        <time>2021-09-25T13:01:33Z</time>
      </trkpt>
      <trkpt lat="46.48732" lon="-1.79199">
        <ele>3.2</ele>
        <time>2021-09-25T13:01:34Z</time>
      </trkpt>
      <trkpt lat="46.48731" lon="-1.79199">
        <ele>3.2</ele>
        <time>2021-09-25T13:01:35Z</time>
      </trkpt>
      <trkpt lat="46.48731" lon="-1.79199">
        <ele>3.2</ele>
        <time>2021-09-25T13:01:36Z</time>
      </trkpt>
      <trkpt lat="46.48731" lon="-1.79199">
        <ele>3.2</ele>
        <time>2021-09-25T13:01:37Z</time>
      </trkpt>
      <trkpt lat="46.48731" lon="-1.79199">
        <ele>3.2</ele>
        <time>2021-09-25T13:01:38Z</time>
      </trkpt>
      <trkpt lat="46.48731" lon="-1.79199">
        <ele>3.2</ele>
        <time>2021-09-25T13:01:39Z</time>
      </trkpt>
      <trkpt lat="46.48731" lon="-1.79198">
        <ele>3.2</ele>
        <time>2021-09-25T13:01:40Z</time>
      </trkpt>
      <trkpt lat="46.48731" lon="-1.79198">
        <ele>3.2</ele>
        <time>2021-09-25T13:01:41Z</time>
      </trkpt>
      <trkpt lat="46.48731" lon="-1.79197">
        <ele>3.3</ele>
        <time>2021-09-25T13:01:42Z</time>
      </trkpt>
      <trkpt lat="46.4873" lon="-1.79197">
        <ele>3.3</ele>
        <time>2021-09-25T13:01:43Z</time>
      </trkpt>
      <trkpt lat="46.48729" lon="-1.79196">
        <ele>3.3</ele>
        <time>2021-09-25T13:01:44Z</time>
      </trkpt>
      <trkpt lat="46.48729" lon="-1.79195">
        <ele>3.3</ele>
        <time>2021-09-25T13:01:45Z</time>
      </trkpt>
      <trkpt lat="46.48728" lon="-1.79194">
        <ele>3.3</ele>
        <time>2021-09-25T13:01:46Z</time>
      </trkpt>
      <trkpt lat="46.48727" lon="-1.79193">
        <ele>3.3</ele>
        <time>2021-09-25T13:01:47Z</time>
      </trkpt>
      <trkpt lat="46.48727" lon="-1.79192">
        <ele>3.3</ele>
        <time>2021-09-25T13:01:48Z</time>
      </trkpt>
      <trkpt lat="46.48727" lon="-1.79192">
        <ele>3.3</ele>
        <time>2021-09-25T13:01:49Z</time>
      </trkpt>
      <trkpt lat="46.48727" lon="-1.79192">
        <ele>3.3</ele>
        <time>2021-09-25T13:01:50Z</time>
      </trkpt>
      <trkpt lat="46.48727" lon="-1.79192">
        <ele>3.3</ele>
        <time>2021-09-25T13:01:51Z</time>
      </trkpt>
      <trkpt lat="46.48727" lon="-1.79193">
        <ele>3.3</ele>
        <time>2021-09-25T13:01:52Z</time>
      </trkpt>
      <trkpt lat="46.48728" lon="-1.79193">
        <ele>3.3</ele>
        <time>2021-09-25T13:01:53Z</time>
      </trkpt>
      <trkpt lat="46.48728" lon="-1.79193">
        <ele>3.3</ele>
        <time>2021-09-25T13:01:54Z</time>
      </trkpt>
      <trkpt lat="46.48728" lon="-1.79193">
        <ele>3.3</ele>
        <time>2021-09-25T13:01:55Z</time>
      </trkpt>
      <trkpt lat="46.48728" lon="-1.79194">
        <ele>3.3</ele>
        <time>2021-09-25T13:01:56Z</time>
      </trkpt>
      <trkpt lat="46.48728" lon="-1.79194">
        <ele>3.3</ele>
        <time>2021-09-25T13:01:57Z</time>
      </trkpt>
      <trkpt lat="46.48729" lon="-1.79194">
        <ele>3.3</ele>
        <time>2021-09-25T13:01:58Z</time>
      </trkpt>
      <trkpt lat="46.48729" lon="-1.79194">
        <ele>3.3</ele>
        <time>2021-09-25T13:01:59Z</time>
      </trkpt>
      <trkpt lat="46.48729" lon="-1.79195">
        <ele>3.3</ele>
        <time>2021-09-25T13:02:00Z</time>
      </trkpt>
      <trkpt lat="46.48729" lon="-1.79195">
        <ele>3.3</ele>
        <time>2021-09-25T13:02:01Z</time>
      </trkpt>
      <trkpt lat="46.48729" lon="-1.79195">
        <ele>3.3</ele>
        <time>2021-09-25T13:02:02Z</time>
      </trkpt>
      <trkpt lat="46.4873" lon="-1.79195">
        <ele>3.3</ele>
        <time>2021-09-25T13:02:03Z</time>
      </trkpt>
      <trkpt lat="46.4873" lon="-1.79196">
        <ele>3.3</ele>
        <time>2021-09-25T13:02:04Z</time>
      </trkpt>
      <trkpt lat="46.4873" lon="-1.79196">
        <ele>3.3</ele>
        <time>2021-09-25T13:02:05Z</time>
      </trkpt>
      <trkpt lat="46.4873" lon="-1.79196">
        <ele>3.3</ele>
        <time>2021-09-25T13:02:06Z</time>
      </trkpt>
      <trkpt lat="46.48731" lon="-1.79196">
        <ele>3.3</ele>
        <time>2021-09-25T13:02:07Z</time>
      </trkpt>
      <trkpt lat="46.48731" lon="-1.79197">
        <ele>3.3</ele>
        <time>2021-09-25T13:02:08Z</time>
      </trkpt>
      <trkpt lat="46.48731" lon="-1.79197">
        <ele>3.3</ele>
        <time>2021-09-25T13:02:09Z</time>
      </trkpt>
      <trkpt lat="46.48731" lon="-1.79197">
        <ele>3.3</ele>
        <time>2021-09-25T13:02:10Z</time>
      </trkpt>
      <trkpt lat="46.48731" lon="-1.79197">
        <ele>3.3</ele>
        <time>2021-09-25T13:02:11Z</time>
      </trkpt>
      <trkpt lat="46.48732" lon="-1.79198">
        <ele>3.3</ele>
        <time>2021-09-25T13:02:12Z</time>
      </trkpt>
      <trkpt lat="46.48732" lon="-1.79198">
        <ele>3.3</ele>
        <time>2021-09-25T13:02:13Z</time>
      </trkpt>
      <trkpt lat="46.48732" lon="-1.79198">
        <ele>3.3</ele>
        <time>2021-09-25T13:02:14Z</time>
      </trkpt>
      <trkpt lat="46.48732" lon="-1.79198">
        <ele>3.3</ele>
        <time>2021-09-25T13:02:15Z</time>
      </trkpt>
      <trkpt lat="46.48733" lon="-1.79199">
        <ele>3.3</ele>
        <time>2021-09-25T13:02:16Z</time>
      </trkpt>
      <trkpt lat="46.48733" lon="-1.79199">
        <ele>3.3</ele>
        <time>2021-09-25T13:02:17Z</time>
      </trkpt>
      <trkpt lat="46.48733" lon="-1.79199">
        <ele>3.3</ele>
        <time>2021-09-25T13:02:18Z</time>
      </trkpt>
      <trkpt lat="46.48733" lon="-1.79199">
        <ele>3.3</ele>
        <time>2021-09-25T13:02:19Z</time>
      </trkpt>
      <trkpt lat="46.48733" lon="-1.792">
        <ele>3.3</ele>
        <time>2021-09-25T13:02:20Z</time>
      </trkpt>
      <trkpt lat="46.48734" lon="-1.792">
        <ele>3.3</ele>
        <time>2021-09-25T13:02:21Z</time>
      </trkpt>
      <trkpt lat="46.48734" lon="-1.792">
        <ele>3.3</ele>
        <time>2021-09-25T13:02:22Z</time>
      </trkpt>
      <trkpt lat="46.48734" lon="-1.792">
        <ele>3.3</ele>
        <time>2021-09-25T13:02:23Z</time>
      </trkpt>
      <trkpt lat="46.48734" lon="-1.79201">
        <ele>3.3</ele>
        <time>2021-09-25T13:02:24Z</time>
      </trkpt>
      <trkpt lat="46.48734" lon="-1.79201">
        <ele>3.3</ele>
        <time>2021-09-25T13:02:25Z</time>
      </trkpt>
      <trkpt lat="46.48735" lon="-1.79201">
        <ele>3.3</ele>
        <time>2021-09-25T13:02:26Z</time>
      </trkpt>
      <trkpt lat="46.48735" lon="-1.79201">
        <ele>3.3</ele>
        <time>2021-09-25T13:02:27Z</time>
      </trkpt>
      <trkpt lat="46.48735" lon="-1.79202">
        <ele>3.3</ele>
        <time>2021-09-25T13:02:28Z</time>
      </trkpt>
      <trkpt lat="46.48735" lon="-1.79202">
        <ele>3.3</ele>
        <time>2021-09-25T13:02:29Z</time>
      </trkpt>
      <trkpt lat="46.48736" lon="-1.79202">
        <ele>3.3</ele>
        <time>2021-09-25T13:02:30Z</time>
      </trkpt>
      <trkpt lat="46.48736" lon="-1.79202">
        <ele>3.3</ele>
        <time>2021-09-25T13:02:31Z</time>
      </trkpt>
      <trkpt lat="46.48736" lon="-1.79203">
        <ele>3.3</ele>
        <time>2021-09-25T13:02:32Z</time>
      </trkpt>
      <trkpt lat="46.48736" lon="-1.79203">
        <ele>3.3</ele>
        <time>2021-09-25T13:02:33Z</time>
      </trkpt>
      <trkpt lat="46.48736" lon="-1.79203">
        <ele>3.3</ele>
        <time>2021-09-25T13:02:34Z</time>
      </trkpt>
      <trkpt lat="46.48737" lon="-1.79203">
        <ele>3.3</ele>
        <time>2021-09-25T13:02:35Z</time>
      </trkpt>
      <trkpt lat="46.48737" lon="-1.79204">
        <ele>3.3</ele>
        <time>2021-09-25T13:02:36Z</time>
      </trkpt>
      <trkpt lat="46.48737" lon="-1.79204">
        <ele>3.3</ele>
        <time>2021-09-25T13:02:37Z</time>
      </trkpt>
      <trkpt lat="46.48737" lon="-1.79204">
        <ele>3.3</ele>
        <time>2021-09-25T13:02:38Z</time>
      </trkpt>
      <trkpt lat="46.48738" lon="-1.79204">
        <ele>3.3</ele>
        <time>2021-09-25T13:02:39Z</time>
      </trkpt>
      <trkpt lat="46.48738" lon="-1.79205">
        <ele>3.3</ele>
        <time>2021-09-25T13:02:40Z</time>
      </trkpt>
      <trkpt lat="46.48738" lon="-1.79205">
        <ele>3.3</ele>
        <time>2021-09-25T13:02:41Z</time>
      </trkpt>
      <trkpt lat="46.48738" lon="-1.79205">
        <ele>3.3</ele>
        <time>2021-09-25T13:02:42Z</time>
      </trkpt>
      <trkpt lat="46.48738" lon="-1.79205">
        <ele>3.3</ele>
        <time>2021-09-25T13:02:43Z</time>
      </trkpt>
      <trkpt lat="46.48739" lon="-1.79206">
        <ele>3.3</ele>
        <time>2021-09-25T13:02:44Z</time>
      </trkpt>
      <trkpt lat="46.48739" lon="-1.79206">
        <ele>3.4</ele>
        <time>2021-09-25T13:02:45Z</time>
      </trkpt>
      <trkpt lat="46.48739" lon="-1.79206">
        <ele>3.4</ele>
        <time>2021-09-25T13:02:46Z</time>
      </trkpt>
      <trkpt lat="46.48739" lon="-1.79206">
        <ele>3.4</ele>
        <time>2021-09-25T13:02:47Z</time>
      </trkpt>
      <trkpt lat="46.48739" lon="-1.79207">
        <ele>3.4</ele>
        <time>2021-09-25T13:02:48Z</time>
      </trkpt>
      <trkpt lat="46.4874" lon="-1.79207">
        <ele>3.3</ele>
        <time>2021-09-25T13:02:49Z</time>
      </trkpt>
      <trkpt lat="46.4874" lon="-1.79207">
        <ele>3.3</ele>
        <time>2021-09-25T13:02:50Z</time>
      </trkpt>
      <trkpt lat="46.4874" lon="-1.79207">
        <ele>3.3</ele>
        <time>2021-09-25T13:02:51Z</time>
      </trkpt>
      <trkpt lat="46.4874" lon="-1.79208">
        <ele>3.3</ele>
        <time>2021-09-25T13:02:52Z</time>
      </trkpt>
      <trkpt lat="46.48741" lon="-1.79208">
        <ele>3.3</ele>
        <time>2021-09-25T13:02:53Z</time>
      </trkpt>
      <trkpt lat="46.48741" lon="-1.79208">
        <ele>3.3</ele>
        <time>2021-09-25T13:02:54Z</time>
      </trkpt>
      <trkpt lat="46.48741" lon="-1.79208">
        <ele>3.3</ele>
        <time>2021-09-25T13:02:55Z</time>
      </trkpt>
      <trkpt lat="46.48741" lon="-1.79209">
        <ele>3.4</ele>
        <time>2021-09-25T13:02:56Z</time>
      </trkpt>
      <trkpt lat="46.48741" lon="-1.79209">
        <ele>3.4</ele>
        <time>2021-09-25T13:02:57Z</time>
      </trkpt>
      <trkpt lat="46.48742" lon="-1.79209">
        <ele>3.4</ele>
        <time>2021-09-25T13:02:58Z</time>
      </trkpt>
      <trkpt lat="46.48742" lon="-1.79209">
        <ele>3.4</ele>
        <time>2021-09-25T13:02:59Z</time>
      </trkpt>
      <trkpt lat="46.48742" lon="-1.7921">
        <ele>3.4</ele>
        <time>2021-09-25T13:03:00Z</time>
      </trkpt>
      <trkpt lat="46.48742" lon="-1.7921">
        <ele>3.4</ele>
        <time>2021-09-25T13:03:01Z</time>
      </trkpt>
      <trkpt lat="46.48743" lon="-1.7921">
        <ele>3.4</ele>
        <time>2021-09-25T13:03:02Z</time>
      </trkpt>
      <trkpt lat="46.48743" lon="-1.7921">
        <ele>3.4</ele>
        <time>2021-09-25T13:03:03Z</time>
      </trkpt>
      <trkpt lat="46.48743" lon="-1.79211">
        <ele>3.4</ele>
        <time>2021-09-25T13:03:04Z</time>
      </trkpt>
      <trkpt lat="46.48743" lon="-1.79211">
        <ele>3.4</ele>
        <time>2021-09-25T13:03:05Z</time>
      </trkpt>
      <trkpt lat="46.48743" lon="-1.79211">
        <ele>3.4</ele>
        <time>2021-09-25T13:03:06Z</time>
      </trkpt>
      <trkpt lat="46.48744" lon="-1.79211">
        <ele>3.4</ele>
        <time>2021-09-25T13:03:07Z</time>
      </trkpt>
      <trkpt lat="46.48744" lon="-1.79212">
        <ele>3.4</ele>
        <time>2021-09-25T13:03:08Z</time>
      </trkpt>
      <trkpt lat="46.48744" lon="-1.79212">
        <ele>3.4</ele>
        <time>2021-09-25T13:03:09Z</time>
      </trkpt>
      <trkpt lat="46.48744" lon="-1.79212">
        <ele>3.4</ele>
        <time>2021-09-25T13:03:10Z</time>
      </trkpt>
      <trkpt lat="46.48744" lon="-1.79212">
        <ele>3.4</ele>
        <time>2021-09-25T13:03:11Z</time>
      </trkpt>
      <trkpt lat="46.48745" lon="-1.79213">
        <ele>3.4</ele>
        <time>2021-09-25T13:03:12Z</time>
      </trkpt>
      <trkpt lat="46.48745" lon="-1.79213">
        <ele>3.4</ele>
        <time>2021-09-25T13:03:13Z</time>
      </trkpt>
      <trkpt lat="46.48745" lon="-1.79213">
        <ele>3.4</ele>
        <time>2021-09-25T13:03:14Z</time>
      </trkpt>
      <trkpt lat="46.48745" lon="-1.79213">
        <ele>3.4</ele>
        <time>2021-09-25T13:03:15Z</time>
      </trkpt>
      <trkpt lat="46.48746" lon="-1.79214">
        <ele>3.4</ele>
        <time>2021-09-25T13:03:16Z</time>
      </trkpt>
      <trkpt lat="46.48746" lon="-1.79214">
        <ele>3.4</ele>
        <time>2021-09-25T13:03:17Z</time>
      </trkpt>
      <trkpt lat="46.48746" lon="-1.79214">
        <ele>3.4</ele>
        <time>2021-09-25T13:03:18Z</time>
      </trkpt>
      <trkpt lat="46.48746" lon="-1.79214">
        <ele>3.4</ele>
        <time>2021-09-25T13:03:19Z</time>
      </trkpt>
      <trkpt lat="46.48746" lon="-1.79215">
        <ele>3.4</ele>
        <time>2021-09-25T13:03:20Z</time>
      </trkpt>
      <trkpt lat="46.48747" lon="-1.79215">
        <ele>3.4</ele>
        <time>2021-09-25T13:03:21Z</time>
      </trkpt>
      <trkpt lat="46.48747" lon="-1.79215">
        <ele>3.4</ele>
        <time>2021-09-25T13:03:22Z</time>
      </trkpt>
      <trkpt lat="46.48747" lon="-1.79215">
        <ele>3.4</ele>
        <time>2021-09-25T13:03:23Z</time>
      </trkpt>
      <trkpt lat="46.48747" lon="-1.79216">
        <ele>3.4</ele>
        <time>2021-09-25T13:03:24Z</time>
      </trkpt>
      <trkpt lat="46.48748" lon="-1.79216">
        <ele>3.4</ele>
        <time>2021-09-25T13:03:25Z</time>
      </trkpt>
      <trkpt lat="46.48748" lon="-1.79216">
        <ele>3.4</ele>
        <time>2021-09-25T13:03:26Z</time>
      </trkpt>
      <trkpt lat="46.48748" lon="-1.79216">
        <ele>3.4</ele>
        <time>2021-09-25T13:03:27Z</time>
      </trkpt>
      <trkpt lat="46.48748" lon="-1.79217">
        <ele>3.4</ele>
        <time>2021-09-25T13:03:28Z</time>
      </trkpt>
      <trkpt lat="46.48748" lon="-1.79217">
        <ele>3.4</ele>
        <time>2021-09-25T13:03:29Z</time>
      </trkpt>
      <trkpt lat="46.48749" lon="-1.79217">
        <ele>3.4</ele>
        <time>2021-09-25T13:03:30Z</time>
      </trkpt>
      <trkpt lat="46.48749" lon="-1.79217">
        <ele>3.4</ele>
        <time>2021-09-25T13:03:31Z</time>
      </trkpt>
      <trkpt lat="46.48749" lon="-1.79218">
        <ele>3.5</ele>
        <time>2021-09-25T13:03:32Z</time>
      </trkpt>
      <trkpt lat="46.48749" lon="-1.79218">
        <ele>3.5</ele>
        <time>2021-09-25T13:03:33Z</time>
      </trkpt>
      <trkpt lat="46.48749" lon="-1.79218">
        <ele>3.5</ele>
        <time>2021-09-25T13:03:34Z</time>
      </trkpt>
      <trkpt lat="46.4875" lon="-1.79218">
        <ele>3.5</ele>
        <time>2021-09-25T13:03:35Z</time>
      </trkpt>
      <trkpt lat="46.4875" lon="-1.79219">
        <ele>3.5</ele>
        <time>2021-09-25T13:03:36Z</time>
      </trkpt>
      <trkpt lat="46.4875" lon="-1.79219">
        <ele>3.5</ele>
        <time>2021-09-25T13:03:37Z</time>
      </trkpt>
      <trkpt lat="46.4875" lon="-1.79219">
        <ele>3.5</ele>
        <time>2021-09-25T13:03:38Z</time>
      </trkpt>
      <trkpt lat="46.48751" lon="-1.79219">
        <ele>3.5</ele>
        <time>2021-09-25T13:03:39Z</time>
      </trkpt>
      <trkpt lat="46.48751" lon="-1.7922">
        <ele>3.5</ele>
        <time>2021-09-25T13:03:40Z</time>
      </trkpt>
      <trkpt lat="46.48751" lon="-1.7922">
        <ele>3.5</ele>
        <time>2021-09-25T13:03:41Z</time>
      </trkpt>
      <trkpt lat="46.48751" lon="-1.7922">
        <ele>3.5</ele>
        <time>2021-09-25T13:03:42Z</time>
      </trkpt>
      <trkpt lat="46.48751" lon="-1.7922">
        <ele>3.5</ele>
        <time>2021-09-25T13:03:43Z</time>
      </trkpt>
      <trkpt lat="46.48752" lon="-1.79221">
        <ele>3.5</ele>
        <time>2021-09-25T13:03:44Z</time>
      </trkpt>
      <trkpt lat="46.48752" lon="-1.79221">
        <ele>3.5</ele>
        <time>2021-09-25T13:03:45Z</time>
      </trkpt>
      <trkpt lat="46.48752" lon="-1.79221">
        <ele>3.5</ele>
        <time>2021-09-25T13:03:46Z</time>
      </trkpt>
      <trkpt lat="46.48752" lon="-1.79221">
        <ele>3.5</ele>
        <time>2021-09-25T13:03:47Z</time>
      </trkpt>
      <trkpt lat="46.48753" lon="-1.79222">
        <ele>3.5</ele>
        <time>2021-09-25T13:03:48Z</time>
      </trkpt>
      <trkpt lat="46.48753" lon="-1.79222">
        <ele>3.5</ele>
        <time>2021-09-25T13:03:49Z</time>
      </trkpt>
      <trkpt lat="46.48753" lon="-1.79222">
        <ele>3.5</ele>
        <time>2021-09-25T13:03:50Z</time>
      </trkpt>
      <trkpt lat="46.48753" lon="-1.79223">
        <ele>3.6</ele>
        <time>2021-09-25T13:03:51Z</time>
      </trkpt>
      <trkpt lat="46.48754" lon="-1.79223">
        <ele>3.6</ele>
        <time>2021-09-25T13:03:52Z</time>
      </trkpt>
      <trkpt lat="46.48755" lon="-1.79224">
        <ele>3.6</ele>
        <time>2021-09-25T13:03:53Z</time>
      </trkpt>
      <trkpt lat="46.48756" lon="-1.79224">
        <ele>3.6</ele>
        <time>2021-09-25T13:03:54Z</time>
      </trkpt>
      <trkpt lat="46.48756" lon="-1.79225">
        <ele>3.6</ele>
        <time>2021-09-25T13:03:55Z</time>
      </trkpt>
      <trkpt lat="46.48757" lon="-1.79226">
        <ele>3.7</ele>
        <time>2021-09-25T13:03:56Z</time>
      </trkpt>
      <trkpt lat="46.48758" lon="-1.79226">
        <ele>3.7</ele>
        <time>2021-09-25T13:03:57Z</time>
      </trkpt>
      <trkpt lat="46.48759" lon="-1.79227">
        <ele>3.7</ele>
        <time>2021-09-25T13:03:58Z</time>
      </trkpt>
      <trkpt lat="46.4876" lon="-1.79228">
        <ele>3.8</ele>
        <time>2021-09-25T13:03:59Z</time>
      </trkpt>
      <trkpt lat="46.48761" lon="-1.79228">
        <ele>3.8</ele>
        <time>2021-09-25T13:04:00Z</time>
      </trkpt>
      <trkpt lat="46.48761" lon="-1.79228">
        <ele>3.8</ele>
        <time>2021-09-25T13:04:01Z</time>
      </trkpt>
      <trkpt lat="46.48761" lon="-1.79229">
        <ele>3.8</ele>
        <time>2021-09-25T13:04:02Z</time>
      </trkpt>
      <trkpt lat="46.48762" lon="-1.79229">
        <ele>3.8</ele>
        <time>2021-09-25T13:04:03Z</time>
      </trkpt>
      <trkpt lat="46.48762" lon="-1.79229">
        <ele>3.8</ele>
        <time>2021-09-25T13:04:04Z</time>
      </trkpt>
      <trkpt lat="46.48762" lon="-1.79229">
        <ele>3.8</ele>
        <time>2021-09-25T13:04:05Z</time>
      </trkpt>
      <trkpt lat="46.48762" lon="-1.79229">
        <ele>3.8</ele>
        <time>2021-09-25T13:04:06Z</time>
      </trkpt>
      <trkpt lat="46.48762" lon="-1.79229">
        <ele>3.8</ele>
        <time>2021-09-25T13:04:07Z</time>
      </trkpt>
      <trkpt lat="46.48762" lon="-1.79229">
        <ele>3.8</ele>
        <time>2021-09-25T13:04:08Z</time>
      </trkpt>
      <trkpt lat="46.48762" lon="-1.79229">
        <ele>3.9</ele>
        <time>2021-09-25T13:04:09Z</time>
      </trkpt>
      <trkpt lat="46.48762" lon="-1.79229">
        <ele>3.9</ele>
        <time>2021-09-25T13:04:10Z</time>
      </trkpt>
      <trkpt lat="46.48762" lon="-1.79229">
        <ele>3.9</ele>
        <time>2021-09-25T13:04:11Z</time>
      </trkpt>
      <trkpt lat="46.48762" lon="-1.7923">
        <ele>3.9</ele>
        <time>2021-09-25T13:04:12Z</time>
      </trkpt>
      <trkpt lat="46.48763" lon="-1.7923">
        <ele>3.9</ele>
        <time>2021-09-25T13:04:13Z</time>
      </trkpt>
      <trkpt lat="46.48763" lon="-1.7923">
        <ele>3.9</ele>
        <time>2021-09-25T13:04:14Z</time>
      </trkpt>
      <trkpt lat="46.48764" lon="-1.79231">
        <ele>3.9</ele>
        <time>2021-09-25T13:04:15Z</time>
      </trkpt>
      <trkpt lat="46.48764" lon="-1.79231">
        <ele>4</ele>
        <time>2021-09-25T13:04:16Z</time>
      </trkpt>
      <trkpt lat="46.48765" lon="-1.79232">
        <ele>4</ele>
        <time>2021-09-25T13:04:17Z</time>
      </trkpt>
      <trkpt lat="46.48765" lon="-1.79233">
        <ele>4</ele>
        <time>2021-09-25T13:04:18Z</time>
      </trkpt>
      <trkpt lat="46.48766" lon="-1.79233">
        <ele>4</ele>
        <time>2021-09-25T13:04:19Z</time>
      </trkpt>
      <trkpt lat="46.48766" lon="-1.79234">
        <ele>4.1</ele>
        <time>2021-09-25T13:04:20Z</time>
      </trkpt>
      <trkpt lat="46.48767" lon="-1.79234">
        <ele>4.1</ele>
        <time>2021-09-25T13:04:21Z</time>
      </trkpt>
      <trkpt lat="46.48767" lon="-1.79235">
        <ele>4.1</ele>
        <time>2021-09-25T13:04:22Z</time>
      </trkpt>
      <trkpt lat="46.48768" lon="-1.79235">
        <ele>4.2</ele>
        <time>2021-09-25T13:04:23Z</time>
      </trkpt>
      <trkpt lat="46.48769" lon="-1.79235">
        <ele>4.2</ele>
        <time>2021-09-25T13:04:24Z</time>
      </trkpt>
      <trkpt lat="46.48769" lon="-1.79236">
        <ele>4.2</ele>
        <time>2021-09-25T13:04:25Z</time>
      </trkpt>
      <trkpt lat="46.4877" lon="-1.79236">
        <ele>4.3</ele>
        <time>2021-09-25T13:04:26Z</time>
      </trkpt>
      <trkpt lat="46.4877" lon="-1.79237">
        <ele>4.3</ele>
        <time>2021-09-25T13:04:27Z</time>
      </trkpt>
      <trkpt lat="46.48771" lon="-1.79237">
        <ele>4.3</ele>
        <time>2021-09-25T13:04:28Z</time>
      </trkpt>
      <trkpt lat="46.48772" lon="-1.79238">
        <ele>4.3</ele>
        <time>2021-09-25T13:04:29Z</time>
      </trkpt>
      <trkpt lat="46.48772" lon="-1.79238">
        <ele>4.4</ele>
        <time>2021-09-25T13:04:30Z</time>
      </trkpt>
      <trkpt lat="46.48773" lon="-1.79239">
        <ele>4.4</ele>
        <time>2021-09-25T13:04:31Z</time>
      </trkpt>
      <trkpt lat="46.48773" lon="-1.79239">
        <ele>4.4</ele>
        <time>2021-09-25T13:04:32Z</time>
      </trkpt>
      <trkpt lat="46.48774" lon="-1.7924">
        <ele>4.5</ele>
        <time>2021-09-25T13:04:33Z</time>
      </trkpt>
      <trkpt lat="46.48775" lon="-1.7924">
        <ele>4.5</ele>
        <time>2021-09-25T13:04:34Z</time>
      </trkpt>
      <trkpt lat="46.48775" lon="-1.79241">
        <ele>4.5</ele>
        <time>2021-09-25T13:04:35Z</time>
      </trkpt>
      <trkpt lat="46.48776" lon="-1.79241">
        <ele>4.6</ele>
        <time>2021-09-25T13:04:36Z</time>
      </trkpt>
      <trkpt lat="46.48776" lon="-1.79242">
        <ele>4.6</ele>
        <time>2021-09-25T13:04:37Z</time>
      </trkpt>
      <trkpt lat="46.48777" lon="-1.79242">
        <ele>4.6</ele>
        <time>2021-09-25T13:04:38Z</time>
      </trkpt>
      <trkpt lat="46.48777" lon="-1.79243">
        <ele>4.7</ele>
        <time>2021-09-25T13:04:39Z</time>
      </trkpt>
      <trkpt lat="46.48778" lon="-1.79243">
        <ele>4.7</ele>
        <time>2021-09-25T13:04:40Z</time>
      </trkpt>
      <trkpt lat="46.48778" lon="-1.79244">
        <ele>4.7</ele>
        <time>2021-09-25T13:04:41Z</time>
      </trkpt>
      <trkpt lat="46.48779" lon="-1.79244">
        <ele>4.8</ele>
        <time>2021-09-25T13:04:42Z</time>
      </trkpt>
      <trkpt lat="46.48779" lon="-1.79245">
        <ele>4.8</ele>
        <time>2021-09-25T13:04:43Z</time>
      </trkpt>
      <trkpt lat="46.4878" lon="-1.79245">
        <ele>4.8</ele>
        <time>2021-09-25T13:04:44Z</time>
      </trkpt>
      <trkpt lat="46.4878" lon="-1.79246">
        <ele>4.9</ele>
        <time>2021-09-25T13:04:45Z</time>
      </trkpt>
      <trkpt lat="46.4878" lon="-1.79246">
        <ele>4.9</ele>
        <time>2021-09-25T13:04:46Z</time>
      </trkpt>
      <trkpt lat="46.48781" lon="-1.79247">
        <ele>4.9</ele>
        <time>2021-09-25T13:04:47Z</time>
      </trkpt>
      <trkpt lat="46.48781" lon="-1.79248">
        <ele>5</ele>
        <time>2021-09-25T13:04:48Z</time>
      </trkpt>
      <trkpt lat="46.48782" lon="-1.79248">
        <ele>5</ele>
        <time>2021-09-25T13:04:49Z</time>
      </trkpt>
      <trkpt lat="46.48782" lon="-1.79249">
        <ele>5</ele>
        <time>2021-09-25T13:04:50Z</time>
      </trkpt>
      <trkpt lat="46.48783" lon="-1.79249">
        <ele>5.1</ele>
        <time>2021-09-25T13:04:51Z</time>
      </trkpt>
      <trkpt lat="46.48783" lon="-1.7925">
        <ele>5.1</ele>
        <time>2021-09-25T13:04:52Z</time>
      </trkpt>
      <trkpt lat="46.48784" lon="-1.7925">
        <ele>5.2</ele>
        <time>2021-09-25T13:04:53Z</time>
      </trkpt>
      <trkpt lat="46.48784" lon="-1.79251">
        <ele>5.2</ele>
        <time>2021-09-25T13:04:54Z</time>
      </trkpt>
      <trkpt lat="46.48785" lon="-1.79252">
        <ele>5.3</ele>
        <time>2021-09-25T13:04:55Z</time>
      </trkpt>
      <trkpt lat="46.48786" lon="-1.79252">
        <ele>5.3</ele>
        <time>2021-09-25T13:04:56Z</time>
      </trkpt>
      <trkpt lat="46.48786" lon="-1.79253">
        <ele>5.4</ele>
        <time>2021-09-25T13:04:57Z</time>
      </trkpt>
      <trkpt lat="46.48787" lon="-1.79254">
        <ele>5.5</ele>
        <time>2021-09-25T13:04:58Z</time>
      </trkpt>
      <trkpt lat="46.48788" lon="-1.79255">
        <ele>5.5</ele>
        <time>2021-09-25T13:04:59Z</time>
      </trkpt>
      <trkpt lat="46.48788" lon="-1.79255">
        <ele>5.6</ele>
        <time>2021-09-25T13:05:00Z</time>
      </trkpt>
      <trkpt lat="46.48789" lon="-1.79256">
        <ele>5.7</ele>
        <time>2021-09-25T13:05:01Z</time>
      </trkpt>
      <trkpt lat="46.4879" lon="-1.79257">
        <ele>5.7</ele>
        <time>2021-09-25T13:05:02Z</time>
      </trkpt>
      <trkpt lat="46.48791" lon="-1.79257">
        <ele>5.8</ele>
        <time>2021-09-25T13:05:03Z</time>
      </trkpt>
      <trkpt lat="46.48791" lon="-1.79258">
        <ele>5.9</ele>
        <time>2021-09-25T13:05:04Z</time>
      </trkpt>
      <trkpt lat="46.48792" lon="-1.79259">
        <ele>6</ele>
        <time>2021-09-25T13:05:05Z</time>
      </trkpt>
      <trkpt lat="46.48793" lon="-1.7926">
        <ele>6</ele>
        <time>2021-09-25T13:05:06Z</time>
      </trkpt>
      <trkpt lat="46.48794" lon="-1.7926">
        <ele>6.1</ele>
        <time>2021-09-25T13:05:07Z</time>
      </trkpt>
      <trkpt lat="46.48794" lon="-1.79261">
        <ele>6.2</ele>
        <time>2021-09-25T13:05:08Z</time>
      </trkpt>
      <trkpt lat="46.48795" lon="-1.79261">
        <ele>6.2</ele>
        <time>2021-09-25T13:05:09Z</time>
      </trkpt>
      <trkpt lat="46.48796" lon="-1.79262">
        <ele>6.3</ele>
        <time>2021-09-25T13:05:10Z</time>
      </trkpt>
      <trkpt lat="46.48797" lon="-1.79263">
        <ele>6.3</ele>
        <time>2021-09-25T13:05:11Z</time>
      </trkpt>
      <trkpt lat="46.48797" lon="-1.79263">
        <ele>6.4</ele>
        <time>2021-09-25T13:05:12Z</time>
      </trkpt>
      <trkpt lat="46.48798" lon="-1.79264">
        <ele>6.4</ele>
        <time>2021-09-25T13:05:13Z</time>
      </trkpt>
      <trkpt lat="46.48799" lon="-1.79265">
        <ele>6.5</ele>
        <time>2021-09-25T13:05:14Z</time>
      </trkpt>
      <trkpt lat="46.48799" lon="-1.79266">
        <ele>6.5</ele>
        <time>2021-09-25T13:05:15Z</time>
      </trkpt>
      <trkpt lat="46.488" lon="-1.79267">
        <ele>6.5</ele>
        <time>2021-09-25T13:05:16Z</time>
      </trkpt>
      <trkpt lat="46.488" lon="-1.79268">
        <ele>6.6</ele>
        <time>2021-09-25T13:05:17Z</time>
      </trkpt>
      <trkpt lat="46.48801" lon="-1.79268">
        <ele>6.6</ele>
        <time>2021-09-25T13:05:18Z</time>
      </trkpt>
      <trkpt lat="46.48802" lon="-1.79269">
        <ele>6.6</ele>
        <time>2021-09-25T13:05:19Z</time>
      </trkpt>
      <trkpt lat="46.48802" lon="-1.7927">
        <ele>6.6</ele>
        <time>2021-09-25T13:05:20Z</time>
      </trkpt>
      <trkpt lat="46.48802" lon="-1.79271">
        <ele>6.6</ele>
        <time>2021-09-25T13:05:21Z</time>
      </trkpt>
      <trkpt lat="46.48803" lon="-1.79272">
        <ele>6.6</ele>
        <time>2021-09-25T13:05:22Z</time>
      </trkpt>
      <trkpt lat="46.48803" lon="-1.79272">
        <ele>6.6</ele>
        <time>2021-09-25T13:05:23Z</time>
      </trkpt>
      <trkpt lat="46.48803" lon="-1.79273">
        <ele>6.5</ele>
        <time>2021-09-25T13:05:24Z</time>
      </trkpt>
      <trkpt lat="46.48804" lon="-1.79274">
        <ele>6.5</ele>
        <time>2021-09-25T13:05:25Z</time>
      </trkpt>
      <trkpt lat="46.48804" lon="-1.79274">
        <ele>6.5</ele>
        <time>2021-09-25T13:05:26Z</time>
      </trkpt>
      <trkpt lat="46.48804" lon="-1.79274">
        <ele>6.5</ele>
        <time>2021-09-25T13:05:27Z</time>
      </trkpt>
      <trkpt lat="46.48804" lon="-1.79275">
        <ele>6.5</ele>
        <time>2021-09-25T13:05:28Z</time>
      </trkpt>
      <trkpt lat="46.48804" lon="-1.79275">
        <ele>6.5</ele>
        <time>2021-09-25T13:05:29Z</time>
      </trkpt>
      <trkpt lat="46.48804" lon="-1.79275">
        <ele>6.5</ele>
        <time>2021-09-25T13:05:30Z</time>
      </trkpt>
      <trkpt lat="46.48804" lon="-1.79275">
        <ele>6.5</ele>
        <time>2021-09-25T13:05:31Z</time>
      </trkpt>
      <trkpt lat="46.48803" lon="-1.79275">
        <ele>6.5</ele>
        <time>2021-09-25T13:05:32Z</time>
      </trkpt>
      <trkpt lat="46.48803" lon="-1.79275">
        <ele>6.5</ele>
        <time>2021-09-25T13:05:33Z</time>
      </trkpt>
      <trkpt lat="46.48803" lon="-1.79275">
        <ele>6.5</ele>
        <time>2021-09-25T13:05:34Z</time>
      </trkpt>
      <trkpt lat="46.48803" lon="-1.79275">
        <ele>6.5</ele>
        <time>2021-09-25T13:05:35Z</time>
      </trkpt>
      <trkpt lat="46.48803" lon="-1.79274">
        <ele>6.5</ele>
        <time>2021-09-25T13:05:36Z</time>
      </trkpt>
      <trkpt lat="46.48803" lon="-1.79274">
        <ele>6.5</ele>
        <time>2021-09-25T13:05:37Z</time>
      </trkpt>
      <trkpt lat="46.48803" lon="-1.79274">
        <ele>6.5</ele>
        <time>2021-09-25T13:05:38Z</time>
      </trkpt>
      <trkpt lat="46.48803" lon="-1.79274">
        <ele>6.5</ele>
        <time>2021-09-25T13:05:39Z</time>
      </trkpt>
      <trkpt lat="46.48803" lon="-1.79274">
        <ele>6.5</ele>
        <time>2021-09-25T13:05:40Z</time>
      </trkpt>
      <trkpt lat="46.48803" lon="-1.79274">
        <ele>6.5</ele>
        <time>2021-09-25T13:05:41Z</time>
      </trkpt>
      <trkpt lat="46.48803" lon="-1.79274">
        <ele>6.5</ele>
        <time>2021-09-25T13:05:42Z</time>
      </trkpt>
      <trkpt lat="46.48803" lon="-1.79275">
        <ele>6.5</ele>
        <time>2021-09-25T13:05:43Z</time>
      </trkpt>
      <trkpt lat="46.48803" lon="-1.79275">
        <ele>6.5</ele>
        <time>2021-09-25T13:05:44Z</time>
      </trkpt>
      <trkpt lat="46.48803" lon="-1.79276">
        <ele>6.5</ele>
        <time>2021-09-25T13:05:45Z</time>
      </trkpt>
      <trkpt lat="46.48803" lon="-1.79277">
        <ele>6.4</ele>
        <time>2021-09-25T13:05:46Z</time>
      </trkpt>
      <trkpt lat="46.48803" lon="-1.79278">
        <ele>6.4</ele>
        <time>2021-09-25T13:05:47Z</time>
      </trkpt>
      <trkpt lat="46.48803" lon="-1.79278">
        <ele>6.4</ele>
        <time>2021-09-25T13:05:48Z</time>
      </trkpt>
      <trkpt lat="46.48803" lon="-1.79279">
        <ele>6.4</ele>
        <time>2021-09-25T13:05:49Z</time>
      </trkpt>
      <trkpt lat="46.48803" lon="-1.79279">
        <ele>6.4</ele>
        <time>2021-09-25T13:05:50Z</time>
      </trkpt>
      <trkpt lat="46.48803" lon="-1.79279">
        <ele>6.4</ele>
        <time>2021-09-25T13:05:51Z</time>
      </trkpt>
      <trkpt lat="46.48803" lon="-1.79279">
        <ele>6.4</ele>
        <time>2021-09-25T13:05:52Z</time>
      </trkpt>
      <trkpt lat="46.48803" lon="-1.79279">
        <ele>6.4</ele>
        <time>2021-09-25T13:05:53Z</time>
      </trkpt>
      <trkpt lat="46.48803" lon="-1.79279">
        <ele>6.4</ele>
        <time>2021-09-25T13:05:54Z</time>
      </trkpt>
      <trkpt lat="46.48803" lon="-1.79279">
        <ele>6.4</ele>
        <time>2021-09-25T13:05:55Z</time>
      </trkpt>
      <trkpt lat="46.48803" lon="-1.79279">
        <ele>6.4</ele>
        <time>2021-09-25T13:05:56Z</time>
      </trkpt>
      <trkpt lat="46.48803" lon="-1.79279">
        <ele>6.4</ele>
        <time>2021-09-25T13:05:57Z</time>
      </trkpt>
      <trkpt lat="46.48803" lon="-1.79279">
        <ele>6.4</ele>
        <time>2021-09-25T13:05:58Z</time>
      </trkpt>
      <trkpt lat="46.48803" lon="-1.79279">
        <ele>6.4</ele>
        <time>2021-09-25T13:05:59Z</time>
      </trkpt>
      <trkpt lat="46.48803" lon="-1.79279">
        <ele>6.4</ele>
        <time>2021-09-25T13:06:00Z</time>
      </trkpt>
      <trkpt lat="46.48803" lon="-1.79279">
        <ele>6.4</ele>
        <time>2021-09-25T13:06:01Z</time>
      </trkpt>
      <trkpt lat="46.48803" lon="-1.79279">
        <ele>6.4</ele>
        <time>2021-09-25T13:06:02Z</time>
      </trkpt>
      <trkpt lat="46.48803" lon="-1.79279">
        <ele>6.4</ele>
        <time>2021-09-25T13:06:03Z</time>
      </trkpt>
      <trkpt lat="46.48803" lon="-1.79279">
        <ele>6.4</ele>
        <time>2021-09-25T13:06:04Z</time>
      </trkpt>
      <trkpt lat="46.48803" lon="-1.79279">
        <ele>6.4</ele>
        <time>2021-09-25T13:06:05Z</time>
      </trkpt>
      <trkpt lat="46.48803" lon="-1.79279">
        <ele>6.4</ele>
        <time>2021-09-25T13:06:06Z</time>
      </trkpt>
      <trkpt lat="46.48803" lon="-1.79279">
        <ele>6.4</ele>
        <time>2021-09-25T13:06:07Z</time>
      </trkpt>
      <trkpt lat="46.48803" lon="-1.79279">
        <ele>6.4</ele>
        <time>2021-09-25T13:06:08Z</time>
      </trkpt>
      <trkpt lat="46.48803" lon="-1.79279">
        <ele>6.4</ele>
        <time>2021-09-25T13:06:09Z</time>
      </trkpt>
      <trkpt lat="46.48803" lon="-1.79279">
        <ele>6.4</ele>
        <time>2021-09-25T13:06:10Z</time>
      </trkpt>
      <trkpt lat="46.48803" lon="-1.79279">
        <ele>6.4</ele>
        <time>2021-09-25T13:06:11Z</time>
      </trkpt>
      <trkpt lat="46.48803" lon="-1.79279">
        <ele>6.4</ele>
        <time>2021-09-25T13:06:12Z</time>
      </trkpt>
      <trkpt lat="46.48803" lon="-1.79279">
        <ele>6.4</ele>
        <time>2021-09-25T13:06:13Z</time>
      </trkpt>
      <trkpt lat="46.48803" lon="-1.79279">
        <ele>6.4</ele>
        <time>2021-09-25T13:06:14Z</time>
      </trkpt>
      <trkpt lat="46.48803" lon="-1.7928">
        <ele>6.4</ele>
        <time>2021-09-25T13:06:15Z</time>
      </trkpt>
      <trkpt lat="46.48803" lon="-1.7928">
        <ele>6.4</ele>
        <time>2021-09-25T13:06:16Z</time>
      </trkpt>
      <trkpt lat="46.48803" lon="-1.7928">
        <ele>6.4</ele>
        <time>2021-09-25T13:06:17Z</time>
      </trkpt>
      <trkpt lat="46.48803" lon="-1.7928">
        <ele>6.4</ele>
        <time>2021-09-25T13:06:18Z</time>
      </trkpt>
      <trkpt lat="46.48803" lon="-1.7928">
        <ele>6.4</ele>
        <time>2021-09-25T13:06:19Z</time>
      </trkpt>
      <trkpt lat="46.48803" lon="-1.7928">
        <ele>6.4</ele>
        <time>2021-09-25T13:06:20Z</time>
      </trkpt>
      <trkpt lat="46.48803" lon="-1.7928">
        <ele>6.4</ele>
        <time>2021-09-25T13:06:21Z</time>
      </trkpt>
      <trkpt lat="46.48803" lon="-1.7928">
        <ele>6.4</ele>
        <time>2021-09-25T13:06:22Z</time>
      </trkpt>
      <trkpt lat="46.48803" lon="-1.7928">
        <ele>6.4</ele>
        <time>2021-09-25T13:06:23Z</time>
      </trkpt>
      <trkpt lat="46.48803" lon="-1.7928">
        <ele>6.4</ele>
        <time>2021-09-25T13:06:24Z</time>
      </trkpt>
      <trkpt lat="46.48803" lon="-1.7928">
        <ele>6.4</ele>
        <time>2021-09-25T13:06:25Z</time>
      </trkpt>
      <trkpt lat="46.48803" lon="-1.7928">
        <ele>6.3</ele>
        <time>2021-09-25T13:06:26Z</time>
      </trkpt>
      <trkpt lat="46.48803" lon="-1.79281">
        <ele>6.3</ele>
        <time>2021-09-25T13:06:27Z</time>
      </trkpt>
      <trkpt lat="46.48803" lon="-1.79281">
        <ele>6.3</ele>
        <time>2021-09-25T13:06:28Z</time>
      </trkpt>
      <trkpt lat="46.48803" lon="-1.79282">
        <ele>6.3</ele>
        <time>2021-09-25T13:06:29Z</time>
      </trkpt>
      <trkpt lat="46.48803" lon="-1.79283">
        <ele>6.2</ele>
        <time>2021-09-25T13:06:30Z</time>
      </trkpt>
      <trkpt lat="46.48803" lon="-1.79285">
        <ele>6.1</ele>
        <time>2021-09-25T13:06:31Z</time>
      </trkpt>
      <trkpt lat="46.48803" lon="-1.79286">
        <ele>6</ele>
        <time>2021-09-25T13:06:32Z</time>
      </trkpt>
      <trkpt lat="46.48803" lon="-1.79287">
        <ele>5.9</ele>
        <time>2021-09-25T13:06:33Z</time>
      </trkpt>
      <trkpt lat="46.48802" lon="-1.79288">
        <ele>5.9</ele>
        <time>2021-09-25T13:06:34Z</time>
      </trkpt>
      <trkpt lat="46.48802" lon="-1.79288">
        <ele>5.9</ele>
        <time>2021-09-25T13:06:35Z</time>
      </trkpt>
      <trkpt lat="46.48802" lon="-1.79289">
        <ele>5.8</ele>
        <time>2021-09-25T13:06:36Z</time>
      </trkpt>
      <trkpt lat="46.48802" lon="-1.79289">
        <ele>5.8</ele>
        <time>2021-09-25T13:06:37Z</time>
      </trkpt>
      <trkpt lat="46.48802" lon="-1.79289">
        <ele>5.8</ele>
        <time>2021-09-25T13:06:38Z</time>
      </trkpt>
      <trkpt lat="46.48802" lon="-1.79289">
        <ele>5.8</ele>
        <time>2021-09-25T13:06:39Z</time>
      </trkpt>
      <trkpt lat="46.48802" lon="-1.79289">
        <ele>5.8</ele>
        <time>2021-09-25T13:06:40Z</time>
      </trkpt>
      <trkpt lat="46.48802" lon="-1.79289">
        <ele>5.8</ele>
        <time>2021-09-25T13:06:41Z</time>
      </trkpt>
      <trkpt lat="46.48802" lon="-1.79289">
        <ele>5.8</ele>
        <time>2021-09-25T13:06:42Z</time>
      </trkpt>
      <trkpt lat="46.48802" lon="-1.79289">
        <ele>5.8</ele>
        <time>2021-09-25T13:06:43Z</time>
      </trkpt>
      <trkpt lat="46.48802" lon="-1.79289">
        <ele>5.8</ele>
        <time>2021-09-25T13:06:44Z</time>
      </trkpt>
      <trkpt lat="46.48802" lon="-1.7929">
        <ele>5.8</ele>
        <time>2021-09-25T13:06:45Z</time>
      </trkpt>
      <trkpt lat="46.48802" lon="-1.7929">
        <ele>5.8</ele>
        <time>2021-09-25T13:06:46Z</time>
      </trkpt>
      <trkpt lat="46.48802" lon="-1.7929">
        <ele>5.7</ele>
        <time>2021-09-25T13:06:47Z</time>
      </trkpt>
      <trkpt lat="46.48802" lon="-1.7929">
        <ele>5.7</ele>
        <time>2021-09-25T13:06:48Z</time>
      </trkpt>
      <trkpt lat="46.48802" lon="-1.79291">
        <ele>5.7</ele>
        <time>2021-09-25T13:06:49Z</time>
      </trkpt>
      <trkpt lat="46.48802" lon="-1.79291">
        <ele>5.7</ele>
        <time>2021-09-25T13:06:50Z</time>
      </trkpt>
      <trkpt lat="46.48802" lon="-1.79291">
        <ele>5.7</ele>
        <time>2021-09-25T13:06:51Z</time>
      </trkpt>
      <trkpt lat="46.48803" lon="-1.79292">
        <ele>5.6</ele>
        <time>2021-09-25T13:06:52Z</time>
      </trkpt>
      <trkpt lat="46.48803" lon="-1.79292">
        <ele>5.6</ele>
        <time>2021-09-25T13:06:53Z</time>
      </trkpt>
      <trkpt lat="46.48803" lon="-1.79293">
        <ele>5.6</ele>
        <time>2021-09-25T13:06:54Z</time>
      </trkpt>
      <trkpt lat="46.48803" lon="-1.79293">
        <ele>5.5</ele>
        <time>2021-09-25T13:06:55Z</time>
      </trkpt>
      <trkpt lat="46.48803" lon="-1.79294">
        <ele>5.4</ele>
        <time>2021-09-25T13:06:56Z</time>
      </trkpt>
      <trkpt lat="46.48803" lon="-1.79295">
        <ele>5.4</ele>
        <time>2021-09-25T13:06:57Z</time>
      </trkpt>
      <trkpt lat="46.48803" lon="-1.79296">
        <ele>5.3</ele>
        <time>2021-09-25T13:06:58Z</time>
      </trkpt>
      <trkpt lat="46.48803" lon="-1.79298">
        <ele>5.2</ele>
        <time>2021-09-25T13:06:59Z</time>
      </trkpt>
      <trkpt lat="46.48803" lon="-1.79299">
        <ele>5.1</ele>
        <time>2021-09-25T13:07:00Z</time>
      </trkpt>
      <trkpt lat="46.48804" lon="-1.79301">
        <ele>5</ele>
        <time>2021-09-25T13:07:01Z</time>
      </trkpt>
      <trkpt lat="46.48804" lon="-1.79302">
        <ele>4.9</ele>
        <time>2021-09-25T13:07:02Z</time>
      </trkpt>
      <trkpt lat="46.48804" lon="-1.79303">
        <ele>4.8</ele>
        <time>2021-09-25T13:07:03Z</time>
      </trkpt>
      <trkpt lat="46.48804" lon="-1.79305">
        <ele>4.8</ele>
        <time>2021-09-25T13:07:04Z</time>
      </trkpt>
      <trkpt lat="46.48804" lon="-1.79306">
        <ele>4.7</ele>
        <time>2021-09-25T13:07:05Z</time>
      </trkpt>
      <trkpt lat="46.48804" lon="-1.79307">
        <ele>4.6</ele>
        <time>2021-09-25T13:07:06Z</time>
      </trkpt>
      <trkpt lat="46.48804" lon="-1.79309">
        <ele>4.5</ele>
        <time>2021-09-25T13:07:07Z</time>
      </trkpt>
      <trkpt lat="46.48804" lon="-1.7931">
        <ele>4.5</ele>
        <time>2021-09-25T13:07:08Z</time>
      </trkpt>
      <trkpt lat="46.48805" lon="-1.79311">
        <ele>4.4</ele>
        <time>2021-09-25T13:07:09Z</time>
      </trkpt>
      <trkpt lat="46.48805" lon="-1.79313">
        <ele>4.3</ele>
        <time>2021-09-25T13:07:10Z</time>
      </trkpt>
      <trkpt lat="46.48805" lon="-1.79314">
        <ele>4.3</ele>
        <time>2021-09-25T13:07:11Z</time>
      </trkpt>
      <trkpt lat="46.48805" lon="-1.79315">
        <ele>4.3</ele>
        <time>2021-09-25T13:07:12Z</time>
      </trkpt>
      <trkpt lat="46.48805" lon="-1.79317">
        <ele>4.2</ele>
        <time>2021-09-25T13:07:13Z</time>
      </trkpt>
      <trkpt lat="46.48805" lon="-1.79318">
        <ele>4.2</ele>
        <time>2021-09-25T13:07:14Z</time>
      </trkpt>
      <trkpt lat="46.48806" lon="-1.79319">
        <ele>4.1</ele>
        <time>2021-09-25T13:07:15Z</time>
      </trkpt>
      <trkpt lat="46.48806" lon="-1.79321">
        <ele>4.1</ele>
        <time>2021-09-25T13:07:16Z</time>
      </trkpt>
      <trkpt lat="46.48806" lon="-1.79322">
        <ele>4</ele>
        <time>2021-09-25T13:07:17Z</time>
      </trkpt>
      <trkpt lat="46.48806" lon="-1.79324">
        <ele>4</ele>
        <time>2021-09-25T13:07:18Z</time>
      </trkpt>
      <trkpt lat="46.48806" lon="-1.79325">
        <ele>3.9</ele>
        <time>2021-09-25T13:07:19Z</time>
      </trkpt>
      <trkpt lat="46.48806" lon="-1.79327">
        <ele>3.9</ele>
        <time>2021-09-25T13:07:20Z</time>
      </trkpt>
      <trkpt lat="46.48807" lon="-1.79329">
        <ele>3.9</ele>
        <time>2021-09-25T13:07:21Z</time>
      </trkpt>
      <trkpt lat="46.48807" lon="-1.79331">
        <ele>3.9</ele>
        <time>2021-09-25T13:07:22Z</time>
      </trkpt>
      <trkpt lat="46.48807" lon="-1.79332">
        <ele>3.8</ele>
        <time>2021-09-25T13:07:23Z</time>
      </trkpt>
      <trkpt lat="46.48807" lon="-1.79334">
        <ele>3.8</ele>
        <time>2021-09-25T13:07:24Z</time>
      </trkpt>
      <trkpt lat="46.48807" lon="-1.79336">
        <ele>3.8</ele>
        <time>2021-09-25T13:07:25Z</time>
      </trkpt>
      <trkpt lat="46.48807" lon="-1.79338">
        <ele>3.8</ele>
        <time>2021-09-25T13:07:26Z</time>
      </trkpt>
      <trkpt lat="46.48807" lon="-1.79341">
        <ele>3.8</ele>
        <time>2021-09-25T13:07:27Z</time>
      </trkpt>
      <trkpt lat="46.48807" lon="-1.79343">
        <ele>3.7</ele>
        <time>2021-09-25T13:07:28Z</time>
      </trkpt>
      <trkpt lat="46.48807" lon="-1.79345">
        <ele>3.7</ele>
        <time>2021-09-25T13:07:29Z</time>
      </trkpt>
      <trkpt lat="46.48807" lon="-1.79347">
        <ele>3.7</ele>
        <time>2021-09-25T13:07:30Z</time>
      </trkpt>
      <trkpt lat="46.48807" lon="-1.79349">
        <ele>3.7</ele>
        <time>2021-09-25T13:07:31Z</time>
      </trkpt>
      <trkpt lat="46.48807" lon="-1.79351">
        <ele>3.7</ele>
        <time>2021-09-25T13:07:32Z</time>
      </trkpt>
      <trkpt lat="46.48807" lon="-1.79353">
        <ele>3.7</ele>
        <time>2021-09-25T13:07:33Z</time>
      </trkpt>
      <trkpt lat="46.48808" lon="-1.79355">
        <ele>3.7</ele>
        <time>2021-09-25T13:07:34Z</time>
      </trkpt>
      <trkpt lat="46.48808" lon="-1.79356">
        <ele>3.7</ele>
        <time>2021-09-25T13:07:35Z</time>
      </trkpt>
      <trkpt lat="46.48808" lon="-1.79357">
        <ele>3.7</ele>
        <time>2021-09-25T13:07:36Z</time>
      </trkpt>
      <trkpt lat="46.48809" lon="-1.79358">
        <ele>3.7</ele>
        <time>2021-09-25T13:07:37Z</time>
      </trkpt>
      <trkpt lat="46.48809" lon="-1.79358">
        <ele>3.7</ele>
        <time>2021-09-25T13:07:38Z</time>
      </trkpt>
      <trkpt lat="46.4881" lon="-1.79358">
        <ele>3.8</ele>
        <time>2021-09-25T13:07:39Z</time>
      </trkpt>
      <trkpt lat="46.48811" lon="-1.79357">
        <ele>3.8</ele>
        <time>2021-09-25T13:07:40Z</time>
      </trkpt>
      <trkpt lat="46.48812" lon="-1.79357">
        <ele>3.8</ele>
        <time>2021-09-25T13:07:41Z</time>
      </trkpt>
      <trkpt lat="46.48813" lon="-1.79358">
        <ele>3.8</ele>
        <time>2021-09-25T13:07:42Z</time>
      </trkpt>
      <trkpt lat="46.48814" lon="-1.79358">
        <ele>3.8</ele>
        <time>2021-09-25T13:07:43Z</time>
      </trkpt>
      <trkpt lat="46.48815" lon="-1.79358">
        <ele>3.8</ele>
        <time>2021-09-25T13:07:44Z</time>
      </trkpt>
      <trkpt lat="46.48816" lon="-1.79359">
        <ele>3.8</ele>
        <time>2021-09-25T13:07:45Z</time>
      </trkpt>
      <trkpt lat="46.48816" lon="-1.79359">
        <ele>3.8</ele>
        <time>2021-09-25T13:07:46Z</time>
      </trkpt>
      <trkpt lat="46.48817" lon="-1.7936">
        <ele>3.8</ele>
        <time>2021-09-25T13:07:47Z</time>
      </trkpt>
      <trkpt lat="46.48818" lon="-1.7936">
        <ele>3.8</ele>
        <time>2021-09-25T13:07:48Z</time>
      </trkpt>
      <trkpt lat="46.48819" lon="-1.79361">
        <ele>3.8</ele>
        <time>2021-09-25T13:07:49Z</time>
      </trkpt>
      <trkpt lat="46.4882" lon="-1.79361">
        <ele>3.8</ele>
        <time>2021-09-25T13:07:50Z</time>
      </trkpt>
      <trkpt lat="46.48821" lon="-1.79362">
        <ele>3.8</ele>
        <time>2021-09-25T13:07:51Z</time>
      </trkpt>
      <trkpt lat="46.48822" lon="-1.79362">
        <ele>3.8</ele>
        <time>2021-09-25T13:07:52Z</time>
      </trkpt>
      <trkpt lat="46.48823" lon="-1.79363">
        <ele>3.8</ele>
        <time>2021-09-25T13:07:53Z</time>
      </trkpt>
      <trkpt lat="46.48824" lon="-1.79363">
        <ele>3.8</ele>
        <time>2021-09-25T13:07:54Z</time>
      </trkpt>
      <trkpt lat="46.48825" lon="-1.79363">
        <ele>3.8</ele>
        <time>2021-09-25T13:07:55Z</time>
      </trkpt>
      <trkpt lat="46.48826" lon="-1.79364">
        <ele>3.8</ele>
        <time>2021-09-25T13:07:56Z</time>
      </trkpt>
      <trkpt lat="46.48827" lon="-1.79365">
        <ele>3.8</ele>
        <time>2021-09-25T13:07:57Z</time>
      </trkpt>
      <trkpt lat="46.48828" lon="-1.79365">
        <ele>3.8</ele>
        <time>2021-09-25T13:07:58Z</time>
      </trkpt>
      <trkpt lat="46.48829" lon="-1.79366">
        <ele>3.8</ele>
        <time>2021-09-25T13:07:59Z</time>
      </trkpt>
      <trkpt lat="46.4883" lon="-1.79366">
        <ele>3.8</ele>
        <time>2021-09-25T13:08:00Z</time>
      </trkpt>
      <trkpt lat="46.48831" lon="-1.79367">
        <ele>3.8</ele>
        <time>2021-09-25T13:08:01Z</time>
      </trkpt>
      <trkpt lat="46.48831" lon="-1.79367">
        <ele>3.8</ele>
        <time>2021-09-25T13:08:02Z</time>
      </trkpt>
      <trkpt lat="46.48832" lon="-1.79368">
        <ele>3.8</ele>
        <time>2021-09-25T13:08:03Z</time>
      </trkpt>
      <trkpt lat="46.48833" lon="-1.79368">
        <ele>3.8</ele>
        <time>2021-09-25T13:08:04Z</time>
      </trkpt>
      <trkpt lat="46.48834" lon="-1.79369">
        <ele>3.8</ele>
        <time>2021-09-25T13:08:05Z</time>
      </trkpt>
      <trkpt lat="46.48835" lon="-1.79369">
        <ele>3.8</ele>
        <time>2021-09-25T13:08:06Z</time>
      </trkpt>
      <trkpt lat="46.48836" lon="-1.7937">
        <ele>3.8</ele>
        <time>2021-09-25T13:08:07Z</time>
      </trkpt>
      <trkpt lat="46.48837" lon="-1.7937">
        <ele>3.8</ele>
        <time>2021-09-25T13:08:08Z</time>
      </trkpt>
      <trkpt lat="46.48837" lon="-1.79371">
        <ele>3.8</ele>
        <time>2021-09-25T13:08:09Z</time>
      </trkpt>
      <trkpt lat="46.48838" lon="-1.79371">
        <ele>3.8</ele>
        <time>2021-09-25T13:08:10Z</time>
      </trkpt>
      <trkpt lat="46.48839" lon="-1.79372">
        <ele>3.8</ele>
        <time>2021-09-25T13:08:11Z</time>
      </trkpt>
      <trkpt lat="46.4884" lon="-1.79372">
        <ele>3.8</ele>
        <time>2021-09-25T13:08:12Z</time>
      </trkpt>
      <trkpt lat="46.48841" lon="-1.79373">
        <ele>3.8</ele>
        <time>2021-09-25T13:08:13Z</time>
      </trkpt>
      <trkpt lat="46.48842" lon="-1.79373">
        <ele>3.8</ele>
        <time>2021-09-25T13:08:14Z</time>
      </trkpt>
      <trkpt lat="46.48842" lon="-1.79374">
        <ele>3.8</ele>
        <time>2021-09-25T13:08:15Z</time>
      </trkpt>
      <trkpt lat="46.48843" lon="-1.79374">
        <ele>3.8</ele>
        <time>2021-09-25T13:08:16Z</time>
      </trkpt>
      <trkpt lat="46.48844" lon="-1.79374">
        <ele>3.8</ele>
        <time>2021-09-25T13:08:17Z</time>
      </trkpt>
      <trkpt lat="46.48845" lon="-1.79375">
        <ele>3.8</ele>
        <time>2021-09-25T13:08:18Z</time>
      </trkpt>
      <trkpt lat="46.48846" lon="-1.79375">
        <ele>3.8</ele>
        <time>2021-09-25T13:08:19Z</time>
      </trkpt>
      <trkpt lat="46.48847" lon="-1.79376">
        <ele>3.8</ele>
        <time>2021-09-25T13:08:20Z</time>
      </trkpt>
      <trkpt lat="46.48848" lon="-1.79377">
        <ele>3.7</ele>
        <time>2021-09-25T13:08:21Z</time>
      </trkpt>
      <trkpt lat="46.48848" lon="-1.79377">
        <ele>3.7</ele>
        <time>2021-09-25T13:08:22Z</time>
      </trkpt>
      <trkpt lat="46.48849" lon="-1.79378">
        <ele>3.7</ele>
        <time>2021-09-25T13:08:23Z</time>
      </trkpt>
      <trkpt lat="46.4885" lon="-1.79378">
        <ele>3.7</ele>
        <time>2021-09-25T13:08:24Z</time>
      </trkpt>
      <trkpt lat="46.48851" lon="-1.79379">
        <ele>3.7</ele>
        <time>2021-09-25T13:08:25Z</time>
      </trkpt>
      <trkpt lat="46.48852" lon="-1.7938">
        <ele>3.7</ele>
        <time>2021-09-25T13:08:26Z</time>
      </trkpt>
      <trkpt lat="46.48853" lon="-1.7938">
        <ele>3.7</ele>
        <time>2021-09-25T13:08:27Z</time>
      </trkpt>
      <trkpt lat="46.48854" lon="-1.79381">
        <ele>3.7</ele>
        <time>2021-09-25T13:08:28Z</time>
      </trkpt>
      <trkpt lat="46.48854" lon="-1.79381">
        <ele>3.7</ele>
        <time>2021-09-25T13:08:29Z</time>
      </trkpt>
      <trkpt lat="46.48855" lon="-1.79382">
        <ele>3.7</ele>
        <time>2021-09-25T13:08:30Z</time>
      </trkpt>
      <trkpt lat="46.48856" lon="-1.79383">
        <ele>3.7</ele>
        <time>2021-09-25T13:08:31Z</time>
      </trkpt>
      <trkpt lat="46.48857" lon="-1.79383">
        <ele>3.7</ele>
        <time>2021-09-25T13:08:32Z</time>
      </trkpt>
      <trkpt lat="46.48857" lon="-1.79384">
        <ele>3.7</ele>
        <time>2021-09-25T13:08:33Z</time>
      </trkpt>
      <trkpt lat="46.48858" lon="-1.79384">
        <ele>3.7</ele>
        <time>2021-09-25T13:08:34Z</time>
      </trkpt>
      <trkpt lat="46.48859" lon="-1.79385">
        <ele>3.7</ele>
        <time>2021-09-25T13:08:35Z</time>
      </trkpt>
      <trkpt lat="46.48859" lon="-1.79385">
        <ele>3.7</ele>
        <time>2021-09-25T13:08:36Z</time>
      </trkpt>
      <trkpt lat="46.4886" lon="-1.79386">
        <ele>3.7</ele>
        <time>2021-09-25T13:08:37Z</time>
      </trkpt>
      <trkpt lat="46.48861" lon="-1.79386">
        <ele>3.7</ele>
        <time>2021-09-25T13:08:38Z</time>
      </trkpt>
      <trkpt lat="46.48862" lon="-1.79387">
        <ele>3.7</ele>
        <time>2021-09-25T13:08:39Z</time>
      </trkpt>
      <trkpt lat="46.48862" lon="-1.79388">
        <ele>3.7</ele>
        <time>2021-09-25T13:08:40Z</time>
      </trkpt>
      <trkpt lat="46.48863" lon="-1.79388">
        <ele>3.7</ele>
        <time>2021-09-25T13:08:41Z</time>
      </trkpt>
      <trkpt lat="46.48864" lon="-1.79389">
        <ele>3.7</ele>
        <time>2021-09-25T13:08:42Z</time>
      </trkpt>
      <trkpt lat="46.48865" lon="-1.7939">
        <ele>3.7</ele>
        <time>2021-09-25T13:08:43Z</time>
      </trkpt>
      <trkpt lat="46.48866" lon="-1.79391">
        <ele>3.8</ele>
        <time>2021-09-25T13:08:44Z</time>
      </trkpt>
      <trkpt lat="46.48867" lon="-1.79391">
        <ele>3.8</ele>
        <time>2021-09-25T13:08:45Z</time>
      </trkpt>
      <trkpt lat="46.48867" lon="-1.79392">
        <ele>3.8</ele>
        <time>2021-09-25T13:08:46Z</time>
      </trkpt>
      <trkpt lat="46.48868" lon="-1.79393">
        <ele>3.8</ele>
        <time>2021-09-25T13:08:47Z</time>
      </trkpt>
      <trkpt lat="46.48869" lon="-1.79393">
        <ele>3.8</ele>
        <time>2021-09-25T13:08:48Z</time>
      </trkpt>
      <trkpt lat="46.4887" lon="-1.79394">
        <ele>3.8</ele>
        <time>2021-09-25T13:08:49Z</time>
      </trkpt>
      <trkpt lat="46.48871" lon="-1.79395">
        <ele>3.8</ele>
        <time>2021-09-25T13:08:50Z</time>
      </trkpt>
      <trkpt lat="46.48872" lon="-1.79395">
        <ele>3.8</ele>
        <time>2021-09-25T13:08:51Z</time>
      </trkpt>
      <trkpt lat="46.48873" lon="-1.79396">
        <ele>3.8</ele>
        <time>2021-09-25T13:08:52Z</time>
      </trkpt>
      <trkpt lat="46.48874" lon="-1.79396">
        <ele>3.8</ele>
        <time>2021-09-25T13:08:53Z</time>
      </trkpt>
      <trkpt lat="46.48875" lon="-1.79397">
        <ele>3.8</ele>
        <time>2021-09-25T13:08:54Z</time>
      </trkpt>
      <trkpt lat="46.48876" lon="-1.79397">
        <ele>3.9</ele>
        <time>2021-09-25T13:08:55Z</time>
      </trkpt>
      <trkpt lat="46.48877" lon="-1.79397">
        <ele>3.9</ele>
        <time>2021-09-25T13:08:56Z</time>
      </trkpt>
      <trkpt lat="46.48878" lon="-1.79398">
        <ele>3.9</ele>
        <time>2021-09-25T13:08:57Z</time>
      </trkpt>
      <trkpt lat="46.48879" lon="-1.79398">
        <ele>3.9</ele>
        <time>2021-09-25T13:08:58Z</time>
      </trkpt>
      <trkpt lat="46.4888" lon="-1.79398">
        <ele>3.9</ele>
        <time>2021-09-25T13:08:59Z</time>
      </trkpt>
      <trkpt lat="46.48881" lon="-1.79399">
        <ele>3.9</ele>
        <time>2021-09-25T13:09:00Z</time>
      </trkpt>
      <trkpt lat="46.48881" lon="-1.79399">
        <ele>3.9</ele>
        <time>2021-09-25T13:09:01Z</time>
      </trkpt>
      <trkpt lat="46.48882" lon="-1.79399">
        <ele>3.9</ele>
        <time>2021-09-25T13:09:02Z</time>
      </trkpt>
      <trkpt lat="46.48883" lon="-1.794">
        <ele>3.9</ele>
        <time>2021-09-25T13:09:03Z</time>
      </trkpt>
      <trkpt lat="46.48884" lon="-1.794">
        <ele>3.9</ele>
        <time>2021-09-25T13:09:04Z</time>
      </trkpt>
      <trkpt lat="46.48885" lon="-1.79401">
        <ele>3.9</ele>
        <time>2021-09-25T13:09:05Z</time>
      </trkpt>
      <trkpt lat="46.48886" lon="-1.79401">
        <ele>3.9</ele>
        <time>2021-09-25T13:09:06Z</time>
      </trkpt>
      <trkpt lat="46.48887" lon="-1.79402">
        <ele>3.9</ele>
        <time>2021-09-25T13:09:07Z</time>
      </trkpt>
      <trkpt lat="46.48888" lon="-1.79402">
        <ele>3.9</ele>
        <time>2021-09-25T13:09:08Z</time>
      </trkpt>
      <trkpt lat="46.48889" lon="-1.79403">
        <ele>3.9</ele>
        <time>2021-09-25T13:09:09Z</time>
      </trkpt>
      <trkpt lat="46.4889" lon="-1.79403">
        <ele>3.9</ele>
        <time>2021-09-25T13:09:10Z</time>
      </trkpt>
      <trkpt lat="46.48891" lon="-1.79404">
        <ele>3.9</ele>
        <time>2021-09-25T13:09:11Z</time>
      </trkpt>
      <trkpt lat="46.48892" lon="-1.79404">
        <ele>3.9</ele>
        <time>2021-09-25T13:09:12Z</time>
      </trkpt>
      <trkpt lat="46.48893" lon="-1.79405">
        <ele>3.9</ele>
        <time>2021-09-25T13:09:13Z</time>
      </trkpt>
      <trkpt lat="46.48894" lon="-1.79405">
        <ele>3.9</ele>
        <time>2021-09-25T13:09:14Z</time>
      </trkpt>
      <trkpt lat="46.48895" lon="-1.79406">
        <ele>3.9</ele>
        <time>2021-09-25T13:09:15Z</time>
      </trkpt>
      <trkpt lat="46.48896" lon="-1.79406">
        <ele>3.9</ele>
        <time>2021-09-25T13:09:16Z</time>
      </trkpt>
      <trkpt lat="46.48897" lon="-1.79407">
        <ele>3.9</ele>
        <time>2021-09-25T13:09:17Z</time>
      </trkpt>
      <trkpt lat="46.48898" lon="-1.79408">
        <ele>3.9</ele>
        <time>2021-09-25T13:09:18Z</time>
      </trkpt>
      <trkpt lat="46.48899" lon="-1.79408">
        <ele>3.9</ele>
        <time>2021-09-25T13:09:19Z</time>
      </trkpt>
      <trkpt lat="46.489" lon="-1.79409">
        <ele>3.9</ele>
        <time>2021-09-25T13:09:20Z</time>
      </trkpt>
      <trkpt lat="46.48901" lon="-1.7941">
        <ele>3.9</ele>
        <time>2021-09-25T13:09:21Z</time>
      </trkpt>
      <trkpt lat="46.48902" lon="-1.79411">
        <ele>3.9</ele>
        <time>2021-09-25T13:09:22Z</time>
      </trkpt>
      <trkpt lat="46.48903" lon="-1.79411">
        <ele>3.9</ele>
        <time>2021-09-25T13:09:23Z</time>
      </trkpt>
      <trkpt lat="46.48904" lon="-1.79412">
        <ele>3.9</ele>
        <time>2021-09-25T13:09:24Z</time>
      </trkpt>
      <trkpt lat="46.48905" lon="-1.79413">
        <ele>3.9</ele>
        <time>2021-09-25T13:09:25Z</time>
      </trkpt>
      <trkpt lat="46.48906" lon="-1.79413">
        <ele>3.9</ele>
        <time>2021-09-25T13:09:26Z</time>
      </trkpt>
      <trkpt lat="46.48906" lon="-1.79414">
        <ele>3.9</ele>
        <time>2021-09-25T13:09:27Z</time>
      </trkpt>
      <trkpt lat="46.48907" lon="-1.79415">
        <ele>3.9</ele>
        <time>2021-09-25T13:09:28Z</time>
      </trkpt>
      <trkpt lat="46.48908" lon="-1.79415">
        <ele>3.8</ele>
        <time>2021-09-25T13:09:29Z</time>
      </trkpt>
      <trkpt lat="46.48909" lon="-1.79416">
        <ele>3.8</ele>
        <time>2021-09-25T13:09:30Z</time>
      </trkpt>
      <trkpt lat="46.4891" lon="-1.79417">
        <ele>3.8</ele>
        <time>2021-09-25T13:09:31Z</time>
      </trkpt>
      <trkpt lat="46.48911" lon="-1.79417">
        <ele>3.8</ele>
        <time>2021-09-25T13:09:32Z</time>
      </trkpt>
      <trkpt lat="46.48912" lon="-1.79418">
        <ele>3.8</ele>
        <time>2021-09-25T13:09:33Z</time>
      </trkpt>
      <trkpt lat="46.48913" lon="-1.79418">
        <ele>3.8</ele>
        <time>2021-09-25T13:09:34Z</time>
      </trkpt>
      <trkpt lat="46.48914" lon="-1.79419">
        <ele>3.8</ele>
        <time>2021-09-25T13:09:35Z</time>
      </trkpt>
      <trkpt lat="46.48915" lon="-1.79419">
        <ele>3.8</ele>
        <time>2021-09-25T13:09:36Z</time>
      </trkpt>
      <trkpt lat="46.48916" lon="-1.7942">
        <ele>3.9</ele>
        <time>2021-09-25T13:09:37Z</time>
      </trkpt>
      <trkpt lat="46.48916" lon="-1.7942">
        <ele>3.9</ele>
        <time>2021-09-25T13:09:38Z</time>
      </trkpt>
      <trkpt lat="46.48917" lon="-1.7942">
        <ele>3.9</ele>
        <time>2021-09-25T13:09:39Z</time>
      </trkpt>
      <trkpt lat="46.48918" lon="-1.79421">
        <ele>3.9</ele>
        <time>2021-09-25T13:09:40Z</time>
      </trkpt>
      <trkpt lat="46.48919" lon="-1.79421">
        <ele>3.9</ele>
        <time>2021-09-25T13:09:41Z</time>
      </trkpt>
      <trkpt lat="46.4892" lon="-1.79421">
        <ele>3.9</ele>
        <time>2021-09-25T13:09:42Z</time>
      </trkpt>
      <trkpt lat="46.48921" lon="-1.79422">
        <ele>3.9</ele>
        <time>2021-09-25T13:09:43Z</time>
      </trkpt>
      <trkpt lat="46.48922" lon="-1.79422">
        <ele>3.9</ele>
        <time>2021-09-25T13:09:44Z</time>
      </trkpt>
      <trkpt lat="46.48923" lon="-1.79423">
        <ele>3.9</ele>
        <time>2021-09-25T13:09:45Z</time>
      </trkpt>
      <trkpt lat="46.48923" lon="-1.79424">
        <ele>3.9</ele>
        <time>2021-09-25T13:09:46Z</time>
      </trkpt>
      <trkpt lat="46.48924" lon="-1.79424">
        <ele>3.9</ele>
        <time>2021-09-25T13:09:47Z</time>
      </trkpt>
      <trkpt lat="46.48925" lon="-1.79425">
        <ele>3.9</ele>
        <time>2021-09-25T13:09:48Z</time>
      </trkpt>
      <trkpt lat="46.48926" lon="-1.79426">
        <ele>3.9</ele>
        <time>2021-09-25T13:09:49Z</time>
      </trkpt>
      <trkpt lat="46.48927" lon="-1.79426">
        <ele>3.9</ele>
        <time>2021-09-25T13:09:50Z</time>
      </trkpt>
      <trkpt lat="46.48928" lon="-1.79427">
        <ele>3.9</ele>
        <time>2021-09-25T13:09:51Z</time>
      </trkpt>
      <trkpt lat="46.48929" lon="-1.79428">
        <ele>3.9</ele>
        <time>2021-09-25T13:09:52Z</time>
      </trkpt>
      <trkpt lat="46.4893" lon="-1.79428">
        <ele>3.9</ele>
        <time>2021-09-25T13:09:53Z</time>
      </trkpt>
      <trkpt lat="46.48931" lon="-1.79429">
        <ele>3.9</ele>
        <time>2021-09-25T13:09:54Z</time>
      </trkpt>
      <trkpt lat="46.48932" lon="-1.79429">
        <ele>3.9</ele>
        <time>2021-09-25T13:09:55Z</time>
      </trkpt>
      <trkpt lat="46.48933" lon="-1.79429">
        <ele>3.9</ele>
        <time>2021-09-25T13:09:56Z</time>
      </trkpt>
      <trkpt lat="46.48934" lon="-1.7943">
        <ele>3.9</ele>
        <time>2021-09-25T13:09:57Z</time>
      </trkpt>
      <trkpt lat="46.48935" lon="-1.7943">
        <ele>3.9</ele>
        <time>2021-09-25T13:09:58Z</time>
      </trkpt>
      <trkpt lat="46.48937" lon="-1.79431">
        <ele>3.9</ele>
        <time>2021-09-25T13:09:59Z</time>
      </trkpt>
      <trkpt lat="46.48938" lon="-1.79431">
        <ele>4</ele>
        <time>2021-09-25T13:10:00Z</time>
      </trkpt>
      <trkpt lat="46.48939" lon="-1.79432">
        <ele>4</ele>
        <time>2021-09-25T13:10:01Z</time>
      </trkpt>
      <trkpt lat="46.4894" lon="-1.79433">
        <ele>4</ele>
        <time>2021-09-25T13:10:02Z</time>
      </trkpt>
      <trkpt lat="46.48941" lon="-1.79434">
        <ele>4</ele>
        <time>2021-09-25T13:10:03Z</time>
      </trkpt>
      <trkpt lat="46.48942" lon="-1.79434">
        <ele>4</ele>
        <time>2021-09-25T13:10:04Z</time>
      </trkpt>
      <trkpt lat="46.48943" lon="-1.79435">
        <ele>4</ele>
        <time>2021-09-25T13:10:05Z</time>
      </trkpt>
      <trkpt lat="46.48944" lon="-1.79435">
        <ele>4</ele>
        <time>2021-09-25T13:10:06Z</time>
      </trkpt>
      <trkpt lat="46.48945" lon="-1.79435">
        <ele>4</ele>
        <time>2021-09-25T13:10:07Z</time>
      </trkpt>
      <trkpt lat="46.48945" lon="-1.79435">
        <ele>4</ele>
        <time>2021-09-25T13:10:08Z</time>
      </trkpt>
      <trkpt lat="46.48946" lon="-1.79435">
        <ele>4</ele>
        <time>2021-09-25T13:10:09Z</time>
      </trkpt>
      <trkpt lat="46.48947" lon="-1.79436">
        <ele>4.1</ele>
        <time>2021-09-25T13:10:10Z</time>
      </trkpt>
      <trkpt lat="46.48948" lon="-1.79436">
        <ele>4.1</ele>
        <time>2021-09-25T13:10:11Z</time>
      </trkpt>
      <trkpt lat="46.48949" lon="-1.79436">
        <ele>4.1</ele>
        <time>2021-09-25T13:10:12Z</time>
      </trkpt>
      <trkpt lat="46.4895" lon="-1.79437">
        <ele>4.1</ele>
        <time>2021-09-25T13:10:13Z</time>
      </trkpt>
      <trkpt lat="46.4895" lon="-1.79437">
        <ele>4.1</ele>
        <time>2021-09-25T13:10:14Z</time>
      </trkpt>
      <trkpt lat="46.48951" lon="-1.79438">
        <ele>4.1</ele>
        <time>2021-09-25T13:10:15Z</time>
      </trkpt>
      <trkpt lat="46.48952" lon="-1.79438">
        <ele>4.2</ele>
        <time>2021-09-25T13:10:16Z</time>
      </trkpt>
      <trkpt lat="46.48953" lon="-1.79439">
        <ele>4.2</ele>
        <time>2021-09-25T13:10:17Z</time>
      </trkpt>
      <trkpt lat="46.48953" lon="-1.79439">
        <ele>4.2</ele>
        <time>2021-09-25T13:10:18Z</time>
      </trkpt>
      <trkpt lat="46.48954" lon="-1.7944">
        <ele>4.2</ele>
        <time>2021-09-25T13:10:19Z</time>
      </trkpt>
      <trkpt lat="46.48955" lon="-1.7944">
        <ele>4.2</ele>
        <time>2021-09-25T13:10:20Z</time>
      </trkpt>
      <trkpt lat="46.48956" lon="-1.79441">
        <ele>4.3</ele>
        <time>2021-09-25T13:10:21Z</time>
      </trkpt>
      <trkpt lat="46.48956" lon="-1.79441">
        <ele>4.3</ele>
        <time>2021-09-25T13:10:22Z</time>
      </trkpt>
      <trkpt lat="46.48957" lon="-1.79442">
        <ele>4.3</ele>
        <time>2021-09-25T13:10:23Z</time>
      </trkpt>
      <trkpt lat="46.48958" lon="-1.79442">
        <ele>4.4</ele>
        <time>2021-09-25T13:10:24Z</time>
      </trkpt>
      <trkpt lat="46.48959" lon="-1.79442">
        <ele>4.4</ele>
        <time>2021-09-25T13:10:25Z</time>
      </trkpt>
      <trkpt lat="46.48959" lon="-1.79443">
        <ele>4.4</ele>
        <time>2021-09-25T13:10:26Z</time>
      </trkpt>
      <trkpt lat="46.4896" lon="-1.79443">
        <ele>4.5</ele>
        <time>2021-09-25T13:10:27Z</time>
      </trkpt>
      <trkpt lat="46.48961" lon="-1.79444">
        <ele>4.5</ele>
        <time>2021-09-25T13:10:28Z</time>
      </trkpt>
      <trkpt lat="46.48962" lon="-1.79444">
        <ele>4.5</ele>
        <time>2021-09-25T13:10:29Z</time>
      </trkpt>
      <trkpt lat="46.48963" lon="-1.79444">
        <ele>4.6</ele>
        <time>2021-09-25T13:10:30Z</time>
      </trkpt>
      <trkpt lat="46.48963" lon="-1.79445">
        <ele>4.6</ele>
        <time>2021-09-25T13:10:31Z</time>
      </trkpt>
      <trkpt lat="46.48964" lon="-1.79445">
        <ele>4.7</ele>
        <time>2021-09-25T13:10:32Z</time>
      </trkpt>
      <trkpt lat="46.48965" lon="-1.79445">
        <ele>4.7</ele>
        <time>2021-09-25T13:10:33Z</time>
      </trkpt>
      <trkpt lat="46.48966" lon="-1.79446">
        <ele>4.8</ele>
        <time>2021-09-25T13:10:34Z</time>
      </trkpt>
      <trkpt lat="46.48967" lon="-1.79446">
        <ele>4.8</ele>
        <time>2021-09-25T13:10:35Z</time>
      </trkpt>
      <trkpt lat="46.48968" lon="-1.79446">
        <ele>4.9</ele>
        <time>2021-09-25T13:10:36Z</time>
      </trkpt>
      <trkpt lat="46.48968" lon="-1.79447">
        <ele>4.9</ele>
        <time>2021-09-25T13:10:37Z</time>
      </trkpt>
      <trkpt lat="46.48969" lon="-1.79447">
        <ele>5</ele>
        <time>2021-09-25T13:10:38Z</time>
      </trkpt>
      <trkpt lat="46.4897" lon="-1.79447">
        <ele>5</ele>
        <time>2021-09-25T13:10:39Z</time>
      </trkpt>
      <trkpt lat="46.48971" lon="-1.79448">
        <ele>5.1</ele>
        <time>2021-09-25T13:10:40Z</time>
      </trkpt>
      <trkpt lat="46.48972" lon="-1.79448">
        <ele>5.1</ele>
        <time>2021-09-25T13:10:41Z</time>
      </trkpt>
      <trkpt lat="46.48972" lon="-1.79449">
        <ele>5.2</ele>
        <time>2021-09-25T13:10:42Z</time>
      </trkpt>
      <trkpt lat="46.48973" lon="-1.79449">
        <ele>5.2</ele>
        <time>2021-09-25T13:10:43Z</time>
      </trkpt>
      <trkpt lat="46.48974" lon="-1.79449">
        <ele>5.2</ele>
        <time>2021-09-25T13:10:44Z</time>
      </trkpt>
      <trkpt lat="46.48974" lon="-1.7945">
        <ele>5.2</ele>
        <time>2021-09-25T13:10:45Z</time>
      </trkpt>
      <trkpt lat="46.48975" lon="-1.7945">
        <ele>5.2</ele>
        <time>2021-09-25T13:10:46Z</time>
      </trkpt>
      <trkpt lat="46.48976" lon="-1.79451">
        <ele>5.2</ele>
        <time>2021-09-25T13:10:47Z</time>
      </trkpt>
      <trkpt lat="46.48976" lon="-1.79451">
        <ele>5.2</ele>
        <time>2021-09-25T13:10:48Z</time>
      </trkpt>
      <trkpt lat="46.48977" lon="-1.79452">
        <ele>5.2</ele>
        <time>2021-09-25T13:10:49Z</time>
      </trkpt>
      <trkpt lat="46.48977" lon="-1.79453">
        <ele>5.1</ele>
        <time>2021-09-25T13:10:50Z</time>
      </trkpt>
      <trkpt lat="46.48977" lon="-1.79453">
        <ele>5.1</ele>
        <time>2021-09-25T13:10:51Z</time>
      </trkpt>
      <trkpt lat="46.48978" lon="-1.79454">
        <ele>5.1</ele>
        <time>2021-09-25T13:10:52Z</time>
      </trkpt>
      <trkpt lat="46.48978" lon="-1.79455">
        <ele>5.1</ele>
        <time>2021-09-25T13:10:53Z</time>
      </trkpt>
      <trkpt lat="46.48978" lon="-1.79455">
        <ele>5.1</ele>
        <time>2021-09-25T13:10:54Z</time>
      </trkpt>
      <trkpt lat="46.48979" lon="-1.79456">
        <ele>5.1</ele>
        <time>2021-09-25T13:10:55Z</time>
      </trkpt>
      <trkpt lat="46.48979" lon="-1.79457">
        <ele>5.1</ele>
        <time>2021-09-25T13:10:56Z</time>
      </trkpt>
      <trkpt lat="46.48979" lon="-1.79458">
        <ele>5.1</ele>
        <time>2021-09-25T13:10:57Z</time>
      </trkpt>
      <trkpt lat="46.48979" lon="-1.79458">
        <ele>5.1</ele>
        <time>2021-09-25T13:10:58Z</time>
      </trkpt>
      <trkpt lat="46.48979" lon="-1.79459">
        <ele>5.1</ele>
        <time>2021-09-25T13:10:59Z</time>
      </trkpt>
      <trkpt lat="46.48979" lon="-1.7946">
        <ele>5.1</ele>
        <time>2021-09-25T13:11:00Z</time>
      </trkpt>
      <trkpt lat="46.48979" lon="-1.79461">
        <ele>5.1</ele>
        <time>2021-09-25T13:11:01Z</time>
      </trkpt>
      <trkpt lat="46.48979" lon="-1.79462">
        <ele>5.1</ele>
        <time>2021-09-25T13:11:02Z</time>
      </trkpt>
      <trkpt lat="46.48979" lon="-1.79463">
        <ele>5.1</ele>
        <time>2021-09-25T13:11:03Z</time>
      </trkpt>
      <trkpt lat="46.48979" lon="-1.79464">
        <ele>5</ele>
        <time>2021-09-25T13:11:04Z</time>
      </trkpt>
      <trkpt lat="46.48979" lon="-1.79465">
        <ele>5</ele>
        <time>2021-09-25T13:11:05Z</time>
      </trkpt>
      <trkpt lat="46.48979" lon="-1.79466">
        <ele>5</ele>
        <time>2021-09-25T13:11:06Z</time>
      </trkpt>
      <trkpt lat="46.48979" lon="-1.79467">
        <ele>5</ele>
        <time>2021-09-25T13:11:07Z</time>
      </trkpt>
      <trkpt lat="46.48979" lon="-1.79468">
        <ele>5</ele>
        <time>2021-09-25T13:11:08Z</time>
      </trkpt>
      <trkpt lat="46.48979" lon="-1.79469">
        <ele>5.1</ele>
        <time>2021-09-25T13:11:09Z</time>
      </trkpt>
      <trkpt lat="46.48978" lon="-1.7947">
        <ele>5.1</ele>
        <time>2021-09-25T13:11:10Z</time>
      </trkpt>
      <trkpt lat="46.48978" lon="-1.79471">
        <ele>5.1</ele>
        <time>2021-09-25T13:11:11Z</time>
      </trkpt>
      <trkpt lat="46.48978" lon="-1.79472">
        <ele>5.1</ele>
        <time>2021-09-25T13:11:12Z</time>
      </trkpt>
      <trkpt lat="46.48978" lon="-1.79473">
        <ele>5.3</ele>
        <time>2021-09-25T13:11:13Z</time>
      </trkpt>
      <trkpt lat="46.48977" lon="-1.79474">
        <ele>5.3</ele>
        <time>2021-09-25T13:11:14Z</time>
      </trkpt>
      <trkpt lat="46.48977" lon="-1.79475">
        <ele>5.3</ele>
        <time>2021-09-25T13:11:15Z</time>
      </trkpt>
      <trkpt lat="46.48977" lon="-1.79476">
        <ele>5.3</ele>
        <time>2021-09-25T13:11:16Z</time>
      </trkpt>
      <trkpt lat="46.48976" lon="-1.79477">
        <ele>4.6</ele>
        <time>2021-09-25T13:11:17Z</time>
      </trkpt>
      <trkpt lat="46.48976" lon="-1.79478">
        <ele>4.6</ele>
        <time>2021-09-25T13:11:18Z</time>
      </trkpt>
      <trkpt lat="46.48975" lon="-1.79479">
        <ele>4.6</ele>
        <time>2021-09-25T13:11:19Z</time>
      </trkpt>
      <trkpt lat="46.48975" lon="-1.7948">
        <ele>4.6</ele>
        <time>2021-09-25T13:11:20Z</time>
      </trkpt>
      <trkpt lat="46.48974" lon="-1.79482">
        <ele>4.8</ele>
        <time>2021-09-25T13:11:21Z</time>
      </trkpt>
      <trkpt lat="46.48973" lon="-1.79483">
        <ele>3.9</ele>
        <time>2021-09-25T13:11:22Z</time>
      </trkpt>
      <trkpt lat="46.48973" lon="-1.79484">
        <ele>3.9</ele>
        <time>2021-09-25T13:11:23Z</time>
      </trkpt>
      <trkpt lat="46.48972" lon="-1.79485">
        <ele>3.9</ele>
        <time>2021-09-25T13:11:24Z</time>
      </trkpt>
      <trkpt lat="46.48971" lon="-1.79486">
        <ele>4</ele>
        <time>2021-09-25T13:11:25Z</time>
      </trkpt>
      <trkpt lat="46.48971" lon="-1.79487">
        <ele>3.1</ele>
        <time>2021-09-25T13:11:26Z</time>
      </trkpt>
      <trkpt lat="46.4897" lon="-1.79488">
        <ele>3.1</ele>
        <time>2021-09-25T13:11:27Z</time>
      </trkpt>
      <trkpt lat="46.48969" lon="-1.79488">
        <ele>3.1</ele>
        <time>2021-09-25T13:11:28Z</time>
      </trkpt>
      <trkpt lat="46.48969" lon="-1.79489">
        <ele>3.1</ele>
        <time>2021-09-25T13:11:29Z</time>
      </trkpt>
      <trkpt lat="46.48968" lon="-1.79489">
        <ele>3.1</ele>
        <time>2021-09-25T13:11:30Z</time>
      </trkpt>
      <trkpt lat="46.48967" lon="-1.79489">
        <ele>2.4</ele>
        <time>2021-09-25T13:11:31Z</time>
      </trkpt>
      <trkpt lat="46.48967" lon="-1.79489">
        <ele>2.3</ele>
        <time>2021-09-25T13:11:32Z</time>
      </trkpt>
      <trkpt lat="46.48966" lon="-1.79489">
        <ele>2.3</ele>
        <time>2021-09-25T13:11:33Z</time>
      </trkpt>
      <trkpt lat="46.48966" lon="-1.79489">
        <ele>2.3</ele>
        <time>2021-09-25T13:11:34Z</time>
      </trkpt>
      <trkpt lat="46.48965" lon="-1.79488">
        <ele>2.3</ele>
        <time>2021-09-25T13:11:35Z</time>
      </trkpt>
      <trkpt lat="46.48964" lon="-1.79488">
        <ele>1.6</ele>
        <time>2021-09-25T13:11:36Z</time>
      </trkpt>
      <trkpt lat="46.48963" lon="-1.79488">
        <ele>1.6</ele>
        <time>2021-09-25T13:11:37Z</time>
      </trkpt>
      <trkpt lat="46.48963" lon="-1.79489">
        <ele>1.6</ele>
        <time>2021-09-25T13:11:38Z</time>
      </trkpt>
      <trkpt lat="46.48962" lon="-1.7949">
        <ele>1</ele>
        <time>2021-09-25T13:11:39Z</time>
      </trkpt>
      <trkpt lat="46.48961" lon="-1.79491">
        <ele>1</ele>
        <time>2021-09-25T13:11:40Z</time>
      </trkpt>
      <trkpt lat="46.4896" lon="-1.79492">
        <ele>1</ele>
        <time>2021-09-25T13:11:41Z</time>
      </trkpt>
      <trkpt lat="46.4896" lon="-1.79492">
        <ele>1</ele>
        <time>2021-09-25T13:11:42Z</time>
      </trkpt>
      <trkpt lat="46.4896" lon="-1.79493">
        <ele>1</ele>
        <time>2021-09-25T13:11:43Z</time>
      </trkpt>
      <trkpt lat="46.4896" lon="-1.79492">
        <ele>1</ele>
        <time>2021-09-25T13:11:44Z</time>
      </trkpt>
      <trkpt lat="46.4896" lon="-1.79492">
        <ele>1</ele>
        <time>2021-09-25T13:11:45Z</time>
      </trkpt>
      <trkpt lat="46.4896" lon="-1.79492">
        <ele>1</ele>
        <time>2021-09-25T13:11:46Z</time>
      </trkpt>
      <trkpt lat="46.48961" lon="-1.79492">
        <ele>1</ele>
        <time>2021-09-25T13:11:47Z</time>
      </trkpt>
      <trkpt lat="46.48961" lon="-1.79492">
        <ele>1</ele>
        <time>2021-09-25T13:11:48Z</time>
      </trkpt>
      <trkpt lat="46.48962" lon="-1.79492">
        <ele>1.7</ele>
        <time>2021-09-25T13:11:49Z</time>
      </trkpt>
      <trkpt lat="46.48963" lon="-1.79492">
        <ele>1.7</ele>
        <time>2021-09-25T13:11:50Z</time>
      </trkpt>
      <trkpt lat="46.48963" lon="-1.79493">
        <ele>1.7</ele>
        <time>2021-09-25T13:11:51Z</time>
      </trkpt>
      <trkpt lat="46.48964" lon="-1.79493">
        <ele>1.7</ele>
        <time>2021-09-25T13:11:52Z</time>
      </trkpt>
      <trkpt lat="46.48965" lon="-1.79494">
        <ele>2.5</ele>
        <time>2021-09-25T13:11:53Z</time>
      </trkpt>
      <trkpt lat="46.48966" lon="-1.79494">
        <ele>2.5</ele>
        <time>2021-09-25T13:11:54Z</time>
      </trkpt>
      <trkpt lat="46.48967" lon="-1.79495">
        <ele>2.5</ele>
        <time>2021-09-25T13:11:55Z</time>
      </trkpt>
      <trkpt lat="46.48967" lon="-1.79495">
        <ele>2.5</ele>
        <time>2021-09-25T13:11:56Z</time>
      </trkpt>
      <trkpt lat="46.48968" lon="-1.79496">
        <ele>3.4</ele>
        <time>2021-09-25T13:11:57Z</time>
      </trkpt>
      <trkpt lat="46.48969" lon="-1.79496">
        <ele>3.4</ele>
        <time>2021-09-25T13:11:58Z</time>
      </trkpt>
      <trkpt lat="46.4897" lon="-1.79497">
        <ele>3.4</ele>
        <time>2021-09-25T13:11:59Z</time>
      </trkpt>
      <trkpt lat="46.48971" lon="-1.79498">
        <ele>4.3</ele>
        <time>2021-09-25T13:12:00Z</time>
      </trkpt>
      <trkpt lat="46.48972" lon="-1.79498">
        <ele>4.4</ele>
        <time>2021-09-25T13:12:01Z</time>
      </trkpt>
      <trkpt lat="46.48973" lon="-1.79499">
        <ele>4.4</ele>
        <time>2021-09-25T13:12:02Z</time>
      </trkpt>
      <trkpt lat="46.48974" lon="-1.79499">
        <ele>5.4</ele>
        <time>2021-09-25T13:12:03Z</time>
      </trkpt>
      <trkpt lat="46.48975" lon="-1.79499">
        <ele>5.4</ele>
        <time>2021-09-25T13:12:04Z</time>
      </trkpt>
      <trkpt lat="46.48976" lon="-1.795">
        <ele>5.4</ele>
        <time>2021-09-25T13:12:05Z</time>
      </trkpt>
      <trkpt lat="46.48977" lon="-1.795">
        <ele>5.4</ele>
        <time>2021-09-25T13:12:06Z</time>
      </trkpt>
      <trkpt lat="46.48978" lon="-1.795">
        <ele>6.3</ele>
        <time>2021-09-25T13:12:07Z</time>
      </trkpt>
      <trkpt lat="46.48978" lon="-1.795">
        <ele>6.3</ele>
        <time>2021-09-25T13:12:08Z</time>
      </trkpt>
      <trkpt lat="46.48979" lon="-1.79501">
        <ele>6.3</ele>
        <time>2021-09-25T13:12:09Z</time>
      </trkpt>
      <trkpt lat="46.4898" lon="-1.79501">
        <ele>7.2</ele>
        <time>2021-09-25T13:12:10Z</time>
      </trkpt>
      <trkpt lat="46.48981" lon="-1.795">
        <ele>7.2</ele>
        <time>2021-09-25T13:12:11Z</time>
      </trkpt>
      <trkpt lat="46.48982" lon="-1.795">
        <ele>7.2</ele>
        <time>2021-09-25T13:12:12Z</time>
      </trkpt>
      <trkpt lat="46.48983" lon="-1.795">
        <ele>8</ele>
        <time>2021-09-25T13:12:13Z</time>
      </trkpt>
      <trkpt lat="46.48984" lon="-1.795">
        <ele>8</ele>
        <time>2021-09-25T13:12:14Z</time>
      </trkpt>
      <trkpt lat="46.48985" lon="-1.79499">
        <ele>8</ele>
        <time>2021-09-25T13:12:15Z</time>
      </trkpt>
      <trkpt lat="46.48986" lon="-1.79499">
        <ele>8.7</ele>
        <time>2021-09-25T13:12:16Z</time>
      </trkpt>
      <trkpt lat="46.48987" lon="-1.79498">
        <ele>8.7</ele>
        <time>2021-09-25T13:12:17Z</time>
      </trkpt>
      <trkpt lat="46.48987" lon="-1.79498">
        <ele>8.5</ele>
        <time>2021-09-25T13:12:18Z</time>
      </trkpt>
      <trkpt lat="46.48988" lon="-1.79497">
        <ele>8.5</ele>
        <time>2021-09-25T13:12:19Z</time>
      </trkpt>
      <trkpt lat="46.48989" lon="-1.79496">
        <ele>9</ele>
        <time>2021-09-25T13:12:20Z</time>
      </trkpt>
      <trkpt lat="46.4899" lon="-1.79496">
        <ele>9</ele>
        <time>2021-09-25T13:12:21Z</time>
      </trkpt>
      <trkpt lat="46.48991" lon="-1.79495">
        <ele>9</ele>
        <time>2021-09-25T13:12:22Z</time>
      </trkpt>
      <trkpt lat="46.48992" lon="-1.79494">
        <ele>9.4</ele>
        <time>2021-09-25T13:12:23Z</time>
      </trkpt>
      <trkpt lat="46.48993" lon="-1.79494">
        <ele>9.4</ele>
        <time>2021-09-25T13:12:24Z</time>
      </trkpt>
      <trkpt lat="46.48993" lon="-1.79493">
        <ele>9.2</ele>
        <time>2021-09-25T13:12:25Z</time>
      </trkpt>
      <trkpt lat="46.48994" lon="-1.79493">
        <ele>9.2</ele>
        <time>2021-09-25T13:12:26Z</time>
      </trkpt>
      <trkpt lat="46.48995" lon="-1.79492">
        <ele>9.5</ele>
        <time>2021-09-25T13:12:27Z</time>
      </trkpt>
      <trkpt lat="46.48996" lon="-1.79492">
        <ele>9.5</ele>
        <time>2021-09-25T13:12:28Z</time>
      </trkpt>
      <trkpt lat="46.48996" lon="-1.79492">
        <ele>9.5</ele>
        <time>2021-09-25T13:12:29Z</time>
      </trkpt>
      <trkpt lat="46.48997" lon="-1.79491">
        <ele>9.5</ele>
        <time>2021-09-25T13:12:30Z</time>
      </trkpt>
      <trkpt lat="46.48997" lon="-1.79491">
        <ele>9.5</ele>
        <time>2021-09-25T13:12:31Z</time>
      </trkpt>
      <trkpt lat="46.48998" lon="-1.79491">
        <ele>9.7</ele>
        <time>2021-09-25T13:12:32Z</time>
      </trkpt>
      <trkpt lat="46.48998" lon="-1.79491">
        <ele>9.7</ele>
        <time>2021-09-25T13:12:33Z</time>
      </trkpt>
      <trkpt lat="46.48998" lon="-1.7949">
        <ele>9.7</ele>
        <time>2021-09-25T13:12:34Z</time>
      </trkpt>
      <trkpt lat="46.48998" lon="-1.7949">
        <ele>9.7</ele>
        <time>2021-09-25T13:12:35Z</time>
      </trkpt>
      <trkpt lat="46.48998" lon="-1.7949">
        <ele>9.7</ele>
        <time>2021-09-25T13:12:36Z</time>
      </trkpt>
      <trkpt lat="46.48998" lon="-1.7949">
        <ele>9.7</ele>
        <time>2021-09-25T13:12:37Z</time>
      </trkpt>
      <trkpt lat="46.48998" lon="-1.7949">
        <ele>9.7</ele>
        <time>2021-09-25T13:12:38Z</time>
      </trkpt>
      <trkpt lat="46.48998" lon="-1.7949">
        <ele>9.7</ele>
        <time>2021-09-25T13:12:39Z</time>
      </trkpt>
      <trkpt lat="46.48998" lon="-1.7949">
        <ele>9.7</ele>
        <time>2021-09-25T13:12:40Z</time>
      </trkpt>
      <trkpt lat="46.48998" lon="-1.7949">
        <ele>9.7</ele>
        <time>2021-09-25T13:12:41Z</time>
      </trkpt>
      <trkpt lat="46.48998" lon="-1.7949">
        <ele>9.7</ele>
        <time>2021-09-25T13:12:42Z</time>
      </trkpt>
      <trkpt lat="46.48998" lon="-1.79491">
        <ele>9.7</ele>
        <time>2021-09-25T13:12:43Z</time>
      </trkpt>
      <trkpt lat="46.48998" lon="-1.79491">
        <ele>9.7</ele>
        <time>2021-09-25T13:12:44Z</time>
      </trkpt>
      <trkpt lat="46.48998" lon="-1.79491">
        <ele>9.7</ele>
        <time>2021-09-25T13:12:45Z</time>
      </trkpt>
      <trkpt lat="46.48999" lon="-1.79491">
        <ele>9.7</ele>
        <time>2021-09-25T13:12:46Z</time>
      </trkpt>
      <trkpt lat="46.48999" lon="-1.79491">
        <ele>9.7</ele>
        <time>2021-09-25T13:12:47Z</time>
      </trkpt>
      <trkpt lat="46.48999" lon="-1.79492">
        <ele>9.7</ele>
        <time>2021-09-25T13:12:48Z</time>
      </trkpt>
      <trkpt lat="46.49" lon="-1.79492">
        <ele>9.7</ele>
        <time>2021-09-25T13:12:49Z</time>
      </trkpt>
      <trkpt lat="46.49" lon="-1.79493">
        <ele>9.8</ele>
        <time>2021-09-25T13:12:50Z</time>
      </trkpt>
      <trkpt lat="46.49001" lon="-1.79493">
        <ele>9.8</ele>
        <time>2021-09-25T13:12:51Z</time>
      </trkpt>
      <trkpt lat="46.49001" lon="-1.79494">
        <ele>10</ele>
        <time>2021-09-25T13:12:52Z</time>
      </trkpt>
      <trkpt lat="46.49001" lon="-1.79495">
        <ele>10</ele>
        <time>2021-09-25T13:12:53Z</time>
      </trkpt>
      <trkpt lat="46.49002" lon="-1.79496">
        <ele>10</ele>
        <time>2021-09-25T13:12:54Z</time>
      </trkpt>
      <trkpt lat="46.49002" lon="-1.79497">
        <ele>10</ele>
        <time>2021-09-25T13:12:55Z</time>
      </trkpt>
      <trkpt lat="46.49002" lon="-1.79499">
        <ele>10.2</ele>
        <time>2021-09-25T13:12:56Z</time>
      </trkpt>
      <trkpt lat="46.49002" lon="-1.795">
        <ele>10.2</ele>
        <time>2021-09-25T13:12:57Z</time>
      </trkpt>
      <trkpt lat="46.49003" lon="-1.79501">
        <ele>10.2</ele>
        <time>2021-09-25T13:12:58Z</time>
      </trkpt>
      <trkpt lat="46.49003" lon="-1.79502">
        <ele>10.4</ele>
        <time>2021-09-25T13:12:59Z</time>
      </trkpt>
      <trkpt lat="46.49003" lon="-1.79504">
        <ele>10.4</ele>
        <time>2021-09-25T13:13:00Z</time>
      </trkpt>
      <trkpt lat="46.49003" lon="-1.79505">
        <ele>10.4</ele>
        <time>2021-09-25T13:13:01Z</time>
      </trkpt>
      <trkpt lat="46.49004" lon="-1.79507">
        <ele>10.6</ele>
        <time>2021-09-25T13:13:02Z</time>
      </trkpt>
      <trkpt lat="46.49004" lon="-1.79508">
        <ele>10.6</ele>
        <time>2021-09-25T13:13:03Z</time>
      </trkpt>
      <trkpt lat="46.49004" lon="-1.7951">
        <ele>10.6</ele>
        <time>2021-09-25T13:13:04Z</time>
      </trkpt>
      <trkpt lat="46.49005" lon="-1.79511">
        <ele>10.8</ele>
        <time>2021-09-25T13:13:05Z</time>
      </trkpt>
      <trkpt lat="46.49005" lon="-1.79512">
        <ele>10.8</ele>
        <time>2021-09-25T13:13:06Z</time>
      </trkpt>
      <trkpt lat="46.49005" lon="-1.79514">
        <ele>10.8</ele>
        <time>2021-09-25T13:13:07Z</time>
      </trkpt>
      <trkpt lat="46.49005" lon="-1.79515">
        <ele>11</ele>
        <time>2021-09-25T13:13:08Z</time>
      </trkpt>
      <trkpt lat="46.49006" lon="-1.79517">
        <ele>11</ele>
        <time>2021-09-25T13:13:09Z</time>
      </trkpt>
      <trkpt lat="46.49006" lon="-1.79518">
        <ele>11</ele>
        <time>2021-09-25T13:13:10Z</time>
      </trkpt>
      <trkpt lat="46.49006" lon="-1.79519">
        <ele>11.2</ele>
        <time>2021-09-25T13:13:11Z</time>
      </trkpt>
      <trkpt lat="46.49006" lon="-1.79521">
        <ele>11.2</ele>
        <time>2021-09-25T13:13:12Z</time>
      </trkpt>
      <trkpt lat="46.49007" lon="-1.79522">
        <ele>11.2</ele>
        <time>2021-09-25T13:13:13Z</time>
      </trkpt>
      <trkpt lat="46.49007" lon="-1.79524">
        <ele>11.4</ele>
        <time>2021-09-25T13:13:14Z</time>
      </trkpt>
      <trkpt lat="46.49007" lon="-1.79525">
        <ele>11.4</ele>
        <time>2021-09-25T13:13:15Z</time>
      </trkpt>
      <trkpt lat="46.49007" lon="-1.79526">
        <ele>11.4</ele>
        <time>2021-09-25T13:13:16Z</time>
      </trkpt>
      <trkpt lat="46.49007" lon="-1.79528">
        <ele>11.6</ele>
        <time>2021-09-25T13:13:17Z</time>
      </trkpt>
      <trkpt lat="46.49007" lon="-1.79529">
        <ele>11.6</ele>
        <time>2021-09-25T13:13:18Z</time>
      </trkpt>
      <trkpt lat="46.49007" lon="-1.79531">
        <ele>11.6</ele>
        <time>2021-09-25T13:13:19Z</time>
      </trkpt>
      <trkpt lat="46.49007" lon="-1.79532">
        <ele>11.6</ele>
        <time>2021-09-25T13:13:20Z</time>
      </trkpt>
      <trkpt lat="46.49007" lon="-1.79533">
        <ele>11.8</ele>
        <time>2021-09-25T13:13:21Z</time>
      </trkpt>
      <trkpt lat="46.49006" lon="-1.79535">
        <ele>11.8</ele>
        <time>2021-09-25T13:13:22Z</time>
      </trkpt>
      <trkpt lat="46.49006" lon="-1.79536">
        <ele>11.8</ele>
        <time>2021-09-25T13:13:23Z</time>
      </trkpt>
      <trkpt lat="46.49006" lon="-1.79538">
        <ele>12</ele>
        <time>2021-09-25T13:13:24Z</time>
      </trkpt>
      <trkpt lat="46.49005" lon="-1.79539">
        <ele>12</ele>
        <time>2021-09-25T13:13:25Z</time>
      </trkpt>
      <trkpt lat="46.49005" lon="-1.7954">
        <ele>12</ele>
        <time>2021-09-25T13:13:26Z</time>
      </trkpt>
      <trkpt lat="46.49004" lon="-1.79542">
        <ele>12.1</ele>
        <time>2021-09-25T13:13:27Z</time>
      </trkpt>
      <trkpt lat="46.49004" lon="-1.79543">
        <ele>12.1</ele>
        <time>2021-09-25T13:13:28Z</time>
      </trkpt>
      <trkpt lat="46.49003" lon="-1.79544">
        <ele>12.1</ele>
        <time>2021-09-25T13:13:29Z</time>
      </trkpt>
      <trkpt lat="46.49003" lon="-1.79545">
        <ele>12.2</ele>
        <time>2021-09-25T13:13:30Z</time>
      </trkpt>
      <trkpt lat="46.49002" lon="-1.79546">
        <ele>12.2</ele>
        <time>2021-09-25T13:13:31Z</time>
      </trkpt>
      <trkpt lat="46.49001" lon="-1.79547">
        <ele>12.2</ele>
        <time>2021-09-25T13:13:32Z</time>
      </trkpt>
      <trkpt lat="46.49001" lon="-1.79548">
        <ele>12.2</ele>
        <time>2021-09-25T13:13:33Z</time>
      </trkpt>
      <trkpt lat="46.49" lon="-1.79549">
        <ele>12.1</ele>
        <time>2021-09-25T13:13:34Z</time>
      </trkpt>
      <trkpt lat="46.48999" lon="-1.79549">
        <ele>12.1</ele>
        <time>2021-09-25T13:13:35Z</time>
      </trkpt>
      <trkpt lat="46.48999" lon="-1.7955">
        <ele>12.3</ele>
        <time>2021-09-25T13:13:36Z</time>
      </trkpt>
      <trkpt lat="46.48998" lon="-1.7955">
        <ele>12.3</ele>
        <time>2021-09-25T13:13:37Z</time>
      </trkpt>
      <trkpt lat="46.48998" lon="-1.7955">
        <ele>12.3</ele>
        <time>2021-09-25T13:13:38Z</time>
      </trkpt>
      <trkpt lat="46.48997" lon="-1.7955">
        <ele>12</ele>
        <time>2021-09-25T13:13:39Z</time>
      </trkpt>
      <trkpt lat="46.48997" lon="-1.79549">
        <ele>11.9</ele>
        <time>2021-09-25T13:13:40Z</time>
      </trkpt>
      <trkpt lat="46.48996" lon="-1.79549">
        <ele>11.9</ele>
        <time>2021-09-25T13:13:41Z</time>
      </trkpt>
      <trkpt lat="46.48996" lon="-1.79548">
        <ele>11.9</ele>
        <time>2021-09-25T13:13:42Z</time>
      </trkpt>
      <trkpt lat="46.48996" lon="-1.79547">
        <ele>11.9</ele>
        <time>2021-09-25T13:13:43Z</time>
      </trkpt>
      <trkpt lat="46.48996" lon="-1.79547">
        <ele>11.9</ele>
        <time>2021-09-25T13:13:44Z</time>
      </trkpt>
      <trkpt lat="46.48996" lon="-1.79546">
        <ele>11.9</ele>
        <time>2021-09-25T13:13:45Z</time>
      </trkpt>
      <trkpt lat="46.48996" lon="-1.79546">
        <ele>11.9</ele>
        <time>2021-09-25T13:13:46Z</time>
      </trkpt>
      <trkpt lat="46.48996" lon="-1.79546">
        <ele>11.9</ele>
        <time>2021-09-25T13:13:47Z</time>
      </trkpt>
      <trkpt lat="46.48997" lon="-1.79546">
        <ele>11.9</ele>
        <time>2021-09-25T13:13:48Z</time>
      </trkpt>
      <trkpt lat="46.48997" lon="-1.79546">
        <ele>11.9</ele>
        <time>2021-09-25T13:13:49Z</time>
      </trkpt>
      <trkpt lat="46.48997" lon="-1.79546">
        <ele>12.1</ele>
        <time>2021-09-25T13:13:50Z</time>
      </trkpt>
      <trkpt lat="46.48998" lon="-1.79546">
        <ele>12.1</ele>
        <time>2021-09-25T13:13:51Z</time>
      </trkpt>
      <trkpt lat="46.48998" lon="-1.79547">
        <ele>12.1</ele>
        <time>2021-09-25T13:13:52Z</time>
      </trkpt>
      <trkpt lat="46.48999" lon="-1.79548">
        <ele>12.1</ele>
        <time>2021-09-25T13:13:53Z</time>
      </trkpt>
      <trkpt lat="46.48999" lon="-1.79549">
        <ele>12.1</ele>
        <time>2021-09-25T13:13:54Z</time>
      </trkpt>
      <trkpt lat="46.49" lon="-1.7955">
        <ele>12.3</ele>
        <time>2021-09-25T13:13:55Z</time>
      </trkpt>
      <trkpt lat="46.49" lon="-1.79551">
        <ele>12.3</ele>
        <time>2021-09-25T13:13:56Z</time>
      </trkpt>
      <trkpt lat="46.49" lon="-1.79551">
        <ele>12.3</ele>
        <time>2021-09-25T13:13:57Z</time>
      </trkpt>
      <trkpt lat="46.49" lon="-1.79552">
        <ele>12.3</ele>
        <time>2021-09-25T13:13:58Z</time>
      </trkpt>
      <trkpt lat="46.49" lon="-1.79553">
        <ele>12.4</ele>
        <time>2021-09-25T13:13:59Z</time>
      </trkpt>
      <trkpt lat="46.49001" lon="-1.79554">
        <ele>12.6</ele>
        <time>2021-09-25T13:14:00Z</time>
      </trkpt>
      <trkpt lat="46.49001" lon="-1.79554">
        <ele>12.6</ele>
        <time>2021-09-25T13:14:01Z</time>
      </trkpt>
      <trkpt lat="46.49001" lon="-1.79555">
        <ele>12.6</ele>
        <time>2021-09-25T13:14:02Z</time>
      </trkpt>
      <trkpt lat="46.49001" lon="-1.79556">
        <ele>12.6</ele>
        <time>2021-09-25T13:14:03Z</time>
      </trkpt>
      <trkpt lat="46.49001" lon="-1.79555">
        <ele>12.6</ele>
        <time>2021-09-25T13:14:04Z</time>
      </trkpt>
      <trkpt lat="46.49001" lon="-1.79555">
        <ele>12.6</ele>
        <time>2021-09-25T13:14:05Z</time>
      </trkpt>
      <trkpt lat="46.49001" lon="-1.79555">
        <ele>12.6</ele>
        <time>2021-09-25T13:14:06Z</time>
      </trkpt>
      <trkpt lat="46.49002" lon="-1.79555">
        <ele>12.6</ele>
        <time>2021-09-25T13:14:07Z</time>
      </trkpt>
      <trkpt lat="46.49002" lon="-1.79555">
        <ele>12.6</ele>
        <time>2021-09-25T13:14:08Z</time>
      </trkpt>
      <trkpt lat="46.49002" lon="-1.79555">
        <ele>12.6</ele>
        <time>2021-09-25T13:14:09Z</time>
      </trkpt>
      <trkpt lat="46.49002" lon="-1.79554">
        <ele>12.6</ele>
        <time>2021-09-25T13:14:10Z</time>
      </trkpt>
      <trkpt lat="46.49002" lon="-1.79554">
        <ele>12.6</ele>
        <time>2021-09-25T13:14:11Z</time>
      </trkpt>
      <trkpt lat="46.49002" lon="-1.79554">
        <ele>12.6</ele>
        <time>2021-09-25T13:14:12Z</time>
      </trkpt>
      <trkpt lat="46.49002" lon="-1.79554">
        <ele>12.6</ele>
        <time>2021-09-25T13:14:13Z</time>
      </trkpt>
      <trkpt lat="46.49003" lon="-1.79554">
        <ele>12.4</ele>
        <time>2021-09-25T13:14:14Z</time>
      </trkpt>
      <trkpt lat="46.49003" lon="-1.79553">
        <ele>12.4</ele>
        <time>2021-09-25T13:14:15Z</time>
      </trkpt>
      <trkpt lat="46.49003" lon="-1.79553">
        <ele>12.4</ele>
        <time>2021-09-25T13:14:16Z</time>
      </trkpt>
      <trkpt lat="46.49003" lon="-1.79553">
        <ele>12.4</ele>
        <time>2021-09-25T13:14:17Z</time>
      </trkpt>
      <trkpt lat="46.49003" lon="-1.79553">
        <ele>12.4</ele>
        <time>2021-09-25T13:14:18Z</time>
      </trkpt>
      <trkpt lat="46.49003" lon="-1.79553">
        <ele>12.5</ele>
        <time>2021-09-25T13:14:19Z</time>
      </trkpt>
      <trkpt lat="46.49003" lon="-1.79552">
        <ele>12.5</ele>
        <time>2021-09-25T13:14:20Z</time>
      </trkpt>
      <trkpt lat="46.49004" lon="-1.79552">
        <ele>12.5</ele>
        <time>2021-09-25T13:14:21Z</time>
      </trkpt>
      <trkpt lat="46.49004" lon="-1.79552">
        <ele>12.5</ele>
        <time>2021-09-25T13:14:22Z</time>
      </trkpt>
      <trkpt lat="46.49004" lon="-1.79552">
        <ele>12.5</ele>
        <time>2021-09-25T13:14:23Z</time>
      </trkpt>
      <trkpt lat="46.49004" lon="-1.79552">
        <ele>12.5</ele>
        <time>2021-09-25T13:14:24Z</time>
      </trkpt>
      <trkpt lat="46.49004" lon="-1.79551">
        <ele>12.5</ele>
        <time>2021-09-25T13:14:25Z</time>
      </trkpt>
      <trkpt lat="46.49004" lon="-1.79551">
        <ele>12.5</ele>
        <time>2021-09-25T13:14:26Z</time>
      </trkpt>
      <trkpt lat="46.49004" lon="-1.79551">
        <ele>12.5</ele>
        <time>2021-09-25T13:14:27Z</time>
      </trkpt>
      <trkpt lat="46.49005" lon="-1.79551">
        <ele>12.5</ele>
        <time>2021-09-25T13:14:28Z</time>
      </trkpt>
      <trkpt lat="46.49005" lon="-1.79551">
        <ele>12.5</ele>
        <time>2021-09-25T13:14:29Z</time>
      </trkpt>
      <trkpt lat="46.49005" lon="-1.7955">
        <ele>12.5</ele>
        <time>2021-09-25T13:14:30Z</time>
      </trkpt>
      <trkpt lat="46.49005" lon="-1.7955">
        <ele>12.5</ele>
        <time>2021-09-25T13:14:31Z</time>
      </trkpt>
      <trkpt lat="46.49006" lon="-1.7955">
        <ele>12.5</ele>
        <time>2021-09-25T13:14:32Z</time>
      </trkpt>
      <trkpt lat="46.49006" lon="-1.7955">
        <ele>12.5</ele>
        <time>2021-09-25T13:14:33Z</time>
      </trkpt>
      <trkpt lat="46.49006" lon="-1.7955">
        <ele>12.5</ele>
        <time>2021-09-25T13:14:34Z</time>
      </trkpt>
      <trkpt lat="46.49006" lon="-1.7955">
        <ele>12.5</ele>
        <time>2021-09-25T13:14:35Z</time>
      </trkpt>
      <trkpt lat="46.49006" lon="-1.7955">
        <ele>12.5</ele>
        <time>2021-09-25T13:14:36Z</time>
      </trkpt>
      <trkpt lat="46.49006" lon="-1.7955">
        <ele>12.5</ele>
        <time>2021-09-25T13:14:37Z</time>
      </trkpt>
      <trkpt lat="46.49006" lon="-1.79549">
        <ele>12.5</ele>
        <time>2021-09-25T13:14:38Z</time>
      </trkpt>
      <trkpt lat="46.49006" lon="-1.79549">
        <ele>12.5</ele>
        <time>2021-09-25T13:14:39Z</time>
      </trkpt>
      <trkpt lat="46.49006" lon="-1.79549">
        <ele>12.5</ele>
        <time>2021-09-25T13:14:40Z</time>
      </trkpt>
      <trkpt lat="46.49005" lon="-1.79549">
        <ele>12.5</ele>
        <time>2021-09-25T13:14:41Z</time>
      </trkpt>
      <trkpt lat="46.49005" lon="-1.79549">
        <ele>12.5</ele>
        <time>2021-09-25T13:14:42Z</time>
      </trkpt>
      <trkpt lat="46.49005" lon="-1.79549">
        <ele>12.3</ele>
        <time>2021-09-25T13:14:43Z</time>
      </trkpt>
      <trkpt lat="46.49005" lon="-1.79549">
        <ele>12.3</ele>
        <time>2021-09-25T13:14:44Z</time>
      </trkpt>
      <trkpt lat="46.49004" lon="-1.79549">
        <ele>12.3</ele>
        <time>2021-09-25T13:14:45Z</time>
      </trkpt>
      <trkpt lat="46.49004" lon="-1.79549">
        <ele>12.3</ele>
        <time>2021-09-25T13:14:46Z</time>
      </trkpt>
      <trkpt lat="46.49004" lon="-1.79549">
        <ele>12.3</ele>
        <time>2021-09-25T13:14:47Z</time>
      </trkpt>
      <trkpt lat="46.49004" lon="-1.79549">
        <ele>12.3</ele>
        <time>2021-09-25T13:14:48Z</time>
      </trkpt>
      <trkpt lat="46.49003" lon="-1.79549">
        <ele>12.3</ele>
        <time>2021-09-25T13:14:49Z</time>
      </trkpt>
      <trkpt lat="46.49003" lon="-1.79549">
        <ele>12.2</ele>
        <time>2021-09-25T13:14:50Z</time>
      </trkpt>
      <trkpt lat="46.49003" lon="-1.79549">
        <ele>12.4</ele>
        <time>2021-09-25T13:14:51Z</time>
      </trkpt>
      <trkpt lat="46.49003" lon="-1.79549">
        <ele>12.4</ele>
        <time>2021-09-25T13:14:52Z</time>
      </trkpt>
      <trkpt lat="46.49003" lon="-1.7955">
        <ele>12.4</ele>
        <time>2021-09-25T13:14:53Z</time>
      </trkpt>
      <trkpt lat="46.49003" lon="-1.7955">
        <ele>12.4</ele>
        <time>2021-09-25T13:14:54Z</time>
      </trkpt>
      <trkpt lat="46.49003" lon="-1.79549">
        <ele>12.4</ele>
        <time>2021-09-25T13:14:55Z</time>
      </trkpt>
      <trkpt lat="46.49003" lon="-1.7955">
        <ele>12.5</ele>
        <time>2021-09-25T13:14:56Z</time>
      </trkpt>
      <trkpt lat="46.49004" lon="-1.7955">
        <ele>12.5</ele>
        <time>2021-09-25T13:14:57Z</time>
      </trkpt>
      <trkpt lat="46.49005" lon="-1.7955">
        <ele>12.5</ele>
        <time>2021-09-25T13:14:58Z</time>
      </trkpt>
      <trkpt lat="46.49005" lon="-1.7955">
        <ele>12.5</ele>
        <time>2021-09-25T13:14:59Z</time>
      </trkpt>
      <trkpt lat="46.49006" lon="-1.79549">
        <ele>12.3</ele>
        <time>2021-09-25T13:15:00Z</time>
      </trkpt>
      <trkpt lat="46.49007" lon="-1.79548">
        <ele>12.3</ele>
        <time>2021-09-25T13:15:01Z</time>
      </trkpt>
      <trkpt lat="46.49007" lon="-1.79547">
        <ele>12.3</ele>
        <time>2021-09-25T13:15:02Z</time>
      </trkpt>
      <trkpt lat="46.49007" lon="-1.79546">
        <ele>12.3</ele>
        <time>2021-09-25T13:15:03Z</time>
      </trkpt>
      <trkpt lat="46.49007" lon="-1.79545">
        <ele>12.1</ele>
        <time>2021-09-25T13:15:04Z</time>
      </trkpt>
      <trkpt lat="46.49007" lon="-1.79544">
        <ele>12.1</ele>
        <time>2021-09-25T13:15:05Z</time>
      </trkpt>
      <trkpt lat="46.49007" lon="-1.79542">
        <ele>12.1</ele>
        <time>2021-09-25T13:15:06Z</time>
      </trkpt>
      <trkpt lat="46.49007" lon="-1.79541">
        <ele>12</ele>
        <time>2021-09-25T13:15:07Z</time>
      </trkpt>
      <trkpt lat="46.49007" lon="-1.79539">
        <ele>12</ele>
        <time>2021-09-25T13:15:08Z</time>
      </trkpt>
      <trkpt lat="46.49006" lon="-1.79538">
        <ele>12</ele>
        <time>2021-09-25T13:15:09Z</time>
      </trkpt>
      <trkpt lat="46.49006" lon="-1.79536">
        <ele>11.8</ele>
        <time>2021-09-25T13:15:10Z</time>
      </trkpt>
      <trkpt lat="46.49006" lon="-1.79535">
        <ele>11.8</ele>
        <time>2021-09-25T13:15:11Z</time>
      </trkpt>
      <trkpt lat="46.49006" lon="-1.79533">
        <ele>11.8</ele>
        <time>2021-09-25T13:15:12Z</time>
      </trkpt>
      <trkpt lat="46.49006" lon="-1.79532">
        <ele>11.6</ele>
        <time>2021-09-25T13:15:13Z</time>
      </trkpt>
      <trkpt lat="46.49006" lon="-1.79531">
        <ele>11.6</ele>
        <time>2021-09-25T13:15:14Z</time>
      </trkpt>
      <trkpt lat="46.49007" lon="-1.7953">
        <ele>11.6</ele>
        <time>2021-09-25T13:15:15Z</time>
      </trkpt>
      <trkpt lat="46.49007" lon="-1.79528">
        <ele>11.6</ele>
        <time>2021-09-25T13:15:16Z</time>
      </trkpt>
      <trkpt lat="46.49007" lon="-1.79527">
        <ele>11.4</ele>
        <time>2021-09-25T13:15:17Z</time>
      </trkpt>
      <trkpt lat="46.49007" lon="-1.79526">
        <ele>11.4</ele>
        <time>2021-09-25T13:15:18Z</time>
      </trkpt>
      <trkpt lat="46.49007" lon="-1.79525">
        <ele>11.4</ele>
        <time>2021-09-25T13:15:19Z</time>
      </trkpt>
      <trkpt lat="46.49007" lon="-1.79524">
        <ele>11.4</ele>
        <time>2021-09-25T13:15:20Z</time>
      </trkpt>
      <trkpt lat="46.49007" lon="-1.79522">
        <ele>11.2</ele>
        <time>2021-09-25T13:15:21Z</time>
      </trkpt>
      <trkpt lat="46.49007" lon="-1.79521">
        <ele>11.2</ele>
        <time>2021-09-25T13:15:22Z</time>
      </trkpt>
      <trkpt lat="46.49007" lon="-1.7952">
        <ele>11.2</ele>
        <time>2021-09-25T13:15:23Z</time>
      </trkpt>
      <trkpt lat="46.49006" lon="-1.79518">
        <ele>11</ele>
        <time>2021-09-25T13:15:24Z</time>
      </trkpt>
      <trkpt lat="46.49006" lon="-1.79517">
        <ele>11</ele>
        <time>2021-09-25T13:15:25Z</time>
      </trkpt>
      <trkpt lat="46.49006" lon="-1.79516">
        <ele>11</ele>
        <time>2021-09-25T13:15:26Z</time>
      </trkpt>
      <trkpt lat="46.49005" lon="-1.79514">
        <ele>10.8</ele>
        <time>2021-09-25T13:15:27Z</time>
      </trkpt>
      <trkpt lat="46.49005" lon="-1.79513">
        <ele>10.8</ele>
        <time>2021-09-25T13:15:28Z</time>
      </trkpt>
      <trkpt lat="46.49004" lon="-1.79512">
        <ele>10.8</ele>
        <time>2021-09-25T13:15:29Z</time>
      </trkpt>
      <trkpt lat="46.49004" lon="-1.79511">
        <ele>10.8</ele>
        <time>2021-09-25T13:15:30Z</time>
      </trkpt>
      <trkpt lat="46.49004" lon="-1.79509">
        <ele>10.6</ele>
        <time>2021-09-25T13:15:31Z</time>
      </trkpt>
      <trkpt lat="46.49003" lon="-1.79508">
        <ele>10.6</ele>
        <time>2021-09-25T13:15:32Z</time>
      </trkpt>
      <trkpt lat="46.49003" lon="-1.79507">
        <ele>10.6</ele>
        <time>2021-09-25T13:15:33Z</time>
      </trkpt>
      <trkpt lat="46.49002" lon="-1.79505">
        <ele>10.4</ele>
        <time>2021-09-25T13:15:34Z</time>
      </trkpt>
      <trkpt lat="46.49002" lon="-1.79504">
        <ele>10.4</ele>
        <time>2021-09-25T13:15:35Z</time>
      </trkpt>
      <trkpt lat="46.49002" lon="-1.79504">
        <ele>10.4</ele>
        <time>2021-09-25T13:15:36Z</time>
      </trkpt>
      <trkpt lat="46.49002" lon="-1.79503">
        <ele>10.4</ele>
        <time>2021-09-25T13:15:37Z</time>
      </trkpt>
      <trkpt lat="46.49001" lon="-1.79502">
        <ele>10.4</ele>
        <time>2021-09-25T13:15:38Z</time>
      </trkpt>
      <trkpt lat="46.49001" lon="-1.79501">
        <ele>10.2</ele>
        <time>2021-09-25T13:15:39Z</time>
      </trkpt>
      <trkpt lat="46.49001" lon="-1.79501">
        <ele>10.2</ele>
        <time>2021-09-25T13:15:40Z</time>
      </trkpt>
      <trkpt lat="46.49001" lon="-1.795">
        <ele>10.2</ele>
        <time>2021-09-25T13:15:41Z</time>
      </trkpt>
      <trkpt lat="46.49" lon="-1.79499">
        <ele>10.2</ele>
        <time>2021-09-25T13:15:42Z</time>
      </trkpt>
      <trkpt lat="46.49" lon="-1.79499">
        <ele>10.1</ele>
        <time>2021-09-25T13:15:43Z</time>
      </trkpt>
      <trkpt lat="46.49" lon="-1.79498">
        <ele>10.1</ele>
        <time>2021-09-25T13:15:44Z</time>
      </trkpt>
      <trkpt lat="46.49" lon="-1.79497">
        <ele>9.9</ele>
        <time>2021-09-25T13:15:45Z</time>
      </trkpt>
      <trkpt lat="46.48999" lon="-1.79496">
        <ele>9.9</ele>
        <time>2021-09-25T13:15:46Z</time>
      </trkpt>
      <trkpt lat="46.48999" lon="-1.79496">
        <ele>9.9</ele>
        <time>2021-09-25T13:15:47Z</time>
      </trkpt>
      <trkpt lat="46.48999" lon="-1.79495">
        <ele>9.9</ele>
        <time>2021-09-25T13:15:48Z</time>
      </trkpt>
      <trkpt lat="46.48999" lon="-1.79494">
        <ele>9.9</ele>
        <time>2021-09-25T13:15:49Z</time>
      </trkpt>
      <trkpt lat="46.48999" lon="-1.79494">
        <ele>9.9</ele>
        <time>2021-09-25T13:15:50Z</time>
      </trkpt>
      <trkpt lat="46.48998" lon="-1.79493">
        <ele>9.7</ele>
        <time>2021-09-25T13:15:51Z</time>
      </trkpt>
      <trkpt lat="46.48998" lon="-1.79492">
        <ele>9.7</ele>
        <time>2021-09-25T13:15:52Z</time>
      </trkpt>
      <trkpt lat="46.48998" lon="-1.79491">
        <ele>9.7</ele>
        <time>2021-09-25T13:15:53Z</time>
      </trkpt>
      <trkpt lat="46.48998" lon="-1.79491">
        <ele>9.7</ele>
        <time>2021-09-25T13:15:54Z</time>
      </trkpt>
      <trkpt lat="46.48997" lon="-1.7949">
        <ele>9.7</ele>
        <time>2021-09-25T13:15:55Z</time>
      </trkpt>
      <trkpt lat="46.48997" lon="-1.79489">
        <ele>9.5</ele>
        <time>2021-09-25T13:15:56Z</time>
      </trkpt>
      <trkpt lat="46.48997" lon="-1.79489">
        <ele>9.3</ele>
        <time>2021-09-25T13:15:57Z</time>
      </trkpt>
      <trkpt lat="46.48997" lon="-1.79488">
        <ele>9.3</ele>
        <time>2021-09-25T13:15:58Z</time>
      </trkpt>
      <trkpt lat="46.48996" lon="-1.79487">
        <ele>9.3</ele>
        <time>2021-09-25T13:15:59Z</time>
      </trkpt>
      <trkpt lat="46.48996" lon="-1.79486">
        <ele>9.3</ele>
        <time>2021-09-25T13:16:00Z</time>
      </trkpt>
      <trkpt lat="46.48996" lon="-1.79486">
        <ele>9.3</ele>
        <time>2021-09-25T13:16:01Z</time>
      </trkpt>
      <trkpt lat="46.48996" lon="-1.79485">
        <ele>9.3</ele>
        <time>2021-09-25T13:16:02Z</time>
      </trkpt>
      <trkpt lat="46.48996" lon="-1.79484">
        <ele>9.1</ele>
        <time>2021-09-25T13:16:03Z</time>
      </trkpt>
      <trkpt lat="46.48995" lon="-1.79484">
        <ele>9.1</ele>
        <time>2021-09-25T13:16:04Z</time>
      </trkpt>
      <trkpt lat="46.48995" lon="-1.79483">
        <ele>9.1</ele>
        <time>2021-09-25T13:16:05Z</time>
      </trkpt>
      <trkpt lat="46.48995" lon="-1.79482">
        <ele>9.1</ele>
        <time>2021-09-25T13:16:06Z</time>
      </trkpt>
      <trkpt lat="46.48995" lon="-1.79481">
        <ele>9.1</ele>
        <time>2021-09-25T13:16:07Z</time>
      </trkpt>
      <trkpt lat="46.48994" lon="-1.79481">
        <ele>9.1</ele>
        <time>2021-09-25T13:16:08Z</time>
      </trkpt>
      <trkpt lat="46.48994" lon="-1.7948">
        <ele>8.6</ele>
        <time>2021-09-25T13:16:09Z</time>
      </trkpt>
      <trkpt lat="46.48994" lon="-1.79479">
        <ele>8.6</ele>
        <time>2021-09-25T13:16:10Z</time>
      </trkpt>
      <trkpt lat="46.48994" lon="-1.79479">
        <ele>8.6</ele>
        <time>2021-09-25T13:16:11Z</time>
      </trkpt>
      <trkpt lat="46.48993" lon="-1.79478">
        <ele>8.6</ele>
        <time>2021-09-25T13:16:12Z</time>
      </trkpt>
      <trkpt lat="46.48993" lon="-1.79477">
        <ele>8.6</ele>
        <time>2021-09-25T13:16:13Z</time>
      </trkpt>
      <trkpt lat="46.48993" lon="-1.79476">
        <ele>8.6</ele>
        <time>2021-09-25T13:16:14Z</time>
      </trkpt>
      <trkpt lat="46.48993" lon="-1.79476">
        <ele>8.4</ele>
        <time>2021-09-25T13:16:15Z</time>
      </trkpt>
      <trkpt lat="46.48993" lon="-1.79475">
        <ele>8.4</ele>
        <time>2021-09-25T13:16:16Z</time>
      </trkpt>
      <trkpt lat="46.48992" lon="-1.79474">
        <ele>8.4</ele>
        <time>2021-09-25T13:16:17Z</time>
      </trkpt>
      <trkpt lat="46.48992" lon="-1.79474">
        <ele>8.4</ele>
        <time>2021-09-25T13:16:18Z</time>
      </trkpt>
      <trkpt lat="46.48992" lon="-1.79473">
        <ele>8.4</ele>
        <time>2021-09-25T13:16:19Z</time>
      </trkpt>
      <trkpt lat="46.48992" lon="-1.79472">
        <ele>8.4</ele>
        <time>2021-09-25T13:16:20Z</time>
      </trkpt>
      <trkpt lat="46.48991" lon="-1.79471">
        <ele>8.1</ele>
        <time>2021-09-25T13:16:21Z</time>
      </trkpt>
      <trkpt lat="46.48991" lon="-1.79471">
        <ele>7.8</ele>
        <time>2021-09-25T13:16:22Z</time>
      </trkpt>
      <trkpt lat="46.48991" lon="-1.7947">
        <ele>7.8</ele>
        <time>2021-09-25T13:16:23Z</time>
      </trkpt>
      <trkpt lat="46.48991" lon="-1.79468">
        <ele>7.8</ele>
        <time>2021-09-25T13:16:24Z</time>
      </trkpt>
      <trkpt lat="46.4899" lon="-1.79468">
        <ele>7.8</ele>
        <time>2021-09-25T13:16:25Z</time>
      </trkpt>
      <trkpt lat="46.4899" lon="-1.79468">
        <ele>7.8</ele>
        <time>2021-09-25T13:16:26Z</time>
      </trkpt>
      <trkpt lat="46.4899" lon="-1.79468">
        <ele>7.8</ele>
        <time>2021-09-25T13:16:27Z</time>
      </trkpt>
      <trkpt lat="46.4899" lon="-1.79468">
        <ele>7.8</ele>
        <time>2021-09-25T13:16:28Z</time>
      </trkpt>
      <trkpt lat="46.4899" lon="-1.79468">
        <ele>7.6</ele>
        <time>2021-09-25T13:16:29Z</time>
      </trkpt>
      <trkpt lat="46.4899" lon="-1.79467">
        <ele>7.6</ele>
        <time>2021-09-25T13:16:30Z</time>
      </trkpt>
      <trkpt lat="46.4899" lon="-1.79467">
        <ele>7.6</ele>
        <time>2021-09-25T13:16:31Z</time>
      </trkpt>
      <trkpt lat="46.4899" lon="-1.79467">
        <ele>7.6</ele>
        <time>2021-09-25T13:16:32Z</time>
      </trkpt>
      <trkpt lat="46.4899" lon="-1.79467">
        <ele>7.6</ele>
        <time>2021-09-25T13:16:33Z</time>
      </trkpt>
      <trkpt lat="46.4899" lon="-1.79467">
        <ele>7.6</ele>
        <time>2021-09-25T13:16:34Z</time>
      </trkpt>
      <trkpt lat="46.4899" lon="-1.79467">
        <ele>7.6</ele>
        <time>2021-09-25T13:16:35Z</time>
      </trkpt>
      <trkpt lat="46.4899" lon="-1.79467">
        <ele>7.6</ele>
        <time>2021-09-25T13:16:36Z</time>
      </trkpt>
      <trkpt lat="46.4899" lon="-1.79466">
        <ele>7.6</ele>
        <time>2021-09-25T13:16:37Z</time>
      </trkpt>
      <trkpt lat="46.4899" lon="-1.79466">
        <ele>7.6</ele>
        <time>2021-09-25T13:16:38Z</time>
      </trkpt>
      <trkpt lat="46.4899" lon="-1.79466">
        <ele>7.6</ele>
        <time>2021-09-25T13:16:39Z</time>
      </trkpt>
      <trkpt lat="46.4899" lon="-1.79466">
        <ele>7.6</ele>
        <time>2021-09-25T13:16:40Z</time>
      </trkpt>
      <trkpt lat="46.4899" lon="-1.79466">
        <ele>7.6</ele>
        <time>2021-09-25T13:16:41Z</time>
      </trkpt>
      <trkpt lat="46.4899" lon="-1.79466">
        <ele>7.6</ele>
        <time>2021-09-25T13:16:42Z</time>
      </trkpt>
      <trkpt lat="46.4899" lon="-1.79465">
        <ele>7.6</ele>
        <time>2021-09-25T13:16:43Z</time>
      </trkpt>
      <trkpt lat="46.4899" lon="-1.79465">
        <ele>7.6</ele>
        <time>2021-09-25T13:16:44Z</time>
      </trkpt>
      <trkpt lat="46.4899" lon="-1.79465">
        <ele>7.6</ele>
        <time>2021-09-25T13:16:45Z</time>
      </trkpt>
      <trkpt lat="46.4899" lon="-1.79465">
        <ele>7.6</ele>
        <time>2021-09-25T13:16:46Z</time>
      </trkpt>
      <trkpt lat="46.4899" lon="-1.79465">
        <ele>7.6</ele>
        <time>2021-09-25T13:16:47Z</time>
      </trkpt>
      <trkpt lat="46.4899" lon="-1.79465">
        <ele>7.6</ele>
        <time>2021-09-25T13:16:48Z</time>
      </trkpt>
      <trkpt lat="46.4899" lon="-1.79465">
        <ele>7.6</ele>
        <time>2021-09-25T13:16:49Z</time>
      </trkpt>
      <trkpt lat="46.4899" lon="-1.79464">
        <ele>7.6</ele>
        <time>2021-09-25T13:16:50Z</time>
      </trkpt>
      <trkpt lat="46.4899" lon="-1.79464">
        <ele>7.6</ele>
        <time>2021-09-25T13:16:51Z</time>
      </trkpt>
      <trkpt lat="46.4899" lon="-1.79464">
        <ele>7.6</ele>
        <time>2021-09-25T13:16:52Z</time>
      </trkpt>
      <trkpt lat="46.4899" lon="-1.79464">
        <ele>7.6</ele>
        <time>2021-09-25T13:16:53Z</time>
      </trkpt>
      <trkpt lat="46.4899" lon="-1.79464">
        <ele>7.6</ele>
        <time>2021-09-25T13:16:54Z</time>
      </trkpt>
      <trkpt lat="46.4899" lon="-1.79464">
        <ele>7.6</ele>
        <time>2021-09-25T13:16:55Z</time>
      </trkpt>
      <trkpt lat="46.48989" lon="-1.79464">
        <ele>7.6</ele>
        <time>2021-09-25T13:16:56Z</time>
      </trkpt>
      <trkpt lat="46.48989" lon="-1.79463">
        <ele>7.5</ele>
        <time>2021-09-25T13:16:57Z</time>
      </trkpt>
      <trkpt lat="46.48989" lon="-1.79463">
        <ele>7.5</ele>
        <time>2021-09-25T13:16:58Z</time>
      </trkpt>
      <trkpt lat="46.48989" lon="-1.79463">
        <ele>7.5</ele>
        <time>2021-09-25T13:16:59Z</time>
      </trkpt>
      <trkpt lat="46.48989" lon="-1.79463">
        <ele>7.5</ele>
        <time>2021-09-25T13:17:00Z</time>
      </trkpt>
      <trkpt lat="46.48989" lon="-1.79463">
        <ele>7.5</ele>
        <time>2021-09-25T13:17:01Z</time>
      </trkpt>
      <trkpt lat="46.48989" lon="-1.79463">
        <ele>7.5</ele>
        <time>2021-09-25T13:17:02Z</time>
      </trkpt>
      <trkpt lat="46.48989" lon="-1.79462">
        <ele>7.5</ele>
        <time>2021-09-25T13:17:03Z</time>
      </trkpt>
      <trkpt lat="46.48989" lon="-1.79462">
        <ele>7.5</ele>
        <time>2021-09-25T13:17:04Z</time>
      </trkpt>
      <trkpt lat="46.48989" lon="-1.79462">
        <ele>7.5</ele>
        <time>2021-09-25T13:17:05Z</time>
      </trkpt>
      <trkpt lat="46.48989" lon="-1.79462">
        <ele>7.5</ele>
        <time>2021-09-25T13:17:06Z</time>
      </trkpt>
      <trkpt lat="46.48989" lon="-1.79462">
        <ele>7.5</ele>
        <time>2021-09-25T13:17:07Z</time>
      </trkpt>
      <trkpt lat="46.48989" lon="-1.79462">
        <ele>7.5</ele>
        <time>2021-09-25T13:17:08Z</time>
      </trkpt>
      <trkpt lat="46.48989" lon="-1.79462">
        <ele>7.5</ele>
        <time>2021-09-25T13:17:09Z</time>
      </trkpt>
      <trkpt lat="46.48989" lon="-1.79461">
        <ele>7.5</ele>
        <time>2021-09-25T13:17:10Z</time>
      </trkpt>
      <trkpt lat="46.48989" lon="-1.79461">
        <ele>7.5</ele>
        <time>2021-09-25T13:17:11Z</time>
      </trkpt>
      <trkpt lat="46.48989" lon="-1.79461">
        <ele>7.5</ele>
        <time>2021-09-25T13:17:12Z</time>
      </trkpt>
      <trkpt lat="46.48989" lon="-1.79461">
        <ele>7.5</ele>
        <time>2021-09-25T13:17:13Z</time>
      </trkpt>
      <trkpt lat="46.48989" lon="-1.79461">
        <ele>7.5</ele>
        <time>2021-09-25T13:17:14Z</time>
      </trkpt>
      <trkpt lat="46.48989" lon="-1.79461">
        <ele>7.5</ele>
        <time>2021-09-25T13:17:15Z</time>
      </trkpt>
      <trkpt lat="46.48989" lon="-1.7946">
        <ele>7.5</ele>
        <time>2021-09-25T13:17:16Z</time>
      </trkpt>
      <trkpt lat="46.48989" lon="-1.7946">
        <ele>7.5</ele>
        <time>2021-09-25T13:17:17Z</time>
      </trkpt>
      <trkpt lat="46.48989" lon="-1.7946">
        <ele>7.5</ele>
        <time>2021-09-25T13:17:18Z</time>
      </trkpt>
      <trkpt lat="46.48989" lon="-1.7946">
        <ele>7.5</ele>
        <time>2021-09-25T13:17:19Z</time>
      </trkpt>
      <trkpt lat="46.48989" lon="-1.7946">
        <ele>7.5</ele>
        <time>2021-09-25T13:17:20Z</time>
      </trkpt>
      <trkpt lat="46.48989" lon="-1.7946">
        <ele>7.5</ele>
        <time>2021-09-25T13:17:21Z</time>
      </trkpt>
      <trkpt lat="46.48989" lon="-1.7946">
        <ele>7.5</ele>
        <time>2021-09-25T13:17:22Z</time>
      </trkpt>
      <trkpt lat="46.48989" lon="-1.79458">
        <ele>7.5</ele>
        <time>2021-09-25T13:17:23Z</time>
      </trkpt>
      <trkpt lat="46.4899" lon="-1.79458">
        <ele>7.5</ele>
        <time>2021-09-25T13:17:24Z</time>
      </trkpt>
      <trkpt lat="46.48991" lon="-1.79458">
        <ele>7.5</ele>
        <time>2021-09-25T13:17:25Z</time>
      </trkpt>
      <trkpt lat="46.48991" lon="-1.79457">
        <ele>7.5</ele>
        <time>2021-09-25T13:17:26Z</time>
      </trkpt>
      <trkpt lat="46.48992" lon="-1.79457">
        <ele>7.8</ele>
        <time>2021-09-25T13:17:27Z</time>
      </trkpt>
      <trkpt lat="46.48993" lon="-1.79457">
        <ele>7.8</ele>
        <time>2021-09-25T13:17:28Z</time>
      </trkpt>
      <trkpt lat="46.48993" lon="-1.79456">
        <ele>7.8</ele>
        <time>2021-09-25T13:17:29Z</time>
      </trkpt>
      <trkpt lat="46.48994" lon="-1.79456">
        <ele>7.8</ele>
        <time>2021-09-25T13:17:30Z</time>
      </trkpt>
      <trkpt lat="46.48995" lon="-1.79456">
        <ele>8</ele>
        <time>2021-09-25T13:17:31Z</time>
      </trkpt>
      <trkpt lat="46.48995" lon="-1.79455">
        <ele>8</ele>
        <time>2021-09-25T13:17:32Z</time>
      </trkpt>
      <trkpt lat="46.48996" lon="-1.79455">
        <ele>8</ele>
        <time>2021-09-25T13:17:33Z</time>
      </trkpt>
      <trkpt lat="46.48997" lon="-1.79455">
        <ele>8</ele>
        <time>2021-09-25T13:17:34Z</time>
      </trkpt>
      <trkpt lat="46.48997" lon="-1.79454">
        <ele>8.1</ele>
        <time>2021-09-25T13:17:35Z</time>
      </trkpt>
      <trkpt lat="46.48998" lon="-1.79454">
        <ele>8.1</ele>
        <time>2021-09-25T13:17:36Z</time>
      </trkpt>
      <trkpt lat="46.48999" lon="-1.79454">
        <ele>8.1</ele>
        <time>2021-09-25T13:17:37Z</time>
      </trkpt>
      <trkpt lat="46.48999" lon="-1.79454">
        <ele>8.1</ele>
        <time>2021-09-25T13:17:38Z</time>
      </trkpt>
      <trkpt lat="46.48999" lon="-1.79454">
        <ele>8.1</ele>
        <time>2021-09-25T13:17:39Z</time>
      </trkpt>
      <trkpt lat="46.48999" lon="-1.79454">
        <ele>8.1</ele>
        <time>2021-09-25T13:17:40Z</time>
      </trkpt>
      <trkpt lat="46.48999" lon="-1.79454">
        <ele>8.1</ele>
        <time>2021-09-25T13:17:41Z</time>
      </trkpt>
      <trkpt lat="46.48999" lon="-1.79454">
        <ele>8.1</ele>
        <time>2021-09-25T13:17:42Z</time>
      </trkpt>
      <trkpt lat="46.48999" lon="-1.79454">
        <ele>8.1</ele>
        <time>2021-09-25T13:17:43Z</time>
      </trkpt>
      <trkpt lat="46.48999" lon="-1.79454">
        <ele>8.1</ele>
        <time>2021-09-25T13:17:44Z</time>
      </trkpt>
      <trkpt lat="46.48998" lon="-1.79454">
        <ele>8.1</ele>
        <time>2021-09-25T13:17:45Z</time>
      </trkpt>
      <trkpt lat="46.48998" lon="-1.79454">
        <ele>8.1</ele>
        <time>2021-09-25T13:17:46Z</time>
      </trkpt>
      <trkpt lat="46.48998" lon="-1.79454">
        <ele>8.1</ele>
        <time>2021-09-25T13:17:47Z</time>
      </trkpt>
      <trkpt lat="46.48998" lon="-1.79454">
        <ele>8.1</ele>
        <time>2021-09-25T13:17:48Z</time>
      </trkpt>
      <trkpt lat="46.48998" lon="-1.79454">
        <ele>8.1</ele>
        <time>2021-09-25T13:17:49Z</time>
      </trkpt>
      <trkpt lat="46.48997" lon="-1.79455">
        <ele>8.1</ele>
        <time>2021-09-25T13:17:50Z</time>
      </trkpt>
      <trkpt lat="46.48997" lon="-1.79455">
        <ele>8</ele>
        <time>2021-09-25T13:17:51Z</time>
      </trkpt>
      <trkpt lat="46.48997" lon="-1.79455">
        <ele>8</ele>
        <time>2021-09-25T13:17:52Z</time>
      </trkpt>
      <trkpt lat="46.48997" lon="-1.79455">
        <ele>8</ele>
        <time>2021-09-25T13:17:53Z</time>
      </trkpt>
      <trkpt lat="46.48997" lon="-1.79455">
        <ele>8</ele>
        <time>2021-09-25T13:17:54Z</time>
      </trkpt>
      <trkpt lat="46.48997" lon="-1.79455">
        <ele>8</ele>
        <time>2021-09-25T13:17:55Z</time>
      </trkpt>
      <trkpt lat="46.48997" lon="-1.79455">
        <ele>8</ele>
        <time>2021-09-25T13:17:56Z</time>
      </trkpt>
      <trkpt lat="46.48997" lon="-1.79456">
        <ele>8</ele>
        <time>2021-09-25T13:17:57Z</time>
      </trkpt>
      <trkpt lat="46.48997" lon="-1.79456">
        <ele>8</ele>
        <time>2021-09-25T13:17:58Z</time>
      </trkpt>
      <trkpt lat="46.48997" lon="-1.79457">
        <ele>8.1</ele>
        <time>2021-09-25T13:17:59Z</time>
      </trkpt>
      <trkpt lat="46.48998" lon="-1.79457">
        <ele>8.1</ele>
        <time>2021-09-25T13:18:00Z</time>
      </trkpt>
      <trkpt lat="46.48998" lon="-1.79457">
        <ele>8.1</ele>
        <time>2021-09-25T13:18:01Z</time>
      </trkpt>
      <trkpt lat="46.48998" lon="-1.79458">
        <ele>8.1</ele>
        <time>2021-09-25T13:18:02Z</time>
      </trkpt>
      <trkpt lat="46.48998" lon="-1.79458">
        <ele>8.1</ele>
        <time>2021-09-25T13:18:03Z</time>
      </trkpt>
      <trkpt lat="46.48998" lon="-1.79459">
        <ele>8.1</ele>
        <time>2021-09-25T13:18:04Z</time>
      </trkpt>
      <trkpt lat="46.48999" lon="-1.79459">
        <ele>8.2</ele>
        <time>2021-09-25T13:18:05Z</time>
      </trkpt>
      <trkpt lat="46.48999" lon="-1.7946">
        <ele>8.2</ele>
        <time>2021-09-25T13:18:06Z</time>
      </trkpt>
      <trkpt lat="46.48999" lon="-1.7946">
        <ele>8.2</ele>
        <time>2021-09-25T13:18:07Z</time>
      </trkpt>
      <trkpt lat="46.48999" lon="-1.7946">
        <ele>8.2</ele>
        <time>2021-09-25T13:18:08Z</time>
      </trkpt>
      <trkpt lat="46.48999" lon="-1.79461">
        <ele>8.2</ele>
        <time>2021-09-25T13:18:09Z</time>
      </trkpt>
      <trkpt lat="46.48999" lon="-1.79461">
        <ele>8.2</ele>
        <time>2021-09-25T13:18:10Z</time>
      </trkpt>
      <trkpt lat="46.48998" lon="-1.79461">
        <ele>8.2</ele>
        <time>2021-09-25T13:18:11Z</time>
      </trkpt>
      <trkpt lat="46.48998" lon="-1.79461">
        <ele>8.2</ele>
        <time>2021-09-25T13:18:12Z</time>
      </trkpt>
      <trkpt lat="46.48998" lon="-1.79461">
        <ele>8.2</ele>
        <time>2021-09-25T13:18:13Z</time>
      </trkpt>
      <trkpt lat="46.48998" lon="-1.79461">
        <ele>8.2</ele>
        <time>2021-09-25T13:18:14Z</time>
      </trkpt>
      <trkpt lat="46.48998" lon="-1.79461">
        <ele>8.2</ele>
        <time>2021-09-25T13:18:15Z</time>
      </trkpt>
      <trkpt lat="46.48998" lon="-1.79461">
        <ele>8.2</ele>
        <time>2021-09-25T13:18:16Z</time>
      </trkpt>
      <trkpt lat="46.48998" lon="-1.79461">
        <ele>8.2</ele>
        <time>2021-09-25T13:18:17Z</time>
      </trkpt>
      <trkpt lat="46.48997" lon="-1.79461">
        <ele>8.2</ele>
        <time>2021-09-25T13:18:18Z</time>
      </trkpt>
      <trkpt lat="46.48997" lon="-1.79461">
        <ele>8</ele>
        <time>2021-09-25T13:18:19Z</time>
      </trkpt>
      <trkpt lat="46.48997" lon="-1.79461">
        <ele>8</ele>
        <time>2021-09-25T13:18:20Z</time>
      </trkpt>
      <trkpt lat="46.48996" lon="-1.79461">
        <ele>8</ele>
        <time>2021-09-25T13:18:21Z</time>
      </trkpt>
      <trkpt lat="46.48996" lon="-1.79461">
        <ele>8</ele>
        <time>2021-09-25T13:18:22Z</time>
      </trkpt>
      <trkpt lat="46.48995" lon="-1.79462">
        <ele>8</ele>
        <time>2021-09-25T13:18:23Z</time>
      </trkpt>
      <trkpt lat="46.48995" lon="-1.79462">
        <ele>8</ele>
        <time>2021-09-25T13:18:24Z</time>
      </trkpt>
      <trkpt lat="46.48995" lon="-1.79462">
        <ele>8</ele>
        <time>2021-09-25T13:18:25Z</time>
      </trkpt>
      <trkpt lat="46.48995" lon="-1.79463">
        <ele>8</ele>
        <time>2021-09-25T13:18:26Z</time>
      </trkpt>
      <trkpt lat="46.48995" lon="-1.79464">
        <ele>8.2</ele>
        <time>2021-09-25T13:18:27Z</time>
      </trkpt>
      <trkpt lat="46.48994" lon="-1.79465">
        <ele>7.9</ele>
        <time>2021-09-25T13:18:28Z</time>
      </trkpt>
      <trkpt lat="46.48994" lon="-1.79466">
        <ele>7.9</ele>
        <time>2021-09-25T13:18:29Z</time>
      </trkpt>
      <trkpt lat="46.48994" lon="-1.79467">
        <ele>7.9</ele>
        <time>2021-09-25T13:18:30Z</time>
      </trkpt>
      <trkpt lat="46.48994" lon="-1.79468">
        <ele>7.9</ele>
        <time>2021-09-25T13:18:31Z</time>
      </trkpt>
      <trkpt lat="46.48993" lon="-1.79468">
        <ele>8.1</ele>
        <time>2021-09-25T13:18:32Z</time>
      </trkpt>
      <trkpt lat="46.48993" lon="-1.79468">
        <ele>8.1</ele>
        <time>2021-09-25T13:18:33Z</time>
      </trkpt>
      <trkpt lat="46.48993" lon="-1.79469">
        <ele>8.1</ele>
        <time>2021-09-25T13:18:34Z</time>
      </trkpt>
      <trkpt lat="46.48993" lon="-1.79468">
        <ele>8.1</ele>
        <time>2021-09-25T13:18:35Z</time>
      </trkpt>
      <trkpt lat="46.48993" lon="-1.79468">
        <ele>8.1</ele>
        <time>2021-09-25T13:18:36Z</time>
      </trkpt>
      <trkpt lat="46.48992" lon="-1.79468">
        <ele>8.1</ele>
        <time>2021-09-25T13:18:37Z</time>
      </trkpt>
      <trkpt lat="46.48993" lon="-1.79469">
        <ele>8.1</ele>
        <time>2021-09-25T13:18:38Z</time>
      </trkpt>
      <trkpt lat="46.48993" lon="-1.79469">
        <ele>8.1</ele>
        <time>2021-09-25T13:18:39Z</time>
      </trkpt>
      <trkpt lat="46.48993" lon="-1.7947">
        <ele>8.1</ele>
        <time>2021-09-25T13:18:40Z</time>
      </trkpt>
      <trkpt lat="46.48994" lon="-1.79471">
        <ele>8.1</ele>
        <time>2021-09-25T13:18:41Z</time>
      </trkpt>
      <trkpt lat="46.48994" lon="-1.79472">
        <ele>8.1</ele>
        <time>2021-09-25T13:18:42Z</time>
      </trkpt>
      <trkpt lat="46.48995" lon="-1.79473">
        <ele>8.6</ele>
        <time>2021-09-25T13:18:43Z</time>
      </trkpt>
      <trkpt lat="46.48995" lon="-1.79473">
        <ele>8.6</ele>
        <time>2021-09-25T13:18:44Z</time>
      </trkpt>
      <trkpt lat="46.48995" lon="-1.79474">
        <ele>8.6</ele>
        <time>2021-09-25T13:18:45Z</time>
      </trkpt>
      <trkpt lat="46.48996" lon="-1.79474">
        <ele>8.6</ele>
        <time>2021-09-25T13:18:46Z</time>
      </trkpt>
      <trkpt lat="46.48996" lon="-1.79474">
        <ele>8.6</ele>
        <time>2021-09-25T13:18:47Z</time>
      </trkpt>
      <trkpt lat="46.48996" lon="-1.79474">
        <ele>8.6</ele>
        <time>2021-09-25T13:18:48Z</time>
      </trkpt>
      <trkpt lat="46.48997" lon="-1.79474">
        <ele>8.6</ele>
        <time>2021-09-25T13:18:49Z</time>
      </trkpt>
      <trkpt lat="46.48997" lon="-1.79475">
        <ele>8.6</ele>
        <time>2021-09-25T13:18:50Z</time>
      </trkpt>
      <trkpt lat="46.48997" lon="-1.79475">
        <ele>8.6</ele>
        <time>2021-09-25T13:18:51Z</time>
      </trkpt>
      <trkpt lat="46.48997" lon="-1.79475">
        <ele>8.8</ele>
        <time>2021-09-25T13:18:52Z</time>
      </trkpt>
      <trkpt lat="46.48998" lon="-1.79475">
        <ele>8.8</ele>
        <time>2021-09-25T13:18:53Z</time>
      </trkpt>
      <trkpt lat="46.48998" lon="-1.79476">
        <ele>8.8</ele>
        <time>2021-09-25T13:18:54Z</time>
      </trkpt>
      <trkpt lat="46.48998" lon="-1.79476">
        <ele>9</ele>
        <time>2021-09-25T13:18:55Z</time>
      </trkpt>
      <trkpt lat="46.48998" lon="-1.79477">
        <ele>9</ele>
        <time>2021-09-25T13:18:56Z</time>
      </trkpt>
      <trkpt lat="46.48998" lon="-1.79478">
        <ele>9</ele>
        <time>2021-09-25T13:18:57Z</time>
      </trkpt>
      <trkpt lat="46.48998" lon="-1.79479">
        <ele>9</ele>
        <time>2021-09-25T13:18:58Z</time>
      </trkpt>
      <trkpt lat="46.48998" lon="-1.7948">
        <ele>9</ele>
        <time>2021-09-25T13:18:59Z</time>
      </trkpt>
      <trkpt lat="46.48998" lon="-1.79481">
        <ele>9.3</ele>
        <time>2021-09-25T13:19:00Z</time>
      </trkpt>
      <trkpt lat="46.48998" lon="-1.79482">
        <ele>9.3</ele>
        <time>2021-09-25T13:19:01Z</time>
      </trkpt>
      <trkpt lat="46.48998" lon="-1.79483">
        <ele>9.3</ele>
        <time>2021-09-25T13:19:02Z</time>
      </trkpt>
      <trkpt lat="46.48998" lon="-1.79483">
        <ele>9.3</ele>
        <time>2021-09-25T13:19:03Z</time>
      </trkpt>
      <trkpt lat="46.48998" lon="-1.79484">
        <ele>9.3</ele>
        <time>2021-09-25T13:19:04Z</time>
      </trkpt>
      <trkpt lat="46.48998" lon="-1.79485">
        <ele>9.3</ele>
        <time>2021-09-25T13:19:05Z</time>
      </trkpt>
      <trkpt lat="46.48998" lon="-1.79486">
        <ele>9.5</ele>
        <time>2021-09-25T13:19:06Z</time>
      </trkpt>
      <trkpt lat="46.48998" lon="-1.79486">
        <ele>9.5</ele>
        <time>2021-09-25T13:19:07Z</time>
      </trkpt>
      <trkpt lat="46.48998" lon="-1.79487">
        <ele>9.5</ele>
        <time>2021-09-25T13:19:08Z</time>
      </trkpt>
      <trkpt lat="46.48998" lon="-1.79488">
        <ele>9.5</ele>
        <time>2021-09-25T13:19:09Z</time>
      </trkpt>
      <trkpt lat="46.48998" lon="-1.79489">
        <ele>9.5</ele>
        <time>2021-09-25T13:19:10Z</time>
      </trkpt>
      <trkpt lat="46.48998" lon="-1.7949">
        <ele>9.7</ele>
        <time>2021-09-25T13:19:11Z</time>
      </trkpt>
      <trkpt lat="46.48998" lon="-1.7949">
        <ele>9.7</ele>
        <time>2021-09-25T13:19:12Z</time>
      </trkpt>
      <trkpt lat="46.48998" lon="-1.79491">
        <ele>9.7</ele>
        <time>2021-09-25T13:19:13Z</time>
      </trkpt>
      <trkpt lat="46.48998" lon="-1.79492">
        <ele>9.7</ele>
        <time>2021-09-25T13:19:14Z</time>
      </trkpt>
      <trkpt lat="46.48998" lon="-1.79492">
        <ele>9.7</ele>
        <time>2021-09-25T13:19:15Z</time>
      </trkpt>
      <trkpt lat="46.48998" lon="-1.79492">
        <ele>9.7</ele>
        <time>2021-09-25T13:19:16Z</time>
      </trkpt>
      <trkpt lat="46.48998" lon="-1.79493">
        <ele>9.7</ele>
        <time>2021-09-25T13:19:17Z</time>
      </trkpt>
      <trkpt lat="46.48998" lon="-1.79493">
        <ele>9.7</ele>
        <time>2021-09-25T13:19:18Z</time>
      </trkpt>
      <trkpt lat="46.48998" lon="-1.79493">
        <ele>9.7</ele>
        <time>2021-09-25T13:19:19Z</time>
      </trkpt>
      <trkpt lat="46.48998" lon="-1.79493">
        <ele>9.7</ele>
        <time>2021-09-25T13:19:20Z</time>
      </trkpt>
      <trkpt lat="46.48998" lon="-1.79494">
        <ele>9.9</ele>
        <time>2021-09-25T13:19:21Z</time>
      </trkpt>
      <trkpt lat="46.48999" lon="-1.79494">
        <ele>9.9</ele>
        <time>2021-09-25T13:19:22Z</time>
      </trkpt>
      <trkpt lat="46.48999" lon="-1.79495">
        <ele>9.9</ele>
        <time>2021-09-25T13:19:23Z</time>
      </trkpt>
      <trkpt lat="46.48999" lon="-1.79495">
        <ele>9.9</ele>
        <time>2021-09-25T13:19:24Z</time>
      </trkpt>
      <trkpt lat="46.48999" lon="-1.79495">
        <ele>9.9</ele>
        <time>2021-09-25T13:19:25Z</time>
      </trkpt>
      <trkpt lat="46.49" lon="-1.79496">
        <ele>9.9</ele>
        <time>2021-09-25T13:19:26Z</time>
      </trkpt>
      <trkpt lat="46.49" lon="-1.79496">
        <ele>9.9</ele>
        <time>2021-09-25T13:19:27Z</time>
      </trkpt>
      <trkpt lat="46.49" lon="-1.79497">
        <ele>10</ele>
        <time>2021-09-25T13:19:28Z</time>
      </trkpt>
      <trkpt lat="46.49001" lon="-1.79497">
        <ele>10</ele>
        <time>2021-09-25T13:19:29Z</time>
      </trkpt>
      <trkpt lat="46.49001" lon="-1.79498">
        <ele>10</ele>
        <time>2021-09-25T13:19:30Z</time>
      </trkpt>
      <trkpt lat="46.49001" lon="-1.79498">
        <ele>10.2</ele>
        <time>2021-09-25T13:19:31Z</time>
      </trkpt>
      <trkpt lat="46.49001" lon="-1.79499">
        <ele>10.2</ele>
        <time>2021-09-25T13:19:32Z</time>
      </trkpt>
      <trkpt lat="46.49002" lon="-1.79499">
        <ele>10.2</ele>
        <time>2021-09-25T13:19:33Z</time>
      </trkpt>
      <trkpt lat="46.49002" lon="-1.795">
        <ele>10.2</ele>
        <time>2021-09-25T13:19:34Z</time>
      </trkpt>
      <trkpt lat="46.49002" lon="-1.795">
        <ele>10.2</ele>
        <time>2021-09-25T13:19:35Z</time>
      </trkpt>
      <trkpt lat="46.49003" lon="-1.795">
        <ele>10.2</ele>
        <time>2021-09-25T13:19:36Z</time>
      </trkpt>
      <trkpt lat="46.49003" lon="-1.79501">
        <ele>10.2</ele>
        <time>2021-09-25T13:19:37Z</time>
      </trkpt>
      <trkpt lat="46.49004" lon="-1.79501">
        <ele>10.2</ele>
        <time>2021-09-25T13:19:38Z</time>
      </trkpt>
      <trkpt lat="46.49004" lon="-1.79501">
        <ele>10.2</ele>
        <time>2021-09-25T13:19:39Z</time>
      </trkpt>
      <trkpt lat="46.49004" lon="-1.79501">
        <ele>10.2</ele>
        <time>2021-09-25T13:19:40Z</time>
      </trkpt>
      <trkpt lat="46.49004" lon="-1.79501">
        <ele>10.2</ele>
        <time>2021-09-25T13:19:41Z</time>
      </trkpt>
      <trkpt lat="46.49004" lon="-1.79501">
        <ele>10.2</ele>
        <time>2021-09-25T13:19:42Z</time>
      </trkpt>
      <trkpt lat="46.49004" lon="-1.79501">
        <ele>10.2</ele>
        <time>2021-09-25T13:19:43Z</time>
      </trkpt>
      <trkpt lat="46.49004" lon="-1.79501">
        <ele>10.2</ele>
        <time>2021-09-25T13:19:44Z</time>
      </trkpt>
      <trkpt lat="46.49004" lon="-1.79501">
        <ele>10.2</ele>
        <time>2021-09-25T13:19:45Z</time>
      </trkpt>
      <trkpt lat="46.49004" lon="-1.79501">
        <ele>10.2</ele>
        <time>2021-09-25T13:19:46Z</time>
      </trkpt>
      <trkpt lat="46.49004" lon="-1.79501">
        <ele>10.2</ele>
        <time>2021-09-25T13:19:47Z</time>
      </trkpt>
      <trkpt lat="46.49004" lon="-1.79501">
        <ele>10.2</ele>
        <time>2021-09-25T13:19:48Z</time>
      </trkpt>
      <trkpt lat="46.49004" lon="-1.79501">
        <ele>10.2</ele>
        <time>2021-09-25T13:19:49Z</time>
      </trkpt>
      <trkpt lat="46.49004" lon="-1.79501">
        <ele>10.2</ele>
        <time>2021-09-25T13:19:50Z</time>
      </trkpt>
      <trkpt lat="46.49004" lon="-1.79501">
        <ele>10.2</ele>
        <time>2021-09-25T13:19:51Z</time>
      </trkpt>
      <trkpt lat="46.49004" lon="-1.79501">
        <ele>10.2</ele>
        <time>2021-09-25T13:19:52Z</time>
      </trkpt>
      <trkpt lat="46.49004" lon="-1.79501">
        <ele>10.2</ele>
        <time>2021-09-25T13:19:53Z</time>
      </trkpt>
      <trkpt lat="46.49004" lon="-1.79501">
        <ele>10.2</ele>
        <time>2021-09-25T13:19:54Z</time>
      </trkpt>
      <trkpt lat="46.49004" lon="-1.79501">
        <ele>10.2</ele>
        <time>2021-09-25T13:19:55Z</time>
      </trkpt>
      <trkpt lat="46.49004" lon="-1.79501">
        <ele>10.2</ele>
        <time>2021-09-25T13:19:56Z</time>
      </trkpt>
      <trkpt lat="46.49004" lon="-1.79501">
        <ele>10.2</ele>
        <time>2021-09-25T13:19:57Z</time>
      </trkpt>
      <trkpt lat="46.49004" lon="-1.79501">
        <ele>10.2</ele>
        <time>2021-09-25T13:19:58Z</time>
      </trkpt>
      <trkpt lat="46.49005" lon="-1.79501">
        <ele>10.2</ele>
        <time>2021-09-25T13:19:59Z</time>
      </trkpt>
      <trkpt lat="46.49005" lon="-1.79501">
        <ele>10.2</ele>
        <time>2021-09-25T13:20:00Z</time>
      </trkpt>
      <trkpt lat="46.49006" lon="-1.795">
        <ele>10.2</ele>
        <time>2021-09-25T13:20:01Z</time>
      </trkpt>
      <trkpt lat="46.49007" lon="-1.795">
        <ele>10.2</ele>
        <time>2021-09-25T13:20:02Z</time>
      </trkpt>
      <trkpt lat="46.49008" lon="-1.795">
        <ele>10.2</ele>
        <time>2021-09-25T13:20:03Z</time>
      </trkpt>
      <trkpt lat="46.49008" lon="-1.795">
        <ele>10.2</ele>
        <time>2021-09-25T13:20:04Z</time>
      </trkpt>
      <trkpt lat="46.49008" lon="-1.795">
        <ele>10.2</ele>
        <time>2021-09-25T13:20:05Z</time>
      </trkpt>
      <trkpt lat="46.49008" lon="-1.795">
        <ele>10.2</ele>
        <time>2021-09-25T13:20:06Z</time>
      </trkpt>
      <trkpt lat="46.49008" lon="-1.795">
        <ele>10.2</ele>
        <time>2021-09-25T13:20:07Z</time>
      </trkpt>
      <trkpt lat="46.49008" lon="-1.795">
        <ele>10.2</ele>
        <time>2021-09-25T13:20:08Z</time>
      </trkpt>
      <trkpt lat="46.49009" lon="-1.79499">
        <ele>10.2</ele>
        <time>2021-09-25T13:20:09Z</time>
      </trkpt>
      <trkpt lat="46.49009" lon="-1.79499">
        <ele>10.2</ele>
        <time>2021-09-25T13:20:10Z</time>
      </trkpt>
      <trkpt lat="46.4901" lon="-1.79498">
        <ele>10.2</ele>
        <time>2021-09-25T13:20:11Z</time>
      </trkpt>
      <trkpt lat="46.49011" lon="-1.79498">
        <ele>10</ele>
        <time>2021-09-25T13:20:12Z</time>
      </trkpt>
      <trkpt lat="46.49011" lon="-1.79497">
        <ele>10</ele>
        <time>2021-09-25T13:20:13Z</time>
      </trkpt>
      <trkpt lat="46.49012" lon="-1.79496">
        <ele>10</ele>
        <time>2021-09-25T13:20:14Z</time>
      </trkpt>
      <trkpt lat="46.49013" lon="-1.79495">
        <ele>10</ele>
        <time>2021-09-25T13:20:15Z</time>
      </trkpt>
      <trkpt lat="46.49013" lon="-1.79494">
        <ele>10</ele>
        <time>2021-09-25T13:20:16Z</time>
      </trkpt>
      <trkpt lat="46.49014" lon="-1.79493">
        <ele>9.8</ele>
        <time>2021-09-25T13:20:17Z</time>
      </trkpt>
      <trkpt lat="46.49015" lon="-1.79492">
        <ele>9.8</ele>
        <time>2021-09-25T13:20:18Z</time>
      </trkpt>
      <trkpt lat="46.49015" lon="-1.79491">
        <ele>9.8</ele>
        <time>2021-09-25T13:20:19Z</time>
      </trkpt>
      <trkpt lat="46.49016" lon="-1.7949">
        <ele>9.8</ele>
        <time>2021-09-25T13:20:20Z</time>
      </trkpt>
      <trkpt lat="46.49017" lon="-1.79489">
        <ele>9.6</ele>
        <time>2021-09-25T13:20:21Z</time>
      </trkpt>
      <trkpt lat="46.49017" lon="-1.79487">
        <ele>9.6</ele>
        <time>2021-09-25T13:20:22Z</time>
      </trkpt>
      <trkpt lat="46.49018" lon="-1.79486">
        <ele>9.6</ele>
        <time>2021-09-25T13:20:23Z</time>
      </trkpt>
      <trkpt lat="46.49018" lon="-1.79485">
        <ele>9.3</ele>
        <time>2021-09-25T13:20:24Z</time>
      </trkpt>
      <trkpt lat="46.49019" lon="-1.79483">
        <ele>9.3</ele>
        <time>2021-09-25T13:20:25Z</time>
      </trkpt>
      <trkpt lat="46.49019" lon="-1.79482">
        <ele>9.3</ele>
        <time>2021-09-25T13:20:26Z</time>
      </trkpt>
      <trkpt lat="46.4902" lon="-1.7948">
        <ele>9</ele>
        <time>2021-09-25T13:20:27Z</time>
      </trkpt>
      <trkpt lat="46.4902" lon="-1.79478">
        <ele>9</ele>
        <time>2021-09-25T13:20:28Z</time>
      </trkpt>
      <trkpt lat="46.4902" lon="-1.79477">
        <ele>9</ele>
        <time>2021-09-25T13:20:29Z</time>
      </trkpt>
      <trkpt lat="46.49021" lon="-1.79475">
        <ele>8.7</ele>
        <time>2021-09-25T13:20:30Z</time>
      </trkpt>
      <trkpt lat="46.49021" lon="-1.79473">
        <ele>8.8</ele>
        <time>2021-09-25T13:20:31Z</time>
      </trkpt>
      <trkpt lat="46.49021" lon="-1.79472">
        <ele>8.4</ele>
        <time>2021-09-25T13:20:32Z</time>
      </trkpt>
      <trkpt lat="46.49022" lon="-1.7947">
        <ele>8.4</ele>
        <time>2021-09-25T13:20:33Z</time>
      </trkpt>
      <trkpt lat="46.49022" lon="-1.79468">
        <ele>8.4</ele>
        <time>2021-09-25T13:20:34Z</time>
      </trkpt>
      <trkpt lat="46.49022" lon="-1.79467">
        <ele>8.1</ele>
        <time>2021-09-25T13:20:35Z</time>
      </trkpt>
      <trkpt lat="46.49022" lon="-1.79465">
        <ele>8.1</ele>
        <time>2021-09-25T13:20:36Z</time>
      </trkpt>
      <trkpt lat="46.49023" lon="-1.79464">
        <ele>8.1</ele>
        <time>2021-09-25T13:20:37Z</time>
      </trkpt>
      <trkpt lat="46.49023" lon="-1.79462">
        <ele>8</ele>
        <time>2021-09-25T13:20:38Z</time>
      </trkpt>
      <trkpt lat="46.49023" lon="-1.79461">
        <ele>8</ele>
        <time>2021-09-25T13:20:39Z</time>
      </trkpt>
      <trkpt lat="46.49023" lon="-1.7946">
        <ele>8</ele>
        <time>2021-09-25T13:20:40Z</time>
      </trkpt>
      <trkpt lat="46.49023" lon="-1.79458">
        <ele>7.9</ele>
        <time>2021-09-25T13:20:41Z</time>
      </trkpt>
      <trkpt lat="46.49023" lon="-1.79457">
        <ele>7.9</ele>
        <time>2021-09-25T13:20:42Z</time>
      </trkpt>
      <trkpt lat="46.49023" lon="-1.79456">
        <ele>7.9</ele>
        <time>2021-09-25T13:20:43Z</time>
      </trkpt>
      <trkpt lat="46.49024" lon="-1.79455">
        <ele>7.9</ele>
        <time>2021-09-25T13:20:44Z</time>
      </trkpt>
      <trkpt lat="46.49024" lon="-1.79455">
        <ele>7.9</ele>
        <time>2021-09-25T13:20:45Z</time>
      </trkpt>
      <trkpt lat="46.49024" lon="-1.79454">
        <ele>7.9</ele>
        <time>2021-09-25T13:20:46Z</time>
      </trkpt>
      <trkpt lat="46.49024" lon="-1.79453">
        <ele>7.9</ele>
        <time>2021-09-25T13:20:47Z</time>
      </trkpt>
      <trkpt lat="46.49024" lon="-1.79453">
        <ele>7.9</ele>
        <time>2021-09-25T13:20:48Z</time>
      </trkpt>
      <trkpt lat="46.49024" lon="-1.79452">
        <ele>7.9</ele>
        <time>2021-09-25T13:20:49Z</time>
      </trkpt>
      <trkpt lat="46.49024" lon="-1.79452">
        <ele>7.9</ele>
        <time>2021-09-25T13:20:50Z</time>
      </trkpt>
      <trkpt lat="46.49024" lon="-1.79452">
        <ele>8</ele>
        <time>2021-09-25T13:20:51Z</time>
      </trkpt>
      <trkpt lat="46.49024" lon="-1.79451">
        <ele>8</ele>
        <time>2021-09-25T13:20:52Z</time>
      </trkpt>
      <trkpt lat="46.49024" lon="-1.79451">
        <ele>8</ele>
        <time>2021-09-25T13:20:53Z</time>
      </trkpt>
      <trkpt lat="46.49024" lon="-1.79451">
        <ele>8</ele>
        <time>2021-09-25T13:20:54Z</time>
      </trkpt>
      <trkpt lat="46.49024" lon="-1.79451">
        <ele>8</ele>
        <time>2021-09-25T13:20:55Z</time>
      </trkpt>
      <trkpt lat="46.49024" lon="-1.79451">
        <ele>8</ele>
        <time>2021-09-25T13:20:56Z</time>
      </trkpt>
      <trkpt lat="46.49024" lon="-1.79451">
        <ele>8</ele>
        <time>2021-09-25T13:20:57Z</time>
      </trkpt>
      <trkpt lat="46.49024" lon="-1.79451">
        <ele>8</ele>
        <time>2021-09-25T13:20:58Z</time>
      </trkpt>
      <trkpt lat="46.49024" lon="-1.79451">
        <ele>8</ele>
        <time>2021-09-25T13:20:59Z</time>
      </trkpt>
      <trkpt lat="46.49024" lon="-1.79451">
        <ele>8</ele>
        <time>2021-09-25T13:21:00Z</time>
      </trkpt>
      <trkpt lat="46.49024" lon="-1.79451">
        <ele>8</ele>
        <time>2021-09-25T13:21:01Z</time>
      </trkpt>
      <trkpt lat="46.49024" lon="-1.79451">
        <ele>8</ele>
        <time>2021-09-25T13:21:02Z</time>
      </trkpt>
      <trkpt lat="46.49024" lon="-1.79451">
        <ele>8</ele>
        <time>2021-09-25T13:21:03Z</time>
      </trkpt>
      <trkpt lat="46.49024" lon="-1.79451">
        <ele>8</ele>
        <time>2021-09-25T13:21:04Z</time>
      </trkpt>
      <trkpt lat="46.49024" lon="-1.79451">
        <ele>8</ele>
        <time>2021-09-25T13:21:05Z</time>
      </trkpt>
      <trkpt lat="46.49024" lon="-1.79451">
        <ele>8</ele>
        <time>2021-09-25T13:21:06Z</time>
      </trkpt>
      <trkpt lat="46.49024" lon="-1.79451">
        <ele>8</ele>
        <time>2021-09-25T13:21:07Z</time>
      </trkpt>
      <trkpt lat="46.49024" lon="-1.79451">
        <ele>8</ele>
        <time>2021-09-25T13:21:08Z</time>
      </trkpt>
      <trkpt lat="46.49024" lon="-1.79451">
        <ele>8</ele>
        <time>2021-09-25T13:21:09Z</time>
      </trkpt>
      <trkpt lat="46.49024" lon="-1.79451">
        <ele>8</ele>
        <time>2021-09-25T13:21:10Z</time>
      </trkpt>
      <trkpt lat="46.49024" lon="-1.79451">
        <ele>8</ele>
        <time>2021-09-25T13:21:11Z</time>
      </trkpt>
      <trkpt lat="46.49024" lon="-1.79451">
        <ele>8</ele>
        <time>2021-09-25T13:21:12Z</time>
      </trkpt>
      <trkpt lat="46.49024" lon="-1.79451">
        <ele>8</ele>
        <time>2021-09-25T13:21:13Z</time>
      </trkpt>
      <trkpt lat="46.49024" lon="-1.79451">
        <ele>8</ele>
        <time>2021-09-25T13:21:14Z</time>
      </trkpt>
      <trkpt lat="46.49024" lon="-1.79451">
        <ele>8</ele>
        <time>2021-09-25T13:21:15Z</time>
      </trkpt>
      <trkpt lat="46.49024" lon="-1.79451">
        <ele>8</ele>
        <time>2021-09-25T13:21:16Z</time>
      </trkpt>
      <trkpt lat="46.49024" lon="-1.79451">
        <ele>8</ele>
        <time>2021-09-25T13:21:17Z</time>
      </trkpt>
      <trkpt lat="46.49024" lon="-1.79451">
        <ele>8</ele>
        <time>2021-09-25T13:21:18Z</time>
      </trkpt>
      <trkpt lat="46.49024" lon="-1.79451">
        <ele>8</ele>
        <time>2021-09-25T13:21:19Z</time>
      </trkpt>
      <trkpt lat="46.49024" lon="-1.79451">
        <ele>8</ele>
        <time>2021-09-25T13:21:20Z</time>
      </trkpt>
      <trkpt lat="46.49024" lon="-1.79451">
        <ele>8</ele>
        <time>2021-09-25T13:21:21Z</time>
      </trkpt>
      <trkpt lat="46.49024" lon="-1.79451">
        <ele>8</ele>
        <time>2021-09-25T13:21:22Z</time>
      </trkpt>
      <trkpt lat="46.49024" lon="-1.79451">
        <ele>8</ele>
        <time>2021-09-25T13:21:23Z</time>
      </trkpt>
      <trkpt lat="46.49024" lon="-1.79451">
        <ele>8</ele>
        <time>2021-09-25T13:21:24Z</time>
      </trkpt>
      <trkpt lat="46.49024" lon="-1.79451">
        <ele>8</ele>
        <time>2021-09-25T13:21:25Z</time>
      </trkpt>
      <trkpt lat="46.49024" lon="-1.79451">
        <ele>8</ele>
        <time>2021-09-25T13:21:26Z</time>
      </trkpt>
      <trkpt lat="46.49024" lon="-1.79451">
        <ele>8</ele>
        <time>2021-09-25T13:21:27Z</time>
      </trkpt>
      <trkpt lat="46.49024" lon="-1.79451">
        <ele>8</ele>
        <time>2021-09-25T13:21:28Z</time>
      </trkpt>
      <trkpt lat="46.49024" lon="-1.79451">
        <ele>8</ele>
        <time>2021-09-25T13:21:29Z</time>
      </trkpt>
      <trkpt lat="46.49024" lon="-1.79451">
        <ele>8</ele>
        <time>2021-09-25T13:21:30Z</time>
      </trkpt>
      <trkpt lat="46.49024" lon="-1.79451">
        <ele>8</ele>
        <time>2021-09-25T13:21:31Z</time>
      </trkpt>
      <trkpt lat="46.49024" lon="-1.79451">
        <ele>8</ele>
        <time>2021-09-25T13:21:32Z</time>
      </trkpt>
      <trkpt lat="46.49024" lon="-1.79451">
        <ele>8</ele>
        <time>2021-09-25T13:21:33Z</time>
      </trkpt>
      <trkpt lat="46.49024" lon="-1.79451">
        <ele>8</ele>
        <time>2021-09-25T13:21:34Z</time>
      </trkpt>
      <trkpt lat="46.49024" lon="-1.79451">
        <ele>8</ele>
        <time>2021-09-25T13:21:35Z</time>
      </trkpt>
      <trkpt lat="46.49024" lon="-1.79451">
        <ele>8</ele>
        <time>2021-09-25T13:21:36Z</time>
      </trkpt>
      <trkpt lat="46.49024" lon="-1.79451">
        <ele>8</ele>
        <time>2021-09-25T13:21:37Z</time>
      </trkpt>
      <trkpt lat="46.49024" lon="-1.79451">
        <ele>8</ele>
        <time>2021-09-25T13:21:38Z</time>
      </trkpt>
      <trkpt lat="46.49024" lon="-1.79451">
        <ele>8</ele>
        <time>2021-09-25T13:21:39Z</time>
      </trkpt>
      <trkpt lat="46.49024" lon="-1.79451">
        <ele>8</ele>
        <time>2021-09-25T13:21:40Z</time>
      </trkpt>
      <trkpt lat="46.49024" lon="-1.79451">
        <ele>8</ele>
        <time>2021-09-25T13:21:41Z</time>
      </trkpt>
      <trkpt lat="46.49024" lon="-1.79451">
        <ele>8</ele>
        <time>2021-09-25T13:21:42Z</time>
      </trkpt>
      <trkpt lat="46.49024" lon="-1.79451">
        <ele>8</ele>
        <time>2021-09-25T13:21:43Z</time>
      </trkpt>
      <trkpt lat="46.49024" lon="-1.79451">
        <ele>8</ele>
        <time>2021-09-25T13:21:44Z</time>
      </trkpt>
      <trkpt lat="46.49024" lon="-1.79451">
        <ele>8</ele>
        <time>2021-09-25T13:21:45Z</time>
      </trkpt>
      <trkpt lat="46.49024" lon="-1.79451">
        <ele>8</ele>
        <time>2021-09-25T13:21:46Z</time>
      </trkpt>
      <trkpt lat="46.49024" lon="-1.79451">
        <ele>8</ele>
        <time>2021-09-25T13:21:47Z</time>
      </trkpt>
      <trkpt lat="46.49024" lon="-1.79451">
        <ele>8</ele>
        <time>2021-09-25T13:21:48Z</time>
      </trkpt>
      <trkpt lat="46.49024" lon="-1.79451">
        <ele>8</ele>
        <time>2021-09-25T13:21:49Z</time>
      </trkpt>
      <trkpt lat="46.49024" lon="-1.79451">
        <ele>8</ele>
        <time>2021-09-25T13:21:50Z</time>
      </trkpt>
      <trkpt lat="46.49024" lon="-1.79451">
        <ele>8</ele>
        <time>2021-09-25T13:21:51Z</time>
      </trkpt>
      <trkpt lat="46.49024" lon="-1.79451">
        <ele>8</ele>
        <time>2021-09-25T13:21:52Z</time>
      </trkpt>
      <trkpt lat="46.49024" lon="-1.79451">
        <ele>8</ele>
        <time>2021-09-25T13:21:53Z</time>
      </trkpt>
      <trkpt lat="46.49024" lon="-1.79451">
        <ele>8</ele>
        <time>2021-09-25T13:21:54Z</time>
      </trkpt>
      <trkpt lat="46.49024" lon="-1.79451">
        <ele>8</ele>
        <time>2021-09-25T13:21:55Z</time>
      </trkpt>
      <trkpt lat="46.49024" lon="-1.79451">
        <ele>8</ele>
        <time>2021-09-25T13:21:56Z</time>
      </trkpt>
      <trkpt lat="46.49024" lon="-1.79451">
        <ele>8</ele>
        <time>2021-09-25T13:21:57Z</time>
      </trkpt>
      <trkpt lat="46.49024" lon="-1.79451">
        <ele>8</ele>
        <time>2021-09-25T13:21:58Z</time>
      </trkpt>
      <trkpt lat="46.49024" lon="-1.79451">
        <ele>8</ele>
        <time>2021-09-25T13:21:59Z</time>
      </trkpt>
      <trkpt lat="46.49024" lon="-1.79451">
        <ele>8</ele>
        <time>2021-09-25T13:22:00Z</time>
      </trkpt>
      <trkpt lat="46.49024" lon="-1.79451">
        <ele>8</ele>
        <time>2021-09-25T13:22:01Z</time>
      </trkpt>
      <trkpt lat="46.49024" lon="-1.79451">
        <ele>8</ele>
        <time>2021-09-25T13:22:02Z</time>
      </trkpt>
      <trkpt lat="46.49024" lon="-1.79451">
        <ele>8</ele>
        <time>2021-09-25T13:22:03Z</time>
      </trkpt>
      <trkpt lat="46.49024" lon="-1.79451">
        <ele>8</ele>
        <time>2021-09-25T13:22:04Z</time>
      </trkpt>
      <trkpt lat="46.49024" lon="-1.79452">
        <ele>8.1</ele>
        <time>2021-09-25T13:22:05Z</time>
      </trkpt>
      <trkpt lat="46.49024" lon="-1.79452">
        <ele>8.1</ele>
        <time>2021-09-25T13:22:06Z</time>
      </trkpt>
      <trkpt lat="46.49025" lon="-1.79452">
        <ele>8.1</ele>
        <time>2021-09-25T13:22:07Z</time>
      </trkpt>
      <trkpt lat="46.49025" lon="-1.79453">
        <ele>8.1</ele>
        <time>2021-09-25T13:22:08Z</time>
      </trkpt>
      <trkpt lat="46.49025" lon="-1.79453">
        <ele>8.1</ele>
        <time>2021-09-25T13:22:09Z</time>
      </trkpt>
      <trkpt lat="46.49026" lon="-1.79453">
        <ele>8.1</ele>
        <time>2021-09-25T13:22:10Z</time>
      </trkpt>
      <trkpt lat="46.49027" lon="-1.79453">
        <ele>8.2</ele>
        <time>2021-09-25T13:22:11Z</time>
      </trkpt>
      <trkpt lat="46.49028" lon="-1.79453">
        <ele>8.2</ele>
        <time>2021-09-25T13:22:12Z</time>
      </trkpt>
      <trkpt lat="46.49029" lon="-1.79452">
        <ele>8.2</ele>
        <time>2021-09-25T13:22:13Z</time>
      </trkpt>
      <trkpt lat="46.4903" lon="-1.79451">
        <ele>8.3</ele>
        <time>2021-09-25T13:22:14Z</time>
      </trkpt>
      <trkpt lat="46.49031" lon="-1.7945">
        <ele>8.3</ele>
        <time>2021-09-25T13:22:15Z</time>
      </trkpt>
      <trkpt lat="46.49032" lon="-1.7945">
        <ele>8.3</ele>
        <time>2021-09-25T13:22:16Z</time>
      </trkpt>
      <trkpt lat="46.49032" lon="-1.79449">
        <ele>8.4</ele>
        <time>2021-09-25T13:22:17Z</time>
      </trkpt>
      <trkpt lat="46.49032" lon="-1.79448">
        <ele>8.4</ele>
        <time>2021-09-25T13:22:18Z</time>
      </trkpt>
      <trkpt lat="46.49033" lon="-1.79448">
        <ele>8.4</ele>
        <time>2021-09-25T13:22:19Z</time>
      </trkpt>
      <trkpt lat="46.49033" lon="-1.79447">
        <ele>8.4</ele>
        <time>2021-09-25T13:22:20Z</time>
      </trkpt>
      <trkpt lat="46.49033" lon="-1.79446">
        <ele>8.4</ele>
        <time>2021-09-25T13:22:21Z</time>
      </trkpt>
      <trkpt lat="46.49033" lon="-1.79446">
        <ele>8.3</ele>
        <time>2021-09-25T13:22:22Z</time>
      </trkpt>
      <trkpt lat="46.49033" lon="-1.79445">
        <ele>8.4</ele>
        <time>2021-09-25T13:22:23Z</time>
      </trkpt>
      <trkpt lat="46.49033" lon="-1.79444">
        <ele>8.4</ele>
        <time>2021-09-25T13:22:24Z</time>
      </trkpt>
      <trkpt lat="46.49033" lon="-1.79443">
        <ele>8.4</ele>
        <time>2021-09-25T13:22:25Z</time>
      </trkpt>
      <trkpt lat="46.49033" lon="-1.79443">
        <ele>8.4</ele>
        <time>2021-09-25T13:22:26Z</time>
      </trkpt>
      <trkpt lat="46.49033" lon="-1.79442">
        <ele>8.2</ele>
        <time>2021-09-25T13:22:27Z</time>
      </trkpt>
      <trkpt lat="46.49034" lon="-1.79441">
        <ele>8.3</ele>
        <time>2021-09-25T13:22:28Z</time>
      </trkpt>
      <trkpt lat="46.49034" lon="-1.7944">
        <ele>8.3</ele>
        <time>2021-09-25T13:22:29Z</time>
      </trkpt>
      <trkpt lat="46.49034" lon="-1.79439">
        <ele>8.3</ele>
        <time>2021-09-25T13:22:30Z</time>
      </trkpt>
      <trkpt lat="46.49035" lon="-1.79438">
        <ele>8</ele>
        <time>2021-09-25T13:22:31Z</time>
      </trkpt>
      <trkpt lat="46.49035" lon="-1.79437">
        <ele>8</ele>
        <time>2021-09-25T13:22:32Z</time>
      </trkpt>
      <trkpt lat="46.49036" lon="-1.79436">
        <ele>8</ele>
        <time>2021-09-25T13:22:33Z</time>
      </trkpt>
      <trkpt lat="46.49036" lon="-1.79435">
        <ele>8</ele>
        <time>2021-09-25T13:22:34Z</time>
      </trkpt>
      <trkpt lat="46.49036" lon="-1.79435">
        <ele>8</ele>
        <time>2021-09-25T13:22:35Z</time>
      </trkpt>
      <trkpt lat="46.49036" lon="-1.79434">
        <ele>8.1</ele>
        <time>2021-09-25T13:22:36Z</time>
      </trkpt>
      <trkpt lat="46.49037" lon="-1.79434">
        <ele>8.1</ele>
        <time>2021-09-25T13:22:37Z</time>
      </trkpt>
      <trkpt lat="46.49037" lon="-1.79434">
        <ele>8.1</ele>
        <time>2021-09-25T13:22:38Z</time>
      </trkpt>
      <trkpt lat="46.49037" lon="-1.79434">
        <ele>8.1</ele>
        <time>2021-09-25T13:22:39Z</time>
      </trkpt>
      <trkpt lat="46.49037" lon="-1.79433">
        <ele>8.1</ele>
        <time>2021-09-25T13:22:40Z</time>
      </trkpt>
      <trkpt lat="46.49037" lon="-1.79433">
        <ele>8.1</ele>
        <time>2021-09-25T13:22:41Z</time>
      </trkpt>
      <trkpt lat="46.49037" lon="-1.79434">
        <ele>8.2</ele>
        <time>2021-09-25T13:22:42Z</time>
      </trkpt>
      <trkpt lat="46.49037" lon="-1.79434">
        <ele>8.2</ele>
        <time>2021-09-25T13:22:43Z</time>
      </trkpt>
      <trkpt lat="46.49037" lon="-1.79434">
        <ele>8.2</ele>
        <time>2021-09-25T13:22:44Z</time>
      </trkpt>
      <trkpt lat="46.49037" lon="-1.79434">
        <ele>8.2</ele>
        <time>2021-09-25T13:22:45Z</time>
      </trkpt>
      <trkpt lat="46.49037" lon="-1.79434">
        <ele>8.2</ele>
        <time>2021-09-25T13:22:46Z</time>
      </trkpt>
      <trkpt lat="46.49037" lon="-1.79434">
        <ele>8.2</ele>
        <time>2021-09-25T13:22:47Z</time>
      </trkpt>
      <trkpt lat="46.49037" lon="-1.79434">
        <ele>8.3</ele>
        <time>2021-09-25T13:22:48Z</time>
      </trkpt>
      <trkpt lat="46.49036" lon="-1.79434">
        <ele>8.3</ele>
        <time>2021-09-25T13:22:49Z</time>
      </trkpt>
      <trkpt lat="46.49036" lon="-1.79434">
        <ele>8.3</ele>
        <time>2021-09-25T13:22:50Z</time>
      </trkpt>
      <trkpt lat="46.49037" lon="-1.79434">
        <ele>8.3</ele>
        <time>2021-09-25T13:22:51Z</time>
      </trkpt>
      <trkpt lat="46.49037" lon="-1.79434">
        <ele>8.3</ele>
        <time>2021-09-25T13:22:52Z</time>
      </trkpt>
      <trkpt lat="46.49037" lon="-1.79434">
        <ele>8.3</ele>
        <time>2021-09-25T13:22:53Z</time>
      </trkpt>
      <trkpt lat="46.49037" lon="-1.79433">
        <ele>7.8</ele>
        <time>2021-09-25T13:22:54Z</time>
      </trkpt>
      <trkpt lat="46.49037" lon="-1.79433">
        <ele>7.9</ele>
        <time>2021-09-25T13:22:55Z</time>
      </trkpt>
      <trkpt lat="46.49038" lon="-1.79432">
        <ele>7.9</ele>
        <time>2021-09-25T13:22:56Z</time>
      </trkpt>
      <trkpt lat="46.49038" lon="-1.79431">
        <ele>7.9</ele>
        <time>2021-09-25T13:22:57Z</time>
      </trkpt>
      <trkpt lat="46.49039" lon="-1.7943">
        <ele>7.9</ele>
        <time>2021-09-25T13:22:58Z</time>
      </trkpt>
      <trkpt lat="46.4904" lon="-1.7943">
        <ele>7.9</ele>
        <time>2021-09-25T13:22:59Z</time>
      </trkpt>
      <trkpt lat="46.49041" lon="-1.79429">
        <ele>7.1</ele>
        <time>2021-09-25T13:23:00Z</time>
      </trkpt>
      <trkpt lat="46.49042" lon="-1.79428">
        <ele>7.2</ele>
        <time>2021-09-25T13:23:01Z</time>
      </trkpt>
      <trkpt lat="46.49042" lon="-1.79427">
        <ele>7.2</ele>
        <time>2021-09-25T13:23:02Z</time>
      </trkpt>
      <trkpt lat="46.49042" lon="-1.79426">
        <ele>7.2</ele>
        <time>2021-09-25T13:23:03Z</time>
      </trkpt>
      <trkpt lat="46.49042" lon="-1.79425">
        <ele>7.2</ele>
        <time>2021-09-25T13:23:04Z</time>
      </trkpt>
      <trkpt lat="46.49042" lon="-1.79423">
        <ele>6.2</ele>
        <time>2021-09-25T13:23:05Z</time>
      </trkpt>
      <trkpt lat="46.49042" lon="-1.79422">
        <ele>6.2</ele>
        <time>2021-09-25T13:23:06Z</time>
      </trkpt>
      <trkpt lat="46.49042" lon="-1.79421">
        <ele>6.3</ele>
        <time>2021-09-25T13:23:07Z</time>
      </trkpt>
      <trkpt lat="46.49042" lon="-1.7942">
        <ele>5.2</ele>
        <time>2021-09-25T13:23:08Z</time>
      </trkpt>
      <trkpt lat="46.49042" lon="-1.79419">
        <ele>5.2</ele>
        <time>2021-09-25T13:23:09Z</time>
      </trkpt>
      <trkpt lat="46.49043" lon="-1.79418">
        <ele>5.2</ele>
        <time>2021-09-25T13:23:10Z</time>
      </trkpt>
      <trkpt lat="46.49044" lon="-1.79418">
        <ele>5.2</ele>
        <time>2021-09-25T13:23:11Z</time>
      </trkpt>
      <trkpt lat="46.49045" lon="-1.79418">
        <ele>5.2</ele>
        <time>2021-09-25T13:23:12Z</time>
      </trkpt>
      <trkpt lat="46.49046" lon="-1.79418">
        <ele>5.3</ele>
        <time>2021-09-25T13:23:13Z</time>
      </trkpt>
      <trkpt lat="46.49047" lon="-1.79418">
        <ele>5.3</ele>
        <time>2021-09-25T13:23:14Z</time>
      </trkpt>
      <trkpt lat="46.49049" lon="-1.79418">
        <ele>5.3</ele>
        <time>2021-09-25T13:23:15Z</time>
      </trkpt>
      <trkpt lat="46.4905" lon="-1.79418">
        <ele>5.3</ele>
        <time>2021-09-25T13:23:16Z</time>
      </trkpt>
      <trkpt lat="46.49051" lon="-1.79418">
        <ele>5.3</ele>
        <time>2021-09-25T13:23:17Z</time>
      </trkpt>
      <trkpt lat="46.49052" lon="-1.79418">
        <ele>5.3</ele>
        <time>2021-09-25T13:23:18Z</time>
      </trkpt>
      <trkpt lat="46.49053" lon="-1.79418">
        <ele>5.4</ele>
        <time>2021-09-25T13:23:19Z</time>
      </trkpt>
      <trkpt lat="46.49055" lon="-1.79419">
        <ele>5.4</ele>
        <time>2021-09-25T13:23:20Z</time>
      </trkpt>
      <trkpt lat="46.49056" lon="-1.79419">
        <ele>5.5</ele>
        <time>2021-09-25T13:23:21Z</time>
      </trkpt>
      <trkpt lat="46.49057" lon="-1.79419">
        <ele>5.5</ele>
        <time>2021-09-25T13:23:22Z</time>
      </trkpt>
      <trkpt lat="46.49058" lon="-1.7942">
        <ele>5.5</ele>
        <time>2021-09-25T13:23:23Z</time>
      </trkpt>
      <trkpt lat="46.49059" lon="-1.7942">
        <ele>5.5</ele>
        <time>2021-09-25T13:23:24Z</time>
      </trkpt>
      <trkpt lat="46.49059" lon="-1.7942">
        <ele>5.5</ele>
        <time>2021-09-25T13:23:25Z</time>
      </trkpt>
      <trkpt lat="46.4906" lon="-1.7942">
        <ele>5.6</ele>
        <time>2021-09-25T13:23:26Z</time>
      </trkpt>
      <trkpt lat="46.49061" lon="-1.7942">
        <ele>5.6</ele>
        <time>2021-09-25T13:23:27Z</time>
      </trkpt>
      <trkpt lat="46.49061" lon="-1.7942">
        <ele>5.6</ele>
        <time>2021-09-25T13:23:28Z</time>
      </trkpt>
      <trkpt lat="46.49062" lon="-1.7942">
        <ele>5.6</ele>
        <time>2021-09-25T13:23:29Z</time>
      </trkpt>
      <trkpt lat="46.49062" lon="-1.7942">
        <ele>5.6</ele>
        <time>2021-09-25T13:23:30Z</time>
      </trkpt>
      <trkpt lat="46.49063" lon="-1.7942">
        <ele>5.6</ele>
        <time>2021-09-25T13:23:31Z</time>
      </trkpt>
      <trkpt lat="46.49063" lon="-1.79419">
        <ele>5.7</ele>
        <time>2021-09-25T13:23:32Z</time>
      </trkpt>
      <trkpt lat="46.49064" lon="-1.79419">
        <ele>5.7</ele>
        <time>2021-09-25T13:23:33Z</time>
      </trkpt>
      <trkpt lat="46.49064" lon="-1.79418">
        <ele>5.7</ele>
        <time>2021-09-25T13:23:34Z</time>
      </trkpt>
      <trkpt lat="46.49064" lon="-1.79417">
        <ele>5.7</ele>
        <time>2021-09-25T13:23:35Z</time>
      </trkpt>
      <trkpt lat="46.49064" lon="-1.79417">
        <ele>5.7</ele>
        <time>2021-09-25T13:23:36Z</time>
      </trkpt>
      <trkpt lat="46.49065" lon="-1.79416">
        <ele>5.7</ele>
        <time>2021-09-25T13:23:37Z</time>
      </trkpt>
      <trkpt lat="46.49065" lon="-1.79415">
        <ele>5.7</ele>
        <time>2021-09-25T13:23:38Z</time>
      </trkpt>
      <trkpt lat="46.49065" lon="-1.79414">
        <ele>5.7</ele>
        <time>2021-09-25T13:23:39Z</time>
      </trkpt>
      <trkpt lat="46.49065" lon="-1.79413">
        <ele>5.8</ele>
        <time>2021-09-25T13:23:40Z</time>
      </trkpt>
      <trkpt lat="46.49065" lon="-1.79411">
        <ele>5.8</ele>
        <time>2021-09-25T13:23:41Z</time>
      </trkpt>
      <trkpt lat="46.49065" lon="-1.7941">
        <ele>5.9</ele>
        <time>2021-09-25T13:23:42Z</time>
      </trkpt>
      <trkpt lat="46.49065" lon="-1.79409">
        <ele>5.9</ele>
        <time>2021-09-25T13:23:43Z</time>
      </trkpt>
      <trkpt lat="46.49065" lon="-1.79408">
        <ele>5.9</ele>
        <time>2021-09-25T13:23:44Z</time>
      </trkpt>
      <trkpt lat="46.49065" lon="-1.79406">
        <ele>5.9</ele>
        <time>2021-09-25T13:23:45Z</time>
      </trkpt>
      <trkpt lat="46.49066" lon="-1.79405">
        <ele>5.9</ele>
        <time>2021-09-25T13:23:46Z</time>
      </trkpt>
      <trkpt lat="46.49066" lon="-1.79404">
        <ele>5.9</ele>
        <time>2021-09-25T13:23:47Z</time>
      </trkpt>
      <trkpt lat="46.49066" lon="-1.79402">
        <ele>5.9</ele>
        <time>2021-09-25T13:23:48Z</time>
      </trkpt>
      <trkpt lat="46.49066" lon="-1.79401">
        <ele>5.9</ele>
        <time>2021-09-25T13:23:49Z</time>
      </trkpt>
      <trkpt lat="46.49066" lon="-1.79399">
        <ele>5.9</ele>
        <time>2021-09-25T13:23:50Z</time>
      </trkpt>
      <trkpt lat="46.49066" lon="-1.79398">
        <ele>5.9</ele>
        <time>2021-09-25T13:23:51Z</time>
      </trkpt>
      <trkpt lat="46.49067" lon="-1.79397">
        <ele>5.9</ele>
        <time>2021-09-25T13:23:52Z</time>
      </trkpt>
      <trkpt lat="46.49067" lon="-1.79395">
        <ele>5.9</ele>
        <time>2021-09-25T13:23:53Z</time>
      </trkpt>
      <trkpt lat="46.49067" lon="-1.79394">
        <ele>5.9</ele>
        <time>2021-09-25T13:23:54Z</time>
      </trkpt>
      <trkpt lat="46.49067" lon="-1.79392">
        <ele>6</ele>
        <time>2021-09-25T13:23:55Z</time>
      </trkpt>
      <trkpt lat="46.49068" lon="-1.79391">
        <ele>6</ele>
        <time>2021-09-25T13:23:56Z</time>
      </trkpt>
      <trkpt lat="46.49068" lon="-1.79389">
        <ele>6</ele>
        <time>2021-09-25T13:23:57Z</time>
      </trkpt>
      <trkpt lat="46.49068" lon="-1.79388">
        <ele>6</ele>
        <time>2021-09-25T13:23:58Z</time>
      </trkpt>
      <trkpt lat="46.49068" lon="-1.79387">
        <ele>6</ele>
        <time>2021-09-25T13:23:59Z</time>
      </trkpt>
      <trkpt lat="46.49068" lon="-1.79385">
        <ele>6</ele>
        <time>2021-09-25T13:24:00Z</time>
      </trkpt>
      <trkpt lat="46.49069" lon="-1.79384">
        <ele>6</ele>
        <time>2021-09-25T13:24:01Z</time>
      </trkpt>
      <trkpt lat="46.49069" lon="-1.79382">
        <ele>6</ele>
        <time>2021-09-25T13:24:02Z</time>
      </trkpt>
      <trkpt lat="46.49069" lon="-1.79381">
        <ele>6</ele>
        <time>2021-09-25T13:24:03Z</time>
      </trkpt>
      <trkpt lat="46.49069" lon="-1.79379">
        <ele>6</ele>
        <time>2021-09-25T13:24:04Z</time>
      </trkpt>
      <trkpt lat="46.49069" lon="-1.79378">
        <ele>6</ele>
        <time>2021-09-25T13:24:05Z</time>
      </trkpt>
      <trkpt lat="46.4907" lon="-1.79376">
        <ele>6</ele>
        <time>2021-09-25T13:24:06Z</time>
      </trkpt>
      <trkpt lat="46.4907" lon="-1.79375">
        <ele>6</ele>
        <time>2021-09-25T13:24:07Z</time>
      </trkpt>
      <trkpt lat="46.4907" lon="-1.79373">
        <ele>6</ele>
        <time>2021-09-25T13:24:08Z</time>
      </trkpt>
      <trkpt lat="46.49071" lon="-1.79372">
        <ele>6</ele>
        <time>2021-09-25T13:24:09Z</time>
      </trkpt>
      <trkpt lat="46.49071" lon="-1.7937">
        <ele>6</ele>
        <time>2021-09-25T13:24:10Z</time>
      </trkpt>
      <trkpt lat="46.49071" lon="-1.79369">
        <ele>6</ele>
        <time>2021-09-25T13:24:11Z</time>
      </trkpt>
      <trkpt lat="46.49072" lon="-1.79368">
        <ele>6</ele>
        <time>2021-09-25T13:24:12Z</time>
      </trkpt>
      <trkpt lat="46.49072" lon="-1.79367">
        <ele>6</ele>
        <time>2021-09-25T13:24:13Z</time>
      </trkpt>
      <trkpt lat="46.49072" lon="-1.79366">
        <ele>6</ele>
        <time>2021-09-25T13:24:14Z</time>
      </trkpt>
      <trkpt lat="46.49073" lon="-1.79365">
        <ele>6</ele>
        <time>2021-09-25T13:24:15Z</time>
      </trkpt>
      <trkpt lat="46.49073" lon="-1.79364">
        <ele>6</ele>
        <time>2021-09-25T13:24:16Z</time>
      </trkpt>
      <trkpt lat="46.49073" lon="-1.79363">
        <ele>6</ele>
        <time>2021-09-25T13:24:17Z</time>
      </trkpt>
      <trkpt lat="46.49074" lon="-1.79363">
        <ele>6</ele>
        <time>2021-09-25T13:24:18Z</time>
      </trkpt>
      <trkpt lat="46.49074" lon="-1.79362">
        <ele>6</ele>
        <time>2021-09-25T13:24:19Z</time>
      </trkpt>
      <trkpt lat="46.49074" lon="-1.79362">
        <ele>6</ele>
        <time>2021-09-25T13:24:20Z</time>
      </trkpt>
      <trkpt lat="46.49074" lon="-1.79362">
        <ele>6</ele>
        <time>2021-09-25T13:24:21Z</time>
      </trkpt>
      <trkpt lat="46.49075" lon="-1.79362">
        <ele>6</ele>
        <time>2021-09-25T13:24:22Z</time>
      </trkpt>
      <trkpt lat="46.49075" lon="-1.79362">
        <ele>6</ele>
        <time>2021-09-25T13:24:23Z</time>
      </trkpt>
      <trkpt lat="46.49075" lon="-1.79362">
        <ele>6</ele>
        <time>2021-09-25T13:24:24Z</time>
      </trkpt>
      <trkpt lat="46.49075" lon="-1.79362">
        <ele>6</ele>
        <time>2021-09-25T13:24:25Z</time>
      </trkpt>
      <trkpt lat="46.49075" lon="-1.79362">
        <ele>6</ele>
        <time>2021-09-25T13:24:26Z</time>
      </trkpt>
      <trkpt lat="46.49075" lon="-1.79362">
        <ele>6</ele>
        <time>2021-09-25T13:24:27Z</time>
      </trkpt>
      <trkpt lat="46.49075" lon="-1.79362">
        <ele>6</ele>
        <time>2021-09-25T13:24:28Z</time>
      </trkpt>
      <trkpt lat="46.49075" lon="-1.79362">
        <ele>6</ele>
        <time>2021-09-25T13:24:29Z</time>
      </trkpt>
      <trkpt lat="46.49075" lon="-1.79362">
        <ele>6</ele>
        <time>2021-09-25T13:24:30Z</time>
      </trkpt>
      <trkpt lat="46.49075" lon="-1.79362">
        <ele>6</ele>
        <time>2021-09-25T13:24:31Z</time>
      </trkpt>
      <trkpt lat="46.49075" lon="-1.79362">
        <ele>6</ele>
        <time>2021-09-25T13:24:32Z</time>
      </trkpt>
      <trkpt lat="46.49075" lon="-1.79362">
        <ele>6</ele>
        <time>2021-09-25T13:24:33Z</time>
      </trkpt>
      <trkpt lat="46.49075" lon="-1.79362">
        <ele>6</ele>
        <time>2021-09-25T13:24:34Z</time>
      </trkpt>
      <trkpt lat="46.49075" lon="-1.79362">
        <ele>6</ele>
        <time>2021-09-25T13:24:35Z</time>
      </trkpt>
      <trkpt lat="46.49075" lon="-1.79362">
        <ele>6</ele>
        <time>2021-09-25T13:24:36Z</time>
      </trkpt>
      <trkpt lat="46.49075" lon="-1.79362">
        <ele>6</ele>
        <time>2021-09-25T13:24:37Z</time>
      </trkpt>
      <trkpt lat="46.49075" lon="-1.79362">
        <ele>6</ele>
        <time>2021-09-25T13:24:38Z</time>
      </trkpt>
      <trkpt lat="46.49075" lon="-1.79362">
        <ele>6</ele>
        <time>2021-09-25T13:24:39Z</time>
      </trkpt>
      <trkpt lat="46.49075" lon="-1.79362">
        <ele>6</ele>
        <time>2021-09-25T13:24:40Z</time>
      </trkpt>
      <trkpt lat="46.49075" lon="-1.79362">
        <ele>6</ele>
        <time>2021-09-25T13:24:41Z</time>
      </trkpt>
      <trkpt lat="46.49075" lon="-1.79362">
        <ele>6</ele>
        <time>2021-09-25T13:24:42Z</time>
      </trkpt>
      <trkpt lat="46.49076" lon="-1.79363">
        <ele>6</ele>
        <time>2021-09-25T13:24:43Z</time>
      </trkpt>
      <trkpt lat="46.49076" lon="-1.79363">
        <ele>6</ele>
        <time>2021-09-25T13:24:44Z</time>
      </trkpt>
      <trkpt lat="46.49076" lon="-1.79363">
        <ele>5.9</ele>
        <time>2021-09-25T13:24:45Z</time>
      </trkpt>
      <trkpt lat="46.49077" lon="-1.79364">
        <ele>5.9</ele>
        <time>2021-09-25T13:24:46Z</time>
      </trkpt>
      <trkpt lat="46.49077" lon="-1.79364">
        <ele>5.9</ele>
        <time>2021-09-25T13:24:47Z</time>
      </trkpt>
      <trkpt lat="46.49078" lon="-1.79365">
        <ele>5.9</ele>
        <time>2021-09-25T13:24:48Z</time>
      </trkpt>
      <trkpt lat="46.49078" lon="-1.79365">
        <ele>5.9</ele>
        <time>2021-09-25T13:24:49Z</time>
      </trkpt>
      <trkpt lat="46.49079" lon="-1.79365">
        <ele>5.9</ele>
        <time>2021-09-25T13:24:50Z</time>
      </trkpt>
      <trkpt lat="46.4908" lon="-1.79366">
        <ele>5.9</ele>
        <time>2021-09-25T13:24:51Z</time>
      </trkpt>
      <trkpt lat="46.49081" lon="-1.79366">
        <ele>5.9</ele>
        <time>2021-09-25T13:24:52Z</time>
      </trkpt>
      <trkpt lat="46.49081" lon="-1.79367">
        <ele>5.9</ele>
        <time>2021-09-25T13:24:53Z</time>
      </trkpt>
      <trkpt lat="46.49082" lon="-1.79367">
        <ele>5.9</ele>
        <time>2021-09-25T13:24:54Z</time>
      </trkpt>
      <trkpt lat="46.49082" lon="-1.79367">
        <ele>5.9</ele>
        <time>2021-09-25T13:24:55Z</time>
      </trkpt>
      <trkpt lat="46.49083" lon="-1.79367">
        <ele>5.9</ele>
        <time>2021-09-25T13:24:56Z</time>
      </trkpt>
      <trkpt lat="46.49083" lon="-1.79367">
        <ele>5.9</ele>
        <time>2021-09-25T13:24:57Z</time>
      </trkpt>
      <trkpt lat="46.49083" lon="-1.79367">
        <ele>5.9</ele>
        <time>2021-09-25T13:24:58Z</time>
      </trkpt>
      <trkpt lat="46.49083" lon="-1.79367">
        <ele>5.9</ele>
        <time>2021-09-25T13:24:59Z</time>
      </trkpt>
      <trkpt lat="46.49083" lon="-1.79367">
        <ele>5.9</ele>
        <time>2021-09-25T13:25:00Z</time>
      </trkpt>
      <trkpt lat="46.49082" lon="-1.79367">
        <ele>5.9</ele>
        <time>2021-09-25T13:25:01Z</time>
      </trkpt>
      <trkpt lat="46.49082" lon="-1.79367">
        <ele>5.9</ele>
        <time>2021-09-25T13:25:02Z</time>
      </trkpt>
      <trkpt lat="46.49082" lon="-1.79367">
        <ele>5.9</ele>
        <time>2021-09-25T13:25:03Z</time>
      </trkpt>
      <trkpt lat="46.49082" lon="-1.79367">
        <ele>5.9</ele>
        <time>2021-09-25T13:25:04Z</time>
      </trkpt>
      <trkpt lat="46.49083" lon="-1.79367">
        <ele>5.9</ele>
        <time>2021-09-25T13:25:05Z</time>
      </trkpt>
      <trkpt lat="46.49083" lon="-1.79368">
        <ele>5.9</ele>
        <time>2021-09-25T13:25:06Z</time>
      </trkpt>
      <trkpt lat="46.49083" lon="-1.79368">
        <ele>5.9</ele>
        <time>2021-09-25T13:25:07Z</time>
      </trkpt>
      <trkpt lat="46.49084" lon="-1.79368">
        <ele>5.9</ele>
        <time>2021-09-25T13:25:08Z</time>
      </trkpt>
      <trkpt lat="46.49084" lon="-1.79368">
        <ele>5.9</ele>
        <time>2021-09-25T13:25:09Z</time>
      </trkpt>
      <trkpt lat="46.49085" lon="-1.79369">
        <ele>5.9</ele>
        <time>2021-09-25T13:25:10Z</time>
      </trkpt>
      <trkpt lat="46.49085" lon="-1.79369">
        <ele>5.9</ele>
        <time>2021-09-25T13:25:11Z</time>
      </trkpt>
      <trkpt lat="46.49086" lon="-1.79369">
        <ele>5.9</ele>
        <time>2021-09-25T13:25:12Z</time>
      </trkpt>
      <trkpt lat="46.49086" lon="-1.7937">
        <ele>5.9</ele>
        <time>2021-09-25T13:25:13Z</time>
      </trkpt>
      <trkpt lat="46.49087" lon="-1.7937">
        <ele>5.9</ele>
        <time>2021-09-25T13:25:14Z</time>
      </trkpt>
      <trkpt lat="46.49088" lon="-1.79371">
        <ele>5.9</ele>
        <time>2021-09-25T13:25:15Z</time>
      </trkpt>
      <trkpt lat="46.49089" lon="-1.79371">
        <ele>5.9</ele>
        <time>2021-09-25T13:25:16Z</time>
      </trkpt>
      <trkpt lat="46.4909" lon="-1.79372">
        <ele>5.9</ele>
        <time>2021-09-25T13:25:17Z</time>
      </trkpt>
      <trkpt lat="46.4909" lon="-1.79372">
        <ele>5.9</ele>
        <time>2021-09-25T13:25:18Z</time>
      </trkpt>
      <trkpt lat="46.49091" lon="-1.79373">
        <ele>5.9</ele>
        <time>2021-09-25T13:25:19Z</time>
      </trkpt>
      <trkpt lat="46.49092" lon="-1.79373">
        <ele>5.9</ele>
        <time>2021-09-25T13:25:20Z</time>
      </trkpt>
      <trkpt lat="46.49093" lon="-1.79374">
        <ele>5.9</ele>
        <time>2021-09-25T13:25:21Z</time>
      </trkpt>
      <trkpt lat="46.49094" lon="-1.79375">
        <ele>5.9</ele>
        <time>2021-09-25T13:25:22Z</time>
      </trkpt>
      <trkpt lat="46.49095" lon="-1.79375">
        <ele>5.9</ele>
        <time>2021-09-25T13:25:23Z</time>
      </trkpt>
      <trkpt lat="46.49096" lon="-1.79376">
        <ele>5.9</ele>
        <time>2021-09-25T13:25:24Z</time>
      </trkpt>
      <trkpt lat="46.49097" lon="-1.79377">
        <ele>5.9</ele>
        <time>2021-09-25T13:25:25Z</time>
      </trkpt>
      <trkpt lat="46.49097" lon="-1.79377">
        <ele>5.9</ele>
        <time>2021-09-25T13:25:26Z</time>
      </trkpt>
      <trkpt lat="46.49098" lon="-1.79378">
        <ele>5.9</ele>
        <time>2021-09-25T13:25:27Z</time>
      </trkpt>
      <trkpt lat="46.49099" lon="-1.79379">
        <ele>5.9</ele>
        <time>2021-09-25T13:25:28Z</time>
      </trkpt>
      <trkpt lat="46.491" lon="-1.79379">
        <ele>5.9</ele>
        <time>2021-09-25T13:25:29Z</time>
      </trkpt>
      <trkpt lat="46.49101" lon="-1.7938">
        <ele>5.9</ele>
        <time>2021-09-25T13:25:30Z</time>
      </trkpt>
      <trkpt lat="46.49102" lon="-1.79381">
        <ele>5.9</ele>
        <time>2021-09-25T13:25:31Z</time>
      </trkpt>
      <trkpt lat="46.49103" lon="-1.79381">
        <ele>5.8</ele>
        <time>2021-09-25T13:25:32Z</time>
      </trkpt>
      <trkpt lat="46.49104" lon="-1.79382">
        <ele>5.8</ele>
        <time>2021-09-25T13:25:33Z</time>
      </trkpt>
      <trkpt lat="46.49105" lon="-1.79383">
        <ele>5.8</ele>
        <time>2021-09-25T13:25:34Z</time>
      </trkpt>
      <trkpt lat="46.49106" lon="-1.79384">
        <ele>5.8</ele>
        <time>2021-09-25T13:25:35Z</time>
      </trkpt>
      <trkpt lat="46.49106" lon="-1.79384">
        <ele>5.8</ele>
        <time>2021-09-25T13:25:36Z</time>
      </trkpt>
      <trkpt lat="46.49107" lon="-1.79385">
        <ele>5.8</ele>
        <time>2021-09-25T13:25:37Z</time>
      </trkpt>
      <trkpt lat="46.49108" lon="-1.79386">
        <ele>5.8</ele>
        <time>2021-09-25T13:25:38Z</time>
      </trkpt>
      <trkpt lat="46.49109" lon="-1.79386">
        <ele>5.8</ele>
        <time>2021-09-25T13:25:39Z</time>
      </trkpt>
      <trkpt lat="46.4911" lon="-1.79387">
        <ele>5.8</ele>
        <time>2021-09-25T13:25:40Z</time>
      </trkpt>
      <trkpt lat="46.49111" lon="-1.79388">
        <ele>5.8</ele>
        <time>2021-09-25T13:25:41Z</time>
      </trkpt>
      <trkpt lat="46.49112" lon="-1.79388">
        <ele>5.8</ele>
        <time>2021-09-25T13:25:42Z</time>
      </trkpt>
      <trkpt lat="46.49113" lon="-1.79389">
        <ele>5.8</ele>
        <time>2021-09-25T13:25:43Z</time>
      </trkpt>
      <trkpt lat="46.49114" lon="-1.7939">
        <ele>5.8</ele>
        <time>2021-09-25T13:25:44Z</time>
      </trkpt>
      <trkpt lat="46.49115" lon="-1.7939">
        <ele>5.8</ele>
        <time>2021-09-25T13:25:45Z</time>
      </trkpt>
      <trkpt lat="46.49116" lon="-1.79391">
        <ele>5.8</ele>
        <time>2021-09-25T13:25:46Z</time>
      </trkpt>
      <trkpt lat="46.49116" lon="-1.79391">
        <ele>5.8</ele>
        <time>2021-09-25T13:25:47Z</time>
      </trkpt>
      <trkpt lat="46.49117" lon="-1.79392">
        <ele>5.8</ele>
        <time>2021-09-25T13:25:48Z</time>
      </trkpt>
      <trkpt lat="46.49118" lon="-1.79392">
        <ele>5.8</ele>
        <time>2021-09-25T13:25:49Z</time>
      </trkpt>
      <trkpt lat="46.49119" lon="-1.79393">
        <ele>5.8</ele>
        <time>2021-09-25T13:25:50Z</time>
      </trkpt>
      <trkpt lat="46.4912" lon="-1.79394">
        <ele>5.8</ele>
        <time>2021-09-25T13:25:51Z</time>
      </trkpt>
      <trkpt lat="46.49121" lon="-1.79394">
        <ele>5.8</ele>
        <time>2021-09-25T13:25:52Z</time>
      </trkpt>
      <trkpt lat="46.49122" lon="-1.79395">
        <ele>5.8</ele>
        <time>2021-09-25T13:25:53Z</time>
      </trkpt>
      <trkpt lat="46.49123" lon="-1.79395">
        <ele>5.8</ele>
        <time>2021-09-25T13:25:54Z</time>
      </trkpt>
      <trkpt lat="46.49124" lon="-1.79396">
        <ele>5.8</ele>
        <time>2021-09-25T13:25:55Z</time>
      </trkpt>
      <trkpt lat="46.49125" lon="-1.79396">
        <ele>5.8</ele>
        <time>2021-09-25T13:25:56Z</time>
      </trkpt>
      <trkpt lat="46.49126" lon="-1.79397">
        <ele>5.8</ele>
        <time>2021-09-25T13:25:57Z</time>
      </trkpt>
      <trkpt lat="46.49127" lon="-1.79397">
        <ele>5.8</ele>
        <time>2021-09-25T13:25:58Z</time>
      </trkpt>
      <trkpt lat="46.49128" lon="-1.79398">
        <ele>5.8</ele>
        <time>2021-09-25T13:25:59Z</time>
      </trkpt>
      <trkpt lat="46.49128" lon="-1.79398">
        <ele>5.8</ele>
        <time>2021-09-25T13:26:00Z</time>
      </trkpt>
      <trkpt lat="46.49129" lon="-1.79399">
        <ele>5.8</ele>
        <time>2021-09-25T13:26:01Z</time>
      </trkpt>
      <trkpt lat="46.4913" lon="-1.79399">
        <ele>5.8</ele>
        <time>2021-09-25T13:26:02Z</time>
      </trkpt>
      <trkpt lat="46.49131" lon="-1.794">
        <ele>5.8</ele>
        <time>2021-09-25T13:26:03Z</time>
      </trkpt>
      <trkpt lat="46.49132" lon="-1.794">
        <ele>5.8</ele>
        <time>2021-09-25T13:26:04Z</time>
      </trkpt>
      <trkpt lat="46.49133" lon="-1.79401">
        <ele>5.8</ele>
        <time>2021-09-25T13:26:05Z</time>
      </trkpt>
      <trkpt lat="46.49134" lon="-1.79402">
        <ele>5.8</ele>
        <time>2021-09-25T13:26:06Z</time>
      </trkpt>
      <trkpt lat="46.49135" lon="-1.79402">
        <ele>5.8</ele>
        <time>2021-09-25T13:26:07Z</time>
      </trkpt>
      <trkpt lat="46.49136" lon="-1.79403">
        <ele>5.8</ele>
        <time>2021-09-25T13:26:08Z</time>
      </trkpt>
      <trkpt lat="46.49137" lon="-1.79403">
        <ele>5.8</ele>
        <time>2021-09-25T13:26:09Z</time>
      </trkpt>
      <trkpt lat="46.49138" lon="-1.79404">
        <ele>5.8</ele>
        <time>2021-09-25T13:26:10Z</time>
      </trkpt>
      <trkpt lat="46.49139" lon="-1.79404">
        <ele>5.8</ele>
        <time>2021-09-25T13:26:11Z</time>
      </trkpt>
      <trkpt lat="46.4914" lon="-1.79405">
        <ele>5.8</ele>
        <time>2021-09-25T13:26:12Z</time>
      </trkpt>
      <trkpt lat="46.4914" lon="-1.79406">
        <ele>5.8</ele>
        <time>2021-09-25T13:26:13Z</time>
      </trkpt>
      <trkpt lat="46.49141" lon="-1.79406">
        <ele>5.8</ele>
        <time>2021-09-25T13:26:14Z</time>
      </trkpt>
      <trkpt lat="46.49142" lon="-1.79407">
        <ele>5.8</ele>
        <time>2021-09-25T13:26:15Z</time>
      </trkpt>
      <trkpt lat="46.49143" lon="-1.79408">
        <ele>5.8</ele>
        <time>2021-09-25T13:26:16Z</time>
      </trkpt>
      <trkpt lat="46.49144" lon="-1.79408">
        <ele>5.8</ele>
        <time>2021-09-25T13:26:17Z</time>
      </trkpt>
      <trkpt lat="46.49145" lon="-1.79409">
        <ele>5.8</ele>
        <time>2021-09-25T13:26:18Z</time>
      </trkpt>
      <trkpt lat="46.49146" lon="-1.7941">
        <ele>5.8</ele>
        <time>2021-09-25T13:26:19Z</time>
      </trkpt>
      <trkpt lat="46.49147" lon="-1.79411">
        <ele>5.8</ele>
        <time>2021-09-25T13:26:20Z</time>
      </trkpt>
      <trkpt lat="46.49148" lon="-1.79411">
        <ele>5.8</ele>
        <time>2021-09-25T13:26:21Z</time>
      </trkpt>
      <trkpt lat="46.49148" lon="-1.79412">
        <ele>5.8</ele>
        <time>2021-09-25T13:26:22Z</time>
      </trkpt>
      <trkpt lat="46.49149" lon="-1.79413">
        <ele>5.8</ele>
        <time>2021-09-25T13:26:23Z</time>
      </trkpt>
      <trkpt lat="46.4915" lon="-1.79414">
        <ele>5.8</ele>
        <time>2021-09-25T13:26:24Z</time>
      </trkpt>
      <trkpt lat="46.49151" lon="-1.79415">
        <ele>5.8</ele>
        <time>2021-09-25T13:26:25Z</time>
      </trkpt>
      <trkpt lat="46.49152" lon="-1.79415">
        <ele>5.8</ele>
        <time>2021-09-25T13:26:26Z</time>
      </trkpt>
      <trkpt lat="46.49153" lon="-1.79416">
        <ele>5.8</ele>
        <time>2021-09-25T13:26:27Z</time>
      </trkpt>
      <trkpt lat="46.49154" lon="-1.79417">
        <ele>5.8</ele>
        <time>2021-09-25T13:26:28Z</time>
      </trkpt>
      <trkpt lat="46.49155" lon="-1.79417">
        <ele>5.8</ele>
        <time>2021-09-25T13:26:29Z</time>
      </trkpt>
      <trkpt lat="46.49156" lon="-1.79418">
        <ele>5.8</ele>
        <time>2021-09-25T13:26:30Z</time>
      </trkpt>
      <trkpt lat="46.49157" lon="-1.79419">
        <ele>5.8</ele>
        <time>2021-09-25T13:26:31Z</time>
      </trkpt>
      <trkpt lat="46.49158" lon="-1.79419">
        <ele>5.8</ele>
        <time>2021-09-25T13:26:32Z</time>
      </trkpt>
      <trkpt lat="46.49159" lon="-1.7942">
        <ele>5.8</ele>
        <time>2021-09-25T13:26:33Z</time>
      </trkpt>
      <trkpt lat="46.4916" lon="-1.7942">
        <ele>5.8</ele>
        <time>2021-09-25T13:26:34Z</time>
      </trkpt>
      <trkpt lat="46.49161" lon="-1.79421">
        <ele>5.8</ele>
        <time>2021-09-25T13:26:35Z</time>
      </trkpt>
      <trkpt lat="46.49162" lon="-1.79421">
        <ele>5.8</ele>
        <time>2021-09-25T13:26:36Z</time>
      </trkpt>
      <trkpt lat="46.49163" lon="-1.79422">
        <ele>5.8</ele>
        <time>2021-09-25T13:26:37Z</time>
      </trkpt>
      <trkpt lat="46.49163" lon="-1.79422">
        <ele>5.8</ele>
        <time>2021-09-25T13:26:38Z</time>
      </trkpt>
      <trkpt lat="46.49164" lon="-1.79423">
        <ele>5.8</ele>
        <time>2021-09-25T13:26:39Z</time>
      </trkpt>
      <trkpt lat="46.49165" lon="-1.79423">
        <ele>5.8</ele>
        <time>2021-09-25T13:26:40Z</time>
      </trkpt>
      <trkpt lat="46.49166" lon="-1.79424">
        <ele>5.8</ele>
        <time>2021-09-25T13:26:41Z</time>
      </trkpt>
      <trkpt lat="46.49167" lon="-1.79424">
        <ele>5.8</ele>
        <time>2021-09-25T13:26:42Z</time>
      </trkpt>
      <trkpt lat="46.49167" lon="-1.79425">
        <ele>5.8</ele>
        <time>2021-09-25T13:26:43Z</time>
      </trkpt>
      <trkpt lat="46.49168" lon="-1.79426">
        <ele>5.8</ele>
        <time>2021-09-25T13:26:44Z</time>
      </trkpt>
      <trkpt lat="46.49169" lon="-1.79426">
        <ele>5.8</ele>
        <time>2021-09-25T13:26:45Z</time>
      </trkpt>
      <trkpt lat="46.4917" lon="-1.79427">
        <ele>5.8</ele>
        <time>2021-09-25T13:26:46Z</time>
      </trkpt>
      <trkpt lat="46.4917" lon="-1.79428">
        <ele>5.8</ele>
        <time>2021-09-25T13:26:47Z</time>
      </trkpt>
      <trkpt lat="46.49171" lon="-1.79429">
        <ele>5.8</ele>
        <time>2021-09-25T13:26:48Z</time>
      </trkpt>
      <trkpt lat="46.49172" lon="-1.7943">
        <ele>5.8</ele>
        <time>2021-09-25T13:26:49Z</time>
      </trkpt>
      <trkpt lat="46.49173" lon="-1.79431">
        <ele>5.8</ele>
        <time>2021-09-25T13:26:50Z</time>
      </trkpt>
      <trkpt lat="46.49174" lon="-1.79432">
        <ele>5.8</ele>
        <time>2021-09-25T13:26:51Z</time>
      </trkpt>
      <trkpt lat="46.49174" lon="-1.79433">
        <ele>5.8</ele>
        <time>2021-09-25T13:26:52Z</time>
      </trkpt>
      <trkpt lat="46.49175" lon="-1.79434">
        <ele>5.8</ele>
        <time>2021-09-25T13:26:53Z</time>
      </trkpt>
      <trkpt lat="46.49176" lon="-1.79435">
        <ele>5.8</ele>
        <time>2021-09-25T13:26:54Z</time>
      </trkpt>
      <trkpt lat="46.49177" lon="-1.79436">
        <ele>5.8</ele>
        <time>2021-09-25T13:26:55Z</time>
      </trkpt>
      <trkpt lat="46.49178" lon="-1.79437">
        <ele>5.8</ele>
        <time>2021-09-25T13:26:56Z</time>
      </trkpt>
      <trkpt lat="46.49178" lon="-1.79438">
        <ele>5.8</ele>
        <time>2021-09-25T13:26:57Z</time>
      </trkpt>
      <trkpt lat="46.49179" lon="-1.79439">
        <ele>5.8</ele>
        <time>2021-09-25T13:26:58Z</time>
      </trkpt>
      <trkpt lat="46.4918" lon="-1.79439">
        <ele>5.8</ele>
        <time>2021-09-25T13:26:59Z</time>
      </trkpt>
      <trkpt lat="46.49181" lon="-1.7944">
        <ele>5.8</ele>
        <time>2021-09-25T13:27:00Z</time>
      </trkpt>
      <trkpt lat="46.49182" lon="-1.79441">
        <ele>5.8</ele>
        <time>2021-09-25T13:27:01Z</time>
      </trkpt>
      <trkpt lat="46.49183" lon="-1.79442">
        <ele>5.8</ele>
        <time>2021-09-25T13:27:02Z</time>
      </trkpt>
      <trkpt lat="46.49184" lon="-1.79442">
        <ele>5.8</ele>
        <time>2021-09-25T13:27:03Z</time>
      </trkpt>
      <trkpt lat="46.49185" lon="-1.79443">
        <ele>5.8</ele>
        <time>2021-09-25T13:27:04Z</time>
      </trkpt>
      <trkpt lat="46.49185" lon="-1.79444">
        <ele>5.8</ele>
        <time>2021-09-25T13:27:05Z</time>
      </trkpt>
      <trkpt lat="46.49186" lon="-1.79444">
        <ele>5.8</ele>
        <time>2021-09-25T13:27:06Z</time>
      </trkpt>
      <trkpt lat="46.49187" lon="-1.79445">
        <ele>5.8</ele>
        <time>2021-09-25T13:27:07Z</time>
      </trkpt>
      <trkpt lat="46.49188" lon="-1.79446">
        <ele>5.8</ele>
        <time>2021-09-25T13:27:08Z</time>
      </trkpt>
      <trkpt lat="46.49189" lon="-1.79446">
        <ele>5.8</ele>
        <time>2021-09-25T13:27:09Z</time>
      </trkpt>
      <trkpt lat="46.4919" lon="-1.79447">
        <ele>5.8</ele>
        <time>2021-09-25T13:27:10Z</time>
      </trkpt>
      <trkpt lat="46.49191" lon="-1.79447">
        <ele>5.8</ele>
        <time>2021-09-25T13:27:11Z</time>
      </trkpt>
      <trkpt lat="46.49192" lon="-1.79448">
        <ele>5.8</ele>
        <time>2021-09-25T13:27:12Z</time>
      </trkpt>
      <trkpt lat="46.49193" lon="-1.79448">
        <ele>5.8</ele>
        <time>2021-09-25T13:27:13Z</time>
      </trkpt>
      <trkpt lat="46.49194" lon="-1.79449">
        <ele>5.8</ele>
        <time>2021-09-25T13:27:14Z</time>
      </trkpt>
      <trkpt lat="46.49195" lon="-1.79449">
        <ele>5.8</ele>
        <time>2021-09-25T13:27:15Z</time>
      </trkpt>
      <trkpt lat="46.49196" lon="-1.7945">
        <ele>5.8</ele>
        <time>2021-09-25T13:27:16Z</time>
      </trkpt>
      <trkpt lat="46.49197" lon="-1.7945">
        <ele>5.8</ele>
        <time>2021-09-25T13:27:17Z</time>
      </trkpt>
      <trkpt lat="46.49198" lon="-1.79451">
        <ele>5.8</ele>
        <time>2021-09-25T13:27:18Z</time>
      </trkpt>
      <trkpt lat="46.49199" lon="-1.79451">
        <ele>5.8</ele>
        <time>2021-09-25T13:27:19Z</time>
      </trkpt>
      <trkpt lat="46.492" lon="-1.79452">
        <ele>5.8</ele>
        <time>2021-09-25T13:27:20Z</time>
      </trkpt>
      <trkpt lat="46.49201" lon="-1.79452">
        <ele>5.8</ele>
        <time>2021-09-25T13:27:21Z</time>
      </trkpt>
      <trkpt lat="46.49202" lon="-1.79453">
        <ele>5.8</ele>
        <time>2021-09-25T13:27:22Z</time>
      </trkpt>
      <trkpt lat="46.49203" lon="-1.79453">
        <ele>5.8</ele>
        <time>2021-09-25T13:27:23Z</time>
      </trkpt>
      <trkpt lat="46.49204" lon="-1.79454">
        <ele>5.8</ele>
        <time>2021-09-25T13:27:24Z</time>
      </trkpt>
      <trkpt lat="46.49205" lon="-1.79454">
        <ele>5.8</ele>
        <time>2021-09-25T13:27:25Z</time>
      </trkpt>
      <trkpt lat="46.49206" lon="-1.79455">
        <ele>5.8</ele>
        <time>2021-09-25T13:27:26Z</time>
      </trkpt>
      <trkpt lat="46.49207" lon="-1.79455">
        <ele>5.8</ele>
        <time>2021-09-25T13:27:27Z</time>
      </trkpt>
      <trkpt lat="46.49208" lon="-1.79456">
        <ele>5.8</ele>
        <time>2021-09-25T13:27:28Z</time>
      </trkpt>
      <trkpt lat="46.49209" lon="-1.79456">
        <ele>5.8</ele>
        <time>2021-09-25T13:27:29Z</time>
      </trkpt>
      <trkpt lat="46.4921" lon="-1.79457">
        <ele>5.8</ele>
        <time>2021-09-25T13:27:30Z</time>
      </trkpt>
      <trkpt lat="46.49211" lon="-1.79457">
        <ele>5.8</ele>
        <time>2021-09-25T13:27:31Z</time>
      </trkpt>
      <trkpt lat="46.49212" lon="-1.79458">
        <ele>5.8</ele>
        <time>2021-09-25T13:27:32Z</time>
      </trkpt>
      <trkpt lat="46.49213" lon="-1.79459">
        <ele>5.8</ele>
        <time>2021-09-25T13:27:33Z</time>
      </trkpt>
      <trkpt lat="46.49214" lon="-1.79459">
        <ele>5.8</ele>
        <time>2021-09-25T13:27:34Z</time>
      </trkpt>
      <trkpt lat="46.49215" lon="-1.7946">
        <ele>5.9</ele>
        <time>2021-09-25T13:27:35Z</time>
      </trkpt>
      <trkpt lat="46.49216" lon="-1.79461">
        <ele>5.9</ele>
        <time>2021-09-25T13:27:36Z</time>
      </trkpt>
      <trkpt lat="46.49217" lon="-1.79461">
        <ele>5.9</ele>
        <time>2021-09-25T13:27:37Z</time>
      </trkpt>
      <trkpt lat="46.49218" lon="-1.79462">
        <ele>5.9</ele>
        <time>2021-09-25T13:27:38Z</time>
      </trkpt>
      <trkpt lat="46.49219" lon="-1.79463">
        <ele>5.9</ele>
        <time>2021-09-25T13:27:39Z</time>
      </trkpt>
      <trkpt lat="46.4922" lon="-1.79464">
        <ele>5.9</ele>
        <time>2021-09-25T13:27:40Z</time>
      </trkpt>
      <trkpt lat="46.49221" lon="-1.79464">
        <ele>5.9</ele>
        <time>2021-09-25T13:27:41Z</time>
      </trkpt>
      <trkpt lat="46.49222" lon="-1.79465">
        <ele>5.9</ele>
        <time>2021-09-25T13:27:42Z</time>
      </trkpt>
      <trkpt lat="46.49223" lon="-1.79466">
        <ele>5.9</ele>
        <time>2021-09-25T13:27:43Z</time>
      </trkpt>
      <trkpt lat="46.49224" lon="-1.79466">
        <ele>5.9</ele>
        <time>2021-09-25T13:27:44Z</time>
      </trkpt>
      <trkpt lat="46.49225" lon="-1.79467">
        <ele>5.9</ele>
        <time>2021-09-25T13:27:45Z</time>
      </trkpt>
      <trkpt lat="46.49225" lon="-1.79467">
        <ele>5.9</ele>
        <time>2021-09-25T13:27:46Z</time>
      </trkpt>
      <trkpt lat="46.49226" lon="-1.79468">
        <ele>5.9</ele>
        <time>2021-09-25T13:27:47Z</time>
      </trkpt>
      <trkpt lat="46.49227" lon="-1.79468">
        <ele>5.9</ele>
        <time>2021-09-25T13:27:48Z</time>
      </trkpt>
      <trkpt lat="46.49228" lon="-1.79469">
        <ele>5.9</ele>
        <time>2021-09-25T13:27:49Z</time>
      </trkpt>
      <trkpt lat="46.49229" lon="-1.79469">
        <ele>5.9</ele>
        <time>2021-09-25T13:27:50Z</time>
      </trkpt>
      <trkpt lat="46.4923" lon="-1.7947">
        <ele>5.9</ele>
        <time>2021-09-25T13:27:51Z</time>
      </trkpt>
      <trkpt lat="46.49231" lon="-1.7947">
        <ele>5.9</ele>
        <time>2021-09-25T13:27:52Z</time>
      </trkpt>
      <trkpt lat="46.49232" lon="-1.7947">
        <ele>5.8</ele>
        <time>2021-09-25T13:27:53Z</time>
      </trkpt>
      <trkpt lat="46.49233" lon="-1.7947">
        <ele>5.7</ele>
        <time>2021-09-25T13:27:54Z</time>
      </trkpt>
      <trkpt lat="46.49234" lon="-1.79471">
        <ele>5.7</ele>
        <time>2021-09-25T13:27:55Z</time>
      </trkpt>
      <trkpt lat="46.49235" lon="-1.79471">
        <ele>5.7</ele>
        <time>2021-09-25T13:27:56Z</time>
      </trkpt>
      <trkpt lat="46.49236" lon="-1.79471">
        <ele>5.7</ele>
        <time>2021-09-25T13:27:57Z</time>
      </trkpt>
      <trkpt lat="46.49237" lon="-1.79471">
        <ele>5.7</ele>
        <time>2021-09-25T13:27:58Z</time>
      </trkpt>
      <trkpt lat="46.49238" lon="-1.79472">
        <ele>5.7</ele>
        <time>2021-09-25T13:27:59Z</time>
      </trkpt>
      <trkpt lat="46.49239" lon="-1.79472">
        <ele>5.7</ele>
        <time>2021-09-25T13:28:00Z</time>
      </trkpt>
      <trkpt lat="46.4924" lon="-1.79472">
        <ele>5.7</ele>
        <time>2021-09-25T13:28:01Z</time>
      </trkpt>
      <trkpt lat="46.49241" lon="-1.79473">
        <ele>5.7</ele>
        <time>2021-09-25T13:28:02Z</time>
      </trkpt>
      <trkpt lat="46.49242" lon="-1.79473">
        <ele>5.7</ele>
        <time>2021-09-25T13:28:03Z</time>
      </trkpt>
      <trkpt lat="46.49243" lon="-1.79474">
        <ele>5.7</ele>
        <time>2021-09-25T13:28:04Z</time>
      </trkpt>
      <trkpt lat="46.49244" lon="-1.79474">
        <ele>5.6</ele>
        <time>2021-09-25T13:28:05Z</time>
      </trkpt>
      <trkpt lat="46.49245" lon="-1.79475">
        <ele>5.6</ele>
        <time>2021-09-25T13:28:06Z</time>
      </trkpt>
      <trkpt lat="46.49246" lon="-1.79475">
        <ele>5.6</ele>
        <time>2021-09-25T13:28:07Z</time>
      </trkpt>
      <trkpt lat="46.49247" lon="-1.79476">
        <ele>5.6</ele>
        <time>2021-09-25T13:28:08Z</time>
      </trkpt>
      <trkpt lat="46.49248" lon="-1.79477">
        <ele>5.6</ele>
        <time>2021-09-25T13:28:09Z</time>
      </trkpt>
      <trkpt lat="46.49249" lon="-1.79477">
        <ele>5.6</ele>
        <time>2021-09-25T13:28:10Z</time>
      </trkpt>
      <trkpt lat="46.4925" lon="-1.79478">
        <ele>5.6</ele>
        <time>2021-09-25T13:28:11Z</time>
      </trkpt>
      <trkpt lat="46.49251" lon="-1.79478">
        <ele>5.6</ele>
        <time>2021-09-25T13:28:12Z</time>
      </trkpt>
      <trkpt lat="46.49251" lon="-1.79479">
        <ele>5.6</ele>
        <time>2021-09-25T13:28:13Z</time>
      </trkpt>
      <trkpt lat="46.49252" lon="-1.79479">
        <ele>5.6</ele>
        <time>2021-09-25T13:28:14Z</time>
      </trkpt>
      <trkpt lat="46.49253" lon="-1.7948">
        <ele>5.6</ele>
        <time>2021-09-25T13:28:15Z</time>
      </trkpt>
      <trkpt lat="46.49254" lon="-1.7948">
        <ele>5.6</ele>
        <time>2021-09-25T13:28:16Z</time>
      </trkpt>
      <trkpt lat="46.49255" lon="-1.79481">
        <ele>5.6</ele>
        <time>2021-09-25T13:28:17Z</time>
      </trkpt>
      <trkpt lat="46.49256" lon="-1.79482">
        <ele>5.6</ele>
        <time>2021-09-25T13:28:18Z</time>
      </trkpt>
      <trkpt lat="46.49257" lon="-1.79482">
        <ele>5.6</ele>
        <time>2021-09-25T13:28:19Z</time>
      </trkpt>
      <trkpt lat="46.49258" lon="-1.79483">
        <ele>5.6</ele>
        <time>2021-09-25T13:28:20Z</time>
      </trkpt>
      <trkpt lat="46.49258" lon="-1.79484">
        <ele>5.6</ele>
        <time>2021-09-25T13:28:21Z</time>
      </trkpt>
      <trkpt lat="46.49259" lon="-1.79484">
        <ele>5.6</ele>
        <time>2021-09-25T13:28:22Z</time>
      </trkpt>
      <trkpt lat="46.4926" lon="-1.79484">
        <ele>5.6</ele>
        <time>2021-09-25T13:28:23Z</time>
      </trkpt>
      <trkpt lat="46.49261" lon="-1.79485">
        <ele>5.6</ele>
        <time>2021-09-25T13:28:24Z</time>
      </trkpt>
      <trkpt lat="46.49262" lon="-1.79485">
        <ele>5.6</ele>
        <time>2021-09-25T13:28:25Z</time>
      </trkpt>
      <trkpt lat="46.49263" lon="-1.79486">
        <ele>5.6</ele>
        <time>2021-09-25T13:28:26Z</time>
      </trkpt>
      <trkpt lat="46.49264" lon="-1.79486">
        <ele>5.6</ele>
        <time>2021-09-25T13:28:27Z</time>
      </trkpt>
      <trkpt lat="46.49266" lon="-1.79487">
        <ele>5.6</ele>
        <time>2021-09-25T13:28:28Z</time>
      </trkpt>
      <trkpt lat="46.49267" lon="-1.79487">
        <ele>5.6</ele>
        <time>2021-09-25T13:28:29Z</time>
      </trkpt>
      <trkpt lat="46.49268" lon="-1.79488">
        <ele>5.6</ele>
        <time>2021-09-25T13:28:30Z</time>
      </trkpt>
      <trkpt lat="46.49269" lon="-1.79489">
        <ele>5.6</ele>
        <time>2021-09-25T13:28:31Z</time>
      </trkpt>
      <trkpt lat="46.49271" lon="-1.79489">
        <ele>5.6</ele>
        <time>2021-09-25T13:28:32Z</time>
      </trkpt>
      <trkpt lat="46.49272" lon="-1.7949">
        <ele>5.6</ele>
        <time>2021-09-25T13:28:33Z</time>
      </trkpt>
      <trkpt lat="46.49273" lon="-1.7949">
        <ele>5.6</ele>
        <time>2021-09-25T13:28:34Z</time>
      </trkpt>
      <trkpt lat="46.49274" lon="-1.79491">
        <ele>5.6</ele>
        <time>2021-09-25T13:28:35Z</time>
      </trkpt>
      <trkpt lat="46.49275" lon="-1.79491">
        <ele>5.6</ele>
        <time>2021-09-25T13:28:36Z</time>
      </trkpt>
      <trkpt lat="46.49276" lon="-1.79491">
        <ele>5.6</ele>
        <time>2021-09-25T13:28:37Z</time>
      </trkpt>
      <trkpt lat="46.49277" lon="-1.79492">
        <ele>5.6</ele>
        <time>2021-09-25T13:28:38Z</time>
      </trkpt>
      <trkpt lat="46.49278" lon="-1.79492">
        <ele>5.6</ele>
        <time>2021-09-25T13:28:39Z</time>
      </trkpt>
      <trkpt lat="46.49279" lon="-1.79492">
        <ele>5.5</ele>
        <time>2021-09-25T13:28:40Z</time>
      </trkpt>
      <trkpt lat="46.49279" lon="-1.79492">
        <ele>5.5</ele>
        <time>2021-09-25T13:28:41Z</time>
      </trkpt>
      <trkpt lat="46.4928" lon="-1.79493">
        <ele>5.5</ele>
        <time>2021-09-25T13:28:42Z</time>
      </trkpt>
      <trkpt lat="46.49281" lon="-1.79493">
        <ele>5.5</ele>
        <time>2021-09-25T13:28:43Z</time>
      </trkpt>
      <trkpt lat="46.49281" lon="-1.79493">
        <ele>5.5</ele>
        <time>2021-09-25T13:28:44Z</time>
      </trkpt>
      <trkpt lat="46.49282" lon="-1.79494">
        <ele>5.5</ele>
        <time>2021-09-25T13:28:45Z</time>
      </trkpt>
      <trkpt lat="46.49283" lon="-1.79494">
        <ele>5.5</ele>
        <time>2021-09-25T13:28:46Z</time>
      </trkpt>
      <trkpt lat="46.49284" lon="-1.79494">
        <ele>5.5</ele>
        <time>2021-09-25T13:28:47Z</time>
      </trkpt>
      <trkpt lat="46.49285" lon="-1.79495">
        <ele>5.5</ele>
        <time>2021-09-25T13:28:48Z</time>
      </trkpt>
      <trkpt lat="46.49286" lon="-1.79495">
        <ele>5.5</ele>
        <time>2021-09-25T13:28:49Z</time>
      </trkpt>
      <trkpt lat="46.49287" lon="-1.79496">
        <ele>5.5</ele>
        <time>2021-09-25T13:28:50Z</time>
      </trkpt>
      <trkpt lat="46.49288" lon="-1.79496">
        <ele>5.5</ele>
        <time>2021-09-25T13:28:51Z</time>
      </trkpt>
      <trkpt lat="46.49289" lon="-1.79497">
        <ele>5.5</ele>
        <time>2021-09-25T13:28:52Z</time>
      </trkpt>
      <trkpt lat="46.4929" lon="-1.79497">
        <ele>5.5</ele>
        <time>2021-09-25T13:28:53Z</time>
      </trkpt>
      <trkpt lat="46.49291" lon="-1.79498">
        <ele>5.5</ele>
        <time>2021-09-25T13:28:54Z</time>
      </trkpt>
      <trkpt lat="46.49292" lon="-1.79498">
        <ele>5.4</ele>
        <time>2021-09-25T13:28:55Z</time>
      </trkpt>
      <trkpt lat="46.49293" lon="-1.79499">
        <ele>5.4</ele>
        <time>2021-09-25T13:28:56Z</time>
      </trkpt>
      <trkpt lat="46.49294" lon="-1.79499">
        <ele>5.4</ele>
        <time>2021-09-25T13:28:57Z</time>
      </trkpt>
      <trkpt lat="46.49295" lon="-1.795">
        <ele>5.4</ele>
        <time>2021-09-25T13:28:58Z</time>
      </trkpt>
      <trkpt lat="46.49296" lon="-1.79501">
        <ele>5.4</ele>
        <time>2021-09-25T13:28:59Z</time>
      </trkpt>
      <trkpt lat="46.49297" lon="-1.79501">
        <ele>5.4</ele>
        <time>2021-09-25T13:29:00Z</time>
      </trkpt>
      <trkpt lat="46.49298" lon="-1.79502">
        <ele>5.4</ele>
        <time>2021-09-25T13:29:01Z</time>
      </trkpt>
      <trkpt lat="46.49299" lon="-1.79502">
        <ele>5.4</ele>
        <time>2021-09-25T13:29:02Z</time>
      </trkpt>
      <trkpt lat="46.493" lon="-1.79503">
        <ele>5.4</ele>
        <time>2021-09-25T13:29:03Z</time>
      </trkpt>
      <trkpt lat="46.49301" lon="-1.79503">
        <ele>5.4</ele>
        <time>2021-09-25T13:29:04Z</time>
      </trkpt>
      <trkpt lat="46.49301" lon="-1.79503">
        <ele>5.4</ele>
        <time>2021-09-25T13:29:05Z</time>
      </trkpt>
      <trkpt lat="46.49302" lon="-1.79504">
        <ele>5.4</ele>
        <time>2021-09-25T13:29:06Z</time>
      </trkpt>
      <trkpt lat="46.49303" lon="-1.79504">
        <ele>5.4</ele>
        <time>2021-09-25T13:29:07Z</time>
      </trkpt>
      <trkpt lat="46.49303" lon="-1.79504">
        <ele>5.4</ele>
        <time>2021-09-25T13:29:08Z</time>
      </trkpt>
      <trkpt lat="46.49304" lon="-1.79504">
        <ele>5.3</ele>
        <time>2021-09-25T13:29:09Z</time>
      </trkpt>
      <trkpt lat="46.49304" lon="-1.79504">
        <ele>5.3</ele>
        <time>2021-09-25T13:29:10Z</time>
      </trkpt>
      <trkpt lat="46.49305" lon="-1.79505">
        <ele>5.3</ele>
        <time>2021-09-25T13:29:11Z</time>
      </trkpt>
      <trkpt lat="46.49305" lon="-1.79505">
        <ele>5.3</ele>
        <time>2021-09-25T13:29:12Z</time>
      </trkpt>
      <trkpt lat="46.49305" lon="-1.79505">
        <ele>5.3</ele>
        <time>2021-09-25T13:29:13Z</time>
      </trkpt>
      <trkpt lat="46.49306" lon="-1.79505">
        <ele>5.3</ele>
        <time>2021-09-25T13:29:14Z</time>
      </trkpt>
      <trkpt lat="46.49306" lon="-1.79505">
        <ele>5.3</ele>
        <time>2021-09-25T13:29:15Z</time>
      </trkpt>
      <trkpt lat="46.49307" lon="-1.79505">
        <ele>5.3</ele>
        <time>2021-09-25T13:29:16Z</time>
      </trkpt>
      <trkpt lat="46.49308" lon="-1.79505">
        <ele>5.3</ele>
        <time>2021-09-25T13:29:17Z</time>
      </trkpt>
      <trkpt lat="46.49308" lon="-1.79505">
        <ele>5.3</ele>
        <time>2021-09-25T13:29:18Z</time>
      </trkpt>
      <trkpt lat="46.49309" lon="-1.79506">
        <ele>5.3</ele>
        <time>2021-09-25T13:29:19Z</time>
      </trkpt>
      <trkpt lat="46.4931" lon="-1.79506">
        <ele>5.3</ele>
        <time>2021-09-25T13:29:20Z</time>
      </trkpt>
      <trkpt lat="46.49311" lon="-1.79507">
        <ele>5.3</ele>
        <time>2021-09-25T13:29:21Z</time>
      </trkpt>
      <trkpt lat="46.49312" lon="-1.79507">
        <ele>5.3</ele>
        <time>2021-09-25T13:29:22Z</time>
      </trkpt>
      <trkpt lat="46.49312" lon="-1.79508">
        <ele>5.3</ele>
        <time>2021-09-25T13:29:23Z</time>
      </trkpt>
      <trkpt lat="46.49313" lon="-1.79508">
        <ele>5.3</ele>
        <time>2021-09-25T13:29:24Z</time>
      </trkpt>
      <trkpt lat="46.49314" lon="-1.79509">
        <ele>5.3</ele>
        <time>2021-09-25T13:29:25Z</time>
      </trkpt>
      <trkpt lat="46.49314" lon="-1.79509">
        <ele>5.3</ele>
        <time>2021-09-25T13:29:26Z</time>
      </trkpt>
      <trkpt lat="46.49314" lon="-1.79509">
        <ele>5.3</ele>
        <time>2021-09-25T13:29:27Z</time>
      </trkpt>
      <trkpt lat="46.49314" lon="-1.79509">
        <ele>5.3</ele>
        <time>2021-09-25T13:29:28Z</time>
      </trkpt>
      <trkpt lat="46.49314" lon="-1.79509">
        <ele>5.3</ele>
        <time>2021-09-25T13:29:29Z</time>
      </trkpt>
      <trkpt lat="46.49314" lon="-1.79509">
        <ele>5.3</ele>
        <time>2021-09-25T13:29:30Z</time>
      </trkpt>
      <trkpt lat="46.49314" lon="-1.79509">
        <ele>5.3</ele>
        <time>2021-09-25T13:29:31Z</time>
      </trkpt>
      <trkpt lat="46.49314" lon="-1.79509">
        <ele>5.3</ele>
        <time>2021-09-25T13:29:32Z</time>
      </trkpt>
      <trkpt lat="46.49314" lon="-1.79509">
        <ele>5.3</ele>
        <time>2021-09-25T13:29:33Z</time>
      </trkpt>
      <trkpt lat="46.49315" lon="-1.79509">
        <ele>5.3</ele>
        <time>2021-09-25T13:29:34Z</time>
      </trkpt>
      <trkpt lat="46.49315" lon="-1.7951">
        <ele>5.3</ele>
        <time>2021-09-25T13:29:35Z</time>
      </trkpt>
      <trkpt lat="46.49315" lon="-1.7951">
        <ele>5.3</ele>
        <time>2021-09-25T13:29:36Z</time>
      </trkpt>
      <trkpt lat="46.49316" lon="-1.79511">
        <ele>5.3</ele>
        <time>2021-09-25T13:29:37Z</time>
      </trkpt>
      <trkpt lat="46.49316" lon="-1.79511">
        <ele>5.3</ele>
        <time>2021-09-25T13:29:38Z</time>
      </trkpt>
      <trkpt lat="46.49316" lon="-1.79511">
        <ele>5.3</ele>
        <time>2021-09-25T13:29:39Z</time>
      </trkpt>
      <trkpt lat="46.49316" lon="-1.79511">
        <ele>5.3</ele>
        <time>2021-09-25T13:29:40Z</time>
      </trkpt>
      <trkpt lat="46.49316" lon="-1.79511">
        <ele>5.3</ele>
        <time>2021-09-25T13:29:41Z</time>
      </trkpt>
      <trkpt lat="46.49316" lon="-1.79511">
        <ele>5.3</ele>
        <time>2021-09-25T13:29:42Z</time>
      </trkpt>
      <trkpt lat="46.49317" lon="-1.79511">
        <ele>5.3</ele>
        <time>2021-09-25T13:29:43Z</time>
      </trkpt>
      <trkpt lat="46.49317" lon="-1.79511">
        <ele>5.3</ele>
        <time>2021-09-25T13:29:44Z</time>
      </trkpt>
      <trkpt lat="46.49318" lon="-1.79512">
        <ele>5.3</ele>
        <time>2021-09-25T13:29:45Z</time>
      </trkpt>
      <trkpt lat="46.49319" lon="-1.79512">
        <ele>5.3</ele>
        <time>2021-09-25T13:29:46Z</time>
      </trkpt>
      <trkpt lat="46.49319" lon="-1.79512">
        <ele>5.3</ele>
        <time>2021-09-25T13:29:47Z</time>
      </trkpt>
      <trkpt lat="46.4932" lon="-1.79513">
        <ele>5.3</ele>
        <time>2021-09-25T13:29:48Z</time>
      </trkpt>
      <trkpt lat="46.49321" lon="-1.79514">
        <ele>5.3</ele>
        <time>2021-09-25T13:29:49Z</time>
      </trkpt>
      <trkpt lat="46.49322" lon="-1.79514">
        <ele>5.3</ele>
        <time>2021-09-25T13:29:50Z</time>
      </trkpt>
      <trkpt lat="46.49323" lon="-1.79515">
        <ele>5.2</ele>
        <time>2021-09-25T13:29:51Z</time>
      </trkpt>
      <trkpt lat="46.49324" lon="-1.79516">
        <ele>5.2</ele>
        <time>2021-09-25T13:29:52Z</time>
      </trkpt>
      <trkpt lat="46.49325" lon="-1.79516">
        <ele>5.2</ele>
        <time>2021-09-25T13:29:53Z</time>
      </trkpt>
      <trkpt lat="46.49326" lon="-1.79517">
        <ele>5.2</ele>
        <time>2021-09-25T13:29:54Z</time>
      </trkpt>
      <trkpt lat="46.49327" lon="-1.79518">
        <ele>5.2</ele>
        <time>2021-09-25T13:29:55Z</time>
      </trkpt>
      <trkpt lat="46.49327" lon="-1.79519">
        <ele>5.2</ele>
        <time>2021-09-25T13:29:56Z</time>
      </trkpt>
      <trkpt lat="46.49328" lon="-1.79519">
        <ele>5.2</ele>
        <time>2021-09-25T13:29:57Z</time>
      </trkpt>
      <trkpt lat="46.49329" lon="-1.7952">
        <ele>5.2</ele>
        <time>2021-09-25T13:29:58Z</time>
      </trkpt>
      <trkpt lat="46.49329" lon="-1.79521">
        <ele>5.2</ele>
        <time>2021-09-25T13:29:59Z</time>
      </trkpt>
      <trkpt lat="46.4933" lon="-1.79521">
        <ele>5.2</ele>
        <time>2021-09-25T13:30:00Z</time>
      </trkpt>
      <trkpt lat="46.49331" lon="-1.79522">
        <ele>5.2</ele>
        <time>2021-09-25T13:30:01Z</time>
      </trkpt>
      <trkpt lat="46.49332" lon="-1.79523">
        <ele>5.2</ele>
        <time>2021-09-25T13:30:02Z</time>
      </trkpt>
      <trkpt lat="46.49333" lon="-1.79524">
        <ele>5.2</ele>
        <time>2021-09-25T13:30:03Z</time>
      </trkpt>
      <trkpt lat="46.49334" lon="-1.79524">
        <ele>5.2</ele>
        <time>2021-09-25T13:30:04Z</time>
      </trkpt>
      <trkpt lat="46.49335" lon="-1.79525">
        <ele>5.2</ele>
        <time>2021-09-25T13:30:05Z</time>
      </trkpt>
      <trkpt lat="46.49335" lon="-1.79525">
        <ele>5.2</ele>
        <time>2021-09-25T13:30:06Z</time>
      </trkpt>
      <trkpt lat="46.49336" lon="-1.79526">
        <ele>5.2</ele>
        <time>2021-09-25T13:30:07Z</time>
      </trkpt>
      <trkpt lat="46.49336" lon="-1.79526">
        <ele>5.2</ele>
        <time>2021-09-25T13:30:08Z</time>
      </trkpt>
      <trkpt lat="46.49336" lon="-1.79526">
        <ele>5.2</ele>
        <time>2021-09-25T13:30:09Z</time>
      </trkpt>
      <trkpt lat="46.49336" lon="-1.79526">
        <ele>5.2</ele>
        <time>2021-09-25T13:30:10Z</time>
      </trkpt>
      <trkpt lat="46.49336" lon="-1.79526">
        <ele>5.2</ele>
        <time>2021-09-25T13:30:11Z</time>
      </trkpt>
      <trkpt lat="46.49336" lon="-1.79526">
        <ele>5.2</ele>
        <time>2021-09-25T13:30:12Z</time>
      </trkpt>
      <trkpt lat="46.49336" lon="-1.79526">
        <ele>5.2</ele>
        <time>2021-09-25T13:30:13Z</time>
      </trkpt>
      <trkpt lat="46.49336" lon="-1.79526">
        <ele>5.2</ele>
        <time>2021-09-25T13:30:14Z</time>
      </trkpt>
      <trkpt lat="46.49337" lon="-1.79527">
        <ele>5.2</ele>
        <time>2021-09-25T13:30:15Z</time>
      </trkpt>
      <trkpt lat="46.49337" lon="-1.79527">
        <ele>5.2</ele>
        <time>2021-09-25T13:30:16Z</time>
      </trkpt>
      <trkpt lat="46.49338" lon="-1.79527">
        <ele>5.2</ele>
        <time>2021-09-25T13:30:17Z</time>
      </trkpt>
      <trkpt lat="46.49339" lon="-1.79528">
        <ele>5.2</ele>
        <time>2021-09-25T13:30:18Z</time>
      </trkpt>
      <trkpt lat="46.4934" lon="-1.79529">
        <ele>5.2</ele>
        <time>2021-09-25T13:30:19Z</time>
      </trkpt>
      <trkpt lat="46.49341" lon="-1.79529">
        <ele>5.2</ele>
        <time>2021-09-25T13:30:20Z</time>
      </trkpt>
      <trkpt lat="46.49342" lon="-1.7953">
        <ele>5.2</ele>
        <time>2021-09-25T13:30:21Z</time>
      </trkpt>
      <trkpt lat="46.49343" lon="-1.7953">
        <ele>5.2</ele>
        <time>2021-09-25T13:30:22Z</time>
      </trkpt>
      <trkpt lat="46.49344" lon="-1.79531">
        <ele>5.2</ele>
        <time>2021-09-25T13:30:23Z</time>
      </trkpt>
      <trkpt lat="46.49345" lon="-1.79531">
        <ele>5.2</ele>
        <time>2021-09-25T13:30:24Z</time>
      </trkpt>
      <trkpt lat="46.49346" lon="-1.79532">
        <ele>5.2</ele>
        <time>2021-09-25T13:30:25Z</time>
      </trkpt>
      <trkpt lat="46.49347" lon="-1.79532">
        <ele>5.2</ele>
        <time>2021-09-25T13:30:26Z</time>
      </trkpt>
      <trkpt lat="46.49348" lon="-1.79532">
        <ele>5.2</ele>
        <time>2021-09-25T13:30:27Z</time>
      </trkpt>
      <trkpt lat="46.49349" lon="-1.79533">
        <ele>5.2</ele>
        <time>2021-09-25T13:30:28Z</time>
      </trkpt>
      <trkpt lat="46.4935" lon="-1.79533">
        <ele>5.2</ele>
        <time>2021-09-25T13:30:29Z</time>
      </trkpt>
      <trkpt lat="46.49351" lon="-1.79534">
        <ele>5.2</ele>
        <time>2021-09-25T13:30:30Z</time>
      </trkpt>
      <trkpt lat="46.49352" lon="-1.79534">
        <ele>5.2</ele>
        <time>2021-09-25T13:30:31Z</time>
      </trkpt>
      <trkpt lat="46.49353" lon="-1.79535">
        <ele>5.2</ele>
        <time>2021-09-25T13:30:32Z</time>
      </trkpt>
      <trkpt lat="46.49354" lon="-1.79536">
        <ele>5.2</ele>
        <time>2021-09-25T13:30:33Z</time>
      </trkpt>
      <trkpt lat="46.49355" lon="-1.79536">
        <ele>5.2</ele>
        <time>2021-09-25T13:30:34Z</time>
      </trkpt>
      <trkpt lat="46.49355" lon="-1.79537">
        <ele>5.2</ele>
        <time>2021-09-25T13:30:35Z</time>
      </trkpt>
      <trkpt lat="46.49356" lon="-1.79537">
        <ele>5.2</ele>
        <time>2021-09-25T13:30:36Z</time>
      </trkpt>
      <trkpt lat="46.49357" lon="-1.79538">
        <ele>5.2</ele>
        <time>2021-09-25T13:30:37Z</time>
      </trkpt>
      <trkpt lat="46.49358" lon="-1.79539">
        <ele>5.2</ele>
        <time>2021-09-25T13:30:38Z</time>
      </trkpt>
      <trkpt lat="46.49359" lon="-1.7954">
        <ele>5.2</ele>
        <time>2021-09-25T13:30:39Z</time>
      </trkpt>
      <trkpt lat="46.4936" lon="-1.79541">
        <ele>5.2</ele>
        <time>2021-09-25T13:30:40Z</time>
      </trkpt>
      <trkpt lat="46.49361" lon="-1.79541">
        <ele>5.2</ele>
        <time>2021-09-25T13:30:41Z</time>
      </trkpt>
      <trkpt lat="46.49362" lon="-1.79542">
        <ele>5.2</ele>
        <time>2021-09-25T13:30:42Z</time>
      </trkpt>
      <trkpt lat="46.49363" lon="-1.79542">
        <ele>5.2</ele>
        <time>2021-09-25T13:30:43Z</time>
      </trkpt>
      <trkpt lat="46.49363" lon="-1.79543">
        <ele>5.1</ele>
        <time>2021-09-25T13:30:44Z</time>
      </trkpt>
      <trkpt lat="46.49364" lon="-1.79543">
        <ele>5.1</ele>
        <time>2021-09-25T13:30:45Z</time>
      </trkpt>
      <trkpt lat="46.49365" lon="-1.79542">
        <ele>5.1</ele>
        <time>2021-09-25T13:30:46Z</time>
      </trkpt>
      <trkpt lat="46.49366" lon="-1.79542">
        <ele>5.1</ele>
        <time>2021-09-25T13:30:47Z</time>
      </trkpt>
      <trkpt lat="46.49367" lon="-1.79542">
        <ele>5.1</ele>
        <time>2021-09-25T13:30:48Z</time>
      </trkpt>
      <trkpt lat="46.49368" lon="-1.79542">
        <ele>5.1</ele>
        <time>2021-09-25T13:30:49Z</time>
      </trkpt>
      <trkpt lat="46.49369" lon="-1.79542">
        <ele>5.1</ele>
        <time>2021-09-25T13:30:50Z</time>
      </trkpt>
      <trkpt lat="46.49369" lon="-1.79543">
        <ele>5.1</ele>
        <time>2021-09-25T13:30:51Z</time>
      </trkpt>
      <trkpt lat="46.4937" lon="-1.79543">
        <ele>5.1</ele>
        <time>2021-09-25T13:30:52Z</time>
      </trkpt>
      <trkpt lat="46.49371" lon="-1.79543">
        <ele>5.1</ele>
        <time>2021-09-25T13:30:53Z</time>
      </trkpt>
      <trkpt lat="46.49371" lon="-1.79543">
        <ele>5.1</ele>
        <time>2021-09-25T13:30:54Z</time>
      </trkpt>
      <trkpt lat="46.49372" lon="-1.79543">
        <ele>5.1</ele>
        <time>2021-09-25T13:30:55Z</time>
      </trkpt>
      <trkpt lat="46.49373" lon="-1.79543">
        <ele>5.1</ele>
        <time>2021-09-25T13:30:56Z</time>
      </trkpt>
      <trkpt lat="46.49373" lon="-1.79544">
        <ele>5.1</ele>
        <time>2021-09-25T13:30:57Z</time>
      </trkpt>
      <trkpt lat="46.49374" lon="-1.79544">
        <ele>5.1</ele>
        <time>2021-09-25T13:30:58Z</time>
      </trkpt>
      <trkpt lat="46.49375" lon="-1.79544">
        <ele>5.1</ele>
        <time>2021-09-25T13:30:59Z</time>
      </trkpt>
      <trkpt lat="46.49376" lon="-1.79544">
        <ele>5.1</ele>
        <time>2021-09-25T13:31:00Z</time>
      </trkpt>
      <trkpt lat="46.49376" lon="-1.79544">
        <ele>5.1</ele>
        <time>2021-09-25T13:31:01Z</time>
      </trkpt>
      <trkpt lat="46.49377" lon="-1.79544">
        <ele>5.1</ele>
        <time>2021-09-25T13:31:02Z</time>
      </trkpt>
      <trkpt lat="46.49378" lon="-1.79545">
        <ele>5.1</ele>
        <time>2021-09-25T13:31:03Z</time>
      </trkpt>
      <trkpt lat="46.49378" lon="-1.79545">
        <ele>5.1</ele>
        <time>2021-09-25T13:31:04Z</time>
      </trkpt>
      <trkpt lat="46.49379" lon="-1.79545">
        <ele>5.1</ele>
        <time>2021-09-25T13:31:05Z</time>
      </trkpt>
      <trkpt lat="46.4938" lon="-1.79545">
        <ele>5.1</ele>
        <time>2021-09-25T13:31:06Z</time>
      </trkpt>
      <trkpt lat="46.49381" lon="-1.79546">
        <ele>5.1</ele>
        <time>2021-09-25T13:31:07Z</time>
      </trkpt>
      <trkpt lat="46.49383" lon="-1.79546">
        <ele>5.1</ele>
        <time>2021-09-25T13:31:08Z</time>
      </trkpt>
      <trkpt lat="46.49384" lon="-1.79546">
        <ele>5.1</ele>
        <time>2021-09-25T13:31:09Z</time>
      </trkpt>
      <trkpt lat="46.49385" lon="-1.79547">
        <ele>5.1</ele>
        <time>2021-09-25T13:31:10Z</time>
      </trkpt>
      <trkpt lat="46.49387" lon="-1.79547">
        <ele>5.1</ele>
        <time>2021-09-25T13:31:11Z</time>
      </trkpt>
      <trkpt lat="46.49388" lon="-1.79547">
        <ele>5.1</ele>
        <time>2021-09-25T13:31:12Z</time>
      </trkpt>
      <trkpt lat="46.49389" lon="-1.79548">
        <ele>5.1</ele>
        <time>2021-09-25T13:31:13Z</time>
      </trkpt>
      <trkpt lat="46.4939" lon="-1.79548">
        <ele>5.1</ele>
        <time>2021-09-25T13:31:14Z</time>
      </trkpt>
      <trkpt lat="46.49392" lon="-1.79549">
        <ele>5.1</ele>
        <time>2021-09-25T13:31:15Z</time>
      </trkpt>
      <trkpt lat="46.49393" lon="-1.79549">
        <ele>5.1</ele>
        <time>2021-09-25T13:31:16Z</time>
      </trkpt>
      <trkpt lat="46.49394" lon="-1.7955">
        <ele>5.1</ele>
        <time>2021-09-25T13:31:17Z</time>
      </trkpt>
      <trkpt lat="46.49395" lon="-1.7955">
        <ele>5.1</ele>
        <time>2021-09-25T13:31:18Z</time>
      </trkpt>
      <trkpt lat="46.49396" lon="-1.79551">
        <ele>5.1</ele>
        <time>2021-09-25T13:31:19Z</time>
      </trkpt>
      <trkpt lat="46.49397" lon="-1.79551">
        <ele>5.1</ele>
        <time>2021-09-25T13:31:20Z</time>
      </trkpt>
      <trkpt lat="46.49398" lon="-1.79552">
        <ele>5.1</ele>
        <time>2021-09-25T13:31:21Z</time>
      </trkpt>
      <trkpt lat="46.49399" lon="-1.79552">
        <ele>5.1</ele>
        <time>2021-09-25T13:31:22Z</time>
      </trkpt>
      <trkpt lat="46.49399" lon="-1.79553">
        <ele>5.1</ele>
        <time>2021-09-25T13:31:23Z</time>
      </trkpt>
      <trkpt lat="46.494" lon="-1.79553">
        <ele>5.1</ele>
        <time>2021-09-25T13:31:24Z</time>
      </trkpt>
      <trkpt lat="46.49401" lon="-1.79554">
        <ele>5.1</ele>
        <time>2021-09-25T13:31:25Z</time>
      </trkpt>
      <trkpt lat="46.49402" lon="-1.79554">
        <ele>5.1</ele>
        <time>2021-09-25T13:31:26Z</time>
      </trkpt>
      <trkpt lat="46.49403" lon="-1.79554">
        <ele>5.1</ele>
        <time>2021-09-25T13:31:27Z</time>
      </trkpt>
      <trkpt lat="46.49404" lon="-1.79555">
        <ele>5.1</ele>
        <time>2021-09-25T13:31:28Z</time>
      </trkpt>
      <trkpt lat="46.49405" lon="-1.79555">
        <ele>5.1</ele>
        <time>2021-09-25T13:31:29Z</time>
      </trkpt>
      <trkpt lat="46.49406" lon="-1.79555">
        <ele>5.1</ele>
        <time>2021-09-25T13:31:30Z</time>
      </trkpt>
      <trkpt lat="46.49407" lon="-1.79555">
        <ele>5.1</ele>
        <time>2021-09-25T13:31:31Z</time>
      </trkpt>
      <trkpt lat="46.49408" lon="-1.79556">
        <ele>5.1</ele>
        <time>2021-09-25T13:31:32Z</time>
      </trkpt>
      <trkpt lat="46.49409" lon="-1.79556">
        <ele>5.1</ele>
        <time>2021-09-25T13:31:33Z</time>
      </trkpt>
      <trkpt lat="46.4941" lon="-1.79556">
        <ele>5.1</ele>
        <time>2021-09-25T13:31:34Z</time>
      </trkpt>
      <trkpt lat="46.4941" lon="-1.79557">
        <ele>5.1</ele>
        <time>2021-09-25T13:31:35Z</time>
      </trkpt>
      <trkpt lat="46.49411" lon="-1.79557">
        <ele>5.1</ele>
        <time>2021-09-25T13:31:36Z</time>
      </trkpt>
      <trkpt lat="46.49412" lon="-1.79557">
        <ele>5.1</ele>
        <time>2021-09-25T13:31:37Z</time>
      </trkpt>
      <trkpt lat="46.49413" lon="-1.79558">
        <ele>5.1</ele>
        <time>2021-09-25T13:31:38Z</time>
      </trkpt>
      <trkpt lat="46.49413" lon="-1.79558">
        <ele>5.1</ele>
        <time>2021-09-25T13:31:39Z</time>
      </trkpt>
      <trkpt lat="46.49414" lon="-1.79558">
        <ele>5.1</ele>
        <time>2021-09-25T13:31:40Z</time>
      </trkpt>
      <trkpt lat="46.49415" lon="-1.79559">
        <ele>5.1</ele>
        <time>2021-09-25T13:31:41Z</time>
      </trkpt>
      <trkpt lat="46.49415" lon="-1.79559">
        <ele>5.1</ele>
        <time>2021-09-25T13:31:42Z</time>
      </trkpt>
      <trkpt lat="46.49416" lon="-1.7956">
        <ele>5.1</ele>
        <time>2021-09-25T13:31:43Z</time>
      </trkpt>
      <trkpt lat="46.49417" lon="-1.7956">
        <ele>5.1</ele>
        <time>2021-09-25T13:31:44Z</time>
      </trkpt>
      <trkpt lat="46.49418" lon="-1.79561">
        <ele>5.1</ele>
        <time>2021-09-25T13:31:45Z</time>
      </trkpt>
      <trkpt lat="46.49419" lon="-1.79561">
        <ele>5.1</ele>
        <time>2021-09-25T13:31:46Z</time>
      </trkpt>
      <trkpt lat="46.4942" lon="-1.79562">
        <ele>5.1</ele>
        <time>2021-09-25T13:31:47Z</time>
      </trkpt>
      <trkpt lat="46.49421" lon="-1.79562">
        <ele>5.1</ele>
        <time>2021-09-25T13:31:48Z</time>
      </trkpt>
      <trkpt lat="46.49422" lon="-1.79563">
        <ele>5.1</ele>
        <time>2021-09-25T13:31:49Z</time>
      </trkpt>
      <trkpt lat="46.49423" lon="-1.79564">
        <ele>5.1</ele>
        <time>2021-09-25T13:31:50Z</time>
      </trkpt>
      <trkpt lat="46.49424" lon="-1.79564">
        <ele>5.1</ele>
        <time>2021-09-25T13:31:51Z</time>
      </trkpt>
      <trkpt lat="46.49425" lon="-1.79565">
        <ele>5.1</ele>
        <time>2021-09-25T13:31:52Z</time>
      </trkpt>
      <trkpt lat="46.49426" lon="-1.79565">
        <ele>5.1</ele>
        <time>2021-09-25T13:31:53Z</time>
      </trkpt>
      <trkpt lat="46.49427" lon="-1.79566">
        <ele>5.1</ele>
        <time>2021-09-25T13:31:54Z</time>
      </trkpt>
      <trkpt lat="46.49428" lon="-1.79566">
        <ele>5.1</ele>
        <time>2021-09-25T13:31:55Z</time>
      </trkpt>
      <trkpt lat="46.49429" lon="-1.79567">
        <ele>5.1</ele>
        <time>2021-09-25T13:31:56Z</time>
      </trkpt>
      <trkpt lat="46.4943" lon="-1.79567">
        <ele>5.1</ele>
        <time>2021-09-25T13:31:57Z</time>
      </trkpt>
      <trkpt lat="46.49431" lon="-1.79568">
        <ele>5.1</ele>
        <time>2021-09-25T13:31:58Z</time>
      </trkpt>
      <trkpt lat="46.49432" lon="-1.79568">
        <ele>5.1</ele>
        <time>2021-09-25T13:31:59Z</time>
      </trkpt>
      <trkpt lat="46.49433" lon="-1.79569">
        <ele>5.1</ele>
        <time>2021-09-25T13:32:00Z</time>
      </trkpt>
      <trkpt lat="46.49434" lon="-1.79569">
        <ele>5.1</ele>
        <time>2021-09-25T13:32:01Z</time>
      </trkpt>
      <trkpt lat="46.49435" lon="-1.7957">
        <ele>5.1</ele>
        <time>2021-09-25T13:32:02Z</time>
      </trkpt>
      <trkpt lat="46.49436" lon="-1.7957">
        <ele>5.1</ele>
        <time>2021-09-25T13:32:03Z</time>
      </trkpt>
      <trkpt lat="46.49437" lon="-1.7957">
        <ele>5.1</ele>
        <time>2021-09-25T13:32:04Z</time>
      </trkpt>
      <trkpt lat="46.49438" lon="-1.79571">
        <ele>5.1</ele>
        <time>2021-09-25T13:32:05Z</time>
      </trkpt>
      <trkpt lat="46.49439" lon="-1.79571">
        <ele>5.1</ele>
        <time>2021-09-25T13:32:06Z</time>
      </trkpt>
      <trkpt lat="46.4944" lon="-1.79572">
        <ele>5.1</ele>
        <time>2021-09-25T13:32:07Z</time>
      </trkpt>
      <trkpt lat="46.49441" lon="-1.79572">
        <ele>5.1</ele>
        <time>2021-09-25T13:32:08Z</time>
      </trkpt>
      <trkpt lat="46.49442" lon="-1.79573">
        <ele>5.1</ele>
        <time>2021-09-25T13:32:09Z</time>
      </trkpt>
      <trkpt lat="46.49443" lon="-1.79573">
        <ele>5.1</ele>
        <time>2021-09-25T13:32:10Z</time>
      </trkpt>
      <trkpt lat="46.49444" lon="-1.79573">
        <ele>5.1</ele>
        <time>2021-09-25T13:32:11Z</time>
      </trkpt>
      <trkpt lat="46.49445" lon="-1.79574">
        <ele>5.1</ele>
        <time>2021-09-25T13:32:12Z</time>
      </trkpt>
      <trkpt lat="46.49446" lon="-1.79574">
        <ele>5.1</ele>
        <time>2021-09-25T13:32:13Z</time>
      </trkpt>
      <trkpt lat="46.49447" lon="-1.79575">
        <ele>5.1</ele>
        <time>2021-09-25T13:32:14Z</time>
      </trkpt>
      <trkpt lat="46.49448" lon="-1.79575">
        <ele>5.1</ele>
        <time>2021-09-25T13:32:15Z</time>
      </trkpt>
      <trkpt lat="46.49449" lon="-1.79576">
        <ele>5.1</ele>
        <time>2021-09-25T13:32:16Z</time>
      </trkpt>
      <trkpt lat="46.4945" lon="-1.79576">
        <ele>5.1</ele>
        <time>2021-09-25T13:32:17Z</time>
      </trkpt>
      <trkpt lat="46.49451" lon="-1.79576">
        <ele>5.1</ele>
        <time>2021-09-25T13:32:18Z</time>
      </trkpt>
      <trkpt lat="46.49452" lon="-1.79577">
        <ele>5.1</ele>
        <time>2021-09-25T13:32:19Z</time>
      </trkpt>
      <trkpt lat="46.49453" lon="-1.79577">
        <ele>5.1</ele>
        <time>2021-09-25T13:32:20Z</time>
      </trkpt>
      <trkpt lat="46.49453" lon="-1.79578">
        <ele>5.1</ele>
        <time>2021-09-25T13:32:21Z</time>
      </trkpt>
      <trkpt lat="46.49454" lon="-1.79578">
        <ele>5.1</ele>
        <time>2021-09-25T13:32:22Z</time>
      </trkpt>
      <trkpt lat="46.49455" lon="-1.79579">
        <ele>5.1</ele>
        <time>2021-09-25T13:32:23Z</time>
      </trkpt>
      <trkpt lat="46.49456" lon="-1.79579">
        <ele>5.1</ele>
        <time>2021-09-25T13:32:24Z</time>
      </trkpt>
      <trkpt lat="46.49457" lon="-1.79579">
        <ele>5.1</ele>
        <time>2021-09-25T13:32:25Z</time>
      </trkpt>
      <trkpt lat="46.49458" lon="-1.7958">
        <ele>5.1</ele>
        <time>2021-09-25T13:32:26Z</time>
      </trkpt>
      <trkpt lat="46.49459" lon="-1.7958">
        <ele>5.1</ele>
        <time>2021-09-25T13:32:27Z</time>
      </trkpt>
      <trkpt lat="46.4946" lon="-1.79581">
        <ele>5.1</ele>
        <time>2021-09-25T13:32:28Z</time>
      </trkpt>
      <trkpt lat="46.49461" lon="-1.79581">
        <ele>5.1</ele>
        <time>2021-09-25T13:32:29Z</time>
      </trkpt>
      <trkpt lat="46.49462" lon="-1.79582">
        <ele>5.1</ele>
        <time>2021-09-25T13:32:30Z</time>
      </trkpt>
      <trkpt lat="46.49462" lon="-1.79582">
        <ele>5.1</ele>
        <time>2021-09-25T13:32:31Z</time>
      </trkpt>
      <trkpt lat="46.49463" lon="-1.79583">
        <ele>5.1</ele>
        <time>2021-09-25T13:32:32Z</time>
      </trkpt>
      <trkpt lat="46.49464" lon="-1.79583">
        <ele>5.1</ele>
        <time>2021-09-25T13:32:33Z</time>
      </trkpt>
      <trkpt lat="46.49465" lon="-1.79583">
        <ele>5.1</ele>
        <time>2021-09-25T13:32:34Z</time>
      </trkpt>
      <trkpt lat="46.49466" lon="-1.79584">
        <ele>5.1</ele>
        <time>2021-09-25T13:32:35Z</time>
      </trkpt>
      <trkpt lat="46.49467" lon="-1.79584">
        <ele>5.1</ele>
        <time>2021-09-25T13:32:36Z</time>
      </trkpt>
      <trkpt lat="46.49468" lon="-1.79585">
        <ele>5.1</ele>
        <time>2021-09-25T13:32:37Z</time>
      </trkpt>
      <trkpt lat="46.49469" lon="-1.79585">
        <ele>5.1</ele>
        <time>2021-09-25T13:32:38Z</time>
      </trkpt>
      <trkpt lat="46.4947" lon="-1.79586">
        <ele>5.1</ele>
        <time>2021-09-25T13:32:39Z</time>
      </trkpt>
      <trkpt lat="46.49471" lon="-1.79586">
        <ele>5.1</ele>
        <time>2021-09-25T13:32:40Z</time>
      </trkpt>
      <trkpt lat="46.49472" lon="-1.79587">
        <ele>5.1</ele>
        <time>2021-09-25T13:32:41Z</time>
      </trkpt>
      <trkpt lat="46.49472" lon="-1.79587">
        <ele>5.1</ele>
        <time>2021-09-25T13:32:42Z</time>
      </trkpt>
      <trkpt lat="46.49473" lon="-1.79587">
        <ele>5.1</ele>
        <time>2021-09-25T13:32:43Z</time>
      </trkpt>
      <trkpt lat="46.49474" lon="-1.79588">
        <ele>5.1</ele>
        <time>2021-09-25T13:32:44Z</time>
      </trkpt>
      <trkpt lat="46.49475" lon="-1.79588">
        <ele>5.1</ele>
        <time>2021-09-25T13:32:45Z</time>
      </trkpt>
      <trkpt lat="46.49476" lon="-1.79589">
        <ele>5.1</ele>
        <time>2021-09-25T13:32:46Z</time>
      </trkpt>
      <trkpt lat="46.49477" lon="-1.79589">
        <ele>5.1</ele>
        <time>2021-09-25T13:32:47Z</time>
      </trkpt>
      <trkpt lat="46.49478" lon="-1.79589">
        <ele>5.1</ele>
        <time>2021-09-25T13:32:48Z</time>
      </trkpt>
      <trkpt lat="46.49479" lon="-1.7959">
        <ele>5.1</ele>
        <time>2021-09-25T13:32:49Z</time>
      </trkpt>
      <trkpt lat="46.4948" lon="-1.7959">
        <ele>5.1</ele>
        <time>2021-09-25T13:32:50Z</time>
      </trkpt>
      <trkpt lat="46.49481" lon="-1.79591">
        <ele>5.1</ele>
        <time>2021-09-25T13:32:51Z</time>
      </trkpt>
      <trkpt lat="46.49482" lon="-1.79591">
        <ele>5.1</ele>
        <time>2021-09-25T13:32:52Z</time>
      </trkpt>
      <trkpt lat="46.49483" lon="-1.79591">
        <ele>5.1</ele>
        <time>2021-09-25T13:32:53Z</time>
      </trkpt>
      <trkpt lat="46.49484" lon="-1.79592">
        <ele>5.1</ele>
        <time>2021-09-25T13:32:54Z</time>
      </trkpt>
      <trkpt lat="46.49485" lon="-1.79592">
        <ele>5.1</ele>
        <time>2021-09-25T13:32:55Z</time>
      </trkpt>
      <trkpt lat="46.49486" lon="-1.79593">
        <ele>5.1</ele>
        <time>2021-09-25T13:32:56Z</time>
      </trkpt>
      <trkpt lat="46.49487" lon="-1.79593">
        <ele>5.1</ele>
        <time>2021-09-25T13:32:57Z</time>
      </trkpt>
      <trkpt lat="46.49488" lon="-1.79593">
        <ele>5.1</ele>
        <time>2021-09-25T13:32:58Z</time>
      </trkpt>
      <trkpt lat="46.49489" lon="-1.79594">
        <ele>5.1</ele>
        <time>2021-09-25T13:32:59Z</time>
      </trkpt>
      <trkpt lat="46.4949" lon="-1.79594">
        <ele>5.1</ele>
        <time>2021-09-25T13:33:00Z</time>
      </trkpt>
      <trkpt lat="46.4949" lon="-1.79595">
        <ele>5.1</ele>
        <time>2021-09-25T13:33:01Z</time>
      </trkpt>
      <trkpt lat="46.49491" lon="-1.79595">
        <ele>5.1</ele>
        <time>2021-09-25T13:33:02Z</time>
      </trkpt>
      <trkpt lat="46.49492" lon="-1.79595">
        <ele>5.1</ele>
        <time>2021-09-25T13:33:03Z</time>
      </trkpt>
      <trkpt lat="46.49493" lon="-1.79596">
        <ele>5.1</ele>
        <time>2021-09-25T13:33:04Z</time>
      </trkpt>
      <trkpt lat="46.49494" lon="-1.79596">
        <ele>5.1</ele>
        <time>2021-09-25T13:33:05Z</time>
      </trkpt>
      <trkpt lat="46.49495" lon="-1.79597">
        <ele>5.1</ele>
        <time>2021-09-25T13:33:06Z</time>
      </trkpt>
      <trkpt lat="46.49496" lon="-1.79597">
        <ele>5.1</ele>
        <time>2021-09-25T13:33:07Z</time>
      </trkpt>
      <trkpt lat="46.49497" lon="-1.79598">
        <ele>5.1</ele>
        <time>2021-09-25T13:33:08Z</time>
      </trkpt>
      <trkpt lat="46.49498" lon="-1.79598">
        <ele>5.1</ele>
        <time>2021-09-25T13:33:09Z</time>
      </trkpt>
      <trkpt lat="46.49499" lon="-1.79599">
        <ele>5.1</ele>
        <time>2021-09-25T13:33:10Z</time>
      </trkpt>
      <trkpt lat="46.49499" lon="-1.79599">
        <ele>5.1</ele>
        <time>2021-09-25T13:33:11Z</time>
      </trkpt>
      <trkpt lat="46.495" lon="-1.796">
        <ele>5.1</ele>
        <time>2021-09-25T13:33:12Z</time>
      </trkpt>
      <trkpt lat="46.49501" lon="-1.796">
        <ele>5.1</ele>
        <time>2021-09-25T13:33:13Z</time>
      </trkpt>
      <trkpt lat="46.49502" lon="-1.79601">
        <ele>5.1</ele>
        <time>2021-09-25T13:33:14Z</time>
      </trkpt>
      <trkpt lat="46.49503" lon="-1.79601">
        <ele>5.1</ele>
        <time>2021-09-25T13:33:15Z</time>
      </trkpt>
      <trkpt lat="46.49504" lon="-1.79601">
        <ele>5.1</ele>
        <time>2021-09-25T13:33:16Z</time>
      </trkpt>
      <trkpt lat="46.49505" lon="-1.79602">
        <ele>5.1</ele>
        <time>2021-09-25T13:33:17Z</time>
      </trkpt>
      <trkpt lat="46.49506" lon="-1.79602">
        <ele>5.1</ele>
        <time>2021-09-25T13:33:18Z</time>
      </trkpt>
      <trkpt lat="46.49507" lon="-1.79602">
        <ele>5.1</ele>
        <time>2021-09-25T13:33:19Z</time>
      </trkpt>
      <trkpt lat="46.49508" lon="-1.79602">
        <ele>5.1</ele>
        <time>2021-09-25T13:33:20Z</time>
      </trkpt>
      <trkpt lat="46.49509" lon="-1.79603">
        <ele>5.1</ele>
        <time>2021-09-25T13:33:21Z</time>
      </trkpt>
      <trkpt lat="46.4951" lon="-1.79603">
        <ele>5.1</ele>
        <time>2021-09-25T13:33:22Z</time>
      </trkpt>
      <trkpt lat="46.49511" lon="-1.79603">
        <ele>5.1</ele>
        <time>2021-09-25T13:33:23Z</time>
      </trkpt>
      <trkpt lat="46.49512" lon="-1.79603">
        <ele>5.1</ele>
        <time>2021-09-25T13:33:24Z</time>
      </trkpt>
      <trkpt lat="46.49513" lon="-1.79603">
        <ele>5.1</ele>
        <time>2021-09-25T13:33:25Z</time>
      </trkpt>
      <trkpt lat="46.49514" lon="-1.79604">
        <ele>5.1</ele>
        <time>2021-09-25T13:33:26Z</time>
      </trkpt>
      <trkpt lat="46.49515" lon="-1.79604">
        <ele>5.1</ele>
        <time>2021-09-25T13:33:27Z</time>
      </trkpt>
      <trkpt lat="46.49516" lon="-1.79604">
        <ele>5.1</ele>
        <time>2021-09-25T13:33:28Z</time>
      </trkpt>
      <trkpt lat="46.49517" lon="-1.79604">
        <ele>5.1</ele>
        <time>2021-09-25T13:33:29Z</time>
      </trkpt>
      <trkpt lat="46.49518" lon="-1.79605">
        <ele>5.1</ele>
        <time>2021-09-25T13:33:30Z</time>
      </trkpt>
      <trkpt lat="46.49519" lon="-1.79605">
        <ele>5.1</ele>
        <time>2021-09-25T13:33:31Z</time>
      </trkpt>
      <trkpt lat="46.4952" lon="-1.79605">
        <ele>5.1</ele>
        <time>2021-09-25T13:33:32Z</time>
      </trkpt>
      <trkpt lat="46.49521" lon="-1.79605">
        <ele>5.1</ele>
        <time>2021-09-25T13:33:33Z</time>
      </trkpt>
      <trkpt lat="46.49522" lon="-1.79606">
        <ele>5.1</ele>
        <time>2021-09-25T13:33:34Z</time>
      </trkpt>
      <trkpt lat="46.49523" lon="-1.79606">
        <ele>5.1</ele>
        <time>2021-09-25T13:33:35Z</time>
      </trkpt>
      <trkpt lat="46.49524" lon="-1.79606">
        <ele>5.1</ele>
        <time>2021-09-25T13:33:36Z</time>
      </trkpt>
      <trkpt lat="46.49525" lon="-1.79606">
        <ele>5.1</ele>
        <time>2021-09-25T13:33:37Z</time>
      </trkpt>
      <trkpt lat="46.49526" lon="-1.79607">
        <ele>5.1</ele>
        <time>2021-09-25T13:33:38Z</time>
      </trkpt>
      <trkpt lat="46.49528" lon="-1.79607">
        <ele>5.1</ele>
        <time>2021-09-25T13:33:39Z</time>
      </trkpt>
      <trkpt lat="46.49529" lon="-1.79607">
        <ele>5.1</ele>
        <time>2021-09-25T13:33:40Z</time>
      </trkpt>
      <trkpt lat="46.4953" lon="-1.79607">
        <ele>5</ele>
        <time>2021-09-25T13:33:41Z</time>
      </trkpt>
      <trkpt lat="46.49531" lon="-1.79607">
        <ele>5</ele>
        <time>2021-09-25T13:33:42Z</time>
      </trkpt>
      <trkpt lat="46.49532" lon="-1.79607">
        <ele>5</ele>
        <time>2021-09-25T13:33:43Z</time>
      </trkpt>
      <trkpt lat="46.49533" lon="-1.79608">
        <ele>5</ele>
        <time>2021-09-25T13:33:44Z</time>
      </trkpt>
      <trkpt lat="46.49534" lon="-1.79608">
        <ele>5</ele>
        <time>2021-09-25T13:33:45Z</time>
      </trkpt>
      <trkpt lat="46.49535" lon="-1.79608">
        <ele>5</ele>
        <time>2021-09-25T13:33:46Z</time>
      </trkpt>
      <trkpt lat="46.49536" lon="-1.79608">
        <ele>5</ele>
        <time>2021-09-25T13:33:47Z</time>
      </trkpt>
      <trkpt lat="46.49537" lon="-1.79608">
        <ele>5</ele>
        <time>2021-09-25T13:33:48Z</time>
      </trkpt>
      <trkpt lat="46.49538" lon="-1.79608">
        <ele>5</ele>
        <time>2021-09-25T13:33:49Z</time>
      </trkpt>
      <trkpt lat="46.49539" lon="-1.79609">
        <ele>5</ele>
        <time>2021-09-25T13:33:50Z</time>
      </trkpt>
      <trkpt lat="46.4954" lon="-1.79609">
        <ele>5</ele>
        <time>2021-09-25T13:33:51Z</time>
      </trkpt>
      <trkpt lat="46.49541" lon="-1.79609">
        <ele>5</ele>
        <time>2021-09-25T13:33:52Z</time>
      </trkpt>
      <trkpt lat="46.49541" lon="-1.79609">
        <ele>5</ele>
        <time>2021-09-25T13:33:53Z</time>
      </trkpt>
      <trkpt lat="46.49542" lon="-1.7961">
        <ele>5</ele>
        <time>2021-09-25T13:33:54Z</time>
      </trkpt>
      <trkpt lat="46.49543" lon="-1.7961">
        <ele>5</ele>
        <time>2021-09-25T13:33:55Z</time>
      </trkpt>
      <trkpt lat="46.49544" lon="-1.7961">
        <ele>5</ele>
        <time>2021-09-25T13:33:56Z</time>
      </trkpt>
      <trkpt lat="46.49545" lon="-1.7961">
        <ele>5</ele>
        <time>2021-09-25T13:33:57Z</time>
      </trkpt>
      <trkpt lat="46.49546" lon="-1.7961">
        <ele>5</ele>
        <time>2021-09-25T13:33:58Z</time>
      </trkpt>
      <trkpt lat="46.49547" lon="-1.79611">
        <ele>5</ele>
        <time>2021-09-25T13:33:59Z</time>
      </trkpt>
      <trkpt lat="46.49548" lon="-1.79611">
        <ele>5</ele>
        <time>2021-09-25T13:34:00Z</time>
      </trkpt>
      <trkpt lat="46.49548" lon="-1.79611">
        <ele>5</ele>
        <time>2021-09-25T13:34:01Z</time>
      </trkpt>
      <trkpt lat="46.49549" lon="-1.79611">
        <ele>5</ele>
        <time>2021-09-25T13:34:02Z</time>
      </trkpt>
      <trkpt lat="46.4955" lon="-1.79611">
        <ele>5</ele>
        <time>2021-09-25T13:34:03Z</time>
      </trkpt>
      <trkpt lat="46.49551" lon="-1.79612">
        <ele>5</ele>
        <time>2021-09-25T13:34:04Z</time>
      </trkpt>
      <trkpt lat="46.49552" lon="-1.79612">
        <ele>5</ele>
        <time>2021-09-25T13:34:05Z</time>
      </trkpt>
      <trkpt lat="46.49553" lon="-1.79612">
        <ele>5</ele>
        <time>2021-09-25T13:34:06Z</time>
      </trkpt>
      <trkpt lat="46.49554" lon="-1.79612">
        <ele>5</ele>
        <time>2021-09-25T13:34:07Z</time>
      </trkpt>
      <trkpt lat="46.49555" lon="-1.79612">
        <ele>5</ele>
        <time>2021-09-25T13:34:08Z</time>
      </trkpt>
      <trkpt lat="46.49556" lon="-1.79612">
        <ele>5</ele>
        <time>2021-09-25T13:34:09Z</time>
      </trkpt>
      <trkpt lat="46.49557" lon="-1.79612">
        <ele>5</ele>
        <time>2021-09-25T13:34:10Z</time>
      </trkpt>
      <trkpt lat="46.49558" lon="-1.79613">
        <ele>5</ele>
        <time>2021-09-25T13:34:11Z</time>
      </trkpt>
      <trkpt lat="46.49559" lon="-1.79613">
        <ele>5</ele>
        <time>2021-09-25T13:34:12Z</time>
      </trkpt>
      <trkpt lat="46.4956" lon="-1.79613">
        <ele>5</ele>
        <time>2021-09-25T13:34:13Z</time>
      </trkpt>
      <trkpt lat="46.4956" lon="-1.79613">
        <ele>5</ele>
        <time>2021-09-25T13:34:14Z</time>
      </trkpt>
      <trkpt lat="46.49561" lon="-1.79613">
        <ele>5</ele>
        <time>2021-09-25T13:34:15Z</time>
      </trkpt>
      <trkpt lat="46.49562" lon="-1.79614">
        <ele>5</ele>
        <time>2021-09-25T13:34:16Z</time>
      </trkpt>
      <trkpt lat="46.49563" lon="-1.79614">
        <ele>5</ele>
        <time>2021-09-25T13:34:17Z</time>
      </trkpt>
      <trkpt lat="46.49564" lon="-1.79614">
        <ele>5</ele>
        <time>2021-09-25T13:34:18Z</time>
      </trkpt>
      <trkpt lat="46.49565" lon="-1.79615">
        <ele>5</ele>
        <time>2021-09-25T13:34:19Z</time>
      </trkpt>
      <trkpt lat="46.49566" lon="-1.79615">
        <ele>5</ele>
        <time>2021-09-25T13:34:20Z</time>
      </trkpt>
      <trkpt lat="46.49567" lon="-1.79615">
        <ele>5</ele>
        <time>2021-09-25T13:34:21Z</time>
      </trkpt>
      <trkpt lat="46.49568" lon="-1.79615">
        <ele>5</ele>
        <time>2021-09-25T13:34:22Z</time>
      </trkpt>
      <trkpt lat="46.49569" lon="-1.79616">
        <ele>5</ele>
        <time>2021-09-25T13:34:23Z</time>
      </trkpt>
      <trkpt lat="46.4957" lon="-1.79616">
        <ele>5</ele>
        <time>2021-09-25T13:34:24Z</time>
      </trkpt>
      <trkpt lat="46.49571" lon="-1.79616">
        <ele>5</ele>
        <time>2021-09-25T13:34:25Z</time>
      </trkpt>
      <trkpt lat="46.49572" lon="-1.79616">
        <ele>5</ele>
        <time>2021-09-25T13:34:26Z</time>
      </trkpt>
      <trkpt lat="46.49573" lon="-1.79617">
        <ele>5</ele>
        <time>2021-09-25T13:34:27Z</time>
      </trkpt>
      <trkpt lat="46.49574" lon="-1.79617">
        <ele>5</ele>
        <time>2021-09-25T13:34:28Z</time>
      </trkpt>
      <trkpt lat="46.49575" lon="-1.79617">
        <ele>5</ele>
        <time>2021-09-25T13:34:29Z</time>
      </trkpt>
      <trkpt lat="46.49576" lon="-1.79617">
        <ele>5</ele>
        <time>2021-09-25T13:34:30Z</time>
      </trkpt>
      <trkpt lat="46.49577" lon="-1.79618">
        <ele>5</ele>
        <time>2021-09-25T13:34:31Z</time>
      </trkpt>
      <trkpt lat="46.49579" lon="-1.79618">
        <ele>5</ele>
        <time>2021-09-25T13:34:32Z</time>
      </trkpt>
      <trkpt lat="46.4958" lon="-1.79618">
        <ele>5</ele>
        <time>2021-09-25T13:34:33Z</time>
      </trkpt>
      <trkpt lat="46.49581" lon="-1.79618">
        <ele>5</ele>
        <time>2021-09-25T13:34:34Z</time>
      </trkpt>
      <trkpt lat="46.49582" lon="-1.79618">
        <ele>5</ele>
        <time>2021-09-25T13:34:35Z</time>
      </trkpt>
      <trkpt lat="46.49583" lon="-1.79618">
        <ele>5</ele>
        <time>2021-09-25T13:34:36Z</time>
      </trkpt>
      <trkpt lat="46.49584" lon="-1.79619">
        <ele>5</ele>
        <time>2021-09-25T13:34:37Z</time>
      </trkpt>
      <trkpt lat="46.49585" lon="-1.79619">
        <ele>5</ele>
        <time>2021-09-25T13:34:38Z</time>
      </trkpt>
      <trkpt lat="46.49586" lon="-1.79619">
        <ele>5</ele>
        <time>2021-09-25T13:34:39Z</time>
      </trkpt>
      <trkpt lat="46.49587" lon="-1.79619">
        <ele>5</ele>
        <time>2021-09-25T13:34:40Z</time>
      </trkpt>
      <trkpt lat="46.49588" lon="-1.79619">
        <ele>5</ele>
        <time>2021-09-25T13:34:41Z</time>
      </trkpt>
      <trkpt lat="46.49589" lon="-1.79619">
        <ele>5</ele>
        <time>2021-09-25T13:34:42Z</time>
      </trkpt>
      <trkpt lat="46.4959" lon="-1.7962">
        <ele>5</ele>
        <time>2021-09-25T13:34:43Z</time>
      </trkpt>
      <trkpt lat="46.49591" lon="-1.7962">
        <ele>5</ele>
        <time>2021-09-25T13:34:44Z</time>
      </trkpt>
      <trkpt lat="46.49592" lon="-1.7962">
        <ele>5</ele>
        <time>2021-09-25T13:34:45Z</time>
      </trkpt>
      <trkpt lat="46.49593" lon="-1.7962">
        <ele>5</ele>
        <time>2021-09-25T13:34:46Z</time>
      </trkpt>
      <trkpt lat="46.49594" lon="-1.7962">
        <ele>5</ele>
        <time>2021-09-25T13:34:47Z</time>
      </trkpt>
      <trkpt lat="46.49595" lon="-1.7962">
        <ele>5</ele>
        <time>2021-09-25T13:34:48Z</time>
      </trkpt>
      <trkpt lat="46.49596" lon="-1.7962">
        <ele>5</ele>
        <time>2021-09-25T13:34:49Z</time>
      </trkpt>
      <trkpt lat="46.49597" lon="-1.79621">
        <ele>5</ele>
        <time>2021-09-25T13:34:50Z</time>
      </trkpt>
      <trkpt lat="46.49598" lon="-1.79621">
        <ele>5</ele>
        <time>2021-09-25T13:34:51Z</time>
      </trkpt>
      <trkpt lat="46.49599" lon="-1.79621">
        <ele>5</ele>
        <time>2021-09-25T13:34:52Z</time>
      </trkpt>
      <trkpt lat="46.496" lon="-1.79621">
        <ele>5</ele>
        <time>2021-09-25T13:34:53Z</time>
      </trkpt>
      <trkpt lat="46.49602" lon="-1.79621">
        <ele>5</ele>
        <time>2021-09-25T13:34:54Z</time>
      </trkpt>
      <trkpt lat="46.49603" lon="-1.79621">
        <ele>5</ele>
        <time>2021-09-25T13:34:55Z</time>
      </trkpt>
      <trkpt lat="46.49604" lon="-1.79621">
        <ele>5</ele>
        <time>2021-09-25T13:34:56Z</time>
      </trkpt>
      <trkpt lat="46.49605" lon="-1.79622">
        <ele>5</ele>
        <time>2021-09-25T13:34:57Z</time>
      </trkpt>
      <trkpt lat="46.49606" lon="-1.79622">
        <ele>5</ele>
        <time>2021-09-25T13:34:58Z</time>
      </trkpt>
      <trkpt lat="46.49607" lon="-1.79622">
        <ele>5</ele>
        <time>2021-09-25T13:34:59Z</time>
      </trkpt>
      <trkpt lat="46.49608" lon="-1.79622">
        <ele>5</ele>
        <time>2021-09-25T13:35:00Z</time>
      </trkpt>
      <trkpt lat="46.49609" lon="-1.79622">
        <ele>5</ele>
        <time>2021-09-25T13:35:01Z</time>
      </trkpt>
      <trkpt lat="46.4961" lon="-1.79623">
        <ele>5</ele>
        <time>2021-09-25T13:35:02Z</time>
      </trkpt>
      <trkpt lat="46.49611" lon="-1.79623">
        <ele>5</ele>
        <time>2021-09-25T13:35:03Z</time>
      </trkpt>
      <trkpt lat="46.49612" lon="-1.79623">
        <ele>5</ele>
        <time>2021-09-25T13:35:04Z</time>
      </trkpt>
      <trkpt lat="46.49613" lon="-1.79623">
        <ele>5</ele>
        <time>2021-09-25T13:35:05Z</time>
      </trkpt>
      <trkpt lat="46.49614" lon="-1.79624">
        <ele>5</ele>
        <time>2021-09-25T13:35:06Z</time>
      </trkpt>
      <trkpt lat="46.49615" lon="-1.79624">
        <ele>5</ele>
        <time>2021-09-25T13:35:07Z</time>
      </trkpt>
      <trkpt lat="46.49616" lon="-1.79624">
        <ele>5</ele>
        <time>2021-09-25T13:35:08Z</time>
      </trkpt>
      <trkpt lat="46.49617" lon="-1.79624">
        <ele>5</ele>
        <time>2021-09-25T13:35:09Z</time>
      </trkpt>
      <trkpt lat="46.49618" lon="-1.79624">
        <ele>5</ele>
        <time>2021-09-25T13:35:10Z</time>
      </trkpt>
      <trkpt lat="46.49619" lon="-1.79624">
        <ele>5</ele>
        <time>2021-09-25T13:35:11Z</time>
      </trkpt>
      <trkpt lat="46.4962" lon="-1.79624">
        <ele>5</ele>
        <time>2021-09-25T13:35:12Z</time>
      </trkpt>
      <trkpt lat="46.49621" lon="-1.79624">
        <ele>5</ele>
        <time>2021-09-25T13:35:13Z</time>
      </trkpt>
      <trkpt lat="46.49622" lon="-1.79624">
        <ele>5</ele>
        <time>2021-09-25T13:35:14Z</time>
      </trkpt>
      <trkpt lat="46.49623" lon="-1.79624">
        <ele>5</ele>
        <time>2021-09-25T13:35:15Z</time>
      </trkpt>
      <trkpt lat="46.49624" lon="-1.79625">
        <ele>5</ele>
        <time>2021-09-25T13:35:16Z</time>
      </trkpt>
      <trkpt lat="46.49625" lon="-1.79625">
        <ele>5</ele>
        <time>2021-09-25T13:35:17Z</time>
      </trkpt>
      <trkpt lat="46.49626" lon="-1.79625">
        <ele>5</ele>
        <time>2021-09-25T13:35:18Z</time>
      </trkpt>
      <trkpt lat="46.49627" lon="-1.79625">
        <ele>5</ele>
        <time>2021-09-25T13:35:19Z</time>
      </trkpt>
      <trkpt lat="46.49627" lon="-1.79626">
        <ele>5</ele>
        <time>2021-09-25T13:35:20Z</time>
      </trkpt>
      <trkpt lat="46.49628" lon="-1.79626">
        <ele>5</ele>
        <time>2021-09-25T13:35:21Z</time>
      </trkpt>
      <trkpt lat="46.49629" lon="-1.79626">
        <ele>4.9</ele>
        <time>2021-09-25T13:35:22Z</time>
      </trkpt>
      <trkpt lat="46.4963" lon="-1.79626">
        <ele>4.9</ele>
        <time>2021-09-25T13:35:23Z</time>
      </trkpt>
      <trkpt lat="46.49631" lon="-1.79626">
        <ele>4.9</ele>
        <time>2021-09-25T13:35:24Z</time>
      </trkpt>
      <trkpt lat="46.49632" lon="-1.79627">
        <ele>4.9</ele>
        <time>2021-09-25T13:35:25Z</time>
      </trkpt>
      <trkpt lat="46.49633" lon="-1.79627">
        <ele>4.9</ele>
        <time>2021-09-25T13:35:26Z</time>
      </trkpt>
      <trkpt lat="46.49634" lon="-1.79627">
        <ele>4.9</ele>
        <time>2021-09-25T13:35:27Z</time>
      </trkpt>
      <trkpt lat="46.49635" lon="-1.79627">
        <ele>4.9</ele>
        <time>2021-09-25T13:35:28Z</time>
      </trkpt>
      <trkpt lat="46.49636" lon="-1.79627">
        <ele>4.9</ele>
        <time>2021-09-25T13:35:29Z</time>
      </trkpt>
      <trkpt lat="46.49637" lon="-1.79627">
        <ele>4.9</ele>
        <time>2021-09-25T13:35:30Z</time>
      </trkpt>
      <trkpt lat="46.49638" lon="-1.79627">
        <ele>4.9</ele>
        <time>2021-09-25T13:35:31Z</time>
      </trkpt>
      <trkpt lat="46.49638" lon="-1.79627">
        <ele>4.9</ele>
        <time>2021-09-25T13:35:32Z</time>
      </trkpt>
      <trkpt lat="46.49639" lon="-1.79627">
        <ele>4.9</ele>
        <time>2021-09-25T13:35:33Z</time>
      </trkpt>
      <trkpt lat="46.4964" lon="-1.79628">
        <ele>4.9</ele>
        <time>2021-09-25T13:35:34Z</time>
      </trkpt>
      <trkpt lat="46.49641" lon="-1.79628">
        <ele>4.9</ele>
        <time>2021-09-25T13:35:35Z</time>
      </trkpt>
      <trkpt lat="46.49642" lon="-1.79628">
        <ele>4.9</ele>
        <time>2021-09-25T13:35:36Z</time>
      </trkpt>
      <trkpt lat="46.49643" lon="-1.79628">
        <ele>4.9</ele>
        <time>2021-09-25T13:35:37Z</time>
      </trkpt>
      <trkpt lat="46.49644" lon="-1.79628">
        <ele>4.9</ele>
        <time>2021-09-25T13:35:38Z</time>
      </trkpt>
      <trkpt lat="46.49645" lon="-1.79628">
        <ele>4.9</ele>
        <time>2021-09-25T13:35:39Z</time>
      </trkpt>
      <trkpt lat="46.49646" lon="-1.79629">
        <ele>4.9</ele>
        <time>2021-09-25T13:35:40Z</time>
      </trkpt>
      <trkpt lat="46.49647" lon="-1.79629">
        <ele>4.9</ele>
        <time>2021-09-25T13:35:41Z</time>
      </trkpt>
      <trkpt lat="46.49648" lon="-1.79629">
        <ele>4.9</ele>
        <time>2021-09-25T13:35:42Z</time>
      </trkpt>
      <trkpt lat="46.49649" lon="-1.79629">
        <ele>4.9</ele>
        <time>2021-09-25T13:35:43Z</time>
      </trkpt>
      <trkpt lat="46.4965" lon="-1.7963">
        <ele>4.9</ele>
        <time>2021-09-25T13:35:44Z</time>
      </trkpt>
      <trkpt lat="46.49651" lon="-1.7963">
        <ele>4.9</ele>
        <time>2021-09-25T13:35:45Z</time>
      </trkpt>
      <trkpt lat="46.49652" lon="-1.7963">
        <ele>4.9</ele>
        <time>2021-09-25T13:35:46Z</time>
      </trkpt>
      <trkpt lat="46.49652" lon="-1.7963">
        <ele>4.9</ele>
        <time>2021-09-25T13:35:47Z</time>
      </trkpt>
      <trkpt lat="46.49653" lon="-1.79631">
        <ele>4.9</ele>
        <time>2021-09-25T13:35:48Z</time>
      </trkpt>
      <trkpt lat="46.49654" lon="-1.79631">
        <ele>4.9</ele>
        <time>2021-09-25T13:35:49Z</time>
      </trkpt>
      <trkpt lat="46.49655" lon="-1.79631">
        <ele>4.9</ele>
        <time>2021-09-25T13:35:50Z</time>
      </trkpt>
      <trkpt lat="46.49656" lon="-1.79631">
        <ele>4.9</ele>
        <time>2021-09-25T13:35:51Z</time>
      </trkpt>
      <trkpt lat="46.49657" lon="-1.79632">
        <ele>4.9</ele>
        <time>2021-09-25T13:35:52Z</time>
      </trkpt>
      <trkpt lat="46.49658" lon="-1.79632">
        <ele>4.9</ele>
        <time>2021-09-25T13:35:53Z</time>
      </trkpt>
      <trkpt lat="46.49659" lon="-1.79632">
        <ele>4.9</ele>
        <time>2021-09-25T13:35:54Z</time>
      </trkpt>
      <trkpt lat="46.4966" lon="-1.79633">
        <ele>4.8</ele>
        <time>2021-09-25T13:35:55Z</time>
      </trkpt>
      <trkpt lat="46.49661" lon="-1.79633">
        <ele>4.8</ele>
        <time>2021-09-25T13:35:56Z</time>
      </trkpt>
      <trkpt lat="46.49662" lon="-1.79633">
        <ele>4.8</ele>
        <time>2021-09-25T13:35:57Z</time>
      </trkpt>
      <trkpt lat="46.49662" lon="-1.79634">
        <ele>4.8</ele>
        <time>2021-09-25T13:35:58Z</time>
      </trkpt>
      <trkpt lat="46.49663" lon="-1.79634">
        <ele>4.8</ele>
        <time>2021-09-25T13:35:59Z</time>
      </trkpt>
      <trkpt lat="46.49664" lon="-1.79634">
        <ele>4.8</ele>
        <time>2021-09-25T13:36:00Z</time>
      </trkpt>
      <trkpt lat="46.49665" lon="-1.79634">
        <ele>4.8</ele>
        <time>2021-09-25T13:36:01Z</time>
      </trkpt>
      <trkpt lat="46.49666" lon="-1.79634">
        <ele>4.8</ele>
        <time>2021-09-25T13:36:02Z</time>
      </trkpt>
      <trkpt lat="46.49666" lon="-1.79634">
        <ele>4.8</ele>
        <time>2021-09-25T13:36:03Z</time>
      </trkpt>
      <trkpt lat="46.49667" lon="-1.79634">
        <ele>4.8</ele>
        <time>2021-09-25T13:36:04Z</time>
      </trkpt>
      <trkpt lat="46.49668" lon="-1.79633">
        <ele>4.8</ele>
        <time>2021-09-25T13:36:05Z</time>
      </trkpt>
      <trkpt lat="46.49668" lon="-1.79633">
        <ele>4.8</ele>
        <time>2021-09-25T13:36:06Z</time>
      </trkpt>
      <trkpt lat="46.49669" lon="-1.79632">
        <ele>4.8</ele>
        <time>2021-09-25T13:36:07Z</time>
      </trkpt>
      <trkpt lat="46.49669" lon="-1.79631">
        <ele>4.8</ele>
        <time>2021-09-25T13:36:08Z</time>
      </trkpt>
      <trkpt lat="46.4967" lon="-1.79631">
        <ele>4.8</ele>
        <time>2021-09-25T13:36:09Z</time>
      </trkpt>
      <trkpt lat="46.4967" lon="-1.7963">
        <ele>4.8</ele>
        <time>2021-09-25T13:36:10Z</time>
      </trkpt>
      <trkpt lat="46.4967" lon="-1.79629">
        <ele>4.7</ele>
        <time>2021-09-25T13:36:11Z</time>
      </trkpt>
      <trkpt lat="46.49671" lon="-1.79628">
        <ele>4.7</ele>
        <time>2021-09-25T13:36:12Z</time>
      </trkpt>
      <trkpt lat="46.49671" lon="-1.79627">
        <ele>4.7</ele>
        <time>2021-09-25T13:36:13Z</time>
      </trkpt>
      <trkpt lat="46.49671" lon="-1.79626">
        <ele>4.7</ele>
        <time>2021-09-25T13:36:14Z</time>
      </trkpt>
      <trkpt lat="46.49672" lon="-1.79625">
        <ele>4.7</ele>
        <time>2021-09-25T13:36:15Z</time>
      </trkpt>
      <trkpt lat="46.49672" lon="-1.79625">
        <ele>4.7</ele>
        <time>2021-09-25T13:36:16Z</time>
      </trkpt>
      <trkpt lat="46.49672" lon="-1.79624">
        <ele>4.7</ele>
        <time>2021-09-25T13:36:17Z</time>
      </trkpt>
      <trkpt lat="46.49672" lon="-1.79624">
        <ele>4.5</ele>
        <time>2021-09-25T13:36:18Z</time>
      </trkpt>
      <trkpt lat="46.49673" lon="-1.79623">
        <ele>4.5</ele>
        <time>2021-09-25T13:36:19Z</time>
      </trkpt>
      <trkpt lat="46.49673" lon="-1.79623">
        <ele>4.4</ele>
        <time>2021-09-25T13:36:20Z</time>
      </trkpt>
      <trkpt lat="46.49673" lon="-1.79623">
        <ele>4.4</ele>
        <time>2021-09-25T13:36:21Z</time>
      </trkpt>
      <trkpt lat="46.49673" lon="-1.79623">
        <ele>4.4</ele>
        <time>2021-09-25T13:36:22Z</time>
      </trkpt>
      <trkpt lat="46.49673" lon="-1.79622">
        <ele>4.4</ele>
        <time>2021-09-25T13:36:23Z</time>
      </trkpt>
      <trkpt lat="46.49673" lon="-1.79622">
        <ele>4.4</ele>
        <time>2021-09-25T13:36:24Z</time>
      </trkpt>
      <trkpt lat="46.49674" lon="-1.79622">
        <ele>4.4</ele>
        <time>2021-09-25T13:36:25Z</time>
      </trkpt>
      <trkpt lat="46.49674" lon="-1.79622">
        <ele>4.4</ele>
        <time>2021-09-25T13:36:26Z</time>
      </trkpt>
      <trkpt lat="46.49674" lon="-1.79622">
        <ele>4.4</ele>
        <time>2021-09-25T13:36:27Z</time>
      </trkpt>
      <trkpt lat="46.49674" lon="-1.79622">
        <ele>4.4</ele>
        <time>2021-09-25T13:36:28Z</time>
      </trkpt>
      <trkpt lat="46.49674" lon="-1.79622">
        <ele>4.4</ele>
        <time>2021-09-25T13:36:29Z</time>
      </trkpt>
      <trkpt lat="46.49674" lon="-1.79623">
        <ele>4.4</ele>
        <time>2021-09-25T13:36:30Z</time>
      </trkpt>
      <trkpt lat="46.49674" lon="-1.79623">
        <ele>4.4</ele>
        <time>2021-09-25T13:36:31Z</time>
      </trkpt>
      <trkpt lat="46.49674" lon="-1.79623">
        <ele>4.4</ele>
        <time>2021-09-25T13:36:32Z</time>
      </trkpt>
      <trkpt lat="46.49674" lon="-1.79623">
        <ele>4.4</ele>
        <time>2021-09-25T13:36:33Z</time>
      </trkpt>
      <trkpt lat="46.49674" lon="-1.79623">
        <ele>4.4</ele>
        <time>2021-09-25T13:36:34Z</time>
      </trkpt>
      <trkpt lat="46.49674" lon="-1.79623">
        <ele>4.4</ele>
        <time>2021-09-25T13:36:35Z</time>
      </trkpt>
      <trkpt lat="46.49674" lon="-1.79623">
        <ele>4.3</ele>
        <time>2021-09-25T13:36:36Z</time>
      </trkpt>
      <trkpt lat="46.49675" lon="-1.79623">
        <ele>4.3</ele>
        <time>2021-09-25T13:36:37Z</time>
      </trkpt>
      <trkpt lat="46.49675" lon="-1.79623">
        <ele>4.3</ele>
        <time>2021-09-25T13:36:38Z</time>
      </trkpt>
      <trkpt lat="46.49675" lon="-1.79623">
        <ele>4.3</ele>
        <time>2021-09-25T13:36:39Z</time>
      </trkpt>
      <trkpt lat="46.49675" lon="-1.79623">
        <ele>4.3</ele>
        <time>2021-09-25T13:36:40Z</time>
      </trkpt>
      <trkpt lat="46.49676" lon="-1.79623">
        <ele>4.3</ele>
        <time>2021-09-25T13:36:41Z</time>
      </trkpt>
      <trkpt lat="46.49676" lon="-1.79623">
        <ele>4.3</ele>
        <time>2021-09-25T13:36:42Z</time>
      </trkpt>
      <trkpt lat="46.49676" lon="-1.79623">
        <ele>4.3</ele>
        <time>2021-09-25T13:36:43Z</time>
      </trkpt>
      <trkpt lat="46.49676" lon="-1.79623">
        <ele>4.3</ele>
        <time>2021-09-25T13:36:44Z</time>
      </trkpt>
      <trkpt lat="46.49676" lon="-1.79624">
        <ele>4.2</ele>
        <time>2021-09-25T13:36:45Z</time>
      </trkpt>
      <trkpt lat="46.49676" lon="-1.79624">
        <ele>4.2</ele>
        <time>2021-09-25T13:36:46Z</time>
      </trkpt>
      <trkpt lat="46.49676" lon="-1.79624">
        <ele>4.2</ele>
        <time>2021-09-25T13:36:47Z</time>
      </trkpt>
      <trkpt lat="46.49676" lon="-1.79624">
        <ele>4.2</ele>
        <time>2021-09-25T13:36:48Z</time>
      </trkpt>
      <trkpt lat="46.49676" lon="-1.79624">
        <ele>4.2</ele>
        <time>2021-09-25T13:36:49Z</time>
      </trkpt>
      <trkpt lat="46.49676" lon="-1.79624">
        <ele>4.2</ele>
        <time>2021-09-25T13:36:50Z</time>
      </trkpt>
      <trkpt lat="46.49676" lon="-1.79624">
        <ele>4.2</ele>
        <time>2021-09-25T13:36:51Z</time>
      </trkpt>
      <trkpt lat="46.49676" lon="-1.79624">
        <ele>4.2</ele>
        <time>2021-09-25T13:36:52Z</time>
      </trkpt>
      <trkpt lat="46.49676" lon="-1.79624">
        <ele>4.2</ele>
        <time>2021-09-25T13:36:53Z</time>
      </trkpt>
      <trkpt lat="46.49676" lon="-1.79624">
        <ele>4.2</ele>
        <time>2021-09-25T13:36:54Z</time>
      </trkpt>
      <trkpt lat="46.49676" lon="-1.79624">
        <ele>4.2</ele>
        <time>2021-09-25T13:36:55Z</time>
      </trkpt>
      <trkpt lat="46.49676" lon="-1.79623">
        <ele>4.2</ele>
        <time>2021-09-25T13:36:56Z</time>
      </trkpt>
      <trkpt lat="46.49677" lon="-1.79623">
        <ele>4.2</ele>
        <time>2021-09-25T13:36:57Z</time>
      </trkpt>
      <trkpt lat="46.49677" lon="-1.79623">
        <ele>4.2</ele>
        <time>2021-09-25T13:36:58Z</time>
      </trkpt>
      <trkpt lat="46.49677" lon="-1.79623">
        <ele>4.2</ele>
        <time>2021-09-25T13:36:59Z</time>
      </trkpt>
      <trkpt lat="46.49678" lon="-1.79623">
        <ele>4.2</ele>
        <time>2021-09-25T13:37:00Z</time>
      </trkpt>
      <trkpt lat="46.49678" lon="-1.79623">
        <ele>4.2</ele>
        <time>2021-09-25T13:37:01Z</time>
      </trkpt>
      <trkpt lat="46.49678" lon="-1.79623">
        <ele>4.1</ele>
        <time>2021-09-25T13:37:02Z</time>
      </trkpt>
      <trkpt lat="46.49678" lon="-1.79623">
        <ele>4.1</ele>
        <time>2021-09-25T13:37:03Z</time>
      </trkpt>
      <trkpt lat="46.49678" lon="-1.79623">
        <ele>4.1</ele>
        <time>2021-09-25T13:37:04Z</time>
      </trkpt>
      <trkpt lat="46.49678" lon="-1.79623">
        <ele>4.1</ele>
        <time>2021-09-25T13:37:05Z</time>
      </trkpt>
      <trkpt lat="46.49678" lon="-1.79623">
        <ele>4.1</ele>
        <time>2021-09-25T13:37:06Z</time>
      </trkpt>
      <trkpt lat="46.49678" lon="-1.79623">
        <ele>4.1</ele>
        <time>2021-09-25T13:37:07Z</time>
      </trkpt>
      <trkpt lat="46.49678" lon="-1.79623">
        <ele>4.1</ele>
        <time>2021-09-25T13:37:08Z</time>
      </trkpt>
      <trkpt lat="46.49678" lon="-1.79623">
        <ele>4.1</ele>
        <time>2021-09-25T13:37:09Z</time>
      </trkpt>
      <trkpt lat="46.49678" lon="-1.79623">
        <ele>4.1</ele>
        <time>2021-09-25T13:37:10Z</time>
      </trkpt>
      <trkpt lat="46.49678" lon="-1.79623">
        <ele>4.1</ele>
        <time>2021-09-25T13:37:11Z</time>
      </trkpt>
      <trkpt lat="46.49678" lon="-1.79623">
        <ele>4.1</ele>
        <time>2021-09-25T13:37:12Z</time>
      </trkpt>
      <trkpt lat="46.49678" lon="-1.79623">
        <ele>4.1</ele>
        <time>2021-09-25T13:37:13Z</time>
      </trkpt>
      <trkpt lat="46.49678" lon="-1.79623">
        <ele>4.1</ele>
        <time>2021-09-25T13:37:14Z</time>
      </trkpt>
      <trkpt lat="46.49678" lon="-1.79623">
        <ele>4.1</ele>
        <time>2021-09-25T13:37:15Z</time>
      </trkpt>
      <trkpt lat="46.49678" lon="-1.79623">
        <ele>4.1</ele>
        <time>2021-09-25T13:37:16Z</time>
      </trkpt>
      <trkpt lat="46.49678" lon="-1.79623">
        <ele>4.1</ele>
        <time>2021-09-25T13:37:17Z</time>
      </trkpt>
      <trkpt lat="46.49678" lon="-1.79623">
        <ele>4.1</ele>
        <time>2021-09-25T13:37:18Z</time>
      </trkpt>
      <trkpt lat="46.49678" lon="-1.79623">
        <ele>4.1</ele>
        <time>2021-09-25T13:37:19Z</time>
      </trkpt>
      <trkpt lat="46.49678" lon="-1.79623">
        <ele>4.1</ele>
        <time>2021-09-25T13:37:20Z</time>
      </trkpt>
      <trkpt lat="46.49678" lon="-1.79623">
        <ele>4.1</ele>
        <time>2021-09-25T13:37:21Z</time>
      </trkpt>
      <trkpt lat="46.49678" lon="-1.79623">
        <ele>4.1</ele>
        <time>2021-09-25T13:37:22Z</time>
      </trkpt>
      <trkpt lat="46.49678" lon="-1.79623">
        <ele>4.1</ele>
        <time>2021-09-25T13:37:23Z</time>
      </trkpt>
      <trkpt lat="46.49678" lon="-1.79623">
        <ele>4.1</ele>
        <time>2021-09-25T13:37:24Z</time>
      </trkpt>
      <trkpt lat="46.49678" lon="-1.79623">
        <ele>4.1</ele>
        <time>2021-09-25T13:37:25Z</time>
      </trkpt>
      <trkpt lat="46.49678" lon="-1.79623">
        <ele>4.1</ele>
        <time>2021-09-25T13:37:26Z</time>
      </trkpt>
      <trkpt lat="46.49678" lon="-1.79623">
        <ele>4.1</ele>
        <time>2021-09-25T13:37:27Z</time>
      </trkpt>
      <trkpt lat="46.49678" lon="-1.79623">
        <ele>4.1</ele>
        <time>2021-09-25T13:37:28Z</time>
      </trkpt>
      <trkpt lat="46.49678" lon="-1.79623">
        <ele>4.1</ele>
        <time>2021-09-25T13:37:29Z</time>
      </trkpt>
      <trkpt lat="46.49678" lon="-1.79623">
        <ele>4.1</ele>
        <time>2021-09-25T13:37:30Z</time>
      </trkpt>
      <trkpt lat="46.49678" lon="-1.79623">
        <ele>4.1</ele>
        <time>2021-09-25T13:37:31Z</time>
      </trkpt>
      <trkpt lat="46.49678" lon="-1.79623">
        <ele>4.1</ele>
        <time>2021-09-25T13:37:32Z</time>
      </trkpt>
      <trkpt lat="46.49678" lon="-1.79623">
        <ele>4.1</ele>
        <time>2021-09-25T13:37:33Z</time>
      </trkpt>
      <trkpt lat="46.49678" lon="-1.79623">
        <ele>4.1</ele>
        <time>2021-09-25T13:37:34Z</time>
      </trkpt>
      <trkpt lat="46.49678" lon="-1.79623">
        <ele>4.1</ele>
        <time>2021-09-25T13:37:35Z</time>
      </trkpt>
      <trkpt lat="46.49678" lon="-1.79623">
        <ele>4.1</ele>
        <time>2021-09-25T13:37:36Z</time>
      </trkpt>
      <trkpt lat="46.49678" lon="-1.79623">
        <ele>4.1</ele>
        <time>2021-09-25T13:37:37Z</time>
      </trkpt>
      <trkpt lat="46.49678" lon="-1.79623">
        <ele>4.1</ele>
        <time>2021-09-25T13:37:38Z</time>
      </trkpt>
      <trkpt lat="46.49678" lon="-1.79623">
        <ele>4.1</ele>
        <time>2021-09-25T13:37:39Z</time>
      </trkpt>
      <trkpt lat="46.49678" lon="-1.79623">
        <ele>4.1</ele>
        <time>2021-09-25T13:37:40Z</time>
      </trkpt>
      <trkpt lat="46.49678" lon="-1.79623">
        <ele>4.1</ele>
        <time>2021-09-25T13:37:41Z</time>
      </trkpt>
      <trkpt lat="46.49678" lon="-1.79623">
        <ele>4.1</ele>
        <time>2021-09-25T13:37:42Z</time>
      </trkpt>
      <trkpt lat="46.49678" lon="-1.79623">
        <ele>4.1</ele>
        <time>2021-09-25T13:37:43Z</time>
      </trkpt>
      <trkpt lat="46.49678" lon="-1.79623">
        <ele>4.1</ele>
        <time>2021-09-25T13:37:44Z</time>
      </trkpt>
      <trkpt lat="46.49678" lon="-1.79623">
        <ele>4.1</ele>
        <time>2021-09-25T13:37:45Z</time>
      </trkpt>
      <trkpt lat="46.49678" lon="-1.79623">
        <ele>4.1</ele>
        <time>2021-09-25T13:37:46Z</time>
      </trkpt>
      <trkpt lat="46.49678" lon="-1.79623">
        <ele>4.1</ele>
        <time>2021-09-25T13:37:47Z</time>
      </trkpt>
      <trkpt lat="46.49678" lon="-1.79623">
        <ele>4.1</ele>
        <time>2021-09-25T13:37:48Z</time>
      </trkpt>
      <trkpt lat="46.49678" lon="-1.79623">
        <ele>4.1</ele>
        <time>2021-09-25T13:37:49Z</time>
      </trkpt>
      <trkpt lat="46.49678" lon="-1.79623">
        <ele>4.1</ele>
        <time>2021-09-25T13:37:50Z</time>
      </trkpt>
      <trkpt lat="46.49678" lon="-1.79623">
        <ele>4.1</ele>
        <time>2021-09-25T13:37:51Z</time>
      </trkpt>
      <trkpt lat="46.49678" lon="-1.79623">
        <ele>4.1</ele>
        <time>2021-09-25T13:37:52Z</time>
      </trkpt>
      <trkpt lat="46.49678" lon="-1.79623">
        <ele>4.1</ele>
        <time>2021-09-25T13:37:53Z</time>
      </trkpt>
      <trkpt lat="46.49678" lon="-1.79623">
        <ele>4.1</ele>
        <time>2021-09-25T13:37:54Z</time>
      </trkpt>
      <trkpt lat="46.49678" lon="-1.79623">
        <ele>4.1</ele>
        <time>2021-09-25T13:37:55Z</time>
      </trkpt>
      <trkpt lat="46.49678" lon="-1.79623">
        <ele>4.1</ele>
        <time>2021-09-25T13:37:56Z</time>
      </trkpt>
      <trkpt lat="46.49678" lon="-1.79623">
        <ele>4.1</ele>
        <time>2021-09-25T13:37:57Z</time>
      </trkpt>
      <trkpt lat="46.49678" lon="-1.79623">
        <ele>4.1</ele>
        <time>2021-09-25T13:37:58Z</time>
      </trkpt>
      <trkpt lat="46.49678" lon="-1.79623">
        <ele>4.1</ele>
        <time>2021-09-25T13:37:59Z</time>
      </trkpt>
      <trkpt lat="46.49678" lon="-1.79623">
        <ele>4.1</ele>
        <time>2021-09-25T13:38:00Z</time>
      </trkpt>
      <trkpt lat="46.49678" lon="-1.79623">
        <ele>4.1</ele>
        <time>2021-09-25T13:38:01Z</time>
      </trkpt>
      <trkpt lat="46.49678" lon="-1.79623">
        <ele>4.1</ele>
        <time>2021-09-25T13:38:02Z</time>
      </trkpt>
      <trkpt lat="46.49678" lon="-1.79623">
        <ele>4.1</ele>
        <time>2021-09-25T13:38:03Z</time>
      </trkpt>
      <trkpt lat="46.49678" lon="-1.79623">
        <ele>4.1</ele>
        <time>2021-09-25T13:38:04Z</time>
      </trkpt>
      <trkpt lat="46.49678" lon="-1.79623">
        <ele>4.1</ele>
        <time>2021-09-25T13:38:05Z</time>
      </trkpt>
      <trkpt lat="46.49678" lon="-1.79623">
        <ele>4.1</ele>
        <time>2021-09-25T13:38:06Z</time>
      </trkpt>
      <trkpt lat="46.49678" lon="-1.79623">
        <ele>4.1</ele>
        <time>2021-09-25T13:38:07Z</time>
      </trkpt>
      <trkpt lat="46.49679" lon="-1.79623">
        <ele>4.1</ele>
        <time>2021-09-25T13:38:08Z</time>
      </trkpt>
      <trkpt lat="46.49679" lon="-1.79623">
        <ele>4.1</ele>
        <time>2021-09-25T13:38:09Z</time>
      </trkpt>
      <trkpt lat="46.4968" lon="-1.79624">
        <ele>4</ele>
        <time>2021-09-25T13:38:10Z</time>
      </trkpt>
      <trkpt lat="46.49681" lon="-1.79625">
        <ele>4</ele>
        <time>2021-09-25T13:38:11Z</time>
      </trkpt>
      <trkpt lat="46.49682" lon="-1.79625">
        <ele>3.9</ele>
        <time>2021-09-25T13:38:12Z</time>
      </trkpt>
      <trkpt lat="46.49682" lon="-1.79625">
        <ele>3.9</ele>
        <time>2021-09-25T13:38:13Z</time>
      </trkpt>
      <trkpt lat="46.49682" lon="-1.79625">
        <ele>3.9</ele>
        <time>2021-09-25T13:38:14Z</time>
      </trkpt>
      <trkpt lat="46.49682" lon="-1.79625">
        <ele>3.9</ele>
        <time>2021-09-25T13:38:15Z</time>
      </trkpt>
      <trkpt lat="46.49682" lon="-1.79625">
        <ele>3.9</ele>
        <time>2021-09-25T13:38:16Z</time>
      </trkpt>
      <trkpt lat="46.49682" lon="-1.79625">
        <ele>3.9</ele>
        <time>2021-09-25T13:38:17Z</time>
      </trkpt>
      <trkpt lat="46.49682" lon="-1.79625">
        <ele>3.9</ele>
        <time>2021-09-25T13:38:18Z</time>
      </trkpt>
      <trkpt lat="46.49682" lon="-1.79625">
        <ele>3.9</ele>
        <time>2021-09-25T13:38:19Z</time>
      </trkpt>
      <trkpt lat="46.49682" lon="-1.79625">
        <ele>3.9</ele>
        <time>2021-09-25T13:38:20Z</time>
      </trkpt>
      <trkpt lat="46.49682" lon="-1.79625">
        <ele>3.9</ele>
        <time>2021-09-25T13:38:21Z</time>
      </trkpt>
      <trkpt lat="46.49682" lon="-1.79625">
        <ele>3.9</ele>
        <time>2021-09-25T13:38:22Z</time>
      </trkpt>
      <trkpt lat="46.49682" lon="-1.79625">
        <ele>3.9</ele>
        <time>2021-09-25T13:38:23Z</time>
      </trkpt>
      <trkpt lat="46.49682" lon="-1.79625">
        <ele>3.9</ele>
        <time>2021-09-25T13:38:24Z</time>
      </trkpt>
      <trkpt lat="46.49683" lon="-1.79625">
        <ele>3.9</ele>
        <time>2021-09-25T13:38:25Z</time>
      </trkpt>
      <trkpt lat="46.49683" lon="-1.79625">
        <ele>3.9</ele>
        <time>2021-09-25T13:38:26Z</time>
      </trkpt>
      <trkpt lat="46.49683" lon="-1.79625">
        <ele>3.9</ele>
        <time>2021-09-25T13:38:27Z</time>
      </trkpt>
      <trkpt lat="46.49683" lon="-1.79625">
        <ele>3.9</ele>
        <time>2021-09-25T13:38:28Z</time>
      </trkpt>
      <trkpt lat="46.49683" lon="-1.79625">
        <ele>3.9</ele>
        <time>2021-09-25T13:38:29Z</time>
      </trkpt>
      <trkpt lat="46.49683" lon="-1.79625">
        <ele>3.9</ele>
        <time>2021-09-25T13:38:30Z</time>
      </trkpt>
      <trkpt lat="46.49683" lon="-1.79625">
        <ele>3.9</ele>
        <time>2021-09-25T13:38:31Z</time>
      </trkpt>
      <trkpt lat="46.49683" lon="-1.79625">
        <ele>3.9</ele>
        <time>2021-09-25T13:38:32Z</time>
      </trkpt>
      <trkpt lat="46.49683" lon="-1.79625">
        <ele>3.9</ele>
        <time>2021-09-25T13:38:33Z</time>
      </trkpt>
      <trkpt lat="46.49683" lon="-1.79625">
        <ele>3.8</ele>
        <time>2021-09-25T13:38:34Z</time>
      </trkpt>
      <trkpt lat="46.49683" lon="-1.79625">
        <ele>3.8</ele>
        <time>2021-09-25T13:38:35Z</time>
      </trkpt>
      <trkpt lat="46.49683" lon="-1.79625">
        <ele>3.8</ele>
        <time>2021-09-25T13:38:36Z</time>
      </trkpt>
      <trkpt lat="46.49683" lon="-1.79625">
        <ele>3.8</ele>
        <time>2021-09-25T13:38:37Z</time>
      </trkpt>
      <trkpt lat="46.49683" lon="-1.79625">
        <ele>3.8</ele>
        <time>2021-09-25T13:38:38Z</time>
      </trkpt>
      <trkpt lat="46.49683" lon="-1.79625">
        <ele>3.8</ele>
        <time>2021-09-25T13:38:39Z</time>
      </trkpt>
      <trkpt lat="46.49683" lon="-1.79625">
        <ele>3.8</ele>
        <time>2021-09-25T13:38:40Z</time>
      </trkpt>
      <trkpt lat="46.49683" lon="-1.79625">
        <ele>3.8</ele>
        <time>2021-09-25T13:38:41Z</time>
      </trkpt>
      <trkpt lat="46.49683" lon="-1.79625">
        <ele>3.8</ele>
        <time>2021-09-25T13:38:42Z</time>
      </trkpt>
      <trkpt lat="46.49683" lon="-1.79625">
        <ele>3.8</ele>
        <time>2021-09-25T13:38:43Z</time>
      </trkpt>
      <trkpt lat="46.49683" lon="-1.79625">
        <ele>3.8</ele>
        <time>2021-09-25T13:38:44Z</time>
      </trkpt>
      <trkpt lat="46.49683" lon="-1.79625">
        <ele>3.8</ele>
        <time>2021-09-25T13:38:45Z</time>
      </trkpt>
      <trkpt lat="46.49683" lon="-1.79625">
        <ele>3.8</ele>
        <time>2021-09-25T13:38:46Z</time>
      </trkpt>
      <trkpt lat="46.49683" lon="-1.79625">
        <ele>3.8</ele>
        <time>2021-09-25T13:38:47Z</time>
      </trkpt>
      <trkpt lat="46.49684" lon="-1.79625">
        <ele>3.8</ele>
        <time>2021-09-25T13:38:48Z</time>
      </trkpt>
      <trkpt lat="46.49684" lon="-1.79625">
        <ele>3.8</ele>
        <time>2021-09-25T13:38:49Z</time>
      </trkpt>
      <trkpt lat="46.49684" lon="-1.79625">
        <ele>3.8</ele>
        <time>2021-09-25T13:38:50Z</time>
      </trkpt>
      <trkpt lat="46.49684" lon="-1.79625">
        <ele>3.8</ele>
        <time>2021-09-25T13:38:51Z</time>
      </trkpt>
      <trkpt lat="46.49684" lon="-1.79625">
        <ele>3.8</ele>
        <time>2021-09-25T13:38:52Z</time>
      </trkpt>
      <trkpt lat="46.49684" lon="-1.79625">
        <ele>3.8</ele>
        <time>2021-09-25T13:38:53Z</time>
      </trkpt>
      <trkpt lat="46.49684" lon="-1.79625">
        <ele>3.8</ele>
        <time>2021-09-25T13:38:54Z</time>
      </trkpt>
      <trkpt lat="46.49684" lon="-1.79625">
        <ele>3.8</ele>
        <time>2021-09-25T13:38:55Z</time>
      </trkpt>
      <trkpt lat="46.49684" lon="-1.79625">
        <ele>3.8</ele>
        <time>2021-09-25T13:38:56Z</time>
      </trkpt>
      <trkpt lat="46.49684" lon="-1.79625">
        <ele>3.8</ele>
        <time>2021-09-25T13:38:57Z</time>
      </trkpt>
      <trkpt lat="46.49684" lon="-1.79625">
        <ele>3.8</ele>
        <time>2021-09-25T13:38:58Z</time>
      </trkpt>
      <trkpt lat="46.49684" lon="-1.79625">
        <ele>3.8</ele>
        <time>2021-09-25T13:38:59Z</time>
      </trkpt>
      <trkpt lat="46.49684" lon="-1.79625">
        <ele>3.8</ele>
        <time>2021-09-25T13:39:00Z</time>
      </trkpt>
      <trkpt lat="46.49684" lon="-1.79625">
        <ele>3.8</ele>
        <time>2021-09-25T13:39:01Z</time>
      </trkpt>
      <trkpt lat="46.49684" lon="-1.79625">
        <ele>3.8</ele>
        <time>2021-09-25T13:39:02Z</time>
      </trkpt>
      <trkpt lat="46.49684" lon="-1.79625">
        <ele>3.8</ele>
        <time>2021-09-25T13:39:03Z</time>
      </trkpt>
      <trkpt lat="46.49684" lon="-1.79625">
        <ele>3.8</ele>
        <time>2021-09-25T13:39:04Z</time>
      </trkpt>
      <trkpt lat="46.49684" lon="-1.79625">
        <ele>3.8</ele>
        <time>2021-09-25T13:39:05Z</time>
      </trkpt>
      <trkpt lat="46.49684" lon="-1.79625">
        <ele>3.8</ele>
        <time>2021-09-25T13:39:06Z</time>
      </trkpt>
      <trkpt lat="46.49684" lon="-1.79625">
        <ele>3.8</ele>
        <time>2021-09-25T13:39:07Z</time>
      </trkpt>
      <trkpt lat="46.49684" lon="-1.79625">
        <ele>3.8</ele>
        <time>2021-09-25T13:39:08Z</time>
      </trkpt>
      <trkpt lat="46.49684" lon="-1.79625">
        <ele>3.8</ele>
        <time>2021-09-25T13:39:09Z</time>
      </trkpt>
      <trkpt lat="46.49684" lon="-1.79625">
        <ele>3.8</ele>
        <time>2021-09-25T13:39:10Z</time>
      </trkpt>
      <trkpt lat="46.49685" lon="-1.79625">
        <ele>3.7</ele>
        <time>2021-09-25T13:39:11Z</time>
      </trkpt>
      <trkpt lat="46.49685" lon="-1.79625">
        <ele>3.7</ele>
        <time>2021-09-25T13:39:12Z</time>
      </trkpt>
      <trkpt lat="46.49685" lon="-1.79625">
        <ele>3.7</ele>
        <time>2021-09-25T13:39:13Z</time>
      </trkpt>
      <trkpt lat="46.49685" lon="-1.79625">
        <ele>3.7</ele>
        <time>2021-09-25T13:39:14Z</time>
      </trkpt>
      <trkpt lat="46.49685" lon="-1.79625">
        <ele>3.7</ele>
        <time>2021-09-25T13:39:15Z</time>
      </trkpt>
      <trkpt lat="46.49685" lon="-1.79625">
        <ele>3.7</ele>
        <time>2021-09-25T13:39:16Z</time>
      </trkpt>
      <trkpt lat="46.49685" lon="-1.79625">
        <ele>3.7</ele>
        <time>2021-09-25T13:39:17Z</time>
      </trkpt>
      <trkpt lat="46.49685" lon="-1.79625">
        <ele>3.7</ele>
        <time>2021-09-25T13:39:18Z</time>
      </trkpt>
      <trkpt lat="46.49685" lon="-1.79625">
        <ele>3.7</ele>
        <time>2021-09-25T13:39:19Z</time>
      </trkpt>
      <trkpt lat="46.49685" lon="-1.79625">
        <ele>3.7</ele>
        <time>2021-09-25T13:39:20Z</time>
      </trkpt>
      <trkpt lat="46.49685" lon="-1.79625">
        <ele>3.7</ele>
        <time>2021-09-25T13:39:21Z</time>
      </trkpt>
      <trkpt lat="46.49685" lon="-1.79625">
        <ele>3.7</ele>
        <time>2021-09-25T13:39:22Z</time>
      </trkpt>
      <trkpt lat="46.49685" lon="-1.79625">
        <ele>3.7</ele>
        <time>2021-09-25T13:39:23Z</time>
      </trkpt>
      <trkpt lat="46.49685" lon="-1.79625">
        <ele>3.7</ele>
        <time>2021-09-25T13:39:24Z</time>
      </trkpt>
      <trkpt lat="46.49685" lon="-1.79625">
        <ele>3.7</ele>
        <time>2021-09-25T13:39:25Z</time>
      </trkpt>
      <trkpt lat="46.49685" lon="-1.79625">
        <ele>3.7</ele>
        <time>2021-09-25T13:39:26Z</time>
      </trkpt>
      <trkpt lat="46.49685" lon="-1.79625">
        <ele>3.7</ele>
        <time>2021-09-25T13:39:27Z</time>
      </trkpt>
      <trkpt lat="46.49685" lon="-1.79625">
        <ele>3.7</ele>
        <time>2021-09-25T13:39:28Z</time>
      </trkpt>
      <trkpt lat="46.49685" lon="-1.79625">
        <ele>3.7</ele>
        <time>2021-09-25T13:39:29Z</time>
      </trkpt>
      <trkpt lat="46.49685" lon="-1.79625">
        <ele>3.7</ele>
        <time>2021-09-25T13:39:30Z</time>
      </trkpt>
      <trkpt lat="46.49685" lon="-1.79625">
        <ele>3.7</ele>
        <time>2021-09-25T13:39:31Z</time>
      </trkpt>
      <trkpt lat="46.49685" lon="-1.79625">
        <ele>3.7</ele>
        <time>2021-09-25T13:39:32Z</time>
      </trkpt>
      <trkpt lat="46.49685" lon="-1.79625">
        <ele>3.7</ele>
        <time>2021-09-25T13:39:33Z</time>
      </trkpt>
      <trkpt lat="46.49686" lon="-1.79625">
        <ele>3.7</ele>
        <time>2021-09-25T13:39:34Z</time>
      </trkpt>
      <trkpt lat="46.49686" lon="-1.79625">
        <ele>3.7</ele>
        <time>2021-09-25T13:39:35Z</time>
      </trkpt>
      <trkpt lat="46.49686" lon="-1.79625">
        <ele>3.7</ele>
        <time>2021-09-25T13:39:36Z</time>
      </trkpt>
      <trkpt lat="46.49686" lon="-1.79625">
        <ele>3.7</ele>
        <time>2021-09-25T13:39:37Z</time>
      </trkpt>
      <trkpt lat="46.49686" lon="-1.79625">
        <ele>3.7</ele>
        <time>2021-09-25T13:39:38Z</time>
      </trkpt>
      <trkpt lat="46.49686" lon="-1.79625">
        <ele>3.7</ele>
        <time>2021-09-25T13:39:39Z</time>
      </trkpt>
      <trkpt lat="46.49686" lon="-1.79625">
        <ele>3.7</ele>
        <time>2021-09-25T13:39:40Z</time>
      </trkpt>
      <trkpt lat="46.49686" lon="-1.79625">
        <ele>3.7</ele>
        <time>2021-09-25T13:39:41Z</time>
      </trkpt>
      <trkpt lat="46.49686" lon="-1.79625">
        <ele>3.7</ele>
        <time>2021-09-25T13:39:42Z</time>
      </trkpt>
      <trkpt lat="46.49686" lon="-1.79625">
        <ele>3.7</ele>
        <time>2021-09-25T13:39:43Z</time>
      </trkpt>
      <trkpt lat="46.49686" lon="-1.79625">
        <ele>3.7</ele>
        <time>2021-09-25T13:39:44Z</time>
      </trkpt>
      <trkpt lat="46.49686" lon="-1.79625">
        <ele>3.7</ele>
        <time>2021-09-25T13:39:45Z</time>
      </trkpt>
      <trkpt lat="46.49686" lon="-1.79625">
        <ele>3.7</ele>
        <time>2021-09-25T13:39:46Z</time>
      </trkpt>
      <trkpt lat="46.49686" lon="-1.79625">
        <ele>3.6</ele>
        <time>2021-09-25T13:39:47Z</time>
      </trkpt>
      <trkpt lat="46.49686" lon="-1.79625">
        <ele>3.6</ele>
        <time>2021-09-25T13:39:48Z</time>
      </trkpt>
      <trkpt lat="46.49686" lon="-1.79625">
        <ele>3.6</ele>
        <time>2021-09-25T13:39:49Z</time>
      </trkpt>
      <trkpt lat="46.49686" lon="-1.79625">
        <ele>3.6</ele>
        <time>2021-09-25T13:39:50Z</time>
      </trkpt>
      <trkpt lat="46.49686" lon="-1.79625">
        <ele>3.6</ele>
        <time>2021-09-25T13:39:51Z</time>
      </trkpt>
      <trkpt lat="46.49686" lon="-1.79625">
        <ele>3.6</ele>
        <time>2021-09-25T13:39:52Z</time>
      </trkpt>
      <trkpt lat="46.49686" lon="-1.79625">
        <ele>3.6</ele>
        <time>2021-09-25T13:39:53Z</time>
      </trkpt>
      <trkpt lat="46.49686" lon="-1.79625">
        <ele>3.6</ele>
        <time>2021-09-25T13:39:54Z</time>
      </trkpt>
      <trkpt lat="46.49686" lon="-1.79625">
        <ele>3.6</ele>
        <time>2021-09-25T13:39:55Z</time>
      </trkpt>
      <trkpt lat="46.49687" lon="-1.79625">
        <ele>3.6</ele>
        <time>2021-09-25T13:39:56Z</time>
      </trkpt>
      <trkpt lat="46.49687" lon="-1.79625">
        <ele>3.6</ele>
        <time>2021-09-25T13:39:57Z</time>
      </trkpt>
      <trkpt lat="46.49687" lon="-1.79625">
        <ele>3.6</ele>
        <time>2021-09-25T13:39:58Z</time>
      </trkpt>
      <trkpt lat="46.49687" lon="-1.79625">
        <ele>3.6</ele>
        <time>2021-09-25T13:39:59Z</time>
      </trkpt>
      <trkpt lat="46.49687" lon="-1.79625">
        <ele>3.6</ele>
        <time>2021-09-25T13:40:00Z</time>
      </trkpt>
      <trkpt lat="46.49687" lon="-1.79625">
        <ele>3.6</ele>
        <time>2021-09-25T13:40:01Z</time>
      </trkpt>
      <trkpt lat="46.49687" lon="-1.79625">
        <ele>3.6</ele>
        <time>2021-09-25T13:40:02Z</time>
      </trkpt>
      <trkpt lat="46.49687" lon="-1.79625">
        <ele>3.6</ele>
        <time>2021-09-25T13:40:03Z</time>
      </trkpt>
      <trkpt lat="46.49687" lon="-1.79625">
        <ele>3.6</ele>
        <time>2021-09-25T13:40:04Z</time>
      </trkpt>
      <trkpt lat="46.49687" lon="-1.79625">
        <ele>3.6</ele>
        <time>2021-09-25T13:40:05Z</time>
      </trkpt>
      <trkpt lat="46.49687" lon="-1.79625">
        <ele>3.6</ele>
        <time>2021-09-25T13:40:06Z</time>
      </trkpt>
      <trkpt lat="46.49687" lon="-1.79625">
        <ele>3.6</ele>
        <time>2021-09-25T13:40:07Z</time>
      </trkpt>
      <trkpt lat="46.49687" lon="-1.79625">
        <ele>3.6</ele>
        <time>2021-09-25T13:40:08Z</time>
      </trkpt>
      <trkpt lat="46.49687" lon="-1.79625">
        <ele>3.6</ele>
        <time>2021-09-25T13:40:09Z</time>
      </trkpt>
      <trkpt lat="46.49687" lon="-1.79625">
        <ele>3.6</ele>
        <time>2021-09-25T13:40:10Z</time>
      </trkpt>
      <trkpt lat="46.49687" lon="-1.79625">
        <ele>3.6</ele>
        <time>2021-09-25T13:40:11Z</time>
      </trkpt>
      <trkpt lat="46.49687" lon="-1.79625">
        <ele>3.6</ele>
        <time>2021-09-25T13:40:12Z</time>
      </trkpt>
      <trkpt lat="46.49687" lon="-1.79625">
        <ele>3.6</ele>
        <time>2021-09-25T13:40:13Z</time>
      </trkpt>
      <trkpt lat="46.49687" lon="-1.79625">
        <ele>3.6</ele>
        <time>2021-09-25T13:40:14Z</time>
      </trkpt>
      <trkpt lat="46.49687" lon="-1.79625">
        <ele>3.6</ele>
        <time>2021-09-25T13:40:15Z</time>
      </trkpt>
      <trkpt lat="46.49687" lon="-1.79625">
        <ele>3.6</ele>
        <time>2021-09-25T13:40:16Z</time>
      </trkpt>
      <trkpt lat="46.49687" lon="-1.79625">
        <ele>3.6</ele>
        <time>2021-09-25T13:40:17Z</time>
      </trkpt>
      <trkpt lat="46.49687" lon="-1.79625">
        <ele>3.6</ele>
        <time>2021-09-25T13:40:18Z</time>
      </trkpt>
      <trkpt lat="46.49688" lon="-1.79625">
        <ele>3.6</ele>
        <time>2021-09-25T13:40:19Z</time>
      </trkpt>
      <trkpt lat="46.49688" lon="-1.79625">
        <ele>3.6</ele>
        <time>2021-09-25T13:40:20Z</time>
      </trkpt>
      <trkpt lat="46.49688" lon="-1.79625">
        <ele>3.6</ele>
        <time>2021-09-25T13:40:21Z</time>
      </trkpt>
      <trkpt lat="46.49688" lon="-1.79625">
        <ele>3.6</ele>
        <time>2021-09-25T13:40:22Z</time>
      </trkpt>
      <trkpt lat="46.49688" lon="-1.79625">
        <ele>3.6</ele>
        <time>2021-09-25T13:40:23Z</time>
      </trkpt>
      <trkpt lat="46.49688" lon="-1.79625">
        <ele>3.5</ele>
        <time>2021-09-25T13:40:24Z</time>
      </trkpt>
      <trkpt lat="46.49688" lon="-1.79625">
        <ele>3.5</ele>
        <time>2021-09-25T13:40:25Z</time>
      </trkpt>
      <trkpt lat="46.49688" lon="-1.79625">
        <ele>3.5</ele>
        <time>2021-09-25T13:40:26Z</time>
      </trkpt>
      <trkpt lat="46.49688" lon="-1.79625">
        <ele>3.5</ele>
        <time>2021-09-25T13:40:27Z</time>
      </trkpt>
      <trkpt lat="46.49688" lon="-1.79625">
        <ele>3.5</ele>
        <time>2021-09-25T13:40:28Z</time>
      </trkpt>
      <trkpt lat="46.49688" lon="-1.79625">
        <ele>3.5</ele>
        <time>2021-09-25T13:40:29Z</time>
      </trkpt>
      <trkpt lat="46.49688" lon="-1.79625">
        <ele>3.5</ele>
        <time>2021-09-25T13:40:30Z</time>
      </trkpt>
      <trkpt lat="46.49688" lon="-1.79625">
        <ele>3.5</ele>
        <time>2021-09-25T13:40:31Z</time>
      </trkpt>
      <trkpt lat="46.49688" lon="-1.79625">
        <ele>3.5</ele>
        <time>2021-09-25T13:40:32Z</time>
      </trkpt>
      <trkpt lat="46.49688" lon="-1.79625">
        <ele>3.5</ele>
        <time>2021-09-25T13:40:33Z</time>
      </trkpt>
      <trkpt lat="46.49688" lon="-1.79625">
        <ele>3.5</ele>
        <time>2021-09-25T13:40:34Z</time>
      </trkpt>
      <trkpt lat="46.49688" lon="-1.79625">
        <ele>3.5</ele>
        <time>2021-09-25T13:40:35Z</time>
      </trkpt>
      <trkpt lat="46.49688" lon="-1.79625">
        <ele>3.5</ele>
        <time>2021-09-25T13:40:36Z</time>
      </trkpt>
      <trkpt lat="46.49688" lon="-1.79625">
        <ele>3.5</ele>
        <time>2021-09-25T13:40:37Z</time>
      </trkpt>
      <trkpt lat="46.49688" lon="-1.79625">
        <ele>3.5</ele>
        <time>2021-09-25T13:40:38Z</time>
      </trkpt>
      <trkpt lat="46.49688" lon="-1.79625">
        <ele>3.5</ele>
        <time>2021-09-25T13:40:39Z</time>
      </trkpt>
      <trkpt lat="46.49688" lon="-1.79625">
        <ele>3.5</ele>
        <time>2021-09-25T13:40:40Z</time>
      </trkpt>
      <trkpt lat="46.49688" lon="-1.79625">
        <ele>3.5</ele>
        <time>2021-09-25T13:40:41Z</time>
      </trkpt>
      <trkpt lat="46.49689" lon="-1.79625">
        <ele>3.5</ele>
        <time>2021-09-25T13:40:42Z</time>
      </trkpt>
      <trkpt lat="46.49689" lon="-1.79626">
        <ele>3.5</ele>
        <time>2021-09-25T13:40:43Z</time>
      </trkpt>
      <trkpt lat="46.49689" lon="-1.79626">
        <ele>3.5</ele>
        <time>2021-09-25T13:40:44Z</time>
      </trkpt>
      <trkpt lat="46.49689" lon="-1.79626">
        <ele>3.5</ele>
        <time>2021-09-25T13:40:45Z</time>
      </trkpt>
      <trkpt lat="46.49689" lon="-1.79626">
        <ele>3.5</ele>
        <time>2021-09-25T13:40:46Z</time>
      </trkpt>
      <trkpt lat="46.49689" lon="-1.79626">
        <ele>3.5</ele>
        <time>2021-09-25T13:40:47Z</time>
      </trkpt>
      <trkpt lat="46.49689" lon="-1.79626">
        <ele>3.5</ele>
        <time>2021-09-25T13:40:48Z</time>
      </trkpt>
      <trkpt lat="46.49689" lon="-1.79626">
        <ele>3.5</ele>
        <time>2021-09-25T13:40:49Z</time>
      </trkpt>
      <trkpt lat="46.49689" lon="-1.79626">
        <ele>3.5</ele>
        <time>2021-09-25T13:40:50Z</time>
      </trkpt>
      <trkpt lat="46.49689" lon="-1.79626">
        <ele>3.5</ele>
        <time>2021-09-25T13:40:51Z</time>
      </trkpt>
      <trkpt lat="46.49689" lon="-1.79626">
        <ele>3.5</ele>
        <time>2021-09-25T13:40:52Z</time>
      </trkpt>
      <trkpt lat="46.49689" lon="-1.79626">
        <ele>3.5</ele>
        <time>2021-09-25T13:40:53Z</time>
      </trkpt>
      <trkpt lat="46.49689" lon="-1.79626">
        <ele>3.5</ele>
        <time>2021-09-25T13:40:54Z</time>
      </trkpt>
      <trkpt lat="46.49689" lon="-1.79626">
        <ele>3.5</ele>
        <time>2021-09-25T13:40:55Z</time>
      </trkpt>
      <trkpt lat="46.49689" lon="-1.79626">
        <ele>3.5</ele>
        <time>2021-09-25T13:40:56Z</time>
      </trkpt>
      <trkpt lat="46.49689" lon="-1.79626">
        <ele>3.5</ele>
        <time>2021-09-25T13:40:57Z</time>
      </trkpt>
      <trkpt lat="46.49689" lon="-1.79626">
        <ele>3.5</ele>
        <time>2021-09-25T13:40:58Z</time>
      </trkpt>
      <trkpt lat="46.49689" lon="-1.79626">
        <ele>3.5</ele>
        <time>2021-09-25T13:40:59Z</time>
      </trkpt>
      <trkpt lat="46.49689" lon="-1.79626">
        <ele>3.5</ele>
        <time>2021-09-25T13:41:00Z</time>
      </trkpt>
      <trkpt lat="46.49689" lon="-1.79626">
        <ele>3.4</ele>
        <time>2021-09-25T13:41:01Z</time>
      </trkpt>
      <trkpt lat="46.49689" lon="-1.79626">
        <ele>3.4</ele>
        <time>2021-09-25T13:41:02Z</time>
      </trkpt>
      <trkpt lat="46.49689" lon="-1.79626">
        <ele>3.4</ele>
        <time>2021-09-25T13:41:03Z</time>
      </trkpt>
      <trkpt lat="46.49689" lon="-1.79626">
        <ele>3.4</ele>
        <time>2021-09-25T13:41:04Z</time>
      </trkpt>
      <trkpt lat="46.4969" lon="-1.79626">
        <ele>3.4</ele>
        <time>2021-09-25T13:41:05Z</time>
      </trkpt>
      <trkpt lat="46.4969" lon="-1.79626">
        <ele>3.4</ele>
        <time>2021-09-25T13:41:06Z</time>
      </trkpt>
      <trkpt lat="46.4969" lon="-1.79626">
        <ele>3.4</ele>
        <time>2021-09-25T13:41:07Z</time>
      </trkpt>
      <trkpt lat="46.4969" lon="-1.79626">
        <ele>3.4</ele>
        <time>2021-09-25T13:41:08Z</time>
      </trkpt>
      <trkpt lat="46.4969" lon="-1.79626">
        <ele>3.4</ele>
        <time>2021-09-25T13:41:09Z</time>
      </trkpt>
      <trkpt lat="46.4969" lon="-1.79626">
        <ele>3.4</ele>
        <time>2021-09-25T13:41:10Z</time>
      </trkpt>
      <trkpt lat="46.4969" lon="-1.79626">
        <ele>3.4</ele>
        <time>2021-09-25T13:41:11Z</time>
      </trkpt>
      <trkpt lat="46.4969" lon="-1.79626">
        <ele>3.4</ele>
        <time>2021-09-25T13:41:12Z</time>
      </trkpt>
      <trkpt lat="46.4969" lon="-1.79626">
        <ele>3.4</ele>
        <time>2021-09-25T13:41:13Z</time>
      </trkpt>
      <trkpt lat="46.4969" lon="-1.79626">
        <ele>3.4</ele>
        <time>2021-09-25T13:41:14Z</time>
      </trkpt>
      <trkpt lat="46.4969" lon="-1.79626">
        <ele>3.4</ele>
        <time>2021-09-25T13:41:15Z</time>
      </trkpt>
      <trkpt lat="46.4969" lon="-1.79626">
        <ele>3.4</ele>
        <time>2021-09-25T13:41:16Z</time>
      </trkpt>
      <trkpt lat="46.4969" lon="-1.79626">
        <ele>3.4</ele>
        <time>2021-09-25T13:41:17Z</time>
      </trkpt>
      <trkpt lat="46.4969" lon="-1.79626">
        <ele>3.4</ele>
        <time>2021-09-25T13:41:18Z</time>
      </trkpt>
      <trkpt lat="46.4969" lon="-1.79626">
        <ele>3.4</ele>
        <time>2021-09-25T13:41:19Z</time>
      </trkpt>
      <trkpt lat="46.4969" lon="-1.79626">
        <ele>3.4</ele>
        <time>2021-09-25T13:41:20Z</time>
      </trkpt>
      <trkpt lat="46.4969" lon="-1.79626">
        <ele>3.4</ele>
        <time>2021-09-25T13:41:21Z</time>
      </trkpt>
      <trkpt lat="46.4969" lon="-1.79626">
        <ele>3.4</ele>
        <time>2021-09-25T13:41:22Z</time>
      </trkpt>
      <trkpt lat="46.4969" lon="-1.79626">
        <ele>3.4</ele>
        <time>2021-09-25T13:41:23Z</time>
      </trkpt>
      <trkpt lat="46.4969" lon="-1.79626">
        <ele>3.4</ele>
        <time>2021-09-25T13:41:24Z</time>
      </trkpt>
      <trkpt lat="46.4969" lon="-1.79626">
        <ele>3.4</ele>
        <time>2021-09-25T13:41:25Z</time>
      </trkpt>
      <trkpt lat="46.4969" lon="-1.79626">
        <ele>3.4</ele>
        <time>2021-09-25T13:41:26Z</time>
      </trkpt>
      <trkpt lat="46.4969" lon="-1.79626">
        <ele>3.4</ele>
        <time>2021-09-25T13:41:27Z</time>
      </trkpt>
      <trkpt lat="46.49691" lon="-1.79626">
        <ele>3.4</ele>
        <time>2021-09-25T13:41:28Z</time>
      </trkpt>
      <trkpt lat="46.49691" lon="-1.79626">
        <ele>3.4</ele>
        <time>2021-09-25T13:41:29Z</time>
      </trkpt>
      <trkpt lat="46.49691" lon="-1.79626">
        <ele>3.4</ele>
        <time>2021-09-25T13:41:30Z</time>
      </trkpt>
      <trkpt lat="46.49691" lon="-1.79626">
        <ele>3.4</ele>
        <time>2021-09-25T13:41:31Z</time>
      </trkpt>
      <trkpt lat="46.49691" lon="-1.79626">
        <ele>3.4</ele>
        <time>2021-09-25T13:41:32Z</time>
      </trkpt>
      <trkpt lat="46.49691" lon="-1.79626">
        <ele>3.4</ele>
        <time>2021-09-25T13:41:33Z</time>
      </trkpt>
      <trkpt lat="46.49691" lon="-1.79626">
        <ele>3.4</ele>
        <time>2021-09-25T13:41:34Z</time>
      </trkpt>
      <trkpt lat="46.49691" lon="-1.79626">
        <ele>3.4</ele>
        <time>2021-09-25T13:41:35Z</time>
      </trkpt>
      <trkpt lat="46.49691" lon="-1.79626">
        <ele>3.4</ele>
        <time>2021-09-25T13:41:36Z</time>
      </trkpt>
      <trkpt lat="46.49691" lon="-1.79626">
        <ele>3.4</ele>
        <time>2021-09-25T13:41:37Z</time>
      </trkpt>
      <trkpt lat="46.49691" lon="-1.79626">
        <ele>3.3</ele>
        <time>2021-09-25T13:41:38Z</time>
      </trkpt>
      <trkpt lat="46.49691" lon="-1.79626">
        <ele>3.3</ele>
        <time>2021-09-25T13:41:39Z</time>
      </trkpt>
      <trkpt lat="46.49691" lon="-1.79626">
        <ele>3.3</ele>
        <time>2021-09-25T13:41:40Z</time>
      </trkpt>
      <trkpt lat="46.49691" lon="-1.79626">
        <ele>3.3</ele>
        <time>2021-09-25T13:41:41Z</time>
      </trkpt>
      <trkpt lat="46.49691" lon="-1.79626">
        <ele>3.3</ele>
        <time>2021-09-25T13:41:42Z</time>
      </trkpt>
      <trkpt lat="46.49691" lon="-1.79626">
        <ele>3.3</ele>
        <time>2021-09-25T13:41:43Z</time>
      </trkpt>
      <trkpt lat="46.49691" lon="-1.79626">
        <ele>3.3</ele>
        <time>2021-09-25T13:41:44Z</time>
      </trkpt>
      <trkpt lat="46.49691" lon="-1.79626">
        <ele>3.3</ele>
        <time>2021-09-25T13:41:45Z</time>
      </trkpt>
      <trkpt lat="46.49691" lon="-1.79626">
        <ele>3.3</ele>
        <time>2021-09-25T13:41:46Z</time>
      </trkpt>
      <trkpt lat="46.49691" lon="-1.79626">
        <ele>3.3</ele>
        <time>2021-09-25T13:41:47Z</time>
      </trkpt>
      <trkpt lat="46.49691" lon="-1.79626">
        <ele>3.3</ele>
        <time>2021-09-25T13:41:48Z</time>
      </trkpt>
      <trkpt lat="46.49691" lon="-1.79626">
        <ele>3.3</ele>
        <time>2021-09-25T13:41:49Z</time>
      </trkpt>
      <trkpt lat="46.49691" lon="-1.79626">
        <ele>3.3</ele>
        <time>2021-09-25T13:41:50Z</time>
      </trkpt>
      <trkpt lat="46.49692" lon="-1.79626">
        <ele>3.3</ele>
        <time>2021-09-25T13:41:51Z</time>
      </trkpt>
      <trkpt lat="46.49692" lon="-1.79626">
        <ele>3.3</ele>
        <time>2021-09-25T13:41:52Z</time>
      </trkpt>
      <trkpt lat="46.49692" lon="-1.79626">
        <ele>3.3</ele>
        <time>2021-09-25T13:41:53Z</time>
      </trkpt>
      <trkpt lat="46.49692" lon="-1.79626">
        <ele>3.3</ele>
        <time>2021-09-25T13:41:54Z</time>
      </trkpt>
      <trkpt lat="46.49692" lon="-1.79626">
        <ele>3.3</ele>
        <time>2021-09-25T13:41:55Z</time>
      </trkpt>
      <trkpt lat="46.49692" lon="-1.79626">
        <ele>3.3</ele>
        <time>2021-09-25T13:41:56Z</time>
      </trkpt>
      <trkpt lat="46.49692" lon="-1.79626">
        <ele>3.3</ele>
        <time>2021-09-25T13:41:57Z</time>
      </trkpt>
      <trkpt lat="46.49692" lon="-1.79626">
        <ele>3.3</ele>
        <time>2021-09-25T13:41:58Z</time>
      </trkpt>
      <trkpt lat="46.49692" lon="-1.79626">
        <ele>3.3</ele>
        <time>2021-09-25T13:41:59Z</time>
      </trkpt>
      <trkpt lat="46.49692" lon="-1.79626">
        <ele>3.3</ele>
        <time>2021-09-25T13:42:00Z</time>
      </trkpt>
      <trkpt lat="46.49692" lon="-1.79626">
        <ele>3.3</ele>
        <time>2021-09-25T13:42:01Z</time>
      </trkpt>
      <trkpt lat="46.49692" lon="-1.79626">
        <ele>3.3</ele>
        <time>2021-09-25T13:42:02Z</time>
      </trkpt>
      <trkpt lat="46.49692" lon="-1.79626">
        <ele>3.3</ele>
        <time>2021-09-25T13:42:03Z</time>
      </trkpt>
      <trkpt lat="46.49692" lon="-1.79626">
        <ele>3.3</ele>
        <time>2021-09-25T13:42:04Z</time>
      </trkpt>
      <trkpt lat="46.49692" lon="-1.79626">
        <ele>3.3</ele>
        <time>2021-09-25T13:42:05Z</time>
      </trkpt>
      <trkpt lat="46.49692" lon="-1.79626">
        <ele>3.3</ele>
        <time>2021-09-25T13:42:06Z</time>
      </trkpt>
      <trkpt lat="46.49692" lon="-1.79626">
        <ele>3.3</ele>
        <time>2021-09-25T13:42:07Z</time>
      </trkpt>
      <trkpt lat="46.49692" lon="-1.79626">
        <ele>3.3</ele>
        <time>2021-09-25T13:42:08Z</time>
      </trkpt>
      <trkpt lat="46.49692" lon="-1.79626">
        <ele>3.3</ele>
        <time>2021-09-25T13:42:09Z</time>
      </trkpt>
      <trkpt lat="46.49692" lon="-1.79626">
        <ele>3.2</ele>
        <time>2021-09-25T13:42:10Z</time>
      </trkpt>
      <trkpt lat="46.49692" lon="-1.79626">
        <ele>3.2</ele>
        <time>2021-09-25T13:42:11Z</time>
      </trkpt>
      <trkpt lat="46.49692" lon="-1.79626">
        <ele>3.2</ele>
        <time>2021-09-25T13:42:12Z</time>
      </trkpt>
      <trkpt lat="46.49692" lon="-1.79626">
        <ele>3.2</ele>
        <time>2021-09-25T13:42:13Z</time>
      </trkpt>
      <trkpt lat="46.49693" lon="-1.79626">
        <ele>3.1</ele>
        <time>2021-09-25T13:42:14Z</time>
      </trkpt>
      <trkpt lat="46.49693" lon="-1.79626">
        <ele>3.1</ele>
        <time>2021-09-25T13:42:15Z</time>
      </trkpt>
      <trkpt lat="46.49693" lon="-1.79626">
        <ele>3.1</ele>
        <time>2021-09-25T13:42:16Z</time>
      </trkpt>
      <trkpt lat="46.49693" lon="-1.79626">
        <ele>3.1</ele>
        <time>2021-09-25T13:42:17Z</time>
      </trkpt>
      <trkpt lat="46.49693" lon="-1.79626">
        <ele>3.1</ele>
        <time>2021-09-25T13:42:18Z</time>
      </trkpt>
      <trkpt lat="46.49693" lon="-1.79626">
        <ele>3.1</ele>
        <time>2021-09-25T13:42:19Z</time>
      </trkpt>
      <trkpt lat="46.49693" lon="-1.79626">
        <ele>3.1</ele>
        <time>2021-09-25T13:42:20Z</time>
      </trkpt>
      <trkpt lat="46.49693" lon="-1.79626">
        <ele>3</ele>
        <time>2021-09-25T13:42:21Z</time>
      </trkpt>
      <trkpt lat="46.49693" lon="-1.79626">
        <ele>3</ele>
        <time>2021-09-25T13:42:22Z</time>
      </trkpt>
      <trkpt lat="46.49693" lon="-1.79626">
        <ele>3</ele>
        <time>2021-09-25T13:42:23Z</time>
      </trkpt>
      <trkpt lat="46.49693" lon="-1.79626">
        <ele>3</ele>
        <time>2021-09-25T13:42:24Z</time>
      </trkpt>
      <trkpt lat="46.49693" lon="-1.79626">
        <ele>3</ele>
        <time>2021-09-25T13:42:25Z</time>
      </trkpt>
      <trkpt lat="46.49693" lon="-1.79626">
        <ele>3</ele>
        <time>2021-09-25T13:42:26Z</time>
      </trkpt>
      <trkpt lat="46.49693" lon="-1.79626">
        <ele>3</ele>
        <time>2021-09-25T13:42:27Z</time>
      </trkpt>
      <trkpt lat="46.49693" lon="-1.79626">
        <ele>3</ele>
        <time>2021-09-25T13:42:28Z</time>
      </trkpt>
      <trkpt lat="46.49693" lon="-1.79626">
        <ele>3</ele>
        <time>2021-09-25T13:42:29Z</time>
      </trkpt>
      <trkpt lat="46.49693" lon="-1.79626">
        <ele>3</ele>
        <time>2021-09-25T13:42:30Z</time>
      </trkpt>
      <trkpt lat="46.49693" lon="-1.79626">
        <ele>3</ele>
        <time>2021-09-25T13:42:31Z</time>
      </trkpt>
      <trkpt lat="46.49693" lon="-1.79626">
        <ele>2.9</ele>
        <time>2021-09-25T13:42:32Z</time>
      </trkpt>
      <trkpt lat="46.49693" lon="-1.79626">
        <ele>2.9</ele>
        <time>2021-09-25T13:42:33Z</time>
      </trkpt>
      <trkpt lat="46.49693" lon="-1.79626">
        <ele>2.9</ele>
        <time>2021-09-25T13:42:34Z</time>
      </trkpt>
      <trkpt lat="46.49693" lon="-1.79626">
        <ele>2.9</ele>
        <time>2021-09-25T13:42:35Z</time>
      </trkpt>
      <trkpt lat="46.49693" lon="-1.79626">
        <ele>2.9</ele>
        <time>2021-09-25T13:42:36Z</time>
      </trkpt>
      <trkpt lat="46.49694" lon="-1.79626">
        <ele>2.9</ele>
        <time>2021-09-25T13:42:37Z</time>
      </trkpt>
      <trkpt lat="46.49694" lon="-1.79626">
        <ele>2.9</ele>
        <time>2021-09-25T13:42:38Z</time>
      </trkpt>
      <trkpt lat="46.49694" lon="-1.79626">
        <ele>2.9</ele>
        <time>2021-09-25T13:42:39Z</time>
      </trkpt>
      <trkpt lat="46.49694" lon="-1.79626">
        <ele>2.9</ele>
        <time>2021-09-25T13:42:40Z</time>
      </trkpt>
      <trkpt lat="46.49694" lon="-1.79626">
        <ele>2.9</ele>
        <time>2021-09-25T13:42:41Z</time>
      </trkpt>
      <trkpt lat="46.49694" lon="-1.79626">
        <ele>2.9</ele>
        <time>2021-09-25T13:42:42Z</time>
      </trkpt>
      <trkpt lat="46.49694" lon="-1.79626">
        <ele>2.8</ele>
        <time>2021-09-25T13:42:43Z</time>
      </trkpt>
      <trkpt lat="46.49694" lon="-1.79626">
        <ele>2.8</ele>
        <time>2021-09-25T13:42:44Z</time>
      </trkpt>
      <trkpt lat="46.49694" lon="-1.79626">
        <ele>2.8</ele>
        <time>2021-09-25T13:42:45Z</time>
      </trkpt>
      <trkpt lat="46.49694" lon="-1.79626">
        <ele>2.8</ele>
        <time>2021-09-25T13:42:46Z</time>
      </trkpt>
      <trkpt lat="46.49694" lon="-1.79626">
        <ele>2.8</ele>
        <time>2021-09-25T13:42:47Z</time>
      </trkpt>
      <trkpt lat="46.49694" lon="-1.79626">
        <ele>2.8</ele>
        <time>2021-09-25T13:42:48Z</time>
      </trkpt>
      <trkpt lat="46.49694" lon="-1.79626">
        <ele>2.8</ele>
        <time>2021-09-25T13:42:49Z</time>
      </trkpt>
      <trkpt lat="46.49694" lon="-1.79626">
        <ele>2.8</ele>
        <time>2021-09-25T13:42:50Z</time>
      </trkpt>
      <trkpt lat="46.49694" lon="-1.79626">
        <ele>2.7</ele>
        <time>2021-09-25T13:42:51Z</time>
      </trkpt>
      <trkpt lat="46.49694" lon="-1.79626">
        <ele>2.7</ele>
        <time>2021-09-25T13:42:52Z</time>
      </trkpt>
      <trkpt lat="46.49694" lon="-1.79626">
        <ele>2.7</ele>
        <time>2021-09-25T13:42:53Z</time>
      </trkpt>
      <trkpt lat="46.49694" lon="-1.79626">
        <ele>2.7</ele>
        <time>2021-09-25T13:42:54Z</time>
      </trkpt>
      <trkpt lat="46.49694" lon="-1.79626">
        <ele>2.7</ele>
        <time>2021-09-25T13:42:55Z</time>
      </trkpt>
      <trkpt lat="46.49694" lon="-1.79626">
        <ele>2.7</ele>
        <time>2021-09-25T13:42:56Z</time>
      </trkpt>
      <trkpt lat="46.49694" lon="-1.79626">
        <ele>2.7</ele>
        <time>2021-09-25T13:42:57Z</time>
      </trkpt>
      <trkpt lat="46.49694" lon="-1.79626">
        <ele>2.7</ele>
        <time>2021-09-25T13:42:58Z</time>
      </trkpt>
      <trkpt lat="46.49694" lon="-1.79626">
        <ele>2.7</ele>
        <time>2021-09-25T13:42:59Z</time>
      </trkpt>
      <trkpt lat="46.49695" lon="-1.79626">
        <ele>2.7</ele>
        <time>2021-09-25T13:43:00Z</time>
      </trkpt>
      <trkpt lat="46.49695" lon="-1.79626">
        <ele>2.6</ele>
        <time>2021-09-25T13:43:01Z</time>
      </trkpt>
      <trkpt lat="46.49695" lon="-1.79626">
        <ele>2.6</ele>
        <time>2021-09-25T13:43:02Z</time>
      </trkpt>
      <trkpt lat="46.49695" lon="-1.79626">
        <ele>2.6</ele>
        <time>2021-09-25T13:43:03Z</time>
      </trkpt>
      <trkpt lat="46.49695" lon="-1.79626">
        <ele>2.6</ele>
        <time>2021-09-25T13:43:04Z</time>
      </trkpt>
      <trkpt lat="46.49695" lon="-1.79626">
        <ele>2.6</ele>
        <time>2021-09-25T13:43:05Z</time>
      </trkpt>
      <trkpt lat="46.49695" lon="-1.79626">
        <ele>2.6</ele>
        <time>2021-09-25T13:43:06Z</time>
      </trkpt>
      <trkpt lat="46.49695" lon="-1.79626">
        <ele>2.6</ele>
        <time>2021-09-25T13:43:07Z</time>
      </trkpt>
      <trkpt lat="46.49695" lon="-1.79626">
        <ele>2.6</ele>
        <time>2021-09-25T13:43:08Z</time>
      </trkpt>
      <trkpt lat="46.49695" lon="-1.79626">
        <ele>2.6</ele>
        <time>2021-09-25T13:43:09Z</time>
      </trkpt>
      <trkpt lat="46.49695" lon="-1.79626">
        <ele>2.6</ele>
        <time>2021-09-25T13:43:10Z</time>
      </trkpt>
      <trkpt lat="46.49695" lon="-1.79626">
        <ele>2.6</ele>
        <time>2021-09-25T13:43:11Z</time>
      </trkpt>
      <trkpt lat="46.49695" lon="-1.79626">
        <ele>2.6</ele>
        <time>2021-09-25T13:43:12Z</time>
      </trkpt>
      <trkpt lat="46.49695" lon="-1.79626">
        <ele>2.5</ele>
        <time>2021-09-25T13:43:13Z</time>
      </trkpt>
      <trkpt lat="46.49695" lon="-1.79626">
        <ele>2.5</ele>
        <time>2021-09-25T13:43:14Z</time>
      </trkpt>
      <trkpt lat="46.49695" lon="-1.79626">
        <ele>2.5</ele>
        <time>2021-09-25T13:43:15Z</time>
      </trkpt>
      <trkpt lat="46.49695" lon="-1.79626">
        <ele>2.5</ele>
        <time>2021-09-25T13:43:16Z</time>
      </trkpt>
      <trkpt lat="46.49695" lon="-1.79626">
        <ele>2.5</ele>
        <time>2021-09-25T13:43:17Z</time>
      </trkpt>
      <trkpt lat="46.49695" lon="-1.79626">
        <ele>2.5</ele>
        <time>2021-09-25T13:43:18Z</time>
      </trkpt>
      <trkpt lat="46.49695" lon="-1.79626">
        <ele>2.5</ele>
        <time>2021-09-25T13:43:19Z</time>
      </trkpt>
      <trkpt lat="46.49695" lon="-1.79626">
        <ele>2.5</ele>
        <time>2021-09-25T13:43:20Z</time>
      </trkpt>
      <trkpt lat="46.49695" lon="-1.79626">
        <ele>2.5</ele>
        <time>2021-09-25T13:43:21Z</time>
      </trkpt>
      <trkpt lat="46.49695" lon="-1.79626">
        <ele>2.5</ele>
        <time>2021-09-25T13:43:22Z</time>
      </trkpt>
      <trkpt lat="46.49696" lon="-1.79626">
        <ele>2.5</ele>
        <time>2021-09-25T13:43:23Z</time>
      </trkpt>
      <trkpt lat="46.49696" lon="-1.79626">
        <ele>2.5</ele>
        <time>2021-09-25T13:43:24Z</time>
      </trkpt>
      <trkpt lat="46.49696" lon="-1.79626">
        <ele>2.5</ele>
        <time>2021-09-25T13:43:25Z</time>
      </trkpt>
      <trkpt lat="46.49696" lon="-1.79626">
        <ele>2.4</ele>
        <time>2021-09-25T13:43:26Z</time>
      </trkpt>
      <trkpt lat="46.49696" lon="-1.79626">
        <ele>2.4</ele>
        <time>2021-09-25T13:43:27Z</time>
      </trkpt>
      <trkpt lat="46.49696" lon="-1.79626">
        <ele>2.4</ele>
        <time>2021-09-25T13:43:28Z</time>
      </trkpt>
      <trkpt lat="46.49696" lon="-1.79626">
        <ele>2.4</ele>
        <time>2021-09-25T13:43:29Z</time>
      </trkpt>
      <trkpt lat="46.49696" lon="-1.79626">
        <ele>2.4</ele>
        <time>2021-09-25T13:43:30Z</time>
      </trkpt>
      <trkpt lat="46.49696" lon="-1.79626">
        <ele>2.4</ele>
        <time>2021-09-25T13:43:31Z</time>
      </trkpt>
      <trkpt lat="46.49696" lon="-1.79626">
        <ele>2.4</ele>
        <time>2021-09-25T13:43:32Z</time>
      </trkpt>
      <trkpt lat="46.49696" lon="-1.79626">
        <ele>2.4</ele>
        <time>2021-09-25T13:43:33Z</time>
      </trkpt>
      <trkpt lat="46.49696" lon="-1.79626">
        <ele>2.4</ele>
        <time>2021-09-25T13:43:34Z</time>
      </trkpt>
      <trkpt lat="46.49696" lon="-1.79626">
        <ele>2.4</ele>
        <time>2021-09-25T13:43:35Z</time>
      </trkpt>
      <trkpt lat="46.49696" lon="-1.79626">
        <ele>2.4</ele>
        <time>2021-09-25T13:43:36Z</time>
      </trkpt>
      <trkpt lat="46.49696" lon="-1.79626">
        <ele>2.3</ele>
        <time>2021-09-25T13:43:37Z</time>
      </trkpt>
      <trkpt lat="46.49696" lon="-1.79626">
        <ele>2.3</ele>
        <time>2021-09-25T13:43:38Z</time>
      </trkpt>
      <trkpt lat="46.49696" lon="-1.79626">
        <ele>2.3</ele>
        <time>2021-09-25T13:43:39Z</time>
      </trkpt>
      <trkpt lat="46.49696" lon="-1.79626">
        <ele>2.3</ele>
        <time>2021-09-25T13:43:40Z</time>
      </trkpt>
      <trkpt lat="46.49696" lon="-1.79626">
        <ele>2.3</ele>
        <time>2021-09-25T13:43:41Z</time>
      </trkpt>
      <trkpt lat="46.49696" lon="-1.79626">
        <ele>2.3</ele>
        <time>2021-09-25T13:43:42Z</time>
      </trkpt>
      <trkpt lat="46.49696" lon="-1.79626">
        <ele>2.3</ele>
        <time>2021-09-25T13:43:43Z</time>
      </trkpt>
      <trkpt lat="46.49696" lon="-1.79626">
        <ele>2.3</ele>
        <time>2021-09-25T13:43:44Z</time>
      </trkpt>
      <trkpt lat="46.49696" lon="-1.79626">
        <ele>2.3</ele>
        <time>2021-09-25T13:43:45Z</time>
      </trkpt>
      <trkpt lat="46.49697" lon="-1.79626">
        <ele>2.3</ele>
        <time>2021-09-25T13:43:46Z</time>
      </trkpt>
      <trkpt lat="46.49697" lon="-1.79626">
        <ele>2.3</ele>
        <time>2021-09-25T13:43:47Z</time>
      </trkpt>
      <trkpt lat="46.49697" lon="-1.79626">
        <ele>2.3</ele>
        <time>2021-09-25T13:43:48Z</time>
      </trkpt>
      <trkpt lat="46.49697" lon="-1.79626">
        <ele>2.3</ele>
        <time>2021-09-25T13:43:49Z</time>
      </trkpt>
      <trkpt lat="46.49697" lon="-1.79626">
        <ele>2.3</ele>
        <time>2021-09-25T13:43:50Z</time>
      </trkpt>
      <trkpt lat="46.49697" lon="-1.79626">
        <ele>2.3</ele>
        <time>2021-09-25T13:43:51Z</time>
      </trkpt>
      <trkpt lat="46.49697" lon="-1.79626">
        <ele>2.3</ele>
        <time>2021-09-25T13:43:52Z</time>
      </trkpt>
      <trkpt lat="46.49697" lon="-1.79626">
        <ele>2.3</ele>
        <time>2021-09-25T13:43:53Z</time>
      </trkpt>
      <trkpt lat="46.49697" lon="-1.79626">
        <ele>2.3</ele>
        <time>2021-09-25T13:43:54Z</time>
      </trkpt>
      <trkpt lat="46.49697" lon="-1.79626">
        <ele>2.3</ele>
        <time>2021-09-25T13:43:55Z</time>
      </trkpt>
      <trkpt lat="46.49697" lon="-1.79626">
        <ele>2.3</ele>
        <time>2021-09-25T13:43:56Z</time>
      </trkpt>
      <trkpt lat="46.49697" lon="-1.79626">
        <ele>2.3</ele>
        <time>2021-09-25T13:43:57Z</time>
      </trkpt>
      <trkpt lat="46.49697" lon="-1.79626">
        <ele>2.3</ele>
        <time>2021-09-25T13:43:58Z</time>
      </trkpt>
      <trkpt lat="46.49697" lon="-1.79626">
        <ele>2.3</ele>
        <time>2021-09-25T13:43:59Z</time>
      </trkpt>
      <trkpt lat="46.49697" lon="-1.79626">
        <ele>2.3</ele>
        <time>2021-09-25T13:44:00Z</time>
      </trkpt>
      <trkpt lat="46.49697" lon="-1.79626">
        <ele>2.3</ele>
        <time>2021-09-25T13:44:01Z</time>
      </trkpt>
      <trkpt lat="46.49697" lon="-1.79626">
        <ele>2.3</ele>
        <time>2021-09-25T13:44:02Z</time>
      </trkpt>
      <trkpt lat="46.49697" lon="-1.79626">
        <ele>2.3</ele>
        <time>2021-09-25T13:44:03Z</time>
      </trkpt>
      <trkpt lat="46.49697" lon="-1.79626">
        <ele>2.3</ele>
        <time>2021-09-25T13:44:04Z</time>
      </trkpt>
      <trkpt lat="46.49697" lon="-1.79626">
        <ele>2.3</ele>
        <time>2021-09-25T13:44:05Z</time>
      </trkpt>
      <trkpt lat="46.49697" lon="-1.79626">
        <ele>2.3</ele>
        <time>2021-09-25T13:44:06Z</time>
      </trkpt>
      <trkpt lat="46.49697" lon="-1.79626">
        <ele>2.3</ele>
        <time>2021-09-25T13:44:07Z</time>
      </trkpt>
      <trkpt lat="46.49697" lon="-1.79626">
        <ele>2.3</ele>
        <time>2021-09-25T13:44:08Z</time>
      </trkpt>
      <trkpt lat="46.49698" lon="-1.79626">
        <ele>2.3</ele>
        <time>2021-09-25T13:44:09Z</time>
      </trkpt>
      <trkpt lat="46.49698" lon="-1.79626">
        <ele>2.3</ele>
        <time>2021-09-25T13:44:10Z</time>
      </trkpt>
      <trkpt lat="46.49698" lon="-1.79626">
        <ele>2.3</ele>
        <time>2021-09-25T13:44:11Z</time>
      </trkpt>
      <trkpt lat="46.49698" lon="-1.79626">
        <ele>2.3</ele>
        <time>2021-09-25T13:44:12Z</time>
      </trkpt>
      <trkpt lat="46.49698" lon="-1.79626">
        <ele>2.3</ele>
        <time>2021-09-25T13:44:13Z</time>
      </trkpt>
      <trkpt lat="46.49698" lon="-1.79626">
        <ele>2.3</ele>
        <time>2021-09-25T13:44:14Z</time>
      </trkpt>
      <trkpt lat="46.49698" lon="-1.79626">
        <ele>2.3</ele>
        <time>2021-09-25T13:44:15Z</time>
      </trkpt>
      <trkpt lat="46.49698" lon="-1.79626">
        <ele>2.3</ele>
        <time>2021-09-25T13:44:16Z</time>
      </trkpt>
      <trkpt lat="46.49698" lon="-1.79626">
        <ele>2.3</ele>
        <time>2021-09-25T13:44:17Z</time>
      </trkpt>
      <trkpt lat="46.49698" lon="-1.79626">
        <ele>2.3</ele>
        <time>2021-09-25T13:44:18Z</time>
      </trkpt>
      <trkpt lat="46.49698" lon="-1.79626">
        <ele>2.3</ele>
        <time>2021-09-25T13:44:19Z</time>
      </trkpt>
      <trkpt lat="46.49698" lon="-1.79626">
        <ele>2.2</ele>
        <time>2021-09-25T13:44:20Z</time>
      </trkpt>
      <trkpt lat="46.49698" lon="-1.79626">
        <ele>2.2</ele>
        <time>2021-09-25T13:44:21Z</time>
      </trkpt>
      <trkpt lat="46.49698" lon="-1.79626">
        <ele>2.2</ele>
        <time>2021-09-25T13:44:22Z</time>
      </trkpt>
      <trkpt lat="46.49698" lon="-1.79626">
        <ele>2.2</ele>
        <time>2021-09-25T13:44:23Z</time>
      </trkpt>
      <trkpt lat="46.49698" lon="-1.79626">
        <ele>2.2</ele>
        <time>2021-09-25T13:44:24Z</time>
      </trkpt>
      <trkpt lat="46.49698" lon="-1.79626">
        <ele>2.2</ele>
        <time>2021-09-25T13:44:25Z</time>
      </trkpt>
      <trkpt lat="46.49698" lon="-1.79626">
        <ele>2.2</ele>
        <time>2021-09-25T13:44:26Z</time>
      </trkpt>
      <trkpt lat="46.49698" lon="-1.79626">
        <ele>2.2</ele>
        <time>2021-09-25T13:44:27Z</time>
      </trkpt>
      <trkpt lat="46.49698" lon="-1.79626">
        <ele>2.2</ele>
        <time>2021-09-25T13:44:28Z</time>
      </trkpt>
      <trkpt lat="46.49698" lon="-1.79626">
        <ele>2.2</ele>
        <time>2021-09-25T13:44:29Z</time>
      </trkpt>
      <trkpt lat="46.49698" lon="-1.79626">
        <ele>2.2</ele>
        <time>2021-09-25T13:44:30Z</time>
      </trkpt>
      <trkpt lat="46.49698" lon="-1.79626">
        <ele>2.2</ele>
        <time>2021-09-25T13:44:31Z</time>
      </trkpt>
      <trkpt lat="46.49699" lon="-1.79626">
        <ele>2.2</ele>
        <time>2021-09-25T13:44:32Z</time>
      </trkpt>
      <trkpt lat="46.49699" lon="-1.79626">
        <ele>2.2</ele>
        <time>2021-09-25T13:44:33Z</time>
      </trkpt>
      <trkpt lat="46.49699" lon="-1.79626">
        <ele>2.2</ele>
        <time>2021-09-25T13:44:34Z</time>
      </trkpt>
      <trkpt lat="46.49699" lon="-1.79626">
        <ele>2.2</ele>
        <time>2021-09-25T13:44:35Z</time>
      </trkpt>
      <trkpt lat="46.49699" lon="-1.79626">
        <ele>2.2</ele>
        <time>2021-09-25T13:44:36Z</time>
      </trkpt>
      <trkpt lat="46.49699" lon="-1.79626">
        <ele>2.2</ele>
        <time>2021-09-25T13:44:37Z</time>
      </trkpt>
      <trkpt lat="46.497" lon="-1.79626">
        <ele>2.2</ele>
        <time>2021-09-25T13:44:38Z</time>
      </trkpt>
      <trkpt lat="46.497" lon="-1.79626">
        <ele>2.2</ele>
        <time>2021-09-25T13:44:39Z</time>
      </trkpt>
      <trkpt lat="46.497" lon="-1.79626">
        <ele>2.2</ele>
        <time>2021-09-25T13:44:40Z</time>
      </trkpt>
      <trkpt lat="46.49701" lon="-1.79626">
        <ele>2.2</ele>
        <time>2021-09-25T13:44:41Z</time>
      </trkpt>
      <trkpt lat="46.49701" lon="-1.79626">
        <ele>2.2</ele>
        <time>2021-09-25T13:44:42Z</time>
      </trkpt>
      <trkpt lat="46.49701" lon="-1.79626">
        <ele>2.2</ele>
        <time>2021-09-25T13:44:43Z</time>
      </trkpt>
      <trkpt lat="46.49701" lon="-1.79626">
        <ele>2.2</ele>
        <time>2021-09-25T13:44:44Z</time>
      </trkpt>
      <trkpt lat="46.49701" lon="-1.79626">
        <ele>2.2</ele>
        <time>2021-09-25T13:44:45Z</time>
      </trkpt>
      <trkpt lat="46.49701" lon="-1.79626">
        <ele>2.2</ele>
        <time>2021-09-25T13:44:46Z</time>
      </trkpt>
      <trkpt lat="46.49701" lon="-1.79626">
        <ele>2.2</ele>
        <time>2021-09-25T13:44:47Z</time>
      </trkpt>
      <trkpt lat="46.49701" lon="-1.79626">
        <ele>2.2</ele>
        <time>2021-09-25T13:44:48Z</time>
      </trkpt>
      <trkpt lat="46.49701" lon="-1.79626">
        <ele>2.2</ele>
        <time>2021-09-25T13:44:49Z</time>
      </trkpt>
      <trkpt lat="46.49701" lon="-1.79626">
        <ele>2.2</ele>
        <time>2021-09-25T13:44:50Z</time>
      </trkpt>
      <trkpt lat="46.49701" lon="-1.79626">
        <ele>2.2</ele>
        <time>2021-09-25T13:44:51Z</time>
      </trkpt>
      <trkpt lat="46.49701" lon="-1.79626">
        <ele>2.2</ele>
        <time>2021-09-25T13:44:52Z</time>
      </trkpt>
      <trkpt lat="46.49701" lon="-1.79626">
        <ele>2.2</ele>
        <time>2021-09-25T13:44:53Z</time>
      </trkpt>
      <trkpt lat="46.49701" lon="-1.79626">
        <ele>2.2</ele>
        <time>2021-09-25T13:44:54Z</time>
      </trkpt>
      <trkpt lat="46.49701" lon="-1.79626">
        <ele>2.2</ele>
        <time>2021-09-25T13:44:55Z</time>
      </trkpt>
      <trkpt lat="46.49701" lon="-1.79626">
        <ele>2.2</ele>
        <time>2021-09-25T13:44:56Z</time>
      </trkpt>
      <trkpt lat="46.49701" lon="-1.79626">
        <ele>2.2</ele>
        <time>2021-09-25T13:44:57Z</time>
      </trkpt>
      <trkpt lat="46.49701" lon="-1.79626">
        <ele>2.2</ele>
        <time>2021-09-25T13:44:58Z</time>
      </trkpt>
      <trkpt lat="46.49701" lon="-1.79626">
        <ele>2.2</ele>
        <time>2021-09-25T13:44:59Z</time>
      </trkpt>
      <trkpt lat="46.49701" lon="-1.79626">
        <ele>2.2</ele>
        <time>2021-09-25T13:45:00Z</time>
      </trkpt>
      <trkpt lat="46.49701" lon="-1.79626">
        <ele>2.2</ele>
        <time>2021-09-25T13:45:01Z</time>
      </trkpt>
      <trkpt lat="46.49701" lon="-1.79626">
        <ele>2.2</ele>
        <time>2021-09-25T13:45:02Z</time>
      </trkpt>
      <trkpt lat="46.49701" lon="-1.79626">
        <ele>2.2</ele>
        <time>2021-09-25T13:45:03Z</time>
      </trkpt>
      <trkpt lat="46.49701" lon="-1.79626">
        <ele>2.2</ele>
        <time>2021-09-25T13:45:04Z</time>
      </trkpt>
      <trkpt lat="46.49701" lon="-1.79626">
        <ele>2.2</ele>
        <time>2021-09-25T13:45:05Z</time>
      </trkpt>
      <trkpt lat="46.49701" lon="-1.79626">
        <ele>2.2</ele>
        <time>2021-09-25T13:45:06Z</time>
      </trkpt>
      <trkpt lat="46.49701" lon="-1.79626">
        <ele>2.2</ele>
        <time>2021-09-25T13:45:07Z</time>
      </trkpt>
      <trkpt lat="46.49701" lon="-1.79626">
        <ele>2.2</ele>
        <time>2021-09-25T13:45:08Z</time>
      </trkpt>
      <trkpt lat="46.49701" lon="-1.79626">
        <ele>2.2</ele>
        <time>2021-09-25T13:45:09Z</time>
      </trkpt>
      <trkpt lat="46.49701" lon="-1.79626">
        <ele>2.2</ele>
        <time>2021-09-25T13:45:10Z</time>
      </trkpt>
      <trkpt lat="46.49701" lon="-1.79626">
        <ele>2.2</ele>
        <time>2021-09-25T13:45:11Z</time>
      </trkpt>
      <trkpt lat="46.49701" lon="-1.79626">
        <ele>2.2</ele>
        <time>2021-09-25T13:45:12Z</time>
      </trkpt>
      <trkpt lat="46.49701" lon="-1.79626">
        <ele>2.2</ele>
        <time>2021-09-25T13:45:13Z</time>
      </trkpt>
      <trkpt lat="46.49701" lon="-1.79626">
        <ele>2.2</ele>
        <time>2021-09-25T13:45:14Z</time>
      </trkpt>
      <trkpt lat="46.49701" lon="-1.79626">
        <ele>2.2</ele>
        <time>2021-09-25T13:45:15Z</time>
      </trkpt>
      <trkpt lat="46.49701" lon="-1.79626">
        <ele>2.2</ele>
        <time>2021-09-25T13:45:16Z</time>
      </trkpt>
      <trkpt lat="46.49701" lon="-1.79626">
        <ele>2.2</ele>
        <time>2021-09-25T13:45:17Z</time>
      </trkpt>
      <trkpt lat="46.49701" lon="-1.79626">
        <ele>2.2</ele>
        <time>2021-09-25T13:45:18Z</time>
      </trkpt>
      <trkpt lat="46.49701" lon="-1.79626">
        <ele>2.2</ele>
        <time>2021-09-25T13:45:19Z</time>
      </trkpt>
      <trkpt lat="46.49701" lon="-1.79626">
        <ele>2.2</ele>
        <time>2021-09-25T13:45:20Z</time>
      </trkpt>
      <trkpt lat="46.49701" lon="-1.79626">
        <ele>2.2</ele>
        <time>2021-09-25T13:45:21Z</time>
      </trkpt>
      <trkpt lat="46.49701" lon="-1.79626">
        <ele>2.2</ele>
        <time>2021-09-25T13:45:22Z</time>
      </trkpt>
      <trkpt lat="46.49701" lon="-1.79626">
        <ele>2.2</ele>
        <time>2021-09-25T13:45:23Z</time>
      </trkpt>
      <trkpt lat="46.49701" lon="-1.79626">
        <ele>2.2</ele>
        <time>2021-09-25T13:45:24Z</time>
      </trkpt>
      <trkpt lat="46.49701" lon="-1.79626">
        <ele>2.2</ele>
        <time>2021-09-25T13:45:25Z</time>
      </trkpt>
      <trkpt lat="46.49701" lon="-1.79626">
        <ele>2.2</ele>
        <time>2021-09-25T13:45:26Z</time>
      </trkpt>
      <trkpt lat="46.49701" lon="-1.79626">
        <ele>2.2</ele>
        <time>2021-09-25T13:45:27Z</time>
      </trkpt>
      <trkpt lat="46.49701" lon="-1.79626">
        <ele>2.2</ele>
        <time>2021-09-25T13:45:28Z</time>
      </trkpt>
      <trkpt lat="46.49701" lon="-1.79626">
        <ele>2.2</ele>
        <time>2021-09-25T13:45:29Z</time>
      </trkpt>
      <trkpt lat="46.49701" lon="-1.79626">
        <ele>2.2</ele>
        <time>2021-09-25T13:45:30Z</time>
      </trkpt>
      <trkpt lat="46.497" lon="-1.79626">
        <ele>2.2</ele>
        <time>2021-09-25T13:45:31Z</time>
      </trkpt>
      <trkpt lat="46.49701" lon="-1.79626">
        <ele>2.2</ele>
        <time>2021-09-25T13:45:32Z</time>
      </trkpt>
      <trkpt lat="46.49701" lon="-1.79626">
        <ele>2.2</ele>
        <time>2021-09-25T13:45:33Z</time>
      </trkpt>
      <trkpt lat="46.49702" lon="-1.79626">
        <ele>2.1</ele>
        <time>2021-09-25T13:45:34Z</time>
      </trkpt>
      <trkpt lat="46.49703" lon="-1.79626">
        <ele>2.1</ele>
        <time>2021-09-25T13:45:35Z</time>
      </trkpt>
      <trkpt lat="46.49704" lon="-1.79626">
        <ele>2.1</ele>
        <time>2021-09-25T13:45:36Z</time>
      </trkpt>
      <trkpt lat="46.49705" lon="-1.79626">
        <ele>2.1</ele>
        <time>2021-09-25T13:45:37Z</time>
      </trkpt>
      <trkpt lat="46.49705" lon="-1.79627">
        <ele>2.1</ele>
        <time>2021-09-25T13:45:38Z</time>
      </trkpt>
      <trkpt lat="46.49706" lon="-1.79627">
        <ele>2.1</ele>
        <time>2021-09-25T13:45:39Z</time>
      </trkpt>
      <trkpt lat="46.49706" lon="-1.79627">
        <ele>2.1</ele>
        <time>2021-09-25T13:45:40Z</time>
      </trkpt>
      <trkpt lat="46.49706" lon="-1.79627">
        <ele>2.1</ele>
        <time>2021-09-25T13:45:41Z</time>
      </trkpt>
      <trkpt lat="46.49707" lon="-1.79627">
        <ele>2</ele>
        <time>2021-09-25T13:45:42Z</time>
      </trkpt>
      <trkpt lat="46.49707" lon="-1.79628">
        <ele>2</ele>
        <time>2021-09-25T13:45:43Z</time>
      </trkpt>
      <trkpt lat="46.49707" lon="-1.79628">
        <ele>2</ele>
        <time>2021-09-25T13:45:44Z</time>
      </trkpt>
      <trkpt lat="46.49708" lon="-1.79628">
        <ele>2</ele>
        <time>2021-09-25T13:45:45Z</time>
      </trkpt>
      <trkpt lat="46.49708" lon="-1.79628">
        <ele>2</ele>
        <time>2021-09-25T13:45:46Z</time>
      </trkpt>
      <trkpt lat="46.49708" lon="-1.79628">
        <ele>2</ele>
        <time>2021-09-25T13:45:47Z</time>
      </trkpt>
      <trkpt lat="46.49708" lon="-1.79628">
        <ele>2</ele>
        <time>2021-09-25T13:45:48Z</time>
      </trkpt>
      <trkpt lat="46.49708" lon="-1.79628">
        <ele>2</ele>
        <time>2021-09-25T13:45:49Z</time>
      </trkpt>
      <trkpt lat="46.49708" lon="-1.79628">
        <ele>2</ele>
        <time>2021-09-25T13:45:50Z</time>
      </trkpt>
      <trkpt lat="46.49707" lon="-1.79628">
        <ele>2</ele>
        <time>2021-09-25T13:45:51Z</time>
      </trkpt>
      <trkpt lat="46.49707" lon="-1.79627">
        <ele>2</ele>
        <time>2021-09-25T13:45:52Z</time>
      </trkpt>
      <trkpt lat="46.49706" lon="-1.79627">
        <ele>2</ele>
        <time>2021-09-25T13:45:53Z</time>
      </trkpt>
      <trkpt lat="46.49706" lon="-1.79626">
        <ele>2</ele>
        <time>2021-09-25T13:45:54Z</time>
      </trkpt>
      <trkpt lat="46.49705" lon="-1.79626">
        <ele>1.9</ele>
        <time>2021-09-25T13:45:55Z</time>
      </trkpt>
      <trkpt lat="46.49704" lon="-1.79625">
        <ele>1.9</ele>
        <time>2021-09-25T13:45:56Z</time>
      </trkpt>
      <trkpt lat="46.49703" lon="-1.79624">
        <ele>1.9</ele>
        <time>2021-09-25T13:45:57Z</time>
      </trkpt>
      <trkpt lat="46.49702" lon="-1.79623">
        <ele>1.9</ele>
        <time>2021-09-25T13:45:58Z</time>
      </trkpt>
      <trkpt lat="46.49701" lon="-1.79621">
        <ele>1.9</ele>
        <time>2021-09-25T13:45:59Z</time>
      </trkpt>
      <trkpt lat="46.49701" lon="-1.7962">
        <ele>1.8</ele>
        <time>2021-09-25T13:46:00Z</time>
      </trkpt>
      <trkpt lat="46.497" lon="-1.79619">
        <ele>1.8</ele>
        <time>2021-09-25T13:46:01Z</time>
      </trkpt>
      <trkpt lat="46.49699" lon="-1.79617">
        <ele>1.8</ele>
        <time>2021-09-25T13:46:02Z</time>
      </trkpt>
      <trkpt lat="46.49698" lon="-1.79616">
        <ele>1.7</ele>
        <time>2021-09-25T13:46:03Z</time>
      </trkpt>
      <trkpt lat="46.49697" lon="-1.79614">
        <ele>1.7</ele>
        <time>2021-09-25T13:46:04Z</time>
      </trkpt>
      <trkpt lat="46.49697" lon="-1.79613">
        <ele>1.7</ele>
        <time>2021-09-25T13:46:05Z</time>
      </trkpt>
      <trkpt lat="46.49696" lon="-1.79611">
        <ele>1.7</ele>
        <time>2021-09-25T13:46:06Z</time>
      </trkpt>
      <trkpt lat="46.49696" lon="-1.79609">
        <ele>1.6</ele>
        <time>2021-09-25T13:46:07Z</time>
      </trkpt>
      <trkpt lat="46.49695" lon="-1.79607">
        <ele>1.6</ele>
        <time>2021-09-25T13:46:08Z</time>
      </trkpt>
      <trkpt lat="46.49695" lon="-1.79606">
        <ele>1.6</ele>
        <time>2021-09-25T13:46:09Z</time>
      </trkpt>
      <trkpt lat="46.49694" lon="-1.79603">
        <ele>1.5</ele>
        <time>2021-09-25T13:46:10Z</time>
      </trkpt>
      <trkpt lat="46.49694" lon="-1.79601">
        <ele>1.5</ele>
        <time>2021-09-25T13:46:11Z</time>
      </trkpt>
      <trkpt lat="46.49693" lon="-1.79599">
        <ele>1.5</ele>
        <time>2021-09-25T13:46:12Z</time>
      </trkpt>
      <trkpt lat="46.49693" lon="-1.79597">
        <ele>1.5</ele>
        <time>2021-09-25T13:46:13Z</time>
      </trkpt>
      <trkpt lat="46.49692" lon="-1.79595">
        <ele>1.4</ele>
        <time>2021-09-25T13:46:14Z</time>
      </trkpt>
      <trkpt lat="46.49692" lon="-1.79592">
        <ele>1.4</ele>
        <time>2021-09-25T13:46:15Z</time>
      </trkpt>
      <trkpt lat="46.49692" lon="-1.7959">
        <ele>1.4</ele>
        <time>2021-09-25T13:46:16Z</time>
      </trkpt>
      <trkpt lat="46.49691" lon="-1.79588">
        <ele>1.3</ele>
        <time>2021-09-25T13:46:17Z</time>
      </trkpt>
      <trkpt lat="46.49691" lon="-1.79586">
        <ele>1.3</ele>
        <time>2021-09-25T13:46:18Z</time>
      </trkpt>
      <trkpt lat="46.4969" lon="-1.79583">
        <ele>1.3</ele>
        <time>2021-09-25T13:46:19Z</time>
      </trkpt>
      <trkpt lat="46.4969" lon="-1.79581">
        <ele>1.3</ele>
        <time>2021-09-25T13:46:20Z</time>
      </trkpt>
      <trkpt lat="46.49689" lon="-1.79579">
        <ele>1.3</ele>
        <time>2021-09-25T13:46:21Z</time>
      </trkpt>
      <trkpt lat="46.49689" lon="-1.79577">
        <ele>1.3</ele>
        <time>2021-09-25T13:46:22Z</time>
      </trkpt>
      <trkpt lat="46.49688" lon="-1.79575">
        <ele>1.2</ele>
        <time>2021-09-25T13:46:23Z</time>
      </trkpt>
      <trkpt lat="46.49687" lon="-1.79573">
        <ele>1.2</ele>
        <time>2021-09-25T13:46:24Z</time>
      </trkpt>
      <trkpt lat="46.49687" lon="-1.79572">
        <ele>1.2</ele>
        <time>2021-09-25T13:46:25Z</time>
      </trkpt>
      <trkpt lat="46.49686" lon="-1.7957">
        <ele>1.2</ele>
        <time>2021-09-25T13:46:26Z</time>
      </trkpt>
      <trkpt lat="46.49686" lon="-1.79568">
        <ele>1.2</ele>
        <time>2021-09-25T13:46:27Z</time>
      </trkpt>
      <trkpt lat="46.49685" lon="-1.79566">
        <ele>1.1</ele>
        <time>2021-09-25T13:46:28Z</time>
      </trkpt>
      <trkpt lat="46.49684" lon="-1.79563">
        <ele>1.1</ele>
        <time>2021-09-25T13:46:29Z</time>
      </trkpt>
      <trkpt lat="46.49684" lon="-1.79561">
        <ele>1.1</ele>
        <time>2021-09-25T13:46:30Z</time>
      </trkpt>
      <trkpt lat="46.49683" lon="-1.79559">
        <ele>1.1</ele>
        <time>2021-09-25T13:46:31Z</time>
      </trkpt>
      <trkpt lat="46.49682" lon="-1.79557">
        <ele>1.1</ele>
        <time>2021-09-25T13:46:32Z</time>
      </trkpt>
      <trkpt lat="46.49681" lon="-1.79555">
        <ele>1</ele>
        <time>2021-09-25T13:46:33Z</time>
      </trkpt>
      <trkpt lat="46.49681" lon="-1.79552">
        <ele>1</ele>
        <time>2021-09-25T13:46:34Z</time>
      </trkpt>
      <trkpt lat="46.4968" lon="-1.7955">
        <ele>1</ele>
        <time>2021-09-25T13:46:35Z</time>
      </trkpt>
      <trkpt lat="46.49679" lon="-1.79548">
        <ele>1</ele>
        <time>2021-09-25T13:46:36Z</time>
      </trkpt>
      <trkpt lat="46.49678" lon="-1.79546">
        <ele>1</ele>
        <time>2021-09-25T13:46:37Z</time>
      </trkpt>
      <trkpt lat="46.49678" lon="-1.79543">
        <ele>1</ele>
        <time>2021-09-25T13:46:38Z</time>
      </trkpt>
      <trkpt lat="46.49677" lon="-1.79541">
        <ele>0.9</ele>
        <time>2021-09-25T13:46:39Z</time>
      </trkpt>
      <trkpt lat="46.49676" lon="-1.79539">
        <ele>0.9</ele>
        <time>2021-09-25T13:46:40Z</time>
      </trkpt>
      <trkpt lat="46.49675" lon="-1.79537">
        <ele>0.9</ele>
        <time>2021-09-25T13:46:41Z</time>
      </trkpt>
      <trkpt lat="46.49674" lon="-1.79535">
        <ele>0.9</ele>
        <time>2021-09-25T13:46:42Z</time>
      </trkpt>
      <trkpt lat="46.49673" lon="-1.79534">
        <ele>0.9</ele>
        <time>2021-09-25T13:46:43Z</time>
      </trkpt>
      <trkpt lat="46.49672" lon="-1.79532">
        <ele>0.9</ele>
        <time>2021-09-25T13:46:44Z</time>
      </trkpt>
      <trkpt lat="46.49671" lon="-1.7953">
        <ele>0.9</ele>
        <time>2021-09-25T13:46:45Z</time>
      </trkpt>
      <trkpt lat="46.4967" lon="-1.79529">
        <ele>0.8</ele>
        <time>2021-09-25T13:46:46Z</time>
      </trkpt>
      <trkpt lat="46.49669" lon="-1.79527">
        <ele>0.8</ele>
        <time>2021-09-25T13:46:47Z</time>
      </trkpt>
      <trkpt lat="46.49667" lon="-1.79525">
        <ele>0.8</ele>
        <time>2021-09-25T13:46:48Z</time>
      </trkpt>
      <trkpt lat="46.49666" lon="-1.79524">
        <ele>0.8</ele>
        <time>2021-09-25T13:46:49Z</time>
      </trkpt>
      <trkpt lat="46.49665" lon="-1.79523">
        <ele>0.8</ele>
        <time>2021-09-25T13:46:50Z</time>
      </trkpt>
      <trkpt lat="46.49664" lon="-1.79521">
        <ele>0.8</ele>
        <time>2021-09-25T13:46:51Z</time>
      </trkpt>
      <trkpt lat="46.49662" lon="-1.7952">
        <ele>0.7</ele>
        <time>2021-09-25T13:46:52Z</time>
      </trkpt>
      <trkpt lat="46.49661" lon="-1.79519">
        <ele>0.7</ele>
        <time>2021-09-25T13:46:53Z</time>
      </trkpt>
      <trkpt lat="46.49659" lon="-1.79518">
        <ele>0.7</ele>
        <time>2021-09-25T13:46:54Z</time>
      </trkpt>
      <trkpt lat="46.49658" lon="-1.79517">
        <ele>0.7</ele>
        <time>2021-09-25T13:46:55Z</time>
      </trkpt>
      <trkpt lat="46.49657" lon="-1.79516">
        <ele>0.7</ele>
        <time>2021-09-25T13:46:56Z</time>
      </trkpt>
      <trkpt lat="46.49655" lon="-1.79515">
        <ele>0.7</ele>
        <time>2021-09-25T13:46:57Z</time>
      </trkpt>
      <trkpt lat="46.49654" lon="-1.79514">
        <ele>0.7</ele>
        <time>2021-09-25T13:46:58Z</time>
      </trkpt>
      <trkpt lat="46.49652" lon="-1.79513">
        <ele>0.6</ele>
        <time>2021-09-25T13:46:59Z</time>
      </trkpt>
      <trkpt lat="46.49651" lon="-1.79512">
        <ele>0.6</ele>
        <time>2021-09-25T13:47:00Z</time>
      </trkpt>
      <trkpt lat="46.4965" lon="-1.79511">
        <ele>0.6</ele>
        <time>2021-09-25T13:47:01Z</time>
      </trkpt>
      <trkpt lat="46.49648" lon="-1.7951">
        <ele>0.6</ele>
        <time>2021-09-25T13:47:02Z</time>
      </trkpt>
      <trkpt lat="46.49647" lon="-1.79509">
        <ele>0.6</ele>
        <time>2021-09-25T13:47:03Z</time>
      </trkpt>
      <trkpt lat="46.49646" lon="-1.79508">
        <ele>0.6</ele>
        <time>2021-09-25T13:47:04Z</time>
      </trkpt>
      <trkpt lat="46.49645" lon="-1.79507">
        <ele>0.6</ele>
        <time>2021-09-25T13:47:05Z</time>
      </trkpt>
      <trkpt lat="46.49644" lon="-1.79506">
        <ele>0.6</ele>
        <time>2021-09-25T13:47:06Z</time>
      </trkpt>
      <trkpt lat="46.49643" lon="-1.79505">
        <ele>0.5</ele>
        <time>2021-09-25T13:47:07Z</time>
      </trkpt>
      <trkpt lat="46.49642" lon="-1.79504">
        <ele>0.5</ele>
        <time>2021-09-25T13:47:08Z</time>
      </trkpt>
      <trkpt lat="46.49642" lon="-1.79503">
        <ele>0.5</ele>
        <time>2021-09-25T13:47:09Z</time>
      </trkpt>
      <trkpt lat="46.49641" lon="-1.79503">
        <ele>0.5</ele>
        <time>2021-09-25T13:47:10Z</time>
      </trkpt>
      <trkpt lat="46.4964" lon="-1.79502">
        <ele>0.5</ele>
        <time>2021-09-25T13:47:11Z</time>
      </trkpt>
      <trkpt lat="46.4964" lon="-1.79501">
        <ele>0.5</ele>
        <time>2021-09-25T13:47:12Z</time>
      </trkpt>
      <trkpt lat="46.49639" lon="-1.795">
        <ele>0.4</ele>
        <time>2021-09-25T13:47:13Z</time>
      </trkpt>
      <trkpt lat="46.49639" lon="-1.795">
        <ele>0.4</ele>
        <time>2021-09-25T13:47:14Z</time>
      </trkpt>
      <trkpt lat="46.49639" lon="-1.79499">
        <ele>0.4</ele>
        <time>2021-09-25T13:47:15Z</time>
      </trkpt>
      <trkpt lat="46.49639" lon="-1.79499">
        <ele>0.4</ele>
        <time>2021-09-25T13:47:16Z</time>
      </trkpt>
      <trkpt lat="46.49638" lon="-1.79499">
        <ele>0.4</ele>
        <time>2021-09-25T13:47:17Z</time>
      </trkpt>
      <trkpt lat="46.49638" lon="-1.79498">
        <ele>0.4</ele>
        <time>2021-09-25T13:47:18Z</time>
      </trkpt>
      <trkpt lat="46.49638" lon="-1.79498">
        <ele>0.4</ele>
        <time>2021-09-25T13:47:19Z</time>
      </trkpt>
      <trkpt lat="46.49638" lon="-1.79498">
        <ele>0.4</ele>
        <time>2021-09-25T13:47:20Z</time>
      </trkpt>
      <trkpt lat="46.49638" lon="-1.79498">
        <ele>0.4</ele>
        <time>2021-09-25T13:47:21Z</time>
      </trkpt>
      <trkpt lat="46.49638" lon="-1.79498">
        <ele>0.4</ele>
        <time>2021-09-25T13:47:22Z</time>
      </trkpt>
      <trkpt lat="46.49638" lon="-1.79498">
        <ele>0.4</ele>
        <time>2021-09-25T13:47:23Z</time>
      </trkpt>
      <trkpt lat="46.49638" lon="-1.79499">
        <ele>0.4</ele>
        <time>2021-09-25T13:47:24Z</time>
      </trkpt>
      <trkpt lat="46.49638" lon="-1.79499">
        <ele>0.4</ele>
        <time>2021-09-25T13:47:25Z</time>
      </trkpt>
      <trkpt lat="46.49638" lon="-1.79499">
        <ele>0.4</ele>
        <time>2021-09-25T13:47:26Z</time>
      </trkpt>
      <trkpt lat="46.49638" lon="-1.79499">
        <ele>0.4</ele>
        <time>2021-09-25T13:47:27Z</time>
      </trkpt>
      <trkpt lat="46.49638" lon="-1.79499">
        <ele>0.4</ele>
        <time>2021-09-25T13:47:28Z</time>
      </trkpt>
      <trkpt lat="46.49638" lon="-1.79499">
        <ele>0.4</ele>
        <time>2021-09-25T13:47:29Z</time>
      </trkpt>
      <trkpt lat="46.49639" lon="-1.79499">
        <ele>0.4</ele>
        <time>2021-09-25T13:47:30Z</time>
      </trkpt>
      <trkpt lat="46.49639" lon="-1.79499">
        <ele>0.4</ele>
        <time>2021-09-25T13:47:31Z</time>
      </trkpt>
      <trkpt lat="46.49639" lon="-1.79499">
        <ele>0.4</ele>
        <time>2021-09-25T13:47:32Z</time>
      </trkpt>
      <trkpt lat="46.49639" lon="-1.79499">
        <ele>0.4</ele>
        <time>2021-09-25T13:47:33Z</time>
      </trkpt>
      <trkpt lat="46.49639" lon="-1.79499">
        <ele>0.4</ele>
        <time>2021-09-25T13:47:34Z</time>
      </trkpt>
      <trkpt lat="46.49639" lon="-1.79499">
        <ele>0.4</ele>
        <time>2021-09-25T13:47:35Z</time>
      </trkpt>
      <trkpt lat="46.49639" lon="-1.79499">
        <ele>0.4</ele>
        <time>2021-09-25T13:47:36Z</time>
      </trkpt>
      <trkpt lat="46.49639" lon="-1.79499">
        <ele>0.4</ele>
        <time>2021-09-25T13:47:37Z</time>
      </trkpt>
      <trkpt lat="46.49639" lon="-1.79499">
        <ele>0.4</ele>
        <time>2021-09-25T13:47:38Z</time>
      </trkpt>
      <trkpt lat="46.49639" lon="-1.79499">
        <ele>0.4</ele>
        <time>2021-09-25T13:47:39Z</time>
      </trkpt>
      <trkpt lat="46.49639" lon="-1.79499">
        <ele>0.4</ele>
        <time>2021-09-25T13:47:40Z</time>
      </trkpt>
      <trkpt lat="46.49638" lon="-1.79499">
        <ele>0.4</ele>
        <time>2021-09-25T13:47:41Z</time>
      </trkpt>
      <trkpt lat="46.49638" lon="-1.79499">
        <ele>0.4</ele>
        <time>2021-09-25T13:47:42Z</time>
      </trkpt>
      <trkpt lat="46.49638" lon="-1.79499">
        <ele>0.4</ele>
        <time>2021-09-25T13:47:43Z</time>
      </trkpt>
      <trkpt lat="46.49638" lon="-1.79499">
        <ele>0.4</ele>
        <time>2021-09-25T13:47:44Z</time>
      </trkpt>
      <trkpt lat="46.49638" lon="-1.79499">
        <ele>0.4</ele>
        <time>2021-09-25T13:47:45Z</time>
      </trkpt>
      <trkpt lat="46.49638" lon="-1.79499">
        <ele>0.4</ele>
        <time>2021-09-25T13:47:46Z</time>
      </trkpt>
      <trkpt lat="46.49638" lon="-1.79499">
        <ele>0.4</ele>
        <time>2021-09-25T13:47:47Z</time>
      </trkpt>
      <trkpt lat="46.49638" lon="-1.79499">
        <ele>0.4</ele>
        <time>2021-09-25T13:47:48Z</time>
      </trkpt>
      <trkpt lat="46.49638" lon="-1.79499">
        <ele>0.4</ele>
        <time>2021-09-25T13:47:49Z</time>
      </trkpt>
      <trkpt lat="46.49638" lon="-1.79499">
        <ele>0.4</ele>
        <time>2021-09-25T13:47:50Z</time>
      </trkpt>
      <trkpt lat="46.49638" lon="-1.79499">
        <ele>0.4</ele>
        <time>2021-09-25T13:47:51Z</time>
      </trkpt>
      <trkpt lat="46.49638" lon="-1.79499">
        <ele>0.4</ele>
        <time>2021-09-25T13:47:52Z</time>
      </trkpt>
      <trkpt lat="46.49639" lon="-1.79499">
        <ele>0.4</ele>
        <time>2021-09-25T13:47:53Z</time>
      </trkpt>
      <trkpt lat="46.49639" lon="-1.79499">
        <ele>0.4</ele>
        <time>2021-09-25T13:47:54Z</time>
      </trkpt>
      <trkpt lat="46.49639" lon="-1.79499">
        <ele>0.4</ele>
        <time>2021-09-25T13:47:55Z</time>
      </trkpt>
      <trkpt lat="46.49639" lon="-1.79499">
        <ele>0.4</ele>
        <time>2021-09-25T13:47:56Z</time>
      </trkpt>
      <trkpt lat="46.49639" lon="-1.79499">
        <ele>0.4</ele>
        <time>2021-09-25T13:47:57Z</time>
      </trkpt>
      <trkpt lat="46.49639" lon="-1.79499">
        <ele>0.4</ele>
        <time>2021-09-25T13:47:58Z</time>
      </trkpt>
      <trkpt lat="46.49639" lon="-1.79499">
        <ele>0.4</ele>
        <time>2021-09-25T13:47:59Z</time>
      </trkpt>
      <trkpt lat="46.49638" lon="-1.79499">
        <ele>0.4</ele>
        <time>2021-09-25T13:48:00Z</time>
      </trkpt>
      <trkpt lat="46.49638" lon="-1.79499">
        <ele>0.4</ele>
        <time>2021-09-25T13:48:01Z</time>
      </trkpt>
      <trkpt lat="46.49638" lon="-1.79499">
        <ele>0.4</ele>
        <time>2021-09-25T13:48:02Z</time>
      </trkpt>
      <trkpt lat="46.49638" lon="-1.79499">
        <ele>0.4</ele>
        <time>2021-09-25T13:48:03Z</time>
      </trkpt>
      <trkpt lat="46.49638" lon="-1.79499">
        <ele>0.4</ele>
        <time>2021-09-25T13:48:04Z</time>
      </trkpt>
      <trkpt lat="46.49638" lon="-1.79499">
        <ele>0.4</ele>
        <time>2021-09-25T13:48:05Z</time>
      </trkpt>
      <trkpt lat="46.49638" lon="-1.79499">
        <ele>0.4</ele>
        <time>2021-09-25T13:48:06Z</time>
      </trkpt>
      <trkpt lat="46.49638" lon="-1.79499">
        <ele>0.4</ele>
        <time>2021-09-25T13:48:07Z</time>
      </trkpt>
      <trkpt lat="46.49638" lon="-1.79499">
        <ele>0.4</ele>
        <time>2021-09-25T13:48:08Z</time>
      </trkpt>
      <trkpt lat="46.49638" lon="-1.79499">
        <ele>0.4</ele>
        <time>2021-09-25T13:48:09Z</time>
      </trkpt>
      <trkpt lat="46.49637" lon="-1.79499">
        <ele>0.4</ele>
        <time>2021-09-25T13:48:10Z</time>
      </trkpt>
      <trkpt lat="46.49637" lon="-1.79499">
        <ele>0.3</ele>
        <time>2021-09-25T13:48:11Z</time>
      </trkpt>
      <trkpt lat="46.49636" lon="-1.79499">
        <ele>0.3</ele>
        <time>2021-09-25T13:48:12Z</time>
      </trkpt>
      <trkpt lat="46.49635" lon="-1.795">
        <ele>0.3</ele>
        <time>2021-09-25T13:48:13Z</time>
      </trkpt>
      <trkpt lat="46.49635" lon="-1.795">
        <ele>0.3</ele>
        <time>2021-09-25T13:48:14Z</time>
      </trkpt>
      <trkpt lat="46.49634" lon="-1.79501">
        <ele>0.3</ele>
        <time>2021-09-25T13:48:15Z</time>
      </trkpt>
      <trkpt lat="46.49634" lon="-1.79501">
        <ele>0.3</ele>
        <time>2021-09-25T13:48:16Z</time>
      </trkpt>
      <trkpt lat="46.49634" lon="-1.79501">
        <ele>0.3</ele>
        <time>2021-09-25T13:48:17Z</time>
      </trkpt>
      <trkpt lat="46.49633" lon="-1.79501">
        <ele>0.2</ele>
        <time>2021-09-25T13:48:18Z</time>
      </trkpt>
      <trkpt lat="46.49633" lon="-1.79501">
        <ele>0.2</ele>
        <time>2021-09-25T13:48:19Z</time>
      </trkpt>
      <trkpt lat="46.49633" lon="-1.795">
        <ele>0.2</ele>
        <time>2021-09-25T13:48:20Z</time>
      </trkpt>
      <trkpt lat="46.49633" lon="-1.795">
        <ele>0.4</ele>
        <time>2021-09-25T13:48:21Z</time>
      </trkpt>
      <trkpt lat="46.49632" lon="-1.79499">
        <ele>0.5</ele>
        <time>2021-09-25T13:48:22Z</time>
      </trkpt>
      <trkpt lat="46.49632" lon="-1.79499">
        <ele>0.6</ele>
        <time>2021-09-25T13:48:23Z</time>
      </trkpt>
      <trkpt lat="46.49632" lon="-1.79498">
        <ele>0.7</ele>
        <time>2021-09-25T13:48:24Z</time>
      </trkpt>
      <trkpt lat="46.49632" lon="-1.79497">
        <ele>0.8</ele>
        <time>2021-09-25T13:48:25Z</time>
      </trkpt>
      <trkpt lat="46.49631" lon="-1.79497">
        <ele>0.9</ele>
        <time>2021-09-25T13:48:26Z</time>
      </trkpt>
      <trkpt lat="46.49631" lon="-1.79496">
        <ele>1</ele>
        <time>2021-09-25T13:48:27Z</time>
      </trkpt>
      <trkpt lat="46.49631" lon="-1.79495">
        <ele>1.1</ele>
        <time>2021-09-25T13:48:28Z</time>
      </trkpt>
      <trkpt lat="46.4963" lon="-1.79495">
        <ele>1.2</ele>
        <time>2021-09-25T13:48:29Z</time>
      </trkpt>
      <trkpt lat="46.4963" lon="-1.79494">
        <ele>1.3</ele>
        <time>2021-09-25T13:48:30Z</time>
      </trkpt>
      <trkpt lat="46.4963" lon="-1.79493">
        <ele>1.4</ele>
        <time>2021-09-25T13:48:31Z</time>
      </trkpt>
      <trkpt lat="46.4963" lon="-1.79492">
        <ele>1.5</ele>
        <time>2021-09-25T13:48:32Z</time>
      </trkpt>
      <trkpt lat="46.4963" lon="-1.79491">
        <ele>1.6</ele>
        <time>2021-09-25T13:48:33Z</time>
      </trkpt>
      <trkpt lat="46.4963" lon="-1.79491">
        <ele>1.7</ele>
        <time>2021-09-25T13:48:34Z</time>
      </trkpt>
      <trkpt lat="46.49629" lon="-1.7949">
        <ele>1.8</ele>
        <time>2021-09-25T13:48:35Z</time>
      </trkpt>
      <trkpt lat="46.49629" lon="-1.79489">
        <ele>1.9</ele>
        <time>2021-09-25T13:48:36Z</time>
      </trkpt>
      <trkpt lat="46.49629" lon="-1.79488">
        <ele>2</ele>
        <time>2021-09-25T13:48:37Z</time>
      </trkpt>
      <trkpt lat="46.49629" lon="-1.79487">
        <ele>2.1</ele>
        <time>2021-09-25T13:48:38Z</time>
      </trkpt>
      <trkpt lat="46.49629" lon="-1.79486">
        <ele>2.3</ele>
        <time>2021-09-25T13:48:39Z</time>
      </trkpt>
      <trkpt lat="46.49629" lon="-1.79486">
        <ele>2.4</ele>
        <time>2021-09-25T13:48:40Z</time>
      </trkpt>
      <trkpt lat="46.49628" lon="-1.79485">
        <ele>2.5</ele>
        <time>2021-09-25T13:48:41Z</time>
      </trkpt>
      <trkpt lat="46.49628" lon="-1.79484">
        <ele>2.6</ele>
        <time>2021-09-25T13:48:42Z</time>
      </trkpt>
      <trkpt lat="46.49628" lon="-1.79483">
        <ele>2.8</ele>
        <time>2021-09-25T13:48:43Z</time>
      </trkpt>
      <trkpt lat="46.49627" lon="-1.79482">
        <ele>2.9</ele>
        <time>2021-09-25T13:48:44Z</time>
      </trkpt>
      <trkpt lat="46.49627" lon="-1.79482">
        <ele>3</ele>
        <time>2021-09-25T13:48:45Z</time>
      </trkpt>
      <trkpt lat="46.49627" lon="-1.79481">
        <ele>3.2</ele>
        <time>2021-09-25T13:48:46Z</time>
      </trkpt>
      <trkpt lat="46.49626" lon="-1.7948">
        <ele>3.3</ele>
        <time>2021-09-25T13:48:47Z</time>
      </trkpt>
      <trkpt lat="46.49626" lon="-1.79479">
        <ele>3.4</ele>
        <time>2021-09-25T13:48:48Z</time>
      </trkpt>
      <trkpt lat="46.49626" lon="-1.79478">
        <ele>3.6</ele>
        <time>2021-09-25T13:48:49Z</time>
      </trkpt>
      <trkpt lat="46.49625" lon="-1.79478">
        <ele>3.7</ele>
        <time>2021-09-25T13:48:50Z</time>
      </trkpt>
      <trkpt lat="46.49625" lon="-1.79477">
        <ele>3.8</ele>
        <time>2021-09-25T13:48:51Z</time>
      </trkpt>
      <trkpt lat="46.49625" lon="-1.79476">
        <ele>4</ele>
        <time>2021-09-25T13:48:52Z</time>
      </trkpt>
      <trkpt lat="46.49624" lon="-1.79475">
        <ele>4.1</ele>
        <time>2021-09-25T13:48:53Z</time>
      </trkpt>
      <trkpt lat="46.49624" lon="-1.79475">
        <ele>4.2</ele>
        <time>2021-09-25T13:48:54Z</time>
      </trkpt>
      <trkpt lat="46.49624" lon="-1.79474">
        <ele>4.3</ele>
        <time>2021-09-25T13:48:55Z</time>
      </trkpt>
      <trkpt lat="46.49623" lon="-1.79473">
        <ele>4.4</ele>
        <time>2021-09-25T13:48:56Z</time>
      </trkpt>
      <trkpt lat="46.49623" lon="-1.79473">
        <ele>4.5</ele>
        <time>2021-09-25T13:48:57Z</time>
      </trkpt>
      <trkpt lat="46.49623" lon="-1.79472">
        <ele>4.6</ele>
        <time>2021-09-25T13:48:58Z</time>
      </trkpt>
      <trkpt lat="46.49623" lon="-1.79471">
        <ele>4.7</ele>
        <time>2021-09-25T13:48:59Z</time>
      </trkpt>
      <trkpt lat="46.49623" lon="-1.79471">
        <ele>4.8</ele>
        <time>2021-09-25T13:49:00Z</time>
      </trkpt>
      <trkpt lat="46.49623" lon="-1.7947">
        <ele>4.8</ele>
        <time>2021-09-25T13:49:01Z</time>
      </trkpt>
      <trkpt lat="46.49622" lon="-1.7947">
        <ele>4.8</ele>
        <time>2021-09-25T13:49:02Z</time>
      </trkpt>
      <trkpt lat="46.49622" lon="-1.7947">
        <ele>4.8</ele>
        <time>2021-09-25T13:49:03Z</time>
      </trkpt>
      <trkpt lat="46.49622" lon="-1.7947">
        <ele>4.8</ele>
        <time>2021-09-25T13:49:04Z</time>
      </trkpt>
      <trkpt lat="46.49622" lon="-1.7947">
        <ele>4.8</ele>
        <time>2021-09-25T13:49:05Z</time>
      </trkpt>
      <trkpt lat="46.49622" lon="-1.7947">
        <ele>4.8</ele>
        <time>2021-09-25T13:49:06Z</time>
      </trkpt>
      <trkpt lat="46.49622" lon="-1.79469">
        <ele>4.9</ele>
        <time>2021-09-25T13:49:07Z</time>
      </trkpt>
      <trkpt lat="46.49622" lon="-1.79468">
        <ele>5</ele>
        <time>2021-09-25T13:49:08Z</time>
      </trkpt>
      <trkpt lat="46.49622" lon="-1.79467">
        <ele>5</ele>
        <time>2021-09-25T13:49:09Z</time>
      </trkpt>
      <trkpt lat="46.49622" lon="-1.79466">
        <ele>5</ele>
        <time>2021-09-25T13:49:10Z</time>
      </trkpt>
      <trkpt lat="46.49622" lon="-1.79464">
        <ele>5</ele>
        <time>2021-09-25T13:49:11Z</time>
      </trkpt>
      <trkpt lat="46.49622" lon="-1.79462">
        <ele>5</ele>
        <time>2021-09-25T13:49:12Z</time>
      </trkpt>
      <trkpt lat="46.49623" lon="-1.79461">
        <ele>5</ele>
        <time>2021-09-25T13:49:13Z</time>
      </trkpt>
      <trkpt lat="46.49623" lon="-1.79459">
        <ele>4.9</ele>
        <time>2021-09-25T13:49:14Z</time>
      </trkpt>
      <trkpt lat="46.49623" lon="-1.79458">
        <ele>4.9</ele>
        <time>2021-09-25T13:49:15Z</time>
      </trkpt>
      <trkpt lat="46.49623" lon="-1.79456">
        <ele>4.9</ele>
        <time>2021-09-25T13:49:16Z</time>
      </trkpt>
      <trkpt lat="46.49624" lon="-1.79455">
        <ele>4.9</ele>
        <time>2021-09-25T13:49:17Z</time>
      </trkpt>
      <trkpt lat="46.49624" lon="-1.79453">
        <ele>4.9</ele>
        <time>2021-09-25T13:49:18Z</time>
      </trkpt>
      <trkpt lat="46.49624" lon="-1.79452">
        <ele>4.9</ele>
        <time>2021-09-25T13:49:19Z</time>
      </trkpt>
      <trkpt lat="46.49624" lon="-1.7945">
        <ele>4.9</ele>
        <time>2021-09-25T13:49:20Z</time>
      </trkpt>
      <trkpt lat="46.49625" lon="-1.79449">
        <ele>4.9</ele>
        <time>2021-09-25T13:49:21Z</time>
      </trkpt>
      <trkpt lat="46.49625" lon="-1.79448">
        <ele>4.9</ele>
        <time>2021-09-25T13:49:22Z</time>
      </trkpt>
      <trkpt lat="46.49625" lon="-1.79446">
        <ele>4.9</ele>
        <time>2021-09-25T13:49:23Z</time>
      </trkpt>
      <trkpt lat="46.49626" lon="-1.79445">
        <ele>4.9</ele>
        <time>2021-09-25T13:49:24Z</time>
      </trkpt>
      <trkpt lat="46.49626" lon="-1.79444">
        <ele>4.9</ele>
        <time>2021-09-25T13:49:25Z</time>
      </trkpt>
      <trkpt lat="46.49626" lon="-1.79442">
        <ele>4.9</ele>
        <time>2021-09-25T13:49:26Z</time>
      </trkpt>
      <trkpt lat="46.49626" lon="-1.79441">
        <ele>4.9</ele>
        <time>2021-09-25T13:49:27Z</time>
      </trkpt>
      <trkpt lat="46.49627" lon="-1.7944">
        <ele>4.8</ele>
        <time>2021-09-25T13:49:28Z</time>
      </trkpt>
      <trkpt lat="46.49627" lon="-1.79439">
        <ele>4.8</ele>
        <time>2021-09-25T13:49:29Z</time>
      </trkpt>
      <trkpt lat="46.49627" lon="-1.79438">
        <ele>4.8</ele>
        <time>2021-09-25T13:49:30Z</time>
      </trkpt>
      <trkpt lat="46.49627" lon="-1.79437">
        <ele>4.8</ele>
        <time>2021-09-25T13:49:31Z</time>
      </trkpt>
      <trkpt lat="46.49627" lon="-1.79435">
        <ele>4.8</ele>
        <time>2021-09-25T13:49:32Z</time>
      </trkpt>
      <trkpt lat="46.49628" lon="-1.79434">
        <ele>4.8</ele>
        <time>2021-09-25T13:49:33Z</time>
      </trkpt>
      <trkpt lat="46.49628" lon="-1.79433">
        <ele>4.8</ele>
        <time>2021-09-25T13:49:34Z</time>
      </trkpt>
      <trkpt lat="46.49628" lon="-1.79432">
        <ele>4.8</ele>
        <time>2021-09-25T13:49:35Z</time>
      </trkpt>
      <trkpt lat="46.49628" lon="-1.79431">
        <ele>4.8</ele>
        <time>2021-09-25T13:49:36Z</time>
      </trkpt>
      <trkpt lat="46.49628" lon="-1.79429">
        <ele>4.8</ele>
        <time>2021-09-25T13:49:37Z</time>
      </trkpt>
      <trkpt lat="46.49628" lon="-1.79428">
        <ele>4.8</ele>
        <time>2021-09-25T13:49:38Z</time>
      </trkpt>
      <trkpt lat="46.49628" lon="-1.79427">
        <ele>4.8</ele>
        <time>2021-09-25T13:49:39Z</time>
      </trkpt>
      <trkpt lat="46.49628" lon="-1.79426">
        <ele>4.8</ele>
        <time>2021-09-25T13:49:40Z</time>
      </trkpt>
      <trkpt lat="46.49629" lon="-1.79424">
        <ele>4.8</ele>
        <time>2021-09-25T13:49:41Z</time>
      </trkpt>
      <trkpt lat="46.49629" lon="-1.79423">
        <ele>4.7</ele>
        <time>2021-09-25T13:49:42Z</time>
      </trkpt>
      <trkpt lat="46.49629" lon="-1.79422">
        <ele>4.7</ele>
        <time>2021-09-25T13:49:43Z</time>
      </trkpt>
      <trkpt lat="46.49629" lon="-1.79421">
        <ele>4.7</ele>
        <time>2021-09-25T13:49:44Z</time>
      </trkpt>
      <trkpt lat="46.4963" lon="-1.7942">
        <ele>4.7</ele>
        <time>2021-09-25T13:49:45Z</time>
      </trkpt>
      <trkpt lat="46.4963" lon="-1.79419">
        <ele>4.7</ele>
        <time>2021-09-25T13:49:46Z</time>
      </trkpt>
      <trkpt lat="46.4963" lon="-1.79418">
        <ele>4.7</ele>
        <time>2021-09-25T13:49:47Z</time>
      </trkpt>
      <trkpt lat="46.49631" lon="-1.79417">
        <ele>4.7</ele>
        <time>2021-09-25T13:49:48Z</time>
      </trkpt>
      <trkpt lat="46.49631" lon="-1.79416">
        <ele>4.7</ele>
        <time>2021-09-25T13:49:49Z</time>
      </trkpt>
      <trkpt lat="46.49631" lon="-1.79415">
        <ele>4.7</ele>
        <time>2021-09-25T13:49:50Z</time>
      </trkpt>
      <trkpt lat="46.49632" lon="-1.79414">
        <ele>4.7</ele>
        <time>2021-09-25T13:49:51Z</time>
      </trkpt>
      <trkpt lat="46.49632" lon="-1.79413">
        <ele>4.7</ele>
        <time>2021-09-25T13:49:52Z</time>
      </trkpt>
      <trkpt lat="46.49633" lon="-1.79412">
        <ele>4.7</ele>
        <time>2021-09-25T13:49:53Z</time>
      </trkpt>
      <trkpt lat="46.49633" lon="-1.79411">
        <ele>4.7</ele>
        <time>2021-09-25T13:49:54Z</time>
      </trkpt>
      <trkpt lat="46.49633" lon="-1.7941">
        <ele>4.7</ele>
        <time>2021-09-25T13:49:55Z</time>
      </trkpt>
      <trkpt lat="46.49634" lon="-1.79409">
        <ele>4.7</ele>
        <time>2021-09-25T13:49:56Z</time>
      </trkpt>
      <trkpt lat="46.49634" lon="-1.79407">
        <ele>4.7</ele>
        <time>2021-09-25T13:49:57Z</time>
      </trkpt>
      <trkpt lat="46.49634" lon="-1.79406">
        <ele>4.7</ele>
        <time>2021-09-25T13:49:58Z</time>
      </trkpt>
      <trkpt lat="46.49635" lon="-1.79404">
        <ele>4.7</ele>
        <time>2021-09-25T13:49:59Z</time>
      </trkpt>
      <trkpt lat="46.49635" lon="-1.79403">
        <ele>4.7</ele>
        <time>2021-09-25T13:50:00Z</time>
      </trkpt>
      <trkpt lat="46.49635" lon="-1.79401">
        <ele>4.7</ele>
        <time>2021-09-25T13:50:01Z</time>
      </trkpt>
      <trkpt lat="46.49636" lon="-1.794">
        <ele>4.7</ele>
        <time>2021-09-25T13:50:02Z</time>
      </trkpt>
      <trkpt lat="46.49636" lon="-1.79399">
        <ele>4.7</ele>
        <time>2021-09-25T13:50:03Z</time>
      </trkpt>
      <trkpt lat="46.49636" lon="-1.79397">
        <ele>4.7</ele>
        <time>2021-09-25T13:50:04Z</time>
      </trkpt>
      <trkpt lat="46.49637" lon="-1.79396">
        <ele>4.7</ele>
        <time>2021-09-25T13:50:05Z</time>
      </trkpt>
      <trkpt lat="46.49637" lon="-1.79395">
        <ele>4.7</ele>
        <time>2021-09-25T13:50:06Z</time>
      </trkpt>
      <trkpt lat="46.49637" lon="-1.79394">
        <ele>4.7</ele>
        <time>2021-09-25T13:50:07Z</time>
      </trkpt>
      <trkpt lat="46.49638" lon="-1.79392">
        <ele>4.7</ele>
        <time>2021-09-25T13:50:08Z</time>
      </trkpt>
      <trkpt lat="46.49638" lon="-1.79391">
        <ele>4.7</ele>
        <time>2021-09-25T13:50:09Z</time>
      </trkpt>
      <trkpt lat="46.49639" lon="-1.7939">
        <ele>4.7</ele>
        <time>2021-09-25T13:50:10Z</time>
      </trkpt>
      <trkpt lat="46.49639" lon="-1.79388">
        <ele>4.7</ele>
        <time>2021-09-25T13:50:11Z</time>
      </trkpt>
      <trkpt lat="46.49639" lon="-1.79387">
        <ele>4.7</ele>
        <time>2021-09-25T13:50:12Z</time>
      </trkpt>
      <trkpt lat="46.49639" lon="-1.79386">
        <ele>4.7</ele>
        <time>2021-09-25T13:50:13Z</time>
      </trkpt>
      <trkpt lat="46.4964" lon="-1.79384">
        <ele>4.7</ele>
        <time>2021-09-25T13:50:14Z</time>
      </trkpt>
      <trkpt lat="46.4964" lon="-1.79383">
        <ele>4.7</ele>
        <time>2021-09-25T13:50:15Z</time>
      </trkpt>
      <trkpt lat="46.4964" lon="-1.79381">
        <ele>4.7</ele>
        <time>2021-09-25T13:50:16Z</time>
      </trkpt>
      <trkpt lat="46.4964" lon="-1.7938">
        <ele>4.7</ele>
        <time>2021-09-25T13:50:17Z</time>
      </trkpt>
      <trkpt lat="46.49641" lon="-1.79379">
        <ele>4.7</ele>
        <time>2021-09-25T13:50:18Z</time>
      </trkpt>
      <trkpt lat="46.49641" lon="-1.79377">
        <ele>4.7</ele>
        <time>2021-09-25T13:50:19Z</time>
      </trkpt>
      <trkpt lat="46.49641" lon="-1.79376">
        <ele>4.7</ele>
        <time>2021-09-25T13:50:20Z</time>
      </trkpt>
      <trkpt lat="46.49641" lon="-1.79375">
        <ele>4.7</ele>
        <time>2021-09-25T13:50:21Z</time>
      </trkpt>
      <trkpt lat="46.49641" lon="-1.79375">
        <ele>4.7</ele>
        <time>2021-09-25T13:50:22Z</time>
      </trkpt>
      <trkpt lat="46.49641" lon="-1.79374">
        <ele>4.7</ele>
        <time>2021-09-25T13:50:23Z</time>
      </trkpt>
      <trkpt lat="46.49641" lon="-1.79373">
        <ele>4.7</ele>
        <time>2021-09-25T13:50:24Z</time>
      </trkpt>
      <trkpt lat="46.49641" lon="-1.79373">
        <ele>4.7</ele>
        <time>2021-09-25T13:50:25Z</time>
      </trkpt>
      <trkpt lat="46.49641" lon="-1.79373">
        <ele>4.7</ele>
        <time>2021-09-25T13:50:26Z</time>
      </trkpt>
      <trkpt lat="46.49641" lon="-1.79372">
        <ele>4.7</ele>
        <time>2021-09-25T13:50:27Z</time>
      </trkpt>
      <trkpt lat="46.49641" lon="-1.79372">
        <ele>4.7</ele>
        <time>2021-09-25T13:50:28Z</time>
      </trkpt>
      <trkpt lat="46.49641" lon="-1.79372">
        <ele>4.7</ele>
        <time>2021-09-25T13:50:29Z</time>
      </trkpt>
      <trkpt lat="46.49641" lon="-1.79372">
        <ele>4.7</ele>
        <time>2021-09-25T13:50:30Z</time>
      </trkpt>
      <trkpt lat="46.49641" lon="-1.79372">
        <ele>4.7</ele>
        <time>2021-09-25T13:50:31Z</time>
      </trkpt>
      <trkpt lat="46.49641" lon="-1.79372">
        <ele>4.7</ele>
        <time>2021-09-25T13:50:32Z</time>
      </trkpt>
      <trkpt lat="46.49641" lon="-1.79372">
        <ele>4.7</ele>
        <time>2021-09-25T13:50:33Z</time>
      </trkpt>
      <trkpt lat="46.49641" lon="-1.79372">
        <ele>4.7</ele>
        <time>2021-09-25T13:50:34Z</time>
      </trkpt>
      <trkpt lat="46.49641" lon="-1.79371">
        <ele>4.7</ele>
        <time>2021-09-25T13:50:35Z</time>
      </trkpt>
      <trkpt lat="46.49641" lon="-1.79371">
        <ele>4.7</ele>
        <time>2021-09-25T13:50:36Z</time>
      </trkpt>
      <trkpt lat="46.49641" lon="-1.79371">
        <ele>4.7</ele>
        <time>2021-09-25T13:50:37Z</time>
      </trkpt>
      <trkpt lat="46.49641" lon="-1.79371">
        <ele>4.7</ele>
        <time>2021-09-25T13:50:38Z</time>
      </trkpt>
      <trkpt lat="46.49641" lon="-1.79371">
        <ele>4.7</ele>
        <time>2021-09-25T13:50:39Z</time>
      </trkpt>
      <trkpt lat="46.49641" lon="-1.79371">
        <ele>4.7</ele>
        <time>2021-09-25T13:50:40Z</time>
      </trkpt>
      <trkpt lat="46.49641" lon="-1.79371">
        <ele>4.7</ele>
        <time>2021-09-25T13:50:41Z</time>
      </trkpt>
      <trkpt lat="46.49641" lon="-1.79371">
        <ele>4.7</ele>
        <time>2021-09-25T13:50:42Z</time>
      </trkpt>
      <trkpt lat="46.49641" lon="-1.79371">
        <ele>4.7</ele>
        <time>2021-09-25T13:50:43Z</time>
      </trkpt>
      <trkpt lat="46.49641" lon="-1.79371">
        <ele>4.7</ele>
        <time>2021-09-25T13:50:44Z</time>
      </trkpt>
      <trkpt lat="46.49641" lon="-1.79371">
        <ele>4.7</ele>
        <time>2021-09-25T13:50:45Z</time>
      </trkpt>
      <trkpt lat="46.49641" lon="-1.79371">
        <ele>4.7</ele>
        <time>2021-09-25T13:50:46Z</time>
      </trkpt>
      <trkpt lat="46.49641" lon="-1.79371">
        <ele>4.7</ele>
        <time>2021-09-25T13:50:47Z</time>
      </trkpt>
      <trkpt lat="46.49641" lon="-1.79371">
        <ele>4.7</ele>
        <time>2021-09-25T13:50:48Z</time>
      </trkpt>
      <trkpt lat="46.49641" lon="-1.79371">
        <ele>4.7</ele>
        <time>2021-09-25T13:50:49Z</time>
      </trkpt>
      <trkpt lat="46.49641" lon="-1.79371">
        <ele>4.7</ele>
        <time>2021-09-25T13:50:50Z</time>
      </trkpt>
      <trkpt lat="46.49641" lon="-1.79371">
        <ele>4.7</ele>
        <time>2021-09-25T13:50:51Z</time>
      </trkpt>
      <trkpt lat="46.49641" lon="-1.79371">
        <ele>4.7</ele>
        <time>2021-09-25T13:50:52Z</time>
      </trkpt>
      <trkpt lat="46.49641" lon="-1.79371">
        <ele>4.7</ele>
        <time>2021-09-25T13:50:53Z</time>
      </trkpt>
      <trkpt lat="46.49641" lon="-1.79371">
        <ele>4.7</ele>
        <time>2021-09-25T13:50:54Z</time>
      </trkpt>
      <trkpt lat="46.49641" lon="-1.79371">
        <ele>4.7</ele>
        <time>2021-09-25T13:50:55Z</time>
      </trkpt>
      <trkpt lat="46.49641" lon="-1.79371">
        <ele>4.7</ele>
        <time>2021-09-25T13:50:56Z</time>
      </trkpt>
      <trkpt lat="46.49641" lon="-1.79371">
        <ele>4.7</ele>
        <time>2021-09-25T13:50:57Z</time>
      </trkpt>
      <trkpt lat="46.49641" lon="-1.79371">
        <ele>4.7</ele>
        <time>2021-09-25T13:50:58Z</time>
      </trkpt>
      <trkpt lat="46.49641" lon="-1.79371">
        <ele>4.7</ele>
        <time>2021-09-25T13:50:59Z</time>
      </trkpt>
      <trkpt lat="46.49641" lon="-1.79371">
        <ele>4.7</ele>
        <time>2021-09-25T13:51:00Z</time>
      </trkpt>
      <trkpt lat="46.49641" lon="-1.79371">
        <ele>4.7</ele>
        <time>2021-09-25T13:51:01Z</time>
      </trkpt>
      <trkpt lat="46.49641" lon="-1.79371">
        <ele>4.7</ele>
        <time>2021-09-25T13:51:02Z</time>
      </trkpt>
      <trkpt lat="46.49641" lon="-1.79371">
        <ele>4.7</ele>
        <time>2021-09-25T13:51:03Z</time>
      </trkpt>
      <trkpt lat="46.49641" lon="-1.79371">
        <ele>4.7</ele>
        <time>2021-09-25T13:51:04Z</time>
      </trkpt>
      <trkpt lat="46.49641" lon="-1.79371">
        <ele>4.7</ele>
        <time>2021-09-25T13:51:05Z</time>
      </trkpt>
      <trkpt lat="46.49641" lon="-1.79371">
        <ele>4.7</ele>
        <time>2021-09-25T13:51:06Z</time>
      </trkpt>
      <trkpt lat="46.49641" lon="-1.79371">
        <ele>4.7</ele>
        <time>2021-09-25T13:51:07Z</time>
      </trkpt>
      <trkpt lat="46.49641" lon="-1.79371">
        <ele>4.7</ele>
        <time>2021-09-25T13:51:08Z</time>
      </trkpt>
      <trkpt lat="46.49641" lon="-1.79371">
        <ele>4.7</ele>
        <time>2021-09-25T13:51:09Z</time>
      </trkpt>
      <trkpt lat="46.49641" lon="-1.7937">
        <ele>4.7</ele>
        <time>2021-09-25T13:51:10Z</time>
      </trkpt>
      <trkpt lat="46.49642" lon="-1.7937">
        <ele>4.7</ele>
        <time>2021-09-25T13:51:11Z</time>
      </trkpt>
      <trkpt lat="46.49642" lon="-1.79368">
        <ele>4.7</ele>
        <time>2021-09-25T13:51:12Z</time>
      </trkpt>
      <trkpt lat="46.49642" lon="-1.79366">
        <ele>4.7</ele>
        <time>2021-09-25T13:51:13Z</time>
      </trkpt>
      <trkpt lat="46.49642" lon="-1.79365">
        <ele>4.7</ele>
        <time>2021-09-25T13:51:14Z</time>
      </trkpt>
      <trkpt lat="46.49642" lon="-1.79363">
        <ele>4.7</ele>
        <time>2021-09-25T13:51:15Z</time>
      </trkpt>
      <trkpt lat="46.49642" lon="-1.79362">
        <ele>4.7</ele>
        <time>2021-09-25T13:51:16Z</time>
      </trkpt>
      <trkpt lat="46.49642" lon="-1.79362">
        <ele>4.7</ele>
        <time>2021-09-25T13:51:17Z</time>
      </trkpt>
      <trkpt lat="46.49642" lon="-1.79361">
        <ele>4.7</ele>
        <time>2021-09-25T13:51:18Z</time>
      </trkpt>
      <trkpt lat="46.49642" lon="-1.79361">
        <ele>4.7</ele>
        <time>2021-09-25T13:51:19Z</time>
      </trkpt>
      <trkpt lat="46.49642" lon="-1.79361">
        <ele>4.7</ele>
        <time>2021-09-25T13:51:20Z</time>
      </trkpt>
      <trkpt lat="46.49642" lon="-1.79361">
        <ele>4.7</ele>
        <time>2021-09-25T13:51:21Z</time>
      </trkpt>
      <trkpt lat="46.49642" lon="-1.79361">
        <ele>4.7</ele>
        <time>2021-09-25T13:51:22Z</time>
      </trkpt>
      <trkpt lat="46.49642" lon="-1.79361">
        <ele>4.7</ele>
        <time>2021-09-25T13:51:23Z</time>
      </trkpt>
      <trkpt lat="46.49642" lon="-1.79361">
        <ele>4.7</ele>
        <time>2021-09-25T13:51:24Z</time>
      </trkpt>
      <trkpt lat="46.49642" lon="-1.79361">
        <ele>4.7</ele>
        <time>2021-09-25T13:51:25Z</time>
      </trkpt>
      <trkpt lat="46.49642" lon="-1.79361">
        <ele>4.7</ele>
        <time>2021-09-25T13:51:26Z</time>
      </trkpt>
      <trkpt lat="46.49642" lon="-1.7936">
        <ele>4.7</ele>
        <time>2021-09-25T13:51:27Z</time>
      </trkpt>
      <trkpt lat="46.49642" lon="-1.79359">
        <ele>4.7</ele>
        <time>2021-09-25T13:51:28Z</time>
      </trkpt>
      <trkpt lat="46.49642" lon="-1.79359">
        <ele>4.7</ele>
        <time>2021-09-25T13:51:29Z</time>
      </trkpt>
      <trkpt lat="46.49642" lon="-1.79358">
        <ele>4.7</ele>
        <time>2021-09-25T13:51:30Z</time>
      </trkpt>
      <trkpt lat="46.49642" lon="-1.79356">
        <ele>4.7</ele>
        <time>2021-09-25T13:51:31Z</time>
      </trkpt>
      <trkpt lat="46.49643" lon="-1.79355">
        <ele>4.7</ele>
        <time>2021-09-25T13:51:32Z</time>
      </trkpt>
      <trkpt lat="46.49643" lon="-1.79353">
        <ele>4.7</ele>
        <time>2021-09-25T13:51:33Z</time>
      </trkpt>
      <trkpt lat="46.49643" lon="-1.79352">
        <ele>4.7</ele>
        <time>2021-09-25T13:51:34Z</time>
      </trkpt>
      <trkpt lat="46.49643" lon="-1.7935">
        <ele>4.7</ele>
        <time>2021-09-25T13:51:35Z</time>
      </trkpt>
      <trkpt lat="46.49644" lon="-1.79349">
        <ele>4.7</ele>
        <time>2021-09-25T13:51:36Z</time>
      </trkpt>
      <trkpt lat="46.49644" lon="-1.79348">
        <ele>4.7</ele>
        <time>2021-09-25T13:51:37Z</time>
      </trkpt>
      <trkpt lat="46.49644" lon="-1.79347">
        <ele>4.7</ele>
        <time>2021-09-25T13:51:38Z</time>
      </trkpt>
      <trkpt lat="46.49644" lon="-1.79346">
        <ele>4.7</ele>
        <time>2021-09-25T13:51:39Z</time>
      </trkpt>
      <trkpt lat="46.49644" lon="-1.79346">
        <ele>4.7</ele>
        <time>2021-09-25T13:51:40Z</time>
      </trkpt>
      <trkpt lat="46.49644" lon="-1.79346">
        <ele>4.7</ele>
        <time>2021-09-25T13:51:41Z</time>
      </trkpt>
      <trkpt lat="46.49644" lon="-1.79346">
        <ele>4.7</ele>
        <time>2021-09-25T13:51:42Z</time>
      </trkpt>
      <trkpt lat="46.49644" lon="-1.79345">
        <ele>4.7</ele>
        <time>2021-09-25T13:51:43Z</time>
      </trkpt>
      <trkpt lat="46.49644" lon="-1.79345">
        <ele>4.7</ele>
        <time>2021-09-25T13:51:44Z</time>
      </trkpt>
      <trkpt lat="46.49644" lon="-1.79345">
        <ele>4.7</ele>
        <time>2021-09-25T13:51:45Z</time>
      </trkpt>
      <trkpt lat="46.49644" lon="-1.79345">
        <ele>4.7</ele>
        <time>2021-09-25T13:51:46Z</time>
      </trkpt>
      <trkpt lat="46.49644" lon="-1.79345">
        <ele>4.7</ele>
        <time>2021-09-25T13:51:47Z</time>
      </trkpt>
      <trkpt lat="46.49644" lon="-1.79345">
        <ele>4.7</ele>
        <time>2021-09-25T13:51:48Z</time>
      </trkpt>
      <trkpt lat="46.49644" lon="-1.79345">
        <ele>4.7</ele>
        <time>2021-09-25T13:51:49Z</time>
      </trkpt>
      <trkpt lat="46.49644" lon="-1.79345">
        <ele>4.7</ele>
        <time>2021-09-25T13:51:50Z</time>
      </trkpt>
      <trkpt lat="46.49644" lon="-1.79345">
        <ele>4.7</ele>
        <time>2021-09-25T13:51:51Z</time>
      </trkpt>
      <trkpt lat="46.49644" lon="-1.79345">
        <ele>4.7</ele>
        <time>2021-09-25T13:51:52Z</time>
      </trkpt>
      <trkpt lat="46.49644" lon="-1.79345">
        <ele>4.7</ele>
        <time>2021-09-25T13:51:53Z</time>
      </trkpt>
      <trkpt lat="46.49644" lon="-1.79345">
        <ele>4.7</ele>
        <time>2021-09-25T13:51:54Z</time>
      </trkpt>
      <trkpt lat="46.49644" lon="-1.79345">
        <ele>4.7</ele>
        <time>2021-09-25T13:51:55Z</time>
      </trkpt>
      <trkpt lat="46.49644" lon="-1.79345">
        <ele>4.7</ele>
        <time>2021-09-25T13:51:56Z</time>
      </trkpt>
      <trkpt lat="46.49644" lon="-1.79345">
        <ele>4.7</ele>
        <time>2021-09-25T13:51:57Z</time>
      </trkpt>
      <trkpt lat="46.49644" lon="-1.79345">
        <ele>4.7</ele>
        <time>2021-09-25T13:51:58Z</time>
      </trkpt>
      <trkpt lat="46.49644" lon="-1.79344">
        <ele>4.7</ele>
        <time>2021-09-25T13:51:59Z</time>
      </trkpt>
      <trkpt lat="46.49644" lon="-1.79344">
        <ele>4.7</ele>
        <time>2021-09-25T13:52:00Z</time>
      </trkpt>
      <trkpt lat="46.49644" lon="-1.79343">
        <ele>4.7</ele>
        <time>2021-09-25T13:52:01Z</time>
      </trkpt>
      <trkpt lat="46.49644" lon="-1.79342">
        <ele>4.7</ele>
        <time>2021-09-25T13:52:02Z</time>
      </trkpt>
      <trkpt lat="46.49644" lon="-1.7934">
        <ele>4.7</ele>
        <time>2021-09-25T13:52:03Z</time>
      </trkpt>
      <trkpt lat="46.49644" lon="-1.79339">
        <ele>4.7</ele>
        <time>2021-09-25T13:52:04Z</time>
      </trkpt>
      <trkpt lat="46.49645" lon="-1.79337">
        <ele>4.7</ele>
        <time>2021-09-25T13:52:05Z</time>
      </trkpt>
      <trkpt lat="46.49645" lon="-1.79336">
        <ele>4.7</ele>
        <time>2021-09-25T13:52:06Z</time>
      </trkpt>
      <trkpt lat="46.49645" lon="-1.79334">
        <ele>4.7</ele>
        <time>2021-09-25T13:52:07Z</time>
      </trkpt>
      <trkpt lat="46.49645" lon="-1.79333">
        <ele>4.7</ele>
        <time>2021-09-25T13:52:08Z</time>
      </trkpt>
      <trkpt lat="46.49645" lon="-1.79331">
        <ele>4.7</ele>
        <time>2021-09-25T13:52:09Z</time>
      </trkpt>
      <trkpt lat="46.49645" lon="-1.7933">
        <ele>4.7</ele>
        <time>2021-09-25T13:52:10Z</time>
      </trkpt>
      <trkpt lat="46.49645" lon="-1.79329">
        <ele>4.7</ele>
        <time>2021-09-25T13:52:11Z</time>
      </trkpt>
      <trkpt lat="46.49645" lon="-1.79328">
        <ele>4.7</ele>
        <time>2021-09-25T13:52:12Z</time>
      </trkpt>
      <trkpt lat="46.49644" lon="-1.79327">
        <ele>4.7</ele>
        <time>2021-09-25T13:52:13Z</time>
      </trkpt>
      <trkpt lat="46.49644" lon="-1.79326">
        <ele>4.7</ele>
        <time>2021-09-25T13:52:14Z</time>
      </trkpt>
      <trkpt lat="46.49644" lon="-1.79325">
        <ele>4.7</ele>
        <time>2021-09-25T13:52:15Z</time>
      </trkpt>
      <trkpt lat="46.49644" lon="-1.79324">
        <ele>4.7</ele>
        <time>2021-09-25T13:52:16Z</time>
      </trkpt>
      <trkpt lat="46.49644" lon="-1.79323">
        <ele>4.7</ele>
        <time>2021-09-25T13:52:17Z</time>
      </trkpt>
      <trkpt lat="46.49643" lon="-1.79322">
        <ele>4.7</ele>
        <time>2021-09-25T13:52:18Z</time>
      </trkpt>
      <trkpt lat="46.49643" lon="-1.79321">
        <ele>4.7</ele>
        <time>2021-09-25T13:52:19Z</time>
      </trkpt>
      <trkpt lat="46.49643" lon="-1.79319">
        <ele>4.7</ele>
        <time>2021-09-25T13:52:20Z</time>
      </trkpt>
      <trkpt lat="46.49643" lon="-1.79318">
        <ele>4.7</ele>
        <time>2021-09-25T13:52:21Z</time>
      </trkpt>
      <trkpt lat="46.49643" lon="-1.79317">
        <ele>4.7</ele>
        <time>2021-09-25T13:52:22Z</time>
      </trkpt>
      <trkpt lat="46.49643" lon="-1.79316">
        <ele>4.7</ele>
        <time>2021-09-25T13:52:23Z</time>
      </trkpt>
      <trkpt lat="46.49643" lon="-1.79316">
        <ele>4.7</ele>
        <time>2021-09-25T13:52:24Z</time>
      </trkpt>
      <trkpt lat="46.49643" lon="-1.79315">
        <ele>4.7</ele>
        <time>2021-09-25T13:52:25Z</time>
      </trkpt>
      <trkpt lat="46.49643" lon="-1.79315">
        <ele>4.7</ele>
        <time>2021-09-25T13:52:26Z</time>
      </trkpt>
      <trkpt lat="46.49643" lon="-1.79315">
        <ele>4.7</ele>
        <time>2021-09-25T13:52:27Z</time>
      </trkpt>
      <trkpt lat="46.49643" lon="-1.79315">
        <ele>4.7</ele>
        <time>2021-09-25T13:52:28Z</time>
      </trkpt>
      <trkpt lat="46.49643" lon="-1.79315">
        <ele>4.7</ele>
        <time>2021-09-25T13:52:29Z</time>
      </trkpt>
      <trkpt lat="46.49643" lon="-1.79315">
        <ele>4.7</ele>
        <time>2021-09-25T13:52:30Z</time>
      </trkpt>
      <trkpt lat="46.49643" lon="-1.79315">
        <ele>4.7</ele>
        <time>2021-09-25T13:52:31Z</time>
      </trkpt>
      <trkpt lat="46.49643" lon="-1.79315">
        <ele>4.7</ele>
        <time>2021-09-25T13:52:32Z</time>
      </trkpt>
      <trkpt lat="46.49643" lon="-1.79315">
        <ele>4.7</ele>
        <time>2021-09-25T13:52:33Z</time>
      </trkpt>
      <trkpt lat="46.49643" lon="-1.79315">
        <ele>4.7</ele>
        <time>2021-09-25T13:52:34Z</time>
      </trkpt>
      <trkpt lat="46.49643" lon="-1.79315">
        <ele>4.7</ele>
        <time>2021-09-25T13:52:35Z</time>
      </trkpt>
      <trkpt lat="46.49643" lon="-1.79315">
        <ele>4.7</ele>
        <time>2021-09-25T13:52:36Z</time>
      </trkpt>
      <trkpt lat="46.49643" lon="-1.79315">
        <ele>4.7</ele>
        <time>2021-09-25T13:52:37Z</time>
      </trkpt>
      <trkpt lat="46.49643" lon="-1.79315">
        <ele>4.7</ele>
        <time>2021-09-25T13:52:38Z</time>
      </trkpt>
      <trkpt lat="46.49643" lon="-1.79314">
        <ele>4.7</ele>
        <time>2021-09-25T13:52:39Z</time>
      </trkpt>
      <trkpt lat="46.49643" lon="-1.79314">
        <ele>4.7</ele>
        <time>2021-09-25T13:52:40Z</time>
      </trkpt>
      <trkpt lat="46.49643" lon="-1.79313">
        <ele>4.7</ele>
        <time>2021-09-25T13:52:41Z</time>
      </trkpt>
      <trkpt lat="46.49643" lon="-1.79312">
        <ele>4.7</ele>
        <time>2021-09-25T13:52:42Z</time>
      </trkpt>
      <trkpt lat="46.49643" lon="-1.79311">
        <ele>4.7</ele>
        <time>2021-09-25T13:52:43Z</time>
      </trkpt>
      <trkpt lat="46.49643" lon="-1.7931">
        <ele>4.7</ele>
        <time>2021-09-25T13:52:44Z</time>
      </trkpt>
      <trkpt lat="46.49643" lon="-1.79309">
        <ele>4.7</ele>
        <time>2021-09-25T13:52:45Z</time>
      </trkpt>
      <trkpt lat="46.49643" lon="-1.79308">
        <ele>4.7</ele>
        <time>2021-09-25T13:52:46Z</time>
      </trkpt>
      <trkpt lat="46.49642" lon="-1.79306">
        <ele>4.7</ele>
        <time>2021-09-25T13:52:47Z</time>
      </trkpt>
      <trkpt lat="46.49642" lon="-1.79305">
        <ele>4.7</ele>
        <time>2021-09-25T13:52:48Z</time>
      </trkpt>
      <trkpt lat="46.49642" lon="-1.79304">
        <ele>4.7</ele>
        <time>2021-09-25T13:52:49Z</time>
      </trkpt>
      <trkpt lat="46.49642" lon="-1.79302">
        <ele>4.7</ele>
        <time>2021-09-25T13:52:50Z</time>
      </trkpt>
      <trkpt lat="46.49642" lon="-1.79301">
        <ele>4.7</ele>
        <time>2021-09-25T13:52:51Z</time>
      </trkpt>
      <trkpt lat="46.49642" lon="-1.793">
        <ele>4.7</ele>
        <time>2021-09-25T13:52:52Z</time>
      </trkpt>
      <trkpt lat="46.49642" lon="-1.79299">
        <ele>4.7</ele>
        <time>2021-09-25T13:52:53Z</time>
      </trkpt>
      <trkpt lat="46.49642" lon="-1.79299">
        <ele>4.7</ele>
        <time>2021-09-25T13:52:54Z</time>
      </trkpt>
      <trkpt lat="46.49642" lon="-1.79298">
        <ele>4.7</ele>
        <time>2021-09-25T13:52:55Z</time>
      </trkpt>
      <trkpt lat="46.49642" lon="-1.79297">
        <ele>4.7</ele>
        <time>2021-09-25T13:52:56Z</time>
      </trkpt>
      <trkpt lat="46.49642" lon="-1.79296">
        <ele>4.7</ele>
        <time>2021-09-25T13:52:57Z</time>
      </trkpt>
      <trkpt lat="46.49642" lon="-1.79295">
        <ele>4.7</ele>
        <time>2021-09-25T13:52:58Z</time>
      </trkpt>
      <trkpt lat="46.49642" lon="-1.79295">
        <ele>4.7</ele>
        <time>2021-09-25T13:52:59Z</time>
      </trkpt>
      <trkpt lat="46.49642" lon="-1.79294">
        <ele>4.7</ele>
        <time>2021-09-25T13:53:00Z</time>
      </trkpt>
      <trkpt lat="46.49642" lon="-1.79293">
        <ele>4.7</ele>
        <time>2021-09-25T13:53:01Z</time>
      </trkpt>
      <trkpt lat="46.49642" lon="-1.79293">
        <ele>4.7</ele>
        <time>2021-09-25T13:53:02Z</time>
      </trkpt>
      <trkpt lat="46.49642" lon="-1.79292">
        <ele>4.7</ele>
        <time>2021-09-25T13:53:03Z</time>
      </trkpt>
      <trkpt lat="46.49642" lon="-1.79291">
        <ele>4.7</ele>
        <time>2021-09-25T13:53:04Z</time>
      </trkpt>
      <trkpt lat="46.49642" lon="-1.7929">
        <ele>4.7</ele>
        <time>2021-09-25T13:53:05Z</time>
      </trkpt>
      <trkpt lat="46.49642" lon="-1.79289">
        <ele>4.7</ele>
        <time>2021-09-25T13:53:06Z</time>
      </trkpt>
      <trkpt lat="46.49641" lon="-1.79288">
        <ele>4.7</ele>
        <time>2021-09-25T13:53:07Z</time>
      </trkpt>
      <trkpt lat="46.49641" lon="-1.79287">
        <ele>4.7</ele>
        <time>2021-09-25T13:53:08Z</time>
      </trkpt>
      <trkpt lat="46.49641" lon="-1.79285">
        <ele>4.7</ele>
        <time>2021-09-25T13:53:09Z</time>
      </trkpt>
      <trkpt lat="46.49641" lon="-1.79284">
        <ele>4.7</ele>
        <time>2021-09-25T13:53:10Z</time>
      </trkpt>
      <trkpt lat="46.49641" lon="-1.79282">
        <ele>4.7</ele>
        <time>2021-09-25T13:53:11Z</time>
      </trkpt>
      <trkpt lat="46.49641" lon="-1.7928">
        <ele>4.7</ele>
        <time>2021-09-25T13:53:12Z</time>
      </trkpt>
      <trkpt lat="46.49641" lon="-1.79278">
        <ele>4.8</ele>
        <time>2021-09-25T13:53:13Z</time>
      </trkpt>
      <trkpt lat="46.49641" lon="-1.79277">
        <ele>4.8</ele>
        <time>2021-09-25T13:53:14Z</time>
      </trkpt>
      <trkpt lat="46.49641" lon="-1.79275">
        <ele>4.8</ele>
        <time>2021-09-25T13:53:15Z</time>
      </trkpt>
      <trkpt lat="46.49641" lon="-1.79274">
        <ele>4.8</ele>
        <time>2021-09-25T13:53:16Z</time>
      </trkpt>
      <trkpt lat="46.49641" lon="-1.79272">
        <ele>4.8</ele>
        <time>2021-09-25T13:53:17Z</time>
      </trkpt>
      <trkpt lat="46.49641" lon="-1.79271">
        <ele>4.8</ele>
        <time>2021-09-25T13:53:18Z</time>
      </trkpt>
      <trkpt lat="46.49641" lon="-1.79269">
        <ele>4.8</ele>
        <time>2021-09-25T13:53:19Z</time>
      </trkpt>
      <trkpt lat="46.49641" lon="-1.79268">
        <ele>4.8</ele>
        <time>2021-09-25T13:53:20Z</time>
      </trkpt>
      <trkpt lat="46.49641" lon="-1.79267">
        <ele>4.8</ele>
        <time>2021-09-25T13:53:21Z</time>
      </trkpt>
      <trkpt lat="46.49641" lon="-1.79265">
        <ele>4.8</ele>
        <time>2021-09-25T13:53:22Z</time>
      </trkpt>
      <trkpt lat="46.49641" lon="-1.79264">
        <ele>4.8</ele>
        <time>2021-09-25T13:53:23Z</time>
      </trkpt>
      <trkpt lat="46.49641" lon="-1.79262">
        <ele>4.8</ele>
        <time>2021-09-25T13:53:24Z</time>
      </trkpt>
      <trkpt lat="46.49641" lon="-1.79261">
        <ele>4.8</ele>
        <time>2021-09-25T13:53:25Z</time>
      </trkpt>
      <trkpt lat="46.49641" lon="-1.7926">
        <ele>4.8</ele>
        <time>2021-09-25T13:53:26Z</time>
      </trkpt>
      <trkpt lat="46.4964" lon="-1.79258">
        <ele>4.8</ele>
        <time>2021-09-25T13:53:27Z</time>
      </trkpt>
      <trkpt lat="46.4964" lon="-1.79257">
        <ele>4.8</ele>
        <time>2021-09-25T13:53:28Z</time>
      </trkpt>
      <trkpt lat="46.4964" lon="-1.79255">
        <ele>4.8</ele>
        <time>2021-09-25T13:53:29Z</time>
      </trkpt>
      <trkpt lat="46.4964" lon="-1.79254">
        <ele>4.8</ele>
        <time>2021-09-25T13:53:30Z</time>
      </trkpt>
      <trkpt lat="46.4964" lon="-1.79253">
        <ele>4.8</ele>
        <time>2021-09-25T13:53:31Z</time>
      </trkpt>
      <trkpt lat="46.49639" lon="-1.79251">
        <ele>4.8</ele>
        <time>2021-09-25T13:53:32Z</time>
      </trkpt>
      <trkpt lat="46.49639" lon="-1.7925">
        <ele>4.8</ele>
        <time>2021-09-25T13:53:33Z</time>
      </trkpt>
      <trkpt lat="46.49639" lon="-1.79248">
        <ele>4.8</ele>
        <time>2021-09-25T13:53:34Z</time>
      </trkpt>
      <trkpt lat="46.49639" lon="-1.79247">
        <ele>4.8</ele>
        <time>2021-09-25T13:53:35Z</time>
      </trkpt>
      <trkpt lat="46.49638" lon="-1.79246">
        <ele>4.8</ele>
        <time>2021-09-25T13:53:36Z</time>
      </trkpt>
      <trkpt lat="46.49638" lon="-1.79244">
        <ele>4.8</ele>
        <time>2021-09-25T13:53:37Z</time>
      </trkpt>
      <trkpt lat="46.49638" lon="-1.79243">
        <ele>4.8</ele>
        <time>2021-09-25T13:53:38Z</time>
      </trkpt>
      <trkpt lat="46.49638" lon="-1.79242">
        <ele>4.8</ele>
        <time>2021-09-25T13:53:39Z</time>
      </trkpt>
      <trkpt lat="46.49637" lon="-1.7924">
        <ele>4.8</ele>
        <time>2021-09-25T13:53:40Z</time>
      </trkpt>
      <trkpt lat="46.49637" lon="-1.79239">
        <ele>4.8</ele>
        <time>2021-09-25T13:53:41Z</time>
      </trkpt>
      <trkpt lat="46.49637" lon="-1.79238">
        <ele>4.8</ele>
        <time>2021-09-25T13:53:42Z</time>
      </trkpt>
      <trkpt lat="46.49637" lon="-1.79236">
        <ele>4.8</ele>
        <time>2021-09-25T13:53:43Z</time>
      </trkpt>
      <trkpt lat="46.49637" lon="-1.79235">
        <ele>4.8</ele>
        <time>2021-09-25T13:53:44Z</time>
      </trkpt>
      <trkpt lat="46.49637" lon="-1.79233">
        <ele>4.8</ele>
        <time>2021-09-25T13:53:45Z</time>
      </trkpt>
      <trkpt lat="46.49636" lon="-1.79232">
        <ele>4.8</ele>
        <time>2021-09-25T13:53:46Z</time>
      </trkpt>
      <trkpt lat="46.49636" lon="-1.79231">
        <ele>4.8</ele>
        <time>2021-09-25T13:53:47Z</time>
      </trkpt>
      <trkpt lat="46.49636" lon="-1.79229">
        <ele>4.8</ele>
        <time>2021-09-25T13:53:48Z</time>
      </trkpt>
      <trkpt lat="46.49636" lon="-1.79228">
        <ele>4.8</ele>
        <time>2021-09-25T13:53:49Z</time>
      </trkpt>
      <trkpt lat="46.49636" lon="-1.79226">
        <ele>4.8</ele>
        <time>2021-09-25T13:53:50Z</time>
      </trkpt>
      <trkpt lat="46.49636" lon="-1.79225">
        <ele>4.8</ele>
        <time>2021-09-25T13:53:51Z</time>
      </trkpt>
      <trkpt lat="46.49636" lon="-1.79223">
        <ele>4.8</ele>
        <time>2021-09-25T13:53:52Z</time>
      </trkpt>
      <trkpt lat="46.49636" lon="-1.79222">
        <ele>4.8</ele>
        <time>2021-09-25T13:53:53Z</time>
      </trkpt>
      <trkpt lat="46.49635" lon="-1.7922">
        <ele>4.8</ele>
        <time>2021-09-25T13:53:54Z</time>
      </trkpt>
      <trkpt lat="46.49635" lon="-1.79219">
        <ele>4.8</ele>
        <time>2021-09-25T13:53:55Z</time>
      </trkpt>
      <trkpt lat="46.49635" lon="-1.79217">
        <ele>4.8</ele>
        <time>2021-09-25T13:53:56Z</time>
      </trkpt>
      <trkpt lat="46.49635" lon="-1.79216">
        <ele>4.8</ele>
        <time>2021-09-25T13:53:57Z</time>
      </trkpt>
      <trkpt lat="46.49635" lon="-1.79214">
        <ele>4.8</ele>
        <time>2021-09-25T13:53:58Z</time>
      </trkpt>
      <trkpt lat="46.49635" lon="-1.79212">
        <ele>4.8</ele>
        <time>2021-09-25T13:53:59Z</time>
      </trkpt>
      <trkpt lat="46.49635" lon="-1.79211">
        <ele>4.8</ele>
        <time>2021-09-25T13:54:00Z</time>
      </trkpt>
      <trkpt lat="46.49635" lon="-1.79209">
        <ele>4.8</ele>
        <time>2021-09-25T13:54:01Z</time>
      </trkpt>
      <trkpt lat="46.49635" lon="-1.79208">
        <ele>4.8</ele>
        <time>2021-09-25T13:54:02Z</time>
      </trkpt>
      <trkpt lat="46.49634" lon="-1.79206">
        <ele>4.8</ele>
        <time>2021-09-25T13:54:03Z</time>
      </trkpt>
      <trkpt lat="46.49634" lon="-1.79204">
        <ele>4.8</ele>
        <time>2021-09-25T13:54:04Z</time>
      </trkpt>
      <trkpt lat="46.49634" lon="-1.79203">
        <ele>4.8</ele>
        <time>2021-09-25T13:54:05Z</time>
      </trkpt>
      <trkpt lat="46.49634" lon="-1.79202">
        <ele>4.8</ele>
        <time>2021-09-25T13:54:06Z</time>
      </trkpt>
      <trkpt lat="46.49634" lon="-1.792">
        <ele>4.8</ele>
        <time>2021-09-25T13:54:07Z</time>
      </trkpt>
      <trkpt lat="46.49634" lon="-1.79199">
        <ele>4.8</ele>
        <time>2021-09-25T13:54:08Z</time>
      </trkpt>
      <trkpt lat="46.49634" lon="-1.79197">
        <ele>4.8</ele>
        <time>2021-09-25T13:54:09Z</time>
      </trkpt>
      <trkpt lat="46.49633" lon="-1.79196">
        <ele>4.8</ele>
        <time>2021-09-25T13:54:10Z</time>
      </trkpt>
      <trkpt lat="46.49633" lon="-1.79195">
        <ele>4.8</ele>
        <time>2021-09-25T13:54:11Z</time>
      </trkpt>
      <trkpt lat="46.49633" lon="-1.79193">
        <ele>4.8</ele>
        <time>2021-09-25T13:54:12Z</time>
      </trkpt>
      <trkpt lat="46.49633" lon="-1.79192">
        <ele>4.8</ele>
        <time>2021-09-25T13:54:13Z</time>
      </trkpt>
      <trkpt lat="46.49633" lon="-1.79191">
        <ele>4.8</ele>
        <time>2021-09-25T13:54:14Z</time>
      </trkpt>
      <trkpt lat="46.49632" lon="-1.79189">
        <ele>4.8</ele>
        <time>2021-09-25T13:54:15Z</time>
      </trkpt>
      <trkpt lat="46.49632" lon="-1.79188">
        <ele>4.8</ele>
        <time>2021-09-25T13:54:16Z</time>
      </trkpt>
      <trkpt lat="46.49632" lon="-1.79186">
        <ele>4.8</ele>
        <time>2021-09-25T13:54:17Z</time>
      </trkpt>
      <trkpt lat="46.49632" lon="-1.79185">
        <ele>4.8</ele>
        <time>2021-09-25T13:54:18Z</time>
      </trkpt>
      <trkpt lat="46.49632" lon="-1.79183">
        <ele>4.8</ele>
        <time>2021-09-25T13:54:19Z</time>
      </trkpt>
      <trkpt lat="46.49631" lon="-1.79182">
        <ele>4.8</ele>
        <time>2021-09-25T13:54:20Z</time>
      </trkpt>
      <trkpt lat="46.49631" lon="-1.79181">
        <ele>4.8</ele>
        <time>2021-09-25T13:54:21Z</time>
      </trkpt>
      <trkpt lat="46.49631" lon="-1.79179">
        <ele>4.8</ele>
        <time>2021-09-25T13:54:22Z</time>
      </trkpt>
      <trkpt lat="46.49631" lon="-1.79178">
        <ele>4.8</ele>
        <time>2021-09-25T13:54:23Z</time>
      </trkpt>
      <trkpt lat="46.49631" lon="-1.79176">
        <ele>4.8</ele>
        <time>2021-09-25T13:54:24Z</time>
      </trkpt>
      <trkpt lat="46.49631" lon="-1.79175">
        <ele>4.8</ele>
        <time>2021-09-25T13:54:25Z</time>
      </trkpt>
      <trkpt lat="46.49632" lon="-1.79174">
        <ele>4.8</ele>
        <time>2021-09-25T13:54:26Z</time>
      </trkpt>
      <trkpt lat="46.49632" lon="-1.79172">
        <ele>4.8</ele>
        <time>2021-09-25T13:54:27Z</time>
      </trkpt>
      <trkpt lat="46.49632" lon="-1.79171">
        <ele>4.8</ele>
        <time>2021-09-25T13:54:28Z</time>
      </trkpt>
      <trkpt lat="46.49632" lon="-1.79169">
        <ele>4.8</ele>
        <time>2021-09-25T13:54:29Z</time>
      </trkpt>
      <trkpt lat="46.49632" lon="-1.79168">
        <ele>4.8</ele>
        <time>2021-09-25T13:54:30Z</time>
      </trkpt>
      <trkpt lat="46.49632" lon="-1.79167">
        <ele>4.8</ele>
        <time>2021-09-25T13:54:31Z</time>
      </trkpt>
      <trkpt lat="46.49633" lon="-1.79165">
        <ele>4.8</ele>
        <time>2021-09-25T13:54:32Z</time>
      </trkpt>
      <trkpt lat="46.49633" lon="-1.79164">
        <ele>4.8</ele>
        <time>2021-09-25T13:54:33Z</time>
      </trkpt>
      <trkpt lat="46.49632" lon="-1.79163">
        <ele>4.8</ele>
        <time>2021-09-25T13:54:34Z</time>
      </trkpt>
      <trkpt lat="46.49632" lon="-1.79161">
        <ele>4.8</ele>
        <time>2021-09-25T13:54:35Z</time>
      </trkpt>
      <trkpt lat="46.49632" lon="-1.7916">
        <ele>4.8</ele>
        <time>2021-09-25T13:54:36Z</time>
      </trkpt>
      <trkpt lat="46.49632" lon="-1.79159">
        <ele>4.8</ele>
        <time>2021-09-25T13:54:37Z</time>
      </trkpt>
      <trkpt lat="46.49632" lon="-1.79158">
        <ele>4.8</ele>
        <time>2021-09-25T13:54:38Z</time>
      </trkpt>
      <trkpt lat="46.49632" lon="-1.79156">
        <ele>4.8</ele>
        <time>2021-09-25T13:54:39Z</time>
      </trkpt>
      <trkpt lat="46.49631" lon="-1.79155">
        <ele>4.8</ele>
        <time>2021-09-25T13:54:40Z</time>
      </trkpt>
      <trkpt lat="46.49631" lon="-1.79154">
        <ele>4.8</ele>
        <time>2021-09-25T13:54:41Z</time>
      </trkpt>
      <trkpt lat="46.49631" lon="-1.79152">
        <ele>4.8</ele>
        <time>2021-09-25T13:54:42Z</time>
      </trkpt>
      <trkpt lat="46.49631" lon="-1.79151">
        <ele>4.8</ele>
        <time>2021-09-25T13:54:43Z</time>
      </trkpt>
      <trkpt lat="46.49631" lon="-1.79149">
        <ele>4.8</ele>
        <time>2021-09-25T13:54:44Z</time>
      </trkpt>
      <trkpt lat="46.49631" lon="-1.79148">
        <ele>4.8</ele>
        <time>2021-09-25T13:54:45Z</time>
      </trkpt>
      <trkpt lat="46.49631" lon="-1.79147">
        <ele>4.8</ele>
        <time>2021-09-25T13:54:46Z</time>
      </trkpt>
      <trkpt lat="46.49631" lon="-1.79145">
        <ele>4.8</ele>
        <time>2021-09-25T13:54:47Z</time>
      </trkpt>
      <trkpt lat="46.4963" lon="-1.79144">
        <ele>4.8</ele>
        <time>2021-09-25T13:54:48Z</time>
      </trkpt>
      <trkpt lat="46.4963" lon="-1.79142">
        <ele>4.8</ele>
        <time>2021-09-25T13:54:49Z</time>
      </trkpt>
      <trkpt lat="46.4963" lon="-1.79141">
        <ele>4.8</ele>
        <time>2021-09-25T13:54:50Z</time>
      </trkpt>
      <trkpt lat="46.4963" lon="-1.7914">
        <ele>4.8</ele>
        <time>2021-09-25T13:54:51Z</time>
      </trkpt>
      <trkpt lat="46.4963" lon="-1.79138">
        <ele>4.8</ele>
        <time>2021-09-25T13:54:52Z</time>
      </trkpt>
      <trkpt lat="46.4963" lon="-1.79137">
        <ele>4.8</ele>
        <time>2021-09-25T13:54:53Z</time>
      </trkpt>
      <trkpt lat="46.4963" lon="-1.79135">
        <ele>4.8</ele>
        <time>2021-09-25T13:54:54Z</time>
      </trkpt>
      <trkpt lat="46.4963" lon="-1.79134">
        <ele>4.8</ele>
        <time>2021-09-25T13:54:55Z</time>
      </trkpt>
      <trkpt lat="46.4963" lon="-1.79133">
        <ele>4.8</ele>
        <time>2021-09-25T13:54:56Z</time>
      </trkpt>
      <trkpt lat="46.4963" lon="-1.79131">
        <ele>4.8</ele>
        <time>2021-09-25T13:54:57Z</time>
      </trkpt>
      <trkpt lat="46.4963" lon="-1.7913">
        <ele>4.8</ele>
        <time>2021-09-25T13:54:58Z</time>
      </trkpt>
      <trkpt lat="46.4963" lon="-1.79128">
        <ele>4.8</ele>
        <time>2021-09-25T13:54:59Z</time>
      </trkpt>
      <trkpt lat="46.4963" lon="-1.79127">
        <ele>4.8</ele>
        <time>2021-09-25T13:55:00Z</time>
      </trkpt>
      <trkpt lat="46.4963" lon="-1.79126">
        <ele>4.8</ele>
        <time>2021-09-25T13:55:01Z</time>
      </trkpt>
      <trkpt lat="46.4963" lon="-1.79124">
        <ele>4.8</ele>
        <time>2021-09-25T13:55:02Z</time>
      </trkpt>
      <trkpt lat="46.4963" lon="-1.79123">
        <ele>4.8</ele>
        <time>2021-09-25T13:55:03Z</time>
      </trkpt>
      <trkpt lat="46.4963" lon="-1.79122">
        <ele>4.8</ele>
        <time>2021-09-25T13:55:04Z</time>
      </trkpt>
      <trkpt lat="46.49629" lon="-1.7912">
        <ele>4.8</ele>
        <time>2021-09-25T13:55:05Z</time>
      </trkpt>
      <trkpt lat="46.49629" lon="-1.79119">
        <ele>4.8</ele>
        <time>2021-09-25T13:55:06Z</time>
      </trkpt>
      <trkpt lat="46.49629" lon="-1.79117">
        <ele>4.8</ele>
        <time>2021-09-25T13:55:07Z</time>
      </trkpt>
      <trkpt lat="46.49629" lon="-1.79116">
        <ele>4.8</ele>
        <time>2021-09-25T13:55:08Z</time>
      </trkpt>
      <trkpt lat="46.49629" lon="-1.79115">
        <ele>4.8</ele>
        <time>2021-09-25T13:55:09Z</time>
      </trkpt>
      <trkpt lat="46.49629" lon="-1.79113">
        <ele>4.8</ele>
        <time>2021-09-25T13:55:10Z</time>
      </trkpt>
      <trkpt lat="46.49629" lon="-1.79112">
        <ele>4.8</ele>
        <time>2021-09-25T13:55:11Z</time>
      </trkpt>
      <trkpt lat="46.49628" lon="-1.7911">
        <ele>4.8</ele>
        <time>2021-09-25T13:55:12Z</time>
      </trkpt>
      <trkpt lat="46.49628" lon="-1.79109">
        <ele>4.8</ele>
        <time>2021-09-25T13:55:13Z</time>
      </trkpt>
      <trkpt lat="46.49628" lon="-1.79108">
        <ele>4.8</ele>
        <time>2021-09-25T13:55:14Z</time>
      </trkpt>
      <trkpt lat="46.49628" lon="-1.79106">
        <ele>4.8</ele>
        <time>2021-09-25T13:55:15Z</time>
      </trkpt>
      <trkpt lat="46.49627" lon="-1.79105">
        <ele>4.8</ele>
        <time>2021-09-25T13:55:16Z</time>
      </trkpt>
      <trkpt lat="46.49627" lon="-1.79103">
        <ele>4.8</ele>
        <time>2021-09-25T13:55:17Z</time>
      </trkpt>
      <trkpt lat="46.49627" lon="-1.79102">
        <ele>4.8</ele>
        <time>2021-09-25T13:55:18Z</time>
      </trkpt>
      <trkpt lat="46.49627" lon="-1.79101">
        <ele>4.8</ele>
        <time>2021-09-25T13:55:19Z</time>
      </trkpt>
      <trkpt lat="46.49627" lon="-1.79099">
        <ele>4.8</ele>
        <time>2021-09-25T13:55:20Z</time>
      </trkpt>
      <trkpt lat="46.49626" lon="-1.79098">
        <ele>4.8</ele>
        <time>2021-09-25T13:55:21Z</time>
      </trkpt>
      <trkpt lat="46.49626" lon="-1.79096">
        <ele>4.8</ele>
        <time>2021-09-25T13:55:22Z</time>
      </trkpt>
      <trkpt lat="46.49626" lon="-1.79095">
        <ele>4.8</ele>
        <time>2021-09-25T13:55:23Z</time>
      </trkpt>
      <trkpt lat="46.49626" lon="-1.79094">
        <ele>4.8</ele>
        <time>2021-09-25T13:55:24Z</time>
      </trkpt>
      <trkpt lat="46.49625" lon="-1.79092">
        <ele>4.8</ele>
        <time>2021-09-25T13:55:25Z</time>
      </trkpt>
      <trkpt lat="46.49625" lon="-1.79091">
        <ele>4.8</ele>
        <time>2021-09-25T13:55:26Z</time>
      </trkpt>
      <trkpt lat="46.49625" lon="-1.7909">
        <ele>4.8</ele>
        <time>2021-09-25T13:55:27Z</time>
      </trkpt>
      <trkpt lat="46.49625" lon="-1.79088">
        <ele>4.8</ele>
        <time>2021-09-25T13:55:28Z</time>
      </trkpt>
      <trkpt lat="46.49624" lon="-1.79087">
        <ele>4.8</ele>
        <time>2021-09-25T13:55:29Z</time>
      </trkpt>
      <trkpt lat="46.49624" lon="-1.79085">
        <ele>4.8</ele>
        <time>2021-09-25T13:55:30Z</time>
      </trkpt>
      <trkpt lat="46.49624" lon="-1.79084">
        <ele>4.8</ele>
        <time>2021-09-25T13:55:31Z</time>
      </trkpt>
      <trkpt lat="46.49624" lon="-1.79083">
        <ele>4.8</ele>
        <time>2021-09-25T13:55:32Z</time>
      </trkpt>
      <trkpt lat="46.49623" lon="-1.79081">
        <ele>4.8</ele>
        <time>2021-09-25T13:55:33Z</time>
      </trkpt>
      <trkpt lat="46.49623" lon="-1.7908">
        <ele>4.8</ele>
        <time>2021-09-25T13:55:34Z</time>
      </trkpt>
      <trkpt lat="46.49623" lon="-1.79079">
        <ele>4.8</ele>
        <time>2021-09-25T13:55:35Z</time>
      </trkpt>
      <trkpt lat="46.49623" lon="-1.79077">
        <ele>4.8</ele>
        <time>2021-09-25T13:55:36Z</time>
      </trkpt>
      <trkpt lat="46.49623" lon="-1.79076">
        <ele>4.8</ele>
        <time>2021-09-25T13:55:37Z</time>
      </trkpt>
      <trkpt lat="46.49623" lon="-1.79074">
        <ele>4.8</ele>
        <time>2021-09-25T13:55:38Z</time>
      </trkpt>
      <trkpt lat="46.49623" lon="-1.79073">
        <ele>4.8</ele>
        <time>2021-09-25T13:55:39Z</time>
      </trkpt>
      <trkpt lat="46.49623" lon="-1.79071">
        <ele>4.8</ele>
        <time>2021-09-25T13:55:40Z</time>
      </trkpt>
      <trkpt lat="46.49623" lon="-1.7907">
        <ele>4.8</ele>
        <time>2021-09-25T13:55:41Z</time>
      </trkpt>
      <trkpt lat="46.49622" lon="-1.79068">
        <ele>4.8</ele>
        <time>2021-09-25T13:55:42Z</time>
      </trkpt>
      <trkpt lat="46.49622" lon="-1.79066">
        <ele>4.8</ele>
        <time>2021-09-25T13:55:43Z</time>
      </trkpt>
      <trkpt lat="46.49622" lon="-1.79065">
        <ele>4.8</ele>
        <time>2021-09-25T13:55:44Z</time>
      </trkpt>
      <trkpt lat="46.49622" lon="-1.79063">
        <ele>4.8</ele>
        <time>2021-09-25T13:55:45Z</time>
      </trkpt>
      <trkpt lat="46.49622" lon="-1.79062">
        <ele>4.8</ele>
        <time>2021-09-25T13:55:46Z</time>
      </trkpt>
      <trkpt lat="46.49622" lon="-1.7906">
        <ele>4.8</ele>
        <time>2021-09-25T13:55:47Z</time>
      </trkpt>
      <trkpt lat="46.49622" lon="-1.79058">
        <ele>4.8</ele>
        <time>2021-09-25T13:55:48Z</time>
      </trkpt>
      <trkpt lat="46.49622" lon="-1.79057">
        <ele>4.8</ele>
        <time>2021-09-25T13:55:49Z</time>
      </trkpt>
      <trkpt lat="46.49622" lon="-1.79055">
        <ele>4.8</ele>
        <time>2021-09-25T13:55:50Z</time>
      </trkpt>
      <trkpt lat="46.49622" lon="-1.79054">
        <ele>4.8</ele>
        <time>2021-09-25T13:55:51Z</time>
      </trkpt>
      <trkpt lat="46.49622" lon="-1.79052">
        <ele>4.8</ele>
        <time>2021-09-25T13:55:52Z</time>
      </trkpt>
      <trkpt lat="46.49622" lon="-1.7905">
        <ele>4.7</ele>
        <time>2021-09-25T13:55:53Z</time>
      </trkpt>
      <trkpt lat="46.49622" lon="-1.79049">
        <ele>4.7</ele>
        <time>2021-09-25T13:55:54Z</time>
      </trkpt>
      <trkpt lat="46.49622" lon="-1.79047">
        <ele>4.7</ele>
        <time>2021-09-25T13:55:55Z</time>
      </trkpt>
      <trkpt lat="46.49622" lon="-1.79046">
        <ele>4.7</ele>
        <time>2021-09-25T13:55:56Z</time>
      </trkpt>
      <trkpt lat="46.49622" lon="-1.79044">
        <ele>4.7</ele>
        <time>2021-09-25T13:55:57Z</time>
      </trkpt>
      <trkpt lat="46.49622" lon="-1.79043">
        <ele>4.7</ele>
        <time>2021-09-25T13:55:58Z</time>
      </trkpt>
      <trkpt lat="46.49622" lon="-1.79041">
        <ele>4.7</ele>
        <time>2021-09-25T13:55:59Z</time>
      </trkpt>
      <trkpt lat="46.49622" lon="-1.7904">
        <ele>4.7</ele>
        <time>2021-09-25T13:56:00Z</time>
      </trkpt>
      <trkpt lat="46.49622" lon="-1.79038">
        <ele>4.7</ele>
        <time>2021-09-25T13:56:01Z</time>
      </trkpt>
      <trkpt lat="46.49622" lon="-1.79037">
        <ele>4.7</ele>
        <time>2021-09-25T13:56:02Z</time>
      </trkpt>
      <trkpt lat="46.49622" lon="-1.79035">
        <ele>4.7</ele>
        <time>2021-09-25T13:56:03Z</time>
      </trkpt>
      <trkpt lat="46.49622" lon="-1.79034">
        <ele>4.7</ele>
        <time>2021-09-25T13:56:04Z</time>
      </trkpt>
      <trkpt lat="46.49622" lon="-1.79032">
        <ele>4.7</ele>
        <time>2021-09-25T13:56:05Z</time>
      </trkpt>
      <trkpt lat="46.49622" lon="-1.79031">
        <ele>4.7</ele>
        <time>2021-09-25T13:56:06Z</time>
      </trkpt>
      <trkpt lat="46.49622" lon="-1.7903">
        <ele>4.7</ele>
        <time>2021-09-25T13:56:07Z</time>
      </trkpt>
      <trkpt lat="46.49622" lon="-1.79029">
        <ele>4.7</ele>
        <time>2021-09-25T13:56:08Z</time>
      </trkpt>
      <trkpt lat="46.49621" lon="-1.79028">
        <ele>4.7</ele>
        <time>2021-09-25T13:56:09Z</time>
      </trkpt>
      <trkpt lat="46.49621" lon="-1.79027">
        <ele>4.7</ele>
        <time>2021-09-25T13:56:10Z</time>
      </trkpt>
      <trkpt lat="46.49621" lon="-1.79026">
        <ele>4.7</ele>
        <time>2021-09-25T13:56:11Z</time>
      </trkpt>
      <trkpt lat="46.49621" lon="-1.79025">
        <ele>4.6</ele>
        <time>2021-09-25T13:56:12Z</time>
      </trkpt>
      <trkpt lat="46.49621" lon="-1.79024">
        <ele>4.6</ele>
        <time>2021-09-25T13:56:13Z</time>
      </trkpt>
      <trkpt lat="46.49621" lon="-1.79023">
        <ele>4.6</ele>
        <time>2021-09-25T13:56:14Z</time>
      </trkpt>
      <trkpt lat="46.49621" lon="-1.79022">
        <ele>4.6</ele>
        <time>2021-09-25T13:56:15Z</time>
      </trkpt>
      <trkpt lat="46.49621" lon="-1.79021">
        <ele>4.6</ele>
        <time>2021-09-25T13:56:16Z</time>
      </trkpt>
      <trkpt lat="46.49622" lon="-1.7902">
        <ele>4.6</ele>
        <time>2021-09-25T13:56:17Z</time>
      </trkpt>
      <trkpt lat="46.49622" lon="-1.79019">
        <ele>4.6</ele>
        <time>2021-09-25T13:56:18Z</time>
      </trkpt>
      <trkpt lat="46.49623" lon="-1.79018">
        <ele>4.6</ele>
        <time>2021-09-25T13:56:19Z</time>
      </trkpt>
      <trkpt lat="46.49623" lon="-1.79018">
        <ele>4.6</ele>
        <time>2021-09-25T13:56:20Z</time>
      </trkpt>
      <trkpt lat="46.49624" lon="-1.79017">
        <ele>4.6</ele>
        <time>2021-09-25T13:56:21Z</time>
      </trkpt>
      <trkpt lat="46.49624" lon="-1.79017">
        <ele>4.6</ele>
        <time>2021-09-25T13:56:22Z</time>
      </trkpt>
      <trkpt lat="46.49624" lon="-1.79017">
        <ele>4.6</ele>
        <time>2021-09-25T13:56:23Z</time>
      </trkpt>
      <trkpt lat="46.49624" lon="-1.79017">
        <ele>4.6</ele>
        <time>2021-09-25T13:56:24Z</time>
      </trkpt>
      <trkpt lat="46.49624" lon="-1.79017">
        <ele>4.6</ele>
        <time>2021-09-25T13:56:25Z</time>
      </trkpt>
      <trkpt lat="46.49625" lon="-1.79017">
        <ele>4.6</ele>
        <time>2021-09-25T13:56:26Z</time>
      </trkpt>
      <trkpt lat="46.49625" lon="-1.79016">
        <ele>4.6</ele>
        <time>2021-09-25T13:56:27Z</time>
      </trkpt>
      <trkpt lat="46.49625" lon="-1.79016">
        <ele>4.6</ele>
        <time>2021-09-25T13:56:28Z</time>
      </trkpt>
      <trkpt lat="46.49626" lon="-1.79016">
        <ele>4.6</ele>
        <time>2021-09-25T13:56:29Z</time>
      </trkpt>
      <trkpt lat="46.49626" lon="-1.79016">
        <ele>4.6</ele>
        <time>2021-09-25T13:56:30Z</time>
      </trkpt>
      <trkpt lat="46.49626" lon="-1.79015">
        <ele>4.6</ele>
        <time>2021-09-25T13:56:31Z</time>
      </trkpt>
      <trkpt lat="46.49627" lon="-1.79015">
        <ele>4.6</ele>
        <time>2021-09-25T13:56:32Z</time>
      </trkpt>
      <trkpt lat="46.49627" lon="-1.79015">
        <ele>4.6</ele>
        <time>2021-09-25T13:56:33Z</time>
      </trkpt>
      <trkpt lat="46.49627" lon="-1.79014">
        <ele>4.6</ele>
        <time>2021-09-25T13:56:34Z</time>
      </trkpt>
      <trkpt lat="46.49628" lon="-1.79013">
        <ele>4.6</ele>
        <time>2021-09-25T13:56:35Z</time>
      </trkpt>
      <trkpt lat="46.49628" lon="-1.79013">
        <ele>4.6</ele>
        <time>2021-09-25T13:56:36Z</time>
      </trkpt>
      <trkpt lat="46.49628" lon="-1.79012">
        <ele>4.6</ele>
        <time>2021-09-25T13:56:37Z</time>
      </trkpt>
      <trkpt lat="46.49629" lon="-1.79011">
        <ele>4.6</ele>
        <time>2021-09-25T13:56:38Z</time>
      </trkpt>
      <trkpt lat="46.49629" lon="-1.7901">
        <ele>4.6</ele>
        <time>2021-09-25T13:56:39Z</time>
      </trkpt>
      <trkpt lat="46.49629" lon="-1.79008">
        <ele>4.6</ele>
        <time>2021-09-25T13:56:40Z</time>
      </trkpt>
      <trkpt lat="46.49629" lon="-1.79007">
        <ele>4.6</ele>
        <time>2021-09-25T13:56:41Z</time>
      </trkpt>
      <trkpt lat="46.4963" lon="-1.79006">
        <ele>4.6</ele>
        <time>2021-09-25T13:56:42Z</time>
      </trkpt>
      <trkpt lat="46.4963" lon="-1.79005">
        <ele>4.6</ele>
        <time>2021-09-25T13:56:43Z</time>
      </trkpt>
      <trkpt lat="46.4963" lon="-1.79003">
        <ele>4.6</ele>
        <time>2021-09-25T13:56:44Z</time>
      </trkpt>
      <trkpt lat="46.4963" lon="-1.79002">
        <ele>4.6</ele>
        <time>2021-09-25T13:56:45Z</time>
      </trkpt>
      <trkpt lat="46.4963" lon="-1.79001">
        <ele>4.6</ele>
        <time>2021-09-25T13:56:46Z</time>
      </trkpt>
      <trkpt lat="46.4963" lon="-1.78999">
        <ele>4.6</ele>
        <time>2021-09-25T13:56:47Z</time>
      </trkpt>
      <trkpt lat="46.4963" lon="-1.78998">
        <ele>4.6</ele>
        <time>2021-09-25T13:56:48Z</time>
      </trkpt>
      <trkpt lat="46.4963" lon="-1.78996">
        <ele>4.6</ele>
        <time>2021-09-25T13:56:49Z</time>
      </trkpt>
      <trkpt lat="46.49631" lon="-1.78995">
        <ele>4.6</ele>
        <time>2021-09-25T13:56:50Z</time>
      </trkpt>
      <trkpt lat="46.49631" lon="-1.78993">
        <ele>4.6</ele>
        <time>2021-09-25T13:56:51Z</time>
      </trkpt>
      <trkpt lat="46.49631" lon="-1.78992">
        <ele>4.6</ele>
        <time>2021-09-25T13:56:52Z</time>
      </trkpt>
      <trkpt lat="46.49631" lon="-1.7899">
        <ele>4.6</ele>
        <time>2021-09-25T13:56:53Z</time>
      </trkpt>
      <trkpt lat="46.49631" lon="-1.78989">
        <ele>4.6</ele>
        <time>2021-09-25T13:56:54Z</time>
      </trkpt>
      <trkpt lat="46.49631" lon="-1.78987">
        <ele>4.6</ele>
        <time>2021-09-25T13:56:55Z</time>
      </trkpt>
      <trkpt lat="46.49632" lon="-1.78986">
        <ele>4.6</ele>
        <time>2021-09-25T13:56:56Z</time>
      </trkpt>
      <trkpt lat="46.49632" lon="-1.78984">
        <ele>4.6</ele>
        <time>2021-09-25T13:56:57Z</time>
      </trkpt>
      <trkpt lat="46.49632" lon="-1.78983">
        <ele>4.6</ele>
        <time>2021-09-25T13:56:58Z</time>
      </trkpt>
      <trkpt lat="46.49632" lon="-1.78981">
        <ele>4.6</ele>
        <time>2021-09-25T13:56:59Z</time>
      </trkpt>
      <trkpt lat="46.49632" lon="-1.7898">
        <ele>4.6</ele>
        <time>2021-09-25T13:57:00Z</time>
      </trkpt>
      <trkpt lat="46.49632" lon="-1.78978">
        <ele>4.6</ele>
        <time>2021-09-25T13:57:01Z</time>
      </trkpt>
      <trkpt lat="46.49632" lon="-1.78977">
        <ele>4.6</ele>
        <time>2021-09-25T13:57:02Z</time>
      </trkpt>
      <trkpt lat="46.49632" lon="-1.78976">
        <ele>4.6</ele>
        <time>2021-09-25T13:57:03Z</time>
      </trkpt>
      <trkpt lat="46.49632" lon="-1.78974">
        <ele>4.6</ele>
        <time>2021-09-25T13:57:04Z</time>
      </trkpt>
      <trkpt lat="46.49632" lon="-1.78973">
        <ele>4.6</ele>
        <time>2021-09-25T13:57:05Z</time>
      </trkpt>
      <trkpt lat="46.49632" lon="-1.78971">
        <ele>4.6</ele>
        <time>2021-09-25T13:57:06Z</time>
      </trkpt>
      <trkpt lat="46.49632" lon="-1.7897">
        <ele>4.6</ele>
        <time>2021-09-25T13:57:07Z</time>
      </trkpt>
      <trkpt lat="46.49632" lon="-1.78969">
        <ele>4.6</ele>
        <time>2021-09-25T13:57:08Z</time>
      </trkpt>
      <trkpt lat="46.49632" lon="-1.78967">
        <ele>4.6</ele>
        <time>2021-09-25T13:57:09Z</time>
      </trkpt>
      <trkpt lat="46.49632" lon="-1.78966">
        <ele>4.7</ele>
        <time>2021-09-25T13:57:10Z</time>
      </trkpt>
      <trkpt lat="46.49632" lon="-1.78964">
        <ele>4.7</ele>
        <time>2021-09-25T13:57:11Z</time>
      </trkpt>
      <trkpt lat="46.49632" lon="-1.78963">
        <ele>4.7</ele>
        <time>2021-09-25T13:57:12Z</time>
      </trkpt>
      <trkpt lat="46.49633" lon="-1.78961">
        <ele>4.7</ele>
        <time>2021-09-25T13:57:13Z</time>
      </trkpt>
      <trkpt lat="46.49633" lon="-1.7896">
        <ele>4.7</ele>
        <time>2021-09-25T13:57:14Z</time>
      </trkpt>
      <trkpt lat="46.49633" lon="-1.78958">
        <ele>4.7</ele>
        <time>2021-09-25T13:57:15Z</time>
      </trkpt>
      <trkpt lat="46.49634" lon="-1.78956">
        <ele>4.7</ele>
        <time>2021-09-25T13:57:16Z</time>
      </trkpt>
      <trkpt lat="46.49634" lon="-1.78955">
        <ele>4.7</ele>
        <time>2021-09-25T13:57:17Z</time>
      </trkpt>
      <trkpt lat="46.49634" lon="-1.78953">
        <ele>4.7</ele>
        <time>2021-09-25T13:57:18Z</time>
      </trkpt>
      <trkpt lat="46.49635" lon="-1.78952">
        <ele>4.7</ele>
        <time>2021-09-25T13:57:19Z</time>
      </trkpt>
      <trkpt lat="46.49635" lon="-1.7895">
        <ele>4.7</ele>
        <time>2021-09-25T13:57:20Z</time>
      </trkpt>
      <trkpt lat="46.49635" lon="-1.78949">
        <ele>4.7</ele>
        <time>2021-09-25T13:57:21Z</time>
      </trkpt>
      <trkpt lat="46.49635" lon="-1.78947">
        <ele>4.7</ele>
        <time>2021-09-25T13:57:22Z</time>
      </trkpt>
      <trkpt lat="46.49635" lon="-1.78946">
        <ele>4.7</ele>
        <time>2021-09-25T13:57:23Z</time>
      </trkpt>
      <trkpt lat="46.49635" lon="-1.78944">
        <ele>4.7</ele>
        <time>2021-09-25T13:57:24Z</time>
      </trkpt>
      <trkpt lat="46.49635" lon="-1.78943">
        <ele>4.7</ele>
        <time>2021-09-25T13:57:25Z</time>
      </trkpt>
      <trkpt lat="46.49634" lon="-1.78941">
        <ele>4.7</ele>
        <time>2021-09-25T13:57:26Z</time>
      </trkpt>
      <trkpt lat="46.49634" lon="-1.7894">
        <ele>4.7</ele>
        <time>2021-09-25T13:57:27Z</time>
      </trkpt>
      <trkpt lat="46.49634" lon="-1.78939">
        <ele>4.7</ele>
        <time>2021-09-25T13:57:28Z</time>
      </trkpt>
      <trkpt lat="46.49634" lon="-1.78937">
        <ele>4.7</ele>
        <time>2021-09-25T13:57:29Z</time>
      </trkpt>
      <trkpt lat="46.49635" lon="-1.78936">
        <ele>4.7</ele>
        <time>2021-09-25T13:57:30Z</time>
      </trkpt>
      <trkpt lat="46.49635" lon="-1.78935">
        <ele>4.7</ele>
        <time>2021-09-25T13:57:31Z</time>
      </trkpt>
      <trkpt lat="46.49635" lon="-1.78933">
        <ele>4.7</ele>
        <time>2021-09-25T13:57:32Z</time>
      </trkpt>
      <trkpt lat="46.49636" lon="-1.78932">
        <ele>4.7</ele>
        <time>2021-09-25T13:57:33Z</time>
      </trkpt>
      <trkpt lat="46.49636" lon="-1.78931">
        <ele>4.7</ele>
        <time>2021-09-25T13:57:34Z</time>
      </trkpt>
      <trkpt lat="46.49637" lon="-1.7893">
        <ele>4.7</ele>
        <time>2021-09-25T13:57:35Z</time>
      </trkpt>
      <trkpt lat="46.49638" lon="-1.78929">
        <ele>4.7</ele>
        <time>2021-09-25T13:57:36Z</time>
      </trkpt>
      <trkpt lat="46.49638" lon="-1.78927">
        <ele>4.7</ele>
        <time>2021-09-25T13:57:37Z</time>
      </trkpt>
      <trkpt lat="46.49639" lon="-1.78926">
        <ele>4.7</ele>
        <time>2021-09-25T13:57:38Z</time>
      </trkpt>
      <trkpt lat="46.4964" lon="-1.78925">
        <ele>4.7</ele>
        <time>2021-09-25T13:57:39Z</time>
      </trkpt>
      <trkpt lat="46.49641" lon="-1.78924">
        <ele>4.7</ele>
        <time>2021-09-25T13:57:40Z</time>
      </trkpt>
      <trkpt lat="46.49641" lon="-1.78923">
        <ele>4.7</ele>
        <time>2021-09-25T13:57:41Z</time>
      </trkpt>
      <trkpt lat="46.49642" lon="-1.78922">
        <ele>4.7</ele>
        <time>2021-09-25T13:57:42Z</time>
      </trkpt>
      <trkpt lat="46.49643" lon="-1.78921">
        <ele>4.7</ele>
        <time>2021-09-25T13:57:43Z</time>
      </trkpt>
      <trkpt lat="46.49644" lon="-1.7892">
        <ele>4.7</ele>
        <time>2021-09-25T13:57:44Z</time>
      </trkpt>
      <trkpt lat="46.49644" lon="-1.78919">
        <ele>4.7</ele>
        <time>2021-09-25T13:57:45Z</time>
      </trkpt>
      <trkpt lat="46.49645" lon="-1.78917">
        <ele>4.7</ele>
        <time>2021-09-25T13:57:46Z</time>
      </trkpt>
      <trkpt lat="46.49645" lon="-1.78916">
        <ele>4.7</ele>
        <time>2021-09-25T13:57:47Z</time>
      </trkpt>
      <trkpt lat="46.49646" lon="-1.78915">
        <ele>4.7</ele>
        <time>2021-09-25T13:57:48Z</time>
      </trkpt>
      <trkpt lat="46.49646" lon="-1.78914">
        <ele>4.7</ele>
        <time>2021-09-25T13:57:49Z</time>
      </trkpt>
      <trkpt lat="46.49647" lon="-1.78912">
        <ele>4.7</ele>
        <time>2021-09-25T13:57:50Z</time>
      </trkpt>
      <trkpt lat="46.49647" lon="-1.78911">
        <ele>4.7</ele>
        <time>2021-09-25T13:57:51Z</time>
      </trkpt>
      <trkpt lat="46.49647" lon="-1.7891">
        <ele>4.7</ele>
        <time>2021-09-25T13:57:52Z</time>
      </trkpt>
      <trkpt lat="46.49648" lon="-1.78908">
        <ele>4.7</ele>
        <time>2021-09-25T13:57:53Z</time>
      </trkpt>
      <trkpt lat="46.49648" lon="-1.78907">
        <ele>4.7</ele>
        <time>2021-09-25T13:57:54Z</time>
      </trkpt>
      <trkpt lat="46.49648" lon="-1.78906">
        <ele>4.7</ele>
        <time>2021-09-25T13:57:55Z</time>
      </trkpt>
      <trkpt lat="46.49649" lon="-1.78904">
        <ele>4.7</ele>
        <time>2021-09-25T13:57:56Z</time>
      </trkpt>
      <trkpt lat="46.49649" lon="-1.78903">
        <ele>4.7</ele>
        <time>2021-09-25T13:57:57Z</time>
      </trkpt>
      <trkpt lat="46.4965" lon="-1.78902">
        <ele>4.7</ele>
        <time>2021-09-25T13:57:58Z</time>
      </trkpt>
      <trkpt lat="46.4965" lon="-1.78901">
        <ele>4.7</ele>
        <time>2021-09-25T13:57:59Z</time>
      </trkpt>
      <trkpt lat="46.49651" lon="-1.78901">
        <ele>4.7</ele>
        <time>2021-09-25T13:58:00Z</time>
      </trkpt>
      <trkpt lat="46.49651" lon="-1.789">
        <ele>4.7</ele>
        <time>2021-09-25T13:58:01Z</time>
      </trkpt>
      <trkpt lat="46.49652" lon="-1.78899">
        <ele>4.7</ele>
        <time>2021-09-25T13:58:02Z</time>
      </trkpt>
      <trkpt lat="46.49653" lon="-1.78899">
        <ele>4.7</ele>
        <time>2021-09-25T13:58:03Z</time>
      </trkpt>
      <trkpt lat="46.49654" lon="-1.78899">
        <ele>4.7</ele>
        <time>2021-09-25T13:58:04Z</time>
      </trkpt>
      <trkpt lat="46.49655" lon="-1.78898">
        <ele>4.7</ele>
        <time>2021-09-25T13:58:05Z</time>
      </trkpt>
      <trkpt lat="46.49656" lon="-1.78898">
        <ele>4.7</ele>
        <time>2021-09-25T13:58:06Z</time>
      </trkpt>
      <trkpt lat="46.49657" lon="-1.78898">
        <ele>4.7</ele>
        <time>2021-09-25T13:58:07Z</time>
      </trkpt>
      <trkpt lat="46.49658" lon="-1.78899">
        <ele>4.7</ele>
        <time>2021-09-25T13:58:08Z</time>
      </trkpt>
      <trkpt lat="46.49658" lon="-1.78899">
        <ele>4.7</ele>
        <time>2021-09-25T13:58:09Z</time>
      </trkpt>
      <trkpt lat="46.49659" lon="-1.78899">
        <ele>4.7</ele>
        <time>2021-09-25T13:58:10Z</time>
      </trkpt>
      <trkpt lat="46.4966" lon="-1.789">
        <ele>4.6</ele>
        <time>2021-09-25T13:58:11Z</time>
      </trkpt>
      <trkpt lat="46.49661" lon="-1.789">
        <ele>4.6</ele>
        <time>2021-09-25T13:58:12Z</time>
      </trkpt>
      <trkpt lat="46.49662" lon="-1.789">
        <ele>4.6</ele>
        <time>2021-09-25T13:58:13Z</time>
      </trkpt>
      <trkpt lat="46.49663" lon="-1.78901">
        <ele>4.6</ele>
        <time>2021-09-25T13:58:14Z</time>
      </trkpt>
      <trkpt lat="46.49664" lon="-1.78901">
        <ele>4.6</ele>
        <time>2021-09-25T13:58:15Z</time>
      </trkpt>
      <trkpt lat="46.49665" lon="-1.78902">
        <ele>4.6</ele>
        <time>2021-09-25T13:58:16Z</time>
      </trkpt>
      <trkpt lat="46.49666" lon="-1.78902">
        <ele>4.6</ele>
        <time>2021-09-25T13:58:17Z</time>
      </trkpt>
      <trkpt lat="46.49667" lon="-1.78902">
        <ele>4.6</ele>
        <time>2021-09-25T13:58:18Z</time>
      </trkpt>
      <trkpt lat="46.49668" lon="-1.78902">
        <ele>4.6</ele>
        <time>2021-09-25T13:58:19Z</time>
      </trkpt>
      <trkpt lat="46.49668" lon="-1.78902">
        <ele>4.6</ele>
        <time>2021-09-25T13:58:20Z</time>
      </trkpt>
      <trkpt lat="46.49669" lon="-1.78902">
        <ele>4.6</ele>
        <time>2021-09-25T13:58:21Z</time>
      </trkpt>
      <trkpt lat="46.4967" lon="-1.78902">
        <ele>4.6</ele>
        <time>2021-09-25T13:58:22Z</time>
      </trkpt>
      <trkpt lat="46.49671" lon="-1.78902">
        <ele>4.6</ele>
        <time>2021-09-25T13:58:23Z</time>
      </trkpt>
      <trkpt lat="46.49672" lon="-1.78901">
        <ele>4.6</ele>
        <time>2021-09-25T13:58:24Z</time>
      </trkpt>
      <trkpt lat="46.49673" lon="-1.78901">
        <ele>4.6</ele>
        <time>2021-09-25T13:58:25Z</time>
      </trkpt>
      <trkpt lat="46.49673" lon="-1.789">
        <ele>4.6</ele>
        <time>2021-09-25T13:58:26Z</time>
      </trkpt>
      <trkpt lat="46.49674" lon="-1.789">
        <ele>4.6</ele>
        <time>2021-09-25T13:58:27Z</time>
      </trkpt>
      <trkpt lat="46.49675" lon="-1.78899">
        <ele>4.6</ele>
        <time>2021-09-25T13:58:28Z</time>
      </trkpt>
      <trkpt lat="46.49676" lon="-1.78898">
        <ele>4.6</ele>
        <time>2021-09-25T13:58:29Z</time>
      </trkpt>
      <trkpt lat="46.49676" lon="-1.78897">
        <ele>4.6</ele>
        <time>2021-09-25T13:58:30Z</time>
      </trkpt>
      <trkpt lat="46.49677" lon="-1.78896">
        <ele>4.6</ele>
        <time>2021-09-25T13:58:31Z</time>
      </trkpt>
      <trkpt lat="46.49678" lon="-1.78895">
        <ele>4.6</ele>
        <time>2021-09-25T13:58:32Z</time>
      </trkpt>
      <trkpt lat="46.49678" lon="-1.78893">
        <ele>4.6</ele>
        <time>2021-09-25T13:58:33Z</time>
      </trkpt>
      <trkpt lat="46.49679" lon="-1.78892">
        <ele>4.6</ele>
        <time>2021-09-25T13:58:34Z</time>
      </trkpt>
      <trkpt lat="46.49679" lon="-1.78891">
        <ele>4.6</ele>
        <time>2021-09-25T13:58:35Z</time>
      </trkpt>
      <trkpt lat="46.4968" lon="-1.7889">
        <ele>4.6</ele>
        <time>2021-09-25T13:58:36Z</time>
      </trkpt>
      <trkpt lat="46.49681" lon="-1.78888">
        <ele>4.6</ele>
        <time>2021-09-25T13:58:37Z</time>
      </trkpt>
      <trkpt lat="46.49681" lon="-1.78887">
        <ele>4.6</ele>
        <time>2021-09-25T13:58:38Z</time>
      </trkpt>
      <trkpt lat="46.49682" lon="-1.78886">
        <ele>4.6</ele>
        <time>2021-09-25T13:58:39Z</time>
      </trkpt>
      <trkpt lat="46.49683" lon="-1.78884">
        <ele>4.6</ele>
        <time>2021-09-25T13:58:40Z</time>
      </trkpt>
      <trkpt lat="46.49683" lon="-1.78883">
        <ele>4.6</ele>
        <time>2021-09-25T13:58:41Z</time>
      </trkpt>
      <trkpt lat="46.49684" lon="-1.78882">
        <ele>4.6</ele>
        <time>2021-09-25T13:58:42Z</time>
      </trkpt>
      <trkpt lat="46.49684" lon="-1.78881">
        <ele>4.6</ele>
        <time>2021-09-25T13:58:43Z</time>
      </trkpt>
      <trkpt lat="46.49685" lon="-1.78879">
        <ele>4.6</ele>
        <time>2021-09-25T13:58:44Z</time>
      </trkpt>
      <trkpt lat="46.49686" lon="-1.78878">
        <ele>4.6</ele>
        <time>2021-09-25T13:58:45Z</time>
      </trkpt>
      <trkpt lat="46.49686" lon="-1.78877">
        <ele>4.6</ele>
        <time>2021-09-25T13:58:46Z</time>
      </trkpt>
      <trkpt lat="46.49687" lon="-1.78875">
        <ele>4.6</ele>
        <time>2021-09-25T13:58:47Z</time>
      </trkpt>
      <trkpt lat="46.49687" lon="-1.78874">
        <ele>4.6</ele>
        <time>2021-09-25T13:58:48Z</time>
      </trkpt>
      <trkpt lat="46.49688" lon="-1.78873">
        <ele>4.6</ele>
        <time>2021-09-25T13:58:49Z</time>
      </trkpt>
      <trkpt lat="46.49688" lon="-1.78871">
        <ele>4.6</ele>
        <time>2021-09-25T13:58:50Z</time>
      </trkpt>
      <trkpt lat="46.49689" lon="-1.7887">
        <ele>4.6</ele>
        <time>2021-09-25T13:58:51Z</time>
      </trkpt>
      <trkpt lat="46.4969" lon="-1.78869">
        <ele>4.6</ele>
        <time>2021-09-25T13:58:52Z</time>
      </trkpt>
      <trkpt lat="46.4969" lon="-1.78867">
        <ele>4.6</ele>
        <time>2021-09-25T13:58:53Z</time>
      </trkpt>
      <trkpt lat="46.49691" lon="-1.78866">
        <ele>4.6</ele>
        <time>2021-09-25T13:58:54Z</time>
      </trkpt>
      <trkpt lat="46.49691" lon="-1.78865">
        <ele>4.6</ele>
        <time>2021-09-25T13:58:55Z</time>
      </trkpt>
      <trkpt lat="46.49692" lon="-1.78863">
        <ele>4.6</ele>
        <time>2021-09-25T13:58:56Z</time>
      </trkpt>
      <trkpt lat="46.49692" lon="-1.78862">
        <ele>4.6</ele>
        <time>2021-09-25T13:58:57Z</time>
      </trkpt>
      <trkpt lat="46.49693" lon="-1.78861">
        <ele>4.6</ele>
        <time>2021-09-25T13:58:58Z</time>
      </trkpt>
      <trkpt lat="46.49693" lon="-1.78859">
        <ele>4.6</ele>
        <time>2021-09-25T13:58:59Z</time>
      </trkpt>
      <trkpt lat="46.49694" lon="-1.78858">
        <ele>4.6</ele>
        <time>2021-09-25T13:59:00Z</time>
      </trkpt>
      <trkpt lat="46.49694" lon="-1.78857">
        <ele>4.6</ele>
        <time>2021-09-25T13:59:01Z</time>
      </trkpt>
      <trkpt lat="46.49695" lon="-1.78855">
        <ele>4.6</ele>
        <time>2021-09-25T13:59:02Z</time>
      </trkpt>
      <trkpt lat="46.49695" lon="-1.78854">
        <ele>4.6</ele>
        <time>2021-09-25T13:59:03Z</time>
      </trkpt>
      <trkpt lat="46.49696" lon="-1.78853">
        <ele>4.6</ele>
        <time>2021-09-25T13:59:04Z</time>
      </trkpt>
      <trkpt lat="46.49696" lon="-1.78851">
        <ele>4.6</ele>
        <time>2021-09-25T13:59:05Z</time>
      </trkpt>
      <trkpt lat="46.49697" lon="-1.7885">
        <ele>4.6</ele>
        <time>2021-09-25T13:59:06Z</time>
      </trkpt>
      <trkpt lat="46.49698" lon="-1.78849">
        <ele>4.6</ele>
        <time>2021-09-25T13:59:07Z</time>
      </trkpt>
      <trkpt lat="46.49698" lon="-1.78847">
        <ele>4.6</ele>
        <time>2021-09-25T13:59:08Z</time>
      </trkpt>
      <trkpt lat="46.49699" lon="-1.78846">
        <ele>4.6</ele>
        <time>2021-09-25T13:59:09Z</time>
      </trkpt>
      <trkpt lat="46.49699" lon="-1.78845">
        <ele>4.6</ele>
        <time>2021-09-25T13:59:10Z</time>
      </trkpt>
      <trkpt lat="46.497" lon="-1.78843">
        <ele>4.6</ele>
        <time>2021-09-25T13:59:11Z</time>
      </trkpt>
      <trkpt lat="46.49701" lon="-1.78842">
        <ele>4.6</ele>
        <time>2021-09-25T13:59:12Z</time>
      </trkpt>
      <trkpt lat="46.49702" lon="-1.78841">
        <ele>4.6</ele>
        <time>2021-09-25T13:59:13Z</time>
      </trkpt>
      <trkpt lat="46.49702" lon="-1.78839">
        <ele>4.6</ele>
        <time>2021-09-25T13:59:14Z</time>
      </trkpt>
      <trkpt lat="46.49703" lon="-1.78838">
        <ele>4.6</ele>
        <time>2021-09-25T13:59:15Z</time>
      </trkpt>
      <trkpt lat="46.49704" lon="-1.78837">
        <ele>4.6</ele>
        <time>2021-09-25T13:59:16Z</time>
      </trkpt>
      <trkpt lat="46.49704" lon="-1.78835">
        <ele>4.6</ele>
        <time>2021-09-25T13:59:17Z</time>
      </trkpt>
      <trkpt lat="46.49705" lon="-1.78834">
        <ele>4.6</ele>
        <time>2021-09-25T13:59:18Z</time>
      </trkpt>
      <trkpt lat="46.49706" lon="-1.78833">
        <ele>4.6</ele>
        <time>2021-09-25T13:59:19Z</time>
      </trkpt>
      <trkpt lat="46.49706" lon="-1.78832">
        <ele>4.6</ele>
        <time>2021-09-25T13:59:20Z</time>
      </trkpt>
      <trkpt lat="46.49707" lon="-1.7883">
        <ele>4.6</ele>
        <time>2021-09-25T13:59:21Z</time>
      </trkpt>
      <trkpt lat="46.49707" lon="-1.78829">
        <ele>4.6</ele>
        <time>2021-09-25T13:59:22Z</time>
      </trkpt>
      <trkpt lat="46.49708" lon="-1.78828">
        <ele>4.6</ele>
        <time>2021-09-25T13:59:23Z</time>
      </trkpt>
      <trkpt lat="46.49708" lon="-1.78827">
        <ele>4.6</ele>
        <time>2021-09-25T13:59:24Z</time>
      </trkpt>
      <trkpt lat="46.49709" lon="-1.78826">
        <ele>4.6</ele>
        <time>2021-09-25T13:59:25Z</time>
      </trkpt>
      <trkpt lat="46.49709" lon="-1.78825">
        <ele>4.6</ele>
        <time>2021-09-25T13:59:26Z</time>
      </trkpt>
      <trkpt lat="46.4971" lon="-1.78824">
        <ele>4.6</ele>
        <time>2021-09-25T13:59:27Z</time>
      </trkpt>
      <trkpt lat="46.4971" lon="-1.78823">
        <ele>4.6</ele>
        <time>2021-09-25T13:59:28Z</time>
      </trkpt>
      <trkpt lat="46.4971" lon="-1.78821">
        <ele>4.6</ele>
        <time>2021-09-25T13:59:29Z</time>
      </trkpt>
      <trkpt lat="46.49711" lon="-1.7882">
        <ele>4.6</ele>
        <time>2021-09-25T13:59:30Z</time>
      </trkpt>
      <trkpt lat="46.49711" lon="-1.78819">
        <ele>4.6</ele>
        <time>2021-09-25T13:59:31Z</time>
      </trkpt>
      <trkpt lat="46.49712" lon="-1.78818">
        <ele>4.6</ele>
        <time>2021-09-25T13:59:32Z</time>
      </trkpt>
      <trkpt lat="46.49712" lon="-1.78816">
        <ele>4.6</ele>
        <time>2021-09-25T13:59:33Z</time>
      </trkpt>
      <trkpt lat="46.49712" lon="-1.78815">
        <ele>4.6</ele>
        <time>2021-09-25T13:59:34Z</time>
      </trkpt>
      <trkpt lat="46.49713" lon="-1.78814">
        <ele>4.6</ele>
        <time>2021-09-25T13:59:35Z</time>
      </trkpt>
      <trkpt lat="46.49713" lon="-1.78812">
        <ele>4.6</ele>
        <time>2021-09-25T13:59:36Z</time>
      </trkpt>
      <trkpt lat="46.49713" lon="-1.78811">
        <ele>4.6</ele>
        <time>2021-09-25T13:59:37Z</time>
      </trkpt>
      <trkpt lat="46.49714" lon="-1.78809">
        <ele>4.6</ele>
        <time>2021-09-25T13:59:38Z</time>
      </trkpt>
      <trkpt lat="46.49714" lon="-1.78808">
        <ele>4.6</ele>
        <time>2021-09-25T13:59:39Z</time>
      </trkpt>
      <trkpt lat="46.49714" lon="-1.78807">
        <ele>4.6</ele>
        <time>2021-09-25T13:59:40Z</time>
      </trkpt>
      <trkpt lat="46.49714" lon="-1.78805">
        <ele>4.6</ele>
        <time>2021-09-25T13:59:41Z</time>
      </trkpt>
      <trkpt lat="46.49714" lon="-1.78804">
        <ele>4.6</ele>
        <time>2021-09-25T13:59:42Z</time>
      </trkpt>
      <trkpt lat="46.49714" lon="-1.78803">
        <ele>4.6</ele>
        <time>2021-09-25T13:59:43Z</time>
      </trkpt>
      <trkpt lat="46.49714" lon="-1.78802">
        <ele>4.6</ele>
        <time>2021-09-25T13:59:44Z</time>
      </trkpt>
      <trkpt lat="46.49714" lon="-1.788">
        <ele>4.6</ele>
        <time>2021-09-25T13:59:45Z</time>
      </trkpt>
      <trkpt lat="46.49714" lon="-1.78799">
        <ele>4.6</ele>
        <time>2021-09-25T13:59:46Z</time>
      </trkpt>
      <trkpt lat="46.49714" lon="-1.78798">
        <ele>4.6</ele>
        <time>2021-09-25T13:59:47Z</time>
      </trkpt>
      <trkpt lat="46.49715" lon="-1.78797">
        <ele>4.6</ele>
        <time>2021-09-25T13:59:48Z</time>
      </trkpt>
      <trkpt lat="46.49715" lon="-1.78795">
        <ele>4.6</ele>
        <time>2021-09-25T13:59:49Z</time>
      </trkpt>
      <trkpt lat="46.49716" lon="-1.78794">
        <ele>4.6</ele>
        <time>2021-09-25T13:59:50Z</time>
      </trkpt>
      <trkpt lat="46.49716" lon="-1.78793">
        <ele>4.6</ele>
        <time>2021-09-25T13:59:51Z</time>
      </trkpt>
      <trkpt lat="46.49717" lon="-1.78792">
        <ele>4.6</ele>
        <time>2021-09-25T13:59:52Z</time>
      </trkpt>
      <trkpt lat="46.49718" lon="-1.7879">
        <ele>4.6</ele>
        <time>2021-09-25T13:59:53Z</time>
      </trkpt>
      <trkpt lat="46.49719" lon="-1.78789">
        <ele>4.6</ele>
        <time>2021-09-25T13:59:54Z</time>
      </trkpt>
      <trkpt lat="46.4972" lon="-1.78788">
        <ele>4.6</ele>
        <time>2021-09-25T13:59:55Z</time>
      </trkpt>
      <trkpt lat="46.49721" lon="-1.78786">
        <ele>4.6</ele>
        <time>2021-09-25T13:59:56Z</time>
      </trkpt>
      <trkpt lat="46.49722" lon="-1.78785">
        <ele>4.6</ele>
        <time>2021-09-25T13:59:57Z</time>
      </trkpt>
      <trkpt lat="46.49723" lon="-1.78784">
        <ele>4.6</ele>
        <time>2021-09-25T13:59:58Z</time>
      </trkpt>
      <trkpt lat="46.49724" lon="-1.78783">
        <ele>4.6</ele>
        <time>2021-09-25T13:59:59Z</time>
      </trkpt>
      <trkpt lat="46.49725" lon="-1.78781">
        <ele>4.6</ele>
        <time>2021-09-25T14:00:00Z</time>
      </trkpt>
      <trkpt lat="46.49726" lon="-1.7878">
        <ele>4.6</ele>
        <time>2021-09-25T14:00:01Z</time>
      </trkpt>
      <trkpt lat="46.49727" lon="-1.78779">
        <ele>4.6</ele>
        <time>2021-09-25T14:00:02Z</time>
      </trkpt>
      <trkpt lat="46.49729" lon="-1.78777">
        <ele>4.6</ele>
        <time>2021-09-25T14:00:03Z</time>
      </trkpt>
      <trkpt lat="46.4973" lon="-1.78776">
        <ele>4.5</ele>
        <time>2021-09-25T14:00:04Z</time>
      </trkpt>
      <trkpt lat="46.49731" lon="-1.78775">
        <ele>4.5</ele>
        <time>2021-09-25T14:00:05Z</time>
      </trkpt>
      <trkpt lat="46.49731" lon="-1.78773">
        <ele>4.5</ele>
        <time>2021-09-25T14:00:06Z</time>
      </trkpt>
      <trkpt lat="46.49732" lon="-1.78772">
        <ele>4.5</ele>
        <time>2021-09-25T14:00:07Z</time>
      </trkpt>
      <trkpt lat="46.49733" lon="-1.78771">
        <ele>4.5</ele>
        <time>2021-09-25T14:00:08Z</time>
      </trkpt>
      <trkpt lat="46.49733" lon="-1.7877">
        <ele>4.5</ele>
        <time>2021-09-25T14:00:09Z</time>
      </trkpt>
      <trkpt lat="46.49734" lon="-1.78768">
        <ele>4.5</ele>
        <time>2021-09-25T14:00:10Z</time>
      </trkpt>
      <trkpt lat="46.49734" lon="-1.78767">
        <ele>4.5</ele>
        <time>2021-09-25T14:00:11Z</time>
      </trkpt>
      <trkpt lat="46.49735" lon="-1.78766">
        <ele>4.5</ele>
        <time>2021-09-25T14:00:12Z</time>
      </trkpt>
      <trkpt lat="46.49735" lon="-1.78764">
        <ele>4.5</ele>
        <time>2021-09-25T14:00:13Z</time>
      </trkpt>
      <trkpt lat="46.49736" lon="-1.78763">
        <ele>4.5</ele>
        <time>2021-09-25T14:00:14Z</time>
      </trkpt>
      <trkpt lat="46.49736" lon="-1.78762">
        <ele>4.5</ele>
        <time>2021-09-25T14:00:15Z</time>
      </trkpt>
      <trkpt lat="46.49737" lon="-1.7876">
        <ele>4.5</ele>
        <time>2021-09-25T14:00:16Z</time>
      </trkpt>
      <trkpt lat="46.49737" lon="-1.78759">
        <ele>4.5</ele>
        <time>2021-09-25T14:00:17Z</time>
      </trkpt>
      <trkpt lat="46.49738" lon="-1.78757">
        <ele>4.5</ele>
        <time>2021-09-25T14:00:18Z</time>
      </trkpt>
      <trkpt lat="46.49738" lon="-1.78756">
        <ele>4.5</ele>
        <time>2021-09-25T14:00:19Z</time>
      </trkpt>
      <trkpt lat="46.49739" lon="-1.78754">
        <ele>4.5</ele>
        <time>2021-09-25T14:00:20Z</time>
      </trkpt>
      <trkpt lat="46.49739" lon="-1.78753">
        <ele>4.5</ele>
        <time>2021-09-25T14:00:21Z</time>
      </trkpt>
      <trkpt lat="46.4974" lon="-1.78751">
        <ele>4.5</ele>
        <time>2021-09-25T14:00:22Z</time>
      </trkpt>
      <trkpt lat="46.49741" lon="-1.7875">
        <ele>4.5</ele>
        <time>2021-09-25T14:00:23Z</time>
      </trkpt>
      <trkpt lat="46.49741" lon="-1.78748">
        <ele>4.5</ele>
        <time>2021-09-25T14:00:24Z</time>
      </trkpt>
      <trkpt lat="46.49742" lon="-1.78747">
        <ele>4.5</ele>
        <time>2021-09-25T14:00:25Z</time>
      </trkpt>
      <trkpt lat="46.49743" lon="-1.78746">
        <ele>4.5</ele>
        <time>2021-09-25T14:00:26Z</time>
      </trkpt>
      <trkpt lat="46.49744" lon="-1.78744">
        <ele>4.5</ele>
        <time>2021-09-25T14:00:27Z</time>
      </trkpt>
      <trkpt lat="46.49744" lon="-1.78743">
        <ele>4.5</ele>
        <time>2021-09-25T14:00:28Z</time>
      </trkpt>
      <trkpt lat="46.49745" lon="-1.78742">
        <ele>4.5</ele>
        <time>2021-09-25T14:00:29Z</time>
      </trkpt>
      <trkpt lat="46.49746" lon="-1.7874">
        <ele>4.5</ele>
        <time>2021-09-25T14:00:30Z</time>
      </trkpt>
      <trkpt lat="46.49746" lon="-1.78739">
        <ele>4.5</ele>
        <time>2021-09-25T14:00:31Z</time>
      </trkpt>
      <trkpt lat="46.49747" lon="-1.78738">
        <ele>4.5</ele>
        <time>2021-09-25T14:00:32Z</time>
      </trkpt>
      <trkpt lat="46.49748" lon="-1.78737">
        <ele>4.5</ele>
        <time>2021-09-25T14:00:33Z</time>
      </trkpt>
      <trkpt lat="46.49748" lon="-1.78735">
        <ele>4.5</ele>
        <time>2021-09-25T14:00:34Z</time>
      </trkpt>
      <trkpt lat="46.49749" lon="-1.78734">
        <ele>4.5</ele>
        <time>2021-09-25T14:00:35Z</time>
      </trkpt>
      <trkpt lat="46.49749" lon="-1.78733">
        <ele>4.5</ele>
        <time>2021-09-25T14:00:36Z</time>
      </trkpt>
      <trkpt lat="46.4975" lon="-1.78732">
        <ele>4.5</ele>
        <time>2021-09-25T14:00:37Z</time>
      </trkpt>
      <trkpt lat="46.4975" lon="-1.78731">
        <ele>4.5</ele>
        <time>2021-09-25T14:00:38Z</time>
      </trkpt>
      <trkpt lat="46.49751" lon="-1.7873">
        <ele>4.5</ele>
        <time>2021-09-25T14:00:39Z</time>
      </trkpt>
      <trkpt lat="46.49751" lon="-1.78728">
        <ele>4.5</ele>
        <time>2021-09-25T14:00:40Z</time>
      </trkpt>
      <trkpt lat="46.49752" lon="-1.78727">
        <ele>4.5</ele>
        <time>2021-09-25T14:00:41Z</time>
      </trkpt>
      <trkpt lat="46.49752" lon="-1.78726">
        <ele>4.5</ele>
        <time>2021-09-25T14:00:42Z</time>
      </trkpt>
      <trkpt lat="46.49753" lon="-1.78725">
        <ele>4.5</ele>
        <time>2021-09-25T14:00:43Z</time>
      </trkpt>
      <trkpt lat="46.49753" lon="-1.78724">
        <ele>4.5</ele>
        <time>2021-09-25T14:00:44Z</time>
      </trkpt>
      <trkpt lat="46.49754" lon="-1.78722">
        <ele>4.5</ele>
        <time>2021-09-25T14:00:45Z</time>
      </trkpt>
      <trkpt lat="46.49754" lon="-1.78721">
        <ele>4.5</ele>
        <time>2021-09-25T14:00:46Z</time>
      </trkpt>
      <trkpt lat="46.49755" lon="-1.7872">
        <ele>4.5</ele>
        <time>2021-09-25T14:00:47Z</time>
      </trkpt>
      <trkpt lat="46.49755" lon="-1.78719">
        <ele>4.5</ele>
        <time>2021-09-25T14:00:48Z</time>
      </trkpt>
      <trkpt lat="46.49756" lon="-1.78718">
        <ele>4.5</ele>
        <time>2021-09-25T14:00:49Z</time>
      </trkpt>
      <trkpt lat="46.49756" lon="-1.78717">
        <ele>4.5</ele>
        <time>2021-09-25T14:00:50Z</time>
      </trkpt>
      <trkpt lat="46.49756" lon="-1.78715">
        <ele>4.5</ele>
        <time>2021-09-25T14:00:51Z</time>
      </trkpt>
      <trkpt lat="46.49757" lon="-1.78714">
        <ele>4.5</ele>
        <time>2021-09-25T14:00:52Z</time>
      </trkpt>
      <trkpt lat="46.49757" lon="-1.78713">
        <ele>4.5</ele>
        <time>2021-09-25T14:00:53Z</time>
      </trkpt>
      <trkpt lat="46.49758" lon="-1.78712">
        <ele>4.5</ele>
        <time>2021-09-25T14:00:54Z</time>
      </trkpt>
      <trkpt lat="46.49758" lon="-1.78711">
        <ele>4.5</ele>
        <time>2021-09-25T14:00:55Z</time>
      </trkpt>
      <trkpt lat="46.49759" lon="-1.7871">
        <ele>4.5</ele>
        <time>2021-09-25T14:00:56Z</time>
      </trkpt>
      <trkpt lat="46.49759" lon="-1.78709">
        <ele>4.5</ele>
        <time>2021-09-25T14:00:57Z</time>
      </trkpt>
      <trkpt lat="46.49759" lon="-1.78708">
        <ele>4.5</ele>
        <time>2021-09-25T14:00:58Z</time>
      </trkpt>
      <trkpt lat="46.4976" lon="-1.78707">
        <ele>4.5</ele>
        <time>2021-09-25T14:00:59Z</time>
      </trkpt>
      <trkpt lat="46.4976" lon="-1.78706">
        <ele>4.5</ele>
        <time>2021-09-25T14:01:00Z</time>
      </trkpt>
      <trkpt lat="46.49761" lon="-1.78704">
        <ele>4.5</ele>
        <time>2021-09-25T14:01:01Z</time>
      </trkpt>
      <trkpt lat="46.49761" lon="-1.78703">
        <ele>4.5</ele>
        <time>2021-09-25T14:01:02Z</time>
      </trkpt>
      <trkpt lat="46.49762" lon="-1.78702">
        <ele>4.5</ele>
        <time>2021-09-25T14:01:03Z</time>
      </trkpt>
      <trkpt lat="46.49762" lon="-1.78701">
        <ele>4.5</ele>
        <time>2021-09-25T14:01:04Z</time>
      </trkpt>
      <trkpt lat="46.49762" lon="-1.787">
        <ele>4.5</ele>
        <time>2021-09-25T14:01:05Z</time>
      </trkpt>
      <trkpt lat="46.49763" lon="-1.78699">
        <ele>4.5</ele>
        <time>2021-09-25T14:01:06Z</time>
      </trkpt>
      <trkpt lat="46.49763" lon="-1.78697">
        <ele>4.5</ele>
        <time>2021-09-25T14:01:07Z</time>
      </trkpt>
      <trkpt lat="46.49764" lon="-1.78696">
        <ele>4.5</ele>
        <time>2021-09-25T14:01:08Z</time>
      </trkpt>
      <trkpt lat="46.49764" lon="-1.78695">
        <ele>4.5</ele>
        <time>2021-09-25T14:01:09Z</time>
      </trkpt>
      <trkpt lat="46.49765" lon="-1.78694">
        <ele>4.5</ele>
        <time>2021-09-25T14:01:10Z</time>
      </trkpt>
      <trkpt lat="46.49765" lon="-1.78692">
        <ele>4.5</ele>
        <time>2021-09-25T14:01:11Z</time>
      </trkpt>
      <trkpt lat="46.49766" lon="-1.78691">
        <ele>4.5</ele>
        <time>2021-09-25T14:01:12Z</time>
      </trkpt>
      <trkpt lat="46.49767" lon="-1.7869">
        <ele>4.5</ele>
        <time>2021-09-25T14:01:13Z</time>
      </trkpt>
      <trkpt lat="46.49767" lon="-1.78689">
        <ele>4.5</ele>
        <time>2021-09-25T14:01:14Z</time>
      </trkpt>
      <trkpt lat="46.49768" lon="-1.78687">
        <ele>4.5</ele>
        <time>2021-09-25T14:01:15Z</time>
      </trkpt>
      <trkpt lat="46.49768" lon="-1.78686">
        <ele>4.5</ele>
        <time>2021-09-25T14:01:16Z</time>
      </trkpt>
      <trkpt lat="46.49769" lon="-1.78685">
        <ele>4.5</ele>
        <time>2021-09-25T14:01:17Z</time>
      </trkpt>
      <trkpt lat="46.49769" lon="-1.78684">
        <ele>4.5</ele>
        <time>2021-09-25T14:01:18Z</time>
      </trkpt>
      <trkpt lat="46.4977" lon="-1.78682">
        <ele>4.5</ele>
        <time>2021-09-25T14:01:19Z</time>
      </trkpt>
      <trkpt lat="46.4977" lon="-1.78681">
        <ele>4.5</ele>
        <time>2021-09-25T14:01:20Z</time>
      </trkpt>
      <trkpt lat="46.49771" lon="-1.7868">
        <ele>4.5</ele>
        <time>2021-09-25T14:01:21Z</time>
      </trkpt>
      <trkpt lat="46.49771" lon="-1.78679">
        <ele>4.5</ele>
        <time>2021-09-25T14:01:22Z</time>
      </trkpt>
      <trkpt lat="46.49772" lon="-1.78678">
        <ele>4.5</ele>
        <time>2021-09-25T14:01:23Z</time>
      </trkpt>
      <trkpt lat="46.49772" lon="-1.78676">
        <ele>4.6</ele>
        <time>2021-09-25T14:01:24Z</time>
      </trkpt>
      <trkpt lat="46.49773" lon="-1.78675">
        <ele>4.6</ele>
        <time>2021-09-25T14:01:25Z</time>
      </trkpt>
      <trkpt lat="46.49773" lon="-1.78674">
        <ele>4.6</ele>
        <time>2021-09-25T14:01:26Z</time>
      </trkpt>
      <trkpt lat="46.49774" lon="-1.78673">
        <ele>4.6</ele>
        <time>2021-09-25T14:01:27Z</time>
      </trkpt>
      <trkpt lat="46.49774" lon="-1.78672">
        <ele>4.6</ele>
        <time>2021-09-25T14:01:28Z</time>
      </trkpt>
      <trkpt lat="46.49774" lon="-1.78672">
        <ele>4.6</ele>
        <time>2021-09-25T14:01:29Z</time>
      </trkpt>
      <trkpt lat="46.49775" lon="-1.78671">
        <ele>4.6</ele>
        <time>2021-09-25T14:01:30Z</time>
      </trkpt>
      <trkpt lat="46.49775" lon="-1.7867">
        <ele>4.6</ele>
        <time>2021-09-25T14:01:31Z</time>
      </trkpt>
      <trkpt lat="46.49775" lon="-1.7867">
        <ele>4.6</ele>
        <time>2021-09-25T14:01:32Z</time>
      </trkpt>
      <trkpt lat="46.49775" lon="-1.7867">
        <ele>4.6</ele>
        <time>2021-09-25T14:01:33Z</time>
      </trkpt>
      <trkpt lat="46.49775" lon="-1.78669">
        <ele>4.6</ele>
        <time>2021-09-25T14:01:34Z</time>
      </trkpt>
      <trkpt lat="46.49776" lon="-1.78669">
        <ele>4.6</ele>
        <time>2021-09-25T14:01:35Z</time>
      </trkpt>
      <trkpt lat="46.49776" lon="-1.78669">
        <ele>4.6</ele>
        <time>2021-09-25T14:01:36Z</time>
      </trkpt>
      <trkpt lat="46.49776" lon="-1.78669">
        <ele>4.6</ele>
        <time>2021-09-25T14:01:37Z</time>
      </trkpt>
      <trkpt lat="46.49776" lon="-1.78669">
        <ele>4.6</ele>
        <time>2021-09-25T14:01:38Z</time>
      </trkpt>
      <trkpt lat="46.49776" lon="-1.78669">
        <ele>4.6</ele>
        <time>2021-09-25T14:01:39Z</time>
      </trkpt>
      <trkpt lat="46.49776" lon="-1.78669">
        <ele>4.6</ele>
        <time>2021-09-25T14:01:40Z</time>
      </trkpt>
      <trkpt lat="46.49776" lon="-1.78669">
        <ele>4.6</ele>
        <time>2021-09-25T14:01:41Z</time>
      </trkpt>
      <trkpt lat="46.49776" lon="-1.78669">
        <ele>4.6</ele>
        <time>2021-09-25T14:01:42Z</time>
      </trkpt>
      <trkpt lat="46.49776" lon="-1.78669">
        <ele>4.6</ele>
        <time>2021-09-25T14:01:43Z</time>
      </trkpt>
      <trkpt lat="46.49775" lon="-1.78669">
        <ele>4.6</ele>
        <time>2021-09-25T14:01:44Z</time>
      </trkpt>
      <trkpt lat="46.49775" lon="-1.78669">
        <ele>4.6</ele>
        <time>2021-09-25T14:01:45Z</time>
      </trkpt>
      <trkpt lat="46.49775" lon="-1.7867">
        <ele>4.6</ele>
        <time>2021-09-25T14:01:46Z</time>
      </trkpt>
      <trkpt lat="46.49775" lon="-1.7867">
        <ele>4.6</ele>
        <time>2021-09-25T14:01:47Z</time>
      </trkpt>
      <trkpt lat="46.49775" lon="-1.7867">
        <ele>4.6</ele>
        <time>2021-09-25T14:01:48Z</time>
      </trkpt>
      <trkpt lat="46.49775" lon="-1.7867">
        <ele>4.6</ele>
        <time>2021-09-25T14:01:49Z</time>
      </trkpt>
      <trkpt lat="46.49775" lon="-1.7867">
        <ele>4.6</ele>
        <time>2021-09-25T14:01:50Z</time>
      </trkpt>
      <trkpt lat="46.49775" lon="-1.78669">
        <ele>4.6</ele>
        <time>2021-09-25T14:01:51Z</time>
      </trkpt>
      <trkpt lat="46.49775" lon="-1.78669">
        <ele>4.6</ele>
        <time>2021-09-25T14:01:52Z</time>
      </trkpt>
      <trkpt lat="46.49776" lon="-1.78669">
        <ele>4.6</ele>
        <time>2021-09-25T14:01:53Z</time>
      </trkpt>
      <trkpt lat="46.49776" lon="-1.78669">
        <ele>4.6</ele>
        <time>2021-09-25T14:01:54Z</time>
      </trkpt>
      <trkpt lat="46.49776" lon="-1.78668">
        <ele>4.6</ele>
        <time>2021-09-25T14:01:55Z</time>
      </trkpt>
      <trkpt lat="46.49776" lon="-1.78668">
        <ele>4.6</ele>
        <time>2021-09-25T14:01:56Z</time>
      </trkpt>
      <trkpt lat="46.49776" lon="-1.78667">
        <ele>4.6</ele>
        <time>2021-09-25T14:01:57Z</time>
      </trkpt>
      <trkpt lat="46.49777" lon="-1.78667">
        <ele>4.6</ele>
        <time>2021-09-25T14:01:58Z</time>
      </trkpt>
      <trkpt lat="46.49777" lon="-1.78666">
        <ele>4.6</ele>
        <time>2021-09-25T14:01:59Z</time>
      </trkpt>
      <trkpt lat="46.49777" lon="-1.78665">
        <ele>4.6</ele>
        <time>2021-09-25T14:02:00Z</time>
      </trkpt>
      <trkpt lat="46.49778" lon="-1.78664">
        <ele>4.6</ele>
        <time>2021-09-25T14:02:01Z</time>
      </trkpt>
      <trkpt lat="46.49778" lon="-1.78663">
        <ele>4.6</ele>
        <time>2021-09-25T14:02:02Z</time>
      </trkpt>
      <trkpt lat="46.49778" lon="-1.78662">
        <ele>4.6</ele>
        <time>2021-09-25T14:02:03Z</time>
      </trkpt>
      <trkpt lat="46.49779" lon="-1.78661">
        <ele>4.6</ele>
        <time>2021-09-25T14:02:04Z</time>
      </trkpt>
      <trkpt lat="46.49779" lon="-1.7866">
        <ele>4.6</ele>
        <time>2021-09-25T14:02:05Z</time>
      </trkpt>
      <trkpt lat="46.49779" lon="-1.78659">
        <ele>4.6</ele>
        <time>2021-09-25T14:02:06Z</time>
      </trkpt>
      <trkpt lat="46.4978" lon="-1.78657">
        <ele>4.6</ele>
        <time>2021-09-25T14:02:07Z</time>
      </trkpt>
      <trkpt lat="46.4978" lon="-1.78656">
        <ele>4.6</ele>
        <time>2021-09-25T14:02:08Z</time>
      </trkpt>
      <trkpt lat="46.4978" lon="-1.78655">
        <ele>4.6</ele>
        <time>2021-09-25T14:02:09Z</time>
      </trkpt>
      <trkpt lat="46.4978" lon="-1.78653">
        <ele>4.6</ele>
        <time>2021-09-25T14:02:10Z</time>
      </trkpt>
      <trkpt lat="46.4978" lon="-1.78652">
        <ele>4.6</ele>
        <time>2021-09-25T14:02:11Z</time>
      </trkpt>
      <trkpt lat="46.4978" lon="-1.7865">
        <ele>4.6</ele>
        <time>2021-09-25T14:02:12Z</time>
      </trkpt>
      <trkpt lat="46.4978" lon="-1.78649">
        <ele>4.6</ele>
        <time>2021-09-25T14:02:13Z</time>
      </trkpt>
      <trkpt lat="46.4978" lon="-1.78648">
        <ele>4.8</ele>
        <time>2021-09-25T14:02:14Z</time>
      </trkpt>
      <trkpt lat="46.4978" lon="-1.78646">
        <ele>4.8</ele>
        <time>2021-09-25T14:02:15Z</time>
      </trkpt>
      <trkpt lat="46.4978" lon="-1.78645">
        <ele>4.8</ele>
        <time>2021-09-25T14:02:16Z</time>
      </trkpt>
      <trkpt lat="46.49779" lon="-1.78644">
        <ele>4.8</ele>
        <time>2021-09-25T14:02:17Z</time>
      </trkpt>
      <trkpt lat="46.49779" lon="-1.78643">
        <ele>4.8</ele>
        <time>2021-09-25T14:02:18Z</time>
      </trkpt>
      <trkpt lat="46.49778" lon="-1.78642">
        <ele>4.8</ele>
        <time>2021-09-25T14:02:19Z</time>
      </trkpt>
      <trkpt lat="46.49778" lon="-1.78641">
        <ele>4.8</ele>
        <time>2021-09-25T14:02:20Z</time>
      </trkpt>
      <trkpt lat="46.49777" lon="-1.7864">
        <ele>4.8</ele>
        <time>2021-09-25T14:02:21Z</time>
      </trkpt>
      <trkpt lat="46.49777" lon="-1.78639">
        <ele>4.6</ele>
        <time>2021-09-25T14:02:22Z</time>
      </trkpt>
      <trkpt lat="46.49776" lon="-1.78638">
        <ele>4.6</ele>
        <time>2021-09-25T14:02:23Z</time>
      </trkpt>
      <trkpt lat="46.49775" lon="-1.78637">
        <ele>4.6</ele>
        <time>2021-09-25T14:02:24Z</time>
      </trkpt>
      <trkpt lat="46.49774" lon="-1.78636">
        <ele>4.6</ele>
        <time>2021-09-25T14:02:25Z</time>
      </trkpt>
      <trkpt lat="46.49774" lon="-1.78635">
        <ele>4.5</ele>
        <time>2021-09-25T14:02:26Z</time>
      </trkpt>
      <trkpt lat="46.49773" lon="-1.78634">
        <ele>4.5</ele>
        <time>2021-09-25T14:02:27Z</time>
      </trkpt>
      <trkpt lat="46.49772" lon="-1.78632">
        <ele>4.5</ele>
        <time>2021-09-25T14:02:28Z</time>
      </trkpt>
      <trkpt lat="46.49772" lon="-1.78631">
        <ele>4.5</ele>
        <time>2021-09-25T14:02:29Z</time>
      </trkpt>
      <trkpt lat="46.49771" lon="-1.7863">
        <ele>4.5</ele>
        <time>2021-09-25T14:02:30Z</time>
      </trkpt>
      <trkpt lat="46.49771" lon="-1.78628">
        <ele>4.5</ele>
        <time>2021-09-25T14:02:31Z</time>
      </trkpt>
      <trkpt lat="46.4977" lon="-1.78627">
        <ele>4.6</ele>
        <time>2021-09-25T14:02:32Z</time>
      </trkpt>
      <trkpt lat="46.49769" lon="-1.78626">
        <ele>4.6</ele>
        <time>2021-09-25T14:02:33Z</time>
      </trkpt>
      <trkpt lat="46.49769" lon="-1.78625">
        <ele>4.6</ele>
        <time>2021-09-25T14:02:34Z</time>
      </trkpt>
      <trkpt lat="46.49769" lon="-1.78624">
        <ele>4.6</ele>
        <time>2021-09-25T14:02:35Z</time>
      </trkpt>
      <trkpt lat="46.49768" lon="-1.78622">
        <ele>4.6</ele>
        <time>2021-09-25T14:02:36Z</time>
      </trkpt>
      <trkpt lat="46.49768" lon="-1.78621">
        <ele>4.7</ele>
        <time>2021-09-25T14:02:37Z</time>
      </trkpt>
      <trkpt lat="46.49768" lon="-1.7862">
        <ele>4.7</ele>
        <time>2021-09-25T14:02:38Z</time>
      </trkpt>
      <trkpt lat="46.49768" lon="-1.7862">
        <ele>4.7</ele>
        <time>2021-09-25T14:02:39Z</time>
      </trkpt>
      <trkpt lat="46.49768" lon="-1.78619">
        <ele>4.7</ele>
        <time>2021-09-25T14:02:40Z</time>
      </trkpt>
      <trkpt lat="46.49768" lon="-1.78618">
        <ele>4.8</ele>
        <time>2021-09-25T14:02:41Z</time>
      </trkpt>
      <trkpt lat="46.49768" lon="-1.78617">
        <ele>4.8</ele>
        <time>2021-09-25T14:02:42Z</time>
      </trkpt>
      <trkpt lat="46.49768" lon="-1.78616">
        <ele>4.8</ele>
        <time>2021-09-25T14:02:43Z</time>
      </trkpt>
      <trkpt lat="46.49768" lon="-1.78615">
        <ele>4.8</ele>
        <time>2021-09-25T14:02:44Z</time>
      </trkpt>
      <trkpt lat="46.49769" lon="-1.78615">
        <ele>4.7</ele>
        <time>2021-09-25T14:02:45Z</time>
      </trkpt>
      <trkpt lat="46.49769" lon="-1.78614">
        <ele>4.7</ele>
        <time>2021-09-25T14:02:46Z</time>
      </trkpt>
      <trkpt lat="46.4977" lon="-1.78613">
        <ele>4.8</ele>
        <time>2021-09-25T14:02:47Z</time>
      </trkpt>
      <trkpt lat="46.49771" lon="-1.78612">
        <ele>4.8</ele>
        <time>2021-09-25T14:02:48Z</time>
      </trkpt>
      <trkpt lat="46.49771" lon="-1.78611">
        <ele>4.7</ele>
        <time>2021-09-25T14:02:49Z</time>
      </trkpt>
      <trkpt lat="46.49772" lon="-1.7861">
        <ele>4.7</ele>
        <time>2021-09-25T14:02:50Z</time>
      </trkpt>
      <trkpt lat="46.49773" lon="-1.78609">
        <ele>4.8</ele>
        <time>2021-09-25T14:02:51Z</time>
      </trkpt>
      <trkpt lat="46.49774" lon="-1.78608">
        <ele>4.8</ele>
        <time>2021-09-25T14:02:52Z</time>
      </trkpt>
      <trkpt lat="46.49775" lon="-1.78607">
        <ele>4.8</ele>
        <time>2021-09-25T14:02:53Z</time>
      </trkpt>
      <trkpt lat="46.49775" lon="-1.78606">
        <ele>4.8</ele>
        <time>2021-09-25T14:02:54Z</time>
      </trkpt>
      <trkpt lat="46.49776" lon="-1.78605">
        <ele>4.8</ele>
        <time>2021-09-25T14:02:55Z</time>
      </trkpt>
      <trkpt lat="46.49777" lon="-1.78604">
        <ele>4.8</ele>
        <time>2021-09-25T14:02:56Z</time>
      </trkpt>
      <trkpt lat="46.49777" lon="-1.78603">
        <ele>4.8</ele>
        <time>2021-09-25T14:02:57Z</time>
      </trkpt>
      <trkpt lat="46.49778" lon="-1.78602">
        <ele>4.7</ele>
        <time>2021-09-25T14:02:58Z</time>
      </trkpt>
      <trkpt lat="46.49778" lon="-1.78601">
        <ele>4.7</ele>
        <time>2021-09-25T14:02:59Z</time>
      </trkpt>
      <trkpt lat="46.49779" lon="-1.786">
        <ele>4.8</ele>
        <time>2021-09-25T14:03:00Z</time>
      </trkpt>
      <trkpt lat="46.49779" lon="-1.78599">
        <ele>4.8</ele>
        <time>2021-09-25T14:03:01Z</time>
      </trkpt>
      <trkpt lat="46.4978" lon="-1.78598">
        <ele>4.8</ele>
        <time>2021-09-25T14:03:02Z</time>
      </trkpt>
      <trkpt lat="46.4978" lon="-1.78597">
        <ele>4.8</ele>
        <time>2021-09-25T14:03:03Z</time>
      </trkpt>
      <trkpt lat="46.49781" lon="-1.78596">
        <ele>4.9</ele>
        <time>2021-09-25T14:03:04Z</time>
      </trkpt>
      <trkpt lat="46.49781" lon="-1.78595">
        <ele>4.9</ele>
        <time>2021-09-25T14:03:05Z</time>
      </trkpt>
      <trkpt lat="46.49781" lon="-1.78594">
        <ele>4.9</ele>
        <time>2021-09-25T14:03:06Z</time>
      </trkpt>
      <trkpt lat="46.49782" lon="-1.78593">
        <ele>4.9</ele>
        <time>2021-09-25T14:03:07Z</time>
      </trkpt>
      <trkpt lat="46.49782" lon="-1.78592">
        <ele>4.9</ele>
        <time>2021-09-25T14:03:08Z</time>
      </trkpt>
      <trkpt lat="46.49783" lon="-1.78591">
        <ele>4.9</ele>
        <time>2021-09-25T14:03:09Z</time>
      </trkpt>
      <trkpt lat="46.49783" lon="-1.7859">
        <ele>4.9</ele>
        <time>2021-09-25T14:03:10Z</time>
      </trkpt>
      <trkpt lat="46.49784" lon="-1.78589">
        <ele>4.9</ele>
        <time>2021-09-25T14:03:11Z</time>
      </trkpt>
      <trkpt lat="46.49784" lon="-1.78588">
        <ele>4.9</ele>
        <time>2021-09-25T14:03:12Z</time>
      </trkpt>
      <trkpt lat="46.49785" lon="-1.78587">
        <ele>4.9</ele>
        <time>2021-09-25T14:03:13Z</time>
      </trkpt>
      <trkpt lat="46.49785" lon="-1.78586">
        <ele>4.9</ele>
        <time>2021-09-25T14:03:14Z</time>
      </trkpt>
      <trkpt lat="46.49786" lon="-1.78585">
        <ele>4.9</ele>
        <time>2021-09-25T14:03:15Z</time>
      </trkpt>
      <trkpt lat="46.49786" lon="-1.78584">
        <ele>4.9</ele>
        <time>2021-09-25T14:03:16Z</time>
      </trkpt>
      <trkpt lat="46.49786" lon="-1.78583">
        <ele>4.9</ele>
        <time>2021-09-25T14:03:17Z</time>
      </trkpt>
      <trkpt lat="46.49786" lon="-1.78582">
        <ele>4.9</ele>
        <time>2021-09-25T14:03:18Z</time>
      </trkpt>
      <trkpt lat="46.49787" lon="-1.78581">
        <ele>4.9</ele>
        <time>2021-09-25T14:03:19Z</time>
      </trkpt>
      <trkpt lat="46.49787" lon="-1.7858">
        <ele>4.9</ele>
        <time>2021-09-25T14:03:20Z</time>
      </trkpt>
      <trkpt lat="46.49786" lon="-1.78579">
        <ele>4.9</ele>
        <time>2021-09-25T14:03:21Z</time>
      </trkpt>
      <trkpt lat="46.49786" lon="-1.78578">
        <ele>4.9</ele>
        <time>2021-09-25T14:03:22Z</time>
      </trkpt>
      <trkpt lat="46.49786" lon="-1.78577">
        <ele>4.9</ele>
        <time>2021-09-25T14:03:23Z</time>
      </trkpt>
      <trkpt lat="46.49785" lon="-1.78576">
        <ele>5</ele>
        <time>2021-09-25T14:03:24Z</time>
      </trkpt>
      <trkpt lat="46.49784" lon="-1.78575">
        <ele>5</ele>
        <time>2021-09-25T14:03:25Z</time>
      </trkpt>
      <trkpt lat="46.49783" lon="-1.78574">
        <ele>5</ele>
        <time>2021-09-25T14:03:26Z</time>
      </trkpt>
      <trkpt lat="46.49783" lon="-1.78573">
        <ele>5</ele>
        <time>2021-09-25T14:03:27Z</time>
      </trkpt>
      <trkpt lat="46.49782" lon="-1.78572">
        <ele>5</ele>
        <time>2021-09-25T14:03:28Z</time>
      </trkpt>
      <trkpt lat="46.49782" lon="-1.78572">
        <ele>5</ele>
        <time>2021-09-25T14:03:29Z</time>
      </trkpt>
      <trkpt lat="46.49782" lon="-1.78572">
        <ele>5</ele>
        <time>2021-09-25T14:03:30Z</time>
      </trkpt>
      <trkpt lat="46.49782" lon="-1.78572">
        <ele>5</ele>
        <time>2021-09-25T14:03:31Z</time>
      </trkpt>
      <trkpt lat="46.49782" lon="-1.78572">
        <ele>5</ele>
        <time>2021-09-25T14:03:32Z</time>
      </trkpt>
      <trkpt lat="46.49781" lon="-1.7857">
        <ele>5</ele>
        <time>2021-09-25T14:03:33Z</time>
      </trkpt>
      <trkpt lat="46.4978" lon="-1.78569">
        <ele>5</ele>
        <time>2021-09-25T14:03:34Z</time>
      </trkpt>
      <trkpt lat="46.49779" lon="-1.78567">
        <ele>5</ele>
        <time>2021-09-25T14:03:35Z</time>
      </trkpt>
      <trkpt lat="46.49777" lon="-1.78565">
        <ele>5</ele>
        <time>2021-09-25T14:03:36Z</time>
      </trkpt>
      <trkpt lat="46.49777" lon="-1.78563">
        <ele>5.1</ele>
        <time>2021-09-25T14:03:37Z</time>
      </trkpt>
      <trkpt lat="46.49776" lon="-1.78562">
        <ele>5.1</ele>
        <time>2021-09-25T14:03:38Z</time>
      </trkpt>
      <trkpt lat="46.49776" lon="-1.78562">
        <ele>5.1</ele>
        <time>2021-09-25T14:03:39Z</time>
      </trkpt>
      <trkpt lat="46.49776" lon="-1.78562">
        <ele>5.1</ele>
        <time>2021-09-25T14:03:40Z</time>
      </trkpt>
      <trkpt lat="46.49776" lon="-1.78562">
        <ele>5.1</ele>
        <time>2021-09-25T14:03:41Z</time>
      </trkpt>
      <trkpt lat="46.49776" lon="-1.78562">
        <ele>5.1</ele>
        <time>2021-09-25T14:03:42Z</time>
      </trkpt>
      <trkpt lat="46.49776" lon="-1.78562">
        <ele>5.1</ele>
        <time>2021-09-25T14:03:43Z</time>
      </trkpt>
      <trkpt lat="46.49776" lon="-1.78562">
        <ele>5.1</ele>
        <time>2021-09-25T14:03:44Z</time>
      </trkpt>
      <trkpt lat="46.49776" lon="-1.78562">
        <ele>5.1</ele>
        <time>2021-09-25T14:03:45Z</time>
      </trkpt>
      <trkpt lat="46.49776" lon="-1.78562">
        <ele>5.1</ele>
        <time>2021-09-25T14:03:46Z</time>
      </trkpt>
      <trkpt lat="46.49775" lon="-1.78562">
        <ele>5.1</ele>
        <time>2021-09-25T14:03:47Z</time>
      </trkpt>
      <trkpt lat="46.49775" lon="-1.78562">
        <ele>5.1</ele>
        <time>2021-09-25T14:03:48Z</time>
      </trkpt>
      <trkpt lat="46.49775" lon="-1.78562">
        <ele>5.1</ele>
        <time>2021-09-25T14:03:49Z</time>
      </trkpt>
      <trkpt lat="46.49775" lon="-1.78562">
        <ele>5.1</ele>
        <time>2021-09-25T14:03:50Z</time>
      </trkpt>
      <trkpt lat="46.49775" lon="-1.78562">
        <ele>5.1</ele>
        <time>2021-09-25T14:03:51Z</time>
      </trkpt>
      <trkpt lat="46.49775" lon="-1.78562">
        <ele>5.1</ele>
        <time>2021-09-25T14:03:52Z</time>
      </trkpt>
      <trkpt lat="46.49775" lon="-1.78562">
        <ele>5.1</ele>
        <time>2021-09-25T14:03:53Z</time>
      </trkpt>
      <trkpt lat="46.49775" lon="-1.78562">
        <ele>5.1</ele>
        <time>2021-09-25T14:03:54Z</time>
      </trkpt>
      <trkpt lat="46.49775" lon="-1.78562">
        <ele>5.1</ele>
        <time>2021-09-25T14:03:55Z</time>
      </trkpt>
      <trkpt lat="46.49775" lon="-1.78562">
        <ele>5.1</ele>
        <time>2021-09-25T14:03:56Z</time>
      </trkpt>
      <trkpt lat="46.49775" lon="-1.78562">
        <ele>5.1</ele>
        <time>2021-09-25T14:03:57Z</time>
      </trkpt>
      <trkpt lat="46.49775" lon="-1.78561">
        <ele>5.1</ele>
        <time>2021-09-25T14:03:58Z</time>
      </trkpt>
      <trkpt lat="46.49775" lon="-1.78561">
        <ele>5.1</ele>
        <time>2021-09-25T14:03:59Z</time>
      </trkpt>
      <trkpt lat="46.49774" lon="-1.78561">
        <ele>5.1</ele>
        <time>2021-09-25T14:04:00Z</time>
      </trkpt>
      <trkpt lat="46.49774" lon="-1.78561">
        <ele>5.1</ele>
        <time>2021-09-25T14:04:01Z</time>
      </trkpt>
      <trkpt lat="46.49774" lon="-1.78561">
        <ele>5.1</ele>
        <time>2021-09-25T14:04:02Z</time>
      </trkpt>
      <trkpt lat="46.49773" lon="-1.78561">
        <ele>5.1</ele>
        <time>2021-09-25T14:04:03Z</time>
      </trkpt>
      <trkpt lat="46.49773" lon="-1.7856">
        <ele>5.1</ele>
        <time>2021-09-25T14:04:04Z</time>
      </trkpt>
      <trkpt lat="46.49772" lon="-1.7856">
        <ele>5.1</ele>
        <time>2021-09-25T14:04:05Z</time>
      </trkpt>
      <trkpt lat="46.49771" lon="-1.78559">
        <ele>5.1</ele>
        <time>2021-09-25T14:04:06Z</time>
      </trkpt>
      <trkpt lat="46.49771" lon="-1.78558">
        <ele>5.1</ele>
        <time>2021-09-25T14:04:07Z</time>
      </trkpt>
      <trkpt lat="46.49771" lon="-1.78557">
        <ele>5.1</ele>
        <time>2021-09-25T14:04:08Z</time>
      </trkpt>
      <trkpt lat="46.4977" lon="-1.78556">
        <ele>5.1</ele>
        <time>2021-09-25T14:04:09Z</time>
      </trkpt>
      <trkpt lat="46.4977" lon="-1.78555">
        <ele>5.1</ele>
        <time>2021-09-25T14:04:10Z</time>
      </trkpt>
      <trkpt lat="46.49769" lon="-1.78554">
        <ele>5.1</ele>
        <time>2021-09-25T14:04:11Z</time>
      </trkpt>
      <trkpt lat="46.49769" lon="-1.78554">
        <ele>5.1</ele>
        <time>2021-09-25T14:04:12Z</time>
      </trkpt>
      <trkpt lat="46.49769" lon="-1.78553">
        <ele>5.1</ele>
        <time>2021-09-25T14:04:13Z</time>
      </trkpt>
      <trkpt lat="46.49768" lon="-1.78552">
        <ele>5.1</ele>
        <time>2021-09-25T14:04:14Z</time>
      </trkpt>
      <trkpt lat="46.49768" lon="-1.78552">
        <ele>5.1</ele>
        <time>2021-09-25T14:04:15Z</time>
      </trkpt>
      <trkpt lat="46.49768" lon="-1.78552">
        <ele>5.1</ele>
        <time>2021-09-25T14:04:16Z</time>
      </trkpt>
      <trkpt lat="46.49768" lon="-1.78552">
        <ele>5.1</ele>
        <time>2021-09-25T14:04:17Z</time>
      </trkpt>
      <trkpt lat="46.49768" lon="-1.78552">
        <ele>5.1</ele>
        <time>2021-09-25T14:04:18Z</time>
      </trkpt>
      <trkpt lat="46.49768" lon="-1.78552">
        <ele>5.1</ele>
        <time>2021-09-25T14:04:19Z</time>
      </trkpt>
      <trkpt lat="46.49767" lon="-1.78552">
        <ele>5.1</ele>
        <time>2021-09-25T14:04:20Z</time>
      </trkpt>
      <trkpt lat="46.49767" lon="-1.78552">
        <ele>5.1</ele>
        <time>2021-09-25T14:04:21Z</time>
      </trkpt>
      <trkpt lat="46.49767" lon="-1.78552">
        <ele>5.1</ele>
        <time>2021-09-25T14:04:22Z</time>
      </trkpt>
      <trkpt lat="46.49767" lon="-1.78551">
        <ele>5.1</ele>
        <time>2021-09-25T14:04:23Z</time>
      </trkpt>
      <trkpt lat="46.49767" lon="-1.78551">
        <ele>5.1</ele>
        <time>2021-09-25T14:04:24Z</time>
      </trkpt>
      <trkpt lat="46.49766" lon="-1.78551">
        <ele>5.1</ele>
        <time>2021-09-25T14:04:25Z</time>
      </trkpt>
      <trkpt lat="46.49766" lon="-1.78551">
        <ele>5.1</ele>
        <time>2021-09-25T14:04:26Z</time>
      </trkpt>
      <trkpt lat="46.49766" lon="-1.78551">
        <ele>5.1</ele>
        <time>2021-09-25T14:04:27Z</time>
      </trkpt>
      <trkpt lat="46.49766" lon="-1.78551">
        <ele>5.1</ele>
        <time>2021-09-25T14:04:28Z</time>
      </trkpt>
      <trkpt lat="46.49766" lon="-1.78551">
        <ele>5.1</ele>
        <time>2021-09-25T14:04:29Z</time>
      </trkpt>
      <trkpt lat="46.49766" lon="-1.78551">
        <ele>5.1</ele>
        <time>2021-09-25T14:04:30Z</time>
      </trkpt>
      <trkpt lat="46.49765" lon="-1.78551">
        <ele>5.1</ele>
        <time>2021-09-25T14:04:31Z</time>
      </trkpt>
      <trkpt lat="46.49765" lon="-1.7855">
        <ele>5.1</ele>
        <time>2021-09-25T14:04:32Z</time>
      </trkpt>
      <trkpt lat="46.49765" lon="-1.7855">
        <ele>5.1</ele>
        <time>2021-09-25T14:04:33Z</time>
      </trkpt>
      <trkpt lat="46.49765" lon="-1.7855">
        <ele>5.1</ele>
        <time>2021-09-25T14:04:34Z</time>
      </trkpt>
      <trkpt lat="46.49765" lon="-1.7855">
        <ele>5.1</ele>
        <time>2021-09-25T14:04:35Z</time>
      </trkpt>
      <trkpt lat="46.49764" lon="-1.7855">
        <ele>5.1</ele>
        <time>2021-09-25T14:04:36Z</time>
      </trkpt>
      <trkpt lat="46.49764" lon="-1.7855">
        <ele>5.1</ele>
        <time>2021-09-25T14:04:37Z</time>
      </trkpt>
      <trkpt lat="46.49764" lon="-1.7855">
        <ele>5.1</ele>
        <time>2021-09-25T14:04:38Z</time>
      </trkpt>
      <trkpt lat="46.49764" lon="-1.7855">
        <ele>5.1</ele>
        <time>2021-09-25T14:04:39Z</time>
      </trkpt>
      <trkpt lat="46.49764" lon="-1.7855">
        <ele>5.1</ele>
        <time>2021-09-25T14:04:40Z</time>
      </trkpt>
      <trkpt lat="46.49764" lon="-1.7855">
        <ele>5.1</ele>
        <time>2021-09-25T14:04:41Z</time>
      </trkpt>
      <trkpt lat="46.49763" lon="-1.78549">
        <ele>5.1</ele>
        <time>2021-09-25T14:04:42Z</time>
      </trkpt>
      <trkpt lat="46.49763" lon="-1.78549">
        <ele>5.1</ele>
        <time>2021-09-25T14:04:43Z</time>
      </trkpt>
      <trkpt lat="46.49763" lon="-1.78549">
        <ele>5.1</ele>
        <time>2021-09-25T14:04:44Z</time>
      </trkpt>
      <trkpt lat="46.49763" lon="-1.78549">
        <ele>5.1</ele>
        <time>2021-09-25T14:04:45Z</time>
      </trkpt>
      <trkpt lat="46.49763" lon="-1.78549">
        <ele>5.1</ele>
        <time>2021-09-25T14:04:46Z</time>
      </trkpt>
      <trkpt lat="46.49762" lon="-1.78549">
        <ele>5.1</ele>
        <time>2021-09-25T14:04:47Z</time>
      </trkpt>
      <trkpt lat="46.49762" lon="-1.78549">
        <ele>5.1</ele>
        <time>2021-09-25T14:04:48Z</time>
      </trkpt>
      <trkpt lat="46.49762" lon="-1.78549">
        <ele>5.1</ele>
        <time>2021-09-25T14:04:49Z</time>
      </trkpt>
      <trkpt lat="46.49762" lon="-1.78549">
        <ele>5.1</ele>
        <time>2021-09-25T14:04:50Z</time>
      </trkpt>
      <trkpt lat="46.49762" lon="-1.78549">
        <ele>5.1</ele>
        <time>2021-09-25T14:04:51Z</time>
      </trkpt>
      <trkpt lat="46.49761" lon="-1.78548">
        <ele>5.1</ele>
        <time>2021-09-25T14:04:52Z</time>
      </trkpt>
      <trkpt lat="46.49761" lon="-1.78548">
        <ele>5.1</ele>
        <time>2021-09-25T14:04:53Z</time>
      </trkpt>
      <trkpt lat="46.49761" lon="-1.78548">
        <ele>5.1</ele>
        <time>2021-09-25T14:04:54Z</time>
      </trkpt>
      <trkpt lat="46.49761" lon="-1.78548">
        <ele>5.1</ele>
        <time>2021-09-25T14:04:55Z</time>
      </trkpt>
      <trkpt lat="46.49761" lon="-1.78548">
        <ele>5.1</ele>
        <time>2021-09-25T14:04:56Z</time>
      </trkpt>
      <trkpt lat="46.49761" lon="-1.78548">
        <ele>5.1</ele>
        <time>2021-09-25T14:04:57Z</time>
      </trkpt>
      <trkpt lat="46.4976" lon="-1.78548">
        <ele>5.1</ele>
        <time>2021-09-25T14:04:58Z</time>
      </trkpt>
      <trkpt lat="46.4976" lon="-1.78548">
        <ele>5.1</ele>
        <time>2021-09-25T14:04:59Z</time>
      </trkpt>
      <trkpt lat="46.4976" lon="-1.78548">
        <ele>5.1</ele>
        <time>2021-09-25T14:05:00Z</time>
      </trkpt>
      <trkpt lat="46.4976" lon="-1.78548">
        <ele>5.1</ele>
        <time>2021-09-25T14:05:01Z</time>
      </trkpt>
      <trkpt lat="46.4976" lon="-1.78547">
        <ele>5.1</ele>
        <time>2021-09-25T14:05:02Z</time>
      </trkpt>
      <trkpt lat="46.49759" lon="-1.78547">
        <ele>5.1</ele>
        <time>2021-09-25T14:05:03Z</time>
      </trkpt>
      <trkpt lat="46.49759" lon="-1.78547">
        <ele>5.1</ele>
        <time>2021-09-25T14:05:04Z</time>
      </trkpt>
      <trkpt lat="46.49759" lon="-1.78547">
        <ele>5.1</ele>
        <time>2021-09-25T14:05:05Z</time>
      </trkpt>
      <trkpt lat="46.49759" lon="-1.78547">
        <ele>5.1</ele>
        <time>2021-09-25T14:05:06Z</time>
      </trkpt>
      <trkpt lat="46.49759" lon="-1.78547">
        <ele>5.1</ele>
        <time>2021-09-25T14:05:07Z</time>
      </trkpt>
      <trkpt lat="46.49759" lon="-1.78547">
        <ele>5.1</ele>
        <time>2021-09-25T14:05:08Z</time>
      </trkpt>
      <trkpt lat="46.49758" lon="-1.78547">
        <ele>5.1</ele>
        <time>2021-09-25T14:05:09Z</time>
      </trkpt>
      <trkpt lat="46.49758" lon="-1.78547">
        <ele>5.1</ele>
        <time>2021-09-25T14:05:10Z</time>
      </trkpt>
      <trkpt lat="46.49758" lon="-1.78546">
        <ele>5.1</ele>
        <time>2021-09-25T14:05:11Z</time>
      </trkpt>
      <trkpt lat="46.49758" lon="-1.78546">
        <ele>5.1</ele>
        <time>2021-09-25T14:05:12Z</time>
      </trkpt>
      <trkpt lat="46.49758" lon="-1.78546">
        <ele>5.1</ele>
        <time>2021-09-25T14:05:13Z</time>
      </trkpt>
      <trkpt lat="46.49757" lon="-1.78546">
        <ele>5.1</ele>
        <time>2021-09-25T14:05:14Z</time>
      </trkpt>
      <trkpt lat="46.49757" lon="-1.78546">
        <ele>5.1</ele>
        <time>2021-09-25T14:05:15Z</time>
      </trkpt>
      <trkpt lat="46.49757" lon="-1.78546">
        <ele>5.1</ele>
        <time>2021-09-25T14:05:16Z</time>
      </trkpt>
      <trkpt lat="46.49757" lon="-1.78546">
        <ele>5.1</ele>
        <time>2021-09-25T14:05:17Z</time>
      </trkpt>
      <trkpt lat="46.49757" lon="-1.78546">
        <ele>5.1</ele>
        <time>2021-09-25T14:05:18Z</time>
      </trkpt>
      <trkpt lat="46.49757" lon="-1.78546">
        <ele>5.1</ele>
        <time>2021-09-25T14:05:19Z</time>
      </trkpt>
      <trkpt lat="46.49756" lon="-1.78546">
        <ele>5.1</ele>
        <time>2021-09-25T14:05:20Z</time>
      </trkpt>
      <trkpt lat="46.49756" lon="-1.78545">
        <ele>5.1</ele>
        <time>2021-09-25T14:05:21Z</time>
      </trkpt>
      <trkpt lat="46.49757" lon="-1.78544">
        <ele>5.1</ele>
        <time>2021-09-25T14:05:22Z</time>
      </trkpt>
      <trkpt lat="46.49757" lon="-1.78544">
        <ele>5.1</ele>
        <time>2021-09-25T14:05:23Z</time>
      </trkpt>
      <trkpt lat="46.49757" lon="-1.78543">
        <ele>5.1</ele>
        <time>2021-09-25T14:05:24Z</time>
      </trkpt>
      <trkpt lat="46.49757" lon="-1.78543">
        <ele>5.1</ele>
        <time>2021-09-25T14:05:25Z</time>
      </trkpt>
      <trkpt lat="46.49757" lon="-1.78542">
        <ele>5.1</ele>
        <time>2021-09-25T14:05:26Z</time>
      </trkpt>
      <trkpt lat="46.49757" lon="-1.78542">
        <ele>5.1</ele>
        <time>2021-09-25T14:05:27Z</time>
      </trkpt>
      <trkpt lat="46.49757" lon="-1.78541">
        <ele>5.1</ele>
        <time>2021-09-25T14:05:28Z</time>
      </trkpt>
      <trkpt lat="46.49758" lon="-1.7854">
        <ele>5.1</ele>
        <time>2021-09-25T14:05:29Z</time>
      </trkpt>
      <trkpt lat="46.49758" lon="-1.7854">
        <ele>5.1</ele>
        <time>2021-09-25T14:05:30Z</time>
      </trkpt>
      <trkpt lat="46.49758" lon="-1.78539">
        <ele>5.1</ele>
        <time>2021-09-25T14:05:31Z</time>
      </trkpt>
      <trkpt lat="46.49758" lon="-1.78538">
        <ele>5.1</ele>
        <time>2021-09-25T14:05:32Z</time>
      </trkpt>
      <trkpt lat="46.49758" lon="-1.78537">
        <ele>5.1</ele>
        <time>2021-09-25T14:05:33Z</time>
      </trkpt>
      <trkpt lat="46.49758" lon="-1.78536">
        <ele>5.1</ele>
        <time>2021-09-25T14:05:34Z</time>
      </trkpt>
      <trkpt lat="46.49758" lon="-1.78534">
        <ele>5.1</ele>
        <time>2021-09-25T14:05:35Z</time>
      </trkpt>
      <trkpt lat="46.49758" lon="-1.78533">
        <ele>5.1</ele>
        <time>2021-09-25T14:05:36Z</time>
      </trkpt>
      <trkpt lat="46.49758" lon="-1.78532">
        <ele>5.1</ele>
        <time>2021-09-25T14:05:37Z</time>
      </trkpt>
      <trkpt lat="46.49758" lon="-1.7853">
        <ele>5.1</ele>
        <time>2021-09-25T14:05:38Z</time>
      </trkpt>
      <trkpt lat="46.49758" lon="-1.78528">
        <ele>5.1</ele>
        <time>2021-09-25T14:05:39Z</time>
      </trkpt>
      <trkpt lat="46.49758" lon="-1.78527">
        <ele>5.1</ele>
        <time>2021-09-25T14:05:40Z</time>
      </trkpt>
      <trkpt lat="46.49758" lon="-1.78525">
        <ele>5.1</ele>
        <time>2021-09-25T14:05:41Z</time>
      </trkpt>
      <trkpt lat="46.49758" lon="-1.78524">
        <ele>5.1</ele>
        <time>2021-09-25T14:05:42Z</time>
      </trkpt>
      <trkpt lat="46.49758" lon="-1.78522">
        <ele>5.1</ele>
        <time>2021-09-25T14:05:43Z</time>
      </trkpt>
      <trkpt lat="46.49758" lon="-1.78521">
        <ele>5.1</ele>
        <time>2021-09-25T14:05:44Z</time>
      </trkpt>
      <trkpt lat="46.49758" lon="-1.78519">
        <ele>5.1</ele>
        <time>2021-09-25T14:05:45Z</time>
      </trkpt>
      <trkpt lat="46.49757" lon="-1.78518">
        <ele>5.1</ele>
        <time>2021-09-25T14:05:46Z</time>
      </trkpt>
      <trkpt lat="46.49757" lon="-1.78516">
        <ele>5.1</ele>
        <time>2021-09-25T14:05:47Z</time>
      </trkpt>
      <trkpt lat="46.49757" lon="-1.78515">
        <ele>5.1</ele>
        <time>2021-09-25T14:05:48Z</time>
      </trkpt>
      <trkpt lat="46.49757" lon="-1.78513">
        <ele>5.1</ele>
        <time>2021-09-25T14:05:49Z</time>
      </trkpt>
      <trkpt lat="46.49757" lon="-1.78512">
        <ele>5</ele>
        <time>2021-09-25T14:05:50Z</time>
      </trkpt>
      <trkpt lat="46.49757" lon="-1.7851">
        <ele>5</ele>
        <time>2021-09-25T14:05:51Z</time>
      </trkpt>
      <trkpt lat="46.49757" lon="-1.78508">
        <ele>5</ele>
        <time>2021-09-25T14:05:52Z</time>
      </trkpt>
      <trkpt lat="46.49757" lon="-1.78507">
        <ele>5</ele>
        <time>2021-09-25T14:05:53Z</time>
      </trkpt>
      <trkpt lat="46.49757" lon="-1.78505">
        <ele>5</ele>
        <time>2021-09-25T14:05:54Z</time>
      </trkpt>
      <trkpt lat="46.49757" lon="-1.78503">
        <ele>5</ele>
        <time>2021-09-25T14:05:55Z</time>
      </trkpt>
      <trkpt lat="46.49757" lon="-1.78501">
        <ele>5</ele>
        <time>2021-09-25T14:05:56Z</time>
      </trkpt>
      <trkpt lat="46.49757" lon="-1.78499">
        <ele>5</ele>
        <time>2021-09-25T14:05:57Z</time>
      </trkpt>
      <trkpt lat="46.49757" lon="-1.78497">
        <ele>5</ele>
        <time>2021-09-25T14:05:58Z</time>
      </trkpt>
      <trkpt lat="46.49757" lon="-1.78496">
        <ele>5</ele>
        <time>2021-09-25T14:05:59Z</time>
      </trkpt>
      <trkpt lat="46.49757" lon="-1.78494">
        <ele>5</ele>
        <time>2021-09-25T14:06:00Z</time>
      </trkpt>
      <trkpt lat="46.49757" lon="-1.78493">
        <ele>5</ele>
        <time>2021-09-25T14:06:01Z</time>
      </trkpt>
      <trkpt lat="46.49756" lon="-1.78491">
        <ele>5</ele>
        <time>2021-09-25T14:06:02Z</time>
      </trkpt>
      <trkpt lat="46.49756" lon="-1.7849">
        <ele>5</ele>
        <time>2021-09-25T14:06:03Z</time>
      </trkpt>
      <trkpt lat="46.49756" lon="-1.78488">
        <ele>5</ele>
        <time>2021-09-25T14:06:04Z</time>
      </trkpt>
      <trkpt lat="46.49755" lon="-1.78487">
        <ele>5</ele>
        <time>2021-09-25T14:06:05Z</time>
      </trkpt>
      <trkpt lat="46.49755" lon="-1.78486">
        <ele>5</ele>
        <time>2021-09-25T14:06:06Z</time>
      </trkpt>
      <trkpt lat="46.49755" lon="-1.78485">
        <ele>5</ele>
        <time>2021-09-25T14:06:07Z</time>
      </trkpt>
      <trkpt lat="46.49754" lon="-1.78484">
        <ele>5</ele>
        <time>2021-09-25T14:06:08Z</time>
      </trkpt>
      <trkpt lat="46.49754" lon="-1.78482">
        <ele>5</ele>
        <time>2021-09-25T14:06:09Z</time>
      </trkpt>
      <trkpt lat="46.49753" lon="-1.78481">
        <ele>5</ele>
        <time>2021-09-25T14:06:10Z</time>
      </trkpt>
      <trkpt lat="46.49753" lon="-1.7848">
        <ele>5</ele>
        <time>2021-09-25T14:06:11Z</time>
      </trkpt>
      <trkpt lat="46.49752" lon="-1.78479">
        <ele>5</ele>
        <time>2021-09-25T14:06:12Z</time>
      </trkpt>
      <trkpt lat="46.49752" lon="-1.78478">
        <ele>5</ele>
        <time>2021-09-25T14:06:13Z</time>
      </trkpt>
      <trkpt lat="46.49752" lon="-1.78476">
        <ele>5</ele>
        <time>2021-09-25T14:06:14Z</time>
      </trkpt>
      <trkpt lat="46.49751" lon="-1.78475">
        <ele>5</ele>
        <time>2021-09-25T14:06:15Z</time>
      </trkpt>
      <trkpt lat="46.49751" lon="-1.78474">
        <ele>5</ele>
        <time>2021-09-25T14:06:16Z</time>
      </trkpt>
      <trkpt lat="46.49751" lon="-1.78472">
        <ele>4.9</ele>
        <time>2021-09-25T14:06:17Z</time>
      </trkpt>
      <trkpt lat="46.4975" lon="-1.78471">
        <ele>4.9</ele>
        <time>2021-09-25T14:06:18Z</time>
      </trkpt>
      <trkpt lat="46.4975" lon="-1.78469">
        <ele>4.9</ele>
        <time>2021-09-25T14:06:19Z</time>
      </trkpt>
      <trkpt lat="46.4975" lon="-1.78467">
        <ele>4.9</ele>
        <time>2021-09-25T14:06:20Z</time>
      </trkpt>
      <trkpt lat="46.4975" lon="-1.78466">
        <ele>4.9</ele>
        <time>2021-09-25T14:06:21Z</time>
      </trkpt>
      <trkpt lat="46.4975" lon="-1.78464">
        <ele>4.9</ele>
        <time>2021-09-25T14:06:22Z</time>
      </trkpt>
      <trkpt lat="46.4975" lon="-1.78462">
        <ele>4.9</ele>
        <time>2021-09-25T14:06:23Z</time>
      </trkpt>
      <trkpt lat="46.4975" lon="-1.78461">
        <ele>4.9</ele>
        <time>2021-09-25T14:06:24Z</time>
      </trkpt>
      <trkpt lat="46.4975" lon="-1.78459">
        <ele>4.9</ele>
        <time>2021-09-25T14:06:25Z</time>
      </trkpt>
      <trkpt lat="46.4975" lon="-1.78458">
        <ele>4.9</ele>
        <time>2021-09-25T14:06:26Z</time>
      </trkpt>
      <trkpt lat="46.4975" lon="-1.78457">
        <ele>4.9</ele>
        <time>2021-09-25T14:06:27Z</time>
      </trkpt>
      <trkpt lat="46.4975" lon="-1.78454">
        <ele>4.9</ele>
        <time>2021-09-25T14:06:28Z</time>
      </trkpt>
      <trkpt lat="46.49751" lon="-1.78452">
        <ele>4.9</ele>
        <time>2021-09-25T14:06:29Z</time>
      </trkpt>
      <trkpt lat="46.49751" lon="-1.7845">
        <ele>4.9</ele>
        <time>2021-09-25T14:06:30Z</time>
      </trkpt>
      <trkpt lat="46.49751" lon="-1.78448">
        <ele>5</ele>
        <time>2021-09-25T14:06:31Z</time>
      </trkpt>
      <trkpt lat="46.49751" lon="-1.78447">
        <ele>5</ele>
        <time>2021-09-25T14:06:32Z</time>
      </trkpt>
      <trkpt lat="46.49751" lon="-1.78445">
        <ele>5</ele>
        <time>2021-09-25T14:06:33Z</time>
      </trkpt>
      <trkpt lat="46.49751" lon="-1.78443">
        <ele>5</ele>
        <time>2021-09-25T14:06:34Z</time>
      </trkpt>
      <trkpt lat="46.49752" lon="-1.78441">
        <ele>5</ele>
        <time>2021-09-25T14:06:35Z</time>
      </trkpt>
      <trkpt lat="46.49752" lon="-1.7844">
        <ele>5</ele>
        <time>2021-09-25T14:06:36Z</time>
      </trkpt>
      <trkpt lat="46.49752" lon="-1.78438">
        <ele>5</ele>
        <time>2021-09-25T14:06:37Z</time>
      </trkpt>
      <trkpt lat="46.49752" lon="-1.78436">
        <ele>5</ele>
        <time>2021-09-25T14:06:38Z</time>
      </trkpt>
      <trkpt lat="46.49752" lon="-1.78434">
        <ele>5</ele>
        <time>2021-09-25T14:06:39Z</time>
      </trkpt>
      <trkpt lat="46.49753" lon="-1.78432">
        <ele>5</ele>
        <time>2021-09-25T14:06:40Z</time>
      </trkpt>
      <trkpt lat="46.49753" lon="-1.78431">
        <ele>5</ele>
        <time>2021-09-25T14:06:41Z</time>
      </trkpt>
      <trkpt lat="46.49753" lon="-1.78429">
        <ele>5</ele>
        <time>2021-09-25T14:06:42Z</time>
      </trkpt>
      <trkpt lat="46.49753" lon="-1.78427">
        <ele>5</ele>
        <time>2021-09-25T14:06:43Z</time>
      </trkpt>
      <trkpt lat="46.49753" lon="-1.78425">
        <ele>5</ele>
        <time>2021-09-25T14:06:44Z</time>
      </trkpt>
      <trkpt lat="46.49754" lon="-1.78423">
        <ele>5</ele>
        <time>2021-09-25T14:06:45Z</time>
      </trkpt>
      <trkpt lat="46.49754" lon="-1.78422">
        <ele>5</ele>
        <time>2021-09-25T14:06:46Z</time>
      </trkpt>
      <trkpt lat="46.49754" lon="-1.7842">
        <ele>5</ele>
        <time>2021-09-25T14:06:47Z</time>
      </trkpt>
      <trkpt lat="46.49754" lon="-1.78418">
        <ele>5</ele>
        <time>2021-09-25T14:06:48Z</time>
      </trkpt>
      <trkpt lat="46.49754" lon="-1.78417">
        <ele>5</ele>
        <time>2021-09-25T14:06:49Z</time>
      </trkpt>
      <trkpt lat="46.49753" lon="-1.78416">
        <ele>5</ele>
        <time>2021-09-25T14:06:50Z</time>
      </trkpt>
      <trkpt lat="46.49753" lon="-1.78415">
        <ele>5</ele>
        <time>2021-09-25T14:06:51Z</time>
      </trkpt>
      <trkpt lat="46.49753" lon="-1.78413">
        <ele>5</ele>
        <time>2021-09-25T14:06:52Z</time>
      </trkpt>
      <trkpt lat="46.49752" lon="-1.78412">
        <ele>5</ele>
        <time>2021-09-25T14:06:53Z</time>
      </trkpt>
      <trkpt lat="46.49752" lon="-1.78411">
        <ele>5</ele>
        <time>2021-09-25T14:06:54Z</time>
      </trkpt>
      <trkpt lat="46.49751" lon="-1.78409">
        <ele>5</ele>
        <time>2021-09-25T14:06:55Z</time>
      </trkpt>
      <trkpt lat="46.49751" lon="-1.78408">
        <ele>5</ele>
        <time>2021-09-25T14:06:56Z</time>
      </trkpt>
      <trkpt lat="46.4975" lon="-1.78406">
        <ele>4.9</ele>
        <time>2021-09-25T14:06:57Z</time>
      </trkpt>
      <trkpt lat="46.49749" lon="-1.78405">
        <ele>4.9</ele>
        <time>2021-09-25T14:06:58Z</time>
      </trkpt>
      <trkpt lat="46.49749" lon="-1.78403">
        <ele>4.9</ele>
        <time>2021-09-25T14:06:59Z</time>
      </trkpt>
      <trkpt lat="46.49748" lon="-1.78401">
        <ele>4.9</ele>
        <time>2021-09-25T14:07:00Z</time>
      </trkpt>
      <trkpt lat="46.49748" lon="-1.784">
        <ele>4.9</ele>
        <time>2021-09-25T14:07:01Z</time>
      </trkpt>
      <trkpt lat="46.49747" lon="-1.78398">
        <ele>4.9</ele>
        <time>2021-09-25T14:07:02Z</time>
      </trkpt>
      <trkpt lat="46.49746" lon="-1.78396">
        <ele>4.9</ele>
        <time>2021-09-25T14:07:03Z</time>
      </trkpt>
      <trkpt lat="46.49746" lon="-1.78395">
        <ele>4.9</ele>
        <time>2021-09-25T14:07:04Z</time>
      </trkpt>
      <trkpt lat="46.49745" lon="-1.78393">
        <ele>4.9</ele>
        <time>2021-09-25T14:07:05Z</time>
      </trkpt>
      <trkpt lat="46.49745" lon="-1.78391">
        <ele>4.9</ele>
        <time>2021-09-25T14:07:06Z</time>
      </trkpt>
      <trkpt lat="46.49745" lon="-1.7839">
        <ele>4.9</ele>
        <time>2021-09-25T14:07:07Z</time>
      </trkpt>
      <trkpt lat="46.49745" lon="-1.78388">
        <ele>4.9</ele>
        <time>2021-09-25T14:07:08Z</time>
      </trkpt>
      <trkpt lat="46.49744" lon="-1.78387">
        <ele>4.9</ele>
        <time>2021-09-25T14:07:09Z</time>
      </trkpt>
      <trkpt lat="46.49744" lon="-1.78385">
        <ele>4.9</ele>
        <time>2021-09-25T14:07:10Z</time>
      </trkpt>
      <trkpt lat="46.49744" lon="-1.78384">
        <ele>4.9</ele>
        <time>2021-09-25T14:07:11Z</time>
      </trkpt>
      <trkpt lat="46.49744" lon="-1.78383">
        <ele>4.9</ele>
        <time>2021-09-25T14:07:12Z</time>
      </trkpt>
      <trkpt lat="46.49743" lon="-1.78381">
        <ele>4.9</ele>
        <time>2021-09-25T14:07:13Z</time>
      </trkpt>
      <trkpt lat="46.49743" lon="-1.7838">
        <ele>4.9</ele>
        <time>2021-09-25T14:07:14Z</time>
      </trkpt>
      <trkpt lat="46.49743" lon="-1.78379">
        <ele>4.9</ele>
        <time>2021-09-25T14:07:15Z</time>
      </trkpt>
      <trkpt lat="46.49742" lon="-1.78377">
        <ele>4.9</ele>
        <time>2021-09-25T14:07:16Z</time>
      </trkpt>
      <trkpt lat="46.49741" lon="-1.78376">
        <ele>4.9</ele>
        <time>2021-09-25T14:07:17Z</time>
      </trkpt>
      <trkpt lat="46.49741" lon="-1.78375">
        <ele>4.9</ele>
        <time>2021-09-25T14:07:18Z</time>
      </trkpt>
      <trkpt lat="46.4974" lon="-1.78374">
        <ele>4.9</ele>
        <time>2021-09-25T14:07:19Z</time>
      </trkpt>
      <trkpt lat="46.49739" lon="-1.78372">
        <ele>4.9</ele>
        <time>2021-09-25T14:07:20Z</time>
      </trkpt>
      <trkpt lat="46.49738" lon="-1.78371">
        <ele>4.8</ele>
        <time>2021-09-25T14:07:21Z</time>
      </trkpt>
      <trkpt lat="46.49737" lon="-1.7837">
        <ele>4.8</ele>
        <time>2021-09-25T14:07:22Z</time>
      </trkpt>
      <trkpt lat="46.49736" lon="-1.78369">
        <ele>4.8</ele>
        <time>2021-09-25T14:07:23Z</time>
      </trkpt>
      <trkpt lat="46.49735" lon="-1.78368">
        <ele>4.8</ele>
        <time>2021-09-25T14:07:24Z</time>
      </trkpt>
      <trkpt lat="46.49734" lon="-1.78367">
        <ele>4.8</ele>
        <time>2021-09-25T14:07:25Z</time>
      </trkpt>
      <trkpt lat="46.49734" lon="-1.78366">
        <ele>4.8</ele>
        <time>2021-09-25T14:07:26Z</time>
      </trkpt>
      <trkpt lat="46.49733" lon="-1.78365">
        <ele>4.8</ele>
        <time>2021-09-25T14:07:27Z</time>
      </trkpt>
      <trkpt lat="46.49732" lon="-1.78364">
        <ele>4.8</ele>
        <time>2021-09-25T14:07:28Z</time>
      </trkpt>
      <trkpt lat="46.49731" lon="-1.78363">
        <ele>4.8</ele>
        <time>2021-09-25T14:07:29Z</time>
      </trkpt>
      <trkpt lat="46.49731" lon="-1.78362">
        <ele>4.8</ele>
        <time>2021-09-25T14:07:30Z</time>
      </trkpt>
      <trkpt lat="46.4973" lon="-1.78361">
        <ele>4.8</ele>
        <time>2021-09-25T14:07:31Z</time>
      </trkpt>
      <trkpt lat="46.4973" lon="-1.7836">
        <ele>4.8</ele>
        <time>2021-09-25T14:07:32Z</time>
      </trkpt>
      <trkpt lat="46.49729" lon="-1.78359">
        <ele>4.8</ele>
        <time>2021-09-25T14:07:33Z</time>
      </trkpt>
      <trkpt lat="46.49729" lon="-1.78358">
        <ele>4.8</ele>
        <time>2021-09-25T14:07:34Z</time>
      </trkpt>
      <trkpt lat="46.49728" lon="-1.78356">
        <ele>4.8</ele>
        <time>2021-09-25T14:07:35Z</time>
      </trkpt>
      <trkpt lat="46.49728" lon="-1.78355">
        <ele>4.8</ele>
        <time>2021-09-25T14:07:36Z</time>
      </trkpt>
      <trkpt lat="46.49727" lon="-1.78354">
        <ele>4.8</ele>
        <time>2021-09-25T14:07:37Z</time>
      </trkpt>
      <trkpt lat="46.49727" lon="-1.78352">
        <ele>4.8</ele>
        <time>2021-09-25T14:07:38Z</time>
      </trkpt>
      <trkpt lat="46.49726" lon="-1.78351">
        <ele>4.8</ele>
        <time>2021-09-25T14:07:39Z</time>
      </trkpt>
      <trkpt lat="46.49726" lon="-1.7835">
        <ele>4.8</ele>
        <time>2021-09-25T14:07:40Z</time>
      </trkpt>
      <trkpt lat="46.49725" lon="-1.78348">
        <ele>4.8</ele>
        <time>2021-09-25T14:07:41Z</time>
      </trkpt>
      <trkpt lat="46.49725" lon="-1.78347">
        <ele>4.8</ele>
        <time>2021-09-25T14:07:42Z</time>
      </trkpt>
      <trkpt lat="46.49724" lon="-1.78346">
        <ele>4.8</ele>
        <time>2021-09-25T14:07:43Z</time>
      </trkpt>
      <trkpt lat="46.49723" lon="-1.78345">
        <ele>4.8</ele>
        <time>2021-09-25T14:07:44Z</time>
      </trkpt>
      <trkpt lat="46.49723" lon="-1.78345">
        <ele>4.8</ele>
        <time>2021-09-25T14:07:45Z</time>
      </trkpt>
      <trkpt lat="46.49722" lon="-1.78344">
        <ele>4.8</ele>
        <time>2021-09-25T14:07:46Z</time>
      </trkpt>
      <trkpt lat="46.49721" lon="-1.78343">
        <ele>4.8</ele>
        <time>2021-09-25T14:07:47Z</time>
      </trkpt>
      <trkpt lat="46.49721" lon="-1.78342">
        <ele>4.8</ele>
        <time>2021-09-25T14:07:48Z</time>
      </trkpt>
      <trkpt lat="46.4972" lon="-1.78341">
        <ele>4.8</ele>
        <time>2021-09-25T14:07:49Z</time>
      </trkpt>
      <trkpt lat="46.4972" lon="-1.78339">
        <ele>4.8</ele>
        <time>2021-09-25T14:07:50Z</time>
      </trkpt>
      <trkpt lat="46.49719" lon="-1.78338">
        <ele>4.8</ele>
        <time>2021-09-25T14:07:51Z</time>
      </trkpt>
      <trkpt lat="46.49719" lon="-1.78336">
        <ele>4.8</ele>
        <time>2021-09-25T14:07:52Z</time>
      </trkpt>
      <trkpt lat="46.49718" lon="-1.78335">
        <ele>4.8</ele>
        <time>2021-09-25T14:07:53Z</time>
      </trkpt>
      <trkpt lat="46.49717" lon="-1.78333">
        <ele>4.8</ele>
        <time>2021-09-25T14:07:54Z</time>
      </trkpt>
      <trkpt lat="46.49716" lon="-1.78332">
        <ele>4.8</ele>
        <time>2021-09-25T14:07:55Z</time>
      </trkpt>
      <trkpt lat="46.49716" lon="-1.78331">
        <ele>4.8</ele>
        <time>2021-09-25T14:07:56Z</time>
      </trkpt>
      <trkpt lat="46.49715" lon="-1.7833">
        <ele>4.8</ele>
        <time>2021-09-25T14:07:57Z</time>
      </trkpt>
      <trkpt lat="46.49714" lon="-1.7833">
        <ele>4.8</ele>
        <time>2021-09-25T14:07:58Z</time>
      </trkpt>
      <trkpt lat="46.49714" lon="-1.78329">
        <ele>4.8</ele>
        <time>2021-09-25T14:07:59Z</time>
      </trkpt>
      <trkpt lat="46.49714" lon="-1.78329">
        <ele>4.8</ele>
        <time>2021-09-25T14:08:00Z</time>
      </trkpt>
      <trkpt lat="46.49714" lon="-1.78329">
        <ele>4.8</ele>
        <time>2021-09-25T14:08:01Z</time>
      </trkpt>
      <trkpt lat="46.49713" lon="-1.78329">
        <ele>4.8</ele>
        <time>2021-09-25T14:08:02Z</time>
      </trkpt>
      <trkpt lat="46.49713" lon="-1.78329">
        <ele>4.8</ele>
        <time>2021-09-25T14:08:03Z</time>
      </trkpt>
      <trkpt lat="46.49713" lon="-1.78329">
        <ele>4.8</ele>
        <time>2021-09-25T14:08:04Z</time>
      </trkpt>
      <trkpt lat="46.49713" lon="-1.78329">
        <ele>4.8</ele>
        <time>2021-09-25T14:08:05Z</time>
      </trkpt>
      <trkpt lat="46.49713" lon="-1.78329">
        <ele>4.8</ele>
        <time>2021-09-25T14:08:06Z</time>
      </trkpt>
      <trkpt lat="46.49713" lon="-1.78329">
        <ele>4.8</ele>
        <time>2021-09-25T14:08:07Z</time>
      </trkpt>
      <trkpt lat="46.49713" lon="-1.78329">
        <ele>4.8</ele>
        <time>2021-09-25T14:08:08Z</time>
      </trkpt>
      <trkpt lat="46.49713" lon="-1.78329">
        <ele>4.8</ele>
        <time>2021-09-25T14:08:09Z</time>
      </trkpt>
      <trkpt lat="46.49713" lon="-1.78329">
        <ele>4.8</ele>
        <time>2021-09-25T14:08:10Z</time>
      </trkpt>
      <trkpt lat="46.49713" lon="-1.78329">
        <ele>4.8</ele>
        <time>2021-09-25T14:08:11Z</time>
      </trkpt>
      <trkpt lat="46.49713" lon="-1.78329">
        <ele>4.8</ele>
        <time>2021-09-25T14:08:12Z</time>
      </trkpt>
      <trkpt lat="46.49712" lon="-1.78328">
        <ele>4.8</ele>
        <time>2021-09-25T14:08:13Z</time>
      </trkpt>
      <trkpt lat="46.49712" lon="-1.78328">
        <ele>4.8</ele>
        <time>2021-09-25T14:08:14Z</time>
      </trkpt>
      <trkpt lat="46.49712" lon="-1.78327">
        <ele>4.8</ele>
        <time>2021-09-25T14:08:15Z</time>
      </trkpt>
      <trkpt lat="46.49711" lon="-1.78327">
        <ele>4.8</ele>
        <time>2021-09-25T14:08:16Z</time>
      </trkpt>
      <trkpt lat="46.49711" lon="-1.78326">
        <ele>4.8</ele>
        <time>2021-09-25T14:08:17Z</time>
      </trkpt>
      <trkpt lat="46.4971" lon="-1.78325">
        <ele>4.8</ele>
        <time>2021-09-25T14:08:18Z</time>
      </trkpt>
      <trkpt lat="46.4971" lon="-1.78324">
        <ele>4.8</ele>
        <time>2021-09-25T14:08:19Z</time>
      </trkpt>
      <trkpt lat="46.49709" lon="-1.78323">
        <ele>4.9</ele>
        <time>2021-09-25T14:08:20Z</time>
      </trkpt>
      <trkpt lat="46.49709" lon="-1.78322">
        <ele>4.9</ele>
        <time>2021-09-25T14:08:21Z</time>
      </trkpt>
      <trkpt lat="46.49709" lon="-1.78321">
        <ele>4.9</ele>
        <time>2021-09-25T14:08:22Z</time>
      </trkpt>
      <trkpt lat="46.49708" lon="-1.7832">
        <ele>4.9</ele>
        <time>2021-09-25T14:08:23Z</time>
      </trkpt>
      <trkpt lat="46.49708" lon="-1.78319">
        <ele>4.9</ele>
        <time>2021-09-25T14:08:24Z</time>
      </trkpt>
      <trkpt lat="46.49707" lon="-1.78318">
        <ele>4.9</ele>
        <time>2021-09-25T14:08:25Z</time>
      </trkpt>
      <trkpt lat="46.49706" lon="-1.78317">
        <ele>4.9</ele>
        <time>2021-09-25T14:08:26Z</time>
      </trkpt>
      <trkpt lat="46.49705" lon="-1.78316">
        <ele>4.9</ele>
        <time>2021-09-25T14:08:27Z</time>
      </trkpt>
      <trkpt lat="46.49704" lon="-1.78316">
        <ele>4.9</ele>
        <time>2021-09-25T14:08:28Z</time>
      </trkpt>
      <trkpt lat="46.49703" lon="-1.78315">
        <ele>5</ele>
        <time>2021-09-25T14:08:29Z</time>
      </trkpt>
      <trkpt lat="46.49702" lon="-1.78315">
        <ele>5</ele>
        <time>2021-09-25T14:08:30Z</time>
      </trkpt>
      <trkpt lat="46.49701" lon="-1.78315">
        <ele>5</ele>
        <time>2021-09-25T14:08:31Z</time>
      </trkpt>
      <trkpt lat="46.497" lon="-1.78316">
        <ele>5</ele>
        <time>2021-09-25T14:08:32Z</time>
      </trkpt>
      <trkpt lat="46.49699" lon="-1.78316">
        <ele>5</ele>
        <time>2021-09-25T14:08:33Z</time>
      </trkpt>
      <trkpt lat="46.49698" lon="-1.78317">
        <ele>4.9</ele>
        <time>2021-09-25T14:08:34Z</time>
      </trkpt>
      <trkpt lat="46.49697" lon="-1.78317">
        <ele>4.9</ele>
        <time>2021-09-25T14:08:35Z</time>
      </trkpt>
      <trkpt lat="46.49696" lon="-1.78318">
        <ele>4.9</ele>
        <time>2021-09-25T14:08:36Z</time>
      </trkpt>
      <trkpt lat="46.49695" lon="-1.78319">
        <ele>4.9</ele>
        <time>2021-09-25T14:08:37Z</time>
      </trkpt>
      <trkpt lat="46.49694" lon="-1.7832">
        <ele>4.9</ele>
        <time>2021-09-25T14:08:38Z</time>
      </trkpt>
      <trkpt lat="46.49693" lon="-1.78321">
        <ele>4.9</ele>
        <time>2021-09-25T14:08:39Z</time>
      </trkpt>
      <trkpt lat="46.49692" lon="-1.78322">
        <ele>4.9</ele>
        <time>2021-09-25T14:08:40Z</time>
      </trkpt>
      <trkpt lat="46.49691" lon="-1.78323">
        <ele>4.9</ele>
        <time>2021-09-25T14:08:41Z</time>
      </trkpt>
      <trkpt lat="46.4969" lon="-1.78324">
        <ele>4.9</ele>
        <time>2021-09-25T14:08:42Z</time>
      </trkpt>
      <trkpt lat="46.49689" lon="-1.78325">
        <ele>4.9</ele>
        <time>2021-09-25T14:08:43Z</time>
      </trkpt>
      <trkpt lat="46.49688" lon="-1.78326">
        <ele>4.9</ele>
        <time>2021-09-25T14:08:44Z</time>
      </trkpt>
      <trkpt lat="46.49688" lon="-1.78327">
        <ele>4.9</ele>
        <time>2021-09-25T14:08:45Z</time>
      </trkpt>
      <trkpt lat="46.49687" lon="-1.78328">
        <ele>4.9</ele>
        <time>2021-09-25T14:08:46Z</time>
      </trkpt>
      <trkpt lat="46.49686" lon="-1.78329">
        <ele>5</ele>
        <time>2021-09-25T14:08:47Z</time>
      </trkpt>
      <trkpt lat="46.49685" lon="-1.7833">
        <ele>5</ele>
        <time>2021-09-25T14:08:48Z</time>
      </trkpt>
      <trkpt lat="46.49684" lon="-1.7833">
        <ele>5</ele>
        <time>2021-09-25T14:08:49Z</time>
      </trkpt>
      <trkpt lat="46.49683" lon="-1.78331">
        <ele>5</ele>
        <time>2021-09-25T14:08:50Z</time>
      </trkpt>
      <trkpt lat="46.49682" lon="-1.78331">
        <ele>5</ele>
        <time>2021-09-25T14:08:51Z</time>
      </trkpt>
      <trkpt lat="46.49681" lon="-1.78331">
        <ele>5</ele>
        <time>2021-09-25T14:08:52Z</time>
      </trkpt>
      <trkpt lat="46.4968" lon="-1.78332">
        <ele>5</ele>
        <time>2021-09-25T14:08:53Z</time>
      </trkpt>
      <trkpt lat="46.49679" lon="-1.78332">
        <ele>5</ele>
        <time>2021-09-25T14:08:54Z</time>
      </trkpt>
      <trkpt lat="46.49678" lon="-1.78332">
        <ele>5</ele>
        <time>2021-09-25T14:08:55Z</time>
      </trkpt>
      <trkpt lat="46.49677" lon="-1.78332">
        <ele>5.1</ele>
        <time>2021-09-25T14:08:56Z</time>
      </trkpt>
      <trkpt lat="46.49677" lon="-1.78332">
        <ele>5.1</ele>
        <time>2021-09-25T14:08:57Z</time>
      </trkpt>
      <trkpt lat="46.49676" lon="-1.78333">
        <ele>5.1</ele>
        <time>2021-09-25T14:08:58Z</time>
      </trkpt>
      <trkpt lat="46.49675" lon="-1.78333">
        <ele>5.1</ele>
        <time>2021-09-25T14:08:59Z</time>
      </trkpt>
      <trkpt lat="46.49674" lon="-1.78333">
        <ele>5.1</ele>
        <time>2021-09-25T14:09:00Z</time>
      </trkpt>
      <trkpt lat="46.49673" lon="-1.78333">
        <ele>5.1</ele>
        <time>2021-09-25T14:09:01Z</time>
      </trkpt>
      <trkpt lat="46.49672" lon="-1.78333">
        <ele>5.1</ele>
        <time>2021-09-25T14:09:02Z</time>
      </trkpt>
      <trkpt lat="46.49671" lon="-1.78334">
        <ele>5.1</ele>
        <time>2021-09-25T14:09:03Z</time>
      </trkpt>
      <trkpt lat="46.4967" lon="-1.78334">
        <ele>5.1</ele>
        <time>2021-09-25T14:09:04Z</time>
      </trkpt>
      <trkpt lat="46.4967" lon="-1.78334">
        <ele>5.1</ele>
        <time>2021-09-25T14:09:05Z</time>
      </trkpt>
      <trkpt lat="46.49669" lon="-1.78335">
        <ele>5.2</ele>
        <time>2021-09-25T14:09:06Z</time>
      </trkpt>
      <trkpt lat="46.49668" lon="-1.78336">
        <ele>5.2</ele>
        <time>2021-09-25T14:09:07Z</time>
      </trkpt>
      <trkpt lat="46.49667" lon="-1.78336">
        <ele>5.2</ele>
        <time>2021-09-25T14:09:08Z</time>
      </trkpt>
      <trkpt lat="46.49667" lon="-1.78337">
        <ele>5.2</ele>
        <time>2021-09-25T14:09:09Z</time>
      </trkpt>
      <trkpt lat="46.49666" lon="-1.78338">
        <ele>5.2</ele>
        <time>2021-09-25T14:09:10Z</time>
      </trkpt>
      <trkpt lat="46.49665" lon="-1.78339">
        <ele>5.2</ele>
        <time>2021-09-25T14:09:11Z</time>
      </trkpt>
      <trkpt lat="46.49665" lon="-1.7834">
        <ele>5.2</ele>
        <time>2021-09-25T14:09:12Z</time>
      </trkpt>
      <trkpt lat="46.49664" lon="-1.78342">
        <ele>5.2</ele>
        <time>2021-09-25T14:09:13Z</time>
      </trkpt>
      <trkpt lat="46.49664" lon="-1.78343">
        <ele>5.2</ele>
        <time>2021-09-25T14:09:14Z</time>
      </trkpt>
      <trkpt lat="46.49663" lon="-1.78344">
        <ele>5.2</ele>
        <time>2021-09-25T14:09:15Z</time>
      </trkpt>
      <trkpt lat="46.49662" lon="-1.78345">
        <ele>5.2</ele>
        <time>2021-09-25T14:09:16Z</time>
      </trkpt>
      <trkpt lat="46.49662" lon="-1.78346">
        <ele>5.2</ele>
        <time>2021-09-25T14:09:17Z</time>
      </trkpt>
      <trkpt lat="46.49661" lon="-1.78347">
        <ele>5.2</ele>
        <time>2021-09-25T14:09:18Z</time>
      </trkpt>
      <trkpt lat="46.49661" lon="-1.78349">
        <ele>5.2</ele>
        <time>2021-09-25T14:09:19Z</time>
      </trkpt>
      <trkpt lat="46.49661" lon="-1.7835">
        <ele>5.2</ele>
        <time>2021-09-25T14:09:20Z</time>
      </trkpt>
      <trkpt lat="46.49661" lon="-1.78351">
        <ele>5.2</ele>
        <time>2021-09-25T14:09:21Z</time>
      </trkpt>
      <trkpt lat="46.49661" lon="-1.78351">
        <ele>5.2</ele>
        <time>2021-09-25T14:09:22Z</time>
      </trkpt>
      <trkpt lat="46.49661" lon="-1.78352">
        <ele>5.2</ele>
        <time>2021-09-25T14:09:23Z</time>
      </trkpt>
      <trkpt lat="46.49662" lon="-1.78353">
        <ele>5.2</ele>
        <time>2021-09-25T14:09:24Z</time>
      </trkpt>
      <trkpt lat="46.49662" lon="-1.78353">
        <ele>5.2</ele>
        <time>2021-09-25T14:09:25Z</time>
      </trkpt>
      <trkpt lat="46.49662" lon="-1.78354">
        <ele>5.2</ele>
        <time>2021-09-25T14:09:26Z</time>
      </trkpt>
      <trkpt lat="46.49662" lon="-1.78355">
        <ele>5.2</ele>
        <time>2021-09-25T14:09:27Z</time>
      </trkpt>
      <trkpt lat="46.49662" lon="-1.78355">
        <ele>5.2</ele>
        <time>2021-09-25T14:09:28Z</time>
      </trkpt>
      <trkpt lat="46.49662" lon="-1.78356">
        <ele>5.2</ele>
        <time>2021-09-25T14:09:29Z</time>
      </trkpt>
      <trkpt lat="46.49662" lon="-1.78356">
        <ele>5.2</ele>
        <time>2021-09-25T14:09:30Z</time>
      </trkpt>
      <trkpt lat="46.49662" lon="-1.78357">
        <ele>5.2</ele>
        <time>2021-09-25T14:09:31Z</time>
      </trkpt>
      <trkpt lat="46.49662" lon="-1.78358">
        <ele>5.2</ele>
        <time>2021-09-25T14:09:32Z</time>
      </trkpt>
      <trkpt lat="46.49661" lon="-1.78358">
        <ele>5.2</ele>
        <time>2021-09-25T14:09:33Z</time>
      </trkpt>
      <trkpt lat="46.49661" lon="-1.78359">
        <ele>5.2</ele>
        <time>2021-09-25T14:09:34Z</time>
      </trkpt>
      <trkpt lat="46.49661" lon="-1.78359">
        <ele>5.2</ele>
        <time>2021-09-25T14:09:35Z</time>
      </trkpt>
      <trkpt lat="46.49661" lon="-1.78359">
        <ele>5.2</ele>
        <time>2021-09-25T14:09:36Z</time>
      </trkpt>
      <trkpt lat="46.49661" lon="-1.7836">
        <ele>5.2</ele>
        <time>2021-09-25T14:09:37Z</time>
      </trkpt>
      <trkpt lat="46.49661" lon="-1.78359">
        <ele>5.2</ele>
        <time>2021-09-25T14:09:38Z</time>
      </trkpt>
      <trkpt lat="46.49661" lon="-1.78359">
        <ele>5.2</ele>
        <time>2021-09-25T14:09:39Z</time>
      </trkpt>
      <trkpt lat="46.49661" lon="-1.7836">
        <ele>5.2</ele>
        <time>2021-09-25T14:09:40Z</time>
      </trkpt>
      <trkpt lat="46.49661" lon="-1.7836">
        <ele>5.2</ele>
        <time>2021-09-25T14:09:41Z</time>
      </trkpt>
      <trkpt lat="46.49661" lon="-1.7836">
        <ele>5.2</ele>
        <time>2021-09-25T14:09:42Z</time>
      </trkpt>
      <trkpt lat="46.49661" lon="-1.78361">
        <ele>5.2</ele>
        <time>2021-09-25T14:09:43Z</time>
      </trkpt>
      <trkpt lat="46.49661" lon="-1.78361">
        <ele>5.2</ele>
        <time>2021-09-25T14:09:44Z</time>
      </trkpt>
      <trkpt lat="46.49661" lon="-1.78362">
        <ele>5.2</ele>
        <time>2021-09-25T14:09:45Z</time>
      </trkpt>
      <trkpt lat="46.49661" lon="-1.78362">
        <ele>5.2</ele>
        <time>2021-09-25T14:09:46Z</time>
      </trkpt>
      <trkpt lat="46.49661" lon="-1.78362">
        <ele>5.2</ele>
        <time>2021-09-25T14:09:47Z</time>
      </trkpt>
      <trkpt lat="46.4966" lon="-1.78363">
        <ele>5.2</ele>
        <time>2021-09-25T14:09:48Z</time>
      </trkpt>
      <trkpt lat="46.4966" lon="-1.78363">
        <ele>5.2</ele>
        <time>2021-09-25T14:09:49Z</time>
      </trkpt>
      <trkpt lat="46.4966" lon="-1.78363">
        <ele>5.2</ele>
        <time>2021-09-25T14:09:50Z</time>
      </trkpt>
      <trkpt lat="46.4966" lon="-1.78363">
        <ele>5.2</ele>
        <time>2021-09-25T14:09:51Z</time>
      </trkpt>
      <trkpt lat="46.4966" lon="-1.78364">
        <ele>5.2</ele>
        <time>2021-09-25T14:09:52Z</time>
      </trkpt>
      <trkpt lat="46.4966" lon="-1.78364">
        <ele>5.2</ele>
        <time>2021-09-25T14:09:53Z</time>
      </trkpt>
      <trkpt lat="46.4966" lon="-1.78364">
        <ele>5.2</ele>
        <time>2021-09-25T14:09:54Z</time>
      </trkpt>
      <trkpt lat="46.4966" lon="-1.78364">
        <ele>5.2</ele>
        <time>2021-09-25T14:09:55Z</time>
      </trkpt>
      <trkpt lat="46.4966" lon="-1.78364">
        <ele>5.2</ele>
        <time>2021-09-25T14:09:56Z</time>
      </trkpt>
      <trkpt lat="46.4966" lon="-1.78364">
        <ele>5.2</ele>
        <time>2021-09-25T14:09:57Z</time>
      </trkpt>
      <trkpt lat="46.4966" lon="-1.78364">
        <ele>5.2</ele>
        <time>2021-09-25T14:09:58Z</time>
      </trkpt>
      <trkpt lat="46.4966" lon="-1.78364">
        <ele>5.2</ele>
        <time>2021-09-25T14:09:59Z</time>
      </trkpt>
      <trkpt lat="46.4966" lon="-1.78364">
        <ele>5.2</ele>
        <time>2021-09-25T14:10:00Z</time>
      </trkpt>
      <trkpt lat="46.4966" lon="-1.78364">
        <ele>5.2</ele>
        <time>2021-09-25T14:10:01Z</time>
      </trkpt>
      <trkpt lat="46.4966" lon="-1.78364">
        <ele>5.2</ele>
        <time>2021-09-25T14:10:02Z</time>
      </trkpt>
      <trkpt lat="46.4966" lon="-1.78364">
        <ele>5.2</ele>
        <time>2021-09-25T14:10:03Z</time>
      </trkpt>
      <trkpt lat="46.4966" lon="-1.78364">
        <ele>5.2</ele>
        <time>2021-09-25T14:10:04Z</time>
      </trkpt>
      <trkpt lat="46.4966" lon="-1.78364">
        <ele>5.2</ele>
        <time>2021-09-25T14:10:05Z</time>
      </trkpt>
      <trkpt lat="46.4966" lon="-1.78364">
        <ele>5.2</ele>
        <time>2021-09-25T14:10:06Z</time>
      </trkpt>
      <trkpt lat="46.4966" lon="-1.78364">
        <ele>5.2</ele>
        <time>2021-09-25T14:10:07Z</time>
      </trkpt>
      <trkpt lat="46.4966" lon="-1.78364">
        <ele>5.2</ele>
        <time>2021-09-25T14:10:08Z</time>
      </trkpt>
      <trkpt lat="46.4966" lon="-1.78364">
        <ele>5.2</ele>
        <time>2021-09-25T14:10:09Z</time>
      </trkpt>
      <trkpt lat="46.4966" lon="-1.78364">
        <ele>5.2</ele>
        <time>2021-09-25T14:10:10Z</time>
      </trkpt>
      <trkpt lat="46.4966" lon="-1.78364">
        <ele>5.2</ele>
        <time>2021-09-25T14:10:11Z</time>
      </trkpt>
      <trkpt lat="46.4966" lon="-1.78364">
        <ele>5.2</ele>
        <time>2021-09-25T14:10:12Z</time>
      </trkpt>
      <trkpt lat="46.4966" lon="-1.78364">
        <ele>5.2</ele>
        <time>2021-09-25T14:10:13Z</time>
      </trkpt>
      <trkpt lat="46.4966" lon="-1.78364">
        <ele>5.2</ele>
        <time>2021-09-25T14:10:14Z</time>
      </trkpt>
      <trkpt lat="46.4966" lon="-1.78364">
        <ele>5.2</ele>
        <time>2021-09-25T14:10:15Z</time>
      </trkpt>
      <trkpt lat="46.4966" lon="-1.78364">
        <ele>5.2</ele>
        <time>2021-09-25T14:10:16Z</time>
      </trkpt>
      <trkpt lat="46.4966" lon="-1.78364">
        <ele>5.2</ele>
        <time>2021-09-25T14:10:17Z</time>
      </trkpt>
      <trkpt lat="46.4966" lon="-1.78364">
        <ele>5.2</ele>
        <time>2021-09-25T14:10:18Z</time>
      </trkpt>
      <trkpt lat="46.4966" lon="-1.78364">
        <ele>5.2</ele>
        <time>2021-09-25T14:10:19Z</time>
      </trkpt>
      <trkpt lat="46.4966" lon="-1.78364">
        <ele>5.2</ele>
        <time>2021-09-25T14:10:20Z</time>
      </trkpt>
      <trkpt lat="46.4966" lon="-1.78364">
        <ele>5.2</ele>
        <time>2021-09-25T14:10:21Z</time>
      </trkpt>
      <trkpt lat="46.4966" lon="-1.78364">
        <ele>5.2</ele>
        <time>2021-09-25T14:10:22Z</time>
      </trkpt>
      <trkpt lat="46.4966" lon="-1.78364">
        <ele>5.2</ele>
        <time>2021-09-25T14:10:23Z</time>
      </trkpt>
      <trkpt lat="46.4966" lon="-1.78364">
        <ele>5.2</ele>
        <time>2021-09-25T14:10:24Z</time>
      </trkpt>
      <trkpt lat="46.4966" lon="-1.78364">
        <ele>5.2</ele>
        <time>2021-09-25T14:10:25Z</time>
      </trkpt>
      <trkpt lat="46.4966" lon="-1.78364">
        <ele>5.2</ele>
        <time>2021-09-25T14:10:26Z</time>
      </trkpt>
      <trkpt lat="46.4966" lon="-1.78364">
        <ele>5.2</ele>
        <time>2021-09-25T14:10:27Z</time>
      </trkpt>
      <trkpt lat="46.4966" lon="-1.78364">
        <ele>5.2</ele>
        <time>2021-09-25T14:10:28Z</time>
      </trkpt>
      <trkpt lat="46.4966" lon="-1.78364">
        <ele>5.2</ele>
        <time>2021-09-25T14:10:29Z</time>
      </trkpt>
      <trkpt lat="46.4966" lon="-1.78364">
        <ele>5.2</ele>
        <time>2021-09-25T14:10:30Z</time>
      </trkpt>
      <trkpt lat="46.4966" lon="-1.78364">
        <ele>5.2</ele>
        <time>2021-09-25T14:10:31Z</time>
      </trkpt>
      <trkpt lat="46.4966" lon="-1.78364">
        <ele>5.2</ele>
        <time>2021-09-25T14:10:32Z</time>
      </trkpt>
      <trkpt lat="46.4966" lon="-1.78364">
        <ele>5.2</ele>
        <time>2021-09-25T14:10:33Z</time>
      </trkpt>
      <trkpt lat="46.4966" lon="-1.78364">
        <ele>5.2</ele>
        <time>2021-09-25T14:10:34Z</time>
      </trkpt>
      <trkpt lat="46.4966" lon="-1.78364">
        <ele>5.2</ele>
        <time>2021-09-25T14:10:35Z</time>
      </trkpt>
      <trkpt lat="46.4966" lon="-1.78364">
        <ele>5.2</ele>
        <time>2021-09-25T14:10:36Z</time>
      </trkpt>
      <trkpt lat="46.4966" lon="-1.78364">
        <ele>5.2</ele>
        <time>2021-09-25T14:10:37Z</time>
      </trkpt>
      <trkpt lat="46.4966" lon="-1.78364">
        <ele>5.2</ele>
        <time>2021-09-25T14:10:38Z</time>
      </trkpt>
      <trkpt lat="46.4966" lon="-1.78364">
        <ele>5.2</ele>
        <time>2021-09-25T14:10:39Z</time>
      </trkpt>
      <trkpt lat="46.4966" lon="-1.78364">
        <ele>5.2</ele>
        <time>2021-09-25T14:10:40Z</time>
      </trkpt>
      <trkpt lat="46.4966" lon="-1.78364">
        <ele>5.2</ele>
        <time>2021-09-25T14:10:41Z</time>
      </trkpt>
      <trkpt lat="46.4966" lon="-1.78364">
        <ele>5.2</ele>
        <time>2021-09-25T14:10:42Z</time>
      </trkpt>
      <trkpt lat="46.4966" lon="-1.78364">
        <ele>5.2</ele>
        <time>2021-09-25T14:10:43Z</time>
      </trkpt>
      <trkpt lat="46.4966" lon="-1.78364">
        <ele>5.2</ele>
        <time>2021-09-25T14:10:44Z</time>
      </trkpt>
      <trkpt lat="46.4966" lon="-1.78364">
        <ele>5.2</ele>
        <time>2021-09-25T14:10:45Z</time>
      </trkpt>
      <trkpt lat="46.4966" lon="-1.78364">
        <ele>5.2</ele>
        <time>2021-09-25T14:10:46Z</time>
      </trkpt>
      <trkpt lat="46.4966" lon="-1.78364">
        <ele>5.2</ele>
        <time>2021-09-25T14:10:47Z</time>
      </trkpt>
      <trkpt lat="46.4966" lon="-1.78364">
        <ele>5.2</ele>
        <time>2021-09-25T14:10:48Z</time>
      </trkpt>
      <trkpt lat="46.4966" lon="-1.78364">
        <ele>5.2</ele>
        <time>2021-09-25T14:10:49Z</time>
      </trkpt>
      <trkpt lat="46.4966" lon="-1.78364">
        <ele>5.2</ele>
        <time>2021-09-25T14:10:50Z</time>
      </trkpt>
      <trkpt lat="46.4966" lon="-1.78364">
        <ele>5.2</ele>
        <time>2021-09-25T14:10:51Z</time>
      </trkpt>
      <trkpt lat="46.4966" lon="-1.78364">
        <ele>5.2</ele>
        <time>2021-09-25T14:10:52Z</time>
      </trkpt>
      <trkpt lat="46.4966" lon="-1.78364">
        <ele>5.2</ele>
        <time>2021-09-25T14:10:53Z</time>
      </trkpt>
      <trkpt lat="46.4966" lon="-1.78364">
        <ele>5.2</ele>
        <time>2021-09-25T14:10:54Z</time>
      </trkpt>
      <trkpt lat="46.4966" lon="-1.78364">
        <ele>5.2</ele>
        <time>2021-09-25T14:10:55Z</time>
      </trkpt>
      <trkpt lat="46.4966" lon="-1.78364">
        <ele>5.2</ele>
        <time>2021-09-25T14:10:56Z</time>
      </trkpt>
      <trkpt lat="46.4966" lon="-1.78364">
        <ele>5.2</ele>
        <time>2021-09-25T14:10:57Z</time>
      </trkpt>
      <trkpt lat="46.4966" lon="-1.78364">
        <ele>5.2</ele>
        <time>2021-09-25T14:10:58Z</time>
      </trkpt>
      <trkpt lat="46.4966" lon="-1.78364">
        <ele>5.2</ele>
        <time>2021-09-25T14:10:59Z</time>
      </trkpt>
      <trkpt lat="46.4966" lon="-1.78364">
        <ele>5.2</ele>
        <time>2021-09-25T14:11:00Z</time>
      </trkpt>
      <trkpt lat="46.4966" lon="-1.78364">
        <ele>5.2</ele>
        <time>2021-09-25T14:11:01Z</time>
      </trkpt>
      <trkpt lat="46.4966" lon="-1.78364">
        <ele>5.2</ele>
        <time>2021-09-25T14:11:02Z</time>
      </trkpt>
      <trkpt lat="46.4966" lon="-1.78364">
        <ele>5.2</ele>
        <time>2021-09-25T14:11:03Z</time>
      </trkpt>
      <trkpt lat="46.4966" lon="-1.78364">
        <ele>5.2</ele>
        <time>2021-09-25T14:11:04Z</time>
      </trkpt>
      <trkpt lat="46.4966" lon="-1.78364">
        <ele>5.2</ele>
        <time>2021-09-25T14:11:05Z</time>
      </trkpt>
      <trkpt lat="46.4966" lon="-1.78364">
        <ele>5.2</ele>
        <time>2021-09-25T14:11:06Z</time>
      </trkpt>
      <trkpt lat="46.4966" lon="-1.78364">
        <ele>5.2</ele>
        <time>2021-09-25T14:11:07Z</time>
      </trkpt>
      <trkpt lat="46.4966" lon="-1.78364">
        <ele>5.2</ele>
        <time>2021-09-25T14:11:08Z</time>
      </trkpt>
      <trkpt lat="46.4966" lon="-1.78364">
        <ele>5.2</ele>
        <time>2021-09-25T14:11:09Z</time>
      </trkpt>
      <trkpt lat="46.4966" lon="-1.78364">
        <ele>5.2</ele>
        <time>2021-09-25T14:11:10Z</time>
      </trkpt>
      <trkpt lat="46.4966" lon="-1.78364">
        <ele>5.2</ele>
        <time>2021-09-25T14:11:11Z</time>
      </trkpt>
      <trkpt lat="46.4966" lon="-1.78364">
        <ele>5.2</ele>
        <time>2021-09-25T14:11:12Z</time>
      </trkpt>
      <trkpt lat="46.4966" lon="-1.78364">
        <ele>5.2</ele>
        <time>2021-09-25T14:11:13Z</time>
      </trkpt>
      <trkpt lat="46.4966" lon="-1.78364">
        <ele>5.2</ele>
        <time>2021-09-25T14:11:14Z</time>
      </trkpt>
      <trkpt lat="46.4966" lon="-1.78364">
        <ele>5.2</ele>
        <time>2021-09-25T14:11:15Z</time>
      </trkpt>
      <trkpt lat="46.4966" lon="-1.78364">
        <ele>5.2</ele>
        <time>2021-09-25T14:11:16Z</time>
      </trkpt>
      <trkpt lat="46.4966" lon="-1.78364">
        <ele>5.2</ele>
        <time>2021-09-25T14:11:17Z</time>
      </trkpt>
      <trkpt lat="46.4966" lon="-1.78364">
        <ele>5.2</ele>
        <time>2021-09-25T14:11:18Z</time>
      </trkpt>
      <trkpt lat="46.4966" lon="-1.78364">
        <ele>5.2</ele>
        <time>2021-09-25T14:11:19Z</time>
      </trkpt>
      <trkpt lat="46.4966" lon="-1.78364">
        <ele>5.2</ele>
        <time>2021-09-25T14:11:20Z</time>
      </trkpt>
      <trkpt lat="46.4966" lon="-1.78364">
        <ele>5.2</ele>
        <time>2021-09-25T14:11:21Z</time>
      </trkpt>
      <trkpt lat="46.4966" lon="-1.78364">
        <ele>5.2</ele>
        <time>2021-09-25T14:11:22Z</time>
      </trkpt>
      <trkpt lat="46.4966" lon="-1.78364">
        <ele>5.2</ele>
        <time>2021-09-25T14:11:23Z</time>
      </trkpt>
      <trkpt lat="46.4966" lon="-1.78364">
        <ele>5.2</ele>
        <time>2021-09-25T14:11:24Z</time>
      </trkpt>
      <trkpt lat="46.4966" lon="-1.78364">
        <ele>5.2</ele>
        <time>2021-09-25T14:11:25Z</time>
      </trkpt>
      <trkpt lat="46.4966" lon="-1.78364">
        <ele>5.2</ele>
        <time>2021-09-25T14:11:26Z</time>
      </trkpt>
      <trkpt lat="46.4966" lon="-1.78364">
        <ele>5.2</ele>
        <time>2021-09-25T14:11:27Z</time>
      </trkpt>
      <trkpt lat="46.4966" lon="-1.78365">
        <ele>5.2</ele>
        <time>2021-09-25T14:11:28Z</time>
      </trkpt>
      <trkpt lat="46.4966" lon="-1.78366">
        <ele>5.2</ele>
        <time>2021-09-25T14:11:29Z</time>
      </trkpt>
      <trkpt lat="46.49659" lon="-1.78367">
        <ele>5.2</ele>
        <time>2021-09-25T14:11:30Z</time>
      </trkpt>
      <trkpt lat="46.49659" lon="-1.78368">
        <ele>5.2</ele>
        <time>2021-09-25T14:11:31Z</time>
      </trkpt>
      <trkpt lat="46.49659" lon="-1.78369">
        <ele>5.2</ele>
        <time>2021-09-25T14:11:32Z</time>
      </trkpt>
      <trkpt lat="46.49658" lon="-1.78371">
        <ele>5.2</ele>
        <time>2021-09-25T14:11:33Z</time>
      </trkpt>
      <trkpt lat="46.49658" lon="-1.78372">
        <ele>5.2</ele>
        <time>2021-09-25T14:11:34Z</time>
      </trkpt>
      <trkpt lat="46.49658" lon="-1.78373">
        <ele>5.3</ele>
        <time>2021-09-25T14:11:35Z</time>
      </trkpt>
      <trkpt lat="46.49658" lon="-1.78375">
        <ele>5.3</ele>
        <time>2021-09-25T14:11:36Z</time>
      </trkpt>
      <trkpt lat="46.49658" lon="-1.78376">
        <ele>5.3</ele>
        <time>2021-09-25T14:11:37Z</time>
      </trkpt>
      <trkpt lat="46.49658" lon="-1.78377">
        <ele>5.3</ele>
        <time>2021-09-25T14:11:38Z</time>
      </trkpt>
      <trkpt lat="46.49658" lon="-1.78378">
        <ele>5.3</ele>
        <time>2021-09-25T14:11:39Z</time>
      </trkpt>
      <trkpt lat="46.49658" lon="-1.78379">
        <ele>5.3</ele>
        <time>2021-09-25T14:11:40Z</time>
      </trkpt>
      <trkpt lat="46.49658" lon="-1.78379">
        <ele>5.3</ele>
        <time>2021-09-25T14:11:41Z</time>
      </trkpt>
      <trkpt lat="46.49658" lon="-1.7838">
        <ele>5.3</ele>
        <time>2021-09-25T14:11:42Z</time>
      </trkpt>
      <trkpt lat="46.49658" lon="-1.78381">
        <ele>5.3</ele>
        <time>2021-09-25T14:11:43Z</time>
      </trkpt>
      <trkpt lat="46.49659" lon="-1.78381">
        <ele>5.3</ele>
        <time>2021-09-25T14:11:44Z</time>
      </trkpt>
      <trkpt lat="46.49659" lon="-1.78382">
        <ele>5.3</ele>
        <time>2021-09-25T14:11:45Z</time>
      </trkpt>
      <trkpt lat="46.49659" lon="-1.78382">
        <ele>5.3</ele>
        <time>2021-09-25T14:11:46Z</time>
      </trkpt>
      <trkpt lat="46.49659" lon="-1.78382">
        <ele>5.3</ele>
        <time>2021-09-25T14:11:47Z</time>
      </trkpt>
      <trkpt lat="46.49659" lon="-1.78383">
        <ele>5.3</ele>
        <time>2021-09-25T14:11:48Z</time>
      </trkpt>
      <trkpt lat="46.49659" lon="-1.78383">
        <ele>5.3</ele>
        <time>2021-09-25T14:11:49Z</time>
      </trkpt>
      <trkpt lat="46.49659" lon="-1.78383">
        <ele>5.3</ele>
        <time>2021-09-25T14:11:50Z</time>
      </trkpt>
      <trkpt lat="46.49659" lon="-1.78384">
        <ele>5.3</ele>
        <time>2021-09-25T14:11:51Z</time>
      </trkpt>
      <trkpt lat="46.49659" lon="-1.78384">
        <ele>5.3</ele>
        <time>2021-09-25T14:11:52Z</time>
      </trkpt>
      <trkpt lat="46.49659" lon="-1.78385">
        <ele>5.3</ele>
        <time>2021-09-25T14:11:53Z</time>
      </trkpt>
      <trkpt lat="46.49659" lon="-1.78386">
        <ele>5.3</ele>
        <time>2021-09-25T14:11:54Z</time>
      </trkpt>
      <trkpt lat="46.49659" lon="-1.78387">
        <ele>5.3</ele>
        <time>2021-09-25T14:11:55Z</time>
      </trkpt>
      <trkpt lat="46.49659" lon="-1.78388">
        <ele>5.4</ele>
        <time>2021-09-25T14:11:56Z</time>
      </trkpt>
      <trkpt lat="46.49659" lon="-1.78389">
        <ele>5.4</ele>
        <time>2021-09-25T14:11:57Z</time>
      </trkpt>
      <trkpt lat="46.49659" lon="-1.7839">
        <ele>5.4</ele>
        <time>2021-09-25T14:11:58Z</time>
      </trkpt>
      <trkpt lat="46.49659" lon="-1.78391">
        <ele>5.4</ele>
        <time>2021-09-25T14:11:59Z</time>
      </trkpt>
      <trkpt lat="46.49659" lon="-1.78393">
        <ele>5.4</ele>
        <time>2021-09-25T14:12:00Z</time>
      </trkpt>
      <trkpt lat="46.49659" lon="-1.78394">
        <ele>5.4</ele>
        <time>2021-09-25T14:12:01Z</time>
      </trkpt>
      <trkpt lat="46.49659" lon="-1.78395">
        <ele>5.4</ele>
        <time>2021-09-25T14:12:02Z</time>
      </trkpt>
      <trkpt lat="46.49659" lon="-1.78396">
        <ele>5.4</ele>
        <time>2021-09-25T14:12:03Z</time>
      </trkpt>
      <trkpt lat="46.4966" lon="-1.78396">
        <ele>5.4</ele>
        <time>2021-09-25T14:12:04Z</time>
      </trkpt>
      <trkpt lat="46.4966" lon="-1.78397">
        <ele>5.4</ele>
        <time>2021-09-25T14:12:05Z</time>
      </trkpt>
      <trkpt lat="46.4966" lon="-1.78397">
        <ele>5.4</ele>
        <time>2021-09-25T14:12:06Z</time>
      </trkpt>
      <trkpt lat="46.4966" lon="-1.78398">
        <ele>5.4</ele>
        <time>2021-09-25T14:12:07Z</time>
      </trkpt>
      <trkpt lat="46.4966" lon="-1.78398">
        <ele>5.4</ele>
        <time>2021-09-25T14:12:08Z</time>
      </trkpt>
      <trkpt lat="46.4966" lon="-1.78398">
        <ele>5.4</ele>
        <time>2021-09-25T14:12:09Z</time>
      </trkpt>
      <trkpt lat="46.4966" lon="-1.78398">
        <ele>5.4</ele>
        <time>2021-09-25T14:12:10Z</time>
      </trkpt>
      <trkpt lat="46.4966" lon="-1.78398">
        <ele>5.4</ele>
        <time>2021-09-25T14:12:11Z</time>
      </trkpt>
      <trkpt lat="46.49659" lon="-1.78398">
        <ele>5.4</ele>
        <time>2021-09-25T14:12:12Z</time>
      </trkpt>
      <trkpt lat="46.49659" lon="-1.78398">
        <ele>5.4</ele>
        <time>2021-09-25T14:12:13Z</time>
      </trkpt>
      <trkpt lat="46.49659" lon="-1.78398">
        <ele>5.4</ele>
        <time>2021-09-25T14:12:14Z</time>
      </trkpt>
      <trkpt lat="46.49659" lon="-1.78398">
        <ele>5.4</ele>
        <time>2021-09-25T14:12:15Z</time>
      </trkpt>
      <trkpt lat="46.49659" lon="-1.78399">
        <ele>5.4</ele>
        <time>2021-09-25T14:12:16Z</time>
      </trkpt>
      <trkpt lat="46.49659" lon="-1.78399">
        <ele>5.4</ele>
        <time>2021-09-25T14:12:17Z</time>
      </trkpt>
      <trkpt lat="46.49659" lon="-1.784">
        <ele>5.4</ele>
        <time>2021-09-25T14:12:18Z</time>
      </trkpt>
      <trkpt lat="46.49659" lon="-1.78402">
        <ele>5.4</ele>
        <time>2021-09-25T14:12:19Z</time>
      </trkpt>
      <trkpt lat="46.49658" lon="-1.78403">
        <ele>5.5</ele>
        <time>2021-09-25T14:12:20Z</time>
      </trkpt>
      <trkpt lat="46.49658" lon="-1.78404">
        <ele>5.5</ele>
        <time>2021-09-25T14:12:21Z</time>
      </trkpt>
      <trkpt lat="46.49658" lon="-1.78405">
        <ele>5.5</ele>
        <time>2021-09-25T14:12:22Z</time>
      </trkpt>
      <trkpt lat="46.49658" lon="-1.78406">
        <ele>5.5</ele>
        <time>2021-09-25T14:12:23Z</time>
      </trkpt>
      <trkpt lat="46.49658" lon="-1.78406">
        <ele>5.5</ele>
        <time>2021-09-25T14:12:24Z</time>
      </trkpt>
      <trkpt lat="46.49657" lon="-1.78406">
        <ele>5.5</ele>
        <time>2021-09-25T14:12:25Z</time>
      </trkpt>
      <trkpt lat="46.49657" lon="-1.78406">
        <ele>5.5</ele>
        <time>2021-09-25T14:12:26Z</time>
      </trkpt>
      <trkpt lat="46.49657" lon="-1.78406">
        <ele>5.5</ele>
        <time>2021-09-25T14:12:27Z</time>
      </trkpt>
      <trkpt lat="46.49657" lon="-1.78406">
        <ele>5.5</ele>
        <time>2021-09-25T14:12:28Z</time>
      </trkpt>
      <trkpt lat="46.49657" lon="-1.78406">
        <ele>5.5</ele>
        <time>2021-09-25T14:12:29Z</time>
      </trkpt>
      <trkpt lat="46.49657" lon="-1.78406">
        <ele>5.5</ele>
        <time>2021-09-25T14:12:30Z</time>
      </trkpt>
      <trkpt lat="46.49657" lon="-1.78407">
        <ele>5.5</ele>
        <time>2021-09-25T14:12:31Z</time>
      </trkpt>
      <trkpt lat="46.49657" lon="-1.78407">
        <ele>5.5</ele>
        <time>2021-09-25T14:12:32Z</time>
      </trkpt>
      <trkpt lat="46.49655" lon="-1.78408">
        <ele>5.5</ele>
        <time>2021-09-25T14:12:33Z</time>
      </trkpt>
      <trkpt lat="46.49653" lon="-1.78409">
        <ele>5.5</ele>
        <time>2021-09-25T14:12:34Z</time>
      </trkpt>
      <trkpt lat="46.49651" lon="-1.78411">
        <ele>5.6</ele>
        <time>2021-09-25T14:12:35Z</time>
      </trkpt>
      <trkpt lat="46.4965" lon="-1.78411">
        <ele>5.6</ele>
        <time>2021-09-25T14:12:36Z</time>
      </trkpt>
      <trkpt lat="46.49649" lon="-1.78412">
        <ele>5.6</ele>
        <time>2021-09-25T14:12:37Z</time>
      </trkpt>
      <trkpt lat="46.49648" lon="-1.78412">
        <ele>5.6</ele>
        <time>2021-09-25T14:12:38Z</time>
      </trkpt>
      <trkpt lat="46.49647" lon="-1.78412">
        <ele>5.6</ele>
        <time>2021-09-25T14:12:39Z</time>
      </trkpt>
      <trkpt lat="46.49645" lon="-1.78412">
        <ele>5.7</ele>
        <time>2021-09-25T14:12:40Z</time>
      </trkpt>
      <trkpt lat="46.49644" lon="-1.78412">
        <ele>5.8</ele>
        <time>2021-09-25T14:12:41Z</time>
      </trkpt>
      <trkpt lat="46.49643" lon="-1.78412">
        <ele>5.8</ele>
        <time>2021-09-25T14:12:42Z</time>
      </trkpt>
      <trkpt lat="46.49642" lon="-1.78412">
        <ele>5.8</ele>
        <time>2021-09-25T14:12:43Z</time>
      </trkpt>
      <trkpt lat="46.49641" lon="-1.78412">
        <ele>5.9</ele>
        <time>2021-09-25T14:12:44Z</time>
      </trkpt>
      <trkpt lat="46.4964" lon="-1.78412">
        <ele>5.9</ele>
        <time>2021-09-25T14:12:45Z</time>
      </trkpt>
      <trkpt lat="46.49639" lon="-1.78412">
        <ele>6</ele>
        <time>2021-09-25T14:12:46Z</time>
      </trkpt>
      <trkpt lat="46.49638" lon="-1.78412">
        <ele>6</ele>
        <time>2021-09-25T14:12:47Z</time>
      </trkpt>
      <trkpt lat="46.49637" lon="-1.78413">
        <ele>6.1</ele>
        <time>2021-09-25T14:12:48Z</time>
      </trkpt>
      <trkpt lat="46.49636" lon="-1.78413">
        <ele>6.1</ele>
        <time>2021-09-25T14:12:49Z</time>
      </trkpt>
      <trkpt lat="46.49635" lon="-1.78414">
        <ele>6.1</ele>
        <time>2021-09-25T14:12:50Z</time>
      </trkpt>
      <trkpt lat="46.49634" lon="-1.78414">
        <ele>6.2</ele>
        <time>2021-09-25T14:12:51Z</time>
      </trkpt>
      <trkpt lat="46.49633" lon="-1.78414">
        <ele>6.2</ele>
        <time>2021-09-25T14:12:52Z</time>
      </trkpt>
      <trkpt lat="46.49632" lon="-1.78415">
        <ele>6.3</ele>
        <time>2021-09-25T14:12:53Z</time>
      </trkpt>
      <trkpt lat="46.49631" lon="-1.78415">
        <ele>6.3</ele>
        <time>2021-09-25T14:12:54Z</time>
      </trkpt>
      <trkpt lat="46.4963" lon="-1.78415">
        <ele>6.4</ele>
        <time>2021-09-25T14:12:55Z</time>
      </trkpt>
      <trkpt lat="46.49629" lon="-1.78416">
        <ele>6.4</ele>
        <time>2021-09-25T14:12:56Z</time>
      </trkpt>
      <trkpt lat="46.49628" lon="-1.78416">
        <ele>6.5</ele>
        <time>2021-09-25T14:12:57Z</time>
      </trkpt>
      <trkpt lat="46.49627" lon="-1.78416">
        <ele>6.5</ele>
        <time>2021-09-25T14:12:58Z</time>
      </trkpt>
      <trkpt lat="46.49626" lon="-1.78416">
        <ele>6.6</ele>
        <time>2021-09-25T14:12:59Z</time>
      </trkpt>
      <trkpt lat="46.49625" lon="-1.78416">
        <ele>6.6</ele>
        <time>2021-09-25T14:13:00Z</time>
      </trkpt>
      <trkpt lat="46.49624" lon="-1.78416">
        <ele>6.7</ele>
        <time>2021-09-25T14:13:01Z</time>
      </trkpt>
      <trkpt lat="46.49623" lon="-1.78416">
        <ele>6.7</ele>
        <time>2021-09-25T14:13:02Z</time>
      </trkpt>
      <trkpt lat="46.49622" lon="-1.78416">
        <ele>6.8</ele>
        <time>2021-09-25T14:13:03Z</time>
      </trkpt>
      <trkpt lat="46.49621" lon="-1.78416">
        <ele>6.8</ele>
        <time>2021-09-25T14:13:04Z</time>
      </trkpt>
      <trkpt lat="46.49621" lon="-1.78416">
        <ele>6.9</ele>
        <time>2021-09-25T14:13:05Z</time>
      </trkpt>
      <trkpt lat="46.4962" lon="-1.78416">
        <ele>6.9</ele>
        <time>2021-09-25T14:13:06Z</time>
      </trkpt>
      <trkpt lat="46.49619" lon="-1.78416">
        <ele>7</ele>
        <time>2021-09-25T14:13:07Z</time>
      </trkpt>
      <trkpt lat="46.49618" lon="-1.78416">
        <ele>7.1</ele>
        <time>2021-09-25T14:13:08Z</time>
      </trkpt>
      <trkpt lat="46.49617" lon="-1.78416">
        <ele>7.1</ele>
        <time>2021-09-25T14:13:09Z</time>
      </trkpt>
      <trkpt lat="46.49615" lon="-1.78416">
        <ele>7.2</ele>
        <time>2021-09-25T14:13:10Z</time>
      </trkpt>
      <trkpt lat="46.49614" lon="-1.78416">
        <ele>7.2</ele>
        <time>2021-09-25T14:13:11Z</time>
      </trkpt>
      <trkpt lat="46.49613" lon="-1.78416">
        <ele>7.3</ele>
        <time>2021-09-25T14:13:12Z</time>
      </trkpt>
      <trkpt lat="46.49612" lon="-1.78416">
        <ele>7.3</ele>
        <time>2021-09-25T14:13:13Z</time>
      </trkpt>
      <trkpt lat="46.49612" lon="-1.78416">
        <ele>7.4</ele>
        <time>2021-09-25T14:13:14Z</time>
      </trkpt>
      <trkpt lat="46.49611" lon="-1.78416">
        <ele>7.4</ele>
        <time>2021-09-25T14:13:15Z</time>
      </trkpt>
      <trkpt lat="46.4961" lon="-1.78416">
        <ele>7.5</ele>
        <time>2021-09-25T14:13:16Z</time>
      </trkpt>
      <trkpt lat="46.49609" lon="-1.78416">
        <ele>7.5</ele>
        <time>2021-09-25T14:13:17Z</time>
      </trkpt>
      <trkpt lat="46.49608" lon="-1.78416">
        <ele>7.5</ele>
        <time>2021-09-25T14:13:18Z</time>
      </trkpt>
      <trkpt lat="46.49608" lon="-1.78416">
        <ele>7.6</ele>
        <time>2021-09-25T14:13:19Z</time>
      </trkpt>
      <trkpt lat="46.49608" lon="-1.78416">
        <ele>7.6</ele>
        <time>2021-09-25T14:13:20Z</time>
      </trkpt>
      <trkpt lat="46.49607" lon="-1.78416">
        <ele>7.6</ele>
        <time>2021-09-25T14:13:21Z</time>
      </trkpt>
      <trkpt lat="46.49607" lon="-1.78416">
        <ele>7.6</ele>
        <time>2021-09-25T14:13:22Z</time>
      </trkpt>
      <trkpt lat="46.49607" lon="-1.78416">
        <ele>7.6</ele>
        <time>2021-09-25T14:13:23Z</time>
      </trkpt>
      <trkpt lat="46.49607" lon="-1.78416">
        <ele>7.6</ele>
        <time>2021-09-25T14:13:24Z</time>
      </trkpt>
      <trkpt lat="46.49607" lon="-1.78416">
        <ele>7.6</ele>
        <time>2021-09-25T14:13:25Z</time>
      </trkpt>
      <trkpt lat="46.49607" lon="-1.78415">
        <ele>7.6</ele>
        <time>2021-09-25T14:13:26Z</time>
      </trkpt>
      <trkpt lat="46.49607" lon="-1.78415">
        <ele>7.6</ele>
        <time>2021-09-25T14:13:27Z</time>
      </trkpt>
      <trkpt lat="46.49607" lon="-1.78415">
        <ele>7.6</ele>
        <time>2021-09-25T14:13:28Z</time>
      </trkpt>
      <trkpt lat="46.49607" lon="-1.78415">
        <ele>7.6</ele>
        <time>2021-09-25T14:13:29Z</time>
      </trkpt>
      <trkpt lat="46.49607" lon="-1.78415">
        <ele>7.6</ele>
        <time>2021-09-25T14:13:30Z</time>
      </trkpt>
      <trkpt lat="46.49607" lon="-1.78415">
        <ele>7.7</ele>
        <time>2021-09-25T14:13:31Z</time>
      </trkpt>
      <trkpt lat="46.49607" lon="-1.78415">
        <ele>7.7</ele>
        <time>2021-09-25T14:13:32Z</time>
      </trkpt>
      <trkpt lat="46.49607" lon="-1.78415">
        <ele>7.7</ele>
        <time>2021-09-25T14:13:33Z</time>
      </trkpt>
      <trkpt lat="46.49607" lon="-1.78415">
        <ele>7.7</ele>
        <time>2021-09-25T14:13:34Z</time>
      </trkpt>
      <trkpt lat="46.49607" lon="-1.78415">
        <ele>7.7</ele>
        <time>2021-09-25T14:13:35Z</time>
      </trkpt>
      <trkpt lat="46.49607" lon="-1.78415">
        <ele>7.7</ele>
        <time>2021-09-25T14:13:36Z</time>
      </trkpt>
      <trkpt lat="46.49607" lon="-1.78415">
        <ele>7.7</ele>
        <time>2021-09-25T14:13:37Z</time>
      </trkpt>
      <trkpt lat="46.49607" lon="-1.78415">
        <ele>7.7</ele>
        <time>2021-09-25T14:13:38Z</time>
      </trkpt>
      <trkpt lat="46.49607" lon="-1.78415">
        <ele>7.7</ele>
        <time>2021-09-25T14:13:39Z</time>
      </trkpt>
      <trkpt lat="46.49607" lon="-1.78415">
        <ele>7.7</ele>
        <time>2021-09-25T14:13:40Z</time>
      </trkpt>
      <trkpt lat="46.49607" lon="-1.78415">
        <ele>7.7</ele>
        <time>2021-09-25T14:13:41Z</time>
      </trkpt>
      <trkpt lat="46.49607" lon="-1.78415">
        <ele>7.7</ele>
        <time>2021-09-25T14:13:42Z</time>
      </trkpt>
      <trkpt lat="46.49607" lon="-1.78415">
        <ele>7.7</ele>
        <time>2021-09-25T14:13:43Z</time>
      </trkpt>
      <trkpt lat="46.49606" lon="-1.78415">
        <ele>7.7</ele>
        <time>2021-09-25T14:13:44Z</time>
      </trkpt>
      <trkpt lat="46.49606" lon="-1.78415">
        <ele>7.7</ele>
        <time>2021-09-25T14:13:45Z</time>
      </trkpt>
      <trkpt lat="46.49605" lon="-1.78416">
        <ele>7.7</ele>
        <time>2021-09-25T14:13:46Z</time>
      </trkpt>
      <trkpt lat="46.49605" lon="-1.78416">
        <ele>7.8</ele>
        <time>2021-09-25T14:13:47Z</time>
      </trkpt>
      <trkpt lat="46.49604" lon="-1.78416">
        <ele>7.8</ele>
        <time>2021-09-25T14:13:48Z</time>
      </trkpt>
      <trkpt lat="46.49603" lon="-1.78416">
        <ele>7.8</ele>
        <time>2021-09-25T14:13:49Z</time>
      </trkpt>
      <trkpt lat="46.49602" lon="-1.78416">
        <ele>7.9</ele>
        <time>2021-09-25T14:13:50Z</time>
      </trkpt>
      <trkpt lat="46.49601" lon="-1.78416">
        <ele>7.9</ele>
        <time>2021-09-25T14:13:51Z</time>
      </trkpt>
      <trkpt lat="46.496" lon="-1.78416">
        <ele>8</ele>
        <time>2021-09-25T14:13:52Z</time>
      </trkpt>
      <trkpt lat="46.496" lon="-1.78416">
        <ele>8</ele>
        <time>2021-09-25T14:13:53Z</time>
      </trkpt>
      <trkpt lat="46.49599" lon="-1.78416">
        <ele>8</ele>
        <time>2021-09-25T14:13:54Z</time>
      </trkpt>
      <trkpt lat="46.49598" lon="-1.78416">
        <ele>8.1</ele>
        <time>2021-09-25T14:13:55Z</time>
      </trkpt>
      <trkpt lat="46.49597" lon="-1.78416">
        <ele>8.1</ele>
        <time>2021-09-25T14:13:56Z</time>
      </trkpt>
      <trkpt lat="46.49596" lon="-1.78416">
        <ele>8.1</ele>
        <time>2021-09-25T14:13:57Z</time>
      </trkpt>
      <trkpt lat="46.49596" lon="-1.78416">
        <ele>8.2</ele>
        <time>2021-09-25T14:13:58Z</time>
      </trkpt>
      <trkpt lat="46.49595" lon="-1.78416">
        <ele>8.2</ele>
        <time>2021-09-25T14:13:59Z</time>
      </trkpt>
      <trkpt lat="46.49595" lon="-1.78416">
        <ele>8.2</ele>
        <time>2021-09-25T14:14:00Z</time>
      </trkpt>
      <trkpt lat="46.49594" lon="-1.78416">
        <ele>8.2</ele>
        <time>2021-09-25T14:14:01Z</time>
      </trkpt>
      <trkpt lat="46.49594" lon="-1.78416">
        <ele>8.2</ele>
        <time>2021-09-25T14:14:02Z</time>
      </trkpt>
      <trkpt lat="46.49594" lon="-1.78415">
        <ele>8.3</ele>
        <time>2021-09-25T14:14:03Z</time>
      </trkpt>
      <trkpt lat="46.49593" lon="-1.78416">
        <ele>8.3</ele>
        <time>2021-09-25T14:14:04Z</time>
      </trkpt>
      <trkpt lat="46.49593" lon="-1.78416">
        <ele>8.4</ele>
        <time>2021-09-25T14:14:05Z</time>
      </trkpt>
      <trkpt lat="46.49592" lon="-1.78416">
        <ele>8.4</ele>
        <time>2021-09-25T14:14:06Z</time>
      </trkpt>
      <trkpt lat="46.49592" lon="-1.78416">
        <ele>8.5</ele>
        <time>2021-09-25T14:14:07Z</time>
      </trkpt>
      <trkpt lat="46.49591" lon="-1.78417">
        <ele>8.5</ele>
        <time>2021-09-25T14:14:08Z</time>
      </trkpt>
      <trkpt lat="46.4959" lon="-1.78417">
        <ele>8.6</ele>
        <time>2021-09-25T14:14:09Z</time>
      </trkpt>
      <trkpt lat="46.4959" lon="-1.78417">
        <ele>8.7</ele>
        <time>2021-09-25T14:14:10Z</time>
      </trkpt>
      <trkpt lat="46.49589" lon="-1.78418">
        <ele>8.7</ele>
        <time>2021-09-25T14:14:11Z</time>
      </trkpt>
      <trkpt lat="46.49588" lon="-1.78418">
        <ele>8.8</ele>
        <time>2021-09-25T14:14:12Z</time>
      </trkpt>
      <trkpt lat="46.49587" lon="-1.78418">
        <ele>8.9</ele>
        <time>2021-09-25T14:14:13Z</time>
      </trkpt>
      <trkpt lat="46.49586" lon="-1.78419">
        <ele>9</ele>
        <time>2021-09-25T14:14:14Z</time>
      </trkpt>
      <trkpt lat="46.49585" lon="-1.78419">
        <ele>9</ele>
        <time>2021-09-25T14:14:15Z</time>
      </trkpt>
      <trkpt lat="46.49585" lon="-1.78419">
        <ele>9.1</ele>
        <time>2021-09-25T14:14:16Z</time>
      </trkpt>
      <trkpt lat="46.49584" lon="-1.78418">
        <ele>9.2</ele>
        <time>2021-09-25T14:14:17Z</time>
      </trkpt>
      <trkpt lat="46.49583" lon="-1.78418">
        <ele>9.2</ele>
        <time>2021-09-25T14:14:18Z</time>
      </trkpt>
      <trkpt lat="46.49583" lon="-1.78418">
        <ele>9.3</ele>
        <time>2021-09-25T14:14:19Z</time>
      </trkpt>
      <trkpt lat="46.49583" lon="-1.78418">
        <ele>9.3</ele>
        <time>2021-09-25T14:14:20Z</time>
      </trkpt>
      <trkpt lat="46.49583" lon="-1.78418">
        <ele>9.3</ele>
        <time>2021-09-25T14:14:21Z</time>
      </trkpt>
      <trkpt lat="46.49583" lon="-1.78418">
        <ele>9.3</ele>
        <time>2021-09-25T14:14:22Z</time>
      </trkpt>
      <trkpt lat="46.49583" lon="-1.78418">
        <ele>9.3</ele>
        <time>2021-09-25T14:14:23Z</time>
      </trkpt>
      <trkpt lat="46.49582" lon="-1.78418">
        <ele>9.3</ele>
        <time>2021-09-25T14:14:24Z</time>
      </trkpt>
      <trkpt lat="46.49582" lon="-1.78418">
        <ele>9.4</ele>
        <time>2021-09-25T14:14:25Z</time>
      </trkpt>
      <trkpt lat="46.49581" lon="-1.78418">
        <ele>9.4</ele>
        <time>2021-09-25T14:14:26Z</time>
      </trkpt>
      <trkpt lat="46.49581" lon="-1.78418">
        <ele>9.5</ele>
        <time>2021-09-25T14:14:27Z</time>
      </trkpt>
      <trkpt lat="46.4958" lon="-1.78418">
        <ele>9.5</ele>
        <time>2021-09-25T14:14:28Z</time>
      </trkpt>
      <trkpt lat="46.49579" lon="-1.78418">
        <ele>9.6</ele>
        <time>2021-09-25T14:14:29Z</time>
      </trkpt>
      <trkpt lat="46.49578" lon="-1.78418">
        <ele>9.7</ele>
        <time>2021-09-25T14:14:30Z</time>
      </trkpt>
      <trkpt lat="46.49577" lon="-1.78418">
        <ele>9.8</ele>
        <time>2021-09-25T14:14:31Z</time>
      </trkpt>
      <trkpt lat="46.49576" lon="-1.78418">
        <ele>9.9</ele>
        <time>2021-09-25T14:14:32Z</time>
      </trkpt>
      <trkpt lat="46.49575" lon="-1.78417">
        <ele>10</ele>
        <time>2021-09-25T14:14:33Z</time>
      </trkpt>
      <trkpt lat="46.49575" lon="-1.78417">
        <ele>10.1</ele>
        <time>2021-09-25T14:14:34Z</time>
      </trkpt>
      <trkpt lat="46.49574" lon="-1.78417">
        <ele>10.2</ele>
        <time>2021-09-25T14:14:35Z</time>
      </trkpt>
      <trkpt lat="46.49573" lon="-1.78417">
        <ele>10.3</ele>
        <time>2021-09-25T14:14:36Z</time>
      </trkpt>
      <trkpt lat="46.49572" lon="-1.78417">
        <ele>10.4</ele>
        <time>2021-09-25T14:14:37Z</time>
      </trkpt>
      <trkpt lat="46.49571" lon="-1.78417">
        <ele>10.4</ele>
        <time>2021-09-25T14:14:38Z</time>
      </trkpt>
      <trkpt lat="46.4957" lon="-1.78417">
        <ele>10.5</ele>
        <time>2021-09-25T14:14:39Z</time>
      </trkpt>
      <trkpt lat="46.49569" lon="-1.78417">
        <ele>10.6</ele>
        <time>2021-09-25T14:14:40Z</time>
      </trkpt>
      <trkpt lat="46.49569" lon="-1.78417">
        <ele>10.7</ele>
        <time>2021-09-25T14:14:41Z</time>
      </trkpt>
      <trkpt lat="46.49568" lon="-1.78417">
        <ele>10.8</ele>
        <time>2021-09-25T14:14:42Z</time>
      </trkpt>
      <trkpt lat="46.49567" lon="-1.78416">
        <ele>10.9</ele>
        <time>2021-09-25T14:14:43Z</time>
      </trkpt>
      <trkpt lat="46.49566" lon="-1.78416">
        <ele>11</ele>
        <time>2021-09-25T14:14:44Z</time>
      </trkpt>
      <trkpt lat="46.49565" lon="-1.78416">
        <ele>11.1</ele>
        <time>2021-09-25T14:14:45Z</time>
      </trkpt>
      <trkpt lat="46.49564" lon="-1.78416">
        <ele>11.2</ele>
        <time>2021-09-25T14:14:46Z</time>
      </trkpt>
      <trkpt lat="46.49563" lon="-1.78416">
        <ele>11.2</ele>
        <time>2021-09-25T14:14:47Z</time>
      </trkpt>
      <trkpt lat="46.49562" lon="-1.78416">
        <ele>11.3</ele>
        <time>2021-09-25T14:14:48Z</time>
      </trkpt>
      <trkpt lat="46.49561" lon="-1.78416">
        <ele>11.4</ele>
        <time>2021-09-25T14:14:49Z</time>
      </trkpt>
      <trkpt lat="46.49561" lon="-1.78416">
        <ele>11.5</ele>
        <time>2021-09-25T14:14:50Z</time>
      </trkpt>
      <trkpt lat="46.4956" lon="-1.78415">
        <ele>11.6</ele>
        <time>2021-09-25T14:14:51Z</time>
      </trkpt>
      <trkpt lat="46.49559" lon="-1.78415">
        <ele>11.7</ele>
        <time>2021-09-25T14:14:52Z</time>
      </trkpt>
      <trkpt lat="46.49558" lon="-1.78415">
        <ele>11.8</ele>
        <time>2021-09-25T14:14:53Z</time>
      </trkpt>
      <trkpt lat="46.49557" lon="-1.78414">
        <ele>11.9</ele>
        <time>2021-09-25T14:14:54Z</time>
      </trkpt>
      <trkpt lat="46.49556" lon="-1.78414">
        <ele>12</ele>
        <time>2021-09-25T14:14:55Z</time>
      </trkpt>
      <trkpt lat="46.49555" lon="-1.78414">
        <ele>12.1</ele>
        <time>2021-09-25T14:14:56Z</time>
      </trkpt>
      <trkpt lat="46.49554" lon="-1.78413">
        <ele>12.1</ele>
        <time>2021-09-25T14:14:57Z</time>
      </trkpt>
      <trkpt lat="46.49553" lon="-1.78413">
        <ele>12.2</ele>
        <time>2021-09-25T14:14:58Z</time>
      </trkpt>
      <trkpt lat="46.49553" lon="-1.78412">
        <ele>12.3</ele>
        <time>2021-09-25T14:14:59Z</time>
      </trkpt>
      <trkpt lat="46.49552" lon="-1.78412">
        <ele>12.3</ele>
        <time>2021-09-25T14:15:00Z</time>
      </trkpt>
      <trkpt lat="46.49551" lon="-1.78412">
        <ele>12.4</ele>
        <time>2021-09-25T14:15:01Z</time>
      </trkpt>
      <trkpt lat="46.49551" lon="-1.78412">
        <ele>12.4</ele>
        <time>2021-09-25T14:15:02Z</time>
      </trkpt>
      <trkpt lat="46.4955" lon="-1.78412">
        <ele>12.5</ele>
        <time>2021-09-25T14:15:03Z</time>
      </trkpt>
      <trkpt lat="46.4955" lon="-1.78412">
        <ele>12.5</ele>
        <time>2021-09-25T14:15:04Z</time>
      </trkpt>
      <trkpt lat="46.49549" lon="-1.78412">
        <ele>12.6</ele>
        <time>2021-09-25T14:15:05Z</time>
      </trkpt>
      <trkpt lat="46.49548" lon="-1.78412">
        <ele>12.6</ele>
        <time>2021-09-25T14:15:06Z</time>
      </trkpt>
      <trkpt lat="46.49548" lon="-1.78412">
        <ele>12.6</ele>
        <time>2021-09-25T14:15:07Z</time>
      </trkpt>
      <trkpt lat="46.49547" lon="-1.78413">
        <ele>12.6</ele>
        <time>2021-09-25T14:15:08Z</time>
      </trkpt>
      <trkpt lat="46.49547" lon="-1.78413">
        <ele>12.6</ele>
        <time>2021-09-25T14:15:09Z</time>
      </trkpt>
      <trkpt lat="46.49546" lon="-1.78413">
        <ele>12.6</ele>
        <time>2021-09-25T14:15:10Z</time>
      </trkpt>
      <trkpt lat="46.49545" lon="-1.78413">
        <ele>12.6</ele>
        <time>2021-09-25T14:15:11Z</time>
      </trkpt>
      <trkpt lat="46.49545" lon="-1.78412">
        <ele>12.5</ele>
        <time>2021-09-25T14:15:12Z</time>
      </trkpt>
      <trkpt lat="46.49544" lon="-1.78412">
        <ele>12.5</ele>
        <time>2021-09-25T14:15:13Z</time>
      </trkpt>
      <trkpt lat="46.49543" lon="-1.78412">
        <ele>12.5</ele>
        <time>2021-09-25T14:15:14Z</time>
      </trkpt>
      <trkpt lat="46.49542" lon="-1.78412">
        <ele>12.5</ele>
        <time>2021-09-25T14:15:15Z</time>
      </trkpt>
      <trkpt lat="46.49541" lon="-1.78412">
        <ele>12.4</ele>
        <time>2021-09-25T14:15:16Z</time>
      </trkpt>
      <trkpt lat="46.4954" lon="-1.78411">
        <ele>12.4</ele>
        <time>2021-09-25T14:15:17Z</time>
      </trkpt>
      <trkpt lat="46.49539" lon="-1.78411">
        <ele>12.4</ele>
        <time>2021-09-25T14:15:18Z</time>
      </trkpt>
      <trkpt lat="46.49538" lon="-1.78411">
        <ele>12.3</ele>
        <time>2021-09-25T14:15:19Z</time>
      </trkpt>
      <trkpt lat="46.49537" lon="-1.78411">
        <ele>12.3</ele>
        <time>2021-09-25T14:15:20Z</time>
      </trkpt>
      <trkpt lat="46.49536" lon="-1.7841">
        <ele>12.2</ele>
        <time>2021-09-25T14:15:21Z</time>
      </trkpt>
      <trkpt lat="46.49535" lon="-1.7841">
        <ele>12.2</ele>
        <time>2021-09-25T14:15:22Z</time>
      </trkpt>
      <trkpt lat="46.49534" lon="-1.7841">
        <ele>12.1</ele>
        <time>2021-09-25T14:15:23Z</time>
      </trkpt>
      <trkpt lat="46.49533" lon="-1.7841">
        <ele>12.1</ele>
        <time>2021-09-25T14:15:24Z</time>
      </trkpt>
      <trkpt lat="46.49532" lon="-1.7841">
        <ele>12.1</ele>
        <time>2021-09-25T14:15:25Z</time>
      </trkpt>
      <trkpt lat="46.49531" lon="-1.7841">
        <ele>12</ele>
        <time>2021-09-25T14:15:26Z</time>
      </trkpt>
      <trkpt lat="46.4953" lon="-1.7841">
        <ele>12</ele>
        <time>2021-09-25T14:15:27Z</time>
      </trkpt>
      <trkpt lat="46.49529" lon="-1.7841">
        <ele>12</ele>
        <time>2021-09-25T14:15:28Z</time>
      </trkpt>
      <trkpt lat="46.49529" lon="-1.7841">
        <ele>12</ele>
        <time>2021-09-25T14:15:29Z</time>
      </trkpt>
      <trkpt lat="46.49528" lon="-1.7841">
        <ele>12</ele>
        <time>2021-09-25T14:15:30Z</time>
      </trkpt>
      <trkpt lat="46.49528" lon="-1.7841">
        <ele>12</ele>
        <time>2021-09-25T14:15:31Z</time>
      </trkpt>
      <trkpt lat="46.49528" lon="-1.7841">
        <ele>12</ele>
        <time>2021-09-25T14:15:32Z</time>
      </trkpt>
      <trkpt lat="46.49528" lon="-1.7841">
        <ele>12</ele>
        <time>2021-09-25T14:15:33Z</time>
      </trkpt>
      <trkpt lat="46.49528" lon="-1.7841">
        <ele>12</ele>
        <time>2021-09-25T14:15:34Z</time>
      </trkpt>
      <trkpt lat="46.49528" lon="-1.7841">
        <ele>12</ele>
        <time>2021-09-25T14:15:35Z</time>
      </trkpt>
      <trkpt lat="46.49528" lon="-1.7841">
        <ele>12</ele>
        <time>2021-09-25T14:15:36Z</time>
      </trkpt>
      <trkpt lat="46.49528" lon="-1.7841">
        <ele>12</ele>
        <time>2021-09-25T14:15:37Z</time>
      </trkpt>
      <trkpt lat="46.49528" lon="-1.7841">
        <ele>12</ele>
        <time>2021-09-25T14:15:38Z</time>
      </trkpt>
      <trkpt lat="46.49528" lon="-1.78409">
        <ele>12</ele>
        <time>2021-09-25T14:15:39Z</time>
      </trkpt>
      <trkpt lat="46.49528" lon="-1.78409">
        <ele>12</ele>
        <time>2021-09-25T14:15:40Z</time>
      </trkpt>
      <trkpt lat="46.49527" lon="-1.78409">
        <ele>12</ele>
        <time>2021-09-25T14:15:41Z</time>
      </trkpt>
      <trkpt lat="46.49527" lon="-1.78409">
        <ele>12</ele>
        <time>2021-09-25T14:15:42Z</time>
      </trkpt>
      <trkpt lat="46.49527" lon="-1.78409">
        <ele>12</ele>
        <time>2021-09-25T14:15:43Z</time>
      </trkpt>
      <trkpt lat="46.49527" lon="-1.78409">
        <ele>12</ele>
        <time>2021-09-25T14:15:44Z</time>
      </trkpt>
      <trkpt lat="46.49527" lon="-1.78408">
        <ele>12</ele>
        <time>2021-09-25T14:15:45Z</time>
      </trkpt>
      <trkpt lat="46.49527" lon="-1.78408">
        <ele>12</ele>
        <time>2021-09-25T14:15:46Z</time>
      </trkpt>
      <trkpt lat="46.49527" lon="-1.78408">
        <ele>12</ele>
        <time>2021-09-25T14:15:47Z</time>
      </trkpt>
      <trkpt lat="46.49527" lon="-1.78408">
        <ele>12</ele>
        <time>2021-09-25T14:15:48Z</time>
      </trkpt>
      <trkpt lat="46.49527" lon="-1.78408">
        <ele>12</ele>
        <time>2021-09-25T14:15:49Z</time>
      </trkpt>
      <trkpt lat="46.49527" lon="-1.78408">
        <ele>12</ele>
        <time>2021-09-25T14:15:50Z</time>
      </trkpt>
      <trkpt lat="46.49527" lon="-1.78408">
        <ele>12</ele>
        <time>2021-09-25T14:15:51Z</time>
      </trkpt>
      <trkpt lat="46.49527" lon="-1.78408">
        <ele>12</ele>
        <time>2021-09-25T14:15:52Z</time>
      </trkpt>
      <trkpt lat="46.49527" lon="-1.78408">
        <ele>12</ele>
        <time>2021-09-25T14:15:53Z</time>
      </trkpt>
      <trkpt lat="46.49527" lon="-1.78407">
        <ele>12</ele>
        <time>2021-09-25T14:15:54Z</time>
      </trkpt>
      <trkpt lat="46.49527" lon="-1.78406">
        <ele>12</ele>
        <time>2021-09-25T14:15:55Z</time>
      </trkpt>
      <trkpt lat="46.49527" lon="-1.78406">
        <ele>12</ele>
        <time>2021-09-25T14:15:56Z</time>
      </trkpt>
      <trkpt lat="46.49527" lon="-1.78405">
        <ele>12</ele>
        <time>2021-09-25T14:15:57Z</time>
      </trkpt>
      <trkpt lat="46.49527" lon="-1.78404">
        <ele>12</ele>
        <time>2021-09-25T14:15:58Z</time>
      </trkpt>
      <trkpt lat="46.49527" lon="-1.78403">
        <ele>12</ele>
        <time>2021-09-25T14:15:59Z</time>
      </trkpt>
      <trkpt lat="46.49527" lon="-1.78402">
        <ele>12</ele>
        <time>2021-09-25T14:16:00Z</time>
      </trkpt>
      <trkpt lat="46.49527" lon="-1.78401">
        <ele>12</ele>
        <time>2021-09-25T14:16:01Z</time>
      </trkpt>
      <trkpt lat="46.49527" lon="-1.78401">
        <ele>12</ele>
        <time>2021-09-25T14:16:02Z</time>
      </trkpt>
      <trkpt lat="46.49528" lon="-1.784">
        <ele>12</ele>
        <time>2021-09-25T14:16:03Z</time>
      </trkpt>
      <trkpt lat="46.49528" lon="-1.784">
        <ele>12</ele>
        <time>2021-09-25T14:16:04Z</time>
      </trkpt>
      <trkpt lat="46.49528" lon="-1.78399">
        <ele>12</ele>
        <time>2021-09-25T14:16:05Z</time>
      </trkpt>
      <trkpt lat="46.49528" lon="-1.78399">
        <ele>12</ele>
        <time>2021-09-25T14:16:06Z</time>
      </trkpt>
      <trkpt lat="46.49528" lon="-1.78398">
        <ele>12</ele>
        <time>2021-09-25T14:16:07Z</time>
      </trkpt>
      <trkpt lat="46.49528" lon="-1.78398">
        <ele>12</ele>
        <time>2021-09-25T14:16:08Z</time>
      </trkpt>
      <trkpt lat="46.49528" lon="-1.78398">
        <ele>12</ele>
        <time>2021-09-25T14:16:09Z</time>
      </trkpt>
      <trkpt lat="46.49528" lon="-1.78398">
        <ele>12</ele>
        <time>2021-09-25T14:16:10Z</time>
      </trkpt>
      <trkpt lat="46.49528" lon="-1.78398">
        <ele>12</ele>
        <time>2021-09-25T14:16:11Z</time>
      </trkpt>
      <trkpt lat="46.49528" lon="-1.78398">
        <ele>12</ele>
        <time>2021-09-25T14:16:12Z</time>
      </trkpt>
      <trkpt lat="46.49528" lon="-1.78398">
        <ele>12</ele>
        <time>2021-09-25T14:16:13Z</time>
      </trkpt>
      <trkpt lat="46.49528" lon="-1.78398">
        <ele>12</ele>
        <time>2021-09-25T14:16:14Z</time>
      </trkpt>
      <trkpt lat="46.49528" lon="-1.78398">
        <ele>12</ele>
        <time>2021-09-25T14:16:15Z</time>
      </trkpt>
      <trkpt lat="46.49528" lon="-1.78398">
        <ele>12</ele>
        <time>2021-09-25T14:16:16Z</time>
      </trkpt>
      <trkpt lat="46.49528" lon="-1.78398">
        <ele>12</ele>
        <time>2021-09-25T14:16:17Z</time>
      </trkpt>
      <trkpt lat="46.49528" lon="-1.78398">
        <ele>12</ele>
        <time>2021-09-25T14:16:18Z</time>
      </trkpt>
      <trkpt lat="46.49528" lon="-1.78398">
        <ele>12</ele>
        <time>2021-09-25T14:16:19Z</time>
      </trkpt>
      <trkpt lat="46.49528" lon="-1.78398">
        <ele>12</ele>
        <time>2021-09-25T14:16:20Z</time>
      </trkpt>
      <trkpt lat="46.49528" lon="-1.78398">
        <ele>12</ele>
        <time>2021-09-25T14:16:21Z</time>
      </trkpt>
      <trkpt lat="46.49528" lon="-1.78398">
        <ele>12</ele>
        <time>2021-09-25T14:16:22Z</time>
      </trkpt>
      <trkpt lat="46.49528" lon="-1.78398">
        <ele>12</ele>
        <time>2021-09-25T14:16:23Z</time>
      </trkpt>
      <trkpt lat="46.49528" lon="-1.78398">
        <ele>12</ele>
        <time>2021-09-25T14:16:24Z</time>
      </trkpt>
      <trkpt lat="46.49528" lon="-1.78398">
        <ele>12</ele>
        <time>2021-09-25T14:16:25Z</time>
      </trkpt>
      <trkpt lat="46.49528" lon="-1.78398">
        <ele>12</ele>
        <time>2021-09-25T14:16:26Z</time>
      </trkpt>
      <trkpt lat="46.49528" lon="-1.78398">
        <ele>12</ele>
        <time>2021-09-25T14:16:27Z</time>
      </trkpt>
      <trkpt lat="46.49528" lon="-1.78398">
        <ele>12</ele>
        <time>2021-09-25T14:16:28Z</time>
      </trkpt>
      <trkpt lat="46.49528" lon="-1.78398">
        <ele>12</ele>
        <time>2021-09-25T14:16:29Z</time>
      </trkpt>
      <trkpt lat="46.49528" lon="-1.78398">
        <ele>12</ele>
        <time>2021-09-25T14:16:30Z</time>
      </trkpt>
      <trkpt lat="46.49528" lon="-1.78398">
        <ele>12.1</ele>
        <time>2021-09-25T14:16:31Z</time>
      </trkpt>
      <trkpt lat="46.49527" lon="-1.78397">
        <ele>12.1</ele>
        <time>2021-09-25T14:16:32Z</time>
      </trkpt>
      <trkpt lat="46.49527" lon="-1.78397">
        <ele>12.1</ele>
        <time>2021-09-25T14:16:33Z</time>
      </trkpt>
      <trkpt lat="46.49527" lon="-1.78397">
        <ele>12.1</ele>
        <time>2021-09-25T14:16:34Z</time>
      </trkpt>
      <trkpt lat="46.49526" lon="-1.78396">
        <ele>12.1</ele>
        <time>2021-09-25T14:16:35Z</time>
      </trkpt>
      <trkpt lat="46.49526" lon="-1.78396">
        <ele>12.1</ele>
        <time>2021-09-25T14:16:36Z</time>
      </trkpt>
      <trkpt lat="46.49526" lon="-1.78395">
        <ele>12.1</ele>
        <time>2021-09-25T14:16:37Z</time>
      </trkpt>
      <trkpt lat="46.49525" lon="-1.78395">
        <ele>12.1</ele>
        <time>2021-09-25T14:16:38Z</time>
      </trkpt>
      <trkpt lat="46.49525" lon="-1.78394">
        <ele>12.1</ele>
        <time>2021-09-25T14:16:39Z</time>
      </trkpt>
      <trkpt lat="46.49524" lon="-1.78394">
        <ele>12.1</ele>
        <time>2021-09-25T14:16:40Z</time>
      </trkpt>
      <trkpt lat="46.49524" lon="-1.78393">
        <ele>12.1</ele>
        <time>2021-09-25T14:16:41Z</time>
      </trkpt>
      <trkpt lat="46.49524" lon="-1.78392">
        <ele>12.1</ele>
        <time>2021-09-25T14:16:42Z</time>
      </trkpt>
      <trkpt lat="46.49524" lon="-1.78391">
        <ele>12.1</ele>
        <time>2021-09-25T14:16:43Z</time>
      </trkpt>
      <trkpt lat="46.49524" lon="-1.7839">
        <ele>12.1</ele>
        <time>2021-09-25T14:16:44Z</time>
      </trkpt>
      <trkpt lat="46.49524" lon="-1.78389">
        <ele>12.1</ele>
        <time>2021-09-25T14:16:45Z</time>
      </trkpt>
      <trkpt lat="46.49524" lon="-1.78388">
        <ele>12.1</ele>
        <time>2021-09-25T14:16:46Z</time>
      </trkpt>
      <trkpt lat="46.49525" lon="-1.78387">
        <ele>12.1</ele>
        <time>2021-09-25T14:16:47Z</time>
      </trkpt>
      <trkpt lat="46.49525" lon="-1.78386">
        <ele>12.1</ele>
        <time>2021-09-25T14:16:48Z</time>
      </trkpt>
      <trkpt lat="46.49525" lon="-1.78385">
        <ele>12.1</ele>
        <time>2021-09-25T14:16:49Z</time>
      </trkpt>
      <trkpt lat="46.49525" lon="-1.78384">
        <ele>12.1</ele>
        <time>2021-09-25T14:16:50Z</time>
      </trkpt>
      <trkpt lat="46.49526" lon="-1.78383">
        <ele>12.1</ele>
        <time>2021-09-25T14:16:51Z</time>
      </trkpt>
      <trkpt lat="46.49526" lon="-1.78381">
        <ele>12.1</ele>
        <time>2021-09-25T14:16:52Z</time>
      </trkpt>
      <trkpt lat="46.49526" lon="-1.7838">
        <ele>12.1</ele>
        <time>2021-09-25T14:16:53Z</time>
      </trkpt>
      <trkpt lat="46.49526" lon="-1.78379">
        <ele>12.1</ele>
        <time>2021-09-25T14:16:54Z</time>
      </trkpt>
      <trkpt lat="46.49526" lon="-1.78378">
        <ele>12.1</ele>
        <time>2021-09-25T14:16:55Z</time>
      </trkpt>
      <trkpt lat="46.49526" lon="-1.78377">
        <ele>12.1</ele>
        <time>2021-09-25T14:16:56Z</time>
      </trkpt>
      <trkpt lat="46.49525" lon="-1.78376">
        <ele>12.1</ele>
        <time>2021-09-25T14:16:57Z</time>
      </trkpt>
      <trkpt lat="46.49525" lon="-1.78375">
        <ele>12.1</ele>
        <time>2021-09-25T14:16:58Z</time>
      </trkpt>
      <trkpt lat="46.49525" lon="-1.78374">
        <ele>12.1</ele>
        <time>2021-09-25T14:16:59Z</time>
      </trkpt>
      <trkpt lat="46.49525" lon="-1.78373">
        <ele>12.1</ele>
        <time>2021-09-25T14:17:00Z</time>
      </trkpt>
      <trkpt lat="46.49524" lon="-1.78372">
        <ele>12.1</ele>
        <time>2021-09-25T14:17:01Z</time>
      </trkpt>
      <trkpt lat="46.49524" lon="-1.78371">
        <ele>12.1</ele>
        <time>2021-09-25T14:17:02Z</time>
      </trkpt>
      <trkpt lat="46.49524" lon="-1.78371">
        <ele>12.1</ele>
        <time>2021-09-25T14:17:03Z</time>
      </trkpt>
      <trkpt lat="46.49523" lon="-1.7837">
        <ele>12.1</ele>
        <time>2021-09-25T14:17:04Z</time>
      </trkpt>
      <trkpt lat="46.49523" lon="-1.7837">
        <ele>12.1</ele>
        <time>2021-09-25T14:17:05Z</time>
      </trkpt>
      <trkpt lat="46.49523" lon="-1.78369">
        <ele>12.1</ele>
        <time>2021-09-25T14:17:06Z</time>
      </trkpt>
      <trkpt lat="46.49523" lon="-1.78368">
        <ele>12.1</ele>
        <time>2021-09-25T14:17:07Z</time>
      </trkpt>
      <trkpt lat="46.49523" lon="-1.78368">
        <ele>12.1</ele>
        <time>2021-09-25T14:17:08Z</time>
      </trkpt>
      <trkpt lat="46.49524" lon="-1.78367">
        <ele>12.1</ele>
        <time>2021-09-25T14:17:09Z</time>
      </trkpt>
      <trkpt lat="46.49525" lon="-1.78365">
        <ele>12.1</ele>
        <time>2021-09-25T14:17:10Z</time>
      </trkpt>
      <trkpt lat="46.49525" lon="-1.78364">
        <ele>12.1</ele>
        <time>2021-09-25T14:17:11Z</time>
      </trkpt>
      <trkpt lat="46.49527" lon="-1.78362">
        <ele>12.2</ele>
        <time>2021-09-25T14:17:12Z</time>
      </trkpt>
      <trkpt lat="46.49528" lon="-1.7836">
        <ele>12.2</ele>
        <time>2021-09-25T14:17:13Z</time>
      </trkpt>
      <trkpt lat="46.49528" lon="-1.78359">
        <ele>12.2</ele>
        <time>2021-09-25T14:17:14Z</time>
      </trkpt>
      <trkpt lat="46.49529" lon="-1.78358">
        <ele>12.2</ele>
        <time>2021-09-25T14:17:15Z</time>
      </trkpt>
      <trkpt lat="46.49529" lon="-1.78358">
        <ele>12.2</ele>
        <time>2021-09-25T14:17:16Z</time>
      </trkpt>
      <trkpt lat="46.49529" lon="-1.78357">
        <ele>12.2</ele>
        <time>2021-09-25T14:17:17Z</time>
      </trkpt>
      <trkpt lat="46.49529" lon="-1.78356">
        <ele>12.2</ele>
        <time>2021-09-25T14:17:18Z</time>
      </trkpt>
      <trkpt lat="46.4953" lon="-1.78354">
        <ele>12.2</ele>
        <time>2021-09-25T14:17:19Z</time>
      </trkpt>
      <trkpt lat="46.4953" lon="-1.78353">
        <ele>12.2</ele>
        <time>2021-09-25T14:17:20Z</time>
      </trkpt>
      <trkpt lat="46.49531" lon="-1.78351">
        <ele>12.2</ele>
        <time>2021-09-25T14:17:21Z</time>
      </trkpt>
      <trkpt lat="46.49531" lon="-1.7835">
        <ele>12.2</ele>
        <time>2021-09-25T14:17:22Z</time>
      </trkpt>
      <trkpt lat="46.49531" lon="-1.78349">
        <ele>12.2</ele>
        <time>2021-09-25T14:17:23Z</time>
      </trkpt>
      <trkpt lat="46.49531" lon="-1.78348">
        <ele>12.2</ele>
        <time>2021-09-25T14:17:24Z</time>
      </trkpt>
      <trkpt lat="46.49532" lon="-1.78348">
        <ele>12.2</ele>
        <time>2021-09-25T14:17:25Z</time>
      </trkpt>
      <trkpt lat="46.49532" lon="-1.78347">
        <ele>12.3</ele>
        <time>2021-09-25T14:17:26Z</time>
      </trkpt>
      <trkpt lat="46.49532" lon="-1.78346">
        <ele>12.3</ele>
        <time>2021-09-25T14:17:27Z</time>
      </trkpt>
      <trkpt lat="46.49532" lon="-1.78346">
        <ele>12.3</ele>
        <time>2021-09-25T14:17:28Z</time>
      </trkpt>
      <trkpt lat="46.49532" lon="-1.78346">
        <ele>12.3</ele>
        <time>2021-09-25T14:17:29Z</time>
      </trkpt>
      <trkpt lat="46.49532" lon="-1.78346">
        <ele>12.3</ele>
        <time>2021-09-25T14:17:30Z</time>
      </trkpt>
      <trkpt lat="46.49533" lon="-1.78345">
        <ele>12.3</ele>
        <time>2021-09-25T14:17:31Z</time>
      </trkpt>
      <trkpt lat="46.49533" lon="-1.78345">
        <ele>12.3</ele>
        <time>2021-09-25T14:17:32Z</time>
      </trkpt>
      <trkpt lat="46.49533" lon="-1.78345">
        <ele>12.3</ele>
        <time>2021-09-25T14:17:33Z</time>
      </trkpt>
      <trkpt lat="46.49533" lon="-1.78345">
        <ele>12.3</ele>
        <time>2021-09-25T14:17:34Z</time>
      </trkpt>
      <trkpt lat="46.49533" lon="-1.78345">
        <ele>12.3</ele>
        <time>2021-09-25T14:17:35Z</time>
      </trkpt>
      <trkpt lat="46.49533" lon="-1.78344">
        <ele>12.3</ele>
        <time>2021-09-25T14:17:36Z</time>
      </trkpt>
      <trkpt lat="46.49533" lon="-1.78344">
        <ele>12.3</ele>
        <time>2021-09-25T14:17:37Z</time>
      </trkpt>
      <trkpt lat="46.49533" lon="-1.78344">
        <ele>12.3</ele>
        <time>2021-09-25T14:17:38Z</time>
      </trkpt>
      <trkpt lat="46.49533" lon="-1.78343">
        <ele>12.3</ele>
        <time>2021-09-25T14:17:39Z</time>
      </trkpt>
      <trkpt lat="46.49533" lon="-1.78342">
        <ele>12.3</ele>
        <time>2021-09-25T14:17:40Z</time>
      </trkpt>
      <trkpt lat="46.49533" lon="-1.78342">
        <ele>12.3</ele>
        <time>2021-09-25T14:17:41Z</time>
      </trkpt>
      <trkpt lat="46.49534" lon="-1.78341">
        <ele>12.3</ele>
        <time>2021-09-25T14:17:42Z</time>
      </trkpt>
      <trkpt lat="46.49534" lon="-1.7834">
        <ele>12.3</ele>
        <time>2021-09-25T14:17:43Z</time>
      </trkpt>
      <trkpt lat="46.49533" lon="-1.7834">
        <ele>12.3</ele>
        <time>2021-09-25T14:17:44Z</time>
      </trkpt>
      <trkpt lat="46.49533" lon="-1.78339">
        <ele>12.3</ele>
        <time>2021-09-25T14:17:45Z</time>
      </trkpt>
      <trkpt lat="46.49533" lon="-1.78339">
        <ele>12.3</ele>
        <time>2021-09-25T14:17:46Z</time>
      </trkpt>
      <trkpt lat="46.49533" lon="-1.78339">
        <ele>12.3</ele>
        <time>2021-09-25T14:17:47Z</time>
      </trkpt>
      <trkpt lat="46.49533" lon="-1.78339">
        <ele>12.3</ele>
        <time>2021-09-25T14:17:48Z</time>
      </trkpt>
      <trkpt lat="46.49532" lon="-1.78339">
        <ele>12.3</ele>
        <time>2021-09-25T14:17:49Z</time>
      </trkpt>
      <trkpt lat="46.49532" lon="-1.78339">
        <ele>12.3</ele>
        <time>2021-09-25T14:17:50Z</time>
      </trkpt>
      <trkpt lat="46.49532" lon="-1.78339">
        <ele>12.3</ele>
        <time>2021-09-25T14:17:51Z</time>
      </trkpt>
      <trkpt lat="46.49532" lon="-1.78339">
        <ele>12.3</ele>
        <time>2021-09-25T14:17:52Z</time>
      </trkpt>
      <trkpt lat="46.49531" lon="-1.7834">
        <ele>12.3</ele>
        <time>2021-09-25T14:17:53Z</time>
      </trkpt>
      <trkpt lat="46.49531" lon="-1.7834">
        <ele>12.3</ele>
        <time>2021-09-25T14:17:54Z</time>
      </trkpt>
      <trkpt lat="46.49531" lon="-1.78341">
        <ele>12.3</ele>
        <time>2021-09-25T14:17:55Z</time>
      </trkpt>
      <trkpt lat="46.49531" lon="-1.78341">
        <ele>12.3</ele>
        <time>2021-09-25T14:17:56Z</time>
      </trkpt>
      <trkpt lat="46.49531" lon="-1.78342">
        <ele>12.3</ele>
        <time>2021-09-25T14:17:57Z</time>
      </trkpt>
      <trkpt lat="46.4953" lon="-1.78343">
        <ele>12.3</ele>
        <time>2021-09-25T14:17:58Z</time>
      </trkpt>
      <trkpt lat="46.4953" lon="-1.78343">
        <ele>12.3</ele>
        <time>2021-09-25T14:17:59Z</time>
      </trkpt>
      <trkpt lat="46.4953" lon="-1.78344">
        <ele>12.4</ele>
        <time>2021-09-25T14:18:00Z</time>
      </trkpt>
      <trkpt lat="46.4953" lon="-1.78345">
        <ele>12.4</ele>
        <time>2021-09-25T14:18:01Z</time>
      </trkpt>
      <trkpt lat="46.4953" lon="-1.78346">
        <ele>12.4</ele>
        <time>2021-09-25T14:18:02Z</time>
      </trkpt>
      <trkpt lat="46.49529" lon="-1.78347">
        <ele>12.4</ele>
        <time>2021-09-25T14:18:03Z</time>
      </trkpt>
      <trkpt lat="46.49529" lon="-1.78348">
        <ele>12.4</ele>
        <time>2021-09-25T14:18:04Z</time>
      </trkpt>
      <trkpt lat="46.49529" lon="-1.78349">
        <ele>12.4</ele>
        <time>2021-09-25T14:18:05Z</time>
      </trkpt>
      <trkpt lat="46.49529" lon="-1.7835">
        <ele>12.4</ele>
        <time>2021-09-25T14:18:06Z</time>
      </trkpt>
      <trkpt lat="46.49529" lon="-1.78351">
        <ele>12.4</ele>
        <time>2021-09-25T14:18:07Z</time>
      </trkpt>
      <trkpt lat="46.49529" lon="-1.78352">
        <ele>12.4</ele>
        <time>2021-09-25T14:18:08Z</time>
      </trkpt>
      <trkpt lat="46.49529" lon="-1.78353">
        <ele>12.4</ele>
        <time>2021-09-25T14:18:09Z</time>
      </trkpt>
      <trkpt lat="46.49528" lon="-1.78354">
        <ele>12.4</ele>
        <time>2021-09-25T14:18:10Z</time>
      </trkpt>
      <trkpt lat="46.49528" lon="-1.78355">
        <ele>12.4</ele>
        <time>2021-09-25T14:18:11Z</time>
      </trkpt>
      <trkpt lat="46.49528" lon="-1.78356">
        <ele>12.4</ele>
        <time>2021-09-25T14:18:12Z</time>
      </trkpt>
      <trkpt lat="46.49528" lon="-1.78357">
        <ele>12.4</ele>
        <time>2021-09-25T14:18:13Z</time>
      </trkpt>
      <trkpt lat="46.49527" lon="-1.78358">
        <ele>12.4</ele>
        <time>2021-09-25T14:18:14Z</time>
      </trkpt>
      <trkpt lat="46.49527" lon="-1.78359">
        <ele>12.5</ele>
        <time>2021-09-25T14:18:15Z</time>
      </trkpt>
      <trkpt lat="46.49526" lon="-1.78359">
        <ele>12.5</ele>
        <time>2021-09-25T14:18:16Z</time>
      </trkpt>
      <trkpt lat="46.49526" lon="-1.7836">
        <ele>12.5</ele>
        <time>2021-09-25T14:18:17Z</time>
      </trkpt>
      <trkpt lat="46.49526" lon="-1.7836">
        <ele>12.5</ele>
        <time>2021-09-25T14:18:18Z</time>
      </trkpt>
      <trkpt lat="46.49526" lon="-1.78361">
        <ele>12.5</ele>
        <time>2021-09-25T14:18:19Z</time>
      </trkpt>
      <trkpt lat="46.49525" lon="-1.78361">
        <ele>12.5</ele>
        <time>2021-09-25T14:18:20Z</time>
      </trkpt>
      <trkpt lat="46.49525" lon="-1.78361">
        <ele>12.5</ele>
        <time>2021-09-25T14:18:21Z</time>
      </trkpt>
      <trkpt lat="46.49525" lon="-1.78361">
        <ele>12.5</ele>
        <time>2021-09-25T14:18:22Z</time>
      </trkpt>
      <trkpt lat="46.49525" lon="-1.78361">
        <ele>12.5</ele>
        <time>2021-09-25T14:18:23Z</time>
      </trkpt>
      <trkpt lat="46.49525" lon="-1.78361">
        <ele>12.5</ele>
        <time>2021-09-25T14:18:24Z</time>
      </trkpt>
      <trkpt lat="46.49525" lon="-1.78361">
        <ele>12.5</ele>
        <time>2021-09-25T14:18:25Z</time>
      </trkpt>
      <trkpt lat="46.49525" lon="-1.78361">
        <ele>12.5</ele>
        <time>2021-09-25T14:18:26Z</time>
      </trkpt>
      <trkpt lat="46.49525" lon="-1.78361">
        <ele>12.5</ele>
        <time>2021-09-25T14:18:27Z</time>
      </trkpt>
      <trkpt lat="46.49525" lon="-1.78361">
        <ele>12.5</ele>
        <time>2021-09-25T14:18:28Z</time>
      </trkpt>
      <trkpt lat="46.49525" lon="-1.78361">
        <ele>12.5</ele>
        <time>2021-09-25T14:18:29Z</time>
      </trkpt>
      <trkpt lat="46.49525" lon="-1.78361">
        <ele>12.5</ele>
        <time>2021-09-25T14:18:30Z</time>
      </trkpt>
      <trkpt lat="46.49525" lon="-1.78361">
        <ele>12.5</ele>
        <time>2021-09-25T14:18:31Z</time>
      </trkpt>
      <trkpt lat="46.49525" lon="-1.78361">
        <ele>12.5</ele>
        <time>2021-09-25T14:18:32Z</time>
      </trkpt>
      <trkpt lat="46.49525" lon="-1.78361">
        <ele>12.5</ele>
        <time>2021-09-25T14:18:33Z</time>
      </trkpt>
      <trkpt lat="46.49525" lon="-1.78361">
        <ele>12.5</ele>
        <time>2021-09-25T14:18:34Z</time>
      </trkpt>
      <trkpt lat="46.49525" lon="-1.78361">
        <ele>12.5</ele>
        <time>2021-09-25T14:18:35Z</time>
      </trkpt>
      <trkpt lat="46.49525" lon="-1.78361">
        <ele>12.5</ele>
        <time>2021-09-25T14:18:36Z</time>
      </trkpt>
      <trkpt lat="46.49525" lon="-1.78361">
        <ele>12.5</ele>
        <time>2021-09-25T14:18:37Z</time>
      </trkpt>
      <trkpt lat="46.49525" lon="-1.78361">
        <ele>12.5</ele>
        <time>2021-09-25T14:18:38Z</time>
      </trkpt>
      <trkpt lat="46.49525" lon="-1.78361">
        <ele>12.5</ele>
        <time>2021-09-25T14:18:39Z</time>
      </trkpt>
      <trkpt lat="46.49525" lon="-1.78361">
        <ele>12.5</ele>
        <time>2021-09-25T14:18:40Z</time>
      </trkpt>
      <trkpt lat="46.49525" lon="-1.78361">
        <ele>12.5</ele>
        <time>2021-09-25T14:18:41Z</time>
      </trkpt>
      <trkpt lat="46.49525" lon="-1.78361">
        <ele>12.5</ele>
        <time>2021-09-25T14:18:42Z</time>
      </trkpt>
      <trkpt lat="46.49525" lon="-1.78361">
        <ele>12.5</ele>
        <time>2021-09-25T14:18:43Z</time>
      </trkpt>
      <trkpt lat="46.49525" lon="-1.78361">
        <ele>12.5</ele>
        <time>2021-09-25T14:18:44Z</time>
      </trkpt>
      <trkpt lat="46.49525" lon="-1.78361">
        <ele>12.5</ele>
        <time>2021-09-25T14:18:45Z</time>
      </trkpt>
      <trkpt lat="46.49525" lon="-1.78361">
        <ele>12.5</ele>
        <time>2021-09-25T14:18:46Z</time>
      </trkpt>
      <trkpt lat="46.49525" lon="-1.7836">
        <ele>12.5</ele>
        <time>2021-09-25T14:18:47Z</time>
      </trkpt>
      <trkpt lat="46.49525" lon="-1.7836">
        <ele>12.5</ele>
        <time>2021-09-25T14:18:48Z</time>
      </trkpt>
      <trkpt lat="46.49525" lon="-1.7836">
        <ele>12.5</ele>
        <time>2021-09-25T14:18:49Z</time>
      </trkpt>
      <trkpt lat="46.49525" lon="-1.7836">
        <ele>12.5</ele>
        <time>2021-09-25T14:18:50Z</time>
      </trkpt>
      <trkpt lat="46.49525" lon="-1.7836">
        <ele>12.5</ele>
        <time>2021-09-25T14:18:51Z</time>
      </trkpt>
      <trkpt lat="46.49525" lon="-1.7836">
        <ele>12.5</ele>
        <time>2021-09-25T14:18:52Z</time>
      </trkpt>
      <trkpt lat="46.49525" lon="-1.7836">
        <ele>12.5</ele>
        <time>2021-09-25T14:18:53Z</time>
      </trkpt>
      <trkpt lat="46.49526" lon="-1.7836">
        <ele>12.5</ele>
        <time>2021-09-25T14:18:54Z</time>
      </trkpt>
      <trkpt lat="46.49526" lon="-1.7836">
        <ele>12.5</ele>
        <time>2021-09-25T14:18:55Z</time>
      </trkpt>
      <trkpt lat="46.49526" lon="-1.7836">
        <ele>12.5</ele>
        <time>2021-09-25T14:18:56Z</time>
      </trkpt>
      <trkpt lat="46.49526" lon="-1.7836">
        <ele>12.5</ele>
        <time>2021-09-25T14:18:57Z</time>
      </trkpt>
      <trkpt lat="46.49526" lon="-1.7836">
        <ele>12.5</ele>
        <time>2021-09-25T14:18:58Z</time>
      </trkpt>
      <trkpt lat="46.49526" lon="-1.7836">
        <ele>12.5</ele>
        <time>2021-09-25T14:18:59Z</time>
      </trkpt>
      <trkpt lat="46.49526" lon="-1.7836">
        <ele>12.5</ele>
        <time>2021-09-25T14:19:00Z</time>
      </trkpt>
      <trkpt lat="46.49526" lon="-1.7836">
        <ele>12.5</ele>
        <time>2021-09-25T14:19:01Z</time>
      </trkpt>
      <trkpt lat="46.49526" lon="-1.7836">
        <ele>12.5</ele>
        <time>2021-09-25T14:19:02Z</time>
      </trkpt>
      <trkpt lat="46.49526" lon="-1.7836">
        <ele>12.5</ele>
        <time>2021-09-25T14:19:03Z</time>
      </trkpt>
      <trkpt lat="46.49526" lon="-1.7836">
        <ele>12.5</ele>
        <time>2021-09-25T14:19:04Z</time>
      </trkpt>
      <trkpt lat="46.49526" lon="-1.7836">
        <ele>12.5</ele>
        <time>2021-09-25T14:19:05Z</time>
      </trkpt>
      <trkpt lat="46.49526" lon="-1.7836">
        <ele>12.5</ele>
        <time>2021-09-25T14:19:06Z</time>
      </trkpt>
      <trkpt lat="46.49526" lon="-1.7836">
        <ele>12.5</ele>
        <time>2021-09-25T14:19:07Z</time>
      </trkpt>
      <trkpt lat="46.49526" lon="-1.7836">
        <ele>12.5</ele>
        <time>2021-09-25T14:19:08Z</time>
      </trkpt>
      <trkpt lat="46.49526" lon="-1.7836">
        <ele>12.5</ele>
        <time>2021-09-25T14:19:09Z</time>
      </trkpt>
      <trkpt lat="46.49526" lon="-1.7836">
        <ele>12.5</ele>
        <time>2021-09-25T14:19:10Z</time>
      </trkpt>
      <trkpt lat="46.49526" lon="-1.7836">
        <ele>12.5</ele>
        <time>2021-09-25T14:19:11Z</time>
      </trkpt>
      <trkpt lat="46.49526" lon="-1.7836">
        <ele>12.5</ele>
        <time>2021-09-25T14:19:12Z</time>
      </trkpt>
      <trkpt lat="46.49526" lon="-1.7836">
        <ele>12.5</ele>
        <time>2021-09-25T14:19:13Z</time>
      </trkpt>
      <trkpt lat="46.49526" lon="-1.7836">
        <ele>12.5</ele>
        <time>2021-09-25T14:19:14Z</time>
      </trkpt>
      <trkpt lat="46.49526" lon="-1.78361">
        <ele>12.5</ele>
        <time>2021-09-25T14:19:15Z</time>
      </trkpt>
      <trkpt lat="46.49526" lon="-1.78361">
        <ele>12.5</ele>
        <time>2021-09-25T14:19:16Z</time>
      </trkpt>
      <trkpt lat="46.49526" lon="-1.78361">
        <ele>12.5</ele>
        <time>2021-09-25T14:19:17Z</time>
      </trkpt>
      <trkpt lat="46.49526" lon="-1.78361">
        <ele>12.5</ele>
        <time>2021-09-25T14:19:18Z</time>
      </trkpt>
      <trkpt lat="46.49526" lon="-1.78361">
        <ele>12.5</ele>
        <time>2021-09-25T14:19:19Z</time>
      </trkpt>
      <trkpt lat="46.49525" lon="-1.78361">
        <ele>12.5</ele>
        <time>2021-09-25T14:19:20Z</time>
      </trkpt>
      <trkpt lat="46.49525" lon="-1.78361">
        <ele>12.5</ele>
        <time>2021-09-25T14:19:21Z</time>
      </trkpt>
      <trkpt lat="46.49524" lon="-1.78361">
        <ele>12.5</ele>
        <time>2021-09-25T14:19:22Z</time>
      </trkpt>
      <trkpt lat="46.49524" lon="-1.78362">
        <ele>12.5</ele>
        <time>2021-09-25T14:19:23Z</time>
      </trkpt>
      <trkpt lat="46.49523" lon="-1.78362">
        <ele>12.5</ele>
        <time>2021-09-25T14:19:24Z</time>
      </trkpt>
      <trkpt lat="46.49523" lon="-1.78362">
        <ele>12.5</ele>
        <time>2021-09-25T14:19:25Z</time>
      </trkpt>
      <trkpt lat="46.49522" lon="-1.78362">
        <ele>12.5</ele>
        <time>2021-09-25T14:19:26Z</time>
      </trkpt>
      <trkpt lat="46.49521" lon="-1.78362">
        <ele>12.5</ele>
        <time>2021-09-25T14:19:27Z</time>
      </trkpt>
      <trkpt lat="46.49521" lon="-1.78362">
        <ele>12.6</ele>
        <time>2021-09-25T14:19:28Z</time>
      </trkpt>
      <trkpt lat="46.4952" lon="-1.78362">
        <ele>12.6</ele>
        <time>2021-09-25T14:19:29Z</time>
      </trkpt>
      <trkpt lat="46.49519" lon="-1.78362">
        <ele>12.6</ele>
        <time>2021-09-25T14:19:30Z</time>
      </trkpt>
      <trkpt lat="46.49519" lon="-1.78362">
        <ele>12.6</ele>
        <time>2021-09-25T14:19:31Z</time>
      </trkpt>
      <trkpt lat="46.49518" lon="-1.78362">
        <ele>12.6</ele>
        <time>2021-09-25T14:19:32Z</time>
      </trkpt>
      <trkpt lat="46.49517" lon="-1.78362">
        <ele>12.6</ele>
        <time>2021-09-25T14:19:33Z</time>
      </trkpt>
      <trkpt lat="46.49517" lon="-1.78362">
        <ele>12.6</ele>
        <time>2021-09-25T14:19:34Z</time>
      </trkpt>
      <trkpt lat="46.49516" lon="-1.78362">
        <ele>12.6</ele>
        <time>2021-09-25T14:19:35Z</time>
      </trkpt>
      <trkpt lat="46.49516" lon="-1.78362">
        <ele>12.6</ele>
        <time>2021-09-25T14:19:36Z</time>
      </trkpt>
      <trkpt lat="46.49515" lon="-1.78362">
        <ele>12.6</ele>
        <time>2021-09-25T14:19:37Z</time>
      </trkpt>
      <trkpt lat="46.49515" lon="-1.78361">
        <ele>12.6</ele>
        <time>2021-09-25T14:19:38Z</time>
      </trkpt>
      <trkpt lat="46.49515" lon="-1.78361">
        <ele>12.6</ele>
        <time>2021-09-25T14:19:39Z</time>
      </trkpt>
      <trkpt lat="46.49515" lon="-1.7836">
        <ele>12.6</ele>
        <time>2021-09-25T14:19:40Z</time>
      </trkpt>
      <trkpt lat="46.49516" lon="-1.78359">
        <ele>12.6</ele>
        <time>2021-09-25T14:19:41Z</time>
      </trkpt>
      <trkpt lat="46.49516" lon="-1.78359">
        <ele>12.6</ele>
        <time>2021-09-25T14:19:42Z</time>
      </trkpt>
      <trkpt lat="46.49517" lon="-1.78358">
        <ele>12.6</ele>
        <time>2021-09-25T14:19:43Z</time>
      </trkpt>
      <trkpt lat="46.49518" lon="-1.78357">
        <ele>12.7</ele>
        <time>2021-09-25T14:19:44Z</time>
      </trkpt>
      <trkpt lat="46.49519" lon="-1.78356">
        <ele>12.7</ele>
        <time>2021-09-25T14:19:45Z</time>
      </trkpt>
      <trkpt lat="46.49519" lon="-1.78355">
        <ele>12.7</ele>
        <time>2021-09-25T14:19:46Z</time>
      </trkpt>
      <trkpt lat="46.4952" lon="-1.78354">
        <ele>12.7</ele>
        <time>2021-09-25T14:19:47Z</time>
      </trkpt>
      <trkpt lat="46.49521" lon="-1.78353">
        <ele>12.7</ele>
        <time>2021-09-25T14:19:48Z</time>
      </trkpt>
      <trkpt lat="46.49522" lon="-1.78352">
        <ele>12.7</ele>
        <time>2021-09-25T14:19:49Z</time>
      </trkpt>
      <trkpt lat="46.49522" lon="-1.78352">
        <ele>12.7</ele>
        <time>2021-09-25T14:19:50Z</time>
      </trkpt>
      <trkpt lat="46.49523" lon="-1.78351">
        <ele>12.7</ele>
        <time>2021-09-25T14:19:51Z</time>
      </trkpt>
      <trkpt lat="46.49523" lon="-1.78351">
        <ele>12.7</ele>
        <time>2021-09-25T14:19:52Z</time>
      </trkpt>
      <trkpt lat="46.49523" lon="-1.7835">
        <ele>12.7</ele>
        <time>2021-09-25T14:19:53Z</time>
      </trkpt>
      <trkpt lat="46.49523" lon="-1.78349">
        <ele>12.7</ele>
        <time>2021-09-25T14:19:54Z</time>
      </trkpt>
      <trkpt lat="46.49523" lon="-1.78348">
        <ele>12.7</ele>
        <time>2021-09-25T14:19:55Z</time>
      </trkpt>
      <trkpt lat="46.49523" lon="-1.78347">
        <ele>12.7</ele>
        <time>2021-09-25T14:19:56Z</time>
      </trkpt>
      <trkpt lat="46.49522" lon="-1.78346">
        <ele>12.8</ele>
        <time>2021-09-25T14:19:57Z</time>
      </trkpt>
      <trkpt lat="46.49522" lon="-1.78345">
        <ele>12.8</ele>
        <time>2021-09-25T14:19:58Z</time>
      </trkpt>
      <trkpt lat="46.49522" lon="-1.78344">
        <ele>12.8</ele>
        <time>2021-09-25T14:19:59Z</time>
      </trkpt>
      <trkpt lat="46.49522" lon="-1.78344">
        <ele>12.8</ele>
        <time>2021-09-25T14:20:00Z</time>
      </trkpt>
      <trkpt lat="46.49522" lon="-1.78344">
        <ele>12.8</ele>
        <time>2021-09-25T14:20:01Z</time>
      </trkpt>
      <trkpt lat="46.49522" lon="-1.78343">
        <ele>12.8</ele>
        <time>2021-09-25T14:20:02Z</time>
      </trkpt>
      <trkpt lat="46.49522" lon="-1.78343">
        <ele>12.8</ele>
        <time>2021-09-25T14:20:03Z</time>
      </trkpt>
      <trkpt lat="46.49522" lon="-1.78343">
        <ele>12.8</ele>
        <time>2021-09-25T14:20:04Z</time>
      </trkpt>
      <trkpt lat="46.49522" lon="-1.78343">
        <ele>12.8</ele>
        <time>2021-09-25T14:20:05Z</time>
      </trkpt>
      <trkpt lat="46.49522" lon="-1.78343">
        <ele>12.8</ele>
        <time>2021-09-25T14:20:06Z</time>
      </trkpt>
      <trkpt lat="46.49522" lon="-1.78343">
        <ele>12.8</ele>
        <time>2021-09-25T14:20:07Z</time>
      </trkpt>
      <trkpt lat="46.49522" lon="-1.78343">
        <ele>12.8</ele>
        <time>2021-09-25T14:20:08Z</time>
      </trkpt>
      <trkpt lat="46.49522" lon="-1.78343">
        <ele>12.8</ele>
        <time>2021-09-25T14:20:09Z</time>
      </trkpt>
      <trkpt lat="46.49522" lon="-1.78343">
        <ele>12.8</ele>
        <time>2021-09-25T14:20:10Z</time>
      </trkpt>
      <trkpt lat="46.49522" lon="-1.78343">
        <ele>12.8</ele>
        <time>2021-09-25T14:20:11Z</time>
      </trkpt>
      <trkpt lat="46.49522" lon="-1.78343">
        <ele>12.8</ele>
        <time>2021-09-25T14:20:12Z</time>
      </trkpt>
      <trkpt lat="46.49522" lon="-1.78343">
        <ele>12.8</ele>
        <time>2021-09-25T14:20:13Z</time>
      </trkpt>
      <trkpt lat="46.49522" lon="-1.78343">
        <ele>12.8</ele>
        <time>2021-09-25T14:20:14Z</time>
      </trkpt>
      <trkpt lat="46.49522" lon="-1.78343">
        <ele>12.8</ele>
        <time>2021-09-25T14:20:15Z</time>
      </trkpt>
      <trkpt lat="46.49522" lon="-1.78343">
        <ele>12.8</ele>
        <time>2021-09-25T14:20:16Z</time>
      </trkpt>
      <trkpt lat="46.49522" lon="-1.78343">
        <ele>12.8</ele>
        <time>2021-09-25T14:20:17Z</time>
      </trkpt>
      <trkpt lat="46.49522" lon="-1.78343">
        <ele>12.8</ele>
        <time>2021-09-25T14:20:18Z</time>
      </trkpt>
      <trkpt lat="46.49522" lon="-1.78343">
        <ele>12.8</ele>
        <time>2021-09-25T14:20:19Z</time>
      </trkpt>
      <trkpt lat="46.49522" lon="-1.78343">
        <ele>12.8</ele>
        <time>2021-09-25T14:20:20Z</time>
      </trkpt>
      <trkpt lat="46.49522" lon="-1.78343">
        <ele>12.8</ele>
        <time>2021-09-25T14:20:21Z</time>
      </trkpt>
      <trkpt lat="46.49522" lon="-1.78343">
        <ele>12.8</ele>
        <time>2021-09-25T14:20:22Z</time>
      </trkpt>
      <trkpt lat="46.49522" lon="-1.78343">
        <ele>12.8</ele>
        <time>2021-09-25T14:20:23Z</time>
      </trkpt>
      <trkpt lat="46.49522" lon="-1.78343">
        <ele>12.8</ele>
        <time>2021-09-25T14:20:24Z</time>
      </trkpt>
      <trkpt lat="46.49522" lon="-1.78343">
        <ele>12.8</ele>
        <time>2021-09-25T14:20:25Z</time>
      </trkpt>
      <trkpt lat="46.49522" lon="-1.78343">
        <ele>12.8</ele>
        <time>2021-09-25T14:20:26Z</time>
      </trkpt>
      <trkpt lat="46.49522" lon="-1.78342">
        <ele>12.8</ele>
        <time>2021-09-25T14:20:27Z</time>
      </trkpt>
      <trkpt lat="46.49522" lon="-1.78339">
        <ele>12.8</ele>
        <time>2021-09-25T14:20:28Z</time>
      </trkpt>
      <trkpt lat="46.49522" lon="-1.78337">
        <ele>12.8</ele>
        <time>2021-09-25T14:20:29Z</time>
      </trkpt>
      <trkpt lat="46.49522" lon="-1.78336">
        <ele>12.8</ele>
        <time>2021-09-25T14:20:30Z</time>
      </trkpt>
      <trkpt lat="46.49523" lon="-1.78335">
        <ele>12.8</ele>
        <time>2021-09-25T14:20:31Z</time>
      </trkpt>
      <trkpt lat="46.49523" lon="-1.78334">
        <ele>12.8</ele>
        <time>2021-09-25T14:20:32Z</time>
      </trkpt>
      <trkpt lat="46.49524" lon="-1.78333">
        <ele>12.8</ele>
        <time>2021-09-25T14:20:33Z</time>
      </trkpt>
      <trkpt lat="46.49524" lon="-1.78332">
        <ele>12.8</ele>
        <time>2021-09-25T14:20:34Z</time>
      </trkpt>
      <trkpt lat="46.49525" lon="-1.78331">
        <ele>12.8</ele>
        <time>2021-09-25T14:20:35Z</time>
      </trkpt>
      <trkpt lat="46.49525" lon="-1.78331">
        <ele>12.8</ele>
        <time>2021-09-25T14:20:36Z</time>
      </trkpt>
      <trkpt lat="46.49526" lon="-1.78329">
        <ele>12.9</ele>
        <time>2021-09-25T14:20:37Z</time>
      </trkpt>
      <trkpt lat="46.49527" lon="-1.78329">
        <ele>12.9</ele>
        <time>2021-09-25T14:20:38Z</time>
      </trkpt>
      <trkpt lat="46.49527" lon="-1.78329">
        <ele>12.9</ele>
        <time>2021-09-25T14:20:39Z</time>
      </trkpt>
      <trkpt lat="46.49527" lon="-1.78329">
        <ele>12.9</ele>
        <time>2021-09-25T14:20:40Z</time>
      </trkpt>
      <trkpt lat="46.49528" lon="-1.78329">
        <ele>12.9</ele>
        <time>2021-09-25T14:20:41Z</time>
      </trkpt>
      <trkpt lat="46.49528" lon="-1.78329">
        <ele>12.9</ele>
        <time>2021-09-25T14:20:42Z</time>
      </trkpt>
      <trkpt lat="46.49528" lon="-1.78328">
        <ele>12.9</ele>
        <time>2021-09-25T14:20:43Z</time>
      </trkpt>
      <trkpt lat="46.49529" lon="-1.78328">
        <ele>12.9</ele>
        <time>2021-09-25T14:20:44Z</time>
      </trkpt>
      <trkpt lat="46.49529" lon="-1.78328">
        <ele>12.9</ele>
        <time>2021-09-25T14:20:45Z</time>
      </trkpt>
      <trkpt lat="46.49529" lon="-1.78328">
        <ele>12.9</ele>
        <time>2021-09-25T14:20:46Z</time>
      </trkpt>
      <trkpt lat="46.4953" lon="-1.78328">
        <ele>12.9</ele>
        <time>2021-09-25T14:20:47Z</time>
      </trkpt>
      <trkpt lat="46.4953" lon="-1.78328">
        <ele>12.9</ele>
        <time>2021-09-25T14:20:48Z</time>
      </trkpt>
      <trkpt lat="46.4953" lon="-1.78327">
        <ele>12.9</ele>
        <time>2021-09-25T14:20:49Z</time>
      </trkpt>
      <trkpt lat="46.49531" lon="-1.78327">
        <ele>12.9</ele>
        <time>2021-09-25T14:20:50Z</time>
      </trkpt>
      <trkpt lat="46.49531" lon="-1.78327">
        <ele>12.9</ele>
        <time>2021-09-25T14:20:51Z</time>
      </trkpt>
      <trkpt lat="46.49531" lon="-1.78327">
        <ele>12.9</ele>
        <time>2021-09-25T14:20:52Z</time>
      </trkpt>
      <trkpt lat="46.49532" lon="-1.78327">
        <ele>12.9</ele>
        <time>2021-09-25T14:20:53Z</time>
      </trkpt>
      <trkpt lat="46.49532" lon="-1.78326">
        <ele>12.9</ele>
        <time>2021-09-25T14:20:54Z</time>
      </trkpt>
      <trkpt lat="46.49532" lon="-1.78326">
        <ele>12.9</ele>
        <time>2021-09-25T14:20:55Z</time>
      </trkpt>
      <trkpt lat="46.49533" lon="-1.78326">
        <ele>12.9</ele>
        <time>2021-09-25T14:20:56Z</time>
      </trkpt>
      <trkpt lat="46.49533" lon="-1.78326">
        <ele>12.9</ele>
        <time>2021-09-25T14:20:57Z</time>
      </trkpt>
      <trkpt lat="46.49533" lon="-1.78326">
        <ele>12.9</ele>
        <time>2021-09-25T14:20:58Z</time>
      </trkpt>
      <trkpt lat="46.49534" lon="-1.78326">
        <ele>12.9</ele>
        <time>2021-09-25T14:20:59Z</time>
      </trkpt>
      <trkpt lat="46.49534" lon="-1.78325">
        <ele>12.9</ele>
        <time>2021-09-25T14:21:00Z</time>
      </trkpt>
      <trkpt lat="46.49534" lon="-1.78325">
        <ele>12.9</ele>
        <time>2021-09-25T14:21:01Z</time>
      </trkpt>
      <trkpt lat="46.49535" lon="-1.78325">
        <ele>12.9</ele>
        <time>2021-09-25T14:21:02Z</time>
      </trkpt>
      <trkpt lat="46.49535" lon="-1.78325">
        <ele>12.9</ele>
        <time>2021-09-25T14:21:03Z</time>
      </trkpt>
      <trkpt lat="46.49535" lon="-1.78325">
        <ele>12.9</ele>
        <time>2021-09-25T14:21:04Z</time>
      </trkpt>
      <trkpt lat="46.49536" lon="-1.78325">
        <ele>12.9</ele>
        <time>2021-09-25T14:21:05Z</time>
      </trkpt>
      <trkpt lat="46.49536" lon="-1.78324">
        <ele>12.9</ele>
        <time>2021-09-25T14:21:06Z</time>
      </trkpt>
      <trkpt lat="46.49536" lon="-1.78324">
        <ele>12.9</ele>
        <time>2021-09-25T14:21:07Z</time>
      </trkpt>
      <trkpt lat="46.49537" lon="-1.78324">
        <ele>12.9</ele>
        <time>2021-09-25T14:21:08Z</time>
      </trkpt>
      <trkpt lat="46.49537" lon="-1.78324">
        <ele>12.9</ele>
        <time>2021-09-25T14:21:09Z</time>
      </trkpt>
      <trkpt lat="46.49537" lon="-1.78324">
        <ele>13.2</ele>
        <time>2021-09-25T14:21:10Z</time>
      </trkpt>
      <trkpt lat="46.49538" lon="-1.78323">
        <ele>13.2</ele>
        <time>2021-09-25T14:21:11Z</time>
      </trkpt>
      <trkpt lat="46.49538" lon="-1.78323">
        <ele>13.2</ele>
        <time>2021-09-25T14:21:12Z</time>
      </trkpt>
      <trkpt lat="46.49538" lon="-1.78323">
        <ele>13.2</ele>
        <time>2021-09-25T14:21:13Z</time>
      </trkpt>
      <trkpt lat="46.49539" lon="-1.78323">
        <ele>13.3</ele>
        <time>2021-09-25T14:21:14Z</time>
      </trkpt>
      <trkpt lat="46.49539" lon="-1.78323">
        <ele>13.3</ele>
        <time>2021-09-25T14:21:15Z</time>
      </trkpt>
      <trkpt lat="46.49539" lon="-1.78323">
        <ele>13.3</ele>
        <time>2021-09-25T14:21:16Z</time>
      </trkpt>
      <trkpt lat="46.4954" lon="-1.78322">
        <ele>13.3</ele>
        <time>2021-09-25T14:21:17Z</time>
      </trkpt>
      <trkpt lat="46.4954" lon="-1.78322">
        <ele>13.4</ele>
        <time>2021-09-25T14:21:18Z</time>
      </trkpt>
      <trkpt lat="46.4954" lon="-1.78322">
        <ele>13.4</ele>
        <time>2021-09-25T14:21:19Z</time>
      </trkpt>
      <trkpt lat="46.49541" lon="-1.78322">
        <ele>13.4</ele>
        <time>2021-09-25T14:21:20Z</time>
      </trkpt>
      <trkpt lat="46.49541" lon="-1.78322">
        <ele>13.4</ele>
        <time>2021-09-25T14:21:21Z</time>
      </trkpt>
      <trkpt lat="46.49541" lon="-1.78322">
        <ele>13.5</ele>
        <time>2021-09-25T14:21:22Z</time>
      </trkpt>
      <trkpt lat="46.49542" lon="-1.78321">
        <ele>13.5</ele>
        <time>2021-09-25T14:21:23Z</time>
      </trkpt>
      <trkpt lat="46.49542" lon="-1.78321">
        <ele>13.5</ele>
        <time>2021-09-25T14:21:24Z</time>
      </trkpt>
      <trkpt lat="46.49542" lon="-1.78321">
        <ele>13.5</ele>
        <time>2021-09-25T14:21:25Z</time>
      </trkpt>
      <trkpt lat="46.49543" lon="-1.78321">
        <ele>13.6</ele>
        <time>2021-09-25T14:21:26Z</time>
      </trkpt>
      <trkpt lat="46.49543" lon="-1.78321">
        <ele>13.6</ele>
        <time>2021-09-25T14:21:27Z</time>
      </trkpt>
      <trkpt lat="46.49543" lon="-1.7832">
        <ele>13.6</ele>
        <time>2021-09-25T14:21:28Z</time>
      </trkpt>
      <trkpt lat="46.49544" lon="-1.7832">
        <ele>13.6</ele>
        <time>2021-09-25T14:21:29Z</time>
      </trkpt>
      <trkpt lat="46.49544" lon="-1.7832">
        <ele>13.7</ele>
        <time>2021-09-25T14:21:30Z</time>
      </trkpt>
      <trkpt lat="46.49544" lon="-1.7832">
        <ele>13.7</ele>
        <time>2021-09-25T14:21:31Z</time>
      </trkpt>
      <trkpt lat="46.49545" lon="-1.7832">
        <ele>13.7</ele>
        <time>2021-09-25T14:21:32Z</time>
      </trkpt>
      <trkpt lat="46.49545" lon="-1.7832">
        <ele>13.7</ele>
        <time>2021-09-25T14:21:33Z</time>
      </trkpt>
      <trkpt lat="46.49545" lon="-1.78319">
        <ele>13.7</ele>
        <time>2021-09-25T14:21:34Z</time>
      </trkpt>
      <trkpt lat="46.49546" lon="-1.78319">
        <ele>13.8</ele>
        <time>2021-09-25T14:21:35Z</time>
      </trkpt>
      <trkpt lat="46.49546" lon="-1.78319">
        <ele>13.8</ele>
        <time>2021-09-25T14:21:36Z</time>
      </trkpt>
      <trkpt lat="46.49547" lon="-1.78319">
        <ele>13.8</ele>
        <time>2021-09-25T14:21:37Z</time>
      </trkpt>
      <trkpt lat="46.49547" lon="-1.78319">
        <ele>13.9</ele>
        <time>2021-09-25T14:21:38Z</time>
      </trkpt>
      <trkpt lat="46.49547" lon="-1.78318">
        <ele>13.9</ele>
        <time>2021-09-25T14:21:39Z</time>
      </trkpt>
      <trkpt lat="46.49548" lon="-1.78318">
        <ele>13.9</ele>
        <time>2021-09-25T14:21:40Z</time>
      </trkpt>
      <trkpt lat="46.49548" lon="-1.78318">
        <ele>13.9</ele>
        <time>2021-09-25T14:21:41Z</time>
      </trkpt>
      <trkpt lat="46.49548" lon="-1.78318">
        <ele>13.9</ele>
        <time>2021-09-25T14:21:42Z</time>
      </trkpt>
      <trkpt lat="46.49549" lon="-1.78318">
        <ele>14</ele>
        <time>2021-09-25T14:21:43Z</time>
      </trkpt>
      <trkpt lat="46.49549" lon="-1.78318">
        <ele>14</ele>
        <time>2021-09-25T14:21:44Z</time>
      </trkpt>
      <trkpt lat="46.49549" lon="-1.78317">
        <ele>14</ele>
        <time>2021-09-25T14:21:45Z</time>
      </trkpt>
      <trkpt lat="46.4955" lon="-1.78317">
        <ele>14</ele>
        <time>2021-09-25T14:21:46Z</time>
      </trkpt>
      <trkpt lat="46.4955" lon="-1.78317">
        <ele>14.1</ele>
        <time>2021-09-25T14:21:47Z</time>
      </trkpt>
      <trkpt lat="46.4955" lon="-1.78317">
        <ele>14.1</ele>
        <time>2021-09-25T14:21:48Z</time>
      </trkpt>
      <trkpt lat="46.49551" lon="-1.78317">
        <ele>14.1</ele>
        <time>2021-09-25T14:21:49Z</time>
      </trkpt>
      <trkpt lat="46.49551" lon="-1.78317">
        <ele>14.1</ele>
        <time>2021-09-25T14:21:50Z</time>
      </trkpt>
      <trkpt lat="46.49551" lon="-1.78316">
        <ele>14.1</ele>
        <time>2021-09-25T14:21:51Z</time>
      </trkpt>
      <trkpt lat="46.49552" lon="-1.78316">
        <ele>14.2</ele>
        <time>2021-09-25T14:21:52Z</time>
      </trkpt>
      <trkpt lat="46.49552" lon="-1.78316">
        <ele>14.2</ele>
        <time>2021-09-25T14:21:53Z</time>
      </trkpt>
      <trkpt lat="46.49552" lon="-1.78316">
        <ele>14.2</ele>
        <time>2021-09-25T14:21:54Z</time>
      </trkpt>
      <trkpt lat="46.49553" lon="-1.78316">
        <ele>14.2</ele>
        <time>2021-09-25T14:21:55Z</time>
      </trkpt>
      <trkpt lat="46.49553" lon="-1.78315">
        <ele>14.2</ele>
        <time>2021-09-25T14:21:56Z</time>
      </trkpt>
      <trkpt lat="46.49553" lon="-1.78315">
        <ele>14.3</ele>
        <time>2021-09-25T14:21:57Z</time>
      </trkpt>
      <trkpt lat="46.49554" lon="-1.78315">
        <ele>14.3</ele>
        <time>2021-09-25T14:21:58Z</time>
      </trkpt>
      <trkpt lat="46.49554" lon="-1.78315">
        <ele>14.3</ele>
        <time>2021-09-25T14:21:59Z</time>
      </trkpt>
      <trkpt lat="46.49554" lon="-1.78315">
        <ele>14.3</ele>
        <time>2021-09-25T14:22:00Z</time>
      </trkpt>
      <trkpt lat="46.49555" lon="-1.78315">
        <ele>14.3</ele>
        <time>2021-09-25T14:22:01Z</time>
      </trkpt>
      <trkpt lat="46.49555" lon="-1.78314">
        <ele>14.4</ele>
        <time>2021-09-25T14:22:02Z</time>
      </trkpt>
      <trkpt lat="46.49555" lon="-1.78314">
        <ele>14.5</ele>
        <time>2021-09-25T14:22:03Z</time>
      </trkpt>
      <trkpt lat="46.49556" lon="-1.78314">
        <ele>14.5</ele>
        <time>2021-09-25T14:22:04Z</time>
      </trkpt>
      <trkpt lat="46.49556" lon="-1.78314">
        <ele>14.5</ele>
        <time>2021-09-25T14:22:05Z</time>
      </trkpt>
      <trkpt lat="46.49556" lon="-1.78314">
        <ele>14.5</ele>
        <time>2021-09-25T14:22:06Z</time>
      </trkpt>
      <trkpt lat="46.49557" lon="-1.78314">
        <ele>14.5</ele>
        <time>2021-09-25T14:22:07Z</time>
      </trkpt>
      <trkpt lat="46.49557" lon="-1.78313">
        <ele>14.5</ele>
        <time>2021-09-25T14:22:08Z</time>
      </trkpt>
      <trkpt lat="46.49557" lon="-1.78313">
        <ele>14.5</ele>
        <time>2021-09-25T14:22:09Z</time>
      </trkpt>
      <trkpt lat="46.49558" lon="-1.78313">
        <ele>14.5</ele>
        <time>2021-09-25T14:22:10Z</time>
      </trkpt>
      <trkpt lat="46.49558" lon="-1.78313">
        <ele>14.5</ele>
        <time>2021-09-25T14:22:11Z</time>
      </trkpt>
      <trkpt lat="46.49558" lon="-1.78313">
        <ele>14.5</ele>
        <time>2021-09-25T14:22:12Z</time>
      </trkpt>
      <trkpt lat="46.49559" lon="-1.78312">
        <ele>14.5</ele>
        <time>2021-09-25T14:22:13Z</time>
      </trkpt>
      <trkpt lat="46.49559" lon="-1.78312">
        <ele>14.5</ele>
        <time>2021-09-25T14:22:14Z</time>
      </trkpt>
      <trkpt lat="46.49559" lon="-1.78312">
        <ele>14.5</ele>
        <time>2021-09-25T14:22:15Z</time>
      </trkpt>
      <trkpt lat="46.4956" lon="-1.78312">
        <ele>14.5</ele>
        <time>2021-09-25T14:22:16Z</time>
      </trkpt>
      <trkpt lat="46.4956" lon="-1.78311">
        <ele>14.5</ele>
        <time>2021-09-25T14:22:17Z</time>
      </trkpt>
      <trkpt lat="46.4956" lon="-1.7831">
        <ele>14.5</ele>
        <time>2021-09-25T14:22:18Z</time>
      </trkpt>
      <trkpt lat="46.4956" lon="-1.7831">
        <ele>14.5</ele>
        <time>2021-09-25T14:22:19Z</time>
      </trkpt>
      <trkpt lat="46.4956" lon="-1.7831">
        <ele>14.5</ele>
        <time>2021-09-25T14:22:20Z</time>
      </trkpt>
      <trkpt lat="46.4956" lon="-1.78309">
        <ele>14.5</ele>
        <time>2021-09-25T14:22:21Z</time>
      </trkpt>
      <trkpt lat="46.4956" lon="-1.78309">
        <ele>14.5</ele>
        <time>2021-09-25T14:22:22Z</time>
      </trkpt>
      <trkpt lat="46.4956" lon="-1.78309">
        <ele>14.5</ele>
        <time>2021-09-25T14:22:23Z</time>
      </trkpt>
      <trkpt lat="46.4956" lon="-1.78309">
        <ele>14.5</ele>
        <time>2021-09-25T14:22:24Z</time>
      </trkpt>
      <trkpt lat="46.49561" lon="-1.78309">
        <ele>14.5</ele>
        <time>2021-09-25T14:22:25Z</time>
      </trkpt>
      <trkpt lat="46.49561" lon="-1.78309">
        <ele>14.5</ele>
        <time>2021-09-25T14:22:26Z</time>
      </trkpt>
      <trkpt lat="46.49561" lon="-1.78309">
        <ele>14.5</ele>
        <time>2021-09-25T14:22:27Z</time>
      </trkpt>
      <trkpt lat="46.49561" lon="-1.78309">
        <ele>14.5</ele>
        <time>2021-09-25T14:22:28Z</time>
      </trkpt>
      <trkpt lat="46.49561" lon="-1.78309">
        <ele>14.5</ele>
        <time>2021-09-25T14:22:29Z</time>
      </trkpt>
      <trkpt lat="46.49561" lon="-1.78309">
        <ele>14.5</ele>
        <time>2021-09-25T14:22:30Z</time>
      </trkpt>
      <trkpt lat="46.49561" lon="-1.78309">
        <ele>14.5</ele>
        <time>2021-09-25T14:22:31Z</time>
      </trkpt>
      <trkpt lat="46.49561" lon="-1.78309">
        <ele>14.5</ele>
        <time>2021-09-25T14:22:32Z</time>
      </trkpt>
      <trkpt lat="46.49561" lon="-1.78309">
        <ele>14.5</ele>
        <time>2021-09-25T14:22:33Z</time>
      </trkpt>
      <trkpt lat="46.49561" lon="-1.78309">
        <ele>14.5</ele>
        <time>2021-09-25T14:22:34Z</time>
      </trkpt>
      <trkpt lat="46.49561" lon="-1.78309">
        <ele>14.5</ele>
        <time>2021-09-25T14:22:35Z</time>
      </trkpt>
      <trkpt lat="46.49561" lon="-1.78308">
        <ele>14.5</ele>
        <time>2021-09-25T14:22:36Z</time>
      </trkpt>
      <trkpt lat="46.49561" lon="-1.78307">
        <ele>14.5</ele>
        <time>2021-09-25T14:22:37Z</time>
      </trkpt>
      <trkpt lat="46.49561" lon="-1.78306">
        <ele>14.5</ele>
        <time>2021-09-25T14:22:38Z</time>
      </trkpt>
      <trkpt lat="46.49562" lon="-1.78305">
        <ele>14.5</ele>
        <time>2021-09-25T14:22:39Z</time>
      </trkpt>
      <trkpt lat="46.49562" lon="-1.78304">
        <ele>14.5</ele>
        <time>2021-09-25T14:22:40Z</time>
      </trkpt>
      <trkpt lat="46.49562" lon="-1.78302">
        <ele>14.5</ele>
        <time>2021-09-25T14:22:41Z</time>
      </trkpt>
      <trkpt lat="46.49562" lon="-1.783">
        <ele>14.4</ele>
        <time>2021-09-25T14:22:42Z</time>
      </trkpt>
      <trkpt lat="46.49562" lon="-1.78299">
        <ele>14.4</ele>
        <time>2021-09-25T14:22:43Z</time>
      </trkpt>
      <trkpt lat="46.49562" lon="-1.78297">
        <ele>14.4</ele>
        <time>2021-09-25T14:22:44Z</time>
      </trkpt>
      <trkpt lat="46.49561" lon="-1.78296">
        <ele>14.4</ele>
        <time>2021-09-25T14:22:45Z</time>
      </trkpt>
      <trkpt lat="46.49561" lon="-1.78294">
        <ele>14.4</ele>
        <time>2021-09-25T14:22:46Z</time>
      </trkpt>
      <trkpt lat="46.49561" lon="-1.78293">
        <ele>14.4</ele>
        <time>2021-09-25T14:22:47Z</time>
      </trkpt>
      <trkpt lat="46.4956" lon="-1.78291">
        <ele>14.4</ele>
        <time>2021-09-25T14:22:48Z</time>
      </trkpt>
      <trkpt lat="46.49559" lon="-1.7829">
        <ele>14.3</ele>
        <time>2021-09-25T14:22:49Z</time>
      </trkpt>
      <trkpt lat="46.49559" lon="-1.78289">
        <ele>14.3</ele>
        <time>2021-09-25T14:22:50Z</time>
      </trkpt>
      <trkpt lat="46.49558" lon="-1.78288">
        <ele>14.3</ele>
        <time>2021-09-25T14:22:51Z</time>
      </trkpt>
      <trkpt lat="46.49557" lon="-1.78288">
        <ele>14.2</ele>
        <time>2021-09-25T14:22:52Z</time>
      </trkpt>
      <trkpt lat="46.49556" lon="-1.78287">
        <ele>14.2</ele>
        <time>2021-09-25T14:22:53Z</time>
      </trkpt>
      <trkpt lat="46.49555" lon="-1.78287">
        <ele>14.1</ele>
        <time>2021-09-25T14:22:54Z</time>
      </trkpt>
      <trkpt lat="46.49554" lon="-1.78286">
        <ele>14.1</ele>
        <time>2021-09-25T14:22:55Z</time>
      </trkpt>
      <trkpt lat="46.49553" lon="-1.78286">
        <ele>14</ele>
        <time>2021-09-25T14:22:56Z</time>
      </trkpt>
      <trkpt lat="46.49552" lon="-1.78286">
        <ele>14</ele>
        <time>2021-09-25T14:22:57Z</time>
      </trkpt>
      <trkpt lat="46.49551" lon="-1.78286">
        <ele>13.9</ele>
        <time>2021-09-25T14:22:58Z</time>
      </trkpt>
      <trkpt lat="46.4955" lon="-1.78286">
        <ele>13.9</ele>
        <time>2021-09-25T14:22:59Z</time>
      </trkpt>
      <trkpt lat="46.49549" lon="-1.78286">
        <ele>13.8</ele>
        <time>2021-09-25T14:23:00Z</time>
      </trkpt>
      <trkpt lat="46.49548" lon="-1.78286">
        <ele>13.8</ele>
        <time>2021-09-25T14:23:01Z</time>
      </trkpt>
      <trkpt lat="46.49547" lon="-1.78286">
        <ele>13.7</ele>
        <time>2021-09-25T14:23:02Z</time>
      </trkpt>
      <trkpt lat="46.49546" lon="-1.78286">
        <ele>13.6</ele>
        <time>2021-09-25T14:23:03Z</time>
      </trkpt>
      <trkpt lat="46.49545" lon="-1.78286">
        <ele>13.6</ele>
        <time>2021-09-25T14:23:04Z</time>
      </trkpt>
      <trkpt lat="46.49544" lon="-1.78286">
        <ele>13.5</ele>
        <time>2021-09-25T14:23:05Z</time>
      </trkpt>
      <trkpt lat="46.49543" lon="-1.78286">
        <ele>13.4</ele>
        <time>2021-09-25T14:23:06Z</time>
      </trkpt>
      <trkpt lat="46.49542" lon="-1.78286">
        <ele>13.4</ele>
        <time>2021-09-25T14:23:07Z</time>
      </trkpt>
      <trkpt lat="46.49542" lon="-1.78286">
        <ele>13.3</ele>
        <time>2021-09-25T14:23:08Z</time>
      </trkpt>
      <trkpt lat="46.49541" lon="-1.78286">
        <ele>13.3</ele>
        <time>2021-09-25T14:23:09Z</time>
      </trkpt>
      <trkpt lat="46.4954" lon="-1.78286">
        <ele>13.2</ele>
        <time>2021-09-25T14:23:10Z</time>
      </trkpt>
      <trkpt lat="46.49539" lon="-1.78286">
        <ele>13.1</ele>
        <time>2021-09-25T14:23:11Z</time>
      </trkpt>
      <trkpt lat="46.49539" lon="-1.78286">
        <ele>13.1</ele>
        <time>2021-09-25T14:23:12Z</time>
      </trkpt>
      <trkpt lat="46.49538" lon="-1.78286">
        <ele>13</ele>
        <time>2021-09-25T14:23:13Z</time>
      </trkpt>
      <trkpt lat="46.49537" lon="-1.78286">
        <ele>13</ele>
        <time>2021-09-25T14:23:14Z</time>
      </trkpt>
      <trkpt lat="46.49536" lon="-1.78286">
        <ele>12.9</ele>
        <time>2021-09-25T14:23:15Z</time>
      </trkpt>
      <trkpt lat="46.49535" lon="-1.78286">
        <ele>12.8</ele>
        <time>2021-09-25T14:23:16Z</time>
      </trkpt>
      <trkpt lat="46.49534" lon="-1.78286">
        <ele>12.7</ele>
        <time>2021-09-25T14:23:17Z</time>
      </trkpt>
      <trkpt lat="46.49533" lon="-1.78286">
        <ele>12.6</ele>
        <time>2021-09-25T14:23:18Z</time>
      </trkpt>
      <trkpt lat="46.49531" lon="-1.78286">
        <ele>12.5</ele>
        <time>2021-09-25T14:23:19Z</time>
      </trkpt>
      <trkpt lat="46.4953" lon="-1.78286">
        <ele>12.4</ele>
        <time>2021-09-25T14:23:20Z</time>
      </trkpt>
      <trkpt lat="46.49529" lon="-1.78286">
        <ele>12.3</ele>
        <time>2021-09-25T14:23:21Z</time>
      </trkpt>
      <trkpt lat="46.49528" lon="-1.78286">
        <ele>12.2</ele>
        <time>2021-09-25T14:23:22Z</time>
      </trkpt>
      <trkpt lat="46.49527" lon="-1.78286">
        <ele>12.1</ele>
        <time>2021-09-25T14:23:23Z</time>
      </trkpt>
      <trkpt lat="46.49526" lon="-1.78286">
        <ele>12.1</ele>
        <time>2021-09-25T14:23:24Z</time>
      </trkpt>
      <trkpt lat="46.49525" lon="-1.78286">
        <ele>12</ele>
        <time>2021-09-25T14:23:25Z</time>
      </trkpt>
      <trkpt lat="46.49524" lon="-1.78286">
        <ele>11.9</ele>
        <time>2021-09-25T14:23:26Z</time>
      </trkpt>
      <trkpt lat="46.49523" lon="-1.78286">
        <ele>11.8</ele>
        <time>2021-09-25T14:23:27Z</time>
      </trkpt>
      <trkpt lat="46.49522" lon="-1.78285">
        <ele>11.7</ele>
        <time>2021-09-25T14:23:28Z</time>
      </trkpt>
      <trkpt lat="46.49521" lon="-1.78285">
        <ele>11.6</ele>
        <time>2021-09-25T14:23:29Z</time>
      </trkpt>
      <trkpt lat="46.4952" lon="-1.78285">
        <ele>11.5</ele>
        <time>2021-09-25T14:23:30Z</time>
      </trkpt>
      <trkpt lat="46.49519" lon="-1.78284">
        <ele>11.4</ele>
        <time>2021-09-25T14:23:31Z</time>
      </trkpt>
      <trkpt lat="46.49518" lon="-1.78284">
        <ele>11.3</ele>
        <time>2021-09-25T14:23:32Z</time>
      </trkpt>
      <trkpt lat="46.49517" lon="-1.78284">
        <ele>11.2</ele>
        <time>2021-09-25T14:23:33Z</time>
      </trkpt>
      <trkpt lat="46.49516" lon="-1.78283">
        <ele>11.1</ele>
        <time>2021-09-25T14:23:34Z</time>
      </trkpt>
      <trkpt lat="46.49515" lon="-1.78283">
        <ele>11.1</ele>
        <time>2021-09-25T14:23:35Z</time>
      </trkpt>
      <trkpt lat="46.49514" lon="-1.78283">
        <ele>11</ele>
        <time>2021-09-25T14:23:36Z</time>
      </trkpt>
      <trkpt lat="46.49513" lon="-1.78282">
        <ele>10.9</ele>
        <time>2021-09-25T14:23:37Z</time>
      </trkpt>
      <trkpt lat="46.49512" lon="-1.78282">
        <ele>10.8</ele>
        <time>2021-09-25T14:23:38Z</time>
      </trkpt>
      <trkpt lat="46.49511" lon="-1.78282">
        <ele>10.8</ele>
        <time>2021-09-25T14:23:39Z</time>
      </trkpt>
      <trkpt lat="46.4951" lon="-1.78281">
        <ele>10.7</ele>
        <time>2021-09-25T14:23:40Z</time>
      </trkpt>
      <trkpt lat="46.49509" lon="-1.78281">
        <ele>10.6</ele>
        <time>2021-09-25T14:23:41Z</time>
      </trkpt>
      <trkpt lat="46.49508" lon="-1.78281">
        <ele>10.5</ele>
        <time>2021-09-25T14:23:42Z</time>
      </trkpt>
      <trkpt lat="46.49507" lon="-1.78281">
        <ele>10.5</ele>
        <time>2021-09-25T14:23:43Z</time>
      </trkpt>
      <trkpt lat="46.49506" lon="-1.7828">
        <ele>10.4</ele>
        <time>2021-09-25T14:23:44Z</time>
      </trkpt>
      <trkpt lat="46.49505" lon="-1.7828">
        <ele>10.3</ele>
        <time>2021-09-25T14:23:45Z</time>
      </trkpt>
      <trkpt lat="46.49505" lon="-1.7828">
        <ele>10.3</ele>
        <time>2021-09-25T14:23:46Z</time>
      </trkpt>
      <trkpt lat="46.49504" lon="-1.7828">
        <ele>10.2</ele>
        <time>2021-09-25T14:23:47Z</time>
      </trkpt>
      <trkpt lat="46.49503" lon="-1.7828">
        <ele>10.1</ele>
        <time>2021-09-25T14:23:48Z</time>
      </trkpt>
      <trkpt lat="46.49502" lon="-1.78279">
        <ele>10.1</ele>
        <time>2021-09-25T14:23:49Z</time>
      </trkpt>
      <trkpt lat="46.49501" lon="-1.78279">
        <ele>10</ele>
        <time>2021-09-25T14:23:50Z</time>
      </trkpt>
      <trkpt lat="46.495" lon="-1.78279">
        <ele>10</ele>
        <time>2021-09-25T14:23:51Z</time>
      </trkpt>
      <trkpt lat="46.49499" lon="-1.78279">
        <ele>9.9</ele>
        <time>2021-09-25T14:23:52Z</time>
      </trkpt>
      <trkpt lat="46.49498" lon="-1.78279">
        <ele>9.9</ele>
        <time>2021-09-25T14:23:53Z</time>
      </trkpt>
      <trkpt lat="46.49498" lon="-1.78279">
        <ele>9.8</ele>
        <time>2021-09-25T14:23:54Z</time>
      </trkpt>
      <trkpt lat="46.49497" lon="-1.78279">
        <ele>9.8</ele>
        <time>2021-09-25T14:23:55Z</time>
      </trkpt>
      <trkpt lat="46.49496" lon="-1.78279">
        <ele>9.7</ele>
        <time>2021-09-25T14:23:56Z</time>
      </trkpt>
      <trkpt lat="46.49495" lon="-1.78279">
        <ele>9.7</ele>
        <time>2021-09-25T14:23:57Z</time>
      </trkpt>
      <trkpt lat="46.49495" lon="-1.78278">
        <ele>9.6</ele>
        <time>2021-09-25T14:23:58Z</time>
      </trkpt>
      <trkpt lat="46.49494" lon="-1.78278">
        <ele>9.6</ele>
        <time>2021-09-25T14:23:59Z</time>
      </trkpt>
      <trkpt lat="46.49493" lon="-1.78278">
        <ele>9.5</ele>
        <time>2021-09-25T14:24:00Z</time>
      </trkpt>
      <trkpt lat="46.49492" lon="-1.78278">
        <ele>9.5</ele>
        <time>2021-09-25T14:24:01Z</time>
      </trkpt>
      <trkpt lat="46.49492" lon="-1.78278">
        <ele>9.4</ele>
        <time>2021-09-25T14:24:02Z</time>
      </trkpt>
      <trkpt lat="46.49491" lon="-1.78278">
        <ele>9.4</ele>
        <time>2021-09-25T14:24:03Z</time>
      </trkpt>
      <trkpt lat="46.49491" lon="-1.78278">
        <ele>9.4</ele>
        <time>2021-09-25T14:24:04Z</time>
      </trkpt>
      <trkpt lat="46.4949" lon="-1.78278">
        <ele>9.3</ele>
        <time>2021-09-25T14:24:05Z</time>
      </trkpt>
      <trkpt lat="46.49489" lon="-1.78278">
        <ele>9.3</ele>
        <time>2021-09-25T14:24:06Z</time>
      </trkpt>
      <trkpt lat="46.49489" lon="-1.78277">
        <ele>9.2</ele>
        <time>2021-09-25T14:24:07Z</time>
      </trkpt>
      <trkpt lat="46.49488" lon="-1.78277">
        <ele>9.2</ele>
        <time>2021-09-25T14:24:08Z</time>
      </trkpt>
      <trkpt lat="46.49488" lon="-1.78277">
        <ele>9.1</ele>
        <time>2021-09-25T14:24:09Z</time>
      </trkpt>
      <trkpt lat="46.49487" lon="-1.78277">
        <ele>9.1</ele>
        <time>2021-09-25T14:24:10Z</time>
      </trkpt>
      <trkpt lat="46.49486" lon="-1.78277">
        <ele>9.1</ele>
        <time>2021-09-25T14:24:11Z</time>
      </trkpt>
      <trkpt lat="46.49486" lon="-1.78277">
        <ele>9</ele>
        <time>2021-09-25T14:24:12Z</time>
      </trkpt>
      <trkpt lat="46.49485" lon="-1.78276">
        <ele>9</ele>
        <time>2021-09-25T14:24:13Z</time>
      </trkpt>
      <trkpt lat="46.49484" lon="-1.78276">
        <ele>8.9</ele>
        <time>2021-09-25T14:24:14Z</time>
      </trkpt>
      <trkpt lat="46.49483" lon="-1.78276">
        <ele>8.8</ele>
        <time>2021-09-25T14:24:15Z</time>
      </trkpt>
      <trkpt lat="46.49483" lon="-1.78276">
        <ele>8.8</ele>
        <time>2021-09-25T14:24:16Z</time>
      </trkpt>
      <trkpt lat="46.49482" lon="-1.78276">
        <ele>8.7</ele>
        <time>2021-09-25T14:24:17Z</time>
      </trkpt>
      <trkpt lat="46.49481" lon="-1.78275">
        <ele>8.6</ele>
        <time>2021-09-25T14:24:18Z</time>
      </trkpt>
      <trkpt lat="46.4948" lon="-1.78275">
        <ele>8.6</ele>
        <time>2021-09-25T14:24:19Z</time>
      </trkpt>
      <trkpt lat="46.49479" lon="-1.78275">
        <ele>8.5</ele>
        <time>2021-09-25T14:24:20Z</time>
      </trkpt>
      <trkpt lat="46.49478" lon="-1.78275">
        <ele>8.4</ele>
        <time>2021-09-25T14:24:21Z</time>
      </trkpt>
      <trkpt lat="46.49476" lon="-1.78275">
        <ele>8.3</ele>
        <time>2021-09-25T14:24:22Z</time>
      </trkpt>
      <trkpt lat="46.49475" lon="-1.78275">
        <ele>8.2</ele>
        <time>2021-09-25T14:24:23Z</time>
      </trkpt>
      <trkpt lat="46.49474" lon="-1.78275">
        <ele>8.2</ele>
        <time>2021-09-25T14:24:24Z</time>
      </trkpt>
      <trkpt lat="46.49473" lon="-1.78274">
        <ele>8.1</ele>
        <time>2021-09-25T14:24:25Z</time>
      </trkpt>
      <trkpt lat="46.49472" lon="-1.78274">
        <ele>8</ele>
        <time>2021-09-25T14:24:26Z</time>
      </trkpt>
      <trkpt lat="46.49471" lon="-1.78274">
        <ele>7.9</ele>
        <time>2021-09-25T14:24:27Z</time>
      </trkpt>
      <trkpt lat="46.4947" lon="-1.78274">
        <ele>7.9</ele>
        <time>2021-09-25T14:24:28Z</time>
      </trkpt>
      <trkpt lat="46.4947" lon="-1.78274">
        <ele>7.8</ele>
        <time>2021-09-25T14:24:29Z</time>
      </trkpt>
      <trkpt lat="46.49469" lon="-1.78275">
        <ele>7.8</ele>
        <time>2021-09-25T14:24:30Z</time>
      </trkpt>
      <trkpt lat="46.49468" lon="-1.78275">
        <ele>7.7</ele>
        <time>2021-09-25T14:24:31Z</time>
      </trkpt>
      <trkpt lat="46.49468" lon="-1.78275">
        <ele>7.7</ele>
        <time>2021-09-25T14:24:32Z</time>
      </trkpt>
      <trkpt lat="46.49468" lon="-1.78275">
        <ele>7.6</ele>
        <time>2021-09-25T14:24:33Z</time>
      </trkpt>
      <trkpt lat="46.49467" lon="-1.78275">
        <ele>7.6</ele>
        <time>2021-09-25T14:24:34Z</time>
      </trkpt>
      <trkpt lat="46.49467" lon="-1.78275">
        <ele>7.6</ele>
        <time>2021-09-25T14:24:35Z</time>
      </trkpt>
      <trkpt lat="46.49467" lon="-1.78275">
        <ele>7.5</ele>
        <time>2021-09-25T14:24:36Z</time>
      </trkpt>
      <trkpt lat="46.49466" lon="-1.78275">
        <ele>7.5</ele>
        <time>2021-09-25T14:24:37Z</time>
      </trkpt>
      <trkpt lat="46.49466" lon="-1.78275">
        <ele>7.5</ele>
        <time>2021-09-25T14:24:38Z</time>
      </trkpt>
      <trkpt lat="46.49466" lon="-1.78275">
        <ele>7.5</ele>
        <time>2021-09-25T14:24:39Z</time>
      </trkpt>
      <trkpt lat="46.49465" lon="-1.78274">
        <ele>7.4</ele>
        <time>2021-09-25T14:24:40Z</time>
      </trkpt>
      <trkpt lat="46.49465" lon="-1.78274">
        <ele>7.1</ele>
        <time>2021-09-25T14:24:41Z</time>
      </trkpt>
      <trkpt lat="46.49465" lon="-1.78273">
        <ele>7.1</ele>
        <time>2021-09-25T14:24:42Z</time>
      </trkpt>
      <trkpt lat="46.49464" lon="-1.78272">
        <ele>7.1</ele>
        <time>2021-09-25T14:24:43Z</time>
      </trkpt>
      <trkpt lat="46.49464" lon="-1.78271">
        <ele>7.1</ele>
        <time>2021-09-25T14:24:44Z</time>
      </trkpt>
      <trkpt lat="46.49464" lon="-1.78269">
        <ele>7.1</ele>
        <time>2021-09-25T14:24:45Z</time>
      </trkpt>
      <trkpt lat="46.49464" lon="-1.78268">
        <ele>7.2</ele>
        <time>2021-09-25T14:24:46Z</time>
      </trkpt>
      <trkpt lat="46.49464" lon="-1.78267">
        <ele>7.2</ele>
        <time>2021-09-25T14:24:47Z</time>
      </trkpt>
      <trkpt lat="46.49464" lon="-1.78266">
        <ele>7.2</ele>
        <time>2021-09-25T14:24:48Z</time>
      </trkpt>
      <trkpt lat="46.49464" lon="-1.78265">
        <ele>7.2</ele>
        <time>2021-09-25T14:24:49Z</time>
      </trkpt>
      <trkpt lat="46.49463" lon="-1.78265">
        <ele>7.2</ele>
        <time>2021-09-25T14:24:50Z</time>
      </trkpt>
      <trkpt lat="46.49463" lon="-1.78264">
        <ele>7.2</ele>
        <time>2021-09-25T14:24:51Z</time>
      </trkpt>
      <trkpt lat="46.49463" lon="-1.78264">
        <ele>7.2</ele>
        <time>2021-09-25T14:24:52Z</time>
      </trkpt>
      <trkpt lat="46.49463" lon="-1.78263">
        <ele>7.2</ele>
        <time>2021-09-25T14:24:53Z</time>
      </trkpt>
      <trkpt lat="46.49463" lon="-1.78263">
        <ele>7.2</ele>
        <time>2021-09-25T14:24:54Z</time>
      </trkpt>
      <trkpt lat="46.49463" lon="-1.78263">
        <ele>7.2</ele>
        <time>2021-09-25T14:24:55Z</time>
      </trkpt>
      <trkpt lat="46.49463" lon="-1.78262">
        <ele>7.2</ele>
        <time>2021-09-25T14:24:56Z</time>
      </trkpt>
      <trkpt lat="46.49462" lon="-1.78262">
        <ele>7.2</ele>
        <time>2021-09-25T14:24:57Z</time>
      </trkpt>
      <trkpt lat="46.49462" lon="-1.78262">
        <ele>7.2</ele>
        <time>2021-09-25T14:24:58Z</time>
      </trkpt>
      <trkpt lat="46.49462" lon="-1.78261">
        <ele>7.2</ele>
        <time>2021-09-25T14:24:59Z</time>
      </trkpt>
      <trkpt lat="46.49462" lon="-1.78261">
        <ele>7.2</ele>
        <time>2021-09-25T14:25:00Z</time>
      </trkpt>
      <trkpt lat="46.49462" lon="-1.78261">
        <ele>7.2</ele>
        <time>2021-09-25T14:25:01Z</time>
      </trkpt>
      <trkpt lat="46.49462" lon="-1.7826">
        <ele>7.2</ele>
        <time>2021-09-25T14:25:02Z</time>
      </trkpt>
      <trkpt lat="46.49462" lon="-1.7826">
        <ele>7.2</ele>
        <time>2021-09-25T14:25:03Z</time>
      </trkpt>
      <trkpt lat="46.49462" lon="-1.7826">
        <ele>7.2</ele>
        <time>2021-09-25T14:25:04Z</time>
      </trkpt>
      <trkpt lat="46.49461" lon="-1.78259">
        <ele>7.2</ele>
        <time>2021-09-25T14:25:05Z</time>
      </trkpt>
      <trkpt lat="46.49461" lon="-1.78259">
        <ele>7.2</ele>
        <time>2021-09-25T14:25:06Z</time>
      </trkpt>
      <trkpt lat="46.49461" lon="-1.78259">
        <ele>7.2</ele>
        <time>2021-09-25T14:25:07Z</time>
      </trkpt>
      <trkpt lat="46.49461" lon="-1.78258">
        <ele>7.2</ele>
        <time>2021-09-25T14:25:08Z</time>
      </trkpt>
      <trkpt lat="46.49461" lon="-1.78258">
        <ele>7.2</ele>
        <time>2021-09-25T14:25:09Z</time>
      </trkpt>
      <trkpt lat="46.49461" lon="-1.78258">
        <ele>7.2</ele>
        <time>2021-09-25T14:25:10Z</time>
      </trkpt>
      <trkpt lat="46.49461" lon="-1.78257">
        <ele>7.2</ele>
        <time>2021-09-25T14:25:11Z</time>
      </trkpt>
      <trkpt lat="46.49461" lon="-1.78257">
        <ele>7.2</ele>
        <time>2021-09-25T14:25:12Z</time>
      </trkpt>
      <trkpt lat="46.4946" lon="-1.78257">
        <ele>7.2</ele>
        <time>2021-09-25T14:25:13Z</time>
      </trkpt>
      <trkpt lat="46.4946" lon="-1.78256">
        <ele>7.2</ele>
        <time>2021-09-25T14:25:14Z</time>
      </trkpt>
      <trkpt lat="46.4946" lon="-1.78256">
        <ele>7.2</ele>
        <time>2021-09-25T14:25:15Z</time>
      </trkpt>
      <trkpt lat="46.4946" lon="-1.78256">
        <ele>7.2</ele>
        <time>2021-09-25T14:25:16Z</time>
      </trkpt>
      <trkpt lat="46.4946" lon="-1.78255">
        <ele>7.2</ele>
        <time>2021-09-25T14:25:17Z</time>
      </trkpt>
      <trkpt lat="46.4946" lon="-1.78255">
        <ele>7.2</ele>
        <time>2021-09-25T14:25:18Z</time>
      </trkpt>
      <trkpt lat="46.4946" lon="-1.78255">
        <ele>7.2</ele>
        <time>2021-09-25T14:25:19Z</time>
      </trkpt>
      <trkpt lat="46.4946" lon="-1.78254">
        <ele>7.2</ele>
        <time>2021-09-25T14:25:20Z</time>
      </trkpt>
      <trkpt lat="46.49459" lon="-1.78254">
        <ele>7.2</ele>
        <time>2021-09-25T14:25:21Z</time>
      </trkpt>
      <trkpt lat="46.49459" lon="-1.78254">
        <ele>7.2</ele>
        <time>2021-09-25T14:25:22Z</time>
      </trkpt>
      <trkpt lat="46.49459" lon="-1.78253">
        <ele>7.2</ele>
        <time>2021-09-25T14:25:23Z</time>
      </trkpt>
      <trkpt lat="46.49459" lon="-1.78253">
        <ele>7.2</ele>
        <time>2021-09-25T14:25:24Z</time>
      </trkpt>
      <trkpt lat="46.49459" lon="-1.78253">
        <ele>7.2</ele>
        <time>2021-09-25T14:25:25Z</time>
      </trkpt>
      <trkpt lat="46.49459" lon="-1.78252">
        <ele>7.2</ele>
        <time>2021-09-25T14:25:26Z</time>
      </trkpt>
      <trkpt lat="46.49459" lon="-1.78252">
        <ele>7.2</ele>
        <time>2021-09-25T14:25:27Z</time>
      </trkpt>
      <trkpt lat="46.49459" lon="-1.78252">
        <ele>7.2</ele>
        <time>2021-09-25T14:25:28Z</time>
      </trkpt>
      <trkpt lat="46.49458" lon="-1.78251">
        <ele>7.2</ele>
        <time>2021-09-25T14:25:29Z</time>
      </trkpt>
      <trkpt lat="46.49458" lon="-1.78251">
        <ele>7.2</ele>
        <time>2021-09-25T14:25:30Z</time>
      </trkpt>
      <trkpt lat="46.49458" lon="-1.78251">
        <ele>7.2</ele>
        <time>2021-09-25T14:25:31Z</time>
      </trkpt>
      <trkpt lat="46.49458" lon="-1.7825">
        <ele>7.2</ele>
        <time>2021-09-25T14:25:32Z</time>
      </trkpt>
      <trkpt lat="46.49458" lon="-1.7825">
        <ele>7.2</ele>
        <time>2021-09-25T14:25:33Z</time>
      </trkpt>
      <trkpt lat="46.49458" lon="-1.7825">
        <ele>7.2</ele>
        <time>2021-09-25T14:25:34Z</time>
      </trkpt>
      <trkpt lat="46.49458" lon="-1.78249">
        <ele>7.2</ele>
        <time>2021-09-25T14:25:35Z</time>
      </trkpt>
      <trkpt lat="46.49458" lon="-1.78249">
        <ele>7.2</ele>
        <time>2021-09-25T14:25:36Z</time>
      </trkpt>
      <trkpt lat="46.49457" lon="-1.78249">
        <ele>7.2</ele>
        <time>2021-09-25T14:25:37Z</time>
      </trkpt>
      <trkpt lat="46.49457" lon="-1.78248">
        <ele>7.2</ele>
        <time>2021-09-25T14:25:38Z</time>
      </trkpt>
      <trkpt lat="46.49457" lon="-1.78248">
        <ele>7.2</ele>
        <time>2021-09-25T14:25:39Z</time>
      </trkpt>
      <trkpt lat="46.49457" lon="-1.78248">
        <ele>7.2</ele>
        <time>2021-09-25T14:25:40Z</time>
      </trkpt>
      <trkpt lat="46.49457" lon="-1.78247">
        <ele>7.2</ele>
        <time>2021-09-25T14:25:41Z</time>
      </trkpt>
      <trkpt lat="46.49457" lon="-1.78247">
        <ele>7.2</ele>
        <time>2021-09-25T14:25:42Z</time>
      </trkpt>
      <trkpt lat="46.49457" lon="-1.78247">
        <ele>7.2</ele>
        <time>2021-09-25T14:25:43Z</time>
      </trkpt>
      <trkpt lat="46.49457" lon="-1.78246">
        <ele>7.2</ele>
        <time>2021-09-25T14:25:44Z</time>
      </trkpt>
      <trkpt lat="46.49456" lon="-1.78246">
        <ele>7.2</ele>
        <time>2021-09-25T14:25:45Z</time>
      </trkpt>
      <trkpt lat="46.49456" lon="-1.78246">
        <ele>7.2</ele>
        <time>2021-09-25T14:25:46Z</time>
      </trkpt>
      <trkpt lat="46.49456" lon="-1.78245">
        <ele>7.2</ele>
        <time>2021-09-25T14:25:47Z</time>
      </trkpt>
      <trkpt lat="46.49456" lon="-1.78245">
        <ele>7.2</ele>
        <time>2021-09-25T14:25:48Z</time>
      </trkpt>
      <trkpt lat="46.49456" lon="-1.78245">
        <ele>7.2</ele>
        <time>2021-09-25T14:25:49Z</time>
      </trkpt>
      <trkpt lat="46.49456" lon="-1.78244">
        <ele>7.2</ele>
        <time>2021-09-25T14:25:50Z</time>
      </trkpt>
      <trkpt lat="46.49456" lon="-1.78244">
        <ele>7.2</ele>
        <time>2021-09-25T14:25:51Z</time>
      </trkpt>
      <trkpt lat="46.49456" lon="-1.78244">
        <ele>7.2</ele>
        <time>2021-09-25T14:25:52Z</time>
      </trkpt>
      <trkpt lat="46.49455" lon="-1.78243">
        <ele>7.2</ele>
        <time>2021-09-25T14:25:53Z</time>
      </trkpt>
      <trkpt lat="46.49455" lon="-1.78243">
        <ele>7.2</ele>
        <time>2021-09-25T14:25:54Z</time>
      </trkpt>
      <trkpt lat="46.49455" lon="-1.78243">
        <ele>7.2</ele>
        <time>2021-09-25T14:25:55Z</time>
      </trkpt>
      <trkpt lat="46.49455" lon="-1.78242">
        <ele>7.2</ele>
        <time>2021-09-25T14:25:56Z</time>
      </trkpt>
      <trkpt lat="46.49455" lon="-1.78242">
        <ele>7.2</ele>
        <time>2021-09-25T14:25:57Z</time>
      </trkpt>
      <trkpt lat="46.49455" lon="-1.78242">
        <ele>7.2</ele>
        <time>2021-09-25T14:25:58Z</time>
      </trkpt>
      <trkpt lat="46.49454" lon="-1.78241">
        <ele>7.2</ele>
        <time>2021-09-25T14:25:59Z</time>
      </trkpt>
      <trkpt lat="46.49453" lon="-1.78241">
        <ele>7.2</ele>
        <time>2021-09-25T14:26:00Z</time>
      </trkpt>
      <trkpt lat="46.49451" lon="-1.78241">
        <ele>7.2</ele>
        <time>2021-09-25T14:26:01Z</time>
      </trkpt>
      <trkpt lat="46.49451" lon="-1.7824">
        <ele>7.2</ele>
        <time>2021-09-25T14:26:02Z</time>
      </trkpt>
      <trkpt lat="46.4945" lon="-1.7824">
        <ele>7.2</ele>
        <time>2021-09-25T14:26:03Z</time>
      </trkpt>
      <trkpt lat="46.49449" lon="-1.7824">
        <ele>7.2</ele>
        <time>2021-09-25T14:26:04Z</time>
      </trkpt>
      <trkpt lat="46.49448" lon="-1.7824">
        <ele>7.2</ele>
        <time>2021-09-25T14:26:05Z</time>
      </trkpt>
      <trkpt lat="46.49448" lon="-1.7824">
        <ele>7.2</ele>
        <time>2021-09-25T14:26:06Z</time>
      </trkpt>
      <trkpt lat="46.49448" lon="-1.78239">
        <ele>7.2</ele>
        <time>2021-09-25T14:26:07Z</time>
      </trkpt>
      <trkpt lat="46.49447" lon="-1.78239">
        <ele>7.2</ele>
        <time>2021-09-25T14:26:08Z</time>
      </trkpt>
      <trkpt lat="46.49447" lon="-1.78239">
        <ele>7.2</ele>
        <time>2021-09-25T14:26:09Z</time>
      </trkpt>
      <trkpt lat="46.49447" lon="-1.78239">
        <ele>7.2</ele>
        <time>2021-09-25T14:26:10Z</time>
      </trkpt>
      <trkpt lat="46.49447" lon="-1.78239">
        <ele>7.2</ele>
        <time>2021-09-25T14:26:11Z</time>
      </trkpt>
      <trkpt lat="46.49447" lon="-1.78239">
        <ele>7.2</ele>
        <time>2021-09-25T14:26:12Z</time>
      </trkpt>
      <trkpt lat="46.49446" lon="-1.78239">
        <ele>7.2</ele>
        <time>2021-09-25T14:26:13Z</time>
      </trkpt>
      <trkpt lat="46.49446" lon="-1.78239">
        <ele>7.2</ele>
        <time>2021-09-25T14:26:14Z</time>
      </trkpt>
      <trkpt lat="46.49446" lon="-1.78239">
        <ele>7.2</ele>
        <time>2021-09-25T14:26:15Z</time>
      </trkpt>
      <trkpt lat="46.49446" lon="-1.78239">
        <ele>7.2</ele>
        <time>2021-09-25T14:26:16Z</time>
      </trkpt>
      <trkpt lat="46.49446" lon="-1.78239">
        <ele>7.2</ele>
        <time>2021-09-25T14:26:17Z</time>
      </trkpt>
      <trkpt lat="46.49446" lon="-1.78239">
        <ele>7.2</ele>
        <time>2021-09-25T14:26:18Z</time>
      </trkpt>
      <trkpt lat="46.49446" lon="-1.78239">
        <ele>7.2</ele>
        <time>2021-09-25T14:26:19Z</time>
      </trkpt>
      <trkpt lat="46.49446" lon="-1.78239">
        <ele>7.2</ele>
        <time>2021-09-25T14:26:20Z</time>
      </trkpt>
      <trkpt lat="46.49446" lon="-1.78239">
        <ele>7.2</ele>
        <time>2021-09-25T14:26:21Z</time>
      </trkpt>
      <trkpt lat="46.49446" lon="-1.78239">
        <ele>7.2</ele>
        <time>2021-09-25T14:26:22Z</time>
      </trkpt>
      <trkpt lat="46.49446" lon="-1.78239">
        <ele>7.2</ele>
        <time>2021-09-25T14:26:23Z</time>
      </trkpt>
      <trkpt lat="46.49446" lon="-1.78239">
        <ele>7.2</ele>
        <time>2021-09-25T14:26:24Z</time>
      </trkpt>
      <trkpt lat="46.49447" lon="-1.78239">
        <ele>7.2</ele>
        <time>2021-09-25T14:26:25Z</time>
      </trkpt>
      <trkpt lat="46.49447" lon="-1.78239">
        <ele>7.2</ele>
        <time>2021-09-25T14:26:26Z</time>
      </trkpt>
      <trkpt lat="46.49447" lon="-1.78239">
        <ele>7.2</ele>
        <time>2021-09-25T14:26:27Z</time>
      </trkpt>
      <trkpt lat="46.49447" lon="-1.78239">
        <ele>7.2</ele>
        <time>2021-09-25T14:26:28Z</time>
      </trkpt>
      <trkpt lat="46.49446" lon="-1.78239">
        <ele>7.2</ele>
        <time>2021-09-25T14:26:29Z</time>
      </trkpt>
      <trkpt lat="46.49446" lon="-1.78239">
        <ele>7.2</ele>
        <time>2021-09-25T14:26:30Z</time>
      </trkpt>
      <trkpt lat="46.49446" lon="-1.78239">
        <ele>7.2</ele>
        <time>2021-09-25T14:26:31Z</time>
      </trkpt>
      <trkpt lat="46.49446" lon="-1.78238">
        <ele>7.2</ele>
        <time>2021-09-25T14:26:32Z</time>
      </trkpt>
      <trkpt lat="46.49446" lon="-1.78238">
        <ele>7.2</ele>
        <time>2021-09-25T14:26:33Z</time>
      </trkpt>
      <trkpt lat="46.49446" lon="-1.78238">
        <ele>7.2</ele>
        <time>2021-09-25T14:26:34Z</time>
      </trkpt>
      <trkpt lat="46.49446" lon="-1.78237">
        <ele>7.2</ele>
        <time>2021-09-25T14:26:35Z</time>
      </trkpt>
      <trkpt lat="46.49446" lon="-1.78236">
        <ele>7.2</ele>
        <time>2021-09-25T14:26:36Z</time>
      </trkpt>
      <trkpt lat="46.49446" lon="-1.78236">
        <ele>7.2</ele>
        <time>2021-09-25T14:26:37Z</time>
      </trkpt>
      <trkpt lat="46.49445" lon="-1.78234">
        <ele>7.2</ele>
        <time>2021-09-25T14:26:38Z</time>
      </trkpt>
      <trkpt lat="46.49445" lon="-1.78233">
        <ele>7.2</ele>
        <time>2021-09-25T14:26:39Z</time>
      </trkpt>
      <trkpt lat="46.49445" lon="-1.78232">
        <ele>7.2</ele>
        <time>2021-09-25T14:26:40Z</time>
      </trkpt>
      <trkpt lat="46.49445" lon="-1.7823">
        <ele>7.2</ele>
        <time>2021-09-25T14:26:41Z</time>
      </trkpt>
      <trkpt lat="46.49445" lon="-1.78228">
        <ele>7.2</ele>
        <time>2021-09-25T14:26:42Z</time>
      </trkpt>
      <trkpt lat="46.49444" lon="-1.78227">
        <ele>7.2</ele>
        <time>2021-09-25T14:26:43Z</time>
      </trkpt>
      <trkpt lat="46.49444" lon="-1.78225">
        <ele>7.2</ele>
        <time>2021-09-25T14:26:44Z</time>
      </trkpt>
      <trkpt lat="46.49444" lon="-1.78224">
        <ele>7.2</ele>
        <time>2021-09-25T14:26:45Z</time>
      </trkpt>
      <trkpt lat="46.49444" lon="-1.78222">
        <ele>7.2</ele>
        <time>2021-09-25T14:26:46Z</time>
      </trkpt>
      <trkpt lat="46.49443" lon="-1.78221">
        <ele>7.2</ele>
        <time>2021-09-25T14:26:47Z</time>
      </trkpt>
      <trkpt lat="46.49443" lon="-1.7822">
        <ele>7.2</ele>
        <time>2021-09-25T14:26:48Z</time>
      </trkpt>
      <trkpt lat="46.49443" lon="-1.7822">
        <ele>7.2</ele>
        <time>2021-09-25T14:26:49Z</time>
      </trkpt>
      <trkpt lat="46.49442" lon="-1.78219">
        <ele>7.2</ele>
        <time>2021-09-25T14:26:50Z</time>
      </trkpt>
      <trkpt lat="46.49442" lon="-1.78219">
        <ele>7.2</ele>
        <time>2021-09-25T14:26:51Z</time>
      </trkpt>
      <trkpt lat="46.49441" lon="-1.78218">
        <ele>7.2</ele>
        <time>2021-09-25T14:26:52Z</time>
      </trkpt>
      <trkpt lat="46.49441" lon="-1.78218">
        <ele>7.2</ele>
        <time>2021-09-25T14:26:53Z</time>
      </trkpt>
      <trkpt lat="46.49441" lon="-1.78217">
        <ele>7.2</ele>
        <time>2021-09-25T14:26:54Z</time>
      </trkpt>
      <trkpt lat="46.4944" lon="-1.78216">
        <ele>7.2</ele>
        <time>2021-09-25T14:26:55Z</time>
      </trkpt>
      <trkpt lat="46.4944" lon="-1.78214">
        <ele>7.2</ele>
        <time>2021-09-25T14:26:56Z</time>
      </trkpt>
      <trkpt lat="46.4944" lon="-1.78213">
        <ele>7.2</ele>
        <time>2021-09-25T14:26:57Z</time>
      </trkpt>
      <trkpt lat="46.49439" lon="-1.78212">
        <ele>7.2</ele>
        <time>2021-09-25T14:26:58Z</time>
      </trkpt>
      <trkpt lat="46.49439" lon="-1.78211">
        <ele>7.2</ele>
        <time>2021-09-25T14:26:59Z</time>
      </trkpt>
      <trkpt lat="46.49439" lon="-1.7821">
        <ele>7.2</ele>
        <time>2021-09-25T14:27:00Z</time>
      </trkpt>
      <trkpt lat="46.49439" lon="-1.78208">
        <ele>7.2</ele>
        <time>2021-09-25T14:27:01Z</time>
      </trkpt>
      <trkpt lat="46.49439" lon="-1.78207">
        <ele>7.3</ele>
        <time>2021-09-25T14:27:02Z</time>
      </trkpt>
      <trkpt lat="46.49439" lon="-1.78206">
        <ele>7.3</ele>
        <time>2021-09-25T14:27:03Z</time>
      </trkpt>
      <trkpt lat="46.49439" lon="-1.78205">
        <ele>7.3</ele>
        <time>2021-09-25T14:27:04Z</time>
      </trkpt>
      <trkpt lat="46.49438" lon="-1.78203">
        <ele>7.3</ele>
        <time>2021-09-25T14:27:05Z</time>
      </trkpt>
      <trkpt lat="46.49438" lon="-1.78202">
        <ele>7.3</ele>
        <time>2021-09-25T14:27:06Z</time>
      </trkpt>
      <trkpt lat="46.49438" lon="-1.78201">
        <ele>7.3</ele>
        <time>2021-09-25T14:27:07Z</time>
      </trkpt>
      <trkpt lat="46.49438" lon="-1.782">
        <ele>7.3</ele>
        <time>2021-09-25T14:27:08Z</time>
      </trkpt>
      <trkpt lat="46.49438" lon="-1.78199">
        <ele>7.3</ele>
        <time>2021-09-25T14:27:09Z</time>
      </trkpt>
      <trkpt lat="46.49437" lon="-1.78198">
        <ele>7.3</ele>
        <time>2021-09-25T14:27:10Z</time>
      </trkpt>
      <trkpt lat="46.49437" lon="-1.78196">
        <ele>7.3</ele>
        <time>2021-09-25T14:27:11Z</time>
      </trkpt>
      <trkpt lat="46.49437" lon="-1.78195">
        <ele>7.3</ele>
        <time>2021-09-25T14:27:12Z</time>
      </trkpt>
      <trkpt lat="46.49436" lon="-1.78194">
        <ele>7.3</ele>
        <time>2021-09-25T14:27:13Z</time>
      </trkpt>
      <trkpt lat="46.49436" lon="-1.78193">
        <ele>7.3</ele>
        <time>2021-09-25T14:27:14Z</time>
      </trkpt>
      <trkpt lat="46.49436" lon="-1.78192">
        <ele>7.3</ele>
        <time>2021-09-25T14:27:15Z</time>
      </trkpt>
      <trkpt lat="46.49435" lon="-1.7819">
        <ele>7.3</ele>
        <time>2021-09-25T14:27:16Z</time>
      </trkpt>
      <trkpt lat="46.49435" lon="-1.78189">
        <ele>7.3</ele>
        <time>2021-09-25T14:27:17Z</time>
      </trkpt>
      <trkpt lat="46.49435" lon="-1.78188">
        <ele>7.3</ele>
        <time>2021-09-25T14:27:18Z</time>
      </trkpt>
      <trkpt lat="46.49434" lon="-1.78187">
        <ele>7.3</ele>
        <time>2021-09-25T14:27:19Z</time>
      </trkpt>
      <trkpt lat="46.49434" lon="-1.78185">
        <ele>7.3</ele>
        <time>2021-09-25T14:27:20Z</time>
      </trkpt>
      <trkpt lat="46.49434" lon="-1.78184">
        <ele>7.3</ele>
        <time>2021-09-25T14:27:21Z</time>
      </trkpt>
      <trkpt lat="46.49434" lon="-1.78182">
        <ele>7.3</ele>
        <time>2021-09-25T14:27:22Z</time>
      </trkpt>
      <trkpt lat="46.49434" lon="-1.78181">
        <ele>7.3</ele>
        <time>2021-09-25T14:27:23Z</time>
      </trkpt>
      <trkpt lat="46.49433" lon="-1.78179">
        <ele>7.3</ele>
        <time>2021-09-25T14:27:24Z</time>
      </trkpt>
      <trkpt lat="46.49433" lon="-1.78178">
        <ele>7.3</ele>
        <time>2021-09-25T14:27:25Z</time>
      </trkpt>
      <trkpt lat="46.49433" lon="-1.78176">
        <ele>7.3</ele>
        <time>2021-09-25T14:27:26Z</time>
      </trkpt>
      <trkpt lat="46.49433" lon="-1.78174">
        <ele>7.3</ele>
        <time>2021-09-25T14:27:27Z</time>
      </trkpt>
      <trkpt lat="46.49433" lon="-1.78173">
        <ele>7.3</ele>
        <time>2021-09-25T14:27:28Z</time>
      </trkpt>
      <trkpt lat="46.49433" lon="-1.78171">
        <ele>7.3</ele>
        <time>2021-09-25T14:27:29Z</time>
      </trkpt>
      <trkpt lat="46.49433" lon="-1.78169">
        <ele>7.3</ele>
        <time>2021-09-25T14:27:30Z</time>
      </trkpt>
      <trkpt lat="46.49433" lon="-1.78168">
        <ele>7.3</ele>
        <time>2021-09-25T14:27:31Z</time>
      </trkpt>
      <trkpt lat="46.49433" lon="-1.78166">
        <ele>7.3</ele>
        <time>2021-09-25T14:27:32Z</time>
      </trkpt>
      <trkpt lat="46.49433" lon="-1.78164">
        <ele>7.3</ele>
        <time>2021-09-25T14:27:33Z</time>
      </trkpt>
      <trkpt lat="46.49433" lon="-1.78163">
        <ele>7.3</ele>
        <time>2021-09-25T14:27:34Z</time>
      </trkpt>
      <trkpt lat="46.49433" lon="-1.78161">
        <ele>7.3</ele>
        <time>2021-09-25T14:27:35Z</time>
      </trkpt>
      <trkpt lat="46.49433" lon="-1.78159">
        <ele>7.3</ele>
        <time>2021-09-25T14:27:36Z</time>
      </trkpt>
      <trkpt lat="46.49433" lon="-1.78158">
        <ele>7.3</ele>
        <time>2021-09-25T14:27:37Z</time>
      </trkpt>
      <trkpt lat="46.49433" lon="-1.78156">
        <ele>7.3</ele>
        <time>2021-09-25T14:27:38Z</time>
      </trkpt>
      <trkpt lat="46.49433" lon="-1.78155">
        <ele>7.3</ele>
        <time>2021-09-25T14:27:39Z</time>
      </trkpt>
      <trkpt lat="46.49432" lon="-1.78153">
        <ele>7.3</ele>
        <time>2021-09-25T14:27:40Z</time>
      </trkpt>
      <trkpt lat="46.49432" lon="-1.78152">
        <ele>7.3</ele>
        <time>2021-09-25T14:27:41Z</time>
      </trkpt>
      <trkpt lat="46.49432" lon="-1.7815">
        <ele>7.3</ele>
        <time>2021-09-25T14:27:42Z</time>
      </trkpt>
      <trkpt lat="46.49432" lon="-1.78149">
        <ele>7.3</ele>
        <time>2021-09-25T14:27:43Z</time>
      </trkpt>
      <trkpt lat="46.49432" lon="-1.78147">
        <ele>7.3</ele>
        <time>2021-09-25T14:27:44Z</time>
      </trkpt>
      <trkpt lat="46.49432" lon="-1.78146">
        <ele>7.3</ele>
        <time>2021-09-25T14:27:45Z</time>
      </trkpt>
      <trkpt lat="46.49432" lon="-1.78144">
        <ele>7.3</ele>
        <time>2021-09-25T14:27:46Z</time>
      </trkpt>
      <trkpt lat="46.49432" lon="-1.78143">
        <ele>7.3</ele>
        <time>2021-09-25T14:27:47Z</time>
      </trkpt>
      <trkpt lat="46.49431" lon="-1.78142">
        <ele>7.3</ele>
        <time>2021-09-25T14:27:48Z</time>
      </trkpt>
      <trkpt lat="46.49431" lon="-1.7814">
        <ele>7.3</ele>
        <time>2021-09-25T14:27:49Z</time>
      </trkpt>
      <trkpt lat="46.49431" lon="-1.78139">
        <ele>7.3</ele>
        <time>2021-09-25T14:27:50Z</time>
      </trkpt>
      <trkpt lat="46.49431" lon="-1.78138">
        <ele>7.3</ele>
        <time>2021-09-25T14:27:51Z</time>
      </trkpt>
      <trkpt lat="46.49431" lon="-1.78136">
        <ele>7.3</ele>
        <time>2021-09-25T14:27:52Z</time>
      </trkpt>
      <trkpt lat="46.49431" lon="-1.78135">
        <ele>7.3</ele>
        <time>2021-09-25T14:27:53Z</time>
      </trkpt>
      <trkpt lat="46.49431" lon="-1.78134">
        <ele>7.3</ele>
        <time>2021-09-25T14:27:54Z</time>
      </trkpt>
      <trkpt lat="46.49431" lon="-1.78133">
        <ele>7.3</ele>
        <time>2021-09-25T14:27:55Z</time>
      </trkpt>
      <trkpt lat="46.49431" lon="-1.78132">
        <ele>7.3</ele>
        <time>2021-09-25T14:27:56Z</time>
      </trkpt>
      <trkpt lat="46.49431" lon="-1.78131">
        <ele>7.3</ele>
        <time>2021-09-25T14:27:57Z</time>
      </trkpt>
      <trkpt lat="46.4943" lon="-1.7813">
        <ele>7.3</ele>
        <time>2021-09-25T14:27:58Z</time>
      </trkpt>
      <trkpt lat="46.4943" lon="-1.78128">
        <ele>7.3</ele>
        <time>2021-09-25T14:27:59Z</time>
      </trkpt>
      <trkpt lat="46.4943" lon="-1.78127">
        <ele>7.3</ele>
        <time>2021-09-25T14:28:00Z</time>
      </trkpt>
      <trkpt lat="46.4943" lon="-1.78126">
        <ele>7.3</ele>
        <time>2021-09-25T14:28:01Z</time>
      </trkpt>
      <trkpt lat="46.4943" lon="-1.78125">
        <ele>7.3</ele>
        <time>2021-09-25T14:28:02Z</time>
      </trkpt>
      <trkpt lat="46.4943" lon="-1.78123">
        <ele>7.3</ele>
        <time>2021-09-25T14:28:03Z</time>
      </trkpt>
      <trkpt lat="46.49429" lon="-1.78122">
        <ele>7.3</ele>
        <time>2021-09-25T14:28:04Z</time>
      </trkpt>
      <trkpt lat="46.49429" lon="-1.7812">
        <ele>7.3</ele>
        <time>2021-09-25T14:28:05Z</time>
      </trkpt>
      <trkpt lat="46.49429" lon="-1.78119">
        <ele>7.3</ele>
        <time>2021-09-25T14:28:06Z</time>
      </trkpt>
      <trkpt lat="46.49429" lon="-1.78117">
        <ele>7.3</ele>
        <time>2021-09-25T14:28:07Z</time>
      </trkpt>
      <trkpt lat="46.49429" lon="-1.78115">
        <ele>7.3</ele>
        <time>2021-09-25T14:28:08Z</time>
      </trkpt>
      <trkpt lat="46.49428" lon="-1.78114">
        <ele>7.3</ele>
        <time>2021-09-25T14:28:09Z</time>
      </trkpt>
      <trkpt lat="46.49428" lon="-1.78112">
        <ele>7.3</ele>
        <time>2021-09-25T14:28:10Z</time>
      </trkpt>
      <trkpt lat="46.49428" lon="-1.7811">
        <ele>7.3</ele>
        <time>2021-09-25T14:28:11Z</time>
      </trkpt>
      <trkpt lat="46.49427" lon="-1.78108">
        <ele>7.3</ele>
        <time>2021-09-25T14:28:12Z</time>
      </trkpt>
      <trkpt lat="46.49427" lon="-1.78107">
        <ele>7.3</ele>
        <time>2021-09-25T14:28:13Z</time>
      </trkpt>
      <trkpt lat="46.49427" lon="-1.78105">
        <ele>7.3</ele>
        <time>2021-09-25T14:28:14Z</time>
      </trkpt>
      <trkpt lat="46.49426" lon="-1.78104">
        <ele>7.3</ele>
        <time>2021-09-25T14:28:15Z</time>
      </trkpt>
      <trkpt lat="46.49426" lon="-1.78102">
        <ele>7.3</ele>
        <time>2021-09-25T14:28:16Z</time>
      </trkpt>
      <trkpt lat="46.49425" lon="-1.781">
        <ele>7.3</ele>
        <time>2021-09-25T14:28:17Z</time>
      </trkpt>
      <trkpt lat="46.49425" lon="-1.78099">
        <ele>7.3</ele>
        <time>2021-09-25T14:28:18Z</time>
      </trkpt>
      <trkpt lat="46.49424" lon="-1.78097">
        <ele>7.3</ele>
        <time>2021-09-25T14:28:19Z</time>
      </trkpt>
      <trkpt lat="46.49424" lon="-1.78096">
        <ele>7.3</ele>
        <time>2021-09-25T14:28:20Z</time>
      </trkpt>
      <trkpt lat="46.49423" lon="-1.78094">
        <ele>7.3</ele>
        <time>2021-09-25T14:28:21Z</time>
      </trkpt>
      <trkpt lat="46.49423" lon="-1.78093">
        <ele>7.3</ele>
        <time>2021-09-25T14:28:22Z</time>
      </trkpt>
      <trkpt lat="46.49422" lon="-1.78092">
        <ele>7.3</ele>
        <time>2021-09-25T14:28:23Z</time>
      </trkpt>
      <trkpt lat="46.49422" lon="-1.7809">
        <ele>7.3</ele>
        <time>2021-09-25T14:28:24Z</time>
      </trkpt>
      <trkpt lat="46.49422" lon="-1.78089">
        <ele>7.3</ele>
        <time>2021-09-25T14:28:25Z</time>
      </trkpt>
      <trkpt lat="46.49421" lon="-1.78087">
        <ele>7.3</ele>
        <time>2021-09-25T14:28:26Z</time>
      </trkpt>
      <trkpt lat="46.49421" lon="-1.78086">
        <ele>7.3</ele>
        <time>2021-09-25T14:28:27Z</time>
      </trkpt>
      <trkpt lat="46.4942" lon="-1.78085">
        <ele>7.3</ele>
        <time>2021-09-25T14:28:28Z</time>
      </trkpt>
      <trkpt lat="46.4942" lon="-1.78084">
        <ele>7.3</ele>
        <time>2021-09-25T14:28:29Z</time>
      </trkpt>
      <trkpt lat="46.49419" lon="-1.78082">
        <ele>7.3</ele>
        <time>2021-09-25T14:28:30Z</time>
      </trkpt>
      <trkpt lat="46.49419" lon="-1.78081">
        <ele>7.3</ele>
        <time>2021-09-25T14:28:31Z</time>
      </trkpt>
      <trkpt lat="46.49418" lon="-1.7808">
        <ele>7.3</ele>
        <time>2021-09-25T14:28:32Z</time>
      </trkpt>
      <trkpt lat="46.49418" lon="-1.78079">
        <ele>7.3</ele>
        <time>2021-09-25T14:28:33Z</time>
      </trkpt>
      <trkpt lat="46.49417" lon="-1.78078">
        <ele>7.3</ele>
        <time>2021-09-25T14:28:34Z</time>
      </trkpt>
      <trkpt lat="46.49417" lon="-1.78076">
        <ele>7.3</ele>
        <time>2021-09-25T14:28:35Z</time>
      </trkpt>
      <trkpt lat="46.49416" lon="-1.78075">
        <ele>7.3</ele>
        <time>2021-09-25T14:28:36Z</time>
      </trkpt>
      <trkpt lat="46.49416" lon="-1.78074">
        <ele>7.3</ele>
        <time>2021-09-25T14:28:37Z</time>
      </trkpt>
      <trkpt lat="46.49416" lon="-1.78073">
        <ele>7.3</ele>
        <time>2021-09-25T14:28:38Z</time>
      </trkpt>
      <trkpt lat="46.49415" lon="-1.78072">
        <ele>7.3</ele>
        <time>2021-09-25T14:28:39Z</time>
      </trkpt>
      <trkpt lat="46.49415" lon="-1.78071">
        <ele>7.3</ele>
        <time>2021-09-25T14:28:40Z</time>
      </trkpt>
      <trkpt lat="46.49414" lon="-1.7807">
        <ele>7.3</ele>
        <time>2021-09-25T14:28:41Z</time>
      </trkpt>
      <trkpt lat="46.49414" lon="-1.78069">
        <ele>7.3</ele>
        <time>2021-09-25T14:28:42Z</time>
      </trkpt>
      <trkpt lat="46.49413" lon="-1.78067">
        <ele>7.3</ele>
        <time>2021-09-25T14:28:43Z</time>
      </trkpt>
      <trkpt lat="46.49413" lon="-1.78066">
        <ele>7.3</ele>
        <time>2021-09-25T14:28:44Z</time>
      </trkpt>
      <trkpt lat="46.49412" lon="-1.78065">
        <ele>7.3</ele>
        <time>2021-09-25T14:28:45Z</time>
      </trkpt>
      <trkpt lat="46.49412" lon="-1.78064">
        <ele>7.3</ele>
        <time>2021-09-25T14:28:46Z</time>
      </trkpt>
      <trkpt lat="46.49411" lon="-1.78062">
        <ele>7.3</ele>
        <time>2021-09-25T14:28:47Z</time>
      </trkpt>
      <trkpt lat="46.4941" lon="-1.78061">
        <ele>7.3</ele>
        <time>2021-09-25T14:28:48Z</time>
      </trkpt>
      <trkpt lat="46.4941" lon="-1.7806">
        <ele>7.3</ele>
        <time>2021-09-25T14:28:49Z</time>
      </trkpt>
      <trkpt lat="46.49409" lon="-1.78058">
        <ele>7.3</ele>
        <time>2021-09-25T14:28:50Z</time>
      </trkpt>
      <trkpt lat="46.49409" lon="-1.78057">
        <ele>7.3</ele>
        <time>2021-09-25T14:28:51Z</time>
      </trkpt>
      <trkpt lat="46.49408" lon="-1.78055">
        <ele>7.3</ele>
        <time>2021-09-25T14:28:52Z</time>
      </trkpt>
      <trkpt lat="46.49408" lon="-1.78053">
        <ele>7.3</ele>
        <time>2021-09-25T14:28:53Z</time>
      </trkpt>
      <trkpt lat="46.49408" lon="-1.78052">
        <ele>7.3</ele>
        <time>2021-09-25T14:28:54Z</time>
      </trkpt>
      <trkpt lat="46.49407" lon="-1.7805">
        <ele>7.3</ele>
        <time>2021-09-25T14:28:55Z</time>
      </trkpt>
      <trkpt lat="46.49407" lon="-1.78048">
        <ele>7.3</ele>
        <time>2021-09-25T14:28:56Z</time>
      </trkpt>
      <trkpt lat="46.49406" lon="-1.78046">
        <ele>7.3</ele>
        <time>2021-09-25T14:28:57Z</time>
      </trkpt>
      <trkpt lat="46.49406" lon="-1.78045">
        <ele>7.3</ele>
        <time>2021-09-25T14:28:58Z</time>
      </trkpt>
      <trkpt lat="46.49405" lon="-1.78043">
        <ele>7.3</ele>
        <time>2021-09-25T14:28:59Z</time>
      </trkpt>
      <trkpt lat="46.49405" lon="-1.78042">
        <ele>7.3</ele>
        <time>2021-09-25T14:29:00Z</time>
      </trkpt>
      <trkpt lat="46.49404" lon="-1.78041">
        <ele>7.3</ele>
        <time>2021-09-25T14:29:01Z</time>
      </trkpt>
      <trkpt lat="46.49403" lon="-1.78039">
        <ele>7.3</ele>
        <time>2021-09-25T14:29:02Z</time>
      </trkpt>
      <trkpt lat="46.49403" lon="-1.78038">
        <ele>7.3</ele>
        <time>2021-09-25T14:29:03Z</time>
      </trkpt>
      <trkpt lat="46.49402" lon="-1.78037">
        <ele>7.3</ele>
        <time>2021-09-25T14:29:04Z</time>
      </trkpt>
      <trkpt lat="46.49402" lon="-1.78036">
        <ele>7.3</ele>
        <time>2021-09-25T14:29:05Z</time>
      </trkpt>
      <trkpt lat="46.49401" lon="-1.78034">
        <ele>7.2</ele>
        <time>2021-09-25T14:29:06Z</time>
      </trkpt>
      <trkpt lat="46.49401" lon="-1.78033">
        <ele>7.2</ele>
        <time>2021-09-25T14:29:07Z</time>
      </trkpt>
      <trkpt lat="46.494" lon="-1.78032">
        <ele>7.2</ele>
        <time>2021-09-25T14:29:08Z</time>
      </trkpt>
      <trkpt lat="46.494" lon="-1.78031">
        <ele>7.2</ele>
        <time>2021-09-25T14:29:09Z</time>
      </trkpt>
      <trkpt lat="46.49399" lon="-1.78029">
        <ele>7.2</ele>
        <time>2021-09-25T14:29:10Z</time>
      </trkpt>
      <trkpt lat="46.49399" lon="-1.78028">
        <ele>7.2</ele>
        <time>2021-09-25T14:29:11Z</time>
      </trkpt>
      <trkpt lat="46.49398" lon="-1.78027">
        <ele>7.2</ele>
        <time>2021-09-25T14:29:12Z</time>
      </trkpt>
      <trkpt lat="46.49397" lon="-1.78026">
        <ele>7.2</ele>
        <time>2021-09-25T14:29:13Z</time>
      </trkpt>
      <trkpt lat="46.49396" lon="-1.78025">
        <ele>7.2</ele>
        <time>2021-09-25T14:29:14Z</time>
      </trkpt>
      <trkpt lat="46.49396" lon="-1.78023">
        <ele>7.2</ele>
        <time>2021-09-25T14:29:15Z</time>
      </trkpt>
      <trkpt lat="46.49395" lon="-1.78022">
        <ele>7.2</ele>
        <time>2021-09-25T14:29:16Z</time>
      </trkpt>
      <trkpt lat="46.49395" lon="-1.78021">
        <ele>7.2</ele>
        <time>2021-09-25T14:29:17Z</time>
      </trkpt>
      <trkpt lat="46.49394" lon="-1.78019">
        <ele>7.2</ele>
        <time>2021-09-25T14:29:18Z</time>
      </trkpt>
      <trkpt lat="46.49394" lon="-1.78018">
        <ele>7.2</ele>
        <time>2021-09-25T14:29:19Z</time>
      </trkpt>
      <trkpt lat="46.49393" lon="-1.78017">
        <ele>7.2</ele>
        <time>2021-09-25T14:29:20Z</time>
      </trkpt>
      <trkpt lat="46.49393" lon="-1.78015">
        <ele>7.2</ele>
        <time>2021-09-25T14:29:21Z</time>
      </trkpt>
      <trkpt lat="46.49393" lon="-1.78014">
        <ele>7.2</ele>
        <time>2021-09-25T14:29:22Z</time>
      </trkpt>
      <trkpt lat="46.49392" lon="-1.78013">
        <ele>7.2</ele>
        <time>2021-09-25T14:29:23Z</time>
      </trkpt>
      <trkpt lat="46.49392" lon="-1.78011">
        <ele>7.2</ele>
        <time>2021-09-25T14:29:24Z</time>
      </trkpt>
      <trkpt lat="46.49392" lon="-1.7801">
        <ele>7.2</ele>
        <time>2021-09-25T14:29:25Z</time>
      </trkpt>
      <trkpt lat="46.49392" lon="-1.78009">
        <ele>7.2</ele>
        <time>2021-09-25T14:29:26Z</time>
      </trkpt>
      <trkpt lat="46.49391" lon="-1.78007">
        <ele>7.2</ele>
        <time>2021-09-25T14:29:27Z</time>
      </trkpt>
      <trkpt lat="46.49391" lon="-1.78006">
        <ele>7.2</ele>
        <time>2021-09-25T14:29:28Z</time>
      </trkpt>
      <trkpt lat="46.4939" lon="-1.78005">
        <ele>7.2</ele>
        <time>2021-09-25T14:29:29Z</time>
      </trkpt>
      <trkpt lat="46.4939" lon="-1.78004">
        <ele>7.2</ele>
        <time>2021-09-25T14:29:30Z</time>
      </trkpt>
      <trkpt lat="46.49389" lon="-1.78003">
        <ele>7.2</ele>
        <time>2021-09-25T14:29:31Z</time>
      </trkpt>
      <trkpt lat="46.49389" lon="-1.78002">
        <ele>7.2</ele>
        <time>2021-09-25T14:29:32Z</time>
      </trkpt>
      <trkpt lat="46.49388" lon="-1.78">
        <ele>7.2</ele>
        <time>2021-09-25T14:29:33Z</time>
      </trkpt>
      <trkpt lat="46.49388" lon="-1.77999">
        <ele>7.2</ele>
        <time>2021-09-25T14:29:34Z</time>
      </trkpt>
      <trkpt lat="46.49387" lon="-1.77998">
        <ele>7.2</ele>
        <time>2021-09-25T14:29:35Z</time>
      </trkpt>
      <trkpt lat="46.49387" lon="-1.77997">
        <ele>7.2</ele>
        <time>2021-09-25T14:29:36Z</time>
      </trkpt>
      <trkpt lat="46.49386" lon="-1.77996">
        <ele>7.2</ele>
        <time>2021-09-25T14:29:37Z</time>
      </trkpt>
      <trkpt lat="46.49386" lon="-1.77995">
        <ele>7.2</ele>
        <time>2021-09-25T14:29:38Z</time>
      </trkpt>
      <trkpt lat="46.49385" lon="-1.77994">
        <ele>7.2</ele>
        <time>2021-09-25T14:29:39Z</time>
      </trkpt>
      <trkpt lat="46.49385" lon="-1.77993">
        <ele>7.2</ele>
        <time>2021-09-25T14:29:40Z</time>
      </trkpt>
      <trkpt lat="46.49384" lon="-1.77992">
        <ele>7.2</ele>
        <time>2021-09-25T14:29:41Z</time>
      </trkpt>
      <trkpt lat="46.49384" lon="-1.77991">
        <ele>7.2</ele>
        <time>2021-09-25T14:29:42Z</time>
      </trkpt>
      <trkpt lat="46.49384" lon="-1.77989">
        <ele>7.2</ele>
        <time>2021-09-25T14:29:43Z</time>
      </trkpt>
      <trkpt lat="46.49383" lon="-1.77988">
        <ele>7.2</ele>
        <time>2021-09-25T14:29:44Z</time>
      </trkpt>
      <trkpt lat="46.49383" lon="-1.77987">
        <ele>7.2</ele>
        <time>2021-09-25T14:29:45Z</time>
      </trkpt>
      <trkpt lat="46.49382" lon="-1.77985">
        <ele>7.2</ele>
        <time>2021-09-25T14:29:46Z</time>
      </trkpt>
      <trkpt lat="46.49382" lon="-1.77984">
        <ele>7.2</ele>
        <time>2021-09-25T14:29:47Z</time>
      </trkpt>
      <trkpt lat="46.49382" lon="-1.77982">
        <ele>7.2</ele>
        <time>2021-09-25T14:29:48Z</time>
      </trkpt>
      <trkpt lat="46.49381" lon="-1.7798">
        <ele>7.2</ele>
        <time>2021-09-25T14:29:49Z</time>
      </trkpt>
      <trkpt lat="46.49381" lon="-1.77979">
        <ele>7.2</ele>
        <time>2021-09-25T14:29:50Z</time>
      </trkpt>
      <trkpt lat="46.49381" lon="-1.77977">
        <ele>7.2</ele>
        <time>2021-09-25T14:29:51Z</time>
      </trkpt>
      <trkpt lat="46.4938" lon="-1.77976">
        <ele>7.3</ele>
        <time>2021-09-25T14:29:52Z</time>
      </trkpt>
      <trkpt lat="46.4938" lon="-1.77974">
        <ele>7.3</ele>
        <time>2021-09-25T14:29:53Z</time>
      </trkpt>
      <trkpt lat="46.4938" lon="-1.77973">
        <ele>7.3</ele>
        <time>2021-09-25T14:29:54Z</time>
      </trkpt>
      <trkpt lat="46.49379" lon="-1.77972">
        <ele>7.3</ele>
        <time>2021-09-25T14:29:55Z</time>
      </trkpt>
      <trkpt lat="46.49379" lon="-1.7797">
        <ele>7.3</ele>
        <time>2021-09-25T14:29:56Z</time>
      </trkpt>
      <trkpt lat="46.49379" lon="-1.77969">
        <ele>7.3</ele>
        <time>2021-09-25T14:29:57Z</time>
      </trkpt>
      <trkpt lat="46.49378" lon="-1.77968">
        <ele>7.3</ele>
        <time>2021-09-25T14:29:58Z</time>
      </trkpt>
      <trkpt lat="46.49378" lon="-1.77967">
        <ele>7.3</ele>
        <time>2021-09-25T14:29:59Z</time>
      </trkpt>
      <trkpt lat="46.49377" lon="-1.77966">
        <ele>7.3</ele>
        <time>2021-09-25T14:30:00Z</time>
      </trkpt>
      <trkpt lat="46.49377" lon="-1.77965">
        <ele>7.3</ele>
        <time>2021-09-25T14:30:01Z</time>
      </trkpt>
      <trkpt lat="46.49376" lon="-1.77963">
        <ele>7.3</ele>
        <time>2021-09-25T14:30:02Z</time>
      </trkpt>
      <trkpt lat="46.49376" lon="-1.77962">
        <ele>7.3</ele>
        <time>2021-09-25T14:30:03Z</time>
      </trkpt>
      <trkpt lat="46.49375" lon="-1.77961">
        <ele>7.3</ele>
        <time>2021-09-25T14:30:04Z</time>
      </trkpt>
      <trkpt lat="46.49375" lon="-1.7796">
        <ele>7.3</ele>
        <time>2021-09-25T14:30:05Z</time>
      </trkpt>
      <trkpt lat="46.49374" lon="-1.77958">
        <ele>7.3</ele>
        <time>2021-09-25T14:30:06Z</time>
      </trkpt>
      <trkpt lat="46.49374" lon="-1.77957">
        <ele>7.3</ele>
        <time>2021-09-25T14:30:07Z</time>
      </trkpt>
      <trkpt lat="46.49373" lon="-1.77956">
        <ele>7.3</ele>
        <time>2021-09-25T14:30:08Z</time>
      </trkpt>
      <trkpt lat="46.49373" lon="-1.77954">
        <ele>7.3</ele>
        <time>2021-09-25T14:30:09Z</time>
      </trkpt>
      <trkpt lat="46.49372" lon="-1.77953">
        <ele>7.3</ele>
        <time>2021-09-25T14:30:10Z</time>
      </trkpt>
      <trkpt lat="46.49372" lon="-1.77951">
        <ele>7.3</ele>
        <time>2021-09-25T14:30:11Z</time>
      </trkpt>
      <trkpt lat="46.49371" lon="-1.7795">
        <ele>7.3</ele>
        <time>2021-09-25T14:30:12Z</time>
      </trkpt>
      <trkpt lat="46.49371" lon="-1.77949">
        <ele>7.3</ele>
        <time>2021-09-25T14:30:13Z</time>
      </trkpt>
      <trkpt lat="46.4937" lon="-1.77947">
        <ele>7.3</ele>
        <time>2021-09-25T14:30:14Z</time>
      </trkpt>
      <trkpt lat="46.4937" lon="-1.77946">
        <ele>7.3</ele>
        <time>2021-09-25T14:30:15Z</time>
      </trkpt>
      <trkpt lat="46.4937" lon="-1.77945">
        <ele>7.3</ele>
        <time>2021-09-25T14:30:16Z</time>
      </trkpt>
      <trkpt lat="46.49369" lon="-1.77943">
        <ele>7.3</ele>
        <time>2021-09-25T14:30:17Z</time>
      </trkpt>
      <trkpt lat="46.49369" lon="-1.77942">
        <ele>7.3</ele>
        <time>2021-09-25T14:30:18Z</time>
      </trkpt>
      <trkpt lat="46.49369" lon="-1.77941">
        <ele>7.3</ele>
        <time>2021-09-25T14:30:19Z</time>
      </trkpt>
      <trkpt lat="46.49369" lon="-1.7794">
        <ele>7.3</ele>
        <time>2021-09-25T14:30:20Z</time>
      </trkpt>
      <trkpt lat="46.49368" lon="-1.77939">
        <ele>7.3</ele>
        <time>2021-09-25T14:30:21Z</time>
      </trkpt>
      <trkpt lat="46.49368" lon="-1.77938">
        <ele>7.3</ele>
        <time>2021-09-25T14:30:22Z</time>
      </trkpt>
      <trkpt lat="46.49369" lon="-1.77937">
        <ele>7.3</ele>
        <time>2021-09-25T14:30:23Z</time>
      </trkpt>
      <trkpt lat="46.49369" lon="-1.77936">
        <ele>7.3</ele>
        <time>2021-09-25T14:30:24Z</time>
      </trkpt>
      <trkpt lat="46.49369" lon="-1.77935">
        <ele>7.3</ele>
        <time>2021-09-25T14:30:25Z</time>
      </trkpt>
      <trkpt lat="46.49369" lon="-1.77934">
        <ele>7.3</ele>
        <time>2021-09-25T14:30:26Z</time>
      </trkpt>
      <trkpt lat="46.49369" lon="-1.77934">
        <ele>7.3</ele>
        <time>2021-09-25T14:30:27Z</time>
      </trkpt>
      <trkpt lat="46.49369" lon="-1.77933">
        <ele>7.2</ele>
        <time>2021-09-25T14:30:28Z</time>
      </trkpt>
      <trkpt lat="46.49369" lon="-1.77933">
        <ele>7.2</ele>
        <time>2021-09-25T14:30:29Z</time>
      </trkpt>
      <trkpt lat="46.49369" lon="-1.77933">
        <ele>7.2</ele>
        <time>2021-09-25T14:30:30Z</time>
      </trkpt>
      <trkpt lat="46.49368" lon="-1.77933">
        <ele>7.2</ele>
        <time>2021-09-25T14:30:31Z</time>
      </trkpt>
      <trkpt lat="46.49368" lon="-1.77932">
        <ele>7.2</ele>
        <time>2021-09-25T14:30:32Z</time>
      </trkpt>
      <trkpt lat="46.49368" lon="-1.77932">
        <ele>7.2</ele>
        <time>2021-09-25T14:30:33Z</time>
      </trkpt>
      <trkpt lat="46.49368" lon="-1.77931">
        <ele>7.2</ele>
        <time>2021-09-25T14:30:34Z</time>
      </trkpt>
      <trkpt lat="46.49368" lon="-1.7793">
        <ele>7.2</ele>
        <time>2021-09-25T14:30:35Z</time>
      </trkpt>
      <trkpt lat="46.49368" lon="-1.77929">
        <ele>7.2</ele>
        <time>2021-09-25T14:30:36Z</time>
      </trkpt>
      <trkpt lat="46.49367" lon="-1.77928">
        <ele>7.2</ele>
        <time>2021-09-25T14:30:37Z</time>
      </trkpt>
      <trkpt lat="46.49367" lon="-1.77926">
        <ele>7.2</ele>
        <time>2021-09-25T14:30:38Z</time>
      </trkpt>
      <trkpt lat="46.49367" lon="-1.77925">
        <ele>7.2</ele>
        <time>2021-09-25T14:30:39Z</time>
      </trkpt>
      <trkpt lat="46.49366" lon="-1.77924">
        <ele>7.2</ele>
        <time>2021-09-25T14:30:40Z</time>
      </trkpt>
      <trkpt lat="46.49366" lon="-1.77922">
        <ele>7.2</ele>
        <time>2021-09-25T14:30:41Z</time>
      </trkpt>
      <trkpt lat="46.49365" lon="-1.77921">
        <ele>7.2</ele>
        <time>2021-09-25T14:30:42Z</time>
      </trkpt>
      <trkpt lat="46.49365" lon="-1.7792">
        <ele>7.2</ele>
        <time>2021-09-25T14:30:43Z</time>
      </trkpt>
      <trkpt lat="46.49364" lon="-1.77919">
        <ele>7.2</ele>
        <time>2021-09-25T14:30:44Z</time>
      </trkpt>
      <trkpt lat="46.49363" lon="-1.77918">
        <ele>7.2</ele>
        <time>2021-09-25T14:30:45Z</time>
      </trkpt>
      <trkpt lat="46.49362" lon="-1.77916">
        <ele>7.2</ele>
        <time>2021-09-25T14:30:46Z</time>
      </trkpt>
      <trkpt lat="46.49362" lon="-1.77915">
        <ele>7.2</ele>
        <time>2021-09-25T14:30:47Z</time>
      </trkpt>
      <trkpt lat="46.49361" lon="-1.77914">
        <ele>7.2</ele>
        <time>2021-09-25T14:30:48Z</time>
      </trkpt>
      <trkpt lat="46.4936" lon="-1.77912">
        <ele>7.2</ele>
        <time>2021-09-25T14:30:49Z</time>
      </trkpt>
      <trkpt lat="46.49359" lon="-1.77911">
        <ele>7.2</ele>
        <time>2021-09-25T14:30:50Z</time>
      </trkpt>
      <trkpt lat="46.49358" lon="-1.7791">
        <ele>7.2</ele>
        <time>2021-09-25T14:30:51Z</time>
      </trkpt>
      <trkpt lat="46.49358" lon="-1.77908">
        <ele>7.2</ele>
        <time>2021-09-25T14:30:52Z</time>
      </trkpt>
      <trkpt lat="46.49357" lon="-1.77907">
        <ele>7.2</ele>
        <time>2021-09-25T14:30:53Z</time>
      </trkpt>
      <trkpt lat="46.49356" lon="-1.77905">
        <ele>7.2</ele>
        <time>2021-09-25T14:30:54Z</time>
      </trkpt>
      <trkpt lat="46.49356" lon="-1.77904">
        <ele>7.1</ele>
        <time>2021-09-25T14:30:55Z</time>
      </trkpt>
      <trkpt lat="46.49355" lon="-1.77902">
        <ele>7.1</ele>
        <time>2021-09-25T14:30:56Z</time>
      </trkpt>
      <trkpt lat="46.49354" lon="-1.779">
        <ele>7.1</ele>
        <time>2021-09-25T14:30:57Z</time>
      </trkpt>
      <trkpt lat="46.49354" lon="-1.77899">
        <ele>7.1</ele>
        <time>2021-09-25T14:30:58Z</time>
      </trkpt>
      <trkpt lat="46.49353" lon="-1.77898">
        <ele>7.1</ele>
        <time>2021-09-25T14:30:59Z</time>
      </trkpt>
      <trkpt lat="46.49353" lon="-1.77896">
        <ele>7.1</ele>
        <time>2021-09-25T14:31:00Z</time>
      </trkpt>
      <trkpt lat="46.49352" lon="-1.77895">
        <ele>7.1</ele>
        <time>2021-09-25T14:31:01Z</time>
      </trkpt>
      <trkpt lat="46.49352" lon="-1.77894">
        <ele>7.1</ele>
        <time>2021-09-25T14:31:02Z</time>
      </trkpt>
      <trkpt lat="46.49351" lon="-1.77893">
        <ele>7.1</ele>
        <time>2021-09-25T14:31:03Z</time>
      </trkpt>
      <trkpt lat="46.49351" lon="-1.77891">
        <ele>7.1</ele>
        <time>2021-09-25T14:31:04Z</time>
      </trkpt>
      <trkpt lat="46.4935" lon="-1.7789">
        <ele>7.1</ele>
        <time>2021-09-25T14:31:05Z</time>
      </trkpt>
      <trkpt lat="46.4935" lon="-1.77889">
        <ele>7.1</ele>
        <time>2021-09-25T14:31:06Z</time>
      </trkpt>
      <trkpt lat="46.4935" lon="-1.77888">
        <ele>7.1</ele>
        <time>2021-09-25T14:31:07Z</time>
      </trkpt>
      <trkpt lat="46.49349" lon="-1.77887">
        <ele>7.1</ele>
        <time>2021-09-25T14:31:08Z</time>
      </trkpt>
      <trkpt lat="46.49349" lon="-1.77885">
        <ele>7.1</ele>
        <time>2021-09-25T14:31:09Z</time>
      </trkpt>
      <trkpt lat="46.49348" lon="-1.77884">
        <ele>7.1</ele>
        <time>2021-09-25T14:31:10Z</time>
      </trkpt>
      <trkpt lat="46.49347" lon="-1.77883">
        <ele>7.1</ele>
        <time>2021-09-25T14:31:11Z</time>
      </trkpt>
      <trkpt lat="46.49347" lon="-1.77881">
        <ele>7.1</ele>
        <time>2021-09-25T14:31:12Z</time>
      </trkpt>
      <trkpt lat="46.49346" lon="-1.7788">
        <ele>7.1</ele>
        <time>2021-09-25T14:31:13Z</time>
      </trkpt>
      <trkpt lat="46.49346" lon="-1.77878">
        <ele>7.1</ele>
        <time>2021-09-25T14:31:14Z</time>
      </trkpt>
      <trkpt lat="46.49345" lon="-1.77877">
        <ele>7.1</ele>
        <time>2021-09-25T14:31:15Z</time>
      </trkpt>
      <trkpt lat="46.49345" lon="-1.77876">
        <ele>7.1</ele>
        <time>2021-09-25T14:31:16Z</time>
      </trkpt>
      <trkpt lat="46.49344" lon="-1.77874">
        <ele>7.1</ele>
        <time>2021-09-25T14:31:17Z</time>
      </trkpt>
      <trkpt lat="46.49344" lon="-1.77873">
        <ele>7.1</ele>
        <time>2021-09-25T14:31:18Z</time>
      </trkpt>
      <trkpt lat="46.49343" lon="-1.77871">
        <ele>7</ele>
        <time>2021-09-25T14:31:19Z</time>
      </trkpt>
      <trkpt lat="46.49342" lon="-1.7787">
        <ele>7</ele>
        <time>2021-09-25T14:31:20Z</time>
      </trkpt>
      <trkpt lat="46.49342" lon="-1.77868">
        <ele>7</ele>
        <time>2021-09-25T14:31:21Z</time>
      </trkpt>
      <trkpt lat="46.49341" lon="-1.77867">
        <ele>7</ele>
        <time>2021-09-25T14:31:22Z</time>
      </trkpt>
      <trkpt lat="46.49341" lon="-1.77865">
        <ele>7</ele>
        <time>2021-09-25T14:31:23Z</time>
      </trkpt>
      <trkpt lat="46.4934" lon="-1.77864">
        <ele>7</ele>
        <time>2021-09-25T14:31:24Z</time>
      </trkpt>
      <trkpt lat="46.4934" lon="-1.77863">
        <ele>7</ele>
        <time>2021-09-25T14:31:25Z</time>
      </trkpt>
      <trkpt lat="46.49339" lon="-1.77861">
        <ele>7</ele>
        <time>2021-09-25T14:31:26Z</time>
      </trkpt>
      <trkpt lat="46.49338" lon="-1.7786">
        <ele>7</ele>
        <time>2021-09-25T14:31:27Z</time>
      </trkpt>
      <trkpt lat="46.49338" lon="-1.77859">
        <ele>7</ele>
        <time>2021-09-25T14:31:28Z</time>
      </trkpt>
      <trkpt lat="46.49337" lon="-1.77858">
        <ele>7</ele>
        <time>2021-09-25T14:31:29Z</time>
      </trkpt>
      <trkpt lat="46.49337" lon="-1.77856">
        <ele>7</ele>
        <time>2021-09-25T14:31:30Z</time>
      </trkpt>
      <trkpt lat="46.49336" lon="-1.77855">
        <ele>7</ele>
        <time>2021-09-25T14:31:31Z</time>
      </trkpt>
      <trkpt lat="46.49336" lon="-1.77854">
        <ele>7</ele>
        <time>2021-09-25T14:31:32Z</time>
      </trkpt>
      <trkpt lat="46.49335" lon="-1.77853">
        <ele>7</ele>
        <time>2021-09-25T14:31:33Z</time>
      </trkpt>
      <trkpt lat="46.49335" lon="-1.77852">
        <ele>7</ele>
        <time>2021-09-25T14:31:34Z</time>
      </trkpt>
      <trkpt lat="46.49334" lon="-1.77851">
        <ele>7</ele>
        <time>2021-09-25T14:31:35Z</time>
      </trkpt>
      <trkpt lat="46.49334" lon="-1.7785">
        <ele>7</ele>
        <time>2021-09-25T14:31:36Z</time>
      </trkpt>
      <trkpt lat="46.49334" lon="-1.77848">
        <ele>7</ele>
        <time>2021-09-25T14:31:37Z</time>
      </trkpt>
      <trkpt lat="46.49333" lon="-1.77847">
        <ele>6.9</ele>
        <time>2021-09-25T14:31:38Z</time>
      </trkpt>
      <trkpt lat="46.49333" lon="-1.77846">
        <ele>6.9</ele>
        <time>2021-09-25T14:31:39Z</time>
      </trkpt>
      <trkpt lat="46.49332" lon="-1.77845">
        <ele>6.9</ele>
        <time>2021-09-25T14:31:40Z</time>
      </trkpt>
      <trkpt lat="46.49332" lon="-1.77844">
        <ele>6.9</ele>
        <time>2021-09-25T14:31:41Z</time>
      </trkpt>
      <trkpt lat="46.49331" lon="-1.77843">
        <ele>6.9</ele>
        <time>2021-09-25T14:31:42Z</time>
      </trkpt>
      <trkpt lat="46.49331" lon="-1.77842">
        <ele>6.9</ele>
        <time>2021-09-25T14:31:43Z</time>
      </trkpt>
      <trkpt lat="46.4933" lon="-1.77841">
        <ele>6.9</ele>
        <time>2021-09-25T14:31:44Z</time>
      </trkpt>
      <trkpt lat="46.4933" lon="-1.77839">
        <ele>6.9</ele>
        <time>2021-09-25T14:31:45Z</time>
      </trkpt>
      <trkpt lat="46.49329" lon="-1.77838">
        <ele>6.9</ele>
        <time>2021-09-25T14:31:46Z</time>
      </trkpt>
      <trkpt lat="46.49329" lon="-1.77837">
        <ele>6.9</ele>
        <time>2021-09-25T14:31:47Z</time>
      </trkpt>
      <trkpt lat="46.49328" lon="-1.77836">
        <ele>6.9</ele>
        <time>2021-09-25T14:31:48Z</time>
      </trkpt>
      <trkpt lat="46.49328" lon="-1.77834">
        <ele>6.9</ele>
        <time>2021-09-25T14:31:49Z</time>
      </trkpt>
      <trkpt lat="46.49327" lon="-1.77833">
        <ele>6.9</ele>
        <time>2021-09-25T14:31:50Z</time>
      </trkpt>
      <trkpt lat="46.49327" lon="-1.77832">
        <ele>6.9</ele>
        <time>2021-09-25T14:31:51Z</time>
      </trkpt>
      <trkpt lat="46.49326" lon="-1.7783">
        <ele>6.9</ele>
        <time>2021-09-25T14:31:52Z</time>
      </trkpt>
      <trkpt lat="46.49326" lon="-1.77829">
        <ele>6.9</ele>
        <time>2021-09-25T14:31:53Z</time>
      </trkpt>
      <trkpt lat="46.49325" lon="-1.77828">
        <ele>6.9</ele>
        <time>2021-09-25T14:31:54Z</time>
      </trkpt>
      <trkpt lat="46.49325" lon="-1.77826">
        <ele>6.9</ele>
        <time>2021-09-25T14:31:55Z</time>
      </trkpt>
      <trkpt lat="46.49324" lon="-1.77825">
        <ele>6.9</ele>
        <time>2021-09-25T14:31:56Z</time>
      </trkpt>
      <trkpt lat="46.49324" lon="-1.77824">
        <ele>6.9</ele>
        <time>2021-09-25T14:31:57Z</time>
      </trkpt>
      <trkpt lat="46.49323" lon="-1.77822">
        <ele>6.8</ele>
        <time>2021-09-25T14:31:58Z</time>
      </trkpt>
      <trkpt lat="46.49323" lon="-1.77821">
        <ele>6.8</ele>
        <time>2021-09-25T14:31:59Z</time>
      </trkpt>
      <trkpt lat="46.49322" lon="-1.7782">
        <ele>6.8</ele>
        <time>2021-09-25T14:32:00Z</time>
      </trkpt>
      <trkpt lat="46.49322" lon="-1.77819">
        <ele>6.8</ele>
        <time>2021-09-25T14:32:01Z</time>
      </trkpt>
      <trkpt lat="46.49322" lon="-1.77817">
        <ele>6.8</ele>
        <time>2021-09-25T14:32:02Z</time>
      </trkpt>
      <trkpt lat="46.49321" lon="-1.77816">
        <ele>6.8</ele>
        <time>2021-09-25T14:32:03Z</time>
      </trkpt>
      <trkpt lat="46.49321" lon="-1.77815">
        <ele>6.8</ele>
        <time>2021-09-25T14:32:04Z</time>
      </trkpt>
      <trkpt lat="46.49321" lon="-1.77813">
        <ele>6.8</ele>
        <time>2021-09-25T14:32:05Z</time>
      </trkpt>
      <trkpt lat="46.4932" lon="-1.77812">
        <ele>6.8</ele>
        <time>2021-09-25T14:32:06Z</time>
      </trkpt>
      <trkpt lat="46.4932" lon="-1.77811">
        <ele>6.8</ele>
        <time>2021-09-25T14:32:07Z</time>
      </trkpt>
      <trkpt lat="46.4932" lon="-1.77809">
        <ele>6.8</ele>
        <time>2021-09-25T14:32:08Z</time>
      </trkpt>
      <trkpt lat="46.49319" lon="-1.77808">
        <ele>6.8</ele>
        <time>2021-09-25T14:32:09Z</time>
      </trkpt>
      <trkpt lat="46.49319" lon="-1.77806">
        <ele>6.8</ele>
        <time>2021-09-25T14:32:10Z</time>
      </trkpt>
      <trkpt lat="46.49319" lon="-1.77805">
        <ele>6.8</ele>
        <time>2021-09-25T14:32:11Z</time>
      </trkpt>
      <trkpt lat="46.49318" lon="-1.77804">
        <ele>6.8</ele>
        <time>2021-09-25T14:32:12Z</time>
      </trkpt>
      <trkpt lat="46.49318" lon="-1.77802">
        <ele>6.8</ele>
        <time>2021-09-25T14:32:13Z</time>
      </trkpt>
      <trkpt lat="46.49318" lon="-1.77801">
        <ele>6.8</ele>
        <time>2021-09-25T14:32:14Z</time>
      </trkpt>
      <trkpt lat="46.49318" lon="-1.77799">
        <ele>6.8</ele>
        <time>2021-09-25T14:32:15Z</time>
      </trkpt>
      <trkpt lat="46.49317" lon="-1.77798">
        <ele>6.8</ele>
        <time>2021-09-25T14:32:16Z</time>
      </trkpt>
      <trkpt lat="46.49317" lon="-1.77797">
        <ele>6.8</ele>
        <time>2021-09-25T14:32:17Z</time>
      </trkpt>
      <trkpt lat="46.49317" lon="-1.77795">
        <ele>6.8</ele>
        <time>2021-09-25T14:32:18Z</time>
      </trkpt>
      <trkpt lat="46.49316" lon="-1.77794">
        <ele>6.8</ele>
        <time>2021-09-25T14:32:19Z</time>
      </trkpt>
      <trkpt lat="46.49316" lon="-1.77792">
        <ele>6.8</ele>
        <time>2021-09-25T14:32:20Z</time>
      </trkpt>
      <trkpt lat="46.49316" lon="-1.77791">
        <ele>6.8</ele>
        <time>2021-09-25T14:32:21Z</time>
      </trkpt>
      <trkpt lat="46.49315" lon="-1.7779">
        <ele>6.8</ele>
        <time>2021-09-25T14:32:22Z</time>
      </trkpt>
      <trkpt lat="46.49315" lon="-1.77788">
        <ele>6.8</ele>
        <time>2021-09-25T14:32:23Z</time>
      </trkpt>
      <trkpt lat="46.49315" lon="-1.77787">
        <ele>6.8</ele>
        <time>2021-09-25T14:32:24Z</time>
      </trkpt>
      <trkpt lat="46.49314" lon="-1.77786">
        <ele>6.8</ele>
        <time>2021-09-25T14:32:25Z</time>
      </trkpt>
      <trkpt lat="46.49314" lon="-1.77784">
        <ele>6.8</ele>
        <time>2021-09-25T14:32:26Z</time>
      </trkpt>
      <trkpt lat="46.49314" lon="-1.77783">
        <ele>6.8</ele>
        <time>2021-09-25T14:32:27Z</time>
      </trkpt>
      <trkpt lat="46.49313" lon="-1.77782">
        <ele>6.8</ele>
        <time>2021-09-25T14:32:28Z</time>
      </trkpt>
      <trkpt lat="46.49313" lon="-1.7778">
        <ele>6.8</ele>
        <time>2021-09-25T14:32:29Z</time>
      </trkpt>
      <trkpt lat="46.49312" lon="-1.77779">
        <ele>6.8</ele>
        <time>2021-09-25T14:32:30Z</time>
      </trkpt>
      <trkpt lat="46.49312" lon="-1.77778">
        <ele>6.8</ele>
        <time>2021-09-25T14:32:31Z</time>
      </trkpt>
      <trkpt lat="46.49311" lon="-1.77776">
        <ele>6.8</ele>
        <time>2021-09-25T14:32:32Z</time>
      </trkpt>
      <trkpt lat="46.49311" lon="-1.77775">
        <ele>6.8</ele>
        <time>2021-09-25T14:32:33Z</time>
      </trkpt>
      <trkpt lat="46.4931" lon="-1.77773">
        <ele>6.8</ele>
        <time>2021-09-25T14:32:34Z</time>
      </trkpt>
      <trkpt lat="46.4931" lon="-1.77772">
        <ele>6.8</ele>
        <time>2021-09-25T14:32:35Z</time>
      </trkpt>
      <trkpt lat="46.4931" lon="-1.77771">
        <ele>6.8</ele>
        <time>2021-09-25T14:32:36Z</time>
      </trkpt>
      <trkpt lat="46.49309" lon="-1.77769">
        <ele>6.8</ele>
        <time>2021-09-25T14:32:37Z</time>
      </trkpt>
      <trkpt lat="46.49309" lon="-1.77768">
        <ele>6.8</ele>
        <time>2021-09-25T14:32:38Z</time>
      </trkpt>
      <trkpt lat="46.49308" lon="-1.77767">
        <ele>6.7</ele>
        <time>2021-09-25T14:32:39Z</time>
      </trkpt>
      <trkpt lat="46.49308" lon="-1.77765">
        <ele>6.7</ele>
        <time>2021-09-25T14:32:40Z</time>
      </trkpt>
      <trkpt lat="46.49307" lon="-1.77764">
        <ele>6.7</ele>
        <time>2021-09-25T14:32:41Z</time>
      </trkpt>
      <trkpt lat="46.49307" lon="-1.77762">
        <ele>6.7</ele>
        <time>2021-09-25T14:32:42Z</time>
      </trkpt>
      <trkpt lat="46.49306" lon="-1.77761">
        <ele>6.7</ele>
        <time>2021-09-25T14:32:43Z</time>
      </trkpt>
      <trkpt lat="46.49306" lon="-1.77759">
        <ele>6.7</ele>
        <time>2021-09-25T14:32:44Z</time>
      </trkpt>
      <trkpt lat="46.49305" lon="-1.77758">
        <ele>6.7</ele>
        <time>2021-09-25T14:32:45Z</time>
      </trkpt>
      <trkpt lat="46.49304" lon="-1.77756">
        <ele>6.7</ele>
        <time>2021-09-25T14:32:46Z</time>
      </trkpt>
      <trkpt lat="46.49304" lon="-1.77755">
        <ele>6.7</ele>
        <time>2021-09-25T14:32:47Z</time>
      </trkpt>
      <trkpt lat="46.49303" lon="-1.77753">
        <ele>6.7</ele>
        <time>2021-09-25T14:32:48Z</time>
      </trkpt>
      <trkpt lat="46.49303" lon="-1.77752">
        <ele>6.7</ele>
        <time>2021-09-25T14:32:49Z</time>
      </trkpt>
      <trkpt lat="46.49302" lon="-1.7775">
        <ele>6.7</ele>
        <time>2021-09-25T14:32:50Z</time>
      </trkpt>
      <trkpt lat="46.49301" lon="-1.77749">
        <ele>6.7</ele>
        <time>2021-09-25T14:32:51Z</time>
      </trkpt>
      <trkpt lat="46.49301" lon="-1.77747">
        <ele>6.7</ele>
        <time>2021-09-25T14:32:52Z</time>
      </trkpt>
      <trkpt lat="46.493" lon="-1.77746">
        <ele>6.7</ele>
        <time>2021-09-25T14:32:53Z</time>
      </trkpt>
      <trkpt lat="46.493" lon="-1.77744">
        <ele>6.7</ele>
        <time>2021-09-25T14:32:54Z</time>
      </trkpt>
      <trkpt lat="46.49299" lon="-1.77743">
        <ele>6.7</ele>
        <time>2021-09-25T14:32:55Z</time>
      </trkpt>
      <trkpt lat="46.49298" lon="-1.77741">
        <ele>6.7</ele>
        <time>2021-09-25T14:32:56Z</time>
      </trkpt>
      <trkpt lat="46.49298" lon="-1.7774">
        <ele>6.7</ele>
        <time>2021-09-25T14:32:57Z</time>
      </trkpt>
      <trkpt lat="46.49297" lon="-1.77739">
        <ele>6.7</ele>
        <time>2021-09-25T14:32:58Z</time>
      </trkpt>
      <trkpt lat="46.49296" lon="-1.77737">
        <ele>6.7</ele>
        <time>2021-09-25T14:32:59Z</time>
      </trkpt>
      <trkpt lat="46.49296" lon="-1.77736">
        <ele>6.7</ele>
        <time>2021-09-25T14:33:00Z</time>
      </trkpt>
      <trkpt lat="46.49295" lon="-1.77734">
        <ele>6.7</ele>
        <time>2021-09-25T14:33:01Z</time>
      </trkpt>
      <trkpt lat="46.49294" lon="-1.77733">
        <ele>6.7</ele>
        <time>2021-09-25T14:33:02Z</time>
      </trkpt>
      <trkpt lat="46.49294" lon="-1.77732">
        <ele>6.7</ele>
        <time>2021-09-25T14:33:03Z</time>
      </trkpt>
      <trkpt lat="46.49293" lon="-1.77731">
        <ele>6.7</ele>
        <time>2021-09-25T14:33:04Z</time>
      </trkpt>
      <trkpt lat="46.49292" lon="-1.77729">
        <ele>6.7</ele>
        <time>2021-09-25T14:33:05Z</time>
      </trkpt>
      <trkpt lat="46.49292" lon="-1.77728">
        <ele>6.7</ele>
        <time>2021-09-25T14:33:06Z</time>
      </trkpt>
      <trkpt lat="46.49291" lon="-1.77727">
        <ele>6.7</ele>
        <time>2021-09-25T14:33:07Z</time>
      </trkpt>
      <trkpt lat="46.4929" lon="-1.77726">
        <ele>6.7</ele>
        <time>2021-09-25T14:33:08Z</time>
      </trkpt>
      <trkpt lat="46.49289" lon="-1.77725">
        <ele>6.7</ele>
        <time>2021-09-25T14:33:09Z</time>
      </trkpt>
      <trkpt lat="46.49289" lon="-1.77723">
        <ele>6.7</ele>
        <time>2021-09-25T14:33:10Z</time>
      </trkpt>
      <trkpt lat="46.49288" lon="-1.77722">
        <ele>6.7</ele>
        <time>2021-09-25T14:33:11Z</time>
      </trkpt>
      <trkpt lat="46.49287" lon="-1.77721">
        <ele>6.7</ele>
        <time>2021-09-25T14:33:12Z</time>
      </trkpt>
      <trkpt lat="46.49287" lon="-1.7772">
        <ele>6.7</ele>
        <time>2021-09-25T14:33:13Z</time>
      </trkpt>
      <trkpt lat="46.49286" lon="-1.77719">
        <ele>6.7</ele>
        <time>2021-09-25T14:33:14Z</time>
      </trkpt>
      <trkpt lat="46.49285" lon="-1.77718">
        <ele>6.7</ele>
        <time>2021-09-25T14:33:15Z</time>
      </trkpt>
      <trkpt lat="46.49284" lon="-1.77717">
        <ele>6.7</ele>
        <time>2021-09-25T14:33:16Z</time>
      </trkpt>
      <trkpt lat="46.49284" lon="-1.77715">
        <ele>6.7</ele>
        <time>2021-09-25T14:33:17Z</time>
      </trkpt>
      <trkpt lat="46.49283" lon="-1.77714">
        <ele>6.7</ele>
        <time>2021-09-25T14:33:18Z</time>
      </trkpt>
      <trkpt lat="46.49282" lon="-1.77713">
        <ele>6.7</ele>
        <time>2021-09-25T14:33:19Z</time>
      </trkpt>
      <trkpt lat="46.49282" lon="-1.77712">
        <ele>6.7</ele>
        <time>2021-09-25T14:33:20Z</time>
      </trkpt>
      <trkpt lat="46.49281" lon="-1.77711">
        <ele>6.7</ele>
        <time>2021-09-25T14:33:21Z</time>
      </trkpt>
      <trkpt lat="46.4928" lon="-1.7771">
        <ele>6.7</ele>
        <time>2021-09-25T14:33:22Z</time>
      </trkpt>
      <trkpt lat="46.49279" lon="-1.77709">
        <ele>6.7</ele>
        <time>2021-09-25T14:33:23Z</time>
      </trkpt>
      <trkpt lat="46.49279" lon="-1.77708">
        <ele>6.7</ele>
        <time>2021-09-25T14:33:24Z</time>
      </trkpt>
      <trkpt lat="46.49278" lon="-1.77706">
        <ele>6.7</ele>
        <time>2021-09-25T14:33:25Z</time>
      </trkpt>
      <trkpt lat="46.49277" lon="-1.77705">
        <ele>6.7</ele>
        <time>2021-09-25T14:33:26Z</time>
      </trkpt>
      <trkpt lat="46.49277" lon="-1.77704">
        <ele>6.7</ele>
        <time>2021-09-25T14:33:27Z</time>
      </trkpt>
      <trkpt lat="46.49276" lon="-1.77703">
        <ele>6.7</ele>
        <time>2021-09-25T14:33:28Z</time>
      </trkpt>
      <trkpt lat="46.49275" lon="-1.77702">
        <ele>6.7</ele>
        <time>2021-09-25T14:33:29Z</time>
      </trkpt>
      <trkpt lat="46.49274" lon="-1.77701">
        <ele>6.7</ele>
        <time>2021-09-25T14:33:30Z</time>
      </trkpt>
      <trkpt lat="46.49274" lon="-1.77699">
        <ele>6.7</ele>
        <time>2021-09-25T14:33:31Z</time>
      </trkpt>
      <trkpt lat="46.49273" lon="-1.77698">
        <ele>6.7</ele>
        <time>2021-09-25T14:33:32Z</time>
      </trkpt>
      <trkpt lat="46.49272" lon="-1.77697">
        <ele>6.7</ele>
        <time>2021-09-25T14:33:33Z</time>
      </trkpt>
      <trkpt lat="46.49272" lon="-1.77696">
        <ele>6.7</ele>
        <time>2021-09-25T14:33:34Z</time>
      </trkpt>
      <trkpt lat="46.49271" lon="-1.77695">
        <ele>6.7</ele>
        <time>2021-09-25T14:33:35Z</time>
      </trkpt>
      <trkpt lat="46.4927" lon="-1.77693">
        <ele>6.7</ele>
        <time>2021-09-25T14:33:36Z</time>
      </trkpt>
      <trkpt lat="46.4927" lon="-1.77692">
        <ele>6.7</ele>
        <time>2021-09-25T14:33:37Z</time>
      </trkpt>
      <trkpt lat="46.49269" lon="-1.77691">
        <ele>6.7</ele>
        <time>2021-09-25T14:33:38Z</time>
      </trkpt>
      <trkpt lat="46.49269" lon="-1.77689">
        <ele>6.7</ele>
        <time>2021-09-25T14:33:39Z</time>
      </trkpt>
      <trkpt lat="46.49268" lon="-1.77688">
        <ele>6.7</ele>
        <time>2021-09-25T14:33:40Z</time>
      </trkpt>
      <trkpt lat="46.49267" lon="-1.77687">
        <ele>6.7</ele>
        <time>2021-09-25T14:33:41Z</time>
      </trkpt>
      <trkpt lat="46.49267" lon="-1.77685">
        <ele>6.7</ele>
        <time>2021-09-25T14:33:42Z</time>
      </trkpt>
      <trkpt lat="46.49266" lon="-1.77684">
        <ele>6.7</ele>
        <time>2021-09-25T14:33:43Z</time>
      </trkpt>
      <trkpt lat="46.49266" lon="-1.77683">
        <ele>6.7</ele>
        <time>2021-09-25T14:33:44Z</time>
      </trkpt>
      <trkpt lat="46.49265" lon="-1.77682">
        <ele>6.7</ele>
        <time>2021-09-25T14:33:45Z</time>
      </trkpt>
      <trkpt lat="46.49265" lon="-1.7768">
        <ele>6.7</ele>
        <time>2021-09-25T14:33:46Z</time>
      </trkpt>
      <trkpt lat="46.49264" lon="-1.77679">
        <ele>6.6</ele>
        <time>2021-09-25T14:33:47Z</time>
      </trkpt>
      <trkpt lat="46.49264" lon="-1.77678">
        <ele>6.6</ele>
        <time>2021-09-25T14:33:48Z</time>
      </trkpt>
      <trkpt lat="46.49263" lon="-1.77677">
        <ele>6.6</ele>
        <time>2021-09-25T14:33:49Z</time>
      </trkpt>
      <trkpt lat="46.49263" lon="-1.77675">
        <ele>6.6</ele>
        <time>2021-09-25T14:33:50Z</time>
      </trkpt>
      <trkpt lat="46.49263" lon="-1.77674">
        <ele>6.6</ele>
        <time>2021-09-25T14:33:51Z</time>
      </trkpt>
      <trkpt lat="46.49262" lon="-1.77673">
        <ele>6.6</ele>
        <time>2021-09-25T14:33:52Z</time>
      </trkpt>
      <trkpt lat="46.49262" lon="-1.77672">
        <ele>6.6</ele>
        <time>2021-09-25T14:33:53Z</time>
      </trkpt>
      <trkpt lat="46.49261" lon="-1.77671">
        <ele>6.6</ele>
        <time>2021-09-25T14:33:54Z</time>
      </trkpt>
      <trkpt lat="46.49261" lon="-1.77669">
        <ele>6.6</ele>
        <time>2021-09-25T14:33:55Z</time>
      </trkpt>
      <trkpt lat="46.4926" lon="-1.77668">
        <ele>6.6</ele>
        <time>2021-09-25T14:33:56Z</time>
      </trkpt>
      <trkpt lat="46.4926" lon="-1.77667">
        <ele>6.6</ele>
        <time>2021-09-25T14:33:57Z</time>
      </trkpt>
      <trkpt lat="46.49259" lon="-1.77666">
        <ele>6.6</ele>
        <time>2021-09-25T14:33:58Z</time>
      </trkpt>
      <trkpt lat="46.49258" lon="-1.77664">
        <ele>6.6</ele>
        <time>2021-09-25T14:33:59Z</time>
      </trkpt>
      <trkpt lat="46.49257" lon="-1.77663">
        <ele>6.6</ele>
        <time>2021-09-25T14:34:00Z</time>
      </trkpt>
      <trkpt lat="46.49257" lon="-1.77662">
        <ele>6.6</ele>
        <time>2021-09-25T14:34:01Z</time>
      </trkpt>
      <trkpt lat="46.49256" lon="-1.7766">
        <ele>6.6</ele>
        <time>2021-09-25T14:34:02Z</time>
      </trkpt>
      <trkpt lat="46.49255" lon="-1.77659">
        <ele>6.6</ele>
        <time>2021-09-25T14:34:03Z</time>
      </trkpt>
      <trkpt lat="46.49254" lon="-1.77658">
        <ele>6.6</ele>
        <time>2021-09-25T14:34:04Z</time>
      </trkpt>
      <trkpt lat="46.49253" lon="-1.77656">
        <ele>6.6</ele>
        <time>2021-09-25T14:34:05Z</time>
      </trkpt>
      <trkpt lat="46.49253" lon="-1.77655">
        <ele>6.6</ele>
        <time>2021-09-25T14:34:06Z</time>
      </trkpt>
      <trkpt lat="46.49252" lon="-1.77654">
        <ele>6.6</ele>
        <time>2021-09-25T14:34:07Z</time>
      </trkpt>
      <trkpt lat="46.49251" lon="-1.77652">
        <ele>6.6</ele>
        <time>2021-09-25T14:34:08Z</time>
      </trkpt>
      <trkpt lat="46.4925" lon="-1.77651">
        <ele>6.6</ele>
        <time>2021-09-25T14:34:09Z</time>
      </trkpt>
      <trkpt lat="46.4925" lon="-1.77649">
        <ele>6.6</ele>
        <time>2021-09-25T14:34:10Z</time>
      </trkpt>
      <trkpt lat="46.49249" lon="-1.77648">
        <ele>6.6</ele>
        <time>2021-09-25T14:34:11Z</time>
      </trkpt>
      <trkpt lat="46.49248" lon="-1.77647">
        <ele>6.5</ele>
        <time>2021-09-25T14:34:12Z</time>
      </trkpt>
      <trkpt lat="46.49248" lon="-1.77645">
        <ele>6.5</ele>
        <time>2021-09-25T14:34:13Z</time>
      </trkpt>
      <trkpt lat="46.49247" lon="-1.77644">
        <ele>6.5</ele>
        <time>2021-09-25T14:34:14Z</time>
      </trkpt>
      <trkpt lat="46.49247" lon="-1.77642">
        <ele>6.5</ele>
        <time>2021-09-25T14:34:15Z</time>
      </trkpt>
      <trkpt lat="46.49246" lon="-1.77641">
        <ele>6.5</ele>
        <time>2021-09-25T14:34:16Z</time>
      </trkpt>
      <trkpt lat="46.49246" lon="-1.77639">
        <ele>6.5</ele>
        <time>2021-09-25T14:34:17Z</time>
      </trkpt>
      <trkpt lat="46.49245" lon="-1.77638">
        <ele>6.5</ele>
        <time>2021-09-25T14:34:18Z</time>
      </trkpt>
      <trkpt lat="46.49245" lon="-1.77636">
        <ele>6.5</ele>
        <time>2021-09-25T14:34:19Z</time>
      </trkpt>
      <trkpt lat="46.49244" lon="-1.77635">
        <ele>6.5</ele>
        <time>2021-09-25T14:34:20Z</time>
      </trkpt>
      <trkpt lat="46.49243" lon="-1.77633">
        <ele>6.5</ele>
        <time>2021-09-25T14:34:21Z</time>
      </trkpt>
      <trkpt lat="46.49243" lon="-1.77632">
        <ele>6.5</ele>
        <time>2021-09-25T14:34:22Z</time>
      </trkpt>
      <trkpt lat="46.49242" lon="-1.77631">
        <ele>6.4</ele>
        <time>2021-09-25T14:34:23Z</time>
      </trkpt>
      <trkpt lat="46.49241" lon="-1.7763">
        <ele>6.4</ele>
        <time>2021-09-25T14:34:24Z</time>
      </trkpt>
      <trkpt lat="46.49241" lon="-1.77628">
        <ele>6.4</ele>
        <time>2021-09-25T14:34:25Z</time>
      </trkpt>
      <trkpt lat="46.4924" lon="-1.77627">
        <ele>6.4</ele>
        <time>2021-09-25T14:34:26Z</time>
      </trkpt>
      <trkpt lat="46.49239" lon="-1.77626">
        <ele>6.4</ele>
        <time>2021-09-25T14:34:27Z</time>
      </trkpt>
      <trkpt lat="46.49238" lon="-1.77625">
        <ele>6.4</ele>
        <time>2021-09-25T14:34:28Z</time>
      </trkpt>
      <trkpt lat="46.49237" lon="-1.77624">
        <ele>6.4</ele>
        <time>2021-09-25T14:34:29Z</time>
      </trkpt>
      <trkpt lat="46.49237" lon="-1.77623">
        <ele>6.4</ele>
        <time>2021-09-25T14:34:30Z</time>
      </trkpt>
      <trkpt lat="46.49236" lon="-1.77622">
        <ele>6.4</ele>
        <time>2021-09-25T14:34:31Z</time>
      </trkpt>
      <trkpt lat="46.49235" lon="-1.77621">
        <ele>6.4</ele>
        <time>2021-09-25T14:34:32Z</time>
      </trkpt>
      <trkpt lat="46.49234" lon="-1.7762">
        <ele>6.4</ele>
        <time>2021-09-25T14:34:33Z</time>
      </trkpt>
      <trkpt lat="46.49233" lon="-1.77619">
        <ele>6.3</ele>
        <time>2021-09-25T14:34:34Z</time>
      </trkpt>
      <trkpt lat="46.49233" lon="-1.77619">
        <ele>6.3</ele>
        <time>2021-09-25T14:34:35Z</time>
      </trkpt>
      <trkpt lat="46.49232" lon="-1.77618">
        <ele>6.3</ele>
        <time>2021-09-25T14:34:36Z</time>
      </trkpt>
      <trkpt lat="46.49232" lon="-1.77617">
        <ele>6.3</ele>
        <time>2021-09-25T14:34:37Z</time>
      </trkpt>
      <trkpt lat="46.49231" lon="-1.77616">
        <ele>6.3</ele>
        <time>2021-09-25T14:34:38Z</time>
      </trkpt>
      <trkpt lat="46.49231" lon="-1.77615">
        <ele>6.3</ele>
        <time>2021-09-25T14:34:39Z</time>
      </trkpt>
      <trkpt lat="46.4923" lon="-1.77615">
        <ele>6.3</ele>
        <time>2021-09-25T14:34:40Z</time>
      </trkpt>
      <trkpt lat="46.4923" lon="-1.77614">
        <ele>6.3</ele>
        <time>2021-09-25T14:34:41Z</time>
      </trkpt>
      <trkpt lat="46.49229" lon="-1.77613">
        <ele>6.3</ele>
        <time>2021-09-25T14:34:42Z</time>
      </trkpt>
      <trkpt lat="46.49229" lon="-1.77612">
        <ele>6.3</ele>
        <time>2021-09-25T14:34:43Z</time>
      </trkpt>
      <trkpt lat="46.49228" lon="-1.77611">
        <ele>6.3</ele>
        <time>2021-09-25T14:34:44Z</time>
      </trkpt>
      <trkpt lat="46.49228" lon="-1.77611">
        <ele>6.3</ele>
        <time>2021-09-25T14:34:45Z</time>
      </trkpt>
      <trkpt lat="46.49227" lon="-1.7761">
        <ele>6.3</ele>
        <time>2021-09-25T14:34:46Z</time>
      </trkpt>
      <trkpt lat="46.49227" lon="-1.77609">
        <ele>6.3</ele>
        <time>2021-09-25T14:34:47Z</time>
      </trkpt>
      <trkpt lat="46.49226" lon="-1.77608">
        <ele>6.3</ele>
        <time>2021-09-25T14:34:48Z</time>
      </trkpt>
      <trkpt lat="46.49226" lon="-1.77607">
        <ele>6.3</ele>
        <time>2021-09-25T14:34:49Z</time>
      </trkpt>
      <trkpt lat="46.49225" lon="-1.77606">
        <ele>6.3</ele>
        <time>2021-09-25T14:34:50Z</time>
      </trkpt>
      <trkpt lat="46.49224" lon="-1.77606">
        <ele>6.3</ele>
        <time>2021-09-25T14:34:51Z</time>
      </trkpt>
      <trkpt lat="46.49224" lon="-1.77605">
        <ele>6.2</ele>
        <time>2021-09-25T14:34:52Z</time>
      </trkpt>
      <trkpt lat="46.49223" lon="-1.77604">
        <ele>6.2</ele>
        <time>2021-09-25T14:34:53Z</time>
      </trkpt>
      <trkpt lat="46.49222" lon="-1.77603">
        <ele>6.2</ele>
        <time>2021-09-25T14:34:54Z</time>
      </trkpt>
      <trkpt lat="46.49221" lon="-1.77603">
        <ele>6.2</ele>
        <time>2021-09-25T14:34:55Z</time>
      </trkpt>
      <trkpt lat="46.4922" lon="-1.77602">
        <ele>6.2</ele>
        <time>2021-09-25T14:34:56Z</time>
      </trkpt>
      <trkpt lat="46.4922" lon="-1.77601">
        <ele>6.2</ele>
        <time>2021-09-25T14:34:57Z</time>
      </trkpt>
      <trkpt lat="46.49219" lon="-1.776">
        <ele>6.2</ele>
        <time>2021-09-25T14:34:58Z</time>
      </trkpt>
      <trkpt lat="46.49218" lon="-1.776">
        <ele>6.2</ele>
        <time>2021-09-25T14:34:59Z</time>
      </trkpt>
      <trkpt lat="46.49217" lon="-1.77599">
        <ele>6.2</ele>
        <time>2021-09-25T14:35:00Z</time>
      </trkpt>
      <trkpt lat="46.49217" lon="-1.77598">
        <ele>6.2</ele>
        <time>2021-09-25T14:35:01Z</time>
      </trkpt>
      <trkpt lat="46.49216" lon="-1.77597">
        <ele>6.2</ele>
        <time>2021-09-25T14:35:02Z</time>
      </trkpt>
      <trkpt lat="46.49215" lon="-1.77596">
        <ele>6.2</ele>
        <time>2021-09-25T14:35:03Z</time>
      </trkpt>
      <trkpt lat="46.49215" lon="-1.77595">
        <ele>6.2</ele>
        <time>2021-09-25T14:35:04Z</time>
      </trkpt>
      <trkpt lat="46.49214" lon="-1.77594">
        <ele>6.2</ele>
        <time>2021-09-25T14:35:05Z</time>
      </trkpt>
      <trkpt lat="46.49214" lon="-1.77593">
        <ele>6.2</ele>
        <time>2021-09-25T14:35:06Z</time>
      </trkpt>
      <trkpt lat="46.49213" lon="-1.77592">
        <ele>6.2</ele>
        <time>2021-09-25T14:35:07Z</time>
      </trkpt>
      <trkpt lat="46.49213" lon="-1.77591">
        <ele>6.2</ele>
        <time>2021-09-25T14:35:08Z</time>
      </trkpt>
      <trkpt lat="46.49212" lon="-1.7759">
        <ele>6.2</ele>
        <time>2021-09-25T14:35:09Z</time>
      </trkpt>
      <trkpt lat="46.49212" lon="-1.77589">
        <ele>6.1</ele>
        <time>2021-09-25T14:35:10Z</time>
      </trkpt>
      <trkpt lat="46.49211" lon="-1.77588">
        <ele>6.1</ele>
        <time>2021-09-25T14:35:11Z</time>
      </trkpt>
      <trkpt lat="46.4921" lon="-1.77587">
        <ele>6.1</ele>
        <time>2021-09-25T14:35:12Z</time>
      </trkpt>
      <trkpt lat="46.4921" lon="-1.77586">
        <ele>6.1</ele>
        <time>2021-09-25T14:35:13Z</time>
      </trkpt>
      <trkpt lat="46.49209" lon="-1.77584">
        <ele>6.1</ele>
        <time>2021-09-25T14:35:14Z</time>
      </trkpt>
      <trkpt lat="46.49208" lon="-1.77583">
        <ele>6.1</ele>
        <time>2021-09-25T14:35:15Z</time>
      </trkpt>
      <trkpt lat="46.49207" lon="-1.77582">
        <ele>6.1</ele>
        <time>2021-09-25T14:35:16Z</time>
      </trkpt>
      <trkpt lat="46.49206" lon="-1.77581">
        <ele>6.1</ele>
        <time>2021-09-25T14:35:17Z</time>
      </trkpt>
      <trkpt lat="46.49205" lon="-1.7758">
        <ele>6.1</ele>
        <time>2021-09-25T14:35:18Z</time>
      </trkpt>
      <trkpt lat="46.49204" lon="-1.77579">
        <ele>6.1</ele>
        <time>2021-09-25T14:35:19Z</time>
      </trkpt>
      <trkpt lat="46.49204" lon="-1.77577">
        <ele>6.1</ele>
        <time>2021-09-25T14:35:20Z</time>
      </trkpt>
      <trkpt lat="46.49203" lon="-1.77576">
        <ele>6.1</ele>
        <time>2021-09-25T14:35:21Z</time>
      </trkpt>
      <trkpt lat="46.49202" lon="-1.77575">
        <ele>6.1</ele>
        <time>2021-09-25T14:35:22Z</time>
      </trkpt>
      <trkpt lat="46.49201" lon="-1.77575">
        <ele>6.1</ele>
        <time>2021-09-25T14:35:23Z</time>
      </trkpt>
      <trkpt lat="46.492" lon="-1.77574">
        <ele>6.1</ele>
        <time>2021-09-25T14:35:24Z</time>
      </trkpt>
      <trkpt lat="46.49199" lon="-1.77573">
        <ele>6.1</ele>
        <time>2021-09-25T14:35:25Z</time>
      </trkpt>
      <trkpt lat="46.49198" lon="-1.77572">
        <ele>6.1</ele>
        <time>2021-09-25T14:35:26Z</time>
      </trkpt>
      <trkpt lat="46.49197" lon="-1.77571">
        <ele>6.1</ele>
        <time>2021-09-25T14:35:27Z</time>
      </trkpt>
      <trkpt lat="46.49197" lon="-1.7757">
        <ele>6.1</ele>
        <time>2021-09-25T14:35:28Z</time>
      </trkpt>
      <trkpt lat="46.49196" lon="-1.77569">
        <ele>6.1</ele>
        <time>2021-09-25T14:35:29Z</time>
      </trkpt>
      <trkpt lat="46.49195" lon="-1.77568">
        <ele>6.1</ele>
        <time>2021-09-25T14:35:30Z</time>
      </trkpt>
      <trkpt lat="46.49194" lon="-1.77567">
        <ele>6.1</ele>
        <time>2021-09-25T14:35:31Z</time>
      </trkpt>
      <trkpt lat="46.49193" lon="-1.77566">
        <ele>6.1</ele>
        <time>2021-09-25T14:35:32Z</time>
      </trkpt>
      <trkpt lat="46.49193" lon="-1.77565">
        <ele>6.1</ele>
        <time>2021-09-25T14:35:33Z</time>
      </trkpt>
      <trkpt lat="46.49192" lon="-1.77564">
        <ele>6.1</ele>
        <time>2021-09-25T14:35:34Z</time>
      </trkpt>
      <trkpt lat="46.49191" lon="-1.77563">
        <ele>6.1</ele>
        <time>2021-09-25T14:35:35Z</time>
      </trkpt>
      <trkpt lat="46.4919" lon="-1.77562">
        <ele>6.1</ele>
        <time>2021-09-25T14:35:36Z</time>
      </trkpt>
      <trkpt lat="46.49189" lon="-1.77561">
        <ele>6.1</ele>
        <time>2021-09-25T14:35:37Z</time>
      </trkpt>
      <trkpt lat="46.49189" lon="-1.7756">
        <ele>6.1</ele>
        <time>2021-09-25T14:35:38Z</time>
      </trkpt>
      <trkpt lat="46.49188" lon="-1.77559">
        <ele>6.1</ele>
        <time>2021-09-25T14:35:39Z</time>
      </trkpt>
      <trkpt lat="46.49187" lon="-1.77558">
        <ele>6.1</ele>
        <time>2021-09-25T14:35:40Z</time>
      </trkpt>
      <trkpt lat="46.49186" lon="-1.77557">
        <ele>6.1</ele>
        <time>2021-09-25T14:35:41Z</time>
      </trkpt>
      <trkpt lat="46.49186" lon="-1.77556">
        <ele>6.1</ele>
        <time>2021-09-25T14:35:42Z</time>
      </trkpt>
      <trkpt lat="46.49185" lon="-1.77555">
        <ele>6.1</ele>
        <time>2021-09-25T14:35:43Z</time>
      </trkpt>
      <trkpt lat="46.49184" lon="-1.77554">
        <ele>6.1</ele>
        <time>2021-09-25T14:35:44Z</time>
      </trkpt>
      <trkpt lat="46.49183" lon="-1.77553">
        <ele>6.1</ele>
        <time>2021-09-25T14:35:45Z</time>
      </trkpt>
      <trkpt lat="46.49183" lon="-1.77552">
        <ele>6.1</ele>
        <time>2021-09-25T14:35:46Z</time>
      </trkpt>
      <trkpt lat="46.49182" lon="-1.77551">
        <ele>6.1</ele>
        <time>2021-09-25T14:35:47Z</time>
      </trkpt>
      <trkpt lat="46.49181" lon="-1.7755">
        <ele>6.1</ele>
        <time>2021-09-25T14:35:48Z</time>
      </trkpt>
      <trkpt lat="46.49181" lon="-1.7755">
        <ele>6.1</ele>
        <time>2021-09-25T14:35:49Z</time>
      </trkpt>
      <trkpt lat="46.4918" lon="-1.77549">
        <ele>6.1</ele>
        <time>2021-09-25T14:35:50Z</time>
      </trkpt>
      <trkpt lat="46.49179" lon="-1.77548">
        <ele>6.1</ele>
        <time>2021-09-25T14:35:51Z</time>
      </trkpt>
      <trkpt lat="46.49178" lon="-1.77547">
        <ele>6.1</ele>
        <time>2021-09-25T14:35:52Z</time>
      </trkpt>
      <trkpt lat="46.49178" lon="-1.77546">
        <ele>6.1</ele>
        <time>2021-09-25T14:35:53Z</time>
      </trkpt>
      <trkpt lat="46.49177" lon="-1.77545">
        <ele>6.1</ele>
        <time>2021-09-25T14:35:54Z</time>
      </trkpt>
      <trkpt lat="46.49176" lon="-1.77544">
        <ele>6.1</ele>
        <time>2021-09-25T14:35:55Z</time>
      </trkpt>
      <trkpt lat="46.49175" lon="-1.77542">
        <ele>6.1</ele>
        <time>2021-09-25T14:35:56Z</time>
      </trkpt>
      <trkpt lat="46.49175" lon="-1.77541">
        <ele>6.1</ele>
        <time>2021-09-25T14:35:57Z</time>
      </trkpt>
      <trkpt lat="46.49174" lon="-1.7754">
        <ele>6.1</ele>
        <time>2021-09-25T14:35:58Z</time>
      </trkpt>
      <trkpt lat="46.49173" lon="-1.77539">
        <ele>6.1</ele>
        <time>2021-09-25T14:35:59Z</time>
      </trkpt>
      <trkpt lat="46.49172" lon="-1.77538">
        <ele>6.1</ele>
        <time>2021-09-25T14:36:00Z</time>
      </trkpt>
      <trkpt lat="46.49172" lon="-1.77537">
        <ele>6.1</ele>
        <time>2021-09-25T14:36:01Z</time>
      </trkpt>
      <trkpt lat="46.49171" lon="-1.77536">
        <ele>6.1</ele>
        <time>2021-09-25T14:36:02Z</time>
      </trkpt>
      <trkpt lat="46.4917" lon="-1.77535">
        <ele>6.1</ele>
        <time>2021-09-25T14:36:03Z</time>
      </trkpt>
      <trkpt lat="46.49169" lon="-1.77534">
        <ele>6.1</ele>
        <time>2021-09-25T14:36:04Z</time>
      </trkpt>
      <trkpt lat="46.49169" lon="-1.77533">
        <ele>6.1</ele>
        <time>2021-09-25T14:36:05Z</time>
      </trkpt>
      <trkpt lat="46.49168" lon="-1.77532">
        <ele>6.1</ele>
        <time>2021-09-25T14:36:06Z</time>
      </trkpt>
      <trkpt lat="46.49167" lon="-1.77531">
        <ele>6.1</ele>
        <time>2021-09-25T14:36:07Z</time>
      </trkpt>
      <trkpt lat="46.49166" lon="-1.77529">
        <ele>6.1</ele>
        <time>2021-09-25T14:36:08Z</time>
      </trkpt>
      <trkpt lat="46.49166" lon="-1.77528">
        <ele>6.1</ele>
        <time>2021-09-25T14:36:09Z</time>
      </trkpt>
      <trkpt lat="46.49165" lon="-1.77527">
        <ele>6.1</ele>
        <time>2021-09-25T14:36:10Z</time>
      </trkpt>
      <trkpt lat="46.49164" lon="-1.77526">
        <ele>6.1</ele>
        <time>2021-09-25T14:36:11Z</time>
      </trkpt>
      <trkpt lat="46.49163" lon="-1.77525">
        <ele>6.1</ele>
        <time>2021-09-25T14:36:12Z</time>
      </trkpt>
      <trkpt lat="46.49162" lon="-1.77524">
        <ele>6.1</ele>
        <time>2021-09-25T14:36:13Z</time>
      </trkpt>
      <trkpt lat="46.49162" lon="-1.77523">
        <ele>6.1</ele>
        <time>2021-09-25T14:36:14Z</time>
      </trkpt>
      <trkpt lat="46.49161" lon="-1.77522">
        <ele>6.1</ele>
        <time>2021-09-25T14:36:15Z</time>
      </trkpt>
      <trkpt lat="46.4916" lon="-1.77521">
        <ele>6.1</ele>
        <time>2021-09-25T14:36:16Z</time>
      </trkpt>
      <trkpt lat="46.49159" lon="-1.7752">
        <ele>6.1</ele>
        <time>2021-09-25T14:36:17Z</time>
      </trkpt>
      <trkpt lat="46.49158" lon="-1.77519">
        <ele>6.1</ele>
        <time>2021-09-25T14:36:18Z</time>
      </trkpt>
      <trkpt lat="46.49158" lon="-1.77518">
        <ele>6.1</ele>
        <time>2021-09-25T14:36:19Z</time>
      </trkpt>
      <trkpt lat="46.49157" lon="-1.77517">
        <ele>6.1</ele>
        <time>2021-09-25T14:36:20Z</time>
      </trkpt>
      <trkpt lat="46.49156" lon="-1.77516">
        <ele>6.1</ele>
        <time>2021-09-25T14:36:21Z</time>
      </trkpt>
      <trkpt lat="46.49155" lon="-1.77515">
        <ele>6.1</ele>
        <time>2021-09-25T14:36:22Z</time>
      </trkpt>
      <trkpt lat="46.49154" lon="-1.77514">
        <ele>6.1</ele>
        <time>2021-09-25T14:36:23Z</time>
      </trkpt>
      <trkpt lat="46.49154" lon="-1.77513">
        <ele>6.1</ele>
        <time>2021-09-25T14:36:24Z</time>
      </trkpt>
      <trkpt lat="46.49153" lon="-1.77512">
        <ele>6.1</ele>
        <time>2021-09-25T14:36:25Z</time>
      </trkpt>
      <trkpt lat="46.49152" lon="-1.77511">
        <ele>6.1</ele>
        <time>2021-09-25T14:36:26Z</time>
      </trkpt>
      <trkpt lat="46.49151" lon="-1.7751">
        <ele>6.1</ele>
        <time>2021-09-25T14:36:27Z</time>
      </trkpt>
      <trkpt lat="46.4915" lon="-1.77509">
        <ele>6.1</ele>
        <time>2021-09-25T14:36:28Z</time>
      </trkpt>
      <trkpt lat="46.4915" lon="-1.77508">
        <ele>6.1</ele>
        <time>2021-09-25T14:36:29Z</time>
      </trkpt>
      <trkpt lat="46.49149" lon="-1.77507">
        <ele>6.1</ele>
        <time>2021-09-25T14:36:30Z</time>
      </trkpt>
      <trkpt lat="46.49148" lon="-1.77506">
        <ele>6.1</ele>
        <time>2021-09-25T14:36:31Z</time>
      </trkpt>
      <trkpt lat="46.49147" lon="-1.77505">
        <ele>6.1</ele>
        <time>2021-09-25T14:36:32Z</time>
      </trkpt>
      <trkpt lat="46.49147" lon="-1.77503">
        <ele>6.1</ele>
        <time>2021-09-25T14:36:33Z</time>
      </trkpt>
      <trkpt lat="46.49146" lon="-1.77502">
        <ele>6.1</ele>
        <time>2021-09-25T14:36:34Z</time>
      </trkpt>
      <trkpt lat="46.49145" lon="-1.77501">
        <ele>6.1</ele>
        <time>2021-09-25T14:36:35Z</time>
      </trkpt>
      <trkpt lat="46.49145" lon="-1.775">
        <ele>6.1</ele>
        <time>2021-09-25T14:36:36Z</time>
      </trkpt>
      <trkpt lat="46.49144" lon="-1.77499">
        <ele>6.1</ele>
        <time>2021-09-25T14:36:37Z</time>
      </trkpt>
      <trkpt lat="46.49143" lon="-1.77497">
        <ele>6.1</ele>
        <time>2021-09-25T14:36:38Z</time>
      </trkpt>
      <trkpt lat="46.49142" lon="-1.77496">
        <ele>6.1</ele>
        <time>2021-09-25T14:36:39Z</time>
      </trkpt>
      <trkpt lat="46.49142" lon="-1.77495">
        <ele>6.1</ele>
        <time>2021-09-25T14:36:40Z</time>
      </trkpt>
      <trkpt lat="46.49141" lon="-1.77494">
        <ele>6.1</ele>
        <time>2021-09-25T14:36:41Z</time>
      </trkpt>
      <trkpt lat="46.4914" lon="-1.77493">
        <ele>6.1</ele>
        <time>2021-09-25T14:36:42Z</time>
      </trkpt>
      <trkpt lat="46.4914" lon="-1.77492">
        <ele>6.1</ele>
        <time>2021-09-25T14:36:43Z</time>
      </trkpt>
      <trkpt lat="46.49139" lon="-1.7749">
        <ele>6.1</ele>
        <time>2021-09-25T14:36:44Z</time>
      </trkpt>
      <trkpt lat="46.49138" lon="-1.77489">
        <ele>6.1</ele>
        <time>2021-09-25T14:36:45Z</time>
      </trkpt>
      <trkpt lat="46.49137" lon="-1.77488">
        <ele>6.1</ele>
        <time>2021-09-25T14:36:46Z</time>
      </trkpt>
      <trkpt lat="46.49137" lon="-1.77487">
        <ele>6.1</ele>
        <time>2021-09-25T14:36:47Z</time>
      </trkpt>
      <trkpt lat="46.49136" lon="-1.77486">
        <ele>6.1</ele>
        <time>2021-09-25T14:36:48Z</time>
      </trkpt>
      <trkpt lat="46.49135" lon="-1.77485">
        <ele>6.1</ele>
        <time>2021-09-25T14:36:49Z</time>
      </trkpt>
      <trkpt lat="46.49135" lon="-1.77484">
        <ele>6.1</ele>
        <time>2021-09-25T14:36:50Z</time>
      </trkpt>
      <trkpt lat="46.49134" lon="-1.77483">
        <ele>6.1</ele>
        <time>2021-09-25T14:36:51Z</time>
      </trkpt>
      <trkpt lat="46.49133" lon="-1.77481">
        <ele>6.1</ele>
        <time>2021-09-25T14:36:52Z</time>
      </trkpt>
      <trkpt lat="46.49132" lon="-1.7748">
        <ele>6.1</ele>
        <time>2021-09-25T14:36:53Z</time>
      </trkpt>
      <trkpt lat="46.49132" lon="-1.77479">
        <ele>6.1</ele>
        <time>2021-09-25T14:36:54Z</time>
      </trkpt>
      <trkpt lat="46.49131" lon="-1.77478">
        <ele>6.1</ele>
        <time>2021-09-25T14:36:55Z</time>
      </trkpt>
      <trkpt lat="46.4913" lon="-1.77477">
        <ele>6.1</ele>
        <time>2021-09-25T14:36:56Z</time>
      </trkpt>
      <trkpt lat="46.49129" lon="-1.77476">
        <ele>6.1</ele>
        <time>2021-09-25T14:36:57Z</time>
      </trkpt>
      <trkpt lat="46.49129" lon="-1.77475">
        <ele>6.2</ele>
        <time>2021-09-25T14:36:58Z</time>
      </trkpt>
      <trkpt lat="46.49128" lon="-1.77474">
        <ele>6.2</ele>
        <time>2021-09-25T14:36:59Z</time>
      </trkpt>
      <trkpt lat="46.49127" lon="-1.77473">
        <ele>6.2</ele>
        <time>2021-09-25T14:37:00Z</time>
      </trkpt>
      <trkpt lat="46.49127" lon="-1.77472">
        <ele>6.2</ele>
        <time>2021-09-25T14:37:01Z</time>
      </trkpt>
      <trkpt lat="46.49126" lon="-1.77471">
        <ele>6.2</ele>
        <time>2021-09-25T14:37:02Z</time>
      </trkpt>
      <trkpt lat="46.49125" lon="-1.7747">
        <ele>6.2</ele>
        <time>2021-09-25T14:37:03Z</time>
      </trkpt>
      <trkpt lat="46.49124" lon="-1.77469">
        <ele>6.2</ele>
        <time>2021-09-25T14:37:04Z</time>
      </trkpt>
      <trkpt lat="46.49124" lon="-1.77468">
        <ele>6.2</ele>
        <time>2021-09-25T14:37:05Z</time>
      </trkpt>
      <trkpt lat="46.49123" lon="-1.77467">
        <ele>6.2</ele>
        <time>2021-09-25T14:37:06Z</time>
      </trkpt>
      <trkpt lat="46.49123" lon="-1.77466">
        <ele>6.2</ele>
        <time>2021-09-25T14:37:07Z</time>
      </trkpt>
      <trkpt lat="46.49122" lon="-1.77465">
        <ele>6.2</ele>
        <time>2021-09-25T14:37:08Z</time>
      </trkpt>
      <trkpt lat="46.49122" lon="-1.77464">
        <ele>6.2</ele>
        <time>2021-09-25T14:37:09Z</time>
      </trkpt>
      <trkpt lat="46.49121" lon="-1.77463">
        <ele>6.2</ele>
        <time>2021-09-25T14:37:10Z</time>
      </trkpt>
      <trkpt lat="46.49121" lon="-1.77462">
        <ele>6.2</ele>
        <time>2021-09-25T14:37:11Z</time>
      </trkpt>
      <trkpt lat="46.49121" lon="-1.7746">
        <ele>6.2</ele>
        <time>2021-09-25T14:37:12Z</time>
      </trkpt>
      <trkpt lat="46.49121" lon="-1.77459">
        <ele>6.2</ele>
        <time>2021-09-25T14:37:13Z</time>
      </trkpt>
      <trkpt lat="46.49121" lon="-1.77458">
        <ele>6.2</ele>
        <time>2021-09-25T14:37:14Z</time>
      </trkpt>
      <trkpt lat="46.49121" lon="-1.77456">
        <ele>6.2</ele>
        <time>2021-09-25T14:37:15Z</time>
      </trkpt>
      <trkpt lat="46.49121" lon="-1.77455">
        <ele>6.2</ele>
        <time>2021-09-25T14:37:16Z</time>
      </trkpt>
      <trkpt lat="46.49121" lon="-1.77453">
        <ele>6.2</ele>
        <time>2021-09-25T14:37:17Z</time>
      </trkpt>
      <trkpt lat="46.49121" lon="-1.77451">
        <ele>6.2</ele>
        <time>2021-09-25T14:37:18Z</time>
      </trkpt>
      <trkpt lat="46.49121" lon="-1.7745">
        <ele>6.2</ele>
        <time>2021-09-25T14:37:19Z</time>
      </trkpt>
      <trkpt lat="46.49121" lon="-1.77448">
        <ele>6.2</ele>
        <time>2021-09-25T14:37:20Z</time>
      </trkpt>
      <trkpt lat="46.49121" lon="-1.77447">
        <ele>6.2</ele>
        <time>2021-09-25T14:37:21Z</time>
      </trkpt>
      <trkpt lat="46.49121" lon="-1.77445">
        <ele>6.2</ele>
        <time>2021-09-25T14:37:22Z</time>
      </trkpt>
      <trkpt lat="46.49121" lon="-1.77444">
        <ele>6.2</ele>
        <time>2021-09-25T14:37:23Z</time>
      </trkpt>
      <trkpt lat="46.4912" lon="-1.77442">
        <ele>6.2</ele>
        <time>2021-09-25T14:37:24Z</time>
      </trkpt>
      <trkpt lat="46.4912" lon="-1.7744">
        <ele>6.2</ele>
        <time>2021-09-25T14:37:25Z</time>
      </trkpt>
      <trkpt lat="46.49119" lon="-1.77439">
        <ele>6.2</ele>
        <time>2021-09-25T14:37:26Z</time>
      </trkpt>
      <trkpt lat="46.49119" lon="-1.77438">
        <ele>6.2</ele>
        <time>2021-09-25T14:37:27Z</time>
      </trkpt>
      <trkpt lat="46.49119" lon="-1.77436">
        <ele>6.2</ele>
        <time>2021-09-25T14:37:28Z</time>
      </trkpt>
      <trkpt lat="46.49118" lon="-1.77435">
        <ele>6.2</ele>
        <time>2021-09-25T14:37:29Z</time>
      </trkpt>
      <trkpt lat="46.49118" lon="-1.77433">
        <ele>6.3</ele>
        <time>2021-09-25T14:37:30Z</time>
      </trkpt>
      <trkpt lat="46.49117" lon="-1.77432">
        <ele>6.3</ele>
        <time>2021-09-25T14:37:31Z</time>
      </trkpt>
      <trkpt lat="46.49117" lon="-1.77431">
        <ele>6.3</ele>
        <time>2021-09-25T14:37:32Z</time>
      </trkpt>
      <trkpt lat="46.49116" lon="-1.7743">
        <ele>6.3</ele>
        <time>2021-09-25T14:37:33Z</time>
      </trkpt>
      <trkpt lat="46.49116" lon="-1.77429">
        <ele>6.3</ele>
        <time>2021-09-25T14:37:34Z</time>
      </trkpt>
      <trkpt lat="46.49116" lon="-1.77428">
        <ele>6.3</ele>
        <time>2021-09-25T14:37:35Z</time>
      </trkpt>
      <trkpt lat="46.49115" lon="-1.77426">
        <ele>6.3</ele>
        <time>2021-09-25T14:37:36Z</time>
      </trkpt>
      <trkpt lat="46.49115" lon="-1.77425">
        <ele>6.3</ele>
        <time>2021-09-25T14:37:37Z</time>
      </trkpt>
      <trkpt lat="46.49114" lon="-1.77424">
        <ele>6.3</ele>
        <time>2021-09-25T14:37:38Z</time>
      </trkpt>
      <trkpt lat="46.49114" lon="-1.77423">
        <ele>6.3</ele>
        <time>2021-09-25T14:37:39Z</time>
      </trkpt>
      <trkpt lat="46.49114" lon="-1.77422">
        <ele>6.3</ele>
        <time>2021-09-25T14:37:40Z</time>
      </trkpt>
      <trkpt lat="46.49113" lon="-1.7742">
        <ele>6.3</ele>
        <time>2021-09-25T14:37:41Z</time>
      </trkpt>
      <trkpt lat="46.49113" lon="-1.77419">
        <ele>6.4</ele>
        <time>2021-09-25T14:37:42Z</time>
      </trkpt>
      <trkpt lat="46.49112" lon="-1.77418">
        <ele>6.4</ele>
        <time>2021-09-25T14:37:43Z</time>
      </trkpt>
      <trkpt lat="46.49112" lon="-1.77416">
        <ele>6.4</ele>
        <time>2021-09-25T14:37:44Z</time>
      </trkpt>
      <trkpt lat="46.49111" lon="-1.77415">
        <ele>6.4</ele>
        <time>2021-09-25T14:37:45Z</time>
      </trkpt>
      <trkpt lat="46.49111" lon="-1.77413">
        <ele>6.4</ele>
        <time>2021-09-25T14:37:46Z</time>
      </trkpt>
      <trkpt lat="46.4911" lon="-1.77412">
        <ele>6.4</ele>
        <time>2021-09-25T14:37:47Z</time>
      </trkpt>
      <trkpt lat="46.4911" lon="-1.7741">
        <ele>6.4</ele>
        <time>2021-09-25T14:37:48Z</time>
      </trkpt>
      <trkpt lat="46.4911" lon="-1.77408">
        <ele>6.4</ele>
        <time>2021-09-25T14:37:49Z</time>
      </trkpt>
      <trkpt lat="46.49109" lon="-1.77407">
        <ele>6.4</ele>
        <time>2021-09-25T14:37:50Z</time>
      </trkpt>
      <trkpt lat="46.49109" lon="-1.77405">
        <ele>6.5</ele>
        <time>2021-09-25T14:37:51Z</time>
      </trkpt>
      <trkpt lat="46.49109" lon="-1.77403">
        <ele>6.5</ele>
        <time>2021-09-25T14:37:52Z</time>
      </trkpt>
      <trkpt lat="46.49108" lon="-1.77401">
        <ele>6.5</ele>
        <time>2021-09-25T14:37:53Z</time>
      </trkpt>
      <trkpt lat="46.49108" lon="-1.774">
        <ele>6.5</ele>
        <time>2021-09-25T14:37:54Z</time>
      </trkpt>
      <trkpt lat="46.49108" lon="-1.77398">
        <ele>6.5</ele>
        <time>2021-09-25T14:37:55Z</time>
      </trkpt>
      <trkpt lat="46.49107" lon="-1.77396">
        <ele>6.5</ele>
        <time>2021-09-25T14:37:56Z</time>
      </trkpt>
      <trkpt lat="46.49107" lon="-1.77395">
        <ele>6.5</ele>
        <time>2021-09-25T14:37:57Z</time>
      </trkpt>
      <trkpt lat="46.49107" lon="-1.77393">
        <ele>6.5</ele>
        <time>2021-09-25T14:37:58Z</time>
      </trkpt>
      <trkpt lat="46.49107" lon="-1.77391">
        <ele>6.6</ele>
        <time>2021-09-25T14:37:59Z</time>
      </trkpt>
      <trkpt lat="46.49106" lon="-1.7739">
        <ele>6.6</ele>
        <time>2021-09-25T14:38:00Z</time>
      </trkpt>
      <trkpt lat="46.49106" lon="-1.77388">
        <ele>6.6</ele>
        <time>2021-09-25T14:38:01Z</time>
      </trkpt>
      <trkpt lat="46.49106" lon="-1.77387">
        <ele>6.6</ele>
        <time>2021-09-25T14:38:02Z</time>
      </trkpt>
      <trkpt lat="46.49105" lon="-1.77385">
        <ele>6.6</ele>
        <time>2021-09-25T14:38:03Z</time>
      </trkpt>
      <trkpt lat="46.49105" lon="-1.77383">
        <ele>6.6</ele>
        <time>2021-09-25T14:38:04Z</time>
      </trkpt>
      <trkpt lat="46.49104" lon="-1.77382">
        <ele>6.6</ele>
        <time>2021-09-25T14:38:05Z</time>
      </trkpt>
      <trkpt lat="46.49104" lon="-1.77381">
        <ele>6.6</ele>
        <time>2021-09-25T14:38:06Z</time>
      </trkpt>
      <trkpt lat="46.49103" lon="-1.77379">
        <ele>6.7</ele>
        <time>2021-09-25T14:38:07Z</time>
      </trkpt>
      <trkpt lat="46.49103" lon="-1.77378">
        <ele>6.7</ele>
        <time>2021-09-25T14:38:08Z</time>
      </trkpt>
      <trkpt lat="46.49103" lon="-1.77376">
        <ele>6.7</ele>
        <time>2021-09-25T14:38:09Z</time>
      </trkpt>
      <trkpt lat="46.49102" lon="-1.77375">
        <ele>6.7</ele>
        <time>2021-09-25T14:38:10Z</time>
      </trkpt>
      <trkpt lat="46.49102" lon="-1.77374">
        <ele>6.7</ele>
        <time>2021-09-25T14:38:11Z</time>
      </trkpt>
      <trkpt lat="46.49101" lon="-1.77372">
        <ele>6.7</ele>
        <time>2021-09-25T14:38:12Z</time>
      </trkpt>
      <trkpt lat="46.49101" lon="-1.77371">
        <ele>6.7</ele>
        <time>2021-09-25T14:38:13Z</time>
      </trkpt>
      <trkpt lat="46.491" lon="-1.77369">
        <ele>6.7</ele>
        <time>2021-09-25T14:38:14Z</time>
      </trkpt>
      <trkpt lat="46.49099" lon="-1.77368">
        <ele>6.7</ele>
        <time>2021-09-25T14:38:15Z</time>
      </trkpt>
      <trkpt lat="46.49099" lon="-1.77367">
        <ele>6.7</ele>
        <time>2021-09-25T14:38:16Z</time>
      </trkpt>
      <trkpt lat="46.49098" lon="-1.77365">
        <ele>6.8</ele>
        <time>2021-09-25T14:38:17Z</time>
      </trkpt>
      <trkpt lat="46.49098" lon="-1.77364">
        <ele>6.8</ele>
        <time>2021-09-25T14:38:18Z</time>
      </trkpt>
      <trkpt lat="46.49097" lon="-1.77363">
        <ele>6.8</ele>
        <time>2021-09-25T14:38:19Z</time>
      </trkpt>
      <trkpt lat="46.49097" lon="-1.77361">
        <ele>6.8</ele>
        <time>2021-09-25T14:38:20Z</time>
      </trkpt>
      <trkpt lat="46.49096" lon="-1.7736">
        <ele>6.8</ele>
        <time>2021-09-25T14:38:21Z</time>
      </trkpt>
      <trkpt lat="46.49095" lon="-1.77358">
        <ele>6.8</ele>
        <time>2021-09-25T14:38:22Z</time>
      </trkpt>
      <trkpt lat="46.49095" lon="-1.77357">
        <ele>6.8</ele>
        <time>2021-09-25T14:38:23Z</time>
      </trkpt>
      <trkpt lat="46.49094" lon="-1.77356">
        <ele>6.8</ele>
        <time>2021-09-25T14:38:24Z</time>
      </trkpt>
      <trkpt lat="46.49093" lon="-1.77354">
        <ele>6.8</ele>
        <time>2021-09-25T14:38:25Z</time>
      </trkpt>
      <trkpt lat="46.49093" lon="-1.77353">
        <ele>6.8</ele>
        <time>2021-09-25T14:38:26Z</time>
      </trkpt>
      <trkpt lat="46.49092" lon="-1.77351">
        <ele>6.8</ele>
        <time>2021-09-25T14:38:27Z</time>
      </trkpt>
      <trkpt lat="46.49091" lon="-1.7735">
        <ele>6.8</ele>
        <time>2021-09-25T14:38:28Z</time>
      </trkpt>
      <trkpt lat="46.49091" lon="-1.77349">
        <ele>6.8</ele>
        <time>2021-09-25T14:38:29Z</time>
      </trkpt>
      <trkpt lat="46.4909" lon="-1.77347">
        <ele>6.9</ele>
        <time>2021-09-25T14:38:30Z</time>
      </trkpt>
      <trkpt lat="46.49089" lon="-1.77346">
        <ele>6.9</ele>
        <time>2021-09-25T14:38:31Z</time>
      </trkpt>
      <trkpt lat="46.49089" lon="-1.77344">
        <ele>6.9</ele>
        <time>2021-09-25T14:38:32Z</time>
      </trkpt>
      <trkpt lat="46.49088" lon="-1.77343">
        <ele>6.9</ele>
        <time>2021-09-25T14:38:33Z</time>
      </trkpt>
      <trkpt lat="46.49088" lon="-1.77341">
        <ele>6.9</ele>
        <time>2021-09-25T14:38:34Z</time>
      </trkpt>
      <trkpt lat="46.49087" lon="-1.7734">
        <ele>6.9</ele>
        <time>2021-09-25T14:38:35Z</time>
      </trkpt>
      <trkpt lat="46.49086" lon="-1.77338">
        <ele>6.9</ele>
        <time>2021-09-25T14:38:36Z</time>
      </trkpt>
      <trkpt lat="46.49086" lon="-1.77337">
        <ele>6.9</ele>
        <time>2021-09-25T14:38:37Z</time>
      </trkpt>
      <trkpt lat="46.49085" lon="-1.77335">
        <ele>7</ele>
        <time>2021-09-25T14:38:38Z</time>
      </trkpt>
      <trkpt lat="46.49085" lon="-1.77334">
        <ele>7</ele>
        <time>2021-09-25T14:38:39Z</time>
      </trkpt>
      <trkpt lat="46.49084" lon="-1.77332">
        <ele>7</ele>
        <time>2021-09-25T14:38:40Z</time>
      </trkpt>
      <trkpt lat="46.49084" lon="-1.77331">
        <ele>7</ele>
        <time>2021-09-25T14:38:41Z</time>
      </trkpt>
      <trkpt lat="46.49083" lon="-1.77329">
        <ele>7</ele>
        <time>2021-09-25T14:38:42Z</time>
      </trkpt>
      <trkpt lat="46.49083" lon="-1.77328">
        <ele>7</ele>
        <time>2021-09-25T14:38:43Z</time>
      </trkpt>
      <trkpt lat="46.49082" lon="-1.77326">
        <ele>7</ele>
        <time>2021-09-25T14:38:44Z</time>
      </trkpt>
      <trkpt lat="46.49082" lon="-1.77325">
        <ele>7.1</ele>
        <time>2021-09-25T14:38:45Z</time>
      </trkpt>
      <trkpt lat="46.49081" lon="-1.77323">
        <ele>7.1</ele>
        <time>2021-09-25T14:38:46Z</time>
      </trkpt>
      <trkpt lat="46.49081" lon="-1.77322">
        <ele>7.1</ele>
        <time>2021-09-25T14:38:47Z</time>
      </trkpt>
      <trkpt lat="46.4908" lon="-1.7732">
        <ele>7.1</ele>
        <time>2021-09-25T14:38:48Z</time>
      </trkpt>
      <trkpt lat="46.4908" lon="-1.77319">
        <ele>7.1</ele>
        <time>2021-09-25T14:38:49Z</time>
      </trkpt>
      <trkpt lat="46.49079" lon="-1.77317">
        <ele>7.1</ele>
        <time>2021-09-25T14:38:50Z</time>
      </trkpt>
      <trkpt lat="46.49079" lon="-1.77316">
        <ele>7.1</ele>
        <time>2021-09-25T14:38:51Z</time>
      </trkpt>
      <trkpt lat="46.49078" lon="-1.77314">
        <ele>7.1</ele>
        <time>2021-09-25T14:38:52Z</time>
      </trkpt>
      <trkpt lat="46.49078" lon="-1.77313">
        <ele>7.2</ele>
        <time>2021-09-25T14:38:53Z</time>
      </trkpt>
      <trkpt lat="46.49077" lon="-1.77311">
        <ele>7.2</ele>
        <time>2021-09-25T14:38:54Z</time>
      </trkpt>
      <trkpt lat="46.49077" lon="-1.7731">
        <ele>7.2</ele>
        <time>2021-09-25T14:38:55Z</time>
      </trkpt>
      <trkpt lat="46.49076" lon="-1.77308">
        <ele>7.2</ele>
        <time>2021-09-25T14:38:56Z</time>
      </trkpt>
      <trkpt lat="46.49076" lon="-1.77307">
        <ele>7.2</ele>
        <time>2021-09-25T14:38:57Z</time>
      </trkpt>
      <trkpt lat="46.49076" lon="-1.77306">
        <ele>7.2</ele>
        <time>2021-09-25T14:38:58Z</time>
      </trkpt>
      <trkpt lat="46.49075" lon="-1.77305">
        <ele>7.2</ele>
        <time>2021-09-25T14:38:59Z</time>
      </trkpt>
      <trkpt lat="46.49075" lon="-1.77304">
        <ele>7.2</ele>
        <time>2021-09-25T14:39:00Z</time>
      </trkpt>
      <trkpt lat="46.49075" lon="-1.77303">
        <ele>7.2</ele>
        <time>2021-09-25T14:39:01Z</time>
      </trkpt>
      <trkpt lat="46.49075" lon="-1.77303">
        <ele>7.2</ele>
        <time>2021-09-25T14:39:02Z</time>
      </trkpt>
      <trkpt lat="46.49074" lon="-1.77303">
        <ele>7.2</ele>
        <time>2021-09-25T14:39:03Z</time>
      </trkpt>
      <trkpt lat="46.49074" lon="-1.77301">
        <ele>7.2</ele>
        <time>2021-09-25T14:39:04Z</time>
      </trkpt>
      <trkpt lat="46.49073" lon="-1.773">
        <ele>7.3</ele>
        <time>2021-09-25T14:39:05Z</time>
      </trkpt>
      <trkpt lat="46.49073" lon="-1.77299">
        <ele>7.3</ele>
        <time>2021-09-25T14:39:06Z</time>
      </trkpt>
      <trkpt lat="46.49073" lon="-1.77298">
        <ele>7.3</ele>
        <time>2021-09-25T14:39:07Z</time>
      </trkpt>
      <trkpt lat="46.49072" lon="-1.77297">
        <ele>7.3</ele>
        <time>2021-09-25T14:39:08Z</time>
      </trkpt>
      <trkpt lat="46.49072" lon="-1.77296">
        <ele>7.3</ele>
        <time>2021-09-25T14:39:09Z</time>
      </trkpt>
      <trkpt lat="46.49072" lon="-1.77294">
        <ele>7.3</ele>
        <time>2021-09-25T14:39:10Z</time>
      </trkpt>
      <trkpt lat="46.49071" lon="-1.77293">
        <ele>7.3</ele>
        <time>2021-09-25T14:39:11Z</time>
      </trkpt>
      <trkpt lat="46.49071" lon="-1.77292">
        <ele>7.3</ele>
        <time>2021-09-25T14:39:12Z</time>
      </trkpt>
      <trkpt lat="46.49071" lon="-1.77291">
        <ele>7.3</ele>
        <time>2021-09-25T14:39:13Z</time>
      </trkpt>
      <trkpt lat="46.4907" lon="-1.7729">
        <ele>7.3</ele>
        <time>2021-09-25T14:39:14Z</time>
      </trkpt>
      <trkpt lat="46.4907" lon="-1.77289">
        <ele>7.3</ele>
        <time>2021-09-25T14:39:15Z</time>
      </trkpt>
      <trkpt lat="46.49069" lon="-1.77288">
        <ele>7.3</ele>
        <time>2021-09-25T14:39:16Z</time>
      </trkpt>
      <trkpt lat="46.49069" lon="-1.77287">
        <ele>7.3</ele>
        <time>2021-09-25T14:39:17Z</time>
      </trkpt>
      <trkpt lat="46.49069" lon="-1.77285">
        <ele>7.4</ele>
        <time>2021-09-25T14:39:18Z</time>
      </trkpt>
      <trkpt lat="46.49068" lon="-1.77284">
        <ele>7.4</ele>
        <time>2021-09-25T14:39:19Z</time>
      </trkpt>
      <trkpt lat="46.49068" lon="-1.77283">
        <ele>7.4</ele>
        <time>2021-09-25T14:39:20Z</time>
      </trkpt>
      <trkpt lat="46.49068" lon="-1.77282">
        <ele>7.4</ele>
        <time>2021-09-25T14:39:21Z</time>
      </trkpt>
      <trkpt lat="46.49067" lon="-1.77281">
        <ele>7.4</ele>
        <time>2021-09-25T14:39:22Z</time>
      </trkpt>
      <trkpt lat="46.49067" lon="-1.7728">
        <ele>7.4</ele>
        <time>2021-09-25T14:39:23Z</time>
      </trkpt>
      <trkpt lat="46.49067" lon="-1.77279">
        <ele>7.4</ele>
        <time>2021-09-25T14:39:24Z</time>
      </trkpt>
      <trkpt lat="46.49066" lon="-1.77278">
        <ele>7.4</ele>
        <time>2021-09-25T14:39:25Z</time>
      </trkpt>
      <trkpt lat="46.49066" lon="-1.77276">
        <ele>7.4</ele>
        <time>2021-09-25T14:39:26Z</time>
      </trkpt>
      <trkpt lat="46.49065" lon="-1.77275">
        <ele>7.4</ele>
        <time>2021-09-25T14:39:27Z</time>
      </trkpt>
      <trkpt lat="46.49065" lon="-1.77274">
        <ele>7.4</ele>
        <time>2021-09-25T14:39:28Z</time>
      </trkpt>
      <trkpt lat="46.49065" lon="-1.77273">
        <ele>7.4</ele>
        <time>2021-09-25T14:39:29Z</time>
      </trkpt>
      <trkpt lat="46.49064" lon="-1.77272">
        <ele>7.4</ele>
        <time>2021-09-25T14:39:30Z</time>
      </trkpt>
      <trkpt lat="46.49064" lon="-1.77271">
        <ele>7.4</ele>
        <time>2021-09-25T14:39:31Z</time>
      </trkpt>
      <trkpt lat="46.49064" lon="-1.7727">
        <ele>7.4</ele>
        <time>2021-09-25T14:39:32Z</time>
      </trkpt>
      <trkpt lat="46.49063" lon="-1.77268">
        <ele>7.4</ele>
        <time>2021-09-25T14:39:33Z</time>
      </trkpt>
      <trkpt lat="46.49063" lon="-1.77267">
        <ele>7.4</ele>
        <time>2021-09-25T14:39:34Z</time>
      </trkpt>
      <trkpt lat="46.49063" lon="-1.77266">
        <ele>7.4</ele>
        <time>2021-09-25T14:39:35Z</time>
      </trkpt>
      <trkpt lat="46.49062" lon="-1.77265">
        <ele>7.5</ele>
        <time>2021-09-25T14:39:36Z</time>
      </trkpt>
      <trkpt lat="46.49062" lon="-1.77264">
        <ele>7.5</ele>
        <time>2021-09-25T14:39:37Z</time>
      </trkpt>
      <trkpt lat="46.49062" lon="-1.77263">
        <ele>7.5</ele>
        <time>2021-09-25T14:39:38Z</time>
      </trkpt>
      <trkpt lat="46.49061" lon="-1.77262">
        <ele>7.5</ele>
        <time>2021-09-25T14:39:39Z</time>
      </trkpt>
      <trkpt lat="46.49061" lon="-1.77261">
        <ele>7.5</ele>
        <time>2021-09-25T14:39:40Z</time>
      </trkpt>
      <trkpt lat="46.4906" lon="-1.77259">
        <ele>7.4</ele>
        <time>2021-09-25T14:39:41Z</time>
      </trkpt>
      <trkpt lat="46.4906" lon="-1.77258">
        <ele>7.4</ele>
        <time>2021-09-25T14:39:42Z</time>
      </trkpt>
      <trkpt lat="46.4906" lon="-1.77257">
        <ele>7.4</ele>
        <time>2021-09-25T14:39:43Z</time>
      </trkpt>
      <trkpt lat="46.49059" lon="-1.77256">
        <ele>7.4</ele>
        <time>2021-09-25T14:39:44Z</time>
      </trkpt>
      <trkpt lat="46.49059" lon="-1.77255">
        <ele>7.4</ele>
        <time>2021-09-25T14:39:45Z</time>
      </trkpt>
      <trkpt lat="46.49059" lon="-1.77254">
        <ele>7.4</ele>
        <time>2021-09-25T14:39:46Z</time>
      </trkpt>
      <trkpt lat="46.49058" lon="-1.77253">
        <ele>7.4</ele>
        <time>2021-09-25T14:39:47Z</time>
      </trkpt>
      <trkpt lat="46.49058" lon="-1.77252">
        <ele>7.4</ele>
        <time>2021-09-25T14:39:48Z</time>
      </trkpt>
      <trkpt lat="46.49058" lon="-1.7725">
        <ele>7.4</ele>
        <time>2021-09-25T14:39:49Z</time>
      </trkpt>
      <trkpt lat="46.49057" lon="-1.77249">
        <ele>7.4</ele>
        <time>2021-09-25T14:39:50Z</time>
      </trkpt>
      <trkpt lat="46.49057" lon="-1.77248">
        <ele>7.4</ele>
        <time>2021-09-25T14:39:51Z</time>
      </trkpt>
      <trkpt lat="46.49056" lon="-1.77247">
        <ele>7.4</ele>
        <time>2021-09-25T14:39:52Z</time>
      </trkpt>
      <trkpt lat="46.49056" lon="-1.77246">
        <ele>7.4</ele>
        <time>2021-09-25T14:39:53Z</time>
      </trkpt>
      <trkpt lat="46.49056" lon="-1.77245">
        <ele>7.4</ele>
        <time>2021-09-25T14:39:54Z</time>
      </trkpt>
      <trkpt lat="46.49054" lon="-1.77244">
        <ele>7.4</ele>
        <time>2021-09-25T14:39:55Z</time>
      </trkpt>
      <trkpt lat="46.49053" lon="-1.77243">
        <ele>7.4</ele>
        <time>2021-09-25T14:39:56Z</time>
      </trkpt>
      <trkpt lat="46.49051" lon="-1.77242">
        <ele>7.4</ele>
        <time>2021-09-25T14:39:57Z</time>
      </trkpt>
      <trkpt lat="46.4905" lon="-1.77241">
        <ele>7.3</ele>
        <time>2021-09-25T14:39:58Z</time>
      </trkpt>
      <trkpt lat="46.49049" lon="-1.7724">
        <ele>7.3</ele>
        <time>2021-09-25T14:39:59Z</time>
      </trkpt>
      <trkpt lat="46.49048" lon="-1.77239">
        <ele>7.3</ele>
        <time>2021-09-25T14:40:00Z</time>
      </trkpt>
      <trkpt lat="46.49047" lon="-1.77238">
        <ele>7.3</ele>
        <time>2021-09-25T14:40:01Z</time>
      </trkpt>
      <trkpt lat="46.49046" lon="-1.77236">
        <ele>7.3</ele>
        <time>2021-09-25T14:40:02Z</time>
      </trkpt>
      <trkpt lat="46.49045" lon="-1.77235">
        <ele>7.3</ele>
        <time>2021-09-25T14:40:03Z</time>
      </trkpt>
      <trkpt lat="46.49044" lon="-1.77234">
        <ele>7.3</ele>
        <time>2021-09-25T14:40:04Z</time>
      </trkpt>
      <trkpt lat="46.49043" lon="-1.77232">
        <ele>7.3</ele>
        <time>2021-09-25T14:40:05Z</time>
      </trkpt>
      <trkpt lat="46.49043" lon="-1.77231">
        <ele>7.3</ele>
        <time>2021-09-25T14:40:06Z</time>
      </trkpt>
      <trkpt lat="46.49042" lon="-1.77229">
        <ele>7.3</ele>
        <time>2021-09-25T14:40:07Z</time>
      </trkpt>
      <trkpt lat="46.49041" lon="-1.77228">
        <ele>7.2</ele>
        <time>2021-09-25T14:40:08Z</time>
      </trkpt>
      <trkpt lat="46.49041" lon="-1.77226">
        <ele>7.2</ele>
        <time>2021-09-25T14:40:09Z</time>
      </trkpt>
      <trkpt lat="46.4904" lon="-1.77225">
        <ele>7.2</ele>
        <time>2021-09-25T14:40:10Z</time>
      </trkpt>
      <trkpt lat="46.4904" lon="-1.77223">
        <ele>7.2</ele>
        <time>2021-09-25T14:40:11Z</time>
      </trkpt>
      <trkpt lat="46.49039" lon="-1.77222">
        <ele>7.2</ele>
        <time>2021-09-25T14:40:12Z</time>
      </trkpt>
      <trkpt lat="46.49039" lon="-1.7722">
        <ele>7.2</ele>
        <time>2021-09-25T14:40:13Z</time>
      </trkpt>
      <trkpt lat="46.49038" lon="-1.77219">
        <ele>7.2</ele>
        <time>2021-09-25T14:40:14Z</time>
      </trkpt>
      <trkpt lat="46.49038" lon="-1.77217">
        <ele>7.2</ele>
        <time>2021-09-25T14:40:15Z</time>
      </trkpt>
      <trkpt lat="46.49037" lon="-1.77216">
        <ele>7.2</ele>
        <time>2021-09-25T14:40:16Z</time>
      </trkpt>
      <trkpt lat="46.49037" lon="-1.77214">
        <ele>7.2</ele>
        <time>2021-09-25T14:40:17Z</time>
      </trkpt>
      <trkpt lat="46.49036" lon="-1.77213">
        <ele>7.2</ele>
        <time>2021-09-25T14:40:18Z</time>
      </trkpt>
      <trkpt lat="46.49036" lon="-1.77211">
        <ele>7.2</ele>
        <time>2021-09-25T14:40:19Z</time>
      </trkpt>
      <trkpt lat="46.49036" lon="-1.7721">
        <ele>7.2</ele>
        <time>2021-09-25T14:40:20Z</time>
      </trkpt>
      <trkpt lat="46.49035" lon="-1.77209">
        <ele>7.2</ele>
        <time>2021-09-25T14:40:21Z</time>
      </trkpt>
      <trkpt lat="46.49035" lon="-1.77207">
        <ele>7.2</ele>
        <time>2021-09-25T14:40:22Z</time>
      </trkpt>
      <trkpt lat="46.49034" lon="-1.77206">
        <ele>7.2</ele>
        <time>2021-09-25T14:40:23Z</time>
      </trkpt>
      <trkpt lat="46.49034" lon="-1.77205">
        <ele>7.2</ele>
        <time>2021-09-25T14:40:24Z</time>
      </trkpt>
      <trkpt lat="46.49033" lon="-1.77203">
        <ele>7.2</ele>
        <time>2021-09-25T14:40:25Z</time>
      </trkpt>
      <trkpt lat="46.49033" lon="-1.77202">
        <ele>7.2</ele>
        <time>2021-09-25T14:40:26Z</time>
      </trkpt>
      <trkpt lat="46.49032" lon="-1.77201">
        <ele>7.2</ele>
        <time>2021-09-25T14:40:27Z</time>
      </trkpt>
      <trkpt lat="46.49032" lon="-1.77199">
        <ele>7.2</ele>
        <time>2021-09-25T14:40:28Z</time>
      </trkpt>
      <trkpt lat="46.49031" lon="-1.77198">
        <ele>7.2</ele>
        <time>2021-09-25T14:40:29Z</time>
      </trkpt>
      <trkpt lat="46.49031" lon="-1.77197">
        <ele>7.2</ele>
        <time>2021-09-25T14:40:30Z</time>
      </trkpt>
      <trkpt lat="46.4903" lon="-1.77196">
        <ele>7.2</ele>
        <time>2021-09-25T14:40:31Z</time>
      </trkpt>
      <trkpt lat="46.4903" lon="-1.77194">
        <ele>7.2</ele>
        <time>2021-09-25T14:40:32Z</time>
      </trkpt>
      <trkpt lat="46.49029" lon="-1.77193">
        <ele>7.2</ele>
        <time>2021-09-25T14:40:33Z</time>
      </trkpt>
      <trkpt lat="46.49029" lon="-1.77192">
        <ele>7.2</ele>
        <time>2021-09-25T14:40:34Z</time>
      </trkpt>
      <trkpt lat="46.49028" lon="-1.77191">
        <ele>7.2</ele>
        <time>2021-09-25T14:40:35Z</time>
      </trkpt>
      <trkpt lat="46.49027" lon="-1.77189">
        <ele>7.2</ele>
        <time>2021-09-25T14:40:36Z</time>
      </trkpt>
      <trkpt lat="46.49027" lon="-1.77188">
        <ele>7.2</ele>
        <time>2021-09-25T14:40:37Z</time>
      </trkpt>
      <trkpt lat="46.49026" lon="-1.77187">
        <ele>7.2</ele>
        <time>2021-09-25T14:40:38Z</time>
      </trkpt>
      <trkpt lat="46.49026" lon="-1.77186">
        <ele>7.2</ele>
        <time>2021-09-25T14:40:39Z</time>
      </trkpt>
      <trkpt lat="46.49025" lon="-1.77185">
        <ele>7.2</ele>
        <time>2021-09-25T14:40:40Z</time>
      </trkpt>
      <trkpt lat="46.49024" lon="-1.77183">
        <ele>7.2</ele>
        <time>2021-09-25T14:40:41Z</time>
      </trkpt>
      <trkpt lat="46.49024" lon="-1.77182">
        <ele>7.2</ele>
        <time>2021-09-25T14:40:42Z</time>
      </trkpt>
      <trkpt lat="46.49023" lon="-1.77181">
        <ele>7.1</ele>
        <time>2021-09-25T14:40:43Z</time>
      </trkpt>
      <trkpt lat="46.49022" lon="-1.7718">
        <ele>7.1</ele>
        <time>2021-09-25T14:40:44Z</time>
      </trkpt>
      <trkpt lat="46.49022" lon="-1.77179">
        <ele>7.1</ele>
        <time>2021-09-25T14:40:45Z</time>
      </trkpt>
      <trkpt lat="46.49021" lon="-1.77177">
        <ele>7.1</ele>
        <time>2021-09-25T14:40:46Z</time>
      </trkpt>
      <trkpt lat="46.4902" lon="-1.77176">
        <ele>7.1</ele>
        <time>2021-09-25T14:40:47Z</time>
      </trkpt>
      <trkpt lat="46.4902" lon="-1.77175">
        <ele>7.1</ele>
        <time>2021-09-25T14:40:48Z</time>
      </trkpt>
      <trkpt lat="46.49019" lon="-1.77174">
        <ele>7.1</ele>
        <time>2021-09-25T14:40:49Z</time>
      </trkpt>
      <trkpt lat="46.49018" lon="-1.77172">
        <ele>7.1</ele>
        <time>2021-09-25T14:40:50Z</time>
      </trkpt>
      <trkpt lat="46.49017" lon="-1.77171">
        <ele>7.1</ele>
        <time>2021-09-25T14:40:51Z</time>
      </trkpt>
      <trkpt lat="46.49017" lon="-1.7717">
        <ele>7.1</ele>
        <time>2021-09-25T14:40:52Z</time>
      </trkpt>
      <trkpt lat="46.49016" lon="-1.77168">
        <ele>7.1</ele>
        <time>2021-09-25T14:40:53Z</time>
      </trkpt>
      <trkpt lat="46.49015" lon="-1.77167">
        <ele>7.1</ele>
        <time>2021-09-25T14:40:54Z</time>
      </trkpt>
      <trkpt lat="46.49015" lon="-1.77166">
        <ele>7.1</ele>
        <time>2021-09-25T14:40:55Z</time>
      </trkpt>
      <trkpt lat="46.49014" lon="-1.77164">
        <ele>7.1</ele>
        <time>2021-09-25T14:40:56Z</time>
      </trkpt>
      <trkpt lat="46.49014" lon="-1.77163">
        <ele>7.1</ele>
        <time>2021-09-25T14:40:57Z</time>
      </trkpt>
      <trkpt lat="46.49013" lon="-1.77162">
        <ele>7.1</ele>
        <time>2021-09-25T14:40:58Z</time>
      </trkpt>
      <trkpt lat="46.49012" lon="-1.7716">
        <ele>7.1</ele>
        <time>2021-09-25T14:40:59Z</time>
      </trkpt>
      <trkpt lat="46.49012" lon="-1.77159">
        <ele>7.1</ele>
        <time>2021-09-25T14:41:00Z</time>
      </trkpt>
      <trkpt lat="46.49011" lon="-1.77158">
        <ele>7.1</ele>
        <time>2021-09-25T14:41:01Z</time>
      </trkpt>
      <trkpt lat="46.49011" lon="-1.77156">
        <ele>7.1</ele>
        <time>2021-09-25T14:41:02Z</time>
      </trkpt>
      <trkpt lat="46.4901" lon="-1.77155">
        <ele>7.1</ele>
        <time>2021-09-25T14:41:03Z</time>
      </trkpt>
      <trkpt lat="46.4901" lon="-1.77154">
        <ele>7.1</ele>
        <time>2021-09-25T14:41:04Z</time>
      </trkpt>
      <trkpt lat="46.49009" lon="-1.77152">
        <ele>7.1</ele>
        <time>2021-09-25T14:41:05Z</time>
      </trkpt>
      <trkpt lat="46.49009" lon="-1.77151">
        <ele>7.1</ele>
        <time>2021-09-25T14:41:06Z</time>
      </trkpt>
      <trkpt lat="46.49009" lon="-1.7715">
        <ele>7.1</ele>
        <time>2021-09-25T14:41:07Z</time>
      </trkpt>
      <trkpt lat="46.49008" lon="-1.77148">
        <ele>7.1</ele>
        <time>2021-09-25T14:41:08Z</time>
      </trkpt>
      <trkpt lat="46.49008" lon="-1.77147">
        <ele>7.1</ele>
        <time>2021-09-25T14:41:09Z</time>
      </trkpt>
      <trkpt lat="46.49007" lon="-1.77146">
        <ele>7.1</ele>
        <time>2021-09-25T14:41:10Z</time>
      </trkpt>
      <trkpt lat="46.49007" lon="-1.77144">
        <ele>7.1</ele>
        <time>2021-09-25T14:41:11Z</time>
      </trkpt>
      <trkpt lat="46.49006" lon="-1.77143">
        <ele>7.1</ele>
        <time>2021-09-25T14:41:12Z</time>
      </trkpt>
      <trkpt lat="46.49006" lon="-1.77142">
        <ele>7.1</ele>
        <time>2021-09-25T14:41:13Z</time>
      </trkpt>
      <trkpt lat="46.49005" lon="-1.77141">
        <ele>7.1</ele>
        <time>2021-09-25T14:41:14Z</time>
      </trkpt>
      <trkpt lat="46.49005" lon="-1.77139">
        <ele>7.1</ele>
        <time>2021-09-25T14:41:15Z</time>
      </trkpt>
      <trkpt lat="46.49004" lon="-1.77138">
        <ele>7.1</ele>
        <time>2021-09-25T14:41:16Z</time>
      </trkpt>
      <trkpt lat="46.49003" lon="-1.77137">
        <ele>7.1</ele>
        <time>2021-09-25T14:41:17Z</time>
      </trkpt>
      <trkpt lat="46.49003" lon="-1.77136">
        <ele>7.1</ele>
        <time>2021-09-25T14:41:18Z</time>
      </trkpt>
      <trkpt lat="46.49002" lon="-1.77135">
        <ele>7.1</ele>
        <time>2021-09-25T14:41:19Z</time>
      </trkpt>
      <trkpt lat="46.49001" lon="-1.77134">
        <ele>7.1</ele>
        <time>2021-09-25T14:41:20Z</time>
      </trkpt>
      <trkpt lat="46.49001" lon="-1.77132">
        <ele>7.1</ele>
        <time>2021-09-25T14:41:21Z</time>
      </trkpt>
      <trkpt lat="46.49" lon="-1.77131">
        <ele>7.1</ele>
        <time>2021-09-25T14:41:22Z</time>
      </trkpt>
      <trkpt lat="46.48999" lon="-1.7713">
        <ele>7.1</ele>
        <time>2021-09-25T14:41:23Z</time>
      </trkpt>
      <trkpt lat="46.48998" lon="-1.77129">
        <ele>7.1</ele>
        <time>2021-09-25T14:41:24Z</time>
      </trkpt>
      <trkpt lat="46.48998" lon="-1.77128">
        <ele>7.1</ele>
        <time>2021-09-25T14:41:25Z</time>
      </trkpt>
      <trkpt lat="46.48997" lon="-1.77126">
        <ele>7.1</ele>
        <time>2021-09-25T14:41:26Z</time>
      </trkpt>
      <trkpt lat="46.48996" lon="-1.77125">
        <ele>7.1</ele>
        <time>2021-09-25T14:41:27Z</time>
      </trkpt>
      <trkpt lat="46.48996" lon="-1.77124">
        <ele>7.1</ele>
        <time>2021-09-25T14:41:28Z</time>
      </trkpt>
      <trkpt lat="46.48995" lon="-1.77122">
        <ele>7.1</ele>
        <time>2021-09-25T14:41:29Z</time>
      </trkpt>
      <trkpt lat="46.48994" lon="-1.77121">
        <ele>7.1</ele>
        <time>2021-09-25T14:41:30Z</time>
      </trkpt>
      <trkpt lat="46.48993" lon="-1.7712">
        <ele>7.1</ele>
        <time>2021-09-25T14:41:31Z</time>
      </trkpt>
      <trkpt lat="46.48993" lon="-1.77118">
        <ele>7.1</ele>
        <time>2021-09-25T14:41:32Z</time>
      </trkpt>
      <trkpt lat="46.48992" lon="-1.77116">
        <ele>7.1</ele>
        <time>2021-09-25T14:41:33Z</time>
      </trkpt>
      <trkpt lat="46.48991" lon="-1.77115">
        <ele>7.1</ele>
        <time>2021-09-25T14:41:34Z</time>
      </trkpt>
      <trkpt lat="46.48991" lon="-1.77114">
        <ele>7.1</ele>
        <time>2021-09-25T14:41:35Z</time>
      </trkpt>
      <trkpt lat="46.4899" lon="-1.77113">
        <ele>7.1</ele>
        <time>2021-09-25T14:41:36Z</time>
      </trkpt>
      <trkpt lat="46.48989" lon="-1.77113">
        <ele>7.1</ele>
        <time>2021-09-25T14:41:37Z</time>
      </trkpt>
      <trkpt lat="46.48989" lon="-1.77112">
        <ele>7.1</ele>
        <time>2021-09-25T14:41:38Z</time>
      </trkpt>
      <trkpt lat="46.48988" lon="-1.77113">
        <ele>7.1</ele>
        <time>2021-09-25T14:41:39Z</time>
      </trkpt>
      <trkpt lat="46.48987" lon="-1.77113">
        <ele>7.1</ele>
        <time>2021-09-25T14:41:40Z</time>
      </trkpt>
      <trkpt lat="46.48987" lon="-1.77113">
        <ele>7.1</ele>
        <time>2021-09-25T14:41:41Z</time>
      </trkpt>
      <trkpt lat="46.48987" lon="-1.77113">
        <ele>7.1</ele>
        <time>2021-09-25T14:41:42Z</time>
      </trkpt>
      <trkpt lat="46.48986" lon="-1.77113">
        <ele>7.1</ele>
        <time>2021-09-25T14:41:43Z</time>
      </trkpt>
      <trkpt lat="46.48986" lon="-1.77113">
        <ele>7.1</ele>
        <time>2021-09-25T14:41:44Z</time>
      </trkpt>
      <trkpt lat="46.48986" lon="-1.77113">
        <ele>7.1</ele>
        <time>2021-09-25T14:41:45Z</time>
      </trkpt>
      <trkpt lat="46.48986" lon="-1.77113">
        <ele>7.1</ele>
        <time>2021-09-25T14:41:46Z</time>
      </trkpt>
      <trkpt lat="46.48986" lon="-1.77113">
        <ele>7.1</ele>
        <time>2021-09-25T14:41:47Z</time>
      </trkpt>
      <trkpt lat="46.48986" lon="-1.77113">
        <ele>7.1</ele>
        <time>2021-09-25T14:41:48Z</time>
      </trkpt>
      <trkpt lat="46.48986" lon="-1.77113">
        <ele>7.1</ele>
        <time>2021-09-25T14:41:49Z</time>
      </trkpt>
      <trkpt lat="46.48986" lon="-1.77113">
        <ele>7.1</ele>
        <time>2021-09-25T14:41:50Z</time>
      </trkpt>
      <trkpt lat="46.48986" lon="-1.77113">
        <ele>7.1</ele>
        <time>2021-09-25T14:41:51Z</time>
      </trkpt>
      <trkpt lat="46.48986" lon="-1.77113">
        <ele>7.1</ele>
        <time>2021-09-25T14:41:52Z</time>
      </trkpt>
      <trkpt lat="46.48986" lon="-1.77113">
        <ele>7.1</ele>
        <time>2021-09-25T14:41:53Z</time>
      </trkpt>
      <trkpt lat="46.48986" lon="-1.77113">
        <ele>7.1</ele>
        <time>2021-09-25T14:41:54Z</time>
      </trkpt>
      <trkpt lat="46.48986" lon="-1.77113">
        <ele>7.1</ele>
        <time>2021-09-25T14:41:55Z</time>
      </trkpt>
      <trkpt lat="46.48986" lon="-1.77113">
        <ele>7.1</ele>
        <time>2021-09-25T14:41:56Z</time>
      </trkpt>
      <trkpt lat="46.48986" lon="-1.77113">
        <ele>7.1</ele>
        <time>2021-09-25T14:41:57Z</time>
      </trkpt>
      <trkpt lat="46.48986" lon="-1.77113">
        <ele>7.1</ele>
        <time>2021-09-25T14:41:58Z</time>
      </trkpt>
      <trkpt lat="46.48986" lon="-1.77113">
        <ele>7.1</ele>
        <time>2021-09-25T14:41:59Z</time>
      </trkpt>
      <trkpt lat="46.48986" lon="-1.77113">
        <ele>7.1</ele>
        <time>2021-09-25T14:42:00Z</time>
      </trkpt>
      <trkpt lat="46.48986" lon="-1.77113">
        <ele>7.1</ele>
        <time>2021-09-25T14:42:01Z</time>
      </trkpt>
      <trkpt lat="46.48986" lon="-1.77113">
        <ele>7.1</ele>
        <time>2021-09-25T14:42:02Z</time>
      </trkpt>
      <trkpt lat="46.48986" lon="-1.77113">
        <ele>7.1</ele>
        <time>2021-09-25T14:42:03Z</time>
      </trkpt>
      <trkpt lat="46.48986" lon="-1.77113">
        <ele>7.1</ele>
        <time>2021-09-25T14:42:04Z</time>
      </trkpt>
      <trkpt lat="46.48986" lon="-1.77113">
        <ele>7.1</ele>
        <time>2021-09-25T14:42:05Z</time>
      </trkpt>
      <trkpt lat="46.48986" lon="-1.77113">
        <ele>7.1</ele>
        <time>2021-09-25T14:42:06Z</time>
      </trkpt>
      <trkpt lat="46.48986" lon="-1.77113">
        <ele>7.1</ele>
        <time>2021-09-25T14:42:07Z</time>
      </trkpt>
      <trkpt lat="46.48986" lon="-1.77113">
        <ele>7.1</ele>
        <time>2021-09-25T14:42:08Z</time>
      </trkpt>
      <trkpt lat="46.48986" lon="-1.77113">
        <ele>7.1</ele>
        <time>2021-09-25T14:42:09Z</time>
      </trkpt>
      <trkpt lat="46.48986" lon="-1.77113">
        <ele>7.1</ele>
        <time>2021-09-25T14:42:10Z</time>
      </trkpt>
      <trkpt lat="46.48986" lon="-1.77113">
        <ele>7.1</ele>
        <time>2021-09-25T14:42:11Z</time>
      </trkpt>
      <trkpt lat="46.48986" lon="-1.77113">
        <ele>7.1</ele>
        <time>2021-09-25T14:42:12Z</time>
      </trkpt>
      <trkpt lat="46.48986" lon="-1.77113">
        <ele>7.1</ele>
        <time>2021-09-25T14:42:13Z</time>
      </trkpt>
      <trkpt lat="46.48986" lon="-1.77113">
        <ele>7.1</ele>
        <time>2021-09-25T14:42:14Z</time>
      </trkpt>
      <trkpt lat="46.48986" lon="-1.77113">
        <ele>7.1</ele>
        <time>2021-09-25T14:42:15Z</time>
      </trkpt>
      <trkpt lat="46.48986" lon="-1.77113">
        <ele>7.1</ele>
        <time>2021-09-25T14:42:16Z</time>
      </trkpt>
      <trkpt lat="46.48986" lon="-1.77113">
        <ele>7.1</ele>
        <time>2021-09-25T14:42:17Z</time>
      </trkpt>
    </trkseg>
  </trk>
</gpx>